<?xml version="1.0" encoding="UTF-8" standalone="no" ?>
<gpx xmlns="http://www.topografix.com/GPX/1/1" xmlns:xsi="http://www.w3.org/2001/XMLSchema-instance" xsi:schemaLocation="http://www.topografix.com/GPX/1/1 http://www.topografix.com/GPX/1/1/gpx.xsd" version="1.1" creator="VisuGPX - https://www.visugpx.com">
  <metadata>
    <name>Wallabies Tet Adriatique Juillet 2025/1</name>
    <desc><![CDATA[Les Wallabies Adriatique 2025]]></desc>
  </metadata>
  <trk>
    <name><![CDATA[5 ACT MNE_AL]]></name>
    <extensions>
      <line xmlns="http://www.topografix.com/GPX/gpx_style/0/2">
        <color>ff2600</color>
        <width>4</width>
      </line>
    </extensions>
    <trkseg>
      <trkpt lat="41.11115" lon="20.08224">
        <ele>134.20703125</ele>
      </trkpt>
      <trkpt lat="41.11073" lon="20.08221">
        <ele>132.609375</ele>
      </trkpt>
      <trkpt lat="41.10873" lon="20.08209">
        <ele>128.67578125</ele>
      </trkpt>
      <trkpt lat="41.1066" lon="20.08193">
        <ele>119.453125</ele>
      </trkpt>
      <trkpt lat="41.10578" lon="20.08183">
        <ele>122.1796875</ele>
      </trkpt>
      <trkpt lat="41.10494" lon="20.08175">
        <ele>129.390625</ele>
      </trkpt>
      <trkpt lat="41.10433" lon="20.08169">
        <ele>121.73999786377</ele>
        <time>2024-09-26T06:37:05.000Z</time>
      </trkpt>
      <trkpt lat="41.10429" lon="20.08169">
        <ele>122.2200012207</ele>
        <time>2024-09-26T06:37:06.000Z</time>
      </trkpt>
      <trkpt lat="41.10413" lon="20.08167">
        <ele>122.70999908447</ele>
        <time>2024-09-26T06:37:13.000Z</time>
      </trkpt>
      <trkpt lat="41.10388" lon="20.08163">
        <ele>123.19000244141</ele>
        <time>2024-09-26T06:37:22.000Z</time>
      </trkpt>
      <trkpt lat="41.1038" lon="20.08163">
        <ele>123.19000244141</ele>
        <time>2024-09-26T06:37:24.000Z</time>
      </trkpt>
      <trkpt lat="41.10377" lon="20.08163">
        <ele>123.19000244141</ele>
        <time>2024-09-26T06:37:25.000Z</time>
      </trkpt>
      <trkpt lat="41.1037" lon="20.08163">
        <ele>123.19000244141</ele>
        <time>2024-09-26T06:37:26.000Z</time>
      </trkpt>
      <trkpt lat="41.10365" lon="20.08163">
        <ele>123.19000244141</ele>
        <time>2024-09-26T06:37:27.000Z</time>
      </trkpt>
      <trkpt lat="41.10358" lon="20.08162">
        <ele>122.70999908447</ele>
        <time>2024-09-26T06:37:28.000Z</time>
      </trkpt>
      <trkpt lat="41.10352" lon="20.08162">
        <ele>122.70999908447</ele>
        <time>2024-09-26T06:37:29.000Z</time>
      </trkpt>
      <trkpt lat="41.10345" lon="20.08162">
        <ele>122.2200012207</ele>
        <time>2024-09-26T06:37:30.000Z</time>
      </trkpt>
      <trkpt lat="41.10304" lon="20.08159">
        <ele>121.26000213623</ele>
        <time>2024-09-26T06:37:35.000Z</time>
      </trkpt>
      <trkpt lat="41.10303" lon="20.08159">
        <ele>121.26000213623</ele>
        <time>2024-09-26T06:37:36.000Z</time>
      </trkpt>
      <trkpt lat="41.10297" lon="20.08158">
        <ele>121.26000213623</ele>
        <time>2024-09-26T06:37:37.000Z</time>
      </trkpt>
      <trkpt lat="41.10284" lon="20.08157">
        <ele>120.7799987793</ele>
        <time>2024-09-26T06:37:40.000Z</time>
      </trkpt>
      <trkpt lat="41.10279" lon="20.08157">
        <ele>120.7799987793</ele>
        <time>2024-09-26T06:37:41.000Z</time>
      </trkpt>
      <trkpt lat="41.10274" lon="20.08156">
        <ele>120.30000305176</ele>
        <time>2024-09-26T06:37:42.000Z</time>
      </trkpt>
      <trkpt lat="41.10262" lon="20.08155">
        <ele>119.81999969482</ele>
        <time>2024-09-26T06:37:44.000Z</time>
      </trkpt>
      <trkpt lat="41.10255" lon="20.08154">
        <ele>119.33999633789</ele>
        <time>2024-09-26T06:37:45.000Z</time>
      </trkpt>
      <trkpt lat="41.1025" lon="20.08154">
        <ele>119.33999633789</ele>
        <time>2024-09-26T06:37:46.000Z</time>
      </trkpt>
      <trkpt lat="41.10242" lon="20.08153">
        <ele>119.33999633789</ele>
        <time>2024-09-26T06:37:47.000Z</time>
      </trkpt>
      <trkpt lat="41.10241" lon="20.08153">
        <ele>119.33999633789</ele>
        <time>2024-09-26T06:37:48.000Z</time>
      </trkpt>
      <trkpt lat="41.10237" lon="20.08153">
        <ele>119.33999633789</ele>
        <time>2024-09-26T06:37:49.000Z</time>
      </trkpt>
      <trkpt lat="41.10218" lon="20.08151">
        <ele>119.33999633789</ele>
        <time>2024-09-26T06:37:54.000Z</time>
      </trkpt>
      <trkpt lat="41.10211" lon="20.0815">
        <ele>119.33999633789</ele>
        <time>2024-09-26T06:37:55.000Z</time>
      </trkpt>
      <trkpt lat="41.10194" lon="20.08148">
        <ele>119.33999633789</ele>
        <time>2024-09-26T06:37:58.000Z</time>
      </trkpt>
      <trkpt lat="41.10192" lon="20.08148">
        <ele>119.33999633789</ele>
        <time>2024-09-26T06:37:59.000Z</time>
      </trkpt>
      <trkpt lat="41.1018" lon="20.08146">
        <ele>118.86000061035</ele>
        <time>2024-09-26T06:38:01.000Z</time>
      </trkpt>
      <trkpt lat="41.10175" lon="20.08146">
        <ele>118.86000061035</ele>
        <time>2024-09-26T06:38:02.000Z</time>
      </trkpt>
      <trkpt lat="41.10174" lon="20.08146">
        <ele>118.86000061035</ele>
        <time>2024-09-26T06:38:03.000Z</time>
      </trkpt>
      <trkpt lat="41.10165" lon="20.08145">
        <ele>118.86000061035</ele>
        <time>2024-09-26T06:38:05.000Z</time>
      </trkpt>
      <trkpt lat="41.10158" lon="20.08144">
        <ele>118.86000061035</ele>
        <time>2024-09-26T06:38:06.000Z</time>
      </trkpt>
      <trkpt lat="41.10154" lon="20.08143">
        <ele>118.86000061035</ele>
        <time>2024-09-26T06:38:07.000Z</time>
      </trkpt>
      <trkpt lat="41.1015" lon="20.08143">
        <ele>118.86000061035</ele>
        <time>2024-09-26T06:38:08.000Z</time>
      </trkpt>
      <trkpt lat="41.10145" lon="20.08142">
        <ele>118.86000061035</ele>
        <time>2024-09-26T06:38:09.000Z</time>
      </trkpt>
      <trkpt lat="41.10135" lon="20.08142">
        <ele>119.33999633789</ele>
        <time>2024-09-26T06:38:10.000Z</time>
      </trkpt>
      <trkpt lat="41.10131" lon="20.08142">
        <ele>119.33999633789</ele>
        <time>2024-09-26T06:38:11.000Z</time>
      </trkpt>
      <trkpt lat="41.10126" lon="20.08141">
        <ele>119.81999969482</ele>
        <time>2024-09-26T06:38:12.000Z</time>
      </trkpt>
      <trkpt lat="41.10125" lon="20.08141">
        <ele>119.81999969482</ele>
        <time>2024-09-26T06:38:13.000Z</time>
      </trkpt>
      <trkpt lat="41.10117" lon="20.08141">
        <ele>119.33999633789</ele>
        <time>2024-09-26T06:38:14.000Z</time>
      </trkpt>
      <trkpt lat="41.10114" lon="20.0814">
        <ele>119.33999633789</ele>
        <time>2024-09-26T06:38:15.000Z</time>
      </trkpt>
      <trkpt lat="41.10105" lon="20.08139">
        <ele>119.33999633789</ele>
        <time>2024-09-26T06:38:17.000Z</time>
      </trkpt>
      <trkpt lat="41.101" lon="20.08138">
        <ele>118.86000061035</ele>
        <time>2024-09-26T06:38:18.000Z</time>
      </trkpt>
      <trkpt lat="41.10095" lon="20.08137">
        <ele>118.86000061035</ele>
        <time>2024-09-26T06:38:19.000Z</time>
      </trkpt>
      <trkpt lat="41.10091" lon="20.08136">
        <ele>118.37999725342</ele>
        <time>2024-09-26T06:38:20.000Z</time>
      </trkpt>
      <trkpt lat="41.10086" lon="20.08135">
        <ele>118.37999725342</ele>
        <time>2024-09-26T06:38:21.000Z</time>
      </trkpt>
      <trkpt lat="41.1008" lon="20.08134">
        <ele>117.90000152588</ele>
        <time>2024-09-26T06:38:22.000Z</time>
      </trkpt>
      <trkpt lat="41.10075" lon="20.08132">
        <ele>117.90000152588</ele>
        <time>2024-09-26T06:38:23.000Z</time>
      </trkpt>
      <trkpt lat="41.10068" lon="20.08129">
        <ele>117.90000152588</ele>
        <time>2024-09-26T06:38:24.000Z</time>
      </trkpt>
      <trkpt lat="41.10057" lon="20.08124">
        <ele>117.41999816895</ele>
        <time>2024-09-26T06:38:25.000Z</time>
      </trkpt>
      <trkpt lat="41.10045" lon="20.08119">
        <ele>117.41999816895</ele>
        <time>2024-09-26T06:38:27.000Z</time>
      </trkpt>
      <trkpt lat="41.10042" lon="20.08118">
        <ele>116.94000244141</ele>
        <time>2024-09-26T06:38:28.000Z</time>
      </trkpt>
      <trkpt lat="41.10028" lon="20.08112">
        <ele>116.94000244141</ele>
        <time>2024-09-26T06:38:30.000Z</time>
      </trkpt>
      <trkpt lat="41.10023" lon="20.0811">
        <ele>116.45999908447</ele>
        <time>2024-09-26T06:38:31.000Z</time>
      </trkpt>
      <trkpt lat="41.10005" lon="20.081">
        <ele>116.45999908447</ele>
        <time>2024-09-26T06:38:33.000Z</time>
      </trkpt>
      <trkpt lat="41.10004" lon="20.08099">
        <ele>116.45999908447</ele>
        <time>2024-09-26T06:38:34.000Z</time>
      </trkpt>
      <trkpt lat="41.09999" lon="20.08097">
        <ele>116.45999908447</ele>
        <time>2024-09-26T06:38:35.000Z</time>
      </trkpt>
      <trkpt lat="41.09995" lon="20.08095">
        <ele>116.45999908447</ele>
        <time>2024-09-26T06:38:36.000Z</time>
      </trkpt>
      <trkpt lat="41.09985" lon="20.08092">
        <ele>115.98000335693</ele>
        <time>2024-09-26T06:38:38.000Z</time>
      </trkpt>
      <trkpt lat="41.09983" lon="20.08092">
        <ele>115.98000335693</ele>
        <time>2024-09-26T06:38:39.000Z</time>
      </trkpt>
      <trkpt lat="41.09978" lon="20.08091">
        <ele>116.45999908447</ele>
        <time>2024-09-26T06:38:40.000Z</time>
      </trkpt>
      <trkpt lat="41.09974" lon="20.08091">
        <ele>115.98000335693</ele>
        <time>2024-09-26T06:38:41.000Z</time>
      </trkpt>
      <trkpt lat="41.09969" lon="20.08091">
        <ele>115.98000335693</ele>
        <time>2024-09-26T06:38:42.000Z</time>
      </trkpt>
      <trkpt lat="41.09964" lon="20.08092">
        <ele>115.98000335693</ele>
        <time>2024-09-26T06:38:43.000Z</time>
      </trkpt>
      <trkpt lat="41.09957" lon="20.08094">
        <ele>115.98000335693</ele>
        <time>2024-09-26T06:38:44.000Z</time>
      </trkpt>
      <trkpt lat="41.09949" lon="20.08097">
        <ele>115.98000335693</ele>
        <time>2024-09-26T06:38:45.000Z</time>
      </trkpt>
      <trkpt lat="41.09945" lon="20.08099">
        <ele>115.98000335693</ele>
        <time>2024-09-26T06:38:46.000Z</time>
      </trkpt>
      <trkpt lat="41.09938" lon="20.08102">
        <ele>115.5</ele>
        <time>2024-09-26T06:38:47.000Z</time>
      </trkpt>
      <trkpt lat="41.09932" lon="20.08105">
        <ele>115.5</ele>
        <time>2024-09-26T06:38:48.000Z</time>
      </trkpt>
      <trkpt lat="41.09925" lon="20.0811">
        <ele>115.5</ele>
        <time>2024-09-26T06:38:49.000Z</time>
      </trkpt>
      <trkpt lat="41.09852" lon="20.0816">
        <ele>115.5</ele>
        <time>2024-09-26T06:38:58.000Z</time>
      </trkpt>
      <trkpt lat="41.09751" lon="20.08228">
        <ele>115.5</ele>
        <time>2024-09-26T06:39:09.000Z</time>
      </trkpt>
      <trkpt lat="41.09696" lon="20.08266">
        <ele>115.01000213623</ele>
        <time>2024-09-26T06:39:17.000Z</time>
      </trkpt>
      <trkpt lat="41.09693" lon="20.08267">
        <ele>115.01000213623</ele>
        <time>2024-09-26T06:39:18.000Z</time>
      </trkpt>
      <trkpt lat="41.0961" lon="20.0831">
        <ele>109.73000335693</ele>
        <time>2024-09-26T06:39:28.000Z</time>
      </trkpt>
      <trkpt lat="41.09587" lon="20.08322">
        <ele>108.76999664307</ele>
        <time>2024-09-26T06:39:32.000Z</time>
      </trkpt>
      <trkpt lat="41.09585" lon="20.08323">
        <ele>108.76999664307</ele>
        <time>2024-09-26T06:39:33.000Z</time>
      </trkpt>
      <trkpt lat="41.09582" lon="20.08327">
        <ele>108.29000091553</ele>
        <time>2024-09-26T06:39:34.000Z</time>
      </trkpt>
      <trkpt lat="41.09581" lon="20.08332">
        <ele>108.29000091553</ele>
        <time>2024-09-26T06:39:35.000Z</time>
      </trkpt>
      <trkpt lat="41.09589" lon="20.08359">
        <ele>108.76999664307</ele>
        <time>2024-09-26T06:39:43.000Z</time>
      </trkpt>
      <trkpt lat="41.09595" lon="20.08373">
        <ele>109.25</ele>
        <time>2024-09-26T06:39:49.000Z</time>
      </trkpt>
      <trkpt lat="41.09597" lon="20.08378">
        <ele>109.25</ele>
        <time>2024-09-26T06:39:50.000Z</time>
      </trkpt>
      <trkpt lat="41.096" lon="20.08386">
        <ele>109.25</ele>
        <time>2024-09-26T06:39:51.000Z</time>
      </trkpt>
      <trkpt lat="41.09601" lon="20.08392">
        <ele>109.25</ele>
        <time>2024-09-26T06:39:52.000Z</time>
      </trkpt>
      <trkpt lat="41.09603" lon="20.08403">
        <ele>109.25</ele>
        <time>2024-09-26T06:39:53.000Z</time>
      </trkpt>
      <trkpt lat="41.09605" lon="20.0841">
        <ele>109.73000335693</ele>
        <time>2024-09-26T06:39:54.000Z</time>
      </trkpt>
      <trkpt lat="41.09606" lon="20.08416">
        <ele>109.73000335693</ele>
        <time>2024-09-26T06:39:55.000Z</time>
      </trkpt>
      <trkpt lat="41.09608" lon="20.08424">
        <ele>109.73000335693</ele>
        <time>2024-09-26T06:39:56.000Z</time>
      </trkpt>
      <trkpt lat="41.0961" lon="20.08436">
        <ele>110.20999908447</ele>
        <time>2024-09-26T06:39:57.000Z</time>
      </trkpt>
      <trkpt lat="41.09613" lon="20.08453">
        <ele>110.20999908447</ele>
        <time>2024-09-26T06:39:59.000Z</time>
      </trkpt>
      <trkpt lat="41.09615" lon="20.0846">
        <ele>110.20999908447</ele>
        <time>2024-09-26T06:40:00.000Z</time>
      </trkpt>
      <trkpt lat="41.09616" lon="20.08473">
        <ele>110.20999908447</ele>
        <time>2024-09-26T06:40:01.000Z</time>
      </trkpt>
      <trkpt lat="41.09617" lon="20.08492">
        <ele>110.69000244141</ele>
        <time>2024-09-26T06:40:03.000Z</time>
      </trkpt>
      <trkpt lat="41.09619" lon="20.08517">
        <ele>110.69000244141</ele>
        <time>2024-09-26T06:40:05.000Z</time>
      </trkpt>
      <trkpt lat="41.09619" lon="20.08527">
        <ele>110.69000244141</ele>
        <time>2024-09-26T06:40:06.000Z</time>
      </trkpt>
      <trkpt lat="41.09621" lon="20.08553">
        <ele>110.69000244141</ele>
        <time>2024-09-26T06:40:08.000Z</time>
      </trkpt>
      <trkpt lat="41.09622" lon="20.08568">
        <ele>111.16999816895</ele>
        <time>2024-09-26T06:40:09.000Z</time>
      </trkpt>
      <trkpt lat="41.09623" lon="20.08591">
        <ele>111.16999816895</ele>
        <time>2024-09-26T06:40:11.000Z</time>
      </trkpt>
      <trkpt lat="41.09623" lon="20.08598">
        <ele>111.16999816895</ele>
        <time>2024-09-26T06:40:12.000Z</time>
      </trkpt>
      <trkpt lat="41.09624" lon="20.08612">
        <ele>111.16999816895</ele>
        <time>2024-09-26T06:40:14.000Z</time>
      </trkpt>
      <trkpt lat="41.09626" lon="20.08624">
        <ele>110.69000244141</ele>
        <time>2024-09-26T06:40:15.000Z</time>
      </trkpt>
      <trkpt lat="41.09626" lon="20.08625">
        <ele>110.69000244141</ele>
        <time>2024-09-26T06:40:16.000Z</time>
      </trkpt>
      <trkpt lat="41.09632" lon="20.0865">
        <ele>111.16999816895</ele>
        <time>2024-09-26T06:40:23.000Z</time>
      </trkpt>
      <trkpt lat="41.09633" lon="20.08654">
        <ele>111.16999816895</ele>
        <time>2024-09-26T06:40:24.000Z</time>
      </trkpt>
      <trkpt lat="41.09635" lon="20.08662">
        <ele>111.16999816895</ele>
        <time>2024-09-26T06:40:25.000Z</time>
      </trkpt>
      <trkpt lat="41.09637" lon="20.08669">
        <ele>111.65000152588</ele>
        <time>2024-09-26T06:40:26.000Z</time>
      </trkpt>
      <trkpt lat="41.09638" lon="20.08674">
        <ele>111.65000152588</ele>
        <time>2024-09-26T06:40:27.000Z</time>
      </trkpt>
      <trkpt lat="41.09641" lon="20.0868">
        <ele>112.12999725342</ele>
        <time>2024-09-26T06:40:28.000Z</time>
      </trkpt>
      <trkpt lat="41.09647" lon="20.08694">
        <ele>112.61000061035</ele>
        <time>2024-09-26T06:40:30.000Z</time>
      </trkpt>
      <trkpt lat="41.09651" lon="20.08702">
        <ele>112.61000061035</ele>
        <time>2024-09-26T06:40:31.000Z</time>
      </trkpt>
      <trkpt lat="41.09653" lon="20.08711">
        <ele>113.08999633789</ele>
        <time>2024-09-26T06:40:32.000Z</time>
      </trkpt>
      <trkpt lat="41.09654" lon="20.0872">
        <ele>113.08999633789</ele>
        <time>2024-09-26T06:40:33.000Z</time>
      </trkpt>
      <trkpt lat="41.09654" lon="20.0873">
        <ele>113.08999633789</ele>
        <time>2024-09-26T06:40:34.000Z</time>
      </trkpt>
      <trkpt lat="41.09653" lon="20.08741">
        <ele>113.56999969482</ele>
        <time>2024-09-26T06:40:35.000Z</time>
      </trkpt>
      <trkpt lat="41.0965" lon="20.08751">
        <ele>113.56999969482</ele>
        <time>2024-09-26T06:40:36.000Z</time>
      </trkpt>
      <trkpt lat="41.09644" lon="20.08761">
        <ele>114.05000305176</ele>
        <time>2024-09-26T06:40:37.000Z</time>
      </trkpt>
      <trkpt lat="41.09629" lon="20.08777">
        <ele>114.5299987793</ele>
        <time>2024-09-26T06:40:39.000Z</time>
      </trkpt>
      <trkpt lat="41.09623" lon="20.08784">
        <ele>115.01000213623</ele>
        <time>2024-09-26T06:40:40.000Z</time>
      </trkpt>
      <trkpt lat="41.09616" lon="20.08794">
        <ele>115.01000213623</ele>
        <time>2024-09-26T06:40:41.000Z</time>
      </trkpt>
      <trkpt lat="41.09613" lon="20.08804">
        <ele>115.01000213623</ele>
        <time>2024-09-26T06:40:42.000Z</time>
      </trkpt>
      <trkpt lat="41.09611" lon="20.08816">
        <ele>115.5</ele>
        <time>2024-09-26T06:40:43.000Z</time>
      </trkpt>
      <trkpt lat="41.0961" lon="20.08827">
        <ele>116.45999908447</ele>
        <time>2024-09-26T06:40:44.000Z</time>
      </trkpt>
      <trkpt lat="41.09611" lon="20.08837">
        <ele>117.41999816895</ele>
        <time>2024-09-26T06:40:45.000Z</time>
      </trkpt>
      <trkpt lat="41.09611" lon="20.08848">
        <ele>117.90000152588</ele>
        <time>2024-09-26T06:40:46.000Z</time>
      </trkpt>
      <trkpt lat="41.09612" lon="20.0885">
        <ele>118.37999725342</ele>
        <time>2024-09-26T06:40:47.000Z</time>
      </trkpt>
      <trkpt lat="41.09613" lon="20.08861">
        <ele>119.33999633789</ele>
        <time>2024-09-26T06:40:48.000Z</time>
      </trkpt>
      <trkpt lat="41.09613" lon="20.08864">
        <ele>119.33999633789</ele>
        <time>2024-09-26T06:40:49.000Z</time>
      </trkpt>
      <trkpt lat="41.09614" lon="20.0887">
        <ele>119.81999969482</ele>
        <time>2024-09-26T06:40:50.000Z</time>
      </trkpt>
      <trkpt lat="41.09614" lon="20.08877">
        <ele>120.30000305176</ele>
        <time>2024-09-26T06:40:51.000Z</time>
      </trkpt>
      <trkpt lat="41.09613" lon="20.08886">
        <ele>120.30000305176</ele>
        <time>2024-09-26T06:40:52.000Z</time>
      </trkpt>
      <trkpt lat="41.09611" lon="20.08893">
        <ele>120.7799987793</ele>
        <time>2024-09-26T06:40:53.000Z</time>
      </trkpt>
      <trkpt lat="41.09608" lon="20.08901">
        <ele>121.73999786377</ele>
        <time>2024-09-26T06:40:54.000Z</time>
      </trkpt>
      <trkpt lat="41.09604" lon="20.08908">
        <ele>122.2200012207</ele>
        <time>2024-09-26T06:40:55.000Z</time>
      </trkpt>
      <trkpt lat="41.09584" lon="20.08932">
        <ele>124.62999725342</ele>
        <time>2024-09-26T06:40:58.000Z</time>
      </trkpt>
      <trkpt lat="41.0958" lon="20.08936">
        <ele>125.11000061035</ele>
        <time>2024-09-26T06:40:59.000Z</time>
      </trkpt>
      <trkpt lat="41.09569" lon="20.08946">
        <ele>125.11000061035</ele>
        <time>2024-09-26T06:41:00.000Z</time>
      </trkpt>
      <trkpt lat="41.09567" lon="20.08948">
        <ele>125.11000061035</ele>
        <time>2024-09-26T06:41:01.000Z</time>
      </trkpt>
      <trkpt lat="41.0956" lon="20.08953">
        <ele>125.11000061035</ele>
        <time>2024-09-26T06:41:02.000Z</time>
      </trkpt>
      <trkpt lat="41.09552" lon="20.08959">
        <ele>125.11000061035</ele>
        <time>2024-09-26T06:41:03.000Z</time>
      </trkpt>
      <trkpt lat="41.09546" lon="20.08961">
        <ele>125.11000061035</ele>
        <time>2024-09-26T06:41:04.000Z</time>
      </trkpt>
      <trkpt lat="41.0954" lon="20.08961">
        <ele>125.11000061035</ele>
        <time>2024-09-26T06:41:05.000Z</time>
      </trkpt>
      <trkpt lat="41.09534" lon="20.0896">
        <ele>124.62999725342</ele>
        <time>2024-09-26T06:41:06.000Z</time>
      </trkpt>
      <trkpt lat="41.09528" lon="20.08953">
        <ele>125.11000061035</ele>
        <time>2024-09-26T06:41:07.000Z</time>
      </trkpt>
      <trkpt lat="41.09516" lon="20.08936">
        <ele>125.11000061035</ele>
        <time>2024-09-26T06:41:09.000Z</time>
      </trkpt>
      <trkpt lat="41.09511" lon="20.0893">
        <ele>124.62999725342</ele>
        <time>2024-09-26T06:41:10.000Z</time>
      </trkpt>
      <trkpt lat="41.09506" lon="20.08925">
        <ele>124.62999725342</ele>
        <time>2024-09-26T06:41:11.000Z</time>
      </trkpt>
      <trkpt lat="41.09499" lon="20.0892">
        <ele>124.15000152588</ele>
        <time>2024-09-26T06:41:12.000Z</time>
      </trkpt>
      <trkpt lat="41.09492" lon="20.08918">
        <ele>123.66999816895</ele>
        <time>2024-09-26T06:41:13.000Z</time>
      </trkpt>
      <trkpt lat="41.09485" lon="20.08919">
        <ele>123.19000244141</ele>
        <time>2024-09-26T06:41:14.000Z</time>
      </trkpt>
      <trkpt lat="41.09478" lon="20.08924">
        <ele>123.19000244141</ele>
        <time>2024-09-26T06:41:15.000Z</time>
      </trkpt>
      <trkpt lat="41.09473" lon="20.08933">
        <ele>123.19000244141</ele>
        <time>2024-09-26T06:41:16.000Z</time>
      </trkpt>
      <trkpt lat="41.09455" lon="20.0897">
        <ele>123.19000244141</ele>
        <time>2024-09-26T06:41:19.000Z</time>
      </trkpt>
      <trkpt lat="41.09453" lon="20.08974">
        <ele>123.19000244141</ele>
        <time>2024-09-26T06:41:20.000Z</time>
      </trkpt>
      <trkpt lat="41.09447" lon="20.08984">
        <ele>123.66999816895</ele>
        <time>2024-09-26T06:41:21.000Z</time>
      </trkpt>
      <trkpt lat="41.0944" lon="20.08992">
        <ele>124.15000152588</ele>
        <time>2024-09-26T06:41:22.000Z</time>
      </trkpt>
      <trkpt lat="41.09432" lon="20.08996">
        <ele>124.15000152588</ele>
        <time>2024-09-26T06:41:23.000Z</time>
      </trkpt>
      <trkpt lat="41.09422" lon="20.08997">
        <ele>123.66999816895</ele>
        <time>2024-09-26T06:41:24.000Z</time>
      </trkpt>
      <trkpt lat="41.09405" lon="20.08995">
        <ele>122.70999908447</ele>
        <time>2024-09-26T06:41:25.000Z</time>
      </trkpt>
      <trkpt lat="41.09403" lon="20.08995">
        <ele>122.70999908447</ele>
        <time>2024-09-26T06:41:26.000Z</time>
      </trkpt>
      <trkpt lat="41.09393" lon="20.08996">
        <ele>122.2200012207</ele>
        <time>2024-09-26T06:41:27.000Z</time>
      </trkpt>
      <trkpt lat="41.09383" lon="20.08998">
        <ele>122.2200012207</ele>
        <time>2024-09-26T06:41:28.000Z</time>
      </trkpt>
      <trkpt lat="41.09373" lon="20.09003">
        <ele>121.73999786377</ele>
        <time>2024-09-26T06:41:29.000Z</time>
      </trkpt>
      <trkpt lat="41.09365" lon="20.09009">
        <ele>121.26000213623</ele>
        <time>2024-09-26T06:41:30.000Z</time>
      </trkpt>
      <trkpt lat="41.09357" lon="20.09016">
        <ele>120.7799987793</ele>
        <time>2024-09-26T06:41:31.000Z</time>
      </trkpt>
      <trkpt lat="41.09349" lon="20.09025">
        <ele>120.30000305176</ele>
        <time>2024-09-26T06:41:32.000Z</time>
      </trkpt>
      <trkpt lat="41.09343" lon="20.09035">
        <ele>119.81999969482</ele>
        <time>2024-09-26T06:41:33.000Z</time>
      </trkpt>
      <trkpt lat="41.09338" lon="20.09045">
        <ele>119.81999969482</ele>
        <time>2024-09-26T06:41:34.000Z</time>
      </trkpt>
      <trkpt lat="41.09335" lon="20.09057">
        <ele>119.81999969482</ele>
        <time>2024-09-26T06:41:35.000Z</time>
      </trkpt>
      <trkpt lat="41.09333" lon="20.09069">
        <ele>119.81999969482</ele>
        <time>2024-09-26T06:41:36.000Z</time>
      </trkpt>
      <trkpt lat="41.09332" lon="20.09086">
        <ele>119.81999969482</ele>
        <time>2024-09-26T06:41:37.000Z</time>
      </trkpt>
      <trkpt lat="41.09331" lon="20.09095">
        <ele>119.33999633789</ele>
        <time>2024-09-26T06:41:38.000Z</time>
      </trkpt>
      <trkpt lat="41.09329" lon="20.09108">
        <ele>119.81999969482</ele>
        <time>2024-09-26T06:41:39.000Z</time>
      </trkpt>
      <trkpt lat="41.09325" lon="20.0912">
        <ele>119.81999969482</ele>
        <time>2024-09-26T06:41:40.000Z</time>
      </trkpt>
      <trkpt lat="41.0932" lon="20.09131">
        <ele>119.81999969482</ele>
        <time>2024-09-26T06:41:41.000Z</time>
      </trkpt>
      <trkpt lat="41.09314" lon="20.0914">
        <ele>119.81999969482</ele>
        <time>2024-09-26T06:41:42.000Z</time>
      </trkpt>
      <trkpt lat="41.09297" lon="20.09159">
        <ele>120.30000305176</ele>
        <time>2024-09-26T06:41:44.000Z</time>
      </trkpt>
      <trkpt lat="41.09208" lon="20.0924">
        <ele>118.37999725342</ele>
        <time>2024-09-26T06:41:54.000Z</time>
      </trkpt>
      <trkpt lat="41.09183" lon="20.09261">
        <ele>117.90000152588</ele>
        <time>2024-09-26T06:41:57.000Z</time>
      </trkpt>
      <trkpt lat="41.09133" lon="20.09305">
        <ele>117.90000152588</ele>
        <time>2024-09-26T06:42:04.000Z</time>
      </trkpt>
      <trkpt lat="41.09129" lon="20.0931">
        <ele>117.90000152588</ele>
        <time>2024-09-26T06:42:05.000Z</time>
      </trkpt>
      <trkpt lat="41.09113" lon="20.09325">
        <ele>117.41999816895</ele>
        <time>2024-09-26T06:42:10.000Z</time>
      </trkpt>
      <trkpt lat="41.09106" lon="20.09331">
        <ele>117.41999816895</ele>
        <time>2024-09-26T06:42:11.000Z</time>
      </trkpt>
      <trkpt lat="41.09105" lon="20.09331">
        <ele>117.41999816895</ele>
        <time>2024-09-26T06:42:12.000Z</time>
      </trkpt>
      <trkpt lat="41.09096" lon="20.09337">
        <ele>117.41999816895</ele>
        <time>2024-09-26T06:42:13.000Z</time>
      </trkpt>
      <trkpt lat="41.09093" lon="20.09339">
        <ele>117.41999816895</ele>
        <time>2024-09-26T06:42:14.000Z</time>
      </trkpt>
      <trkpt lat="41.09086" lon="20.09345">
        <ele>117.41999816895</ele>
        <time>2024-09-26T06:42:15.000Z</time>
      </trkpt>
      <trkpt lat="41.09049" lon="20.09378">
        <ele>118.86000061035</ele>
        <time>2024-09-26T06:42:20.000Z</time>
      </trkpt>
      <trkpt lat="41.09043" lon="20.09383">
        <ele>118.86000061035</ele>
        <time>2024-09-26T06:42:21.000Z</time>
      </trkpt>
      <trkpt lat="41.09032" lon="20.09394">
        <ele>118.86000061035</ele>
        <time>2024-09-26T06:42:23.000Z</time>
      </trkpt>
      <trkpt lat="41.09021" lon="20.09408">
        <ele>119.33999633789</ele>
        <time>2024-09-26T06:42:24.000Z</time>
      </trkpt>
      <trkpt lat="41.09009" lon="20.09425">
        <ele>119.81999969482</ele>
        <time>2024-09-26T06:42:26.000Z</time>
      </trkpt>
      <trkpt lat="41.09005" lon="20.0943">
        <ele>119.81999969482</ele>
        <time>2024-09-26T06:42:27.000Z</time>
      </trkpt>
      <trkpt lat="41.08997" lon="20.09442">
        <ele>119.33999633789</ele>
        <time>2024-09-26T06:42:28.000Z</time>
      </trkpt>
      <trkpt lat="41.08992" lon="20.09451">
        <ele>119.81999969482</ele>
        <time>2024-09-26T06:42:29.000Z</time>
      </trkpt>
      <trkpt lat="41.08989" lon="20.09458">
        <ele>119.81999969482</ele>
        <time>2024-09-26T06:42:30.000Z</time>
      </trkpt>
      <trkpt lat="41.08986" lon="20.09465">
        <ele>120.30000305176</ele>
        <time>2024-09-26T06:42:31.000Z</time>
      </trkpt>
      <trkpt lat="41.08981" lon="20.09477">
        <ele>120.7799987793</ele>
        <time>2024-09-26T06:42:32.000Z</time>
      </trkpt>
      <trkpt lat="41.08978" lon="20.09489">
        <ele>121.73999786377</ele>
        <time>2024-09-26T06:42:33.000Z</time>
      </trkpt>
      <trkpt lat="41.08977" lon="20.09502">
        <ele>122.2200012207</ele>
        <time>2024-09-26T06:42:34.000Z</time>
      </trkpt>
      <trkpt lat="41.08977" lon="20.09547">
        <ele>125.58999633789</ele>
        <time>2024-09-26T06:42:37.000Z</time>
      </trkpt>
      <trkpt lat="41.08977" lon="20.09556">
        <ele>126.06999969482</ele>
        <time>2024-09-26T06:42:38.000Z</time>
      </trkpt>
      <trkpt lat="41.08973" lon="20.09588">
        <ele>127.51000213623</ele>
        <time>2024-09-26T06:42:40.000Z</time>
      </trkpt>
      <trkpt lat="41.08972" lon="20.09596">
        <ele>127.98999786377</ele>
        <time>2024-09-26T06:42:41.000Z</time>
      </trkpt>
      <trkpt lat="41.0897" lon="20.09604">
        <ele>128.4700012207</ele>
        <time>2024-09-26T06:42:42.000Z</time>
      </trkpt>
      <trkpt lat="41.08967" lon="20.09614">
        <ele>128.94999694824</ele>
        <time>2024-09-26T06:42:43.000Z</time>
      </trkpt>
      <trkpt lat="41.08943" lon="20.09657">
        <ele>132.32000732422</ele>
        <time>2024-09-26T06:42:47.000Z</time>
      </trkpt>
      <trkpt lat="41.08905" lon="20.0971">
        <ele>137.13000488281</ele>
        <time>2024-09-26T06:42:53.000Z</time>
      </trkpt>
      <trkpt lat="41.08903" lon="20.09714">
        <ele>137.13000488281</ele>
        <time>2024-09-26T06:42:54.000Z</time>
      </trkpt>
      <trkpt lat="41.08898" lon="20.09724">
        <ele>138.08999633789</ele>
        <time>2024-09-26T06:42:55.000Z</time>
      </trkpt>
      <trkpt lat="41.08896" lon="20.09736">
        <ele>138.57000732422</ele>
        <time>2024-09-26T06:42:56.000Z</time>
      </trkpt>
      <trkpt lat="41.08898" lon="20.09783">
        <ele>140.9700012207</ele>
        <time>2024-09-26T06:42:59.000Z</time>
      </trkpt>
      <trkpt lat="41.08898" lon="20.09787">
        <ele>141.44999694824</ele>
        <time>2024-09-26T06:43:00.000Z</time>
      </trkpt>
      <trkpt lat="41.08899" lon="20.09797">
        <ele>142.41000366211</ele>
        <time>2024-09-26T06:43:01.000Z</time>
      </trkpt>
      <trkpt lat="41.089" lon="20.09809">
        <ele>142.88999938965</ele>
        <time>2024-09-26T06:43:02.000Z</time>
      </trkpt>
      <trkpt lat="41.08903" lon="20.09822">
        <ele>143.85000610352</ele>
        <time>2024-09-26T06:43:03.000Z</time>
      </trkpt>
      <trkpt lat="41.08909" lon="20.09843">
        <ele>145.30000305176</ele>
        <time>2024-09-26T06:43:04.000Z</time>
      </trkpt>
      <trkpt lat="41.0891" lon="20.09848">
        <ele>145.30000305176</ele>
        <time>2024-09-26T06:43:05.000Z</time>
      </trkpt>
      <trkpt lat="41.08911" lon="20.0986">
        <ele>145.7799987793</ele>
        <time>2024-09-26T06:43:06.000Z</time>
      </trkpt>
      <trkpt lat="41.08911" lon="20.0989">
        <ele>146.74000549316</ele>
        <time>2024-09-26T06:43:08.000Z</time>
      </trkpt>
      <trkpt lat="41.08911" lon="20.09901">
        <ele>147.2200012207</ele>
        <time>2024-09-26T06:43:09.000Z</time>
      </trkpt>
      <trkpt lat="41.08911" lon="20.09911">
        <ele>147.69999694824</ele>
        <time>2024-09-26T06:43:10.000Z</time>
      </trkpt>
      <trkpt lat="41.08911" lon="20.09918">
        <ele>148.17999267578</ele>
        <time>2024-09-26T06:43:11.000Z</time>
      </trkpt>
      <trkpt lat="41.08912" lon="20.0993">
        <ele>148.66000366211</ele>
        <time>2024-09-26T06:43:12.000Z</time>
      </trkpt>
      <trkpt lat="41.08914" lon="20.09941">
        <ele>148.66000366211</ele>
        <time>2024-09-26T06:43:13.000Z</time>
      </trkpt>
      <trkpt lat="41.08918" lon="20.0995">
        <ele>149.13999938965</ele>
        <time>2024-09-26T06:43:14.000Z</time>
      </trkpt>
      <trkpt lat="41.08924" lon="20.09957">
        <ele>149.13999938965</ele>
        <time>2024-09-26T06:43:15.000Z</time>
      </trkpt>
      <trkpt lat="41.08933" lon="20.09963">
        <ele>150.10000610352</ele>
        <time>2024-09-26T06:43:16.000Z</time>
      </trkpt>
      <trkpt lat="41.08942" lon="20.09967">
        <ele>150.58000183105</ele>
        <time>2024-09-26T06:43:17.000Z</time>
      </trkpt>
      <trkpt lat="41.08973" lon="20.09976">
        <ele>152.99000549316</ele>
        <time>2024-09-26T06:43:20.000Z</time>
      </trkpt>
      <trkpt lat="41.0898" lon="20.09979">
        <ele>153.4700012207</ele>
        <time>2024-09-26T06:43:21.000Z</time>
      </trkpt>
      <trkpt lat="41.08995" lon="20.09987">
        <ele>154.42999267578</ele>
        <time>2024-09-26T06:43:22.000Z</time>
      </trkpt>
      <trkpt lat="41.08998" lon="20.09988">
        <ele>154.42999267578</ele>
        <time>2024-09-26T06:43:23.000Z</time>
      </trkpt>
      <trkpt lat="41.09006" lon="20.0999">
        <ele>154.91000366211</ele>
        <time>2024-09-26T06:43:24.000Z</time>
      </trkpt>
      <trkpt lat="41.09016" lon="20.09991">
        <ele>155.86999511719</ele>
        <time>2024-09-26T06:43:25.000Z</time>
      </trkpt>
      <trkpt lat="41.0904" lon="20.09987">
        <ele>156.83000183105</ele>
        <time>2024-09-26T06:43:27.000Z</time>
      </trkpt>
      <trkpt lat="41.09049" lon="20.09986">
        <ele>157.30999755859</ele>
        <time>2024-09-26T06:43:28.000Z</time>
      </trkpt>
      <trkpt lat="41.09058" lon="20.09987">
        <ele>157.78999328613</ele>
        <time>2024-09-26T06:43:29.000Z</time>
      </trkpt>
      <trkpt lat="41.09066" lon="20.09991">
        <ele>158.27000427246</ele>
        <time>2024-09-26T06:43:30.000Z</time>
      </trkpt>
      <trkpt lat="41.09069" lon="20.09997">
        <ele>158.75</ele>
        <time>2024-09-26T06:43:31.000Z</time>
      </trkpt>
      <trkpt lat="41.0907" lon="20.10004">
        <ele>159.7200012207</ele>
        <time>2024-09-26T06:43:32.000Z</time>
      </trkpt>
      <trkpt lat="41.09066" lon="20.10011">
        <ele>160.19999694824</ele>
        <time>2024-09-26T06:43:33.000Z</time>
      </trkpt>
      <trkpt lat="41.0906" lon="20.10016">
        <ele>160.67999267578</ele>
        <time>2024-09-26T06:43:34.000Z</time>
      </trkpt>
      <trkpt lat="41.09045" lon="20.10022">
        <ele>161.16000366211</ele>
        <time>2024-09-26T06:43:36.000Z</time>
      </trkpt>
      <trkpt lat="41.09034" lon="20.10027">
        <ele>161.63999938965</ele>
        <time>2024-09-26T06:43:37.000Z</time>
      </trkpt>
      <trkpt lat="41.0903" lon="20.10029">
        <ele>161.63999938965</ele>
        <time>2024-09-26T06:43:38.000Z</time>
      </trkpt>
      <trkpt lat="41.09024" lon="20.1003">
        <ele>161.63999938965</ele>
        <time>2024-09-26T06:43:39.000Z</time>
      </trkpt>
      <trkpt lat="41.09015" lon="20.10031">
        <ele>162.11999511719</ele>
        <time>2024-09-26T06:43:40.000Z</time>
      </trkpt>
      <trkpt lat="41.08997" lon="20.10028">
        <ele>162.60000610352</ele>
        <time>2024-09-26T06:43:41.000Z</time>
      </trkpt>
      <trkpt lat="41.08993" lon="20.10027">
        <ele>163.08000183105</ele>
        <time>2024-09-26T06:43:42.000Z</time>
      </trkpt>
      <trkpt lat="41.08988" lon="20.10026">
        <ele>163.08000183105</ele>
        <time>2024-09-26T06:43:43.000Z</time>
      </trkpt>
      <trkpt lat="41.08979" lon="20.10027">
        <ele>163.55999755859</ele>
        <time>2024-09-26T06:43:44.000Z</time>
      </trkpt>
      <trkpt lat="41.0897" lon="20.1003">
        <ele>164.03999328613</ele>
        <time>2024-09-26T06:43:45.000Z</time>
      </trkpt>
      <trkpt lat="41.08959" lon="20.10036">
        <ele>165</ele>
        <time>2024-09-26T06:43:46.000Z</time>
      </trkpt>
      <trkpt lat="41.08929" lon="20.10053">
        <ele>167.41000366211</ele>
        <time>2024-09-26T06:43:51.000Z</time>
      </trkpt>
      <trkpt lat="41.08922" lon="20.10057">
        <ele>167.88999938965</ele>
        <time>2024-09-26T06:43:52.000Z</time>
      </trkpt>
      <trkpt lat="41.08912" lon="20.10059">
        <ele>167.88999938965</ele>
        <time>2024-09-26T06:43:53.000Z</time>
      </trkpt>
      <trkpt lat="41.08902" lon="20.10058">
        <ele>167.88999938965</ele>
        <time>2024-09-26T06:43:54.000Z</time>
      </trkpt>
      <trkpt lat="41.08871" lon="20.10048">
        <ele>168.85000610352</ele>
        <time>2024-09-26T06:43:56.000Z</time>
      </trkpt>
      <trkpt lat="41.08867" lon="20.10047">
        <ele>169.33000183105</ele>
        <time>2024-09-26T06:43:57.000Z</time>
      </trkpt>
      <trkpt lat="41.08743" lon="20.10011">
        <ele>175.58000183105</ele>
        <time>2024-09-26T06:44:07.000Z</time>
      </trkpt>
      <trkpt lat="41.08698" lon="20.10009">
        <ele>177.97999572754</ele>
        <time>2024-09-26T06:44:11.000Z</time>
      </trkpt>
      <trkpt lat="41.08694" lon="20.1001">
        <ele>178.46000671387</ele>
        <time>2024-09-26T06:44:12.000Z</time>
      </trkpt>
      <trkpt lat="41.08687" lon="20.10011">
        <ele>178.94000244141</ele>
        <time>2024-09-26T06:44:13.000Z</time>
      </trkpt>
      <trkpt lat="41.08678" lon="20.10015">
        <ele>179.41999816895</ele>
        <time>2024-09-26T06:44:14.000Z</time>
      </trkpt>
      <trkpt lat="41.08662" lon="20.10024">
        <ele>179.89999389648</ele>
        <time>2024-09-26T06:44:16.000Z</time>
      </trkpt>
      <trkpt lat="41.08655" lon="20.10029">
        <ele>180.38000488281</ele>
        <time>2024-09-26T06:44:17.000Z</time>
      </trkpt>
      <trkpt lat="41.08649" lon="20.10035">
        <ele>180.38000488281</ele>
        <time>2024-09-26T06:44:18.000Z</time>
      </trkpt>
      <trkpt lat="41.08644" lon="20.10042">
        <ele>180.86999511719</ele>
        <time>2024-09-26T06:44:19.000Z</time>
      </trkpt>
      <trkpt lat="41.08631" lon="20.10064">
        <ele>182.30999755859</ele>
        <time>2024-09-26T06:44:21.000Z</time>
      </trkpt>
      <trkpt lat="41.08617" lon="20.10091">
        <ele>185.19000244141</ele>
        <time>2024-09-26T06:44:25.000Z</time>
      </trkpt>
      <trkpt lat="41.08609" lon="20.10104">
        <ele>186.63000488281</ele>
        <time>2024-09-26T06:44:26.000Z</time>
      </trkpt>
      <trkpt lat="41.08595" lon="20.10123">
        <ele>188.55999755859</ele>
        <time>2024-09-26T06:44:29.000Z</time>
      </trkpt>
      <trkpt lat="41.08594" lon="20.10126">
        <ele>188.55999755859</ele>
        <time>2024-09-26T06:44:30.000Z</time>
      </trkpt>
      <trkpt lat="41.08585" lon="20.10139">
        <ele>190.47999572754</ele>
        <time>2024-09-26T06:44:34.000Z</time>
      </trkpt>
      <trkpt lat="41.0858" lon="20.10149">
        <ele>190.47999572754</ele>
        <time>2024-09-26T06:44:35.000Z</time>
      </trkpt>
      <trkpt lat="41.08573" lon="20.1016">
        <ele>190.96000671387</ele>
        <time>2024-09-26T06:44:37.000Z</time>
      </trkpt>
      <trkpt lat="41.08546" lon="20.10212">
        <ele>191.44000244141</ele>
        <time>2024-09-26T06:44:44.000Z</time>
      </trkpt>
      <trkpt lat="41.08542" lon="20.10218">
        <ele>191.44000244141</ele>
        <time>2024-09-26T06:44:45.000Z</time>
      </trkpt>
      <trkpt lat="41.08538" lon="20.10224">
        <ele>191.44000244141</ele>
        <time>2024-09-26T06:44:46.000Z</time>
      </trkpt>
      <trkpt lat="41.08533" lon="20.10231">
        <ele>191.44000244141</ele>
        <time>2024-09-26T06:44:47.000Z</time>
      </trkpt>
      <trkpt lat="41.08525" lon="20.10241">
        <ele>191.44000244141</ele>
        <time>2024-09-26T06:44:48.000Z</time>
      </trkpt>
      <trkpt lat="41.08508" lon="20.10262">
        <ele>191.44000244141</ele>
        <time>2024-09-26T06:44:51.000Z</time>
      </trkpt>
      <trkpt lat="41.085" lon="20.10271">
        <ele>190.96000671387</ele>
        <time>2024-09-26T06:44:53.000Z</time>
      </trkpt>
      <trkpt lat="41.08464" lon="20.10316">
        <ele>190.96000671387</ele>
        <time>2024-09-26T06:44:59.000Z</time>
      </trkpt>
      <trkpt lat="41.08457" lon="20.10326">
        <ele>190.96000671387</ele>
        <time>2024-09-26T06:45:00.000Z</time>
      </trkpt>
      <trkpt lat="41.08452" lon="20.10332">
        <ele>190.96000671387</ele>
        <time>2024-09-26T06:45:01.000Z</time>
      </trkpt>
      <trkpt lat="41.08445" lon="20.10338">
        <ele>190.96000671387</ele>
        <time>2024-09-26T06:45:02.000Z</time>
      </trkpt>
      <trkpt lat="41.08439" lon="20.10341">
        <ele>190.96000671387</ele>
        <time>2024-09-26T06:45:03.000Z</time>
      </trkpt>
      <trkpt lat="41.08433" lon="20.10344">
        <ele>190.96000671387</ele>
        <time>2024-09-26T06:45:04.000Z</time>
      </trkpt>
      <trkpt lat="41.08428" lon="20.10346">
        <ele>190.96000671387</ele>
        <time>2024-09-26T06:45:05.000Z</time>
      </trkpt>
      <trkpt lat="41.08416" lon="20.10345">
        <ele>190.47999572754</ele>
        <time>2024-09-26T06:45:08.000Z</time>
      </trkpt>
      <trkpt lat="41.08411" lon="20.10345">
        <ele>190.47999572754</ele>
        <time>2024-09-26T06:45:09.000Z</time>
      </trkpt>
      <trkpt lat="41.08402" lon="20.10344">
        <ele>190.96000671387</ele>
        <time>2024-09-26T06:45:10.000Z</time>
      </trkpt>
      <trkpt lat="41.084" lon="20.10343">
        <ele>190.96000671387</ele>
        <time>2024-09-26T06:45:11.000Z</time>
      </trkpt>
      <trkpt lat="41.0839" lon="20.10342">
        <ele>190.47999572754</ele>
        <time>2024-09-26T06:45:12.000Z</time>
      </trkpt>
      <trkpt lat="41.08369" lon="20.10341">
        <ele>190.47999572754</ele>
        <time>2024-09-26T06:45:14.000Z</time>
      </trkpt>
      <trkpt lat="41.08344" lon="20.10338">
        <ele>190</ele>
        <time>2024-09-26T06:45:18.000Z</time>
      </trkpt>
      <trkpt lat="41.08242" lon="20.10331">
        <ele>187.58999633789</ele>
        <time>2024-09-26T06:45:30.000Z</time>
      </trkpt>
      <trkpt lat="41.08234" lon="20.1033">
        <ele>187.11000061035</ele>
        <time>2024-09-26T06:45:31.000Z</time>
      </trkpt>
      <trkpt lat="41.08225" lon="20.10327">
        <ele>187.11000061035</ele>
        <time>2024-09-26T06:45:32.000Z</time>
      </trkpt>
      <trkpt lat="41.08215" lon="20.10322">
        <ele>186.63000488281</ele>
        <time>2024-09-26T06:45:33.000Z</time>
      </trkpt>
      <trkpt lat="41.08208" lon="20.10316">
        <ele>186.63000488281</ele>
        <time>2024-09-26T06:45:34.000Z</time>
      </trkpt>
      <trkpt lat="41.08197" lon="20.10306">
        <ele>186.14999389648</ele>
        <time>2024-09-26T06:45:35.000Z</time>
      </trkpt>
      <trkpt lat="41.08191" lon="20.10299">
        <ele>186.14999389648</ele>
        <time>2024-09-26T06:45:36.000Z</time>
      </trkpt>
      <trkpt lat="41.08181" lon="20.10287">
        <ele>186.14999389648</ele>
        <time>2024-09-26T06:45:37.000Z</time>
      </trkpt>
      <trkpt lat="41.08166" lon="20.10269">
        <ele>185.66999816895</ele>
        <time>2024-09-26T06:45:40.000Z</time>
      </trkpt>
      <trkpt lat="41.08162" lon="20.10263">
        <ele>186.14999389648</ele>
        <time>2024-09-26T06:45:41.000Z</time>
      </trkpt>
      <trkpt lat="41.08144" lon="20.10243">
        <ele>186.63000488281</ele>
        <time>2024-09-26T06:45:44.000Z</time>
      </trkpt>
      <trkpt lat="41.08141" lon="20.1024">
        <ele>186.63000488281</ele>
        <time>2024-09-26T06:45:45.000Z</time>
      </trkpt>
      <trkpt lat="41.08129" lon="20.10225">
        <ele>187.11000061035</ele>
        <time>2024-09-26T06:45:49.000Z</time>
      </trkpt>
      <trkpt lat="41.08123" lon="20.1022">
        <ele>187.11000061035</ele>
        <time>2024-09-26T06:45:50.000Z</time>
      </trkpt>
      <trkpt lat="41.08119" lon="20.10215">
        <ele>187.11000061035</ele>
        <time>2024-09-26T06:45:51.000Z</time>
      </trkpt>
      <trkpt lat="41.08113" lon="20.10208">
        <ele>187.58999633789</ele>
        <time>2024-09-26T06:45:52.000Z</time>
      </trkpt>
      <trkpt lat="41.08104" lon="20.10196">
        <ele>187.58999633789</ele>
        <time>2024-09-26T06:45:53.000Z</time>
      </trkpt>
      <trkpt lat="41.08095" lon="20.10184">
        <ele>188.08000183105</ele>
        <time>2024-09-26T06:45:54.000Z</time>
      </trkpt>
      <trkpt lat="41.08086" lon="20.10174">
        <ele>189.03999328613</ele>
        <time>2024-09-26T06:45:55.000Z</time>
      </trkpt>
      <trkpt lat="41.08072" lon="20.10162">
        <ele>189.52000427246</ele>
        <time>2024-09-26T06:45:56.000Z</time>
      </trkpt>
      <trkpt lat="41.08044" lon="20.10142">
        <ele>189.52000427246</ele>
        <time>2024-09-26T06:45:59.000Z</time>
      </trkpt>
      <trkpt lat="41.08039" lon="20.10137">
        <ele>189.52000427246</ele>
        <time>2024-09-26T06:46:00.000Z</time>
      </trkpt>
      <trkpt lat="41.08031" lon="20.10127">
        <ele>189.52000427246</ele>
        <time>2024-09-26T06:46:01.000Z</time>
      </trkpt>
      <trkpt lat="41.08023" lon="20.10115">
        <ele>190</ele>
        <time>2024-09-26T06:46:02.000Z</time>
      </trkpt>
      <trkpt lat="41.08004" lon="20.10089">
        <ele>190.47999572754</ele>
        <time>2024-09-26T06:46:04.000Z</time>
      </trkpt>
      <trkpt lat="41.07999" lon="20.10081">
        <ele>190.47999572754</ele>
        <time>2024-09-26T06:46:05.000Z</time>
      </trkpt>
      <trkpt lat="41.07962" lon="20.10023">
        <ele>189.52000427246</ele>
        <time>2024-09-26T06:46:10.000Z</time>
      </trkpt>
      <trkpt lat="41.07958" lon="20.10015">
        <ele>190</ele>
        <time>2024-09-26T06:46:11.000Z</time>
      </trkpt>
      <trkpt lat="41.07949" lon="20.09997">
        <ele>190.47999572754</ele>
        <time>2024-09-26T06:46:12.000Z</time>
      </trkpt>
      <trkpt lat="41.07945" lon="20.0999">
        <ele>190.96000671387</ele>
        <time>2024-09-26T06:46:13.000Z</time>
      </trkpt>
      <trkpt lat="41.07938" lon="20.09979">
        <ele>191.91999816895</ele>
        <time>2024-09-26T06:46:14.000Z</time>
      </trkpt>
      <trkpt lat="41.07932" lon="20.09972">
        <ele>192.39999389648</ele>
        <time>2024-09-26T06:46:15.000Z</time>
      </trkpt>
      <trkpt lat="41.07924" lon="20.09969">
        <ele>193.36000061035</ele>
        <time>2024-09-26T06:46:16.000Z</time>
      </trkpt>
      <trkpt lat="41.07917" lon="20.09971">
        <ele>194.32000732422</ele>
        <time>2024-09-26T06:46:17.000Z</time>
      </trkpt>
      <trkpt lat="41.07909" lon="20.09978">
        <ele>194.80000305176</ele>
        <time>2024-09-26T06:46:18.000Z</time>
      </trkpt>
      <trkpt lat="41.07901" lon="20.09989">
        <ele>195.2799987793</ele>
        <time>2024-09-26T06:46:19.000Z</time>
      </trkpt>
      <trkpt lat="41.07894" lon="20.09997">
        <ele>195.77000427246</ele>
        <time>2024-09-26T06:46:20.000Z</time>
      </trkpt>
      <trkpt lat="41.07888" lon="20.10003">
        <ele>195.77000427246</ele>
        <time>2024-09-26T06:46:21.000Z</time>
      </trkpt>
      <trkpt lat="41.07879" lon="20.10007">
        <ele>196.25</ele>
        <time>2024-09-26T06:46:22.000Z</time>
      </trkpt>
      <trkpt lat="41.0787" lon="20.10007">
        <ele>196.25</ele>
        <time>2024-09-26T06:46:23.000Z</time>
      </trkpt>
      <trkpt lat="41.07861" lon="20.10004">
        <ele>196.25</ele>
        <time>2024-09-26T06:46:24.000Z</time>
      </trkpt>
      <trkpt lat="41.07853" lon="20.09997">
        <ele>196.25</ele>
        <time>2024-09-26T06:46:25.000Z</time>
      </trkpt>
      <trkpt lat="41.07839" lon="20.0998">
        <ele>196.25</ele>
        <time>2024-09-26T06:46:26.000Z</time>
      </trkpt>
      <trkpt lat="41.07836" lon="20.09975">
        <ele>196.25</ele>
        <time>2024-09-26T06:46:27.000Z</time>
      </trkpt>
      <trkpt lat="41.0783" lon="20.09964">
        <ele>196.25</ele>
        <time>2024-09-26T06:46:28.000Z</time>
      </trkpt>
      <trkpt lat="41.07826" lon="20.09953">
        <ele>196.72999572754</ele>
        <time>2024-09-26T06:46:29.000Z</time>
      </trkpt>
      <trkpt lat="41.07825" lon="20.0994">
        <ele>196.72999572754</ele>
        <time>2024-09-26T06:46:30.000Z</time>
      </trkpt>
      <trkpt lat="41.07828" lon="20.09919">
        <ele>198.16999816895</ele>
        <time>2024-09-26T06:46:31.000Z</time>
      </trkpt>
      <trkpt lat="41.07828" lon="20.09913">
        <ele>198.16999816895</ele>
        <time>2024-09-26T06:46:32.000Z</time>
      </trkpt>
      <trkpt lat="41.07828" lon="20.09899">
        <ele>199.13000488281</ele>
        <time>2024-09-26T06:46:33.000Z</time>
      </trkpt>
      <trkpt lat="41.07825" lon="20.09886">
        <ele>199.13000488281</ele>
        <time>2024-09-26T06:46:34.000Z</time>
      </trkpt>
      <trkpt lat="41.0782" lon="20.09876">
        <ele>200.08999633789</ele>
        <time>2024-09-26T06:46:35.000Z</time>
      </trkpt>
      <trkpt lat="41.07814" lon="20.09871">
        <ele>200.57000732422</ele>
        <time>2024-09-26T06:46:36.000Z</time>
      </trkpt>
      <trkpt lat="41.07806" lon="20.09868">
        <ele>201.5299987793</ele>
        <time>2024-09-26T06:46:37.000Z</time>
      </trkpt>
      <trkpt lat="41.07796" lon="20.09871">
        <ele>202.49000549316</ele>
        <time>2024-09-26T06:46:38.000Z</time>
      </trkpt>
      <trkpt lat="41.07782" lon="20.09879">
        <ele>203.94000244141</ele>
        <time>2024-09-26T06:46:39.000Z</time>
      </trkpt>
      <trkpt lat="41.07775" lon="20.09883">
        <ele>204.41999816895</ele>
        <time>2024-09-26T06:46:40.000Z</time>
      </trkpt>
      <trkpt lat="41.07765" lon="20.09885">
        <ele>204.89999389648</ele>
        <time>2024-09-26T06:46:41.000Z</time>
      </trkpt>
      <trkpt lat="41.07755" lon="20.09883">
        <ele>205.38000488281</ele>
        <time>2024-09-26T06:46:42.000Z</time>
      </trkpt>
      <trkpt lat="41.07742" lon="20.09875">
        <ele>206.33999633789</ele>
        <time>2024-09-26T06:46:43.000Z</time>
      </trkpt>
      <trkpt lat="41.07737" lon="20.09872">
        <ele>206.82000732422</ele>
        <time>2024-09-26T06:46:44.000Z</time>
      </trkpt>
      <trkpt lat="41.07725" lon="20.09867">
        <ele>207.7799987793</ele>
        <time>2024-09-26T06:46:45.000Z</time>
      </trkpt>
      <trkpt lat="41.07716" lon="20.09864">
        <ele>208.25999450684</ele>
        <time>2024-09-26T06:46:46.000Z</time>
      </trkpt>
      <trkpt lat="41.07704" lon="20.09862">
        <ele>209.2200012207</ele>
        <time>2024-09-26T06:46:47.000Z</time>
      </trkpt>
      <trkpt lat="41.07693" lon="20.09862">
        <ele>210.19000244141</ele>
        <time>2024-09-26T06:46:48.000Z</time>
      </trkpt>
      <trkpt lat="41.07682" lon="20.09865">
        <ele>210.66999816895</ele>
        <time>2024-09-26T06:46:49.000Z</time>
      </trkpt>
      <trkpt lat="41.07672" lon="20.09872">
        <ele>211.63000488281</ele>
        <time>2024-09-26T06:46:50.000Z</time>
      </trkpt>
      <trkpt lat="41.07663" lon="20.09882">
        <ele>212.11000061035</ele>
        <time>2024-09-26T06:46:51.000Z</time>
      </trkpt>
      <trkpt lat="41.0761" lon="20.09961">
        <ele>217.88000488281</ele>
        <time>2024-09-26T06:46:57.000Z</time>
      </trkpt>
      <trkpt lat="41.07606" lon="20.09968">
        <ele>218.36000061035</ele>
        <time>2024-09-26T06:46:58.000Z</time>
      </trkpt>
      <trkpt lat="41.07596" lon="20.09979">
        <ele>218.83999633789</ele>
        <time>2024-09-26T06:46:59.000Z</time>
      </trkpt>
      <trkpt lat="41.07586" lon="20.09985">
        <ele>219.32000732422</ele>
        <time>2024-09-26T06:47:00.000Z</time>
      </trkpt>
      <trkpt lat="41.0757" lon="20.09986">
        <ele>220.75999450684</ele>
        <time>2024-09-26T06:47:01.000Z</time>
      </trkpt>
      <trkpt lat="41.07566" lon="20.09987">
        <ele>221.24000549316</ele>
        <time>2024-09-26T06:47:02.000Z</time>
      </trkpt>
      <trkpt lat="41.07556" lon="20.09991">
        <ele>222.19999694824</ele>
        <time>2024-09-26T06:47:03.000Z</time>
      </trkpt>
      <trkpt lat="41.07546" lon="20.09999">
        <ele>223.16000366211</ele>
        <time>2024-09-26T06:47:04.000Z</time>
      </trkpt>
      <trkpt lat="41.07526" lon="20.10021">
        <ele>226.05000305176</ele>
        <time>2024-09-26T06:47:06.000Z</time>
      </trkpt>
      <trkpt lat="41.07521" lon="20.10027">
        <ele>227.00999450684</ele>
        <time>2024-09-26T06:47:07.000Z</time>
      </trkpt>
      <trkpt lat="41.07516" lon="20.10037">
        <ele>227.9700012207</ele>
        <time>2024-09-26T06:47:08.000Z</time>
      </trkpt>
      <trkpt lat="41.0751" lon="20.10054">
        <ele>229.41000366211</ele>
        <time>2024-09-26T06:47:09.000Z</time>
      </trkpt>
      <trkpt lat="41.07499" lon="20.10104">
        <ele>232.30000305176</ele>
        <time>2024-09-26T06:47:13.000Z</time>
      </trkpt>
      <trkpt lat="41.07499" lon="20.10106">
        <ele>232.30000305176</ele>
        <time>2024-09-26T06:47:14.000Z</time>
      </trkpt>
      <trkpt lat="41.07495" lon="20.10118">
        <ele>233.25999450684</ele>
        <time>2024-09-26T06:47:15.000Z</time>
      </trkpt>
      <trkpt lat="41.07493" lon="20.10129">
        <ele>233.74000549316</ele>
        <time>2024-09-26T06:47:16.000Z</time>
      </trkpt>
      <trkpt lat="41.07488" lon="20.10146">
        <ele>234.2200012207</ele>
        <time>2024-09-26T06:47:18.000Z</time>
      </trkpt>
      <trkpt lat="41.07486" lon="20.10152">
        <ele>234.2200012207</ele>
        <time>2024-09-26T06:47:19.000Z</time>
      </trkpt>
      <trkpt lat="41.07482" lon="20.10161">
        <ele>234.69999694824</ele>
        <time>2024-09-26T06:47:20.000Z</time>
      </trkpt>
      <trkpt lat="41.07465" lon="20.10186">
        <ele>235.17999267578</ele>
        <time>2024-09-26T06:47:23.000Z</time>
      </trkpt>
      <trkpt lat="41.07461" lon="20.10191">
        <ele>235.17999267578</ele>
        <time>2024-09-26T06:47:24.000Z</time>
      </trkpt>
      <trkpt lat="41.07459" lon="20.10193">
        <ele>235.17999267578</ele>
        <time>2024-09-26T06:47:25.000Z</time>
      </trkpt>
      <trkpt lat="41.07455" lon="20.10197">
        <ele>235.17999267578</ele>
        <time>2024-09-26T06:47:26.000Z</time>
      </trkpt>
      <trkpt lat="41.0745" lon="20.10199">
        <ele>234.69999694824</ele>
        <time>2024-09-26T06:47:27.000Z</time>
      </trkpt>
      <trkpt lat="41.07444" lon="20.10197">
        <ele>234.69999694824</ele>
        <time>2024-09-26T06:47:28.000Z</time>
      </trkpt>
      <trkpt lat="41.0744" lon="20.10192">
        <ele>234.69999694824</ele>
        <time>2024-09-26T06:47:29.000Z</time>
      </trkpt>
      <trkpt lat="41.07437" lon="20.10186">
        <ele>234.69999694824</ele>
        <time>2024-09-26T06:47:30.000Z</time>
      </trkpt>
      <trkpt lat="41.07435" lon="20.10182">
        <ele>234.69999694824</ele>
        <time>2024-09-26T06:47:31.000Z</time>
      </trkpt>
      <trkpt lat="41.07432" lon="20.10174">
        <ele>235.17999267578</ele>
        <time>2024-09-26T06:47:32.000Z</time>
      </trkpt>
      <trkpt lat="41.0743" lon="20.10171">
        <ele>235.17999267578</ele>
        <time>2024-09-26T06:47:33.000Z</time>
      </trkpt>
      <trkpt lat="41.07426" lon="20.10165">
        <ele>235.17999267578</ele>
        <time>2024-09-26T06:47:34.000Z</time>
      </trkpt>
      <trkpt lat="41.07421" lon="20.10159">
        <ele>235.66000366211</ele>
        <time>2024-09-26T06:47:35.000Z</time>
      </trkpt>
      <trkpt lat="41.07418" lon="20.10155">
        <ele>235.66000366211</ele>
        <time>2024-09-26T06:47:36.000Z</time>
      </trkpt>
      <trkpt lat="41.07413" lon="20.10151">
        <ele>236.13999938965</ele>
        <time>2024-09-26T06:47:37.000Z</time>
      </trkpt>
      <trkpt lat="41.07406" lon="20.10147">
        <ele>236.61999511719</ele>
        <time>2024-09-26T06:47:38.000Z</time>
      </trkpt>
      <trkpt lat="41.07395" lon="20.10144">
        <ele>237.10000610352</ele>
        <time>2024-09-26T06:47:39.000Z</time>
      </trkpt>
      <trkpt lat="41.07387" lon="20.10141">
        <ele>237.58000183105</ele>
        <time>2024-09-26T06:47:40.000Z</time>
      </trkpt>
      <trkpt lat="41.07365" lon="20.10133">
        <ele>239.50999450684</ele>
        <time>2024-09-26T06:47:41.000Z</time>
      </trkpt>
      <trkpt lat="41.07359" lon="20.10131">
        <ele>239.50999450684</ele>
        <time>2024-09-26T06:47:42.000Z</time>
      </trkpt>
      <trkpt lat="41.07346" lon="20.10125">
        <ele>240.4700012207</ele>
        <time>2024-09-26T06:47:43.000Z</time>
      </trkpt>
      <trkpt lat="41.07335" lon="20.10116">
        <ele>241.42999267578</ele>
        <time>2024-09-26T06:47:44.000Z</time>
      </trkpt>
      <trkpt lat="41.07325" lon="20.10106">
        <ele>241.42999267578</ele>
        <time>2024-09-26T06:47:45.000Z</time>
      </trkpt>
      <trkpt lat="41.07317" lon="20.10093">
        <ele>241.91000366211</ele>
        <time>2024-09-26T06:47:46.000Z</time>
      </trkpt>
      <trkpt lat="41.0731" lon="20.10078">
        <ele>241.91000366211</ele>
        <time>2024-09-26T06:47:47.000Z</time>
      </trkpt>
      <trkpt lat="41.07304" lon="20.10062">
        <ele>241.91000366211</ele>
        <time>2024-09-26T06:47:48.000Z</time>
      </trkpt>
      <trkpt lat="41.07299" lon="20.10047">
        <ele>242.38999938965</ele>
        <time>2024-09-26T06:47:49.000Z</time>
      </trkpt>
      <trkpt lat="41.07295" lon="20.10038">
        <ele>242.86999511719</ele>
        <time>2024-09-26T06:47:50.000Z</time>
      </trkpt>
      <trkpt lat="41.07289" lon="20.1003">
        <ele>242.86999511719</ele>
        <time>2024-09-26T06:47:51.000Z</time>
      </trkpt>
      <trkpt lat="41.07282" lon="20.10027">
        <ele>243.35000610352</ele>
        <time>2024-09-26T06:47:52.000Z</time>
      </trkpt>
      <trkpt lat="41.07274" lon="20.10027">
        <ele>244.30999755859</ele>
        <time>2024-09-26T06:47:53.000Z</time>
      </trkpt>
      <trkpt lat="41.07256" lon="20.10029">
        <ele>245.75</ele>
        <time>2024-09-26T06:47:54.000Z</time>
      </trkpt>
      <trkpt lat="41.07254" lon="20.10029">
        <ele>246.22999572754</ele>
        <time>2024-09-26T06:47:55.000Z</time>
      </trkpt>
      <trkpt lat="41.07244" lon="20.10032">
        <ele>247.19999694824</ele>
        <time>2024-09-26T06:47:56.000Z</time>
      </trkpt>
      <trkpt lat="41.07228" lon="20.1004">
        <ele>249.11999511719</ele>
        <time>2024-09-26T06:47:57.000Z</time>
      </trkpt>
      <trkpt lat="41.07224" lon="20.10042">
        <ele>249.60000610352</ele>
        <time>2024-09-26T06:47:58.000Z</time>
      </trkpt>
      <trkpt lat="41.07217" lon="20.10048">
        <ele>250.08000183105</ele>
        <time>2024-09-26T06:47:59.000Z</time>
      </trkpt>
      <trkpt lat="41.07212" lon="20.10057">
        <ele>251.03999328613</ele>
        <time>2024-09-26T06:48:00.000Z</time>
      </trkpt>
      <trkpt lat="41.0721" lon="20.1007">
        <ele>252</ele>
        <time>2024-09-26T06:48:01.000Z</time>
      </trkpt>
      <trkpt lat="41.07209" lon="20.10085">
        <ele>253.44000244141</ele>
        <time>2024-09-26T06:48:02.000Z</time>
      </trkpt>
      <trkpt lat="41.07209" lon="20.10101">
        <ele>254.41000366211</ele>
        <time>2024-09-26T06:48:03.000Z</time>
      </trkpt>
      <trkpt lat="41.0721" lon="20.10114">
        <ele>255.36999511719</ele>
        <time>2024-09-26T06:48:04.000Z</time>
      </trkpt>
      <trkpt lat="41.07212" lon="20.10126">
        <ele>255.85000610352</ele>
        <time>2024-09-26T06:48:05.000Z</time>
      </trkpt>
      <trkpt lat="41.07216" lon="20.10136">
        <ele>256.32998657227</ele>
        <time>2024-09-26T06:48:06.000Z</time>
      </trkpt>
      <trkpt lat="41.07223" lon="20.10146">
        <ele>256.80999755859</ele>
        <time>2024-09-26T06:48:07.000Z</time>
      </trkpt>
      <trkpt lat="41.07268" lon="20.10204">
        <ele>261.14001464844</ele>
        <time>2024-09-26T06:48:12.000Z</time>
      </trkpt>
      <trkpt lat="41.07276" lon="20.10217">
        <ele>262.57998657227</ele>
        <time>2024-09-26T06:48:13.000Z</time>
      </trkpt>
      <trkpt lat="41.07281" lon="20.10232">
        <ele>263.54000854492</ele>
        <time>2024-09-26T06:48:14.000Z</time>
      </trkpt>
      <trkpt lat="41.07285" lon="20.10248">
        <ele>264.98001098633</ele>
        <time>2024-09-26T06:48:15.000Z</time>
      </trkpt>
      <trkpt lat="41.07288" lon="20.10283">
        <ele>267.85998535156</ele>
        <time>2024-09-26T06:48:17.000Z</time>
      </trkpt>
      <trkpt lat="41.07289" lon="20.10296">
        <ele>268.82998657227</ele>
        <time>2024-09-26T06:48:18.000Z</time>
      </trkpt>
      <trkpt lat="41.07293" lon="20.10307">
        <ele>269.79000854492</ele>
        <time>2024-09-26T06:48:19.000Z</time>
      </trkpt>
      <trkpt lat="41.073" lon="20.10316">
        <ele>270.75</ele>
        <time>2024-09-26T06:48:20.000Z</time>
      </trkpt>
      <trkpt lat="41.07309" lon="20.10322">
        <ele>271.23001098633</ele>
        <time>2024-09-26T06:48:21.000Z</time>
      </trkpt>
      <trkpt lat="41.07319" lon="20.10326">
        <ele>271.70999145508</ele>
        <time>2024-09-26T06:48:22.000Z</time>
      </trkpt>
      <trkpt lat="41.0733" lon="20.10328">
        <ele>272.19000244141</ele>
        <time>2024-09-26T06:48:23.000Z</time>
      </trkpt>
      <trkpt lat="41.07341" lon="20.10334">
        <ele>272.67001342773</ele>
        <time>2024-09-26T06:48:24.000Z</time>
      </trkpt>
      <trkpt lat="41.07352" lon="20.10342">
        <ele>272.67001342773</ele>
        <time>2024-09-26T06:48:25.000Z</time>
      </trkpt>
      <trkpt lat="41.07361" lon="20.10355">
        <ele>273.63000488281</ele>
        <time>2024-09-26T06:48:26.000Z</time>
      </trkpt>
      <trkpt lat="41.0737" lon="20.1037">
        <ele>274.58999633789</ele>
        <time>2024-09-26T06:48:27.000Z</time>
      </trkpt>
      <trkpt lat="41.07387" lon="20.10393">
        <ele>276.51998901367</ele>
        <time>2024-09-26T06:48:28.000Z</time>
      </trkpt>
      <trkpt lat="41.07389" lon="20.10396">
        <ele>277</ele>
        <time>2024-09-26T06:48:29.000Z</time>
      </trkpt>
      <trkpt lat="41.07406" lon="20.10416">
        <ele>278.92001342773</ele>
        <time>2024-09-26T06:48:30.000Z</time>
      </trkpt>
      <trkpt lat="41.0741" lon="20.10423">
        <ele>279.39999389648</ele>
        <time>2024-09-26T06:48:31.000Z</time>
      </trkpt>
      <trkpt lat="41.07418" lon="20.10435">
        <ele>280.35998535156</ele>
        <time>2024-09-26T06:48:32.000Z</time>
      </trkpt>
      <trkpt lat="41.07425" lon="20.10448">
        <ele>281.32000732422</ele>
        <time>2024-09-26T06:48:33.000Z</time>
      </trkpt>
      <trkpt lat="41.07431" lon="20.10466">
        <ele>282.2799987793</ele>
        <time>2024-09-26T06:48:34.000Z</time>
      </trkpt>
      <trkpt lat="41.07435" lon="20.10483">
        <ele>282.76998901367</ele>
        <time>2024-09-26T06:48:35.000Z</time>
      </trkpt>
      <trkpt lat="41.07435" lon="20.105">
        <ele>283.25</ele>
        <time>2024-09-26T06:48:36.000Z</time>
      </trkpt>
      <trkpt lat="41.07433" lon="20.10516">
        <ele>284.20999145508</ele>
        <time>2024-09-26T06:48:37.000Z</time>
      </trkpt>
      <trkpt lat="41.07428" lon="20.10531">
        <ele>285.17001342773</ele>
        <time>2024-09-26T06:48:38.000Z</time>
      </trkpt>
      <trkpt lat="41.07421" lon="20.10544">
        <ele>285.64999389648</ele>
        <time>2024-09-26T06:48:39.000Z</time>
      </trkpt>
      <trkpt lat="41.07413" lon="20.10555">
        <ele>286.13000488281</ele>
        <time>2024-09-26T06:48:40.000Z</time>
      </trkpt>
      <trkpt lat="41.07404" lon="20.10563">
        <ele>286.60998535156</ele>
        <time>2024-09-26T06:48:41.000Z</time>
      </trkpt>
      <trkpt lat="41.07392" lon="20.10572">
        <ele>287.08999633789</ele>
        <time>2024-09-26T06:48:42.000Z</time>
      </trkpt>
      <trkpt lat="41.07357" lon="20.10593">
        <ele>289.01000976562</ele>
        <time>2024-09-26T06:48:47.000Z</time>
      </trkpt>
      <trkpt lat="41.07352" lon="20.10597">
        <ele>289.01000976562</ele>
        <time>2024-09-26T06:48:48.000Z</time>
      </trkpt>
      <trkpt lat="41.07346" lon="20.10605">
        <ele>289.48999023438</ele>
        <time>2024-09-26T06:48:49.000Z</time>
      </trkpt>
      <trkpt lat="41.07341" lon="20.10615">
        <ele>289.9700012207</ele>
        <time>2024-09-26T06:48:50.000Z</time>
      </trkpt>
      <trkpt lat="41.07339" lon="20.10626">
        <ele>289.9700012207</ele>
        <time>2024-09-26T06:48:51.000Z</time>
      </trkpt>
      <trkpt lat="41.07338" lon="20.10639">
        <ele>289.9700012207</ele>
        <time>2024-09-26T06:48:52.000Z</time>
      </trkpt>
      <trkpt lat="41.07338" lon="20.10689">
        <ele>290.45999145508</ele>
        <time>2024-09-26T06:48:56.000Z</time>
      </trkpt>
      <trkpt lat="41.07339" lon="20.10703">
        <ele>290.45999145508</ele>
        <time>2024-09-26T06:48:57.000Z</time>
      </trkpt>
      <trkpt lat="41.07341" lon="20.10736">
        <ele>290.94000244141</ele>
        <time>2024-09-26T06:49:00.000Z</time>
      </trkpt>
      <trkpt lat="41.07347" lon="20.1077">
        <ele>291.42001342773</ele>
        <time>2024-09-26T06:49:02.000Z</time>
      </trkpt>
      <trkpt lat="41.07352" lon="20.10813">
        <ele>292.38000488281</ele>
        <time>2024-09-26T06:49:04.000Z</time>
      </trkpt>
      <trkpt lat="41.07365" lon="20.10879">
        <ele>294.7799987793</ele>
        <time>2024-09-26T06:49:07.000Z</time>
      </trkpt>
      <trkpt lat="41.07374" lon="20.10917">
        <ele>296.70001220703</ele>
        <time>2024-09-26T06:49:09.000Z</time>
      </trkpt>
      <trkpt lat="41.07376" lon="20.10932">
        <ele>297.67001342773</ele>
        <time>2024-09-26T06:49:10.000Z</time>
      </trkpt>
      <trkpt lat="41.07379" lon="20.10952">
        <ele>299.10998535156</ele>
        <time>2024-09-26T06:49:11.000Z</time>
      </trkpt>
      <trkpt lat="41.07381" lon="20.10968">
        <ele>300.54998779297</ele>
        <time>2024-09-26T06:49:12.000Z</time>
      </trkpt>
      <trkpt lat="41.07381" lon="20.10986">
        <ele>301.51000976562</ele>
        <time>2024-09-26T06:49:13.000Z</time>
      </trkpt>
      <trkpt lat="41.07378" lon="20.11003">
        <ele>302.95001220703</ele>
        <time>2024-09-26T06:49:14.000Z</time>
      </trkpt>
      <trkpt lat="41.07373" lon="20.1102">
        <ele>303.91000366211</ele>
        <time>2024-09-26T06:49:15.000Z</time>
      </trkpt>
      <trkpt lat="41.07365" lon="20.11034">
        <ele>305.35998535156</ele>
        <time>2024-09-26T06:49:16.000Z</time>
      </trkpt>
      <trkpt lat="41.07356" lon="20.11045">
        <ele>306.32000732422</ele>
        <time>2024-09-26T06:49:17.000Z</time>
      </trkpt>
      <trkpt lat="41.07345" lon="20.11051">
        <ele>307.76000976562</ele>
        <time>2024-09-26T06:49:18.000Z</time>
      </trkpt>
      <trkpt lat="41.0733" lon="20.11055">
        <ele>308.7200012207</ele>
        <time>2024-09-26T06:49:19.000Z</time>
      </trkpt>
      <trkpt lat="41.0732" lon="20.11058">
        <ele>309.67999267578</ele>
        <time>2024-09-26T06:49:20.000Z</time>
      </trkpt>
      <trkpt lat="41.07309" lon="20.11064">
        <ele>310.64001464844</ele>
        <time>2024-09-26T06:49:21.000Z</time>
      </trkpt>
      <trkpt lat="41.073" lon="20.11072">
        <ele>311.60000610352</ele>
        <time>2024-09-26T06:49:22.000Z</time>
      </trkpt>
      <trkpt lat="41.07293" lon="20.11083">
        <ele>312.08999633789</ele>
        <time>2024-09-26T06:49:23.000Z</time>
      </trkpt>
      <trkpt lat="41.07288" lon="20.11095">
        <ele>312.57000732422</ele>
        <time>2024-09-26T06:49:24.000Z</time>
      </trkpt>
      <trkpt lat="41.07279" lon="20.11129">
        <ele>314.9700012207</ele>
        <time>2024-09-26T06:49:26.000Z</time>
      </trkpt>
      <trkpt lat="41.07276" lon="20.11146">
        <ele>315.92999267578</ele>
        <time>2024-09-26T06:49:27.000Z</time>
      </trkpt>
      <trkpt lat="41.07274" lon="20.11162">
        <ele>316.89001464844</ele>
        <time>2024-09-26T06:49:28.000Z</time>
      </trkpt>
      <trkpt lat="41.07273" lon="20.11218">
        <ele>320.26000976562</ele>
        <time>2024-09-26T06:49:31.000Z</time>
      </trkpt>
      <trkpt lat="41.07272" lon="20.11234">
        <ele>321.2200012207</ele>
        <time>2024-09-26T06:49:32.000Z</time>
      </trkpt>
      <trkpt lat="41.07268" lon="20.11249">
        <ele>323.14001464844</ele>
        <time>2024-09-26T06:49:33.000Z</time>
      </trkpt>
      <trkpt lat="41.07255" lon="20.11278">
        <ele>325.54000854492</ele>
        <time>2024-09-26T06:49:34.000Z</time>
      </trkpt>
      <trkpt lat="41.07253" lon="20.11283">
        <ele>326.01998901367</ele>
        <time>2024-09-26T06:49:35.000Z</time>
      </trkpt>
      <trkpt lat="41.07245" lon="20.11296">
        <ele>327.4700012207</ele>
        <time>2024-09-26T06:49:36.000Z</time>
      </trkpt>
      <trkpt lat="41.07235" lon="20.1131">
        <ele>328.91000366211</ele>
        <time>2024-09-26T06:49:37.000Z</time>
      </trkpt>
      <trkpt lat="41.07206" lon="20.11346">
        <ele>332.75</ele>
        <time>2024-09-26T06:49:39.000Z</time>
      </trkpt>
      <trkpt lat="41.07203" lon="20.1135">
        <ele>333.23001098633</ele>
        <time>2024-09-26T06:49:40.000Z</time>
      </trkpt>
      <trkpt lat="41.07194" lon="20.11362">
        <ele>334.20001220703</ele>
        <time>2024-09-26T06:49:41.000Z</time>
      </trkpt>
      <trkpt lat="41.07187" lon="20.11378">
        <ele>335.64001464844</ele>
        <time>2024-09-26T06:49:42.000Z</time>
      </trkpt>
      <trkpt lat="41.07181" lon="20.11395">
        <ele>336.60000610352</ele>
        <time>2024-09-26T06:49:43.000Z</time>
      </trkpt>
      <trkpt lat="41.07179" lon="20.11413">
        <ele>338.04000854492</ele>
        <time>2024-09-26T06:49:44.000Z</time>
      </trkpt>
      <trkpt lat="41.07177" lon="20.11443">
        <ele>339.95999145508</ele>
        <time>2024-09-26T06:49:45.000Z</time>
      </trkpt>
      <trkpt lat="41.07177" lon="20.11462">
        <ele>341.41000366211</ele>
        <time>2024-09-26T06:49:46.000Z</time>
      </trkpt>
      <trkpt lat="41.07176" lon="20.11475">
        <ele>342.36999511719</ele>
        <time>2024-09-26T06:49:47.000Z</time>
      </trkpt>
      <trkpt lat="41.07174" lon="20.11489">
        <ele>343.32998657227</ele>
        <time>2024-09-26T06:49:48.000Z</time>
      </trkpt>
      <trkpt lat="41.0717" lon="20.11511">
        <ele>344.76998901367</ele>
        <time>2024-09-26T06:49:49.000Z</time>
      </trkpt>
      <trkpt lat="41.07166" lon="20.11526">
        <ele>346.20999145508</ele>
        <time>2024-09-26T06:49:50.000Z</time>
      </trkpt>
      <trkpt lat="41.07148" lon="20.11563">
        <ele>349.57998657227</ele>
        <time>2024-09-26T06:49:52.000Z</time>
      </trkpt>
      <trkpt lat="41.07111" lon="20.11625">
        <ele>353.89999389648</ele>
        <time>2024-09-26T06:49:56.000Z</time>
      </trkpt>
      <trkpt lat="41.07106" lon="20.11636">
        <ele>354.85998535156</ele>
        <time>2024-09-26T06:49:57.000Z</time>
      </trkpt>
      <trkpt lat="41.07102" lon="20.1165">
        <ele>355.82998657227</ele>
        <time>2024-09-26T06:49:58.000Z</time>
      </trkpt>
      <trkpt lat="41.07101" lon="20.11665">
        <ele>356.79000854492</ele>
        <time>2024-09-26T06:49:59.000Z</time>
      </trkpt>
      <trkpt lat="41.07104" lon="20.1168">
        <ele>357.75</ele>
        <time>2024-09-26T06:50:00.000Z</time>
      </trkpt>
      <trkpt lat="41.07111" lon="20.11709">
        <ele>360.14999389648</ele>
        <time>2024-09-26T06:50:02.000Z</time>
      </trkpt>
      <trkpt lat="41.07113" lon="20.11722">
        <ele>360.63000488281</ele>
        <time>2024-09-26T06:50:03.000Z</time>
      </trkpt>
      <trkpt lat="41.07113" lon="20.11735">
        <ele>361.58999633789</ele>
        <time>2024-09-26T06:50:04.000Z</time>
      </trkpt>
      <trkpt lat="41.07111" lon="20.11749">
        <ele>362.54998779297</ele>
        <time>2024-09-26T06:50:05.000Z</time>
      </trkpt>
      <trkpt lat="41.07109" lon="20.11763">
        <ele>363.51998901367</ele>
        <time>2024-09-26T06:50:06.000Z</time>
      </trkpt>
      <trkpt lat="41.07104" lon="20.11776">
        <ele>364</ele>
        <time>2024-09-26T06:50:07.000Z</time>
      </trkpt>
      <trkpt lat="41.07097" lon="20.11788">
        <ele>365.44000244141</ele>
        <time>2024-09-26T06:50:08.000Z</time>
      </trkpt>
      <trkpt lat="41.07084" lon="20.11803">
        <ele>366.88000488281</ele>
        <time>2024-09-26T06:50:09.000Z</time>
      </trkpt>
      <trkpt lat="41.07081" lon="20.11807">
        <ele>366.88000488281</ele>
        <time>2024-09-26T06:50:10.000Z</time>
      </trkpt>
      <trkpt lat="41.07076" lon="20.11817">
        <ele>367.83999633789</ele>
        <time>2024-09-26T06:50:11.000Z</time>
      </trkpt>
      <trkpt lat="41.07073" lon="20.1183">
        <ele>368.32000732422</ele>
        <time>2024-09-26T06:50:12.000Z</time>
      </trkpt>
      <trkpt lat="41.07069" lon="20.11859">
        <ele>369.2799987793</ele>
        <time>2024-09-26T06:50:13.000Z</time>
      </trkpt>
      <trkpt lat="41.07069" lon="20.11862">
        <ele>369.76000976562</ele>
        <time>2024-09-26T06:50:14.000Z</time>
      </trkpt>
      <trkpt lat="41.07069" lon="20.11875">
        <ele>370.73001098633</ele>
        <time>2024-09-26T06:50:15.000Z</time>
      </trkpt>
      <trkpt lat="41.07072" lon="20.11888">
        <ele>371.20999145508</ele>
        <time>2024-09-26T06:50:16.000Z</time>
      </trkpt>
      <trkpt lat="41.07081" lon="20.11907">
        <ele>372.64999389648</ele>
        <time>2024-09-26T06:50:17.000Z</time>
      </trkpt>
      <trkpt lat="41.07083" lon="20.11912">
        <ele>373.13000488281</ele>
        <time>2024-09-26T06:50:18.000Z</time>
      </trkpt>
      <trkpt lat="41.07088" lon="20.11926">
        <ele>374.08999633789</ele>
        <time>2024-09-26T06:50:19.000Z</time>
      </trkpt>
      <trkpt lat="41.07089" lon="20.11942">
        <ele>375.04998779297</ele>
        <time>2024-09-26T06:50:20.000Z</time>
      </trkpt>
      <trkpt lat="41.07088" lon="20.11957">
        <ele>376.48999023438</ele>
        <time>2024-09-26T06:50:21.000Z</time>
      </trkpt>
      <trkpt lat="41.07083" lon="20.12009">
        <ele>378.42001342773</ele>
        <time>2024-09-26T06:50:23.000Z</time>
      </trkpt>
      <trkpt lat="41.07082" lon="20.1202">
        <ele>378.42001342773</ele>
        <time>2024-09-26T06:50:24.000Z</time>
      </trkpt>
      <trkpt lat="41.07078" lon="20.12041">
        <ele>379.85998535156</ele>
        <time>2024-09-26T06:50:25.000Z</time>
      </trkpt>
      <trkpt lat="41.07077" lon="20.12046">
        <ele>379.85998535156</ele>
        <time>2024-09-26T06:50:26.000Z</time>
      </trkpt>
      <trkpt lat="41.07076" lon="20.12057">
        <ele>380.82000732422</ele>
        <time>2024-09-26T06:50:27.000Z</time>
      </trkpt>
      <trkpt lat="41.07077" lon="20.1207">
        <ele>381.7799987793</ele>
        <time>2024-09-26T06:50:28.000Z</time>
      </trkpt>
      <trkpt lat="41.07081" lon="20.12083">
        <ele>382.73999023438</ele>
        <time>2024-09-26T06:50:29.000Z</time>
      </trkpt>
      <trkpt lat="41.07097" lon="20.12113">
        <ele>385.14999389648</ele>
        <time>2024-09-26T06:50:31.000Z</time>
      </trkpt>
      <trkpt lat="41.071" lon="20.12122">
        <ele>385.63000488281</ele>
        <time>2024-09-26T06:50:32.000Z</time>
      </trkpt>
      <trkpt lat="41.07105" lon="20.12136">
        <ele>386.58999633789</ele>
        <time>2024-09-26T06:50:33.000Z</time>
      </trkpt>
      <trkpt lat="41.07107" lon="20.12152">
        <ele>388.0299987793</ele>
        <time>2024-09-26T06:50:34.000Z</time>
      </trkpt>
      <trkpt lat="41.07105" lon="20.12167">
        <ele>389.4700012207</ele>
        <time>2024-09-26T06:50:35.000Z</time>
      </trkpt>
      <trkpt lat="41.071" lon="20.12188">
        <ele>391.86999511719</ele>
        <time>2024-09-26T06:50:36.000Z</time>
      </trkpt>
      <trkpt lat="41.07099" lon="20.12196">
        <ele>392.35998535156</ele>
        <time>2024-09-26T06:50:37.000Z</time>
      </trkpt>
      <trkpt lat="41.07098" lon="20.12209">
        <ele>393.32000732422</ele>
        <time>2024-09-26T06:50:38.000Z</time>
      </trkpt>
      <trkpt lat="41.07101" lon="20.12222">
        <ele>394.76000976562</ele>
        <time>2024-09-26T06:50:39.000Z</time>
      </trkpt>
      <trkpt lat="41.07107" lon="20.12234">
        <ele>396.20001220703</ele>
        <time>2024-09-26T06:50:40.000Z</time>
      </trkpt>
      <trkpt lat="41.07118" lon="20.12254">
        <ele>398.11999511719</ele>
        <time>2024-09-26T06:50:41.000Z</time>
      </trkpt>
      <trkpt lat="41.07122" lon="20.12261">
        <ele>398.60000610352</ele>
        <time>2024-09-26T06:50:42.000Z</time>
      </trkpt>
      <trkpt lat="41.07128" lon="20.12277">
        <ele>399.57000732422</ele>
        <time>2024-09-26T06:50:43.000Z</time>
      </trkpt>
      <trkpt lat="41.07133" lon="20.12294">
        <ele>401.01000976562</ele>
        <time>2024-09-26T06:50:44.000Z</time>
      </trkpt>
      <trkpt lat="41.07142" lon="20.12389">
        <ele>406.76998901367</ele>
        <time>2024-09-26T06:50:49.000Z</time>
      </trkpt>
      <trkpt lat="41.07143" lon="20.12395">
        <ele>407.26000976562</ele>
        <time>2024-09-26T06:50:50.000Z</time>
      </trkpt>
      <trkpt lat="41.07146" lon="20.1241">
        <ele>407.73999023438</ele>
        <time>2024-09-26T06:50:51.000Z</time>
      </trkpt>
      <trkpt lat="41.07152" lon="20.12424">
        <ele>408.70001220703</ele>
        <time>2024-09-26T06:50:52.000Z</time>
      </trkpt>
      <trkpt lat="41.0717" lon="20.12456">
        <ele>409.17999267578</ele>
        <time>2024-09-26T06:50:54.000Z</time>
      </trkpt>
      <trkpt lat="41.07179" lon="20.12469">
        <ele>409.17999267578</ele>
        <time>2024-09-26T06:50:55.000Z</time>
      </trkpt>
      <trkpt lat="41.07192" lon="20.12483">
        <ele>408.70001220703</ele>
        <time>2024-09-26T06:50:56.000Z</time>
      </trkpt>
      <trkpt lat="41.07198" lon="20.12491">
        <ele>408.70001220703</ele>
        <time>2024-09-26T06:50:57.000Z</time>
      </trkpt>
      <trkpt lat="41.07205" lon="20.12504">
        <ele>407.73999023438</ele>
        <time>2024-09-26T06:50:58.000Z</time>
      </trkpt>
      <trkpt lat="41.0721" lon="20.12521">
        <ele>407.26000976562</ele>
        <time>2024-09-26T06:50:59.000Z</time>
      </trkpt>
      <trkpt lat="41.07214" lon="20.1254">
        <ele>406.76998901367</ele>
        <time>2024-09-26T06:51:00.000Z</time>
      </trkpt>
      <trkpt lat="41.07216" lon="20.12554">
        <ele>406.76998901367</ele>
        <time>2024-09-26T06:51:01.000Z</time>
      </trkpt>
      <trkpt lat="41.07217" lon="20.12573">
        <ele>406.76998901367</ele>
        <time>2024-09-26T06:51:02.000Z</time>
      </trkpt>
      <trkpt lat="41.07216" lon="20.12632">
        <ele>408.70001220703</ele>
        <time>2024-09-26T06:51:04.000Z</time>
      </trkpt>
      <trkpt lat="41.07215" lon="20.12638">
        <ele>409.17999267578</ele>
        <time>2024-09-26T06:51:05.000Z</time>
      </trkpt>
      <trkpt lat="41.07213" lon="20.12653">
        <ele>410.14001464844</ele>
        <time>2024-09-26T06:51:06.000Z</time>
      </trkpt>
      <trkpt lat="41.07207" lon="20.12672">
        <ele>411.57998657227</ele>
        <time>2024-09-26T06:51:07.000Z</time>
      </trkpt>
      <trkpt lat="41.07196" lon="20.127">
        <ele>413.98001098633</ele>
        <time>2024-09-26T06:51:08.000Z</time>
      </trkpt>
      <trkpt lat="41.07182" lon="20.12728">
        <ele>415.91000366211</ele>
        <time>2024-09-26T06:51:10.000Z</time>
      </trkpt>
      <trkpt lat="41.07179" lon="20.12734">
        <ele>416.39001464844</ele>
        <time>2024-09-26T06:51:11.000Z</time>
      </trkpt>
      <trkpt lat="41.07173" lon="20.12739">
        <ele>416.86999511719</ele>
        <time>2024-09-26T06:51:12.000Z</time>
      </trkpt>
      <trkpt lat="41.07164" lon="20.12742">
        <ele>417.82998657227</ele>
        <time>2024-09-26T06:51:13.000Z</time>
      </trkpt>
      <trkpt lat="41.07152" lon="20.12743">
        <ele>419.26998901367</ele>
        <time>2024-09-26T06:51:14.000Z</time>
      </trkpt>
      <trkpt lat="41.07144" lon="20.12745">
        <ele>419.75</ele>
        <time>2024-09-26T06:51:15.000Z</time>
      </trkpt>
      <trkpt lat="41.07136" lon="20.12748">
        <ele>420.70999145508</ele>
        <time>2024-09-26T06:51:16.000Z</time>
      </trkpt>
      <trkpt lat="41.07126" lon="20.12755">
        <ele>422.16000366211</ele>
        <time>2024-09-26T06:51:17.000Z</time>
      </trkpt>
      <trkpt lat="41.07097" lon="20.12784">
        <ele>424.55999755859</ele>
        <time>2024-09-26T06:51:20.000Z</time>
      </trkpt>
      <trkpt lat="41.07088" lon="20.12794">
        <ele>424.55999755859</ele>
        <time>2024-09-26T06:51:21.000Z</time>
      </trkpt>
      <trkpt lat="41.07082" lon="20.12804">
        <ele>424.55999755859</ele>
        <time>2024-09-26T06:51:22.000Z</time>
      </trkpt>
      <trkpt lat="41.07079" lon="20.12814">
        <ele>424.55999755859</ele>
        <time>2024-09-26T06:51:23.000Z</time>
      </trkpt>
      <trkpt lat="41.07079" lon="20.12826">
        <ele>424.55999755859</ele>
        <time>2024-09-26T06:51:24.000Z</time>
      </trkpt>
      <trkpt lat="41.07081" lon="20.1284">
        <ele>424.55999755859</ele>
        <time>2024-09-26T06:51:25.000Z</time>
      </trkpt>
      <trkpt lat="41.07082" lon="20.12854">
        <ele>424.55999755859</ele>
        <time>2024-09-26T06:51:26.000Z</time>
      </trkpt>
      <trkpt lat="41.07082" lon="20.12855">
        <ele>425.04000854492</ele>
        <time>2024-09-26T06:52:36.000Z</time>
      </trkpt>
      <trkpt lat="41.07092" lon="20.12854">
        <ele>426</ele>
        <time>2024-09-26T06:52:40.000Z</time>
      </trkpt>
      <trkpt lat="41.07093" lon="20.12855">
        <ele>426</ele>
        <time>2024-09-26T06:52:41.000Z</time>
      </trkpt>
      <trkpt lat="41.07096" lon="20.12859">
        <ele>426.48001098633</ele>
        <time>2024-09-26T06:52:42.000Z</time>
      </trkpt>
      <trkpt lat="41.071" lon="20.12864">
        <ele>426.95999145508</ele>
        <time>2024-09-26T06:52:43.000Z</time>
      </trkpt>
      <trkpt lat="41.07104" lon="20.12867">
        <ele>427.92001342773</ele>
        <time>2024-09-26T06:52:44.000Z</time>
      </trkpt>
      <trkpt lat="41.07108" lon="20.12866">
        <ele>427.92001342773</ele>
        <time>2024-09-26T06:52:45.000Z</time>
      </trkpt>
      <trkpt lat="41.07112" lon="20.12864">
        <ele>428.89001464844</ele>
        <time>2024-09-26T06:52:46.000Z</time>
      </trkpt>
      <trkpt lat="41.07118" lon="20.1286">
        <ele>429.36999511719</ele>
        <time>2024-09-26T06:52:47.000Z</time>
      </trkpt>
      <trkpt lat="41.07123" lon="20.12854">
        <ele>430.80999755859</ele>
        <time>2024-09-26T06:52:48.000Z</time>
      </trkpt>
      <trkpt lat="41.07127" lon="20.12849">
        <ele>431.76998901367</ele>
        <time>2024-09-26T06:52:49.000Z</time>
      </trkpt>
      <trkpt lat="41.07131" lon="20.12846">
        <ele>432.73001098633</ele>
        <time>2024-09-26T06:52:50.000Z</time>
      </trkpt>
      <trkpt lat="41.07136" lon="20.12844">
        <ele>433.20999145508</ele>
        <time>2024-09-26T06:52:51.000Z</time>
      </trkpt>
      <trkpt lat="41.0714" lon="20.12846">
        <ele>433.69000244141</ele>
        <time>2024-09-26T06:52:52.000Z</time>
      </trkpt>
      <trkpt lat="41.07144" lon="20.12849">
        <ele>434.17001342773</ele>
        <time>2024-09-26T06:52:53.000Z</time>
      </trkpt>
      <trkpt lat="41.07148" lon="20.12856">
        <ele>435.13000488281</ele>
        <time>2024-09-26T06:52:54.000Z</time>
      </trkpt>
      <trkpt lat="41.07151" lon="20.12862">
        <ele>435.60998535156</ele>
        <time>2024-09-26T06:52:55.000Z</time>
      </trkpt>
      <trkpt lat="41.07154" lon="20.12867">
        <ele>436.10000610352</ele>
        <time>2024-09-26T06:52:56.000Z</time>
      </trkpt>
      <trkpt lat="41.07158" lon="20.12873">
        <ele>436.57998657227</ele>
        <time>2024-09-26T06:52:57.000Z</time>
      </trkpt>
      <trkpt lat="41.07163" lon="20.1288">
        <ele>436.57998657227</ele>
        <time>2024-09-26T06:52:58.000Z</time>
      </trkpt>
      <trkpt lat="41.07168" lon="20.12887">
        <ele>436.57998657227</ele>
        <time>2024-09-26T06:52:59.000Z</time>
      </trkpt>
      <trkpt lat="41.07171" lon="20.12895">
        <ele>437.05999755859</ele>
        <time>2024-09-26T06:53:00.000Z</time>
      </trkpt>
      <trkpt lat="41.07172" lon="20.12902">
        <ele>437.54000854492</ele>
        <time>2024-09-26T06:53:01.000Z</time>
      </trkpt>
      <trkpt lat="41.07172" lon="20.12909">
        <ele>437.54000854492</ele>
        <time>2024-09-26T06:53:02.000Z</time>
      </trkpt>
      <trkpt lat="41.07172" lon="20.12916">
        <ele>438.01998901367</ele>
        <time>2024-09-26T06:53:03.000Z</time>
      </trkpt>
      <trkpt lat="41.07169" lon="20.12928">
        <ele>438.98001098633</ele>
        <time>2024-09-26T06:53:04.000Z</time>
      </trkpt>
      <trkpt lat="41.07169" lon="20.12932">
        <ele>438.98001098633</ele>
        <time>2024-09-26T06:53:05.000Z</time>
      </trkpt>
      <trkpt lat="41.07168" lon="20.12944">
        <ele>439.94000244141</ele>
        <time>2024-09-26T06:53:06.000Z</time>
      </trkpt>
      <trkpt lat="41.07168" lon="20.12948">
        <ele>440.42001342773</ele>
        <time>2024-09-26T06:53:07.000Z</time>
      </trkpt>
      <trkpt lat="41.07169" lon="20.12954">
        <ele>440.89999389648</ele>
        <time>2024-09-26T06:53:08.000Z</time>
      </trkpt>
      <trkpt lat="41.07171" lon="20.12959">
        <ele>441.38000488281</ele>
        <time>2024-09-26T06:53:09.000Z</time>
      </trkpt>
      <trkpt lat="41.07191" lon="20.1297">
        <ele>444.26998901367</ele>
        <time>2024-09-26T06:53:16.000Z</time>
      </trkpt>
      <trkpt lat="41.07194" lon="20.12973">
        <ele>444.75</ele>
        <time>2024-09-26T06:53:17.000Z</time>
      </trkpt>
      <trkpt lat="41.07198" lon="20.12977">
        <ele>445.23001098633</ele>
        <time>2024-09-26T06:53:18.000Z</time>
      </trkpt>
      <trkpt lat="41.07203" lon="20.12983">
        <ele>446.19000244141</ele>
        <time>2024-09-26T06:53:19.000Z</time>
      </trkpt>
      <trkpt lat="41.07208" lon="20.12991">
        <ele>447.14999389648</ele>
        <time>2024-09-26T06:53:20.000Z</time>
      </trkpt>
      <trkpt lat="41.0721" lon="20.12998">
        <ele>448.10998535156</ele>
        <time>2024-09-26T06:53:21.000Z</time>
      </trkpt>
      <trkpt lat="41.07215" lon="20.13011">
        <ele>449.54998779297</ele>
        <time>2024-09-26T06:53:22.000Z</time>
      </trkpt>
      <trkpt lat="41.07217" lon="20.13017">
        <ele>450.51998901367</ele>
        <time>2024-09-26T06:53:23.000Z</time>
      </trkpt>
      <trkpt lat="41.07221" lon="20.13025">
        <ele>452.44000244141</ele>
        <time>2024-09-26T06:53:24.000Z</time>
      </trkpt>
      <trkpt lat="41.07225" lon="20.1303">
        <ele>453.39999389648</ele>
        <time>2024-09-26T06:53:25.000Z</time>
      </trkpt>
      <trkpt lat="41.07226" lon="20.13044">
        <ele>455.32000732422</ele>
        <time>2024-09-26T06:53:28.000Z</time>
      </trkpt>
      <trkpt lat="41.07225" lon="20.13045">
        <ele>455.32000732422</ele>
        <time>2024-09-26T06:53:29.000Z</time>
      </trkpt>
      <trkpt lat="41.07221" lon="20.13048">
        <ele>456.2799987793</ele>
        <time>2024-09-26T06:53:30.000Z</time>
      </trkpt>
      <trkpt lat="41.07215" lon="20.13048">
        <ele>456.76000976562</ele>
        <time>2024-09-26T06:53:31.000Z</time>
      </trkpt>
      <trkpt lat="41.07208" lon="20.13046">
        <ele>457.7200012207</ele>
        <time>2024-09-26T06:53:32.000Z</time>
      </trkpt>
      <trkpt lat="41.07202" lon="20.13044">
        <ele>458.69000244141</ele>
        <time>2024-09-26T06:53:33.000Z</time>
      </trkpt>
      <trkpt lat="41.07195" lon="20.13043">
        <ele>459.17001342773</ele>
        <time>2024-09-26T06:53:34.000Z</time>
      </trkpt>
      <trkpt lat="41.07189" lon="20.13043">
        <ele>460.13000488281</ele>
        <time>2024-09-26T06:53:35.000Z</time>
      </trkpt>
      <trkpt lat="41.07182" lon="20.13047">
        <ele>460.60998535156</ele>
        <time>2024-09-26T06:53:36.000Z</time>
      </trkpt>
      <trkpt lat="41.07169" lon="20.13055">
        <ele>462.04998779297</ele>
        <time>2024-09-26T06:53:37.000Z</time>
      </trkpt>
      <trkpt lat="41.0716" lon="20.13062">
        <ele>463.01000976562</ele>
        <time>2024-09-26T06:53:39.000Z</time>
      </trkpt>
      <trkpt lat="41.07153" lon="20.13068">
        <ele>464.45001220703</ele>
        <time>2024-09-26T06:53:40.000Z</time>
      </trkpt>
      <trkpt lat="41.07151" lon="20.1307">
        <ele>464.92999267578</ele>
        <time>2024-09-26T06:53:41.000Z</time>
      </trkpt>
      <trkpt lat="41.0715" lon="20.13084">
        <ele>466.85998535156</ele>
        <time>2024-09-26T06:53:44.000Z</time>
      </trkpt>
      <trkpt lat="41.07153" lon="20.13086">
        <ele>467.33999633789</ele>
        <time>2024-09-26T06:53:45.000Z</time>
      </trkpt>
      <trkpt lat="41.07157" lon="20.13087">
        <ele>467.82000732422</ele>
        <time>2024-09-26T06:53:46.000Z</time>
      </trkpt>
      <trkpt lat="41.07162" lon="20.13087">
        <ele>468.29998779297</ele>
        <time>2024-09-26T06:53:47.000Z</time>
      </trkpt>
      <trkpt lat="41.07169" lon="20.13085">
        <ele>468.29998779297</ele>
        <time>2024-09-26T06:53:48.000Z</time>
      </trkpt>
      <trkpt lat="41.07175" lon="20.13081">
        <ele>468.29998779297</ele>
        <time>2024-09-26T06:53:49.000Z</time>
      </trkpt>
      <trkpt lat="41.0718" lon="20.13077">
        <ele>468.7799987793</ele>
        <time>2024-09-26T06:53:50.000Z</time>
      </trkpt>
      <trkpt lat="41.07185" lon="20.13075">
        <ele>468.7799987793</ele>
        <time>2024-09-26T06:53:51.000Z</time>
      </trkpt>
      <trkpt lat="41.07195" lon="20.13074">
        <ele>469.26000976562</ele>
        <time>2024-09-26T06:53:58.000Z</time>
      </trkpt>
      <trkpt lat="41.0721" lon="20.13084">
        <ele>469.26000976562</ele>
        <time>2024-09-26T06:58:38.000Z</time>
      </trkpt>
      <trkpt lat="41.07207" lon="20.131">
        <ele>470.70001220703</ele>
        <time>2024-09-26T06:58:42.000Z</time>
      </trkpt>
      <trkpt lat="41.07206" lon="20.13101">
        <ele>470.70001220703</ele>
        <time>2024-09-26T06:58:43.000Z</time>
      </trkpt>
      <trkpt lat="41.07202" lon="20.13102">
        <ele>471.17999267578</ele>
        <time>2024-09-26T06:58:44.000Z</time>
      </trkpt>
      <trkpt lat="41.07196" lon="20.13102">
        <ele>472.14001464844</ele>
        <time>2024-09-26T06:58:45.000Z</time>
      </trkpt>
      <trkpt lat="41.07191" lon="20.13103">
        <ele>473.10998535156</ele>
        <time>2024-09-26T06:58:46.000Z</time>
      </trkpt>
      <trkpt lat="41.07185" lon="20.13104">
        <ele>474.07000732422</ele>
        <time>2024-09-26T06:58:47.000Z</time>
      </trkpt>
      <trkpt lat="41.07179" lon="20.13107">
        <ele>475.0299987793</ele>
        <time>2024-09-26T06:58:48.000Z</time>
      </trkpt>
      <trkpt lat="41.07169" lon="20.13113">
        <ele>476.4700012207</ele>
        <time>2024-09-26T06:58:50.000Z</time>
      </trkpt>
      <trkpt lat="41.07162" lon="20.13117">
        <ele>477.42999267578</ele>
        <time>2024-09-26T06:58:51.000Z</time>
      </trkpt>
      <trkpt lat="41.07154" lon="20.13121">
        <ele>478.39001464844</ele>
        <time>2024-09-26T06:58:52.000Z</time>
      </trkpt>
      <trkpt lat="41.07151" lon="20.13122">
        <ele>478.86999511719</ele>
        <time>2024-09-26T06:58:53.000Z</time>
      </trkpt>
      <trkpt lat="41.07146" lon="20.13126">
        <ele>479.83999633789</ele>
        <time>2024-09-26T06:58:54.000Z</time>
      </trkpt>
      <trkpt lat="41.07142" lon="20.13131">
        <ele>480.79998779297</ele>
        <time>2024-09-26T06:58:55.000Z</time>
      </trkpt>
      <trkpt lat="41.0714" lon="20.13137">
        <ele>481.2799987793</ele>
        <time>2024-09-26T06:58:56.000Z</time>
      </trkpt>
      <trkpt lat="41.0714" lon="20.13144">
        <ele>482.23999023438</ele>
        <time>2024-09-26T06:58:57.000Z</time>
      </trkpt>
      <trkpt lat="41.0714" lon="20.13151">
        <ele>482.7200012207</ele>
        <time>2024-09-26T06:58:58.000Z</time>
      </trkpt>
      <trkpt lat="41.07142" lon="20.13161">
        <ele>483.67999267578</ele>
        <time>2024-09-26T06:58:59.000Z</time>
      </trkpt>
      <trkpt lat="41.07144" lon="20.13167">
        <ele>484.64001464844</ele>
        <time>2024-09-26T06:59:00.000Z</time>
      </trkpt>
      <trkpt lat="41.07145" lon="20.13175">
        <ele>485.11999511719</ele>
        <time>2024-09-26T06:59:01.000Z</time>
      </trkpt>
      <trkpt lat="41.07145" lon="20.13188">
        <ele>486.55999755859</ele>
        <time>2024-09-26T06:59:02.000Z</time>
      </trkpt>
      <trkpt lat="41.07145" lon="20.13195">
        <ele>487.5299987793</ele>
        <time>2024-09-26T06:59:03.000Z</time>
      </trkpt>
      <trkpt lat="41.07145" lon="20.13205">
        <ele>488.48999023438</ele>
        <time>2024-09-26T06:59:04.000Z</time>
      </trkpt>
      <trkpt lat="41.07144" lon="20.1321">
        <ele>488.9700012207</ele>
        <time>2024-09-26T06:59:05.000Z</time>
      </trkpt>
      <trkpt lat="41.07142" lon="20.13218">
        <ele>489.92999267578</ele>
        <time>2024-09-26T06:59:06.000Z</time>
      </trkpt>
      <trkpt lat="41.07139" lon="20.13227">
        <ele>490.89001464844</ele>
        <time>2024-09-26T06:59:07.000Z</time>
      </trkpt>
      <trkpt lat="41.0713" lon="20.13247">
        <ele>492.80999755859</ele>
        <time>2024-09-26T06:59:09.000Z</time>
      </trkpt>
      <trkpt lat="41.07128" lon="20.13253">
        <ele>493.29000854492</ele>
        <time>2024-09-26T06:59:10.000Z</time>
      </trkpt>
      <trkpt lat="41.07123" lon="20.13264">
        <ele>494.73999023438</ele>
        <time>2024-09-26T06:59:11.000Z</time>
      </trkpt>
      <trkpt lat="41.07121" lon="20.13268">
        <ele>494.73999023438</ele>
        <time>2024-09-26T06:59:12.000Z</time>
      </trkpt>
      <trkpt lat="41.07109" lon="20.13293">
        <ele>497.14001464844</ele>
        <time>2024-09-26T06:59:15.000Z</time>
      </trkpt>
      <trkpt lat="41.07102" lon="20.13312">
        <ele>498.57998657227</ele>
        <time>2024-09-26T06:59:18.000Z</time>
      </trkpt>
      <trkpt lat="41.07099" lon="20.13319">
        <ele>499.05999755859</ele>
        <time>2024-09-26T06:59:19.000Z</time>
      </trkpt>
      <trkpt lat="41.07095" lon="20.13325">
        <ele>500.01998901367</ele>
        <time>2024-09-26T06:59:20.000Z</time>
      </trkpt>
      <trkpt lat="41.0709" lon="20.1333">
        <ele>500.5</ele>
        <time>2024-09-26T06:59:21.000Z</time>
      </trkpt>
      <trkpt lat="41.07085" lon="20.13333">
        <ele>500.98001098633</ele>
        <time>2024-09-26T06:59:22.000Z</time>
      </trkpt>
      <trkpt lat="41.07079" lon="20.13334">
        <ele>501.45999145508</ele>
        <time>2024-09-26T06:59:23.000Z</time>
      </trkpt>
      <trkpt lat="41.07074" lon="20.13335">
        <ele>502.42999267578</ele>
        <time>2024-09-26T06:59:24.000Z</time>
      </trkpt>
      <trkpt lat="41.07068" lon="20.13334">
        <ele>502.91000366211</ele>
        <time>2024-09-26T06:59:25.000Z</time>
      </trkpt>
      <trkpt lat="41.07057" lon="20.13334">
        <ele>504.35000610352</ele>
        <time>2024-09-26T06:59:27.000Z</time>
      </trkpt>
      <trkpt lat="41.07051" lon="20.13334">
        <ele>505.30999755859</ele>
        <time>2024-09-26T06:59:28.000Z</time>
      </trkpt>
      <trkpt lat="41.07046" lon="20.13336">
        <ele>505.79000854492</ele>
        <time>2024-09-26T06:59:29.000Z</time>
      </trkpt>
      <trkpt lat="41.07042" lon="20.13339">
        <ele>506.75</ele>
        <time>2024-09-26T06:59:30.000Z</time>
      </trkpt>
      <trkpt lat="41.07038" lon="20.13343">
        <ele>507.23001098633</ele>
        <time>2024-09-26T06:59:31.000Z</time>
      </trkpt>
      <trkpt lat="41.07036" lon="20.1335">
        <ele>508.19000244141</ele>
        <time>2024-09-26T06:59:32.000Z</time>
      </trkpt>
      <trkpt lat="41.07037" lon="20.13356">
        <ele>508.19000244141</ele>
        <time>2024-09-26T06:59:33.000Z</time>
      </trkpt>
      <trkpt lat="41.07039" lon="20.13363">
        <ele>509.16000366211</ele>
        <time>2024-09-26T06:59:34.000Z</time>
      </trkpt>
      <trkpt lat="41.07041" lon="20.13368">
        <ele>509.64001464844</ele>
        <time>2024-09-26T06:59:35.000Z</time>
      </trkpt>
      <trkpt lat="41.07043" lon="20.13376">
        <ele>510.11999511719</ele>
        <time>2024-09-26T06:59:36.000Z</time>
      </trkpt>
      <trkpt lat="41.07045" lon="20.13382">
        <ele>510.60000610352</ele>
        <time>2024-09-26T06:59:37.000Z</time>
      </trkpt>
      <trkpt lat="41.07049" lon="20.13388">
        <ele>511.07998657227</ele>
        <time>2024-09-26T06:59:38.000Z</time>
      </trkpt>
      <trkpt lat="41.07054" lon="20.13394">
        <ele>511.55999755859</ele>
        <time>2024-09-26T06:59:39.000Z</time>
      </trkpt>
      <trkpt lat="41.0706" lon="20.13398">
        <ele>512.03997802734</ele>
        <time>2024-09-26T06:59:40.000Z</time>
      </trkpt>
      <trkpt lat="41.07066" lon="20.13401">
        <ele>513</ele>
        <time>2024-09-26T06:59:41.000Z</time>
      </trkpt>
      <trkpt lat="41.07074" lon="20.13404">
        <ele>513.96002197266</ele>
        <time>2024-09-26T06:59:42.000Z</time>
      </trkpt>
      <trkpt lat="41.07085" lon="20.13406">
        <ele>515.40002441406</ele>
        <time>2024-09-26T06:59:43.000Z</time>
      </trkpt>
      <trkpt lat="41.0709" lon="20.13406">
        <ele>515.88000488281</ele>
        <time>2024-09-26T06:59:44.000Z</time>
      </trkpt>
      <trkpt lat="41.07096" lon="20.13406">
        <ele>516.36999511719</ele>
        <time>2024-09-26T06:59:45.000Z</time>
      </trkpt>
      <trkpt lat="41.07102" lon="20.13403">
        <ele>516.84997558594</ele>
        <time>2024-09-26T06:59:46.000Z</time>
      </trkpt>
      <trkpt lat="41.07108" lon="20.13397">
        <ele>517.80999755859</ele>
        <time>2024-09-26T06:59:47.000Z</time>
      </trkpt>
      <trkpt lat="41.07114" lon="20.13389">
        <ele>518.77001953125</ele>
        <time>2024-09-26T06:59:48.000Z</time>
      </trkpt>
      <trkpt lat="41.07118" lon="20.13385">
        <ele>519.25</ele>
        <time>2024-09-26T06:59:49.000Z</time>
      </trkpt>
      <trkpt lat="41.07124" lon="20.13379">
        <ele>520.21002197266</ele>
        <time>2024-09-26T06:59:50.000Z</time>
      </trkpt>
      <trkpt lat="41.07132" lon="20.13373">
        <ele>520.69000244141</ele>
        <time>2024-09-26T06:59:51.000Z</time>
      </trkpt>
      <trkpt lat="41.07141" lon="20.13369">
        <ele>521.16998291016</ele>
        <time>2024-09-26T06:59:52.000Z</time>
      </trkpt>
      <trkpt lat="41.07166" lon="20.1336">
        <ele>522.60998535156</ele>
        <time>2024-09-26T06:59:54.000Z</time>
      </trkpt>
      <trkpt lat="41.07168" lon="20.13359">
        <ele>522.60998535156</ele>
        <time>2024-09-26T06:59:55.000Z</time>
      </trkpt>
      <trkpt lat="41.07175" lon="20.13355">
        <ele>523.09002685547</ele>
        <time>2024-09-26T06:59:56.000Z</time>
      </trkpt>
      <trkpt lat="41.0718" lon="20.13349">
        <ele>524.05999755859</ele>
        <time>2024-09-26T06:59:57.000Z</time>
      </trkpt>
      <trkpt lat="41.07184" lon="20.13343">
        <ele>525.02001953125</ele>
        <time>2024-09-26T06:59:58.000Z</time>
      </trkpt>
      <trkpt lat="41.07188" lon="20.13337">
        <ele>525.97998046875</ele>
        <time>2024-09-26T06:59:59.000Z</time>
      </trkpt>
      <trkpt lat="41.07193" lon="20.13333">
        <ele>526.94000244141</ele>
        <time>2024-09-26T07:00:00.000Z</time>
      </trkpt>
      <trkpt lat="41.07198" lon="20.13332">
        <ele>527.41998291016</ele>
        <time>2024-09-26T07:00:01.000Z</time>
      </trkpt>
      <trkpt lat="41.07203" lon="20.13333">
        <ele>528.38000488281</ele>
        <time>2024-09-26T07:00:02.000Z</time>
      </trkpt>
      <trkpt lat="41.07208" lon="20.13337">
        <ele>528.85998535156</ele>
        <time>2024-09-26T07:00:03.000Z</time>
      </trkpt>
      <trkpt lat="41.07215" lon="20.13346">
        <ele>530.29998779297</ele>
        <time>2024-09-26T07:00:04.000Z</time>
      </trkpt>
      <trkpt lat="41.07217" lon="20.13348">
        <ele>530.78997802734</ele>
        <time>2024-09-26T07:00:05.000Z</time>
      </trkpt>
      <trkpt lat="41.07223" lon="20.13354">
        <ele>531.27001953125</ele>
        <time>2024-09-26T07:00:06.000Z</time>
      </trkpt>
      <trkpt lat="41.07229" lon="20.13358">
        <ele>532.22998046875</ele>
        <time>2024-09-26T07:00:07.000Z</time>
      </trkpt>
      <trkpt lat="41.07235" lon="20.1336">
        <ele>533.19000244141</ele>
        <time>2024-09-26T07:00:08.000Z</time>
      </trkpt>
      <trkpt lat="41.07242" lon="20.13361">
        <ele>533.66998291016</ele>
        <time>2024-09-26T07:00:09.000Z</time>
      </trkpt>
      <trkpt lat="41.0725" lon="20.1336">
        <ele>534.15002441406</ele>
        <time>2024-09-26T07:00:10.000Z</time>
      </trkpt>
      <trkpt lat="41.07262" lon="20.13359">
        <ele>535.59002685547</ele>
        <time>2024-09-26T07:00:11.000Z</time>
      </trkpt>
      <trkpt lat="41.07268" lon="20.13358">
        <ele>536.07000732422</ele>
        <time>2024-09-26T07:00:12.000Z</time>
      </trkpt>
      <trkpt lat="41.07275" lon="20.13358">
        <ele>537.03002929688</ele>
        <time>2024-09-26T07:00:13.000Z</time>
      </trkpt>
      <trkpt lat="41.07282" lon="20.1336">
        <ele>537.51000976562</ele>
        <time>2024-09-26T07:00:14.000Z</time>
      </trkpt>
      <trkpt lat="41.07288" lon="20.13362">
        <ele>537.98999023438</ele>
        <time>2024-09-26T07:00:15.000Z</time>
      </trkpt>
      <trkpt lat="41.07293" lon="20.13366">
        <ele>538.96002197266</ele>
        <time>2024-09-26T07:00:16.000Z</time>
      </trkpt>
      <trkpt lat="41.07297" lon="20.13372">
        <ele>539.44000244141</ele>
        <time>2024-09-26T07:00:17.000Z</time>
      </trkpt>
      <trkpt lat="41.073" lon="20.13379">
        <ele>540.40002441406</ele>
        <time>2024-09-26T07:00:18.000Z</time>
      </trkpt>
      <trkpt lat="41.07302" lon="20.13388">
        <ele>540.88000488281</ele>
        <time>2024-09-26T07:00:19.000Z</time>
      </trkpt>
      <trkpt lat="41.07303" lon="20.13399">
        <ele>541.84002685547</ele>
        <time>2024-09-26T07:00:20.000Z</time>
      </trkpt>
      <trkpt lat="41.07302" lon="20.13411">
        <ele>543.28002929688</ele>
        <time>2024-09-26T07:00:21.000Z</time>
      </trkpt>
      <trkpt lat="41.07302" lon="20.13415">
        <ele>543.76000976562</ele>
        <time>2024-09-26T07:00:22.000Z</time>
      </trkpt>
      <trkpt lat="41.07303" lon="20.13422">
        <ele>543.76000976562</ele>
        <time>2024-09-26T07:00:23.000Z</time>
      </trkpt>
      <trkpt lat="41.07304" lon="20.13428">
        <ele>544.23999023438</ele>
        <time>2024-09-26T07:00:24.000Z</time>
      </trkpt>
      <trkpt lat="41.07307" lon="20.13435">
        <ele>544.71997070312</ele>
        <time>2024-09-26T07:00:25.000Z</time>
      </trkpt>
      <trkpt lat="41.07311" lon="20.13441">
        <ele>545.20001220703</ele>
        <time>2024-09-26T07:00:26.000Z</time>
      </trkpt>
      <trkpt lat="41.07315" lon="20.13446">
        <ele>545.20001220703</ele>
        <time>2024-09-26T07:00:27.000Z</time>
      </trkpt>
      <trkpt lat="41.0732" lon="20.13452">
        <ele>545.69000244141</ele>
        <time>2024-09-26T07:00:28.000Z</time>
      </trkpt>
      <trkpt lat="41.07324" lon="20.13459">
        <ele>546.16998291016</ele>
        <time>2024-09-26T07:00:29.000Z</time>
      </trkpt>
      <trkpt lat="41.07326" lon="20.13467">
        <ele>546.16998291016</ele>
        <time>2024-09-26T07:00:30.000Z</time>
      </trkpt>
      <trkpt lat="41.07328" lon="20.13475">
        <ele>546.65002441406</ele>
        <time>2024-09-26T07:00:31.000Z</time>
      </trkpt>
      <trkpt lat="41.07328" lon="20.13484">
        <ele>547.13000488281</ele>
        <time>2024-09-26T07:00:32.000Z</time>
      </trkpt>
      <trkpt lat="41.07327" lon="20.13492">
        <ele>547.60998535156</ele>
        <time>2024-09-26T07:00:33.000Z</time>
      </trkpt>
      <trkpt lat="41.07326" lon="20.13498">
        <ele>548.09002685547</ele>
        <time>2024-09-26T07:00:34.000Z</time>
      </trkpt>
      <trkpt lat="41.07317" lon="20.13505">
        <ele>549.53002929688</ele>
        <time>2024-09-26T07:00:36.000Z</time>
      </trkpt>
      <trkpt lat="41.07316" lon="20.13504">
        <ele>549.53002929688</ele>
        <time>2024-09-26T07:00:37.000Z</time>
      </trkpt>
      <trkpt lat="41.07313" lon="20.13501">
        <ele>550.48999023438</ele>
        <time>2024-09-26T07:00:38.000Z</time>
      </trkpt>
      <trkpt lat="41.07309" lon="20.13496">
        <ele>550.96997070312</ele>
        <time>2024-09-26T07:00:39.000Z</time>
      </trkpt>
      <trkpt lat="41.07303" lon="20.13484">
        <ele>552.40997314453</ele>
        <time>2024-09-26T07:00:40.000Z</time>
      </trkpt>
      <trkpt lat="41.07299" lon="20.13478">
        <ele>553.38000488281</ele>
        <time>2024-09-26T07:00:41.000Z</time>
      </trkpt>
      <trkpt lat="41.07297" lon="20.13474">
        <ele>553.85998535156</ele>
        <time>2024-09-26T07:00:42.000Z</time>
      </trkpt>
      <trkpt lat="41.07292" lon="20.13468">
        <ele>554.34002685547</ele>
        <time>2024-09-26T07:00:43.000Z</time>
      </trkpt>
      <trkpt lat="41.07288" lon="20.13464">
        <ele>555.29998779297</ele>
        <time>2024-09-26T07:00:44.000Z</time>
      </trkpt>
      <trkpt lat="41.07279" lon="20.13458">
        <ele>556.73999023438</ele>
        <time>2024-09-26T07:00:45.000Z</time>
      </trkpt>
      <trkpt lat="41.07276" lon="20.13457">
        <ele>556.73999023438</ele>
        <time>2024-09-26T07:00:46.000Z</time>
      </trkpt>
      <trkpt lat="41.0727" lon="20.13451">
        <ele>557.70001220703</ele>
        <time>2024-09-26T07:00:47.000Z</time>
      </trkpt>
      <trkpt lat="41.07263" lon="20.13446">
        <ele>558.17999267578</ele>
        <time>2024-09-26T07:00:49.000Z</time>
      </trkpt>
      <trkpt lat="41.07256" lon="20.13442">
        <ele>558.65997314453</ele>
        <time>2024-09-26T07:00:50.000Z</time>
      </trkpt>
      <trkpt lat="41.07251" lon="20.1344">
        <ele>559.14001464844</ele>
        <time>2024-09-26T07:00:51.000Z</time>
      </trkpt>
      <trkpt lat="41.07246" lon="20.13439">
        <ele>559.61999511719</ele>
        <time>2024-09-26T07:00:52.000Z</time>
      </trkpt>
      <trkpt lat="41.07242" lon="20.13441">
        <ele>560.59002685547</ele>
        <time>2024-09-26T07:00:53.000Z</time>
      </trkpt>
      <trkpt lat="41.07238" lon="20.13444">
        <ele>561.07000732422</ele>
        <time>2024-09-26T07:00:54.000Z</time>
      </trkpt>
      <trkpt lat="41.07234" lon="20.13447">
        <ele>562.03002929688</ele>
        <time>2024-09-26T07:00:55.000Z</time>
      </trkpt>
      <trkpt lat="41.0723" lon="20.13452">
        <ele>562.51000976562</ele>
        <time>2024-09-26T07:00:56.000Z</time>
      </trkpt>
      <trkpt lat="41.07226" lon="20.13458">
        <ele>563.46997070312</ele>
        <time>2024-09-26T07:00:57.000Z</time>
      </trkpt>
      <trkpt lat="41.07218" lon="20.13469">
        <ele>564.90997314453</ele>
        <time>2024-09-26T07:00:59.000Z</time>
      </trkpt>
      <trkpt lat="41.07211" lon="20.13479">
        <ele>566.34997558594</ele>
        <time>2024-09-26T07:01:01.000Z</time>
      </trkpt>
      <trkpt lat="41.07208" lon="20.13485">
        <ele>566.83001708984</ele>
        <time>2024-09-26T07:01:02.000Z</time>
      </trkpt>
      <trkpt lat="41.07206" lon="20.13491">
        <ele>567.79998779297</ele>
        <time>2024-09-26T07:01:03.000Z</time>
      </trkpt>
      <trkpt lat="41.07205" lon="20.13497">
        <ele>568.28002929688</ele>
        <time>2024-09-26T07:01:04.000Z</time>
      </trkpt>
      <trkpt lat="41.07204" lon="20.13504">
        <ele>568.76000976562</ele>
        <time>2024-09-26T07:01:05.000Z</time>
      </trkpt>
      <trkpt lat="41.07203" lon="20.13511">
        <ele>569.71997070312</ele>
        <time>2024-09-26T07:01:06.000Z</time>
      </trkpt>
      <trkpt lat="41.07203" lon="20.13522">
        <ele>570.67999267578</ele>
        <time>2024-09-26T07:01:07.000Z</time>
      </trkpt>
      <trkpt lat="41.07203" lon="20.13527">
        <ele>571.15997314453</ele>
        <time>2024-09-26T07:01:08.000Z</time>
      </trkpt>
      <trkpt lat="41.07204" lon="20.13537">
        <ele>572.59997558594</ele>
        <time>2024-09-26T07:01:09.000Z</time>
      </trkpt>
      <trkpt lat="41.07205" lon="20.13542">
        <ele>573.55999755859</ele>
        <time>2024-09-26T07:01:10.000Z</time>
      </trkpt>
      <trkpt lat="41.07207" lon="20.1355">
        <ele>574.53002929688</ele>
        <time>2024-09-26T07:01:11.000Z</time>
      </trkpt>
      <trkpt lat="41.07208" lon="20.13555">
        <ele>575.48999023438</ele>
        <time>2024-09-26T07:01:12.000Z</time>
      </trkpt>
      <trkpt lat="41.07211" lon="20.13563">
        <ele>576.45001220703</ele>
        <time>2024-09-26T07:01:13.000Z</time>
      </trkpt>
      <trkpt lat="41.07214" lon="20.1357">
        <ele>577.40997314453</ele>
        <time>2024-09-26T07:01:14.000Z</time>
      </trkpt>
      <trkpt lat="41.07216" lon="20.13577">
        <ele>578.36999511719</ele>
        <time>2024-09-26T07:01:15.000Z</time>
      </trkpt>
      <trkpt lat="41.07216" lon="20.13585">
        <ele>579.33001708984</ele>
        <time>2024-09-26T07:01:16.000Z</time>
      </trkpt>
      <trkpt lat="41.07214" lon="20.136">
        <ele>580.28997802734</ele>
        <time>2024-09-26T07:01:17.000Z</time>
      </trkpt>
      <trkpt lat="41.07214" lon="20.13603">
        <ele>580.77001953125</ele>
        <time>2024-09-26T07:01:18.000Z</time>
      </trkpt>
      <trkpt lat="41.07214" lon="20.13612">
        <ele>581.25</ele>
        <time>2024-09-26T07:01:19.000Z</time>
      </trkpt>
      <trkpt lat="41.07214" lon="20.13618">
        <ele>581.72998046875</ele>
        <time>2024-09-26T07:01:20.000Z</time>
      </trkpt>
      <trkpt lat="41.07214" lon="20.13626">
        <ele>582.21997070312</ele>
        <time>2024-09-26T07:01:21.000Z</time>
      </trkpt>
      <trkpt lat="41.07216" lon="20.13632">
        <ele>582.70001220703</ele>
        <time>2024-09-26T07:01:22.000Z</time>
      </trkpt>
      <trkpt lat="41.07218" lon="20.13638">
        <ele>583.17999267578</ele>
        <time>2024-09-26T07:01:23.000Z</time>
      </trkpt>
      <trkpt lat="41.0722" lon="20.13644">
        <ele>583.65997314453</ele>
        <time>2024-09-26T07:01:24.000Z</time>
      </trkpt>
      <trkpt lat="41.07222" lon="20.13648">
        <ele>583.65997314453</ele>
        <time>2024-09-26T07:01:25.000Z</time>
      </trkpt>
      <trkpt lat="41.07225" lon="20.13654">
        <ele>584.14001464844</ele>
        <time>2024-09-26T07:01:26.000Z</time>
      </trkpt>
      <trkpt lat="41.07228" lon="20.1366">
        <ele>584.61999511719</ele>
        <time>2024-09-26T07:01:27.000Z</time>
      </trkpt>
      <trkpt lat="41.07232" lon="20.13664">
        <ele>585.58001708984</ele>
        <time>2024-09-26T07:01:28.000Z</time>
      </trkpt>
      <trkpt lat="41.07236" lon="20.13669">
        <ele>586.05999755859</ele>
        <time>2024-09-26T07:01:29.000Z</time>
      </trkpt>
      <trkpt lat="41.0724" lon="20.13675">
        <ele>586.53997802734</ele>
        <time>2024-09-26T07:01:30.000Z</time>
      </trkpt>
      <trkpt lat="41.07244" lon="20.13681">
        <ele>587.02001953125</ele>
        <time>2024-09-26T07:01:31.000Z</time>
      </trkpt>
      <trkpt lat="41.07246" lon="20.13687">
        <ele>587.5</ele>
        <time>2024-09-26T07:01:32.000Z</time>
      </trkpt>
      <trkpt lat="41.07247" lon="20.13695">
        <ele>587.97998046875</ele>
        <time>2024-09-26T07:01:33.000Z</time>
      </trkpt>
      <trkpt lat="41.07247" lon="20.13703">
        <ele>588.46002197266</ele>
        <time>2024-09-26T07:01:34.000Z</time>
      </trkpt>
      <trkpt lat="41.07247" lon="20.13708">
        <ele>588.95001220703</ele>
        <time>2024-09-26T07:01:35.000Z</time>
      </trkpt>
      <trkpt lat="41.07248" lon="20.13717">
        <ele>589.90997314453</ele>
        <time>2024-09-26T07:01:36.000Z</time>
      </trkpt>
      <trkpt lat="41.07249" lon="20.13725">
        <ele>590.39001464844</ele>
        <time>2024-09-26T07:01:37.000Z</time>
      </trkpt>
      <trkpt lat="41.0725" lon="20.13731">
        <ele>591.34997558594</ele>
        <time>2024-09-26T07:01:38.000Z</time>
      </trkpt>
      <trkpt lat="41.07252" lon="20.13744">
        <ele>592.30999755859</ele>
        <time>2024-09-26T07:01:39.000Z</time>
      </trkpt>
      <trkpt lat="41.07253" lon="20.13749">
        <ele>592.78997802734</ele>
        <time>2024-09-26T07:01:40.000Z</time>
      </trkpt>
      <trkpt lat="41.07254" lon="20.13753">
        <ele>593.27001953125</ele>
        <time>2024-09-26T07:01:41.000Z</time>
      </trkpt>
      <trkpt lat="41.07255" lon="20.13759">
        <ele>593.75</ele>
        <time>2024-09-26T07:01:42.000Z</time>
      </trkpt>
      <trkpt lat="41.07256" lon="20.13766">
        <ele>594.71002197266</ele>
        <time>2024-09-26T07:01:43.000Z</time>
      </trkpt>
      <trkpt lat="41.07257" lon="20.13772">
        <ele>595.19000244141</ele>
        <time>2024-09-26T07:01:44.000Z</time>
      </trkpt>
      <trkpt lat="41.07259" lon="20.13781">
        <ele>596.15002441406</ele>
        <time>2024-09-26T07:01:45.000Z</time>
      </trkpt>
      <trkpt lat="41.07261" lon="20.13789">
        <ele>596.64001464844</ele>
        <time>2024-09-26T07:01:46.000Z</time>
      </trkpt>
      <trkpt lat="41.07262" lon="20.13795">
        <ele>597.11999511719</ele>
        <time>2024-09-26T07:01:47.000Z</time>
      </trkpt>
      <trkpt lat="41.07263" lon="20.13801">
        <ele>597.59997558594</ele>
        <time>2024-09-26T07:01:48.000Z</time>
      </trkpt>
      <trkpt lat="41.07263" lon="20.13806">
        <ele>598.08001708984</ele>
        <time>2024-09-26T07:01:49.000Z</time>
      </trkpt>
      <trkpt lat="41.07256" lon="20.13816">
        <ele>600</ele>
        <time>2024-09-26T07:01:52.000Z</time>
      </trkpt>
      <trkpt lat="41.07251" lon="20.13816">
        <ele>600.47998046875</ele>
        <time>2024-09-26T07:01:53.000Z</time>
      </trkpt>
      <trkpt lat="41.07246" lon="20.13814">
        <ele>600.96002197266</ele>
        <time>2024-09-26T07:01:54.000Z</time>
      </trkpt>
      <trkpt lat="41.0724" lon="20.13812">
        <ele>601.91998291016</ele>
        <time>2024-09-26T07:01:55.000Z</time>
      </trkpt>
      <trkpt lat="41.07232" lon="20.13811">
        <ele>602.88000488281</ele>
        <time>2024-09-26T07:01:56.000Z</time>
      </trkpt>
      <trkpt lat="41.07227" lon="20.1381">
        <ele>603.35998535156</ele>
        <time>2024-09-26T07:01:57.000Z</time>
      </trkpt>
      <trkpt lat="41.07222" lon="20.13808">
        <ele>603.84997558594</ele>
        <time>2024-09-26T07:01:58.000Z</time>
      </trkpt>
      <trkpt lat="41.07217" lon="20.13806">
        <ele>604.33001708984</ele>
        <time>2024-09-26T07:01:59.000Z</time>
      </trkpt>
      <trkpt lat="41.07211" lon="20.13802">
        <ele>604.80999755859</ele>
        <time>2024-09-26T07:02:00.000Z</time>
      </trkpt>
      <trkpt lat="41.07206" lon="20.138">
        <ele>605.28997802734</ele>
        <time>2024-09-26T07:02:01.000Z</time>
      </trkpt>
      <trkpt lat="41.07201" lon="20.138">
        <ele>605.77001953125</ele>
        <time>2024-09-26T07:02:02.000Z</time>
      </trkpt>
      <trkpt lat="41.07197" lon="20.13804">
        <ele>606.72998046875</ele>
        <time>2024-09-26T07:02:03.000Z</time>
      </trkpt>
      <trkpt lat="41.07195" lon="20.13809">
        <ele>607.21002197266</ele>
        <time>2024-09-26T07:02:04.000Z</time>
      </trkpt>
      <trkpt lat="41.07193" lon="20.13816">
        <ele>607.69000244141</ele>
        <time>2024-09-26T07:02:05.000Z</time>
      </trkpt>
      <trkpt lat="41.07192" lon="20.13824">
        <ele>608.16998291016</ele>
        <time>2024-09-26T07:02:06.000Z</time>
      </trkpt>
      <trkpt lat="41.07191" lon="20.13832">
        <ele>609.13000488281</ele>
        <time>2024-09-26T07:02:07.000Z</time>
      </trkpt>
      <trkpt lat="41.07189" lon="20.13839">
        <ele>609.60998535156</ele>
        <time>2024-09-26T07:02:08.000Z</time>
      </trkpt>
      <trkpt lat="41.07186" lon="20.13848">
        <ele>610.57000732422</ele>
        <time>2024-09-26T07:02:09.000Z</time>
      </trkpt>
      <trkpt lat="41.07183" lon="20.13854">
        <ele>611.53997802734</ele>
        <time>2024-09-26T07:02:10.000Z</time>
      </trkpt>
      <trkpt lat="41.0718" lon="20.13859">
        <ele>612.02001953125</ele>
        <time>2024-09-26T07:02:11.000Z</time>
      </trkpt>
      <trkpt lat="41.07175" lon="20.13864">
        <ele>612.5</ele>
        <time>2024-09-26T07:02:12.000Z</time>
      </trkpt>
      <trkpt lat="41.07171" lon="20.13867">
        <ele>613.46002197266</ele>
        <time>2024-09-26T07:02:13.000Z</time>
      </trkpt>
      <trkpt lat="41.07167" lon="20.13871">
        <ele>613.94000244141</ele>
        <time>2024-09-26T07:02:14.000Z</time>
      </trkpt>
      <trkpt lat="41.07164" lon="20.13876">
        <ele>613.94000244141</ele>
        <time>2024-09-26T07:02:15.000Z</time>
      </trkpt>
      <trkpt lat="41.07161" lon="20.13881">
        <ele>614.41998291016</ele>
        <time>2024-09-26T07:02:16.000Z</time>
      </trkpt>
      <trkpt lat="41.07158" lon="20.1389">
        <ele>614.90002441406</ele>
        <time>2024-09-26T07:02:17.000Z</time>
      </trkpt>
      <trkpt lat="41.07157" lon="20.13896">
        <ele>614.90002441406</ele>
        <time>2024-09-26T07:02:18.000Z</time>
      </trkpt>
      <trkpt lat="41.07157" lon="20.13902">
        <ele>614.90002441406</ele>
        <time>2024-09-26T07:02:19.000Z</time>
      </trkpt>
      <trkpt lat="41.07156" lon="20.13911">
        <ele>614.90002441406</ele>
        <time>2024-09-26T07:02:20.000Z</time>
      </trkpt>
      <trkpt lat="41.07156" lon="20.13914">
        <ele>614.90002441406</ele>
        <time>2024-09-26T07:02:21.000Z</time>
      </trkpt>
      <trkpt lat="41.07155" lon="20.13919">
        <ele>614.90002441406</ele>
        <time>2024-09-26T07:02:22.000Z</time>
      </trkpt>
      <trkpt lat="41.07155" lon="20.13948">
        <ele>614.41998291016</ele>
        <time>2024-09-26T07:02:27.000Z</time>
      </trkpt>
      <trkpt lat="41.07155" lon="20.13954">
        <ele>613.94000244141</ele>
        <time>2024-09-26T07:02:28.000Z</time>
      </trkpt>
      <trkpt lat="41.07155" lon="20.13957">
        <ele>613.94000244141</ele>
        <time>2024-09-26T07:02:29.000Z</time>
      </trkpt>
      <trkpt lat="41.07155" lon="20.13964">
        <ele>613.94000244141</ele>
        <time>2024-09-26T07:02:30.000Z</time>
      </trkpt>
      <trkpt lat="41.07152" lon="20.1397">
        <ele>613.94000244141</ele>
        <time>2024-09-26T07:02:31.000Z</time>
      </trkpt>
      <trkpt lat="41.07149" lon="20.13976">
        <ele>613.94000244141</ele>
        <time>2024-09-26T07:02:32.000Z</time>
      </trkpt>
      <trkpt lat="41.07145" lon="20.13981">
        <ele>613.94000244141</ele>
        <time>2024-09-26T07:02:33.000Z</time>
      </trkpt>
      <trkpt lat="41.07141" lon="20.13985">
        <ele>613.94000244141</ele>
        <time>2024-09-26T07:02:34.000Z</time>
      </trkpt>
      <trkpt lat="41.07135" lon="20.1399">
        <ele>614.41998291016</ele>
        <time>2024-09-26T07:02:35.000Z</time>
      </trkpt>
      <trkpt lat="41.07131" lon="20.13993">
        <ele>614.90002441406</ele>
        <time>2024-09-26T07:02:36.000Z</time>
      </trkpt>
      <trkpt lat="41.07127" lon="20.13997">
        <ele>615.85998535156</ele>
        <time>2024-09-26T07:02:37.000Z</time>
      </trkpt>
      <trkpt lat="41.07123" lon="20.14002">
        <ele>616.34002685547</ele>
        <time>2024-09-26T07:02:38.000Z</time>
      </trkpt>
      <trkpt lat="41.0712" lon="20.14008">
        <ele>616.82000732422</ele>
        <time>2024-09-26T07:02:39.000Z</time>
      </trkpt>
      <trkpt lat="41.07117" lon="20.14014">
        <ele>617.29998779297</ele>
        <time>2024-09-26T07:02:40.000Z</time>
      </trkpt>
      <trkpt lat="41.07114" lon="20.14021">
        <ele>617.78002929688</ele>
        <time>2024-09-26T07:02:41.000Z</time>
      </trkpt>
      <trkpt lat="41.07113" lon="20.14027">
        <ele>618.26000976562</ele>
        <time>2024-09-26T07:02:42.000Z</time>
      </trkpt>
      <trkpt lat="41.0711" lon="20.14042">
        <ele>619.71002197266</ele>
        <time>2024-09-26T07:02:44.000Z</time>
      </trkpt>
      <trkpt lat="41.0711" lon="20.14044">
        <ele>619.71002197266</ele>
        <time>2024-09-26T07:02:45.000Z</time>
      </trkpt>
      <trkpt lat="41.07108" lon="20.14049">
        <ele>619.71002197266</ele>
        <time>2024-09-26T07:02:46.000Z</time>
      </trkpt>
      <trkpt lat="41.07106" lon="20.14054">
        <ele>620.19000244141</ele>
        <time>2024-09-26T07:02:47.000Z</time>
      </trkpt>
      <trkpt lat="41.07102" lon="20.14058">
        <ele>620.19000244141</ele>
        <time>2024-09-26T07:02:48.000Z</time>
      </trkpt>
      <trkpt lat="41.07098" lon="20.1406">
        <ele>620.19000244141</ele>
        <time>2024-09-26T07:02:49.000Z</time>
      </trkpt>
      <trkpt lat="41.07089" lon="20.14065">
        <ele>620.19000244141</ele>
        <time>2024-09-26T07:02:51.000Z</time>
      </trkpt>
      <trkpt lat="41.07085" lon="20.14066">
        <ele>620.19000244141</ele>
        <time>2024-09-26T07:02:52.000Z</time>
      </trkpt>
      <trkpt lat="41.07077" lon="20.14069">
        <ele>620.66998291016</ele>
        <time>2024-09-26T07:02:54.000Z</time>
      </trkpt>
      <trkpt lat="41.07073" lon="20.1407">
        <ele>620.66998291016</ele>
        <time>2024-09-26T07:02:55.000Z</time>
      </trkpt>
      <trkpt lat="41.07048" lon="20.14089">
        <ele>620.19000244141</ele>
        <time>2024-09-26T07:03:06.000Z</time>
      </trkpt>
      <trkpt lat="41.07046" lon="20.14093">
        <ele>619.22998046875</ele>
        <time>2024-09-26T07:03:36.000Z</time>
      </trkpt>
      <trkpt lat="41.07046" lon="20.14094">
        <ele>619.71002197266</ele>
        <time>2024-09-26T07:09:35.000Z</time>
      </trkpt>
      <trkpt lat="41.07044" lon="20.14101">
        <ele>619.22998046875</ele>
        <time>2024-09-26T07:09:36.000Z</time>
      </trkpt>
      <trkpt lat="41.0704" lon="20.1411">
        <ele>619.22998046875</ele>
        <time>2024-09-26T07:09:37.000Z</time>
      </trkpt>
      <trkpt lat="41.07037" lon="20.14118">
        <ele>619.71002197266</ele>
        <time>2024-09-26T07:09:39.000Z</time>
      </trkpt>
      <trkpt lat="41.07033" lon="20.14126">
        <ele>619.71002197266</ele>
        <time>2024-09-26T07:09:40.000Z</time>
      </trkpt>
      <trkpt lat="41.07021" lon="20.14152">
        <ele>621.63000488281</ele>
        <time>2024-09-26T07:09:43.000Z</time>
      </trkpt>
      <trkpt lat="41.07013" lon="20.14169">
        <ele>623.07000732422</ele>
        <time>2024-09-26T07:09:45.000Z</time>
      </trkpt>
      <trkpt lat="41.07011" lon="20.14174">
        <ele>624.03002929688</ele>
        <time>2024-09-26T07:09:46.000Z</time>
      </trkpt>
      <trkpt lat="41.07007" lon="20.14181">
        <ele>625.46997070312</ele>
        <time>2024-09-26T07:09:47.000Z</time>
      </trkpt>
      <trkpt lat="41.07005" lon="20.14188">
        <ele>626.91998291016</ele>
        <time>2024-09-26T07:09:48.000Z</time>
      </trkpt>
      <trkpt lat="41.07005" lon="20.14197">
        <ele>628.35998535156</ele>
        <time>2024-09-26T07:09:49.000Z</time>
      </trkpt>
      <trkpt lat="41.07005" lon="20.14204">
        <ele>629.32000732422</ele>
        <time>2024-09-26T07:09:50.000Z</time>
      </trkpt>
      <trkpt lat="41.07006" lon="20.14214">
        <ele>631.23999023438</ele>
        <time>2024-09-26T07:09:51.000Z</time>
      </trkpt>
      <trkpt lat="41.07006" lon="20.14219">
        <ele>632.20001220703</ele>
        <time>2024-09-26T07:09:52.000Z</time>
      </trkpt>
      <trkpt lat="41.07006" lon="20.14227">
        <ele>633.65002441406</ele>
        <time>2024-09-26T07:09:53.000Z</time>
      </trkpt>
      <trkpt lat="41.07005" lon="20.14237">
        <ele>635.09002685547</ele>
        <time>2024-09-26T07:09:54.000Z</time>
      </trkpt>
      <trkpt lat="41.07004" lon="20.14244">
        <ele>636.53002929688</ele>
        <time>2024-09-26T07:09:55.000Z</time>
      </trkpt>
      <trkpt lat="41.07002" lon="20.14253">
        <ele>637.96997070312</ele>
        <time>2024-09-26T07:09:56.000Z</time>
      </trkpt>
      <trkpt lat="41.07001" lon="20.14263">
        <ele>639.89001464844</ele>
        <time>2024-09-26T07:09:57.000Z</time>
      </trkpt>
      <trkpt lat="41.07" lon="20.14269">
        <ele>640.85998535156</ele>
        <time>2024-09-26T07:09:58.000Z</time>
      </trkpt>
      <trkpt lat="41.06998" lon="20.14277">
        <ele>642.78002929688</ele>
        <time>2024-09-26T07:09:59.000Z</time>
      </trkpt>
      <trkpt lat="41.06997" lon="20.14284">
        <ele>644.21997070312</ele>
        <time>2024-09-26T07:10:00.000Z</time>
      </trkpt>
      <trkpt lat="41.06996" lon="20.14291">
        <ele>645.65997314453</ele>
        <time>2024-09-26T07:10:01.000Z</time>
      </trkpt>
      <trkpt lat="41.06996" lon="20.14299">
        <ele>646.61999511719</ele>
        <time>2024-09-26T07:10:02.000Z</time>
      </trkpt>
      <trkpt lat="41.06998" lon="20.14308">
        <ele>648.07000732422</ele>
        <time>2024-09-26T07:10:03.000Z</time>
      </trkpt>
      <trkpt lat="41.06999" lon="20.14315">
        <ele>649.51000976562</ele>
        <time>2024-09-26T07:10:04.000Z</time>
      </trkpt>
      <trkpt lat="41.07002" lon="20.14321">
        <ele>650.46997070312</ele>
        <time>2024-09-26T07:10:05.000Z</time>
      </trkpt>
      <trkpt lat="41.07005" lon="20.14326">
        <ele>651.90997314453</ele>
        <time>2024-09-26T07:10:06.000Z</time>
      </trkpt>
      <trkpt lat="41.07009" lon="20.1433">
        <ele>652.86999511719</ele>
        <time>2024-09-26T07:10:07.000Z</time>
      </trkpt>
      <trkpt lat="41.07013" lon="20.14333">
        <ele>653.83001708984</ele>
        <time>2024-09-26T07:10:08.000Z</time>
      </trkpt>
      <trkpt lat="41.07018" lon="20.14338">
        <ele>655.28002929688</ele>
        <time>2024-09-26T07:10:09.000Z</time>
      </trkpt>
      <trkpt lat="41.07023" lon="20.14343">
        <ele>656.71997070312</ele>
        <time>2024-09-26T07:10:10.000Z</time>
      </trkpt>
      <trkpt lat="41.07028" lon="20.14348">
        <ele>658.15997314453</ele>
        <time>2024-09-26T07:10:11.000Z</time>
      </trkpt>
      <trkpt lat="41.07031" lon="20.14351">
        <ele>659.11999511719</ele>
        <time>2024-09-26T07:10:12.000Z</time>
      </trkpt>
      <trkpt lat="41.07035" lon="20.14353">
        <ele>660.55999755859</ele>
        <time>2024-09-26T07:10:13.000Z</time>
      </trkpt>
      <trkpt lat="41.0704" lon="20.14354">
        <ele>661.03997802734</ele>
        <time>2024-09-26T07:10:14.000Z</time>
      </trkpt>
      <trkpt lat="41.07044" lon="20.14352">
        <ele>661.52001953125</ele>
        <time>2024-09-26T07:10:15.000Z</time>
      </trkpt>
      <trkpt lat="41.07048" lon="20.14349">
        <ele>662.48999023438</ele>
        <time>2024-09-26T07:10:16.000Z</time>
      </trkpt>
      <trkpt lat="41.07051" lon="20.14344">
        <ele>662.96997070312</ele>
        <time>2024-09-26T07:10:17.000Z</time>
      </trkpt>
      <trkpt lat="41.07056" lon="20.14336">
        <ele>664.40997314453</ele>
        <time>2024-09-26T07:10:18.000Z</time>
      </trkpt>
      <trkpt lat="41.07058" lon="20.14334">
        <ele>664.89001464844</ele>
        <time>2024-09-26T07:10:19.000Z</time>
      </trkpt>
      <trkpt lat="41.07062" lon="20.1433">
        <ele>665.36999511719</ele>
        <time>2024-09-26T07:10:20.000Z</time>
      </trkpt>
      <trkpt lat="41.07067" lon="20.14328">
        <ele>666.33001708984</ele>
        <time>2024-09-26T07:10:21.000Z</time>
      </trkpt>
      <trkpt lat="41.07072" lon="20.14326">
        <ele>667.28997802734</ele>
        <time>2024-09-26T07:10:22.000Z</time>
      </trkpt>
      <trkpt lat="41.07078" lon="20.14326">
        <ele>668.25</ele>
        <time>2024-09-26T07:10:23.000Z</time>
      </trkpt>
      <trkpt lat="41.07083" lon="20.14328">
        <ele>668.72998046875</ele>
        <time>2024-09-26T07:10:24.000Z</time>
      </trkpt>
      <trkpt lat="41.07087" lon="20.14332">
        <ele>669.70001220703</ele>
        <time>2024-09-26T07:10:25.000Z</time>
      </trkpt>
      <trkpt lat="41.07092" lon="20.14337">
        <ele>670.65997314453</ele>
        <time>2024-09-26T07:10:26.000Z</time>
      </trkpt>
      <trkpt lat="41.07095" lon="20.14343">
        <ele>671.61999511719</ele>
        <time>2024-09-26T07:10:27.000Z</time>
      </trkpt>
      <trkpt lat="41.07098" lon="20.14351">
        <ele>672.58001708984</ele>
        <time>2024-09-26T07:10:28.000Z</time>
      </trkpt>
      <trkpt lat="41.071" lon="20.14358">
        <ele>673.53997802734</ele>
        <time>2024-09-26T07:10:29.000Z</time>
      </trkpt>
      <trkpt lat="41.07103" lon="20.14369">
        <ele>674.97998046875</ele>
        <time>2024-09-26T07:10:30.000Z</time>
      </trkpt>
      <trkpt lat="41.07103" lon="20.14375">
        <ele>675.46002197266</ele>
        <time>2024-09-26T07:10:31.000Z</time>
      </trkpt>
      <trkpt lat="41.07104" lon="20.14383">
        <ele>676.41998291016</ele>
        <time>2024-09-26T07:10:32.000Z</time>
      </trkpt>
      <trkpt lat="41.07103" lon="20.14391">
        <ele>677.39001464844</ele>
        <time>2024-09-26T07:10:33.000Z</time>
      </trkpt>
      <trkpt lat="41.07101" lon="20.14398">
        <ele>678.34997558594</ele>
        <time>2024-09-26T07:10:34.000Z</time>
      </trkpt>
      <trkpt lat="41.07098" lon="20.14408">
        <ele>679.78997802734</ele>
        <time>2024-09-26T07:10:35.000Z</time>
      </trkpt>
      <trkpt lat="41.07096" lon="20.14413">
        <ele>680.75</ele>
        <time>2024-09-26T07:10:36.000Z</time>
      </trkpt>
      <trkpt lat="41.07093" lon="20.14422">
        <ele>682.19000244141</ele>
        <time>2024-09-26T07:10:37.000Z</time>
      </trkpt>
      <trkpt lat="41.0709" lon="20.14435">
        <ele>684.11999511719</ele>
        <time>2024-09-26T07:10:38.000Z</time>
      </trkpt>
      <trkpt lat="41.07087" lon="20.14447">
        <ele>686.03997802734</ele>
        <time>2024-09-26T07:10:40.000Z</time>
      </trkpt>
      <trkpt lat="41.07085" lon="20.14456">
        <ele>687.47998046875</ele>
        <time>2024-09-26T07:10:41.000Z</time>
      </trkpt>
      <trkpt lat="41.07085" lon="20.14464">
        <ele>688.91998291016</ele>
        <time>2024-09-26T07:10:42.000Z</time>
      </trkpt>
      <trkpt lat="41.07086" lon="20.14472">
        <ele>689.88000488281</ele>
        <time>2024-09-26T07:10:43.000Z</time>
      </trkpt>
      <trkpt lat="41.0709" lon="20.14478">
        <ele>690.35998535156</ele>
        <time>2024-09-26T07:10:44.000Z</time>
      </trkpt>
      <trkpt lat="41.07096" lon="20.14484">
        <ele>691.33001708984</ele>
        <time>2024-09-26T07:10:45.000Z</time>
      </trkpt>
      <trkpt lat="41.07101" lon="20.14488">
        <ele>691.80999755859</ele>
        <time>2024-09-26T07:10:46.000Z</time>
      </trkpt>
      <trkpt lat="41.07105" lon="20.14491">
        <ele>692.28997802734</ele>
        <time>2024-09-26T07:10:47.000Z</time>
      </trkpt>
      <trkpt lat="41.07108" lon="20.14497">
        <ele>692.77001953125</ele>
        <time>2024-09-26T07:10:48.000Z</time>
      </trkpt>
      <trkpt lat="41.07109" lon="20.14503">
        <ele>693.72998046875</ele>
        <time>2024-09-26T07:10:49.000Z</time>
      </trkpt>
      <trkpt lat="41.07109" lon="20.14509">
        <ele>694.69000244141</ele>
        <time>2024-09-26T07:10:50.000Z</time>
      </trkpt>
      <trkpt lat="41.07106" lon="20.14515">
        <ele>695.16998291016</ele>
        <time>2024-09-26T07:10:51.000Z</time>
      </trkpt>
      <trkpt lat="41.07103" lon="20.14521">
        <ele>696.13000488281</ele>
        <time>2024-09-26T07:10:52.000Z</time>
      </trkpt>
      <trkpt lat="41.07099" lon="20.14526">
        <ele>696.60998535156</ele>
        <time>2024-09-26T07:10:53.000Z</time>
      </trkpt>
      <trkpt lat="41.07091" lon="20.14537">
        <ele>698.04998779297</ele>
        <time>2024-09-26T07:10:54.000Z</time>
      </trkpt>
      <trkpt lat="41.07066" lon="20.14567">
        <ele>700.94000244141</ele>
        <time>2024-09-26T07:35:25.000Z</time>
      </trkpt>
      <trkpt lat="41.0706" lon="20.14577">
        <ele>702.38000488281</ele>
        <time>2024-09-26T07:35:26.000Z</time>
      </trkpt>
      <trkpt lat="41.07054" lon="20.14583">
        <ele>703.82000732422</ele>
        <time>2024-09-26T07:35:27.000Z</time>
      </trkpt>
      <trkpt lat="41.0705" lon="20.14588">
        <ele>704.78002929688</ele>
        <time>2024-09-26T07:35:28.000Z</time>
      </trkpt>
      <trkpt lat="41.07043" lon="20.14594">
        <ele>706.22998046875</ele>
        <time>2024-09-26T07:35:29.000Z</time>
      </trkpt>
      <trkpt lat="41.0704" lon="20.14597">
        <ele>706.71002197266</ele>
        <time>2024-09-26T07:35:30.000Z</time>
      </trkpt>
      <trkpt lat="41.07036" lon="20.146">
        <ele>707.66998291016</ele>
        <time>2024-09-26T07:35:31.000Z</time>
      </trkpt>
      <trkpt lat="41.07031" lon="20.14601">
        <ele>708.15002441406</ele>
        <time>2024-09-26T07:35:32.000Z</time>
      </trkpt>
      <trkpt lat="41.07022" lon="20.14606">
        <ele>708.63000488281</ele>
        <time>2024-09-26T07:35:39.000Z</time>
      </trkpt>
      <trkpt lat="41.0702" lon="20.14605">
        <ele>704.78002929688</ele>
        <time>2024-09-26T07:56:15.000Z</time>
      </trkpt>
      <trkpt lat="41.07002" lon="20.1462">
        <ele>706.22998046875</ele>
        <time>2024-09-26T07:56:20.000Z</time>
      </trkpt>
      <trkpt lat="41.06999" lon="20.14622">
        <ele>706.71002197266</ele>
        <time>2024-09-26T07:56:21.000Z</time>
      </trkpt>
      <trkpt lat="41.0697" lon="20.14651">
        <ele>710.54998779297</ele>
        <time>2024-09-26T07:56:26.000Z</time>
      </trkpt>
      <trkpt lat="41.06966" lon="20.14656">
        <ele>711.03002929688</ele>
        <time>2024-09-26T07:56:27.000Z</time>
      </trkpt>
      <trkpt lat="41.06952" lon="20.14674">
        <ele>713.44000244141</ele>
        <time>2024-09-26T07:56:29.000Z</time>
      </trkpt>
      <trkpt lat="41.06947" lon="20.1468">
        <ele>714.40002441406</ele>
        <time>2024-09-26T07:56:30.000Z</time>
      </trkpt>
      <trkpt lat="41.06917" lon="20.14714">
        <ele>719.67999267578</ele>
        <time>2024-09-26T07:56:34.000Z</time>
      </trkpt>
      <trkpt lat="41.06913" lon="20.14719">
        <ele>720.65002441406</ele>
        <time>2024-09-26T07:56:35.000Z</time>
      </trkpt>
      <trkpt lat="41.06905" lon="20.14731">
        <ele>723.04998779297</ele>
        <time>2024-09-26T07:56:36.000Z</time>
      </trkpt>
      <trkpt lat="41.06902" lon="20.14735">
        <ele>723.53002929688</ele>
        <time>2024-09-26T07:56:37.000Z</time>
      </trkpt>
      <trkpt lat="41.06897" lon="20.1474">
        <ele>724.96997070312</ele>
        <time>2024-09-26T07:56:38.000Z</time>
      </trkpt>
      <trkpt lat="41.06891" lon="20.14743">
        <ele>725.92999267578</ele>
        <time>2024-09-26T07:56:39.000Z</time>
      </trkpt>
      <trkpt lat="41.06884" lon="20.14744">
        <ele>726.89001464844</ele>
        <time>2024-09-26T07:56:40.000Z</time>
      </trkpt>
      <trkpt lat="41.06863" lon="20.14742">
        <ele>729.29998779297</ele>
        <time>2024-09-26T07:56:42.000Z</time>
      </trkpt>
      <trkpt lat="41.06855" lon="20.14741">
        <ele>730.26000976562</ele>
        <time>2024-09-26T07:56:43.000Z</time>
      </trkpt>
      <trkpt lat="41.06848" lon="20.1474">
        <ele>730.73999023438</ele>
        <time>2024-09-26T07:56:44.000Z</time>
      </trkpt>
      <trkpt lat="41.06838" lon="20.14738">
        <ele>732.17999267578</ele>
        <time>2024-09-26T07:56:45.000Z</time>
      </trkpt>
      <trkpt lat="41.06831" lon="20.14737">
        <ele>733.14001464844</ele>
        <time>2024-09-26T07:56:46.000Z</time>
      </trkpt>
      <trkpt lat="41.06824" lon="20.14737">
        <ele>734.09997558594</ele>
        <time>2024-09-26T07:56:47.000Z</time>
      </trkpt>
      <trkpt lat="41.06815" lon="20.14738">
        <ele>735.07000732422</ele>
        <time>2024-09-26T07:56:48.000Z</time>
      </trkpt>
      <trkpt lat="41.0681" lon="20.14739">
        <ele>736.03002929688</ele>
        <time>2024-09-26T07:56:49.000Z</time>
      </trkpt>
      <trkpt lat="41.06803" lon="20.14742">
        <ele>736.51000976562</ele>
        <time>2024-09-26T07:56:50.000Z</time>
      </trkpt>
      <trkpt lat="41.06794" lon="20.14748">
        <ele>737.95001220703</ele>
        <time>2024-09-26T07:56:51.000Z</time>
      </trkpt>
      <trkpt lat="41.06778" lon="20.14761">
        <ele>739.86999511719</ele>
        <time>2024-09-26T07:56:53.000Z</time>
      </trkpt>
      <trkpt lat="41.06758" lon="20.14776">
        <ele>742.76000976562</ele>
        <time>2024-09-26T07:56:55.000Z</time>
      </trkpt>
      <trkpt lat="41.06757" lon="20.14777">
        <ele>742.76000976562</ele>
        <time>2024-09-26T07:56:56.000Z</time>
      </trkpt>
      <trkpt lat="41.06742" lon="20.14784">
        <ele>744.67999267578</ele>
        <time>2024-09-26T07:56:57.000Z</time>
      </trkpt>
      <trkpt lat="41.06728" lon="20.1479">
        <ele>747.55999755859</ele>
        <time>2024-09-26T07:56:59.000Z</time>
      </trkpt>
      <trkpt lat="41.06713" lon="20.14798">
        <ele>750.45001220703</ele>
        <time>2024-09-26T07:57:01.000Z</time>
      </trkpt>
      <trkpt lat="41.0671" lon="20.148">
        <ele>751.40997314453</ele>
        <time>2024-09-26T07:57:02.000Z</time>
      </trkpt>
      <trkpt lat="41.06704" lon="20.14804">
        <ele>752.84997558594</ele>
        <time>2024-09-26T07:57:03.000Z</time>
      </trkpt>
      <trkpt lat="41.06698" lon="20.14807">
        <ele>754.28997802734</ele>
        <time>2024-09-26T07:57:04.000Z</time>
      </trkpt>
      <trkpt lat="41.06691" lon="20.14808">
        <ele>755.72998046875</ele>
        <time>2024-09-26T07:57:05.000Z</time>
      </trkpt>
      <trkpt lat="41.06684" lon="20.14809">
        <ele>757.17999267578</ele>
        <time>2024-09-26T07:57:06.000Z</time>
      </trkpt>
      <trkpt lat="41.06677" lon="20.14811">
        <ele>757.65997314453</ele>
        <time>2024-09-26T07:57:07.000Z</time>
      </trkpt>
      <trkpt lat="41.06672" lon="20.14813">
        <ele>758.14001464844</ele>
        <time>2024-09-26T07:57:08.000Z</time>
      </trkpt>
      <trkpt lat="41.06665" lon="20.14817">
        <ele>759.09997558594</ele>
        <time>2024-09-26T07:57:09.000Z</time>
      </trkpt>
      <trkpt lat="41.06638" lon="20.14839">
        <ele>761.5</ele>
        <time>2024-09-26T07:57:12.000Z</time>
      </trkpt>
      <trkpt lat="41.06615" lon="20.14856">
        <ele>762.46002197266</ele>
        <time>2024-09-26T07:57:15.000Z</time>
      </trkpt>
      <trkpt lat="41.06598" lon="20.14867">
        <ele>763.41998291016</ele>
        <time>2024-09-26T07:57:17.000Z</time>
      </trkpt>
      <trkpt lat="41.06594" lon="20.14869">
        <ele>763.90002441406</ele>
        <time>2024-09-26T07:57:18.000Z</time>
      </trkpt>
      <trkpt lat="41.06586" lon="20.14873">
        <ele>764.39001464844</ele>
        <time>2024-09-26T07:57:19.000Z</time>
      </trkpt>
      <trkpt lat="41.06584" lon="20.14874">
        <ele>764.39001464844</ele>
        <time>2024-09-26T07:57:20.000Z</time>
      </trkpt>
      <trkpt lat="41.06574" lon="20.14872">
        <ele>765.83001708984</ele>
        <time>2024-09-26T07:57:22.000Z</time>
      </trkpt>
      <trkpt lat="41.06573" lon="20.14871">
        <ele>765.83001708984</ele>
        <time>2024-09-26T07:57:23.000Z</time>
      </trkpt>
      <trkpt lat="41.0657" lon="20.14867">
        <ele>765.83001708984</ele>
        <time>2024-09-26T07:57:24.000Z</time>
      </trkpt>
      <trkpt lat="41.06566" lon="20.1486">
        <ele>766.30999755859</ele>
        <time>2024-09-26T07:57:25.000Z</time>
      </trkpt>
      <trkpt lat="41.06564" lon="20.14857">
        <ele>766.30999755859</ele>
        <time>2024-09-26T07:57:26.000Z</time>
      </trkpt>
      <trkpt lat="41.06558" lon="20.1485">
        <ele>766.78997802734</ele>
        <time>2024-09-26T07:57:27.000Z</time>
      </trkpt>
      <trkpt lat="41.06557" lon="20.14849">
        <ele>766.78997802734</ele>
        <time>2024-09-26T07:57:28.000Z</time>
      </trkpt>
      <trkpt lat="41.06551" lon="20.14842">
        <ele>766.78997802734</ele>
        <time>2024-09-26T07:57:29.000Z</time>
      </trkpt>
      <trkpt lat="41.0655" lon="20.1484">
        <ele>766.78997802734</ele>
        <time>2024-09-26T07:57:30.000Z</time>
      </trkpt>
      <trkpt lat="41.06538" lon="20.14823">
        <ele>767.27001953125</ele>
        <time>2024-09-26T07:57:34.000Z</time>
      </trkpt>
      <trkpt lat="41.06537" lon="20.14823">
        <ele>767.27001953125</ele>
        <time>2024-09-26T07:57:35.000Z</time>
      </trkpt>
      <trkpt lat="41.06534" lon="20.1482">
        <ele>767.27001953125</ele>
        <time>2024-09-26T07:57:36.000Z</time>
      </trkpt>
      <trkpt lat="41.0653" lon="20.14817">
        <ele>767.75</ele>
        <time>2024-09-26T07:57:37.000Z</time>
      </trkpt>
      <trkpt lat="41.06524" lon="20.14815">
        <ele>767.75</ele>
        <time>2024-09-26T07:57:38.000Z</time>
      </trkpt>
      <trkpt lat="41.06519" lon="20.14814">
        <ele>768.22998046875</ele>
        <time>2024-09-26T07:57:39.000Z</time>
      </trkpt>
      <trkpt lat="41.06511" lon="20.14814">
        <ele>768.22998046875</ele>
        <time>2024-09-26T07:57:40.000Z</time>
      </trkpt>
      <trkpt lat="41.06503" lon="20.14815">
        <ele>768.71002197266</ele>
        <time>2024-09-26T07:57:41.000Z</time>
      </trkpt>
      <trkpt lat="41.06491" lon="20.14817">
        <ele>769.19000244141</ele>
        <time>2024-09-26T07:57:42.000Z</time>
      </trkpt>
      <trkpt lat="41.06488" lon="20.14818">
        <ele>769.19000244141</ele>
        <time>2024-09-26T07:57:43.000Z</time>
      </trkpt>
      <trkpt lat="41.0648" lon="20.14818">
        <ele>769.19000244141</ele>
        <time>2024-09-26T07:57:44.000Z</time>
      </trkpt>
      <trkpt lat="41.0647" lon="20.14815">
        <ele>769.19000244141</ele>
        <time>2024-09-26T07:57:45.000Z</time>
      </trkpt>
      <trkpt lat="41.06464" lon="20.14813">
        <ele>768.71002197266</ele>
        <time>2024-09-26T07:57:46.000Z</time>
      </trkpt>
      <trkpt lat="41.06455" lon="20.14809">
        <ele>768.71002197266</ele>
        <time>2024-09-26T07:57:47.000Z</time>
      </trkpt>
      <trkpt lat="41.06448" lon="20.14805">
        <ele>768.71002197266</ele>
        <time>2024-09-26T07:57:48.000Z</time>
      </trkpt>
      <trkpt lat="41.06441" lon="20.14801">
        <ele>768.71002197266</ele>
        <time>2024-09-26T07:57:49.000Z</time>
      </trkpt>
      <trkpt lat="41.06437" lon="20.14798">
        <ele>768.22998046875</ele>
        <time>2024-09-26T07:57:50.000Z</time>
      </trkpt>
      <trkpt lat="41.06433" lon="20.14795">
        <ele>768.22998046875</ele>
        <time>2024-09-26T07:57:51.000Z</time>
      </trkpt>
      <trkpt lat="41.06429" lon="20.14791">
        <ele>768.22998046875</ele>
        <time>2024-09-26T07:57:52.000Z</time>
      </trkpt>
      <trkpt lat="41.06425" lon="20.14788">
        <ele>768.22998046875</ele>
        <time>2024-09-26T07:57:53.000Z</time>
      </trkpt>
      <trkpt lat="41.06421" lon="20.14784">
        <ele>768.22998046875</ele>
        <time>2024-09-26T07:57:54.000Z</time>
      </trkpt>
      <trkpt lat="41.06416" lon="20.14779">
        <ele>768.22998046875</ele>
        <time>2024-09-26T07:57:55.000Z</time>
      </trkpt>
      <trkpt lat="41.06412" lon="20.14774">
        <ele>767.75</ele>
        <time>2024-09-26T07:57:56.000Z</time>
      </trkpt>
      <trkpt lat="41.06407" lon="20.14768">
        <ele>767.75</ele>
        <time>2024-09-26T07:57:57.000Z</time>
      </trkpt>
      <trkpt lat="41.06404" lon="20.1476">
        <ele>767.27001953125</ele>
        <time>2024-09-26T07:57:58.000Z</time>
      </trkpt>
      <trkpt lat="41.06401" lon="20.14753">
        <ele>767.27001953125</ele>
        <time>2024-09-26T07:57:59.000Z</time>
      </trkpt>
      <trkpt lat="41.06399" lon="20.14747">
        <ele>767.27001953125</ele>
        <time>2024-09-26T07:58:00.000Z</time>
      </trkpt>
      <trkpt lat="41.06396" lon="20.14742">
        <ele>766.78997802734</ele>
        <time>2024-09-26T07:58:01.000Z</time>
      </trkpt>
      <trkpt lat="41.06393" lon="20.14738">
        <ele>766.78997802734</ele>
        <time>2024-09-26T07:58:02.000Z</time>
      </trkpt>
      <trkpt lat="41.06389" lon="20.14736">
        <ele>766.30999755859</ele>
        <time>2024-09-26T07:58:03.000Z</time>
      </trkpt>
      <trkpt lat="41.06385" lon="20.14736">
        <ele>766.30999755859</ele>
        <time>2024-09-26T07:58:04.000Z</time>
      </trkpt>
      <trkpt lat="41.06378" lon="20.14739">
        <ele>765.83001708984</ele>
        <time>2024-09-26T07:58:05.000Z</time>
      </trkpt>
      <trkpt lat="41.06378" lon="20.1474">
        <ele>765.83001708984</ele>
        <time>2024-09-26T07:58:06.000Z</time>
      </trkpt>
      <trkpt lat="41.06375" lon="20.14744">
        <ele>765.34997558594</ele>
        <time>2024-09-26T07:58:07.000Z</time>
      </trkpt>
      <trkpt lat="41.06372" lon="20.14749">
        <ele>764.86999511719</ele>
        <time>2024-09-26T07:58:08.000Z</time>
      </trkpt>
      <trkpt lat="41.06369" lon="20.14758">
        <ele>764.86999511719</ele>
        <time>2024-09-26T07:58:09.000Z</time>
      </trkpt>
      <trkpt lat="41.06367" lon="20.14765">
        <ele>764.39001464844</ele>
        <time>2024-09-26T07:58:10.000Z</time>
      </trkpt>
      <trkpt lat="41.06366" lon="20.14768">
        <ele>763.90002441406</ele>
        <time>2024-09-26T07:58:11.000Z</time>
      </trkpt>
      <trkpt lat="41.06364" lon="20.14777">
        <ele>763.41998291016</ele>
        <time>2024-09-26T07:58:12.000Z</time>
      </trkpt>
      <trkpt lat="41.06362" lon="20.14781">
        <ele>763.41998291016</ele>
        <time>2024-09-26T07:58:13.000Z</time>
      </trkpt>
      <trkpt lat="41.0636" lon="20.1479">
        <ele>762.94000244141</ele>
        <time>2024-09-26T07:58:14.000Z</time>
      </trkpt>
      <trkpt lat="41.06356" lon="20.1481">
        <ele>761.97998046875</ele>
        <time>2024-09-26T07:58:17.000Z</time>
      </trkpt>
      <trkpt lat="41.06352" lon="20.14822">
        <ele>761.5</ele>
        <time>2024-09-26T07:58:18.000Z</time>
      </trkpt>
      <trkpt lat="41.0635" lon="20.14831">
        <ele>761.02001953125</ele>
        <time>2024-09-26T07:58:19.000Z</time>
      </trkpt>
      <trkpt lat="41.06346" lon="20.14839">
        <ele>761.02001953125</ele>
        <time>2024-09-26T07:58:20.000Z</time>
      </trkpt>
      <trkpt lat="41.06341" lon="20.14851">
        <ele>761.02001953125</ele>
        <time>2024-09-26T07:58:21.000Z</time>
      </trkpt>
      <trkpt lat="41.06325" lon="20.14883">
        <ele>761.97998046875</ele>
        <time>2024-09-26T07:58:23.000Z</time>
      </trkpt>
      <trkpt lat="41.063" lon="20.14946">
        <ele>767.75</ele>
        <time>2024-09-26T07:58:28.000Z</time>
      </trkpt>
      <trkpt lat="41.06297" lon="20.14953">
        <ele>768.71002197266</ele>
        <time>2024-09-26T07:58:29.000Z</time>
      </trkpt>
      <trkpt lat="41.06293" lon="20.14962">
        <ele>769.66998291016</ele>
        <time>2024-09-26T07:58:30.000Z</time>
      </trkpt>
      <trkpt lat="41.06284" lon="20.14977">
        <ele>771.10998535156</ele>
        <time>2024-09-26T07:58:31.000Z</time>
      </trkpt>
      <trkpt lat="41.06277" lon="20.14988">
        <ele>772.08001708984</ele>
        <time>2024-09-26T07:58:32.000Z</time>
      </trkpt>
      <trkpt lat="41.06245" lon="20.15034">
        <ele>774</ele>
        <time>2024-09-26T07:58:36.000Z</time>
      </trkpt>
      <trkpt lat="41.06238" lon="20.15043">
        <ele>773.52001953125</ele>
        <time>2024-09-26T07:58:37.000Z</time>
      </trkpt>
      <trkpt lat="41.06232" lon="20.15051">
        <ele>773.03997802734</ele>
        <time>2024-09-26T07:58:38.000Z</time>
      </trkpt>
      <trkpt lat="41.06225" lon="20.15059">
        <ele>772.55999755859</ele>
        <time>2024-09-26T07:58:39.000Z</time>
      </trkpt>
      <trkpt lat="41.06217" lon="20.15065">
        <ele>771.59997558594</ele>
        <time>2024-09-26T07:58:40.000Z</time>
      </trkpt>
      <trkpt lat="41.06207" lon="20.15071">
        <ele>771.10998535156</ele>
        <time>2024-09-26T07:58:41.000Z</time>
      </trkpt>
      <trkpt lat="41.06184" lon="20.1508">
        <ele>770.15002441406</ele>
        <time>2024-09-26T07:58:43.000Z</time>
      </trkpt>
      <trkpt lat="41.06171" lon="20.15087">
        <ele>770.15002441406</ele>
        <time>2024-09-26T07:58:44.000Z</time>
      </trkpt>
      <trkpt lat="41.06162" lon="20.15094">
        <ele>770.15002441406</ele>
        <time>2024-09-26T07:58:45.000Z</time>
      </trkpt>
      <trkpt lat="41.06153" lon="20.15103">
        <ele>770.63000488281</ele>
        <time>2024-09-26T07:58:46.000Z</time>
      </trkpt>
      <trkpt lat="41.06146" lon="20.15112">
        <ele>770.63000488281</ele>
        <time>2024-09-26T07:58:47.000Z</time>
      </trkpt>
      <trkpt lat="41.06137" lon="20.15125">
        <ele>771.10998535156</ele>
        <time>2024-09-26T07:58:48.000Z</time>
      </trkpt>
      <trkpt lat="41.06132" lon="20.15134">
        <ele>772.08001708984</ele>
        <time>2024-09-26T07:58:49.000Z</time>
      </trkpt>
      <trkpt lat="41.06125" lon="20.15149">
        <ele>772.55999755859</ele>
        <time>2024-09-26T07:58:50.000Z</time>
      </trkpt>
      <trkpt lat="41.06121" lon="20.15156">
        <ele>772.55999755859</ele>
        <time>2024-09-26T07:58:51.000Z</time>
      </trkpt>
      <trkpt lat="41.06116" lon="20.15164">
        <ele>773.03997802734</ele>
        <time>2024-09-26T07:58:52.000Z</time>
      </trkpt>
      <trkpt lat="41.06111" lon="20.15169">
        <ele>773.03997802734</ele>
        <time>2024-09-26T07:58:53.000Z</time>
      </trkpt>
      <trkpt lat="41.06106" lon="20.1517">
        <ele>773.03997802734</ele>
        <time>2024-09-26T07:58:54.000Z</time>
      </trkpt>
      <trkpt lat="41.061" lon="20.15167">
        <ele>773.03997802734</ele>
        <time>2024-09-26T07:58:55.000Z</time>
      </trkpt>
      <trkpt lat="41.06095" lon="20.15162">
        <ele>772.55999755859</ele>
        <time>2024-09-26T07:58:56.000Z</time>
      </trkpt>
      <trkpt lat="41.06081" lon="20.1514">
        <ele>773.03997802734</ele>
        <time>2024-09-26T07:58:58.000Z</time>
      </trkpt>
      <trkpt lat="41.06078" lon="20.15136">
        <ele>773.03997802734</ele>
        <time>2024-09-26T07:58:59.000Z</time>
      </trkpt>
      <trkpt lat="41.06071" lon="20.15126">
        <ele>772.55999755859</ele>
        <time>2024-09-26T07:59:00.000Z</time>
      </trkpt>
      <trkpt lat="41.06065" lon="20.15112">
        <ele>772.08001708984</ele>
        <time>2024-09-26T07:59:01.000Z</time>
      </trkpt>
      <trkpt lat="41.06053" lon="20.15081">
        <ele>770.63000488281</ele>
        <time>2024-09-26T07:59:03.000Z</time>
      </trkpt>
      <trkpt lat="41.06037" lon="20.15034">
        <ele>770.15002441406</ele>
        <time>2024-09-26T07:59:07.000Z</time>
      </trkpt>
      <trkpt lat="41.06031" lon="20.15019">
        <ele>769.66998291016</ele>
        <time>2024-09-26T07:59:08.000Z</time>
      </trkpt>
      <trkpt lat="41.0603" lon="20.15017">
        <ele>769.66998291016</ele>
        <time>2024-09-26T07:59:09.000Z</time>
      </trkpt>
      <trkpt lat="41.06025" lon="20.15006">
        <ele>769.66998291016</ele>
        <time>2024-09-26T07:59:10.000Z</time>
      </trkpt>
      <trkpt lat="41.06018" lon="20.14996">
        <ele>769.19000244141</ele>
        <time>2024-09-26T07:59:11.000Z</time>
      </trkpt>
      <trkpt lat="41.06013" lon="20.14991">
        <ele>769.19000244141</ele>
        <time>2024-09-26T07:59:12.000Z</time>
      </trkpt>
      <trkpt lat="41.06007" lon="20.14988">
        <ele>769.19000244141</ele>
        <time>2024-09-26T07:59:13.000Z</time>
      </trkpt>
      <trkpt lat="41.06" lon="20.14986">
        <ele>768.71002197266</ele>
        <time>2024-09-26T07:59:14.000Z</time>
      </trkpt>
      <trkpt lat="41.05991" lon="20.14987">
        <ele>768.71002197266</ele>
        <time>2024-09-26T07:59:15.000Z</time>
      </trkpt>
      <trkpt lat="41.05981" lon="20.1499">
        <ele>768.22998046875</ele>
        <time>2024-09-26T07:59:16.000Z</time>
      </trkpt>
      <trkpt lat="41.05974" lon="20.14991">
        <ele>768.22998046875</ele>
        <time>2024-09-26T07:59:17.000Z</time>
      </trkpt>
      <trkpt lat="41.05965" lon="20.14989">
        <ele>768.22998046875</ele>
        <time>2024-09-26T07:59:18.000Z</time>
      </trkpt>
      <trkpt lat="41.05956" lon="20.14983">
        <ele>767.75</ele>
        <time>2024-09-26T07:59:19.000Z</time>
      </trkpt>
      <trkpt lat="41.05945" lon="20.1497">
        <ele>767.27001953125</ele>
        <time>2024-09-26T07:59:20.000Z</time>
      </trkpt>
      <trkpt lat="41.05927" lon="20.14946">
        <ele>766.30999755859</ele>
        <time>2024-09-26T07:59:22.000Z</time>
      </trkpt>
      <trkpt lat="41.0592" lon="20.14937">
        <ele>765.83001708984</ele>
        <time>2024-09-26T07:59:23.000Z</time>
      </trkpt>
      <trkpt lat="41.05917" lon="20.14934">
        <ele>765.83001708984</ele>
        <time>2024-09-26T07:59:24.000Z</time>
      </trkpt>
      <trkpt lat="41.05911" lon="20.14928">
        <ele>765.34997558594</ele>
        <time>2024-09-26T07:59:25.000Z</time>
      </trkpt>
      <trkpt lat="41.05903" lon="20.14927">
        <ele>765.34997558594</ele>
        <time>2024-09-26T07:59:26.000Z</time>
      </trkpt>
      <trkpt lat="41.05895" lon="20.14928">
        <ele>765.34997558594</ele>
        <time>2024-09-26T07:59:27.000Z</time>
      </trkpt>
      <trkpt lat="41.05883" lon="20.14933">
        <ele>764.86999511719</ele>
        <time>2024-09-26T07:59:28.000Z</time>
      </trkpt>
      <trkpt lat="41.05878" lon="20.14935">
        <ele>764.39001464844</ele>
        <time>2024-09-26T07:59:29.000Z</time>
      </trkpt>
      <trkpt lat="41.05868" lon="20.14936">
        <ele>763.90002441406</ele>
        <time>2024-09-26T07:59:30.000Z</time>
      </trkpt>
      <trkpt lat="41.05857" lon="20.14934">
        <ele>763.41998291016</ele>
        <time>2024-09-26T07:59:31.000Z</time>
      </trkpt>
      <trkpt lat="41.05848" lon="20.14932">
        <ele>762.94000244141</ele>
        <time>2024-09-26T07:59:32.000Z</time>
      </trkpt>
      <trkpt lat="41.05839" lon="20.14927">
        <ele>762.46002197266</ele>
        <time>2024-09-26T07:59:33.000Z</time>
      </trkpt>
      <trkpt lat="41.05831" lon="20.1492">
        <ele>762.46002197266</ele>
        <time>2024-09-26T07:59:34.000Z</time>
      </trkpt>
      <trkpt lat="41.05825" lon="20.14911">
        <ele>761.97998046875</ele>
        <time>2024-09-26T07:59:35.000Z</time>
      </trkpt>
      <trkpt lat="41.05787" lon="20.1484">
        <ele>760.53997802734</ele>
        <time>2024-09-26T07:59:40.000Z</time>
      </trkpt>
      <trkpt lat="41.05786" lon="20.14838">
        <ele>760.53997802734</ele>
        <time>2024-09-26T07:59:41.000Z</time>
      </trkpt>
      <trkpt lat="41.05779" lon="20.14829">
        <ele>760.53997802734</ele>
        <time>2024-09-26T07:59:42.000Z</time>
      </trkpt>
      <trkpt lat="41.05772" lon="20.14824">
        <ele>760.05999755859</ele>
        <time>2024-09-26T07:59:43.000Z</time>
      </trkpt>
      <trkpt lat="41.05764" lon="20.14821">
        <ele>760.53997802734</ele>
        <time>2024-09-26T07:59:44.000Z</time>
      </trkpt>
      <trkpt lat="41.05757" lon="20.14822">
        <ele>760.53997802734</ele>
        <time>2024-09-26T07:59:45.000Z</time>
      </trkpt>
      <trkpt lat="41.05749" lon="20.14826">
        <ele>760.05999755859</ele>
        <time>2024-09-26T07:59:46.000Z</time>
      </trkpt>
      <trkpt lat="41.05741" lon="20.14833">
        <ele>759.58001708984</ele>
        <time>2024-09-26T07:59:47.000Z</time>
      </trkpt>
      <trkpt lat="41.05731" lon="20.14841">
        <ele>759.58001708984</ele>
        <time>2024-09-26T07:59:48.000Z</time>
      </trkpt>
      <trkpt lat="41.05722" lon="20.14847">
        <ele>759.09997558594</ele>
        <time>2024-09-26T07:59:49.000Z</time>
      </trkpt>
      <trkpt lat="41.05716" lon="20.14851">
        <ele>759.09997558594</ele>
        <time>2024-09-26T07:59:50.000Z</time>
      </trkpt>
      <trkpt lat="41.05704" lon="20.14858">
        <ele>759.09997558594</ele>
        <time>2024-09-26T07:59:51.000Z</time>
      </trkpt>
      <trkpt lat="41.05692" lon="20.14862">
        <ele>758.61999511719</ele>
        <time>2024-09-26T07:59:52.000Z</time>
      </trkpt>
      <trkpt lat="41.05676" lon="20.14865">
        <ele>758.14001464844</ele>
        <time>2024-09-26T07:59:53.000Z</time>
      </trkpt>
      <trkpt lat="41.05662" lon="20.14867">
        <ele>758.14001464844</ele>
        <time>2024-09-26T07:59:54.000Z</time>
      </trkpt>
      <trkpt lat="41.05649" lon="20.14871">
        <ele>758.14001464844</ele>
        <time>2024-09-26T07:59:55.000Z</time>
      </trkpt>
      <trkpt lat="41.05647" lon="20.14872">
        <ele>758.14001464844</ele>
        <time>2024-09-26T07:59:56.000Z</time>
      </trkpt>
      <trkpt lat="41.05634" lon="20.14877">
        <ele>757.65997314453</ele>
        <time>2024-09-26T07:59:57.000Z</time>
      </trkpt>
      <trkpt lat="41.05624" lon="20.14883">
        <ele>757.65997314453</ele>
        <time>2024-09-26T07:59:58.000Z</time>
      </trkpt>
      <trkpt lat="41.05615" lon="20.14889">
        <ele>757.65997314453</ele>
        <time>2024-09-26T07:59:59.000Z</time>
      </trkpt>
      <trkpt lat="41.05606" lon="20.14897">
        <ele>757.65997314453</ele>
        <time>2024-09-26T08:00:00.000Z</time>
      </trkpt>
      <trkpt lat="41.05597" lon="20.14907">
        <ele>758.14001464844</ele>
        <time>2024-09-26T08:00:01.000Z</time>
      </trkpt>
      <trkpt lat="41.05588" lon="20.1492">
        <ele>757.65997314453</ele>
        <time>2024-09-26T08:00:02.000Z</time>
      </trkpt>
      <trkpt lat="41.05583" lon="20.14926">
        <ele>757.17999267578</ele>
        <time>2024-09-26T08:00:03.000Z</time>
      </trkpt>
      <trkpt lat="41.05574" lon="20.14934">
        <ele>756.69000244141</ele>
        <time>2024-09-26T08:00:04.000Z</time>
      </trkpt>
      <trkpt lat="41.05564" lon="20.1494">
        <ele>756.21002197266</ele>
        <time>2024-09-26T08:00:05.000Z</time>
      </trkpt>
      <trkpt lat="41.05557" lon="20.14944">
        <ele>755.72998046875</ele>
        <time>2024-09-26T08:00:06.000Z</time>
      </trkpt>
      <trkpt lat="41.0555" lon="20.14948">
        <ele>755.25</ele>
        <time>2024-09-26T08:00:07.000Z</time>
      </trkpt>
      <trkpt lat="41.05545" lon="20.14955">
        <ele>754.77001953125</ele>
        <time>2024-09-26T08:00:08.000Z</time>
      </trkpt>
      <trkpt lat="41.05543" lon="20.14964">
        <ele>754.28997802734</ele>
        <time>2024-09-26T08:00:09.000Z</time>
      </trkpt>
      <trkpt lat="41.05543" lon="20.14975">
        <ele>753.33001708984</ele>
        <time>2024-09-26T08:00:10.000Z</time>
      </trkpt>
      <trkpt lat="41.05546" lon="20.14987">
        <ele>752.36999511719</ele>
        <time>2024-09-26T08:00:11.000Z</time>
      </trkpt>
      <trkpt lat="41.05551" lon="20.14998">
        <ele>751.40997314453</ele>
        <time>2024-09-26T08:00:12.000Z</time>
      </trkpt>
      <trkpt lat="41.05558" lon="20.1501">
        <ele>750.45001220703</ele>
        <time>2024-09-26T08:00:13.000Z</time>
      </trkpt>
      <trkpt lat="41.05563" lon="20.15023">
        <ele>749.48999023438</ele>
        <time>2024-09-26T08:00:14.000Z</time>
      </trkpt>
      <trkpt lat="41.05567" lon="20.15037">
        <ele>748.52001953125</ele>
        <time>2024-09-26T08:00:15.000Z</time>
      </trkpt>
      <trkpt lat="41.05569" lon="20.15052">
        <ele>747.55999755859</ele>
        <time>2024-09-26T08:00:16.000Z</time>
      </trkpt>
      <trkpt lat="41.0557" lon="20.15066">
        <ele>746.59997558594</ele>
        <time>2024-09-26T08:00:17.000Z</time>
      </trkpt>
      <trkpt lat="41.05569" lon="20.1508">
        <ele>744.67999267578</ele>
        <time>2024-09-26T08:00:18.000Z</time>
      </trkpt>
      <trkpt lat="41.05565" lon="20.15104">
        <ele>743.23999023438</ele>
        <time>2024-09-26T08:00:20.000Z</time>
      </trkpt>
      <trkpt lat="41.05564" lon="20.15114">
        <ele>743.23999023438</ele>
        <time>2024-09-26T08:00:21.000Z</time>
      </trkpt>
      <trkpt lat="41.05564" lon="20.15124">
        <ele>743.71997070312</ele>
        <time>2024-09-26T08:00:22.000Z</time>
      </trkpt>
      <trkpt lat="41.05564" lon="20.15136">
        <ele>744.67999267578</ele>
        <time>2024-09-26T08:00:23.000Z</time>
      </trkpt>
      <trkpt lat="41.05564" lon="20.15148">
        <ele>746.11999511719</ele>
        <time>2024-09-26T08:00:24.000Z</time>
      </trkpt>
      <trkpt lat="41.05564" lon="20.15157">
        <ele>746.59997558594</ele>
        <time>2024-09-26T08:00:25.000Z</time>
      </trkpt>
      <trkpt lat="41.05566" lon="20.1517">
        <ele>747.55999755859</ele>
        <time>2024-09-26T08:00:26.000Z</time>
      </trkpt>
      <trkpt lat="41.05569" lon="20.15181">
        <ele>748.52001953125</ele>
        <time>2024-09-26T08:00:27.000Z</time>
      </trkpt>
      <trkpt lat="41.05579" lon="20.15219">
        <ele>751.89001464844</ele>
        <time>2024-09-26T08:00:29.000Z</time>
      </trkpt>
      <trkpt lat="41.0558" lon="20.15225">
        <ele>751.89001464844</ele>
        <time>2024-09-26T08:00:30.000Z</time>
      </trkpt>
      <trkpt lat="41.05582" lon="20.15236">
        <ele>753.33001708984</ele>
        <time>2024-09-26T08:00:31.000Z</time>
      </trkpt>
      <trkpt lat="41.05583" lon="20.15249">
        <ele>754.28997802734</ele>
        <time>2024-09-26T08:00:32.000Z</time>
      </trkpt>
      <trkpt lat="41.05584" lon="20.15263">
        <ele>755.72998046875</ele>
        <time>2024-09-26T08:00:33.000Z</time>
      </trkpt>
      <trkpt lat="41.05576" lon="20.15343">
        <ele>761.97998046875</ele>
        <time>2024-09-26T08:00:39.000Z</time>
      </trkpt>
      <trkpt lat="41.05574" lon="20.15354">
        <ele>762.94000244141</ele>
        <time>2024-09-26T08:00:40.000Z</time>
      </trkpt>
      <trkpt lat="41.05573" lon="20.15358">
        <ele>763.41998291016</ele>
        <time>2024-09-26T08:00:41.000Z</time>
      </trkpt>
      <trkpt lat="41.05567" lon="20.15378">
        <ele>764.39001464844</ele>
        <time>2024-09-26T08:00:42.000Z</time>
      </trkpt>
      <trkpt lat="41.05566" lon="20.1538">
        <ele>764.39001464844</ele>
        <time>2024-09-26T08:00:43.000Z</time>
      </trkpt>
      <trkpt lat="41.05563" lon="20.15394">
        <ele>764.86999511719</ele>
        <time>2024-09-26T08:00:44.000Z</time>
      </trkpt>
      <trkpt lat="41.05553" lon="20.15453">
        <ele>765.83001708984</ele>
        <time>2024-09-26T08:00:48.000Z</time>
      </trkpt>
      <trkpt lat="41.05553" lon="20.15455">
        <ele>765.83001708984</ele>
        <time>2024-09-26T08:00:49.000Z</time>
      </trkpt>
      <trkpt lat="41.05548" lon="20.15464">
        <ele>765.83001708984</ele>
        <time>2024-09-26T08:00:50.000Z</time>
      </trkpt>
      <trkpt lat="41.05541" lon="20.15471">
        <ele>765.83001708984</ele>
        <time>2024-09-26T08:00:51.000Z</time>
      </trkpt>
      <trkpt lat="41.05534" lon="20.15471">
        <ele>765.34997558594</ele>
        <time>2024-09-26T08:00:52.000Z</time>
      </trkpt>
      <trkpt lat="41.05527" lon="20.15468">
        <ele>765.34997558594</ele>
        <time>2024-09-26T08:00:53.000Z</time>
      </trkpt>
      <trkpt lat="41.05519" lon="20.15462">
        <ele>765.34997558594</ele>
        <time>2024-09-26T08:00:54.000Z</time>
      </trkpt>
      <trkpt lat="41.0551" lon="20.15456">
        <ele>765.83001708984</ele>
        <time>2024-09-26T08:00:55.000Z</time>
      </trkpt>
      <trkpt lat="41.05499" lon="20.15453">
        <ele>765.83001708984</ele>
        <time>2024-09-26T08:00:56.000Z</time>
      </trkpt>
      <trkpt lat="41.0549" lon="20.15452">
        <ele>766.30999755859</ele>
        <time>2024-09-26T08:00:57.000Z</time>
      </trkpt>
      <trkpt lat="41.05481" lon="20.15455">
        <ele>766.78997802734</ele>
        <time>2024-09-26T08:00:58.000Z</time>
      </trkpt>
      <trkpt lat="41.05474" lon="20.15462">
        <ele>767.27001953125</ele>
        <time>2024-09-26T08:00:59.000Z</time>
      </trkpt>
      <trkpt lat="41.05467" lon="20.15472">
        <ele>768.22998046875</ele>
        <time>2024-09-26T08:01:00.000Z</time>
      </trkpt>
      <trkpt lat="41.05458" lon="20.15489">
        <ele>769.66998291016</ele>
        <time>2024-09-26T08:01:01.000Z</time>
      </trkpt>
      <trkpt lat="41.05455" lon="20.15493">
        <ele>770.15002441406</ele>
        <time>2024-09-26T08:01:02.000Z</time>
      </trkpt>
      <trkpt lat="41.05447" lon="20.15503">
        <ele>771.10998535156</ele>
        <time>2024-09-26T08:01:03.000Z</time>
      </trkpt>
      <trkpt lat="41.05439" lon="20.15512">
        <ele>772.08001708984</ele>
        <time>2024-09-26T08:01:04.000Z</time>
      </trkpt>
      <trkpt lat="41.05429" lon="20.15518">
        <ele>773.03997802734</ele>
        <time>2024-09-26T08:01:05.000Z</time>
      </trkpt>
      <trkpt lat="41.05419" lon="20.15522">
        <ele>773.52001953125</ele>
        <time>2024-09-26T08:01:06.000Z</time>
      </trkpt>
      <trkpt lat="41.05404" lon="20.15525">
        <ele>774.47998046875</ele>
        <time>2024-09-26T08:01:07.000Z</time>
      </trkpt>
      <trkpt lat="41.05398" lon="20.15527">
        <ele>774.47998046875</ele>
        <time>2024-09-26T08:01:08.000Z</time>
      </trkpt>
      <trkpt lat="41.05389" lon="20.15532">
        <ele>774.96002197266</ele>
        <time>2024-09-26T08:01:09.000Z</time>
      </trkpt>
      <trkpt lat="41.05381" lon="20.1554">
        <ele>775.44000244141</ele>
        <time>2024-09-26T08:01:10.000Z</time>
      </trkpt>
      <trkpt lat="41.05302" lon="20.15632">
        <ele>782.65002441406</ele>
        <time>2024-09-26T08:01:18.000Z</time>
      </trkpt>
      <trkpt lat="41.05296" lon="20.1564">
        <ele>783.13000488281</ele>
        <time>2024-09-26T08:01:19.000Z</time>
      </trkpt>
      <trkpt lat="41.05289" lon="20.15652">
        <ele>784.57000732422</ele>
        <time>2024-09-26T08:01:20.000Z</time>
      </trkpt>
      <trkpt lat="41.05285" lon="20.15665">
        <ele>785.53002929688</ele>
        <time>2024-09-26T08:01:21.000Z</time>
      </trkpt>
      <trkpt lat="41.05284" lon="20.1568">
        <ele>786.5</ele>
        <time>2024-09-26T08:01:22.000Z</time>
      </trkpt>
      <trkpt lat="41.05286" lon="20.15697">
        <ele>787.46002197266</ele>
        <time>2024-09-26T08:01:23.000Z</time>
      </trkpt>
      <trkpt lat="41.05287" lon="20.15717">
        <ele>788.41998291016</ele>
        <time>2024-09-26T08:01:24.000Z</time>
      </trkpt>
      <trkpt lat="41.05288" lon="20.15731">
        <ele>789.38000488281</ele>
        <time>2024-09-26T08:01:25.000Z</time>
      </trkpt>
      <trkpt lat="41.05286" lon="20.15749">
        <ele>790.34002685547</ele>
        <time>2024-09-26T08:01:26.000Z</time>
      </trkpt>
      <trkpt lat="41.05282" lon="20.1577">
        <ele>791.78002929688</ele>
        <time>2024-09-26T08:01:27.000Z</time>
      </trkpt>
      <trkpt lat="41.05281" lon="20.15785">
        <ele>792.26000976562</ele>
        <time>2024-09-26T08:01:28.000Z</time>
      </trkpt>
      <trkpt lat="41.05281" lon="20.15809">
        <ele>793.21997070312</ele>
        <time>2024-09-26T08:01:29.000Z</time>
      </trkpt>
      <trkpt lat="41.0528" lon="20.15819">
        <ele>793.21997070312</ele>
        <time>2024-09-26T08:01:30.000Z</time>
      </trkpt>
      <trkpt lat="41.05277" lon="20.15837">
        <ele>793.21997070312</ele>
        <time>2024-09-26T08:01:31.000Z</time>
      </trkpt>
      <trkpt lat="41.05269" lon="20.15856">
        <ele>793.21997070312</ele>
        <time>2024-09-26T08:01:32.000Z</time>
      </trkpt>
      <trkpt lat="41.05263" lon="20.1587">
        <ele>793.71002197266</ele>
        <time>2024-09-26T08:01:33.000Z</time>
      </trkpt>
      <trkpt lat="41.05258" lon="20.15888">
        <ele>793.71002197266</ele>
        <time>2024-09-26T08:01:34.000Z</time>
      </trkpt>
      <trkpt lat="41.05256" lon="20.15905">
        <ele>794.66998291016</ele>
        <time>2024-09-26T08:01:35.000Z</time>
      </trkpt>
      <trkpt lat="41.05257" lon="20.15922">
        <ele>795.63000488281</ele>
        <time>2024-09-26T08:01:36.000Z</time>
      </trkpt>
      <trkpt lat="41.05262" lon="20.15946">
        <ele>797.54998779297</ele>
        <time>2024-09-26T08:01:37.000Z</time>
      </trkpt>
      <trkpt lat="41.05265" lon="20.15956">
        <ele>798.03002929688</ele>
        <time>2024-09-26T08:01:38.000Z</time>
      </trkpt>
      <trkpt lat="41.05268" lon="20.15969">
        <ele>798.98999023438</ele>
        <time>2024-09-26T08:01:39.000Z</time>
      </trkpt>
      <trkpt lat="41.05272" lon="20.15983">
        <ele>800.44000244141</ele>
        <time>2024-09-26T08:01:40.000Z</time>
      </trkpt>
      <trkpt lat="41.05274" lon="20.15995">
        <ele>801.88000488281</ele>
        <time>2024-09-26T08:01:41.000Z</time>
      </trkpt>
      <trkpt lat="41.05273" lon="20.16007">
        <ele>802.84002685547</ele>
        <time>2024-09-26T08:01:42.000Z</time>
      </trkpt>
      <trkpt lat="41.0527" lon="20.16015">
        <ele>803.32000732422</ele>
        <time>2024-09-26T08:01:43.000Z</time>
      </trkpt>
      <trkpt lat="41.05263" lon="20.16024">
        <ele>803.79998779297</ele>
        <time>2024-09-26T08:01:44.000Z</time>
      </trkpt>
      <trkpt lat="41.05255" lon="20.16033">
        <ele>803.32000732422</ele>
        <time>2024-09-26T08:01:45.000Z</time>
      </trkpt>
      <trkpt lat="41.05229" lon="20.16058">
        <ele>801.88000488281</ele>
        <time>2024-09-26T08:01:47.000Z</time>
      </trkpt>
      <trkpt lat="41.05227" lon="20.1606">
        <ele>801.40002441406</ele>
        <time>2024-09-26T08:01:48.000Z</time>
      </trkpt>
      <trkpt lat="41.05217" lon="20.16067">
        <ele>800.44000244141</ele>
        <time>2024-09-26T08:01:49.000Z</time>
      </trkpt>
      <trkpt lat="41.05212" lon="20.16073">
        <ele>799.46997070312</ele>
        <time>2024-09-26T08:01:50.000Z</time>
      </trkpt>
      <trkpt lat="41.05206" lon="20.16082">
        <ele>798.51000976562</ele>
        <time>2024-09-26T08:01:51.000Z</time>
      </trkpt>
      <trkpt lat="41.05202" lon="20.16093">
        <ele>797.07000732422</ele>
        <time>2024-09-26T08:01:52.000Z</time>
      </trkpt>
      <trkpt lat="41.052" lon="20.16105">
        <ele>796.10998535156</ele>
        <time>2024-09-26T08:01:53.000Z</time>
      </trkpt>
      <trkpt lat="41.05201" lon="20.16118">
        <ele>795.15002441406</ele>
        <time>2024-09-26T08:01:54.000Z</time>
      </trkpt>
      <trkpt lat="41.05205" lon="20.1613">
        <ele>794.66998291016</ele>
        <time>2024-09-26T08:01:55.000Z</time>
      </trkpt>
      <trkpt lat="41.05211" lon="20.16143">
        <ele>794.19000244141</ele>
        <time>2024-09-26T08:01:56.000Z</time>
      </trkpt>
      <trkpt lat="41.05213" lon="20.16155">
        <ele>793.71002197266</ele>
        <time>2024-09-26T08:01:57.000Z</time>
      </trkpt>
      <trkpt lat="41.05214" lon="20.16169">
        <ele>793.71002197266</ele>
        <time>2024-09-26T08:01:58.000Z</time>
      </trkpt>
      <trkpt lat="41.05212" lon="20.16181">
        <ele>793.71002197266</ele>
        <time>2024-09-26T08:01:59.000Z</time>
      </trkpt>
      <trkpt lat="41.05209" lon="20.16192">
        <ele>794.19000244141</ele>
        <time>2024-09-26T08:02:00.000Z</time>
      </trkpt>
      <trkpt lat="41.05203" lon="20.16201">
        <ele>794.19000244141</ele>
        <time>2024-09-26T08:02:01.000Z</time>
      </trkpt>
      <trkpt lat="41.05188" lon="20.16216">
        <ele>794.19000244141</ele>
        <time>2024-09-26T08:02:03.000Z</time>
      </trkpt>
      <trkpt lat="41.05182" lon="20.16225">
        <ele>794.19000244141</ele>
        <time>2024-09-26T08:02:04.000Z</time>
      </trkpt>
      <trkpt lat="41.05177" lon="20.16234">
        <ele>794.19000244141</ele>
        <time>2024-09-26T08:02:05.000Z</time>
      </trkpt>
      <trkpt lat="41.05175" lon="20.16244">
        <ele>794.19000244141</ele>
        <time>2024-09-26T08:02:06.000Z</time>
      </trkpt>
      <trkpt lat="41.05175" lon="20.16254">
        <ele>794.66998291016</ele>
        <time>2024-09-26T08:02:07.000Z</time>
      </trkpt>
      <trkpt lat="41.05176" lon="20.16265">
        <ele>795.15002441406</ele>
        <time>2024-09-26T08:02:08.000Z</time>
      </trkpt>
      <trkpt lat="41.05186" lon="20.16304">
        <ele>796.59002685547</ele>
        <time>2024-09-26T08:02:11.000Z</time>
      </trkpt>
      <trkpt lat="41.05186" lon="20.16306">
        <ele>796.59002685547</ele>
        <time>2024-09-26T08:02:12.000Z</time>
      </trkpt>
      <trkpt lat="41.05187" lon="20.16315">
        <ele>797.07000732422</ele>
        <time>2024-09-26T08:02:13.000Z</time>
      </trkpt>
      <trkpt lat="41.05186" lon="20.16324">
        <ele>797.07000732422</ele>
        <time>2024-09-26T08:02:14.000Z</time>
      </trkpt>
      <trkpt lat="41.05182" lon="20.16332">
        <ele>797.54998779297</ele>
        <time>2024-09-26T08:02:15.000Z</time>
      </trkpt>
      <trkpt lat="41.05176" lon="20.16338">
        <ele>797.54998779297</ele>
        <time>2024-09-26T08:02:16.000Z</time>
      </trkpt>
      <trkpt lat="41.05169" lon="20.1634">
        <ele>797.54998779297</ele>
        <time>2024-09-26T08:02:17.000Z</time>
      </trkpt>
      <trkpt lat="41.05163" lon="20.16339">
        <ele>797.54998779297</ele>
        <time>2024-09-26T08:02:18.000Z</time>
      </trkpt>
      <trkpt lat="41.05157" lon="20.16334">
        <ele>797.07000732422</ele>
        <time>2024-09-26T08:02:19.000Z</time>
      </trkpt>
      <trkpt lat="41.05144" lon="20.1632">
        <ele>796.10998535156</ele>
        <time>2024-09-26T08:02:21.000Z</time>
      </trkpt>
      <trkpt lat="41.05142" lon="20.16318">
        <ele>795.63000488281</ele>
        <time>2024-09-26T08:02:22.000Z</time>
      </trkpt>
      <trkpt lat="41.05136" lon="20.16313">
        <ele>795.63000488281</ele>
        <time>2024-09-26T08:02:23.000Z</time>
      </trkpt>
      <trkpt lat="41.0513" lon="20.16309">
        <ele>795.15002441406</ele>
        <time>2024-09-26T08:02:24.000Z</time>
      </trkpt>
      <trkpt lat="41.05123" lon="20.16306">
        <ele>794.66998291016</ele>
        <time>2024-09-26T08:02:25.000Z</time>
      </trkpt>
      <trkpt lat="41.05113" lon="20.16301">
        <ele>793.71002197266</ele>
        <time>2024-09-26T08:02:26.000Z</time>
      </trkpt>
      <trkpt lat="41.05111" lon="20.163">
        <ele>793.71002197266</ele>
        <time>2024-09-26T08:02:27.000Z</time>
      </trkpt>
      <trkpt lat="41.05106" lon="20.16296">
        <ele>793.21997070312</ele>
        <time>2024-09-26T08:02:28.000Z</time>
      </trkpt>
      <trkpt lat="41.05083" lon="20.16276">
        <ele>790.34002685547</ele>
        <time>2024-09-26T08:02:31.000Z</time>
      </trkpt>
      <trkpt lat="41.05064" lon="20.16261">
        <ele>787.94000244141</ele>
        <time>2024-09-26T08:02:34.000Z</time>
      </trkpt>
      <trkpt lat="41.05061" lon="20.16258">
        <ele>786.97998046875</ele>
        <time>2024-09-26T08:02:35.000Z</time>
      </trkpt>
      <trkpt lat="41.05054" lon="20.1625">
        <ele>786.02001953125</ele>
        <time>2024-09-26T08:02:36.000Z</time>
      </trkpt>
      <trkpt lat="41.05047" lon="20.16238">
        <ele>784.09002685547</ele>
        <time>2024-09-26T08:02:37.000Z</time>
      </trkpt>
      <trkpt lat="41.05043" lon="20.16233">
        <ele>783.13000488281</ele>
        <time>2024-09-26T08:02:38.000Z</time>
      </trkpt>
      <trkpt lat="41.05037" lon="20.16227">
        <ele>782.16998291016</ele>
        <time>2024-09-26T08:02:39.000Z</time>
      </trkpt>
      <trkpt lat="41.0503" lon="20.16222">
        <ele>781.21002197266</ele>
        <time>2024-09-26T08:02:40.000Z</time>
      </trkpt>
      <trkpt lat="41.05022" lon="20.16222">
        <ele>780.25</ele>
        <time>2024-09-26T08:02:41.000Z</time>
      </trkpt>
      <trkpt lat="41.05014" lon="20.16227">
        <ele>779.28997802734</ele>
        <time>2024-09-26T08:02:42.000Z</time>
      </trkpt>
      <trkpt lat="41.04985" lon="20.16261">
        <ele>775.91998291016</ele>
        <time>2024-09-26T08:02:45.000Z</time>
      </trkpt>
      <trkpt lat="41.04983" lon="20.16264">
        <ele>775.91998291016</ele>
        <time>2024-09-26T08:02:46.000Z</time>
      </trkpt>
      <trkpt lat="41.04977" lon="20.16272">
        <ele>774.96002197266</ele>
        <time>2024-09-26T08:02:47.000Z</time>
      </trkpt>
      <trkpt lat="41.0497" lon="20.16279">
        <ele>774</ele>
        <time>2024-09-26T08:02:48.000Z</time>
      </trkpt>
      <trkpt lat="41.04962" lon="20.16282">
        <ele>773.52001953125</ele>
        <time>2024-09-26T08:02:49.000Z</time>
      </trkpt>
      <trkpt lat="41.04955" lon="20.1628">
        <ele>773.03997802734</ele>
        <time>2024-09-26T08:02:50.000Z</time>
      </trkpt>
      <trkpt lat="41.04949" lon="20.16274">
        <ele>772.08001708984</ele>
        <time>2024-09-26T08:02:51.000Z</time>
      </trkpt>
      <trkpt lat="41.04945" lon="20.16265">
        <ele>772.08001708984</ele>
        <time>2024-09-26T08:02:52.000Z</time>
      </trkpt>
      <trkpt lat="41.04939" lon="20.16244">
        <ele>771.59997558594</ele>
        <time>2024-09-26T08:02:53.000Z</time>
      </trkpt>
      <trkpt lat="41.04938" lon="20.1624">
        <ele>771.59997558594</ele>
        <time>2024-09-26T08:02:54.000Z</time>
      </trkpt>
      <trkpt lat="41.04935" lon="20.16232">
        <ele>771.59997558594</ele>
        <time>2024-09-26T08:02:55.000Z</time>
      </trkpt>
      <trkpt lat="41.0493" lon="20.16222">
        <ele>771.59997558594</ele>
        <time>2024-09-26T08:02:56.000Z</time>
      </trkpt>
      <trkpt lat="41.04922" lon="20.16215">
        <ele>771.10998535156</ele>
        <time>2024-09-26T08:02:57.000Z</time>
      </trkpt>
      <trkpt lat="41.04914" lon="20.16212">
        <ele>771.10998535156</ele>
        <time>2024-09-26T08:02:58.000Z</time>
      </trkpt>
      <trkpt lat="41.04905" lon="20.16211">
        <ele>771.59997558594</ele>
        <time>2024-09-26T08:02:59.000Z</time>
      </trkpt>
      <trkpt lat="41.04895" lon="20.16213">
        <ele>771.59997558594</ele>
        <time>2024-09-26T08:03:00.000Z</time>
      </trkpt>
      <trkpt lat="41.04885" lon="20.16217">
        <ele>771.59997558594</ele>
        <time>2024-09-26T08:03:01.000Z</time>
      </trkpt>
      <trkpt lat="41.04877" lon="20.16223">
        <ele>771.10998535156</ele>
        <time>2024-09-26T08:03:02.000Z</time>
      </trkpt>
      <trkpt lat="41.04869" lon="20.16231">
        <ele>771.10998535156</ele>
        <time>2024-09-26T08:03:03.000Z</time>
      </trkpt>
      <trkpt lat="41.04859" lon="20.16246">
        <ele>770.63000488281</ele>
        <time>2024-09-26T08:03:04.000Z</time>
      </trkpt>
      <trkpt lat="41.04855" lon="20.16252">
        <ele>770.63000488281</ele>
        <time>2024-09-26T08:03:05.000Z</time>
      </trkpt>
      <trkpt lat="41.04848" lon="20.1626">
        <ele>770.15002441406</ele>
        <time>2024-09-26T08:03:06.000Z</time>
      </trkpt>
      <trkpt lat="41.04839" lon="20.16266">
        <ele>769.66998291016</ele>
        <time>2024-09-26T08:03:07.000Z</time>
      </trkpt>
      <trkpt lat="41.04829" lon="20.16269">
        <ele>770.15002441406</ele>
        <time>2024-09-26T08:03:08.000Z</time>
      </trkpt>
      <trkpt lat="41.0482" lon="20.16271">
        <ele>770.63000488281</ele>
        <time>2024-09-26T08:03:09.000Z</time>
      </trkpt>
      <trkpt lat="41.04809" lon="20.16274">
        <ele>771.10998535156</ele>
        <time>2024-09-26T08:03:10.000Z</time>
      </trkpt>
      <trkpt lat="41.048" lon="20.16279">
        <ele>771.59997558594</ele>
        <time>2024-09-26T08:03:11.000Z</time>
      </trkpt>
      <trkpt lat="41.04792" lon="20.16286">
        <ele>772.55999755859</ele>
        <time>2024-09-26T08:03:12.000Z</time>
      </trkpt>
      <trkpt lat="41.04787" lon="20.16296">
        <ele>773.52001953125</ele>
        <time>2024-09-26T08:03:13.000Z</time>
      </trkpt>
      <trkpt lat="41.04784" lon="20.16308">
        <ele>774.47998046875</ele>
        <time>2024-09-26T08:03:14.000Z</time>
      </trkpt>
      <trkpt lat="41.04784" lon="20.16323">
        <ele>775.44000244141</ele>
        <time>2024-09-26T08:03:15.000Z</time>
      </trkpt>
      <trkpt lat="41.04784" lon="20.16337">
        <ele>776.40002441406</ele>
        <time>2024-09-26T08:03:16.000Z</time>
      </trkpt>
      <trkpt lat="41.04794" lon="20.16392">
        <ele>780.72998046875</ele>
        <time>2024-09-26T08:03:19.000Z</time>
      </trkpt>
      <trkpt lat="41.04796" lon="20.16407">
        <ele>781.21002197266</ele>
        <time>2024-09-26T08:03:20.000Z</time>
      </trkpt>
      <trkpt lat="41.04797" lon="20.16416">
        <ele>781.69000244141</ele>
        <time>2024-09-26T08:03:21.000Z</time>
      </trkpt>
      <trkpt lat="41.04798" lon="20.16431">
        <ele>781.69000244141</ele>
        <time>2024-09-26T08:03:22.000Z</time>
      </trkpt>
      <trkpt lat="41.04796" lon="20.16444">
        <ele>782.16998291016</ele>
        <time>2024-09-26T08:03:23.000Z</time>
      </trkpt>
      <trkpt lat="41.04793" lon="20.16454">
        <ele>782.16998291016</ele>
        <time>2024-09-26T08:03:24.000Z</time>
      </trkpt>
      <trkpt lat="41.04787" lon="20.16459">
        <ele>782.16998291016</ele>
        <time>2024-09-26T08:03:25.000Z</time>
      </trkpt>
      <trkpt lat="41.04779" lon="20.16462">
        <ele>782.65002441406</ele>
        <time>2024-09-26T08:03:26.000Z</time>
      </trkpt>
      <trkpt lat="41.04771" lon="20.16461">
        <ele>782.65002441406</ele>
        <time>2024-09-26T08:03:27.000Z</time>
      </trkpt>
      <trkpt lat="41.04763" lon="20.16456">
        <ele>783.13000488281</ele>
        <time>2024-09-26T08:03:28.000Z</time>
      </trkpt>
      <trkpt lat="41.04755" lon="20.16448">
        <ele>783.13000488281</ele>
        <time>2024-09-26T08:03:29.000Z</time>
      </trkpt>
      <trkpt lat="41.04747" lon="20.16438">
        <ele>783.60998535156</ele>
        <time>2024-09-26T08:03:30.000Z</time>
      </trkpt>
      <trkpt lat="41.0474" lon="20.16433">
        <ele>784.57000732422</ele>
        <time>2024-09-26T08:03:31.000Z</time>
      </trkpt>
      <trkpt lat="41.04731" lon="20.16428">
        <ele>785.53002929688</ele>
        <time>2024-09-26T08:03:32.000Z</time>
      </trkpt>
      <trkpt lat="41.04721" lon="20.16428">
        <ele>786.5</ele>
        <time>2024-09-26T08:03:33.000Z</time>
      </trkpt>
      <trkpt lat="41.04712" lon="20.16433">
        <ele>787.94000244141</ele>
        <time>2024-09-26T08:03:34.000Z</time>
      </trkpt>
      <trkpt lat="41.04703" lon="20.16441">
        <ele>789.38000488281</ele>
        <time>2024-09-26T08:03:35.000Z</time>
      </trkpt>
      <trkpt lat="41.04674" lon="20.16475">
        <ele>794.19000244141</ele>
        <time>2024-09-26T08:03:38.000Z</time>
      </trkpt>
      <trkpt lat="41.04666" lon="20.16484">
        <ele>795.15002441406</ele>
        <time>2024-09-26T08:03:39.000Z</time>
      </trkpt>
      <trkpt lat="41.04648" lon="20.16499">
        <ele>795.63000488281</ele>
        <time>2024-09-26T08:03:40.000Z</time>
      </trkpt>
      <trkpt lat="41.0464" lon="20.16507">
        <ele>795.63000488281</ele>
        <time>2024-09-26T08:03:41.000Z</time>
      </trkpt>
      <trkpt lat="41.04633" lon="20.16513">
        <ele>796.10998535156</ele>
        <time>2024-09-26T08:03:42.000Z</time>
      </trkpt>
      <trkpt lat="41.04619" lon="20.16526">
        <ele>796.10998535156</ele>
        <time>2024-09-26T08:03:43.000Z</time>
      </trkpt>
      <trkpt lat="41.0461" lon="20.16533">
        <ele>796.10998535156</ele>
        <time>2024-09-26T08:03:44.000Z</time>
      </trkpt>
      <trkpt lat="41.04597" lon="20.1654">
        <ele>796.10998535156</ele>
        <time>2024-09-26T08:03:45.000Z</time>
      </trkpt>
      <trkpt lat="41.04584" lon="20.16543">
        <ele>796.59002685547</ele>
        <time>2024-09-26T08:03:46.000Z</time>
      </trkpt>
      <trkpt lat="41.04564" lon="20.16545">
        <ele>797.54998779297</ele>
        <time>2024-09-26T08:03:47.000Z</time>
      </trkpt>
      <trkpt lat="41.04552" lon="20.16546">
        <ele>798.03002929688</ele>
        <time>2024-09-26T08:03:48.000Z</time>
      </trkpt>
      <trkpt lat="41.04545" lon="20.16547">
        <ele>798.51000976562</ele>
        <time>2024-09-26T08:03:49.000Z</time>
      </trkpt>
      <trkpt lat="41.04534" lon="20.16551">
        <ele>798.51000976562</ele>
        <time>2024-09-26T08:03:50.000Z</time>
      </trkpt>
      <trkpt lat="41.04524" lon="20.16559">
        <ele>797.54998779297</ele>
        <time>2024-09-26T08:03:51.000Z</time>
      </trkpt>
      <trkpt lat="41.04494" lon="20.1659">
        <ele>795.15002441406</ele>
        <time>2024-09-26T08:03:54.000Z</time>
      </trkpt>
      <trkpt lat="41.04488" lon="20.16599">
        <ele>794.19000244141</ele>
        <time>2024-09-26T08:03:55.000Z</time>
      </trkpt>
      <trkpt lat="41.04483" lon="20.16611">
        <ele>793.21997070312</ele>
        <time>2024-09-26T08:03:56.000Z</time>
      </trkpt>
      <trkpt lat="41.04482" lon="20.16625">
        <ele>792.73999023438</ele>
        <time>2024-09-26T08:03:57.000Z</time>
      </trkpt>
      <trkpt lat="41.04486" lon="20.16637">
        <ele>792.26000976562</ele>
        <time>2024-09-26T08:03:58.000Z</time>
      </trkpt>
      <trkpt lat="41.0449" lon="20.16647">
        <ele>791.29998779297</ele>
        <time>2024-09-26T08:03:59.000Z</time>
      </trkpt>
      <trkpt lat="41.04491" lon="20.16658">
        <ele>790.82000732422</ele>
        <time>2024-09-26T08:04:00.000Z</time>
      </trkpt>
      <trkpt lat="41.0449" lon="20.16668">
        <ele>790.82000732422</ele>
        <time>2024-09-26T08:04:01.000Z</time>
      </trkpt>
      <trkpt lat="41.04485" lon="20.16676">
        <ele>790.34002685547</ele>
        <time>2024-09-26T08:04:02.000Z</time>
      </trkpt>
      <trkpt lat="41.04477" lon="20.16682">
        <ele>790.34002685547</ele>
        <time>2024-09-26T08:04:03.000Z</time>
      </trkpt>
      <trkpt lat="41.04465" lon="20.16688">
        <ele>789.85998535156</ele>
        <time>2024-09-26T08:04:04.000Z</time>
      </trkpt>
      <trkpt lat="41.04448" lon="20.16694">
        <ele>789.38000488281</ele>
        <time>2024-09-26T08:04:05.000Z</time>
      </trkpt>
      <trkpt lat="41.04442" lon="20.16696">
        <ele>789.38000488281</ele>
        <time>2024-09-26T08:04:06.000Z</time>
      </trkpt>
      <trkpt lat="41.04434" lon="20.16701">
        <ele>788.90002441406</ele>
        <time>2024-09-26T08:04:07.000Z</time>
      </trkpt>
      <trkpt lat="41.04426" lon="20.16711">
        <ele>788.90002441406</ele>
        <time>2024-09-26T08:04:08.000Z</time>
      </trkpt>
      <trkpt lat="41.04421" lon="20.16723">
        <ele>788.90002441406</ele>
        <time>2024-09-26T08:04:09.000Z</time>
      </trkpt>
      <trkpt lat="41.04417" lon="20.16737">
        <ele>788.90002441406</ele>
        <time>2024-09-26T08:04:10.000Z</time>
      </trkpt>
      <trkpt lat="41.04416" lon="20.16751">
        <ele>789.38000488281</ele>
        <time>2024-09-26T08:04:11.000Z</time>
      </trkpt>
      <trkpt lat="41.04415" lon="20.16765">
        <ele>789.85998535156</ele>
        <time>2024-09-26T08:04:12.000Z</time>
      </trkpt>
      <trkpt lat="41.04412" lon="20.16777">
        <ele>789.85998535156</ele>
        <time>2024-09-26T08:04:13.000Z</time>
      </trkpt>
      <trkpt lat="41.04406" lon="20.16787">
        <ele>789.85998535156</ele>
        <time>2024-09-26T08:04:14.000Z</time>
      </trkpt>
      <trkpt lat="41.04396" lon="20.16794">
        <ele>789.85998535156</ele>
        <time>2024-09-26T08:04:15.000Z</time>
      </trkpt>
      <trkpt lat="41.04385" lon="20.16799">
        <ele>789.85998535156</ele>
        <time>2024-09-26T08:04:16.000Z</time>
      </trkpt>
      <trkpt lat="41.0437" lon="20.16801">
        <ele>789.85998535156</ele>
        <time>2024-09-26T08:04:17.000Z</time>
      </trkpt>
      <trkpt lat="41.04325" lon="20.16805">
        <ele>790.82000732422</ele>
        <time>2024-09-26T08:04:20.000Z</time>
      </trkpt>
      <trkpt lat="41.04323" lon="20.16805">
        <ele>790.82000732422</ele>
        <time>2024-09-26T08:04:21.000Z</time>
      </trkpt>
      <trkpt lat="41.04312" lon="20.16809">
        <ele>790.82000732422</ele>
        <time>2024-09-26T08:04:22.000Z</time>
      </trkpt>
      <trkpt lat="41.04302" lon="20.16816">
        <ele>791.29998779297</ele>
        <time>2024-09-26T08:04:23.000Z</time>
      </trkpt>
      <trkpt lat="41.04295" lon="20.16825">
        <ele>791.78002929688</ele>
        <time>2024-09-26T08:04:24.000Z</time>
      </trkpt>
      <trkpt lat="41.0429" lon="20.16837">
        <ele>792.73999023438</ele>
        <time>2024-09-26T08:04:25.000Z</time>
      </trkpt>
      <trkpt lat="41.04288" lon="20.1685">
        <ele>793.21997070312</ele>
        <time>2024-09-26T08:04:26.000Z</time>
      </trkpt>
      <trkpt lat="41.0429" lon="20.16865">
        <ele>793.71002197266</ele>
        <time>2024-09-26T08:04:27.000Z</time>
      </trkpt>
      <trkpt lat="41.04295" lon="20.1688">
        <ele>793.71002197266</ele>
        <time>2024-09-26T08:04:28.000Z</time>
      </trkpt>
      <trkpt lat="41.04301" lon="20.16897">
        <ele>794.66998291016</ele>
        <time>2024-09-26T08:04:29.000Z</time>
      </trkpt>
      <trkpt lat="41.04305" lon="20.16908">
        <ele>794.66998291016</ele>
        <time>2024-09-26T08:04:30.000Z</time>
      </trkpt>
      <trkpt lat="41.04305" lon="20.16922">
        <ele>795.15002441406</ele>
        <time>2024-09-26T08:04:31.000Z</time>
      </trkpt>
      <trkpt lat="41.04302" lon="20.16935">
        <ele>795.15002441406</ele>
        <time>2024-09-26T08:04:32.000Z</time>
      </trkpt>
      <trkpt lat="41.04295" lon="20.16947">
        <ele>795.63000488281</ele>
        <time>2024-09-26T08:04:33.000Z</time>
      </trkpt>
      <trkpt lat="41.04288" lon="20.16958">
        <ele>796.10998535156</ele>
        <time>2024-09-26T08:04:34.000Z</time>
      </trkpt>
      <trkpt lat="41.04283" lon="20.1697">
        <ele>797.07000732422</ele>
        <time>2024-09-26T08:04:35.000Z</time>
      </trkpt>
      <trkpt lat="41.04282" lon="20.16982">
        <ele>797.54998779297</ele>
        <time>2024-09-26T08:04:36.000Z</time>
      </trkpt>
      <trkpt lat="41.04283" lon="20.16993">
        <ele>798.51000976562</ele>
        <time>2024-09-26T08:04:37.000Z</time>
      </trkpt>
      <trkpt lat="41.04288" lon="20.17003">
        <ele>798.98999023438</ele>
        <time>2024-09-26T08:04:38.000Z</time>
      </trkpt>
      <trkpt lat="41.04296" lon="20.17009">
        <ele>799.46997070312</ele>
        <time>2024-09-26T08:04:39.000Z</time>
      </trkpt>
      <trkpt lat="41.04306" lon="20.17013">
        <ele>799.95001220703</ele>
        <time>2024-09-26T08:04:40.000Z</time>
      </trkpt>
      <trkpt lat="41.04326" lon="20.17021">
        <ele>800.91998291016</ele>
        <time>2024-09-26T08:04:41.000Z</time>
      </trkpt>
      <trkpt lat="41.04328" lon="20.17022">
        <ele>800.91998291016</ele>
        <time>2024-09-26T08:04:42.000Z</time>
      </trkpt>
      <trkpt lat="41.04337" lon="20.17028">
        <ele>800.91998291016</ele>
        <time>2024-09-26T08:04:43.000Z</time>
      </trkpt>
      <trkpt lat="41.04344" lon="20.17036">
        <ele>800.91998291016</ele>
        <time>2024-09-26T08:04:44.000Z</time>
      </trkpt>
      <trkpt lat="41.04347" lon="20.17045">
        <ele>801.40002441406</ele>
        <time>2024-09-26T08:04:45.000Z</time>
      </trkpt>
      <trkpt lat="41.04347" lon="20.17055">
        <ele>800.91998291016</ele>
        <time>2024-09-26T08:04:46.000Z</time>
      </trkpt>
      <trkpt lat="41.04345" lon="20.17066">
        <ele>799.95001220703</ele>
        <time>2024-09-26T08:04:47.000Z</time>
      </trkpt>
      <trkpt lat="41.04333" lon="20.17101">
        <ele>798.51000976562</ele>
        <time>2024-09-26T08:04:49.000Z</time>
      </trkpt>
      <trkpt lat="41.04325" lon="20.17122">
        <ele>797.54998779297</ele>
        <time>2024-09-26T08:04:51.000Z</time>
      </trkpt>
      <trkpt lat="41.04322" lon="20.17128">
        <ele>797.07000732422</ele>
        <time>2024-09-26T08:04:52.000Z</time>
      </trkpt>
      <trkpt lat="41.04318" lon="20.17142">
        <ele>796.59002685547</ele>
        <time>2024-09-26T08:04:53.000Z</time>
      </trkpt>
      <trkpt lat="41.04316" lon="20.17155">
        <ele>795.63000488281</ele>
        <time>2024-09-26T08:04:54.000Z</time>
      </trkpt>
      <trkpt lat="41.04315" lon="20.17169">
        <ele>794.19000244141</ele>
        <time>2024-09-26T08:04:55.000Z</time>
      </trkpt>
      <trkpt lat="41.04315" lon="20.17184">
        <ele>792.73999023438</ele>
        <time>2024-09-26T08:04:56.000Z</time>
      </trkpt>
      <trkpt lat="41.04318" lon="20.17198">
        <ele>791.78002929688</ele>
        <time>2024-09-26T08:04:57.000Z</time>
      </trkpt>
      <trkpt lat="41.04327" lon="20.17226">
        <ele>789.85998535156</ele>
        <time>2024-09-26T08:04:59.000Z</time>
      </trkpt>
      <trkpt lat="41.04332" lon="20.17246">
        <ele>789.85998535156</ele>
        <time>2024-09-26T08:05:00.000Z</time>
      </trkpt>
      <trkpt lat="41.04335" lon="20.17255">
        <ele>789.85998535156</ele>
        <time>2024-09-26T08:05:01.000Z</time>
      </trkpt>
      <trkpt lat="41.04339" lon="20.1728">
        <ele>790.34002685547</ele>
        <time>2024-09-26T08:05:02.000Z</time>
      </trkpt>
      <trkpt lat="41.04341" lon="20.17286">
        <ele>790.82000732422</ele>
        <time>2024-09-26T08:05:03.000Z</time>
      </trkpt>
      <trkpt lat="41.04345" lon="20.17306">
        <ele>790.82000732422</ele>
        <time>2024-09-26T08:05:04.000Z</time>
      </trkpt>
      <trkpt lat="41.04353" lon="20.17348">
        <ele>789.85998535156</ele>
        <time>2024-09-26T08:05:07.000Z</time>
      </trkpt>
      <trkpt lat="41.04355" lon="20.17362">
        <ele>788.90002441406</ele>
        <time>2024-09-26T08:05:08.000Z</time>
      </trkpt>
      <trkpt lat="41.04354" lon="20.17378">
        <ele>787.94000244141</ele>
        <time>2024-09-26T08:05:09.000Z</time>
      </trkpt>
      <trkpt lat="41.04352" lon="20.17393">
        <ele>786.97998046875</ele>
        <time>2024-09-26T08:05:10.000Z</time>
      </trkpt>
      <trkpt lat="41.04347" lon="20.17413">
        <ele>785.53002929688</ele>
        <time>2024-09-26T08:05:11.000Z</time>
      </trkpt>
      <trkpt lat="41.04329" lon="20.17479">
        <ele>782.16998291016</ele>
        <time>2024-09-26T08:05:16.000Z</time>
      </trkpt>
      <trkpt lat="41.04326" lon="20.17494">
        <ele>782.16998291016</ele>
        <time>2024-09-26T08:05:17.000Z</time>
      </trkpt>
      <trkpt lat="41.04325" lon="20.17504">
        <ele>781.69000244141</ele>
        <time>2024-09-26T08:05:18.000Z</time>
      </trkpt>
      <trkpt lat="41.04327" lon="20.17515">
        <ele>781.21002197266</ele>
        <time>2024-09-26T08:05:19.000Z</time>
      </trkpt>
      <trkpt lat="41.04332" lon="20.17526">
        <ele>780.72998046875</ele>
        <time>2024-09-26T08:05:20.000Z</time>
      </trkpt>
      <trkpt lat="41.04338" lon="20.17538">
        <ele>780.25</ele>
        <time>2024-09-26T08:05:21.000Z</time>
      </trkpt>
      <trkpt lat="41.04345" lon="20.17552">
        <ele>779.77001953125</ele>
        <time>2024-09-26T08:05:22.000Z</time>
      </trkpt>
      <trkpt lat="41.04349" lon="20.17564">
        <ele>779.28997802734</ele>
        <time>2024-09-26T08:05:23.000Z</time>
      </trkpt>
      <trkpt lat="41.04353" lon="20.17575">
        <ele>778.80999755859</ele>
        <time>2024-09-26T08:05:24.000Z</time>
      </trkpt>
      <trkpt lat="41.04355" lon="20.17588">
        <ele>778.80999755859</ele>
        <time>2024-09-26T08:05:25.000Z</time>
      </trkpt>
      <trkpt lat="41.04355" lon="20.176">
        <ele>779.28997802734</ele>
        <time>2024-09-26T08:05:26.000Z</time>
      </trkpt>
      <trkpt lat="41.04351" lon="20.17609">
        <ele>779.28997802734</ele>
        <time>2024-09-26T08:05:27.000Z</time>
      </trkpt>
      <trkpt lat="41.04344" lon="20.17615">
        <ele>779.28997802734</ele>
        <time>2024-09-26T08:05:28.000Z</time>
      </trkpt>
      <trkpt lat="41.04335" lon="20.17618">
        <ele>779.77001953125</ele>
        <time>2024-09-26T08:05:29.000Z</time>
      </trkpt>
      <trkpt lat="41.04324" lon="20.17619">
        <ele>779.28997802734</ele>
        <time>2024-09-26T08:05:30.000Z</time>
      </trkpt>
      <trkpt lat="41.04311" lon="20.17619">
        <ele>779.28997802734</ele>
        <time>2024-09-26T08:05:31.000Z</time>
      </trkpt>
      <trkpt lat="41.043" lon="20.17619">
        <ele>779.28997802734</ele>
        <time>2024-09-26T08:05:32.000Z</time>
      </trkpt>
      <trkpt lat="41.04289" lon="20.1762">
        <ele>779.28997802734</ele>
        <time>2024-09-26T08:05:33.000Z</time>
      </trkpt>
      <trkpt lat="41.0428" lon="20.17624">
        <ele>779.77001953125</ele>
        <time>2024-09-26T08:05:34.000Z</time>
      </trkpt>
      <trkpt lat="41.04271" lon="20.17629">
        <ele>779.77001953125</ele>
        <time>2024-09-26T08:05:35.000Z</time>
      </trkpt>
      <trkpt lat="41.04264" lon="20.17637">
        <ele>780.25</ele>
        <time>2024-09-26T08:05:36.000Z</time>
      </trkpt>
      <trkpt lat="41.04207" lon="20.17708">
        <ele>781.21002197266</ele>
        <time>2024-09-26T08:05:43.000Z</time>
      </trkpt>
      <trkpt lat="41.04199" lon="20.1772">
        <ele>781.69000244141</ele>
        <time>2024-09-26T08:05:44.000Z</time>
      </trkpt>
      <trkpt lat="41.04193" lon="20.17732">
        <ele>782.65002441406</ele>
        <time>2024-09-26T08:05:45.000Z</time>
      </trkpt>
      <trkpt lat="41.04191" lon="20.17744">
        <ele>782.65002441406</ele>
        <time>2024-09-26T08:05:46.000Z</time>
      </trkpt>
      <trkpt lat="41.04192" lon="20.17756">
        <ele>783.13000488281</ele>
        <time>2024-09-26T08:05:47.000Z</time>
      </trkpt>
      <trkpt lat="41.04197" lon="20.17768">
        <ele>784.09002685547</ele>
        <time>2024-09-26T08:05:48.000Z</time>
      </trkpt>
      <trkpt lat="41.04208" lon="20.17783">
        <ele>785.04998779297</ele>
        <time>2024-09-26T08:05:49.000Z</time>
      </trkpt>
      <trkpt lat="41.04213" lon="20.1779">
        <ele>785.53002929688</ele>
        <time>2024-09-26T08:05:50.000Z</time>
      </trkpt>
      <trkpt lat="41.04219" lon="20.17803">
        <ele>786.5</ele>
        <time>2024-09-26T08:05:51.000Z</time>
      </trkpt>
      <trkpt lat="41.04221" lon="20.17816">
        <ele>786.97998046875</ele>
        <time>2024-09-26T08:05:52.000Z</time>
      </trkpt>
      <trkpt lat="41.0422" lon="20.17828">
        <ele>787.94000244141</ele>
        <time>2024-09-26T08:05:53.000Z</time>
      </trkpt>
      <trkpt lat="41.04215" lon="20.1786">
        <ele>789.38000488281</ele>
        <time>2024-09-26T08:05:55.000Z</time>
      </trkpt>
      <trkpt lat="41.04214" lon="20.17876">
        <ele>790.34002685547</ele>
        <time>2024-09-26T08:05:56.000Z</time>
      </trkpt>
      <trkpt lat="41.04216" lon="20.1789">
        <ele>790.82000732422</ele>
        <time>2024-09-26T08:05:57.000Z</time>
      </trkpt>
      <trkpt lat="41.04221" lon="20.17912">
        <ele>792.26000976562</ele>
        <time>2024-09-26T08:05:58.000Z</time>
      </trkpt>
      <trkpt lat="41.04223" lon="20.17921">
        <ele>792.73999023438</ele>
        <time>2024-09-26T08:05:59.000Z</time>
      </trkpt>
      <trkpt lat="41.04225" lon="20.17933">
        <ele>793.21997070312</ele>
        <time>2024-09-26T08:06:00.000Z</time>
      </trkpt>
      <trkpt lat="41.04226" lon="20.17949">
        <ele>794.19000244141</ele>
        <time>2024-09-26T08:06:01.000Z</time>
      </trkpt>
      <trkpt lat="41.04226" lon="20.17964">
        <ele>794.66998291016</ele>
        <time>2024-09-26T08:06:02.000Z</time>
      </trkpt>
      <trkpt lat="41.04224" lon="20.17988">
        <ele>796.10998535156</ele>
        <time>2024-09-26T08:06:03.000Z</time>
      </trkpt>
      <trkpt lat="41.04224" lon="20.17998">
        <ele>796.59002685547</ele>
        <time>2024-09-26T08:06:04.000Z</time>
      </trkpt>
      <trkpt lat="41.04225" lon="20.18013">
        <ele>797.07000732422</ele>
        <time>2024-09-26T08:06:05.000Z</time>
      </trkpt>
      <trkpt lat="41.04228" lon="20.18028">
        <ele>797.54998779297</ele>
        <time>2024-09-26T08:06:06.000Z</time>
      </trkpt>
      <trkpt lat="41.0424" lon="20.18075">
        <ele>798.98999023438</ele>
        <time>2024-09-26T08:06:08.000Z</time>
      </trkpt>
      <trkpt lat="41.04241" lon="20.18078">
        <ele>798.98999023438</ele>
        <time>2024-09-26T08:06:09.000Z</time>
      </trkpt>
      <trkpt lat="41.04247" lon="20.18094">
        <ele>799.46997070312</ele>
        <time>2024-09-26T08:06:10.000Z</time>
      </trkpt>
      <trkpt lat="41.04254" lon="20.18108">
        <ele>799.95001220703</ele>
        <time>2024-09-26T08:06:11.000Z</time>
      </trkpt>
      <trkpt lat="41.04263" lon="20.18121">
        <ele>800.91998291016</ele>
        <time>2024-09-26T08:06:12.000Z</time>
      </trkpt>
      <trkpt lat="41.04275" lon="20.18134">
        <ele>801.88000488281</ele>
        <time>2024-09-26T08:06:13.000Z</time>
      </trkpt>
      <trkpt lat="41.04282" lon="20.18144">
        <ele>802.84002685547</ele>
        <time>2024-09-26T08:06:14.000Z</time>
      </trkpt>
      <trkpt lat="41.04288" lon="20.18156">
        <ele>803.79998779297</ele>
        <time>2024-09-26T08:06:15.000Z</time>
      </trkpt>
      <trkpt lat="41.04291" lon="20.18169">
        <ele>804.28002929688</ele>
        <time>2024-09-26T08:06:16.000Z</time>
      </trkpt>
      <trkpt lat="41.04291" lon="20.18182">
        <ele>804.76000976562</ele>
        <time>2024-09-26T08:06:17.000Z</time>
      </trkpt>
      <trkpt lat="41.04281" lon="20.18223">
        <ele>805.71997070312</ele>
        <time>2024-09-26T08:06:20.000Z</time>
      </trkpt>
      <trkpt lat="41.04279" lon="20.18236">
        <ele>806.20001220703</ele>
        <time>2024-09-26T08:06:21.000Z</time>
      </trkpt>
      <trkpt lat="41.0428" lon="20.18249">
        <ele>806.20001220703</ele>
        <time>2024-09-26T08:06:22.000Z</time>
      </trkpt>
      <trkpt lat="41.04288" lon="20.18283">
        <ele>807.15997314453</ele>
        <time>2024-09-26T08:06:24.000Z</time>
      </trkpt>
      <trkpt lat="41.0429" lon="20.18288">
        <ele>807.15997314453</ele>
        <time>2024-09-26T08:06:25.000Z</time>
      </trkpt>
      <trkpt lat="41.04295" lon="20.18297">
        <ele>807.15997314453</ele>
        <time>2024-09-26T08:06:26.000Z</time>
      </trkpt>
      <trkpt lat="41.04302" lon="20.18302">
        <ele>807.64001464844</ele>
        <time>2024-09-26T08:06:27.000Z</time>
      </trkpt>
      <trkpt lat="41.04312" lon="20.18303">
        <ele>808.13000488281</ele>
        <time>2024-09-26T08:06:28.000Z</time>
      </trkpt>
      <trkpt lat="41.04334" lon="20.183">
        <ele>808.60998535156</ele>
        <time>2024-09-26T08:06:30.000Z</time>
      </trkpt>
      <trkpt lat="41.04345" lon="20.183">
        <ele>808.60998535156</ele>
        <time>2024-09-26T08:06:31.000Z</time>
      </trkpt>
      <trkpt lat="41.04356" lon="20.18303">
        <ele>809.09002685547</ele>
        <time>2024-09-26T08:06:32.000Z</time>
      </trkpt>
      <trkpt lat="41.04365" lon="20.1831">
        <ele>809.57000732422</ele>
        <time>2024-09-26T08:06:33.000Z</time>
      </trkpt>
      <trkpt lat="41.04376" lon="20.18323">
        <ele>810.53002929688</ele>
        <time>2024-09-26T08:06:34.000Z</time>
      </trkpt>
      <trkpt lat="41.04387" lon="20.18332">
        <ele>811.01000976562</ele>
        <time>2024-09-26T08:06:35.000Z</time>
      </trkpt>
      <trkpt lat="41.0439" lon="20.18335">
        <ele>811.48999023438</ele>
        <time>2024-09-26T08:06:36.000Z</time>
      </trkpt>
      <trkpt lat="41.04396" lon="20.18344">
        <ele>811.48999023438</ele>
        <time>2024-09-26T08:06:37.000Z</time>
      </trkpt>
      <trkpt lat="41.04399" lon="20.18354">
        <ele>811.96997070312</ele>
        <time>2024-09-26T08:06:38.000Z</time>
      </trkpt>
      <trkpt lat="41.04402" lon="20.18366">
        <ele>811.96997070312</ele>
        <time>2024-09-26T08:06:39.000Z</time>
      </trkpt>
      <trkpt lat="41.04403" lon="20.18379">
        <ele>812.45001220703</ele>
        <time>2024-09-26T08:06:40.000Z</time>
      </trkpt>
      <trkpt lat="41.04405" lon="20.18395">
        <ele>812.45001220703</ele>
        <time>2024-09-26T08:06:41.000Z</time>
      </trkpt>
      <trkpt lat="41.04406" lon="20.18401">
        <ele>812.92999267578</ele>
        <time>2024-09-26T08:06:42.000Z</time>
      </trkpt>
      <trkpt lat="41.04408" lon="20.18411">
        <ele>812.92999267578</ele>
        <time>2024-09-26T08:06:43.000Z</time>
      </trkpt>
      <trkpt lat="41.04409" lon="20.18419">
        <ele>812.92999267578</ele>
        <time>2024-09-26T08:06:44.000Z</time>
      </trkpt>
      <trkpt lat="41.04409" lon="20.18428">
        <ele>812.92999267578</ele>
        <time>2024-09-26T08:06:45.000Z</time>
      </trkpt>
      <trkpt lat="41.04408" lon="20.18441">
        <ele>812.92999267578</ele>
        <time>2024-09-26T08:06:46.000Z</time>
      </trkpt>
      <trkpt lat="41.04407" lon="20.18451">
        <ele>812.92999267578</ele>
        <time>2024-09-26T08:06:47.000Z</time>
      </trkpt>
      <trkpt lat="41.04408" lon="20.18458">
        <ele>813.40997314453</ele>
        <time>2024-09-26T08:06:48.000Z</time>
      </trkpt>
      <trkpt lat="41.04408" lon="20.18463">
        <ele>813.40997314453</ele>
        <time>2024-09-26T08:06:49.000Z</time>
      </trkpt>
      <trkpt lat="41.04409" lon="20.18468">
        <ele>812.92999267578</ele>
        <time>2024-09-26T08:06:50.000Z</time>
      </trkpt>
      <trkpt lat="41.04412" lon="20.18475">
        <ele>812.92999267578</ele>
        <time>2024-09-26T08:06:51.000Z</time>
      </trkpt>
      <trkpt lat="41.04416" lon="20.18484">
        <ele>812.92999267578</ele>
        <time>2024-09-26T08:06:52.000Z</time>
      </trkpt>
      <trkpt lat="41.04421" lon="20.18492">
        <ele>812.92999267578</ele>
        <time>2024-09-26T08:06:53.000Z</time>
      </trkpt>
      <trkpt lat="41.04427" lon="20.18501">
        <ele>812.92999267578</ele>
        <time>2024-09-26T08:06:54.000Z</time>
      </trkpt>
      <trkpt lat="41.04434" lon="20.18508">
        <ele>813.40997314453</ele>
        <time>2024-09-26T08:06:55.000Z</time>
      </trkpt>
      <trkpt lat="41.04446" lon="20.18519">
        <ele>813.40997314453</ele>
        <time>2024-09-26T08:06:56.000Z</time>
      </trkpt>
      <trkpt lat="41.04452" lon="20.18525">
        <ele>813.40997314453</ele>
        <time>2024-09-26T08:06:57.000Z</time>
      </trkpt>
      <trkpt lat="41.04459" lon="20.18534">
        <ele>812.92999267578</ele>
        <time>2024-09-26T08:06:58.000Z</time>
      </trkpt>
      <trkpt lat="41.04465" lon="20.18546">
        <ele>812.92999267578</ele>
        <time>2024-09-26T08:06:59.000Z</time>
      </trkpt>
      <trkpt lat="41.04469" lon="20.18559">
        <ele>812.92999267578</ele>
        <time>2024-09-26T08:07:00.000Z</time>
      </trkpt>
      <trkpt lat="41.0447" lon="20.18574">
        <ele>813.40997314453</ele>
        <time>2024-09-26T08:07:01.000Z</time>
      </trkpt>
      <trkpt lat="41.04471" lon="20.18587">
        <ele>813.89001464844</ele>
        <time>2024-09-26T08:07:02.000Z</time>
      </trkpt>
      <trkpt lat="41.04474" lon="20.18601">
        <ele>814.36999511719</ele>
        <time>2024-09-26T08:07:03.000Z</time>
      </trkpt>
      <trkpt lat="41.04479" lon="20.18614">
        <ele>815.34002685547</ele>
        <time>2024-09-26T08:07:04.000Z</time>
      </trkpt>
      <trkpt lat="41.04491" lon="20.18631">
        <ele>816.29998779297</ele>
        <time>2024-09-26T08:07:05.000Z</time>
      </trkpt>
      <trkpt lat="41.04493" lon="20.18636">
        <ele>816.78002929688</ele>
        <time>2024-09-26T08:07:06.000Z</time>
      </trkpt>
      <trkpt lat="41.04499" lon="20.18648">
        <ele>817.26000976562</ele>
        <time>2024-09-26T08:07:07.000Z</time>
      </trkpt>
      <trkpt lat="41.04501" lon="20.1866">
        <ele>818.21997070312</ele>
        <time>2024-09-26T08:07:08.000Z</time>
      </trkpt>
      <trkpt lat="41.045" lon="20.18671">
        <ele>818.70001220703</ele>
        <time>2024-09-26T08:07:09.000Z</time>
      </trkpt>
      <trkpt lat="41.04496" lon="20.18682">
        <ele>819.65997314453</ele>
        <time>2024-09-26T08:07:10.000Z</time>
      </trkpt>
      <trkpt lat="41.04489" lon="20.18691">
        <ele>820.14001464844</ele>
        <time>2024-09-26T08:07:11.000Z</time>
      </trkpt>
      <trkpt lat="41.0448" lon="20.18699">
        <ele>820.61999511719</ele>
        <time>2024-09-26T08:07:12.000Z</time>
      </trkpt>
      <trkpt lat="41.04473" lon="20.18705">
        <ele>820.61999511719</ele>
        <time>2024-09-26T08:07:13.000Z</time>
      </trkpt>
      <trkpt lat="41.04467" lon="20.18713">
        <ele>821.09997558594</ele>
        <time>2024-09-26T08:07:14.000Z</time>
      </trkpt>
      <trkpt lat="41.04464" lon="20.18724">
        <ele>821.58001708984</ele>
        <time>2024-09-26T08:07:15.000Z</time>
      </trkpt>
      <trkpt lat="41.04464" lon="20.18735">
        <ele>821.58001708984</ele>
        <time>2024-09-26T08:07:16.000Z</time>
      </trkpt>
      <trkpt lat="41.04467" lon="20.18747">
        <ele>822.05999755859</ele>
        <time>2024-09-26T08:07:17.000Z</time>
      </trkpt>
      <trkpt lat="41.04477" lon="20.18773">
        <ele>822.05999755859</ele>
        <time>2024-09-26T08:07:18.000Z</time>
      </trkpt>
      <trkpt lat="41.04479" lon="20.18778">
        <ele>821.58001708984</ele>
        <time>2024-09-26T08:07:19.000Z</time>
      </trkpt>
      <trkpt lat="41.04485" lon="20.18789">
        <ele>821.58001708984</ele>
        <time>2024-09-26T08:07:20.000Z</time>
      </trkpt>
      <trkpt lat="41.04493" lon="20.188">
        <ele>821.09997558594</ele>
        <time>2024-09-26T08:07:21.000Z</time>
      </trkpt>
      <trkpt lat="41.04502" lon="20.1881">
        <ele>820.61999511719</ele>
        <time>2024-09-26T08:07:22.000Z</time>
      </trkpt>
      <trkpt lat="41.04514" lon="20.18816">
        <ele>820.14001464844</ele>
        <time>2024-09-26T08:07:23.000Z</time>
      </trkpt>
      <trkpt lat="41.04531" lon="20.18822">
        <ele>819.65997314453</ele>
        <time>2024-09-26T08:07:24.000Z</time>
      </trkpt>
      <trkpt lat="41.0454" lon="20.18826">
        <ele>819.17999267578</ele>
        <time>2024-09-26T08:07:25.000Z</time>
      </trkpt>
      <trkpt lat="41.0455" lon="20.18831">
        <ele>818.70001220703</ele>
        <time>2024-09-26T08:07:26.000Z</time>
      </trkpt>
      <trkpt lat="41.04558" lon="20.18837">
        <ele>818.21997070312</ele>
        <time>2024-09-26T08:07:27.000Z</time>
      </trkpt>
      <trkpt lat="41.04567" lon="20.18845">
        <ele>817.73999023438</ele>
        <time>2024-09-26T08:07:28.000Z</time>
      </trkpt>
      <trkpt lat="41.04574" lon="20.18856">
        <ele>817.26000976562</ele>
        <time>2024-09-26T08:07:29.000Z</time>
      </trkpt>
      <trkpt lat="41.04578" lon="20.18868">
        <ele>816.78002929688</ele>
        <time>2024-09-26T08:07:30.000Z</time>
      </trkpt>
      <trkpt lat="41.04579" lon="20.18881">
        <ele>817.26000976562</ele>
        <time>2024-09-26T08:07:31.000Z</time>
      </trkpt>
      <trkpt lat="41.04578" lon="20.18894">
        <ele>817.26000976562</ele>
        <time>2024-09-26T08:07:32.000Z</time>
      </trkpt>
      <trkpt lat="41.04575" lon="20.18906">
        <ele>817.26000976562</ele>
        <time>2024-09-26T08:07:33.000Z</time>
      </trkpt>
      <trkpt lat="41.04569" lon="20.18918">
        <ele>817.73999023438</ele>
        <time>2024-09-26T08:07:34.000Z</time>
      </trkpt>
      <trkpt lat="41.04557" lon="20.18936">
        <ele>819.65997314453</ele>
        <time>2024-09-26T08:07:35.000Z</time>
      </trkpt>
      <trkpt lat="41.04554" lon="20.1894">
        <ele>819.65997314453</ele>
        <time>2024-09-26T08:07:36.000Z</time>
      </trkpt>
      <trkpt lat="41.04517" lon="20.18978">
        <ele>822.54998779297</ele>
        <time>2024-09-26T08:07:40.000Z</time>
      </trkpt>
      <trkpt lat="41.04506" lon="20.18987">
        <ele>823.03002929688</ele>
        <time>2024-09-26T08:07:41.000Z</time>
      </trkpt>
      <trkpt lat="41.04463" lon="20.19014">
        <ele>823.98999023438</ele>
        <time>2024-09-26T08:07:44.000Z</time>
      </trkpt>
      <trkpt lat="41.04455" lon="20.19017">
        <ele>823.98999023438</ele>
        <time>2024-09-26T08:07:45.000Z</time>
      </trkpt>
      <trkpt lat="41.04441" lon="20.19023">
        <ele>824.46997070312</ele>
        <time>2024-09-26T08:07:46.000Z</time>
      </trkpt>
      <trkpt lat="41.0434" lon="20.19032">
        <ele>826.86999511719</ele>
        <time>2024-09-26T08:07:53.000Z</time>
      </trkpt>
      <trkpt lat="41.04327" lon="20.19034">
        <ele>826.86999511719</ele>
        <time>2024-09-26T08:07:54.000Z</time>
      </trkpt>
      <trkpt lat="41.04307" lon="20.1904">
        <ele>826.86999511719</ele>
        <time>2024-09-26T08:07:55.000Z</time>
      </trkpt>
      <trkpt lat="41.04304" lon="20.1904">
        <ele>826.86999511719</ele>
        <time>2024-09-26T08:07:56.000Z</time>
      </trkpt>
      <trkpt lat="41.04294" lon="20.19041">
        <ele>826.86999511719</ele>
        <time>2024-09-26T08:07:57.000Z</time>
      </trkpt>
      <trkpt lat="41.04285" lon="20.19037">
        <ele>826.86999511719</ele>
        <time>2024-09-26T08:07:58.000Z</time>
      </trkpt>
      <trkpt lat="41.04278" lon="20.19029">
        <ele>826.39001464844</ele>
        <time>2024-09-26T08:07:59.000Z</time>
      </trkpt>
      <trkpt lat="41.04266" lon="20.19009">
        <ele>825.90997314453</ele>
        <time>2024-09-26T08:08:00.000Z</time>
      </trkpt>
      <trkpt lat="41.04264" lon="20.19007">
        <ele>825.90997314453</ele>
        <time>2024-09-26T08:08:01.000Z</time>
      </trkpt>
      <trkpt lat="41.04256" lon="20.18998">
        <ele>825.42999267578</ele>
        <time>2024-09-26T08:08:02.000Z</time>
      </trkpt>
      <trkpt lat="41.04238" lon="20.18987">
        <ele>824.95001220703</ele>
        <time>2024-09-26T08:08:03.000Z</time>
      </trkpt>
      <trkpt lat="41.04222" lon="20.18977">
        <ele>824.46997070312</ele>
        <time>2024-09-26T08:08:05.000Z</time>
      </trkpt>
      <trkpt lat="41.04191" lon="20.18953">
        <ele>824.46997070312</ele>
        <time>2024-09-26T08:08:07.000Z</time>
      </trkpt>
      <trkpt lat="41.04185" lon="20.18947">
        <ele>824.46997070312</ele>
        <time>2024-09-26T08:08:08.000Z</time>
      </trkpt>
      <trkpt lat="41.04179" lon="20.18941">
        <ele>824.95001220703</ele>
        <time>2024-09-26T08:08:09.000Z</time>
      </trkpt>
      <trkpt lat="41.04115" lon="20.18884">
        <ele>824.46997070312</ele>
        <time>2024-09-26T08:08:14.000Z</time>
      </trkpt>
      <trkpt lat="41.04085" lon="20.18863">
        <ele>823.98999023438</ele>
        <time>2024-09-26T08:08:16.000Z</time>
      </trkpt>
      <trkpt lat="41.04077" lon="20.18859">
        <ele>823.98999023438</ele>
        <time>2024-09-26T08:08:17.000Z</time>
      </trkpt>
      <trkpt lat="41.04064" lon="20.18853">
        <ele>823.03002929688</ele>
        <time>2024-09-26T08:08:18.000Z</time>
      </trkpt>
      <trkpt lat="41.04036" lon="20.18843">
        <ele>822.05999755859</ele>
        <time>2024-09-26T08:08:19.000Z</time>
      </trkpt>
      <trkpt lat="41.04033" lon="20.18843">
        <ele>822.05999755859</ele>
        <time>2024-09-26T08:08:20.000Z</time>
      </trkpt>
      <trkpt lat="41.0402" lon="20.18839">
        <ele>822.05999755859</ele>
        <time>2024-09-26T08:08:21.000Z</time>
      </trkpt>
      <trkpt lat="41.04004" lon="20.18837">
        <ele>822.05999755859</ele>
        <time>2024-09-26T08:08:22.000Z</time>
      </trkpt>
      <trkpt lat="41.03951" lon="20.18844">
        <ele>823.03002929688</ele>
        <time>2024-09-26T08:08:25.000Z</time>
      </trkpt>
      <trkpt lat="41.03934" lon="20.18849">
        <ele>823.51000976562</ele>
        <time>2024-09-26T08:08:26.000Z</time>
      </trkpt>
      <trkpt lat="41.03806" lon="20.18902">
        <ele>827.34997558594</ele>
        <time>2024-09-26T08:08:33.000Z</time>
      </trkpt>
      <trkpt lat="41.03792" lon="20.18906">
        <ele>827.83001708984</ele>
        <time>2024-09-26T08:08:34.000Z</time>
      </trkpt>
      <trkpt lat="41.03712" lon="20.18918">
        <ele>833.59997558594</ele>
        <time>2024-09-26T08:08:39.000Z</time>
      </trkpt>
      <trkpt lat="41.03615" lon="20.18942">
        <ele>839.36999511719</ele>
        <time>2024-09-26T08:08:45.000Z</time>
      </trkpt>
      <trkpt lat="41.03605" lon="20.18946">
        <ele>839.84997558594</ele>
        <time>2024-09-26T08:08:46.000Z</time>
      </trkpt>
      <trkpt lat="41.03593" lon="20.18954">
        <ele>840.80999755859</ele>
        <time>2024-09-26T08:08:47.000Z</time>
      </trkpt>
      <trkpt lat="41.03582" lon="20.18962">
        <ele>841.28997802734</ele>
        <time>2024-09-26T08:08:48.000Z</time>
      </trkpt>
      <trkpt lat="41.03572" lon="20.18968">
        <ele>840.80999755859</ele>
        <time>2024-09-26T08:08:49.000Z</time>
      </trkpt>
      <trkpt lat="41.03562" lon="20.18969">
        <ele>840.33001708984</ele>
        <time>2024-09-26T08:08:50.000Z</time>
      </trkpt>
      <trkpt lat="41.03552" lon="20.18964">
        <ele>840.33001708984</ele>
        <time>2024-09-26T08:08:51.000Z</time>
      </trkpt>
      <trkpt lat="41.03545" lon="20.18956">
        <ele>839.84997558594</ele>
        <time>2024-09-26T08:08:52.000Z</time>
      </trkpt>
      <trkpt lat="41.03539" lon="20.18945">
        <ele>840.33001708984</ele>
        <time>2024-09-26T08:08:53.000Z</time>
      </trkpt>
      <trkpt lat="41.03537" lon="20.18931">
        <ele>840.33001708984</ele>
        <time>2024-09-26T08:08:54.000Z</time>
      </trkpt>
      <trkpt lat="41.03536" lon="20.18916">
        <ele>840.80999755859</ele>
        <time>2024-09-26T08:08:55.000Z</time>
      </trkpt>
      <trkpt lat="41.03532" lon="20.18903">
        <ele>840.80999755859</ele>
        <time>2024-09-26T08:08:56.000Z</time>
      </trkpt>
      <trkpt lat="41.03526" lon="20.18892">
        <ele>841.28997802734</ele>
        <time>2024-09-26T08:08:57.000Z</time>
      </trkpt>
      <trkpt lat="41.03517" lon="20.18885">
        <ele>842.25</ele>
        <time>2024-09-26T08:08:58.000Z</time>
      </trkpt>
      <trkpt lat="41.03506" lon="20.18883">
        <ele>842.72998046875</ele>
        <time>2024-09-26T08:08:59.000Z</time>
      </trkpt>
      <trkpt lat="41.03494" lon="20.18885">
        <ele>844.17999267578</ele>
        <time>2024-09-26T08:09:00.000Z</time>
      </trkpt>
      <trkpt lat="41.03483" lon="20.18892">
        <ele>845.14001464844</ele>
        <time>2024-09-26T08:09:01.000Z</time>
      </trkpt>
      <trkpt lat="41.03472" lon="20.18902">
        <ele>846.58001708984</ele>
        <time>2024-09-26T08:09:02.000Z</time>
      </trkpt>
      <trkpt lat="41.03463" lon="20.18912">
        <ele>847.53997802734</ele>
        <time>2024-09-26T08:09:03.000Z</time>
      </trkpt>
      <trkpt lat="41.03451" lon="20.18923">
        <ele>848.5</ele>
        <time>2024-09-26T08:09:04.000Z</time>
      </trkpt>
      <trkpt lat="41.0344" lon="20.18931">
        <ele>849.94000244141</ele>
        <time>2024-09-26T08:09:05.000Z</time>
      </trkpt>
      <trkpt lat="41.03428" lon="20.18936">
        <ele>851.38000488281</ele>
        <time>2024-09-26T08:09:06.000Z</time>
      </trkpt>
      <trkpt lat="41.03402" lon="20.18946">
        <ele>854.27001953125</ele>
        <time>2024-09-26T08:09:08.000Z</time>
      </trkpt>
      <trkpt lat="41.03396" lon="20.18948">
        <ele>855.22998046875</ele>
        <time>2024-09-26T08:09:09.000Z</time>
      </trkpt>
      <trkpt lat="41.03385" lon="20.18955">
        <ele>856.66998291016</ele>
        <time>2024-09-26T08:09:10.000Z</time>
      </trkpt>
      <trkpt lat="41.03376" lon="20.18961">
        <ele>858.10998535156</ele>
        <time>2024-09-26T08:09:11.000Z</time>
      </trkpt>
      <trkpt lat="41.03356" lon="20.18979">
        <ele>861</ele>
        <time>2024-09-26T08:09:13.000Z</time>
      </trkpt>
      <trkpt lat="41.03338" lon="20.18993">
        <ele>862.91998291016</ele>
        <time>2024-09-26T08:09:15.000Z</time>
      </trkpt>
      <trkpt lat="41.03328" lon="20.19">
        <ele>863.88000488281</ele>
        <time>2024-09-26T08:09:16.000Z</time>
      </trkpt>
      <trkpt lat="41.03317" lon="20.19005">
        <ele>864.35998535156</ele>
        <time>2024-09-26T08:09:17.000Z</time>
      </trkpt>
      <trkpt lat="41.03307" lon="20.19008">
        <ele>865.32000732422</ele>
        <time>2024-09-26T08:09:18.000Z</time>
      </trkpt>
      <trkpt lat="41.03296" lon="20.19008">
        <ele>865.79998779297</ele>
        <time>2024-09-26T08:09:19.000Z</time>
      </trkpt>
      <trkpt lat="41.03286" lon="20.19007">
        <ele>866.77001953125</ele>
        <time>2024-09-26T08:09:20.000Z</time>
      </trkpt>
      <trkpt lat="41.03275" lon="20.19007">
        <ele>867.72998046875</ele>
        <time>2024-09-26T08:09:21.000Z</time>
      </trkpt>
      <trkpt lat="41.03264" lon="20.19011">
        <ele>869.16998291016</ele>
        <time>2024-09-26T08:09:22.000Z</time>
      </trkpt>
      <trkpt lat="41.03237" lon="20.19026">
        <ele>870.60998535156</ele>
        <time>2024-09-26T08:09:24.000Z</time>
      </trkpt>
      <trkpt lat="41.03226" lon="20.19031">
        <ele>871.57000732422</ele>
        <time>2024-09-26T08:09:25.000Z</time>
      </trkpt>
      <trkpt lat="41.03167" lon="20.19049">
        <ele>872.53002929688</ele>
        <time>2024-09-26T08:09:29.000Z</time>
      </trkpt>
      <trkpt lat="41.03162" lon="20.19051">
        <ele>873.01000976562</ele>
        <time>2024-09-26T08:09:30.000Z</time>
      </trkpt>
      <trkpt lat="41.03152" lon="20.19057">
        <ele>873.5</ele>
        <time>2024-09-26T08:09:31.000Z</time>
      </trkpt>
      <trkpt lat="41.03144" lon="20.19066">
        <ele>873.97998046875</ele>
        <time>2024-09-26T08:09:32.000Z</time>
      </trkpt>
      <trkpt lat="41.0314" lon="20.19079">
        <ele>874.46002197266</ele>
        <time>2024-09-26T08:09:33.000Z</time>
      </trkpt>
      <trkpt lat="41.03137" lon="20.19101">
        <ele>874.94000244141</ele>
        <time>2024-09-26T08:09:34.000Z</time>
      </trkpt>
      <trkpt lat="41.03135" lon="20.19112">
        <ele>874.94000244141</ele>
        <time>2024-09-26T08:09:35.000Z</time>
      </trkpt>
      <trkpt lat="41.0313" lon="20.19125">
        <ele>874.94000244141</ele>
        <time>2024-09-26T08:09:36.000Z</time>
      </trkpt>
      <trkpt lat="41.03124" lon="20.19139">
        <ele>875.41998291016</ele>
        <time>2024-09-26T08:09:37.000Z</time>
      </trkpt>
      <trkpt lat="41.03115" lon="20.1915">
        <ele>875.41998291016</ele>
        <time>2024-09-26T08:09:38.000Z</time>
      </trkpt>
      <trkpt lat="41.03105" lon="20.19159">
        <ele>875.41998291016</ele>
        <time>2024-09-26T08:09:39.000Z</time>
      </trkpt>
      <trkpt lat="41.03084" lon="20.19173">
        <ele>875.41998291016</ele>
        <time>2024-09-26T08:09:40.000Z</time>
      </trkpt>
      <trkpt lat="41.03081" lon="20.19174">
        <ele>874.94000244141</ele>
        <time>2024-09-26T08:09:41.000Z</time>
      </trkpt>
      <trkpt lat="41.03072" lon="20.19182">
        <ele>874.94000244141</ele>
        <time>2024-09-26T08:09:42.000Z</time>
      </trkpt>
      <trkpt lat="41.03057" lon="20.19197">
        <ele>873.5</ele>
        <time>2024-09-26T08:09:43.000Z</time>
      </trkpt>
      <trkpt lat="41.03052" lon="20.19201">
        <ele>873.5</ele>
        <time>2024-09-26T08:09:44.000Z</time>
      </trkpt>
      <trkpt lat="41.03041" lon="20.19207">
        <ele>873.01000976562</ele>
        <time>2024-09-26T08:09:45.000Z</time>
      </trkpt>
      <trkpt lat="41.03031" lon="20.19209">
        <ele>872.53002929688</ele>
        <time>2024-09-26T08:09:46.000Z</time>
      </trkpt>
      <trkpt lat="41.03021" lon="20.19207">
        <ele>872.53002929688</ele>
        <time>2024-09-26T08:09:47.000Z</time>
      </trkpt>
      <trkpt lat="41.03011" lon="20.19202">
        <ele>872.53002929688</ele>
        <time>2024-09-26T08:09:48.000Z</time>
      </trkpt>
      <trkpt lat="41.03003" lon="20.19192">
        <ele>872.53002929688</ele>
        <time>2024-09-26T08:09:49.000Z</time>
      </trkpt>
      <trkpt lat="41.0298" lon="20.19146">
        <ele>873.5</ele>
        <time>2024-09-26T08:09:52.000Z</time>
      </trkpt>
      <trkpt lat="41.02978" lon="20.19141">
        <ele>873.5</ele>
        <time>2024-09-26T08:09:53.000Z</time>
      </trkpt>
      <trkpt lat="41.02971" lon="20.19133">
        <ele>873.97998046875</ele>
        <time>2024-09-26T08:09:54.000Z</time>
      </trkpt>
      <trkpt lat="41.02963" lon="20.19129">
        <ele>873.97998046875</ele>
        <time>2024-09-26T08:09:55.000Z</time>
      </trkpt>
      <trkpt lat="41.02955" lon="20.1913">
        <ele>874.46002197266</ele>
        <time>2024-09-26T08:09:56.000Z</time>
      </trkpt>
      <trkpt lat="41.02946" lon="20.19136">
        <ele>874.46002197266</ele>
        <time>2024-09-26T08:09:57.000Z</time>
      </trkpt>
      <trkpt lat="41.02928" lon="20.1915">
        <ele>874.46002197266</ele>
        <time>2024-09-26T08:09:58.000Z</time>
      </trkpt>
      <trkpt lat="41.02905" lon="20.19168">
        <ele>873.97998046875</ele>
        <time>2024-09-26T08:10:00.000Z</time>
      </trkpt>
      <trkpt lat="41.02903" lon="20.19169">
        <ele>873.97998046875</ele>
        <time>2024-09-26T08:10:01.000Z</time>
      </trkpt>
      <trkpt lat="41.02892" lon="20.19176">
        <ele>873.5</ele>
        <time>2024-09-26T08:10:02.000Z</time>
      </trkpt>
      <trkpt lat="41.0288" lon="20.19181">
        <ele>872.53002929688</ele>
        <time>2024-09-26T08:10:03.000Z</time>
      </trkpt>
      <trkpt lat="41.02867" lon="20.19183">
        <ele>872.04998779297</ele>
        <time>2024-09-26T08:10:04.000Z</time>
      </trkpt>
      <trkpt lat="41.02855" lon="20.19183">
        <ele>872.04998779297</ele>
        <time>2024-09-26T08:10:05.000Z</time>
      </trkpt>
      <trkpt lat="41.02837" lon="20.19181">
        <ele>872.04998779297</ele>
        <time>2024-09-26T08:10:06.000Z</time>
      </trkpt>
      <trkpt lat="41.0283" lon="20.1918">
        <ele>871.57000732422</ele>
        <time>2024-09-26T08:10:07.000Z</time>
      </trkpt>
      <trkpt lat="41.02818" lon="20.1918">
        <ele>871.09002685547</ele>
        <time>2024-09-26T08:10:08.000Z</time>
      </trkpt>
      <trkpt lat="41.02786" lon="20.19184">
        <ele>870.13000488281</ele>
        <time>2024-09-26T08:10:11.000Z</time>
      </trkpt>
      <trkpt lat="41.0278" lon="20.19185">
        <ele>869.65002441406</ele>
        <time>2024-09-26T08:10:12.000Z</time>
      </trkpt>
      <trkpt lat="41.02772" lon="20.19189">
        <ele>869.16998291016</ele>
        <time>2024-09-26T08:10:13.000Z</time>
      </trkpt>
      <trkpt lat="41.02763" lon="20.19197">
        <ele>868.21002197266</ele>
        <time>2024-09-26T08:10:14.000Z</time>
      </trkpt>
      <trkpt lat="41.02755" lon="20.19205">
        <ele>867.25</ele>
        <time>2024-09-26T08:10:15.000Z</time>
      </trkpt>
      <trkpt lat="41.02748" lon="20.19214">
        <ele>866.28997802734</ele>
        <time>2024-09-26T08:10:16.000Z</time>
      </trkpt>
      <trkpt lat="41.02734" lon="20.1924">
        <ele>863.40002441406</ele>
        <time>2024-09-26T08:10:18.000Z</time>
      </trkpt>
      <trkpt lat="41.02729" lon="20.19246">
        <ele>862.91998291016</ele>
        <time>2024-09-26T08:10:19.000Z</time>
      </trkpt>
      <trkpt lat="41.02721" lon="20.19255">
        <ele>861.96002197266</ele>
        <time>2024-09-26T08:10:20.000Z</time>
      </trkpt>
      <trkpt lat="41.02711" lon="20.19262">
        <ele>860.52001953125</ele>
        <time>2024-09-26T08:10:21.000Z</time>
      </trkpt>
      <trkpt lat="41.02692" lon="20.19271">
        <ele>858.59002685547</ele>
        <time>2024-09-26T08:10:22.000Z</time>
      </trkpt>
      <trkpt lat="41.02688" lon="20.19273">
        <ele>858.10998535156</ele>
        <time>2024-09-26T08:10:23.000Z</time>
      </trkpt>
      <trkpt lat="41.02678" lon="20.1928">
        <ele>857.15002441406</ele>
        <time>2024-09-26T08:10:24.000Z</time>
      </trkpt>
      <trkpt lat="41.0267" lon="20.1929">
        <ele>856.66998291016</ele>
        <time>2024-09-26T08:10:25.000Z</time>
      </trkpt>
      <trkpt lat="41.02665" lon="20.19301">
        <ele>856.66998291016</ele>
        <time>2024-09-26T08:10:26.000Z</time>
      </trkpt>
      <trkpt lat="41.0266" lon="20.19316">
        <ele>856.66998291016</ele>
        <time>2024-09-26T08:10:27.000Z</time>
      </trkpt>
      <trkpt lat="41.0266" lon="20.19317">
        <ele>856.66998291016</ele>
        <time>2024-09-26T08:10:28.000Z</time>
      </trkpt>
      <trkpt lat="41.02658" lon="20.19324">
        <ele>856.66998291016</ele>
        <time>2024-09-26T08:10:29.000Z</time>
      </trkpt>
      <trkpt lat="41.02655" lon="20.19329">
        <ele>856.66998291016</ele>
        <time>2024-09-26T08:10:30.000Z</time>
      </trkpt>
      <trkpt lat="41.02652" lon="20.19334">
        <ele>856.66998291016</ele>
        <time>2024-09-26T08:10:31.000Z</time>
      </trkpt>
      <trkpt lat="41.02649" lon="20.19338">
        <ele>856.66998291016</ele>
        <time>2024-09-26T08:10:32.000Z</time>
      </trkpt>
      <trkpt lat="41.02645" lon="20.1934">
        <ele>856.66998291016</ele>
        <time>2024-09-26T08:10:33.000Z</time>
      </trkpt>
      <trkpt lat="41.02623" lon="20.19347">
        <ele>856.66998291016</ele>
        <time>2024-09-26T08:10:43.000Z</time>
      </trkpt>
      <trkpt lat="41.02597" lon="20.19358">
        <ele>855.71002197266</ele>
        <time>2024-09-26T08:10:52.000Z</time>
      </trkpt>
      <trkpt lat="41.02594" lon="20.19359">
        <ele>855.71002197266</ele>
        <time>2024-09-26T08:10:53.000Z</time>
      </trkpt>
      <trkpt lat="41.02573" lon="20.19361">
        <ele>854.75</ele>
        <time>2024-09-26T08:10:58.000Z</time>
      </trkpt>
      <trkpt lat="41.02572" lon="20.19361">
        <ele>854.75</ele>
        <time>2024-09-26T08:10:59.000Z</time>
      </trkpt>
      <trkpt lat="41.02567" lon="20.19362">
        <ele>855.22998046875</ele>
        <time>2024-09-26T08:11:00.000Z</time>
      </trkpt>
      <trkpt lat="41.02562" lon="20.19364">
        <ele>855.22998046875</ele>
        <time>2024-09-26T08:11:01.000Z</time>
      </trkpt>
      <trkpt lat="41.02554" lon="20.19372">
        <ele>855.71002197266</ele>
        <time>2024-09-26T08:11:02.000Z</time>
      </trkpt>
      <trkpt lat="41.02546" lon="20.1938">
        <ele>856.19000244141</ele>
        <time>2024-09-26T08:11:03.000Z</time>
      </trkpt>
      <trkpt lat="41.02542" lon="20.19386">
        <ele>856.66998291016</ele>
        <time>2024-09-26T08:11:04.000Z</time>
      </trkpt>
      <trkpt lat="41.02513" lon="20.19424">
        <ele>861.96002197266</ele>
        <time>2024-09-26T08:11:07.000Z</time>
      </trkpt>
      <trkpt lat="41.02507" lon="20.19433">
        <ele>863.40002441406</ele>
        <time>2024-09-26T08:11:09.000Z</time>
      </trkpt>
      <trkpt lat="41.02503" lon="20.19438">
        <ele>863.88000488281</ele>
        <time>2024-09-26T08:11:10.000Z</time>
      </trkpt>
      <trkpt lat="41.0248" lon="20.19459">
        <ele>867.25</ele>
        <time>2024-09-26T08:11:18.000Z</time>
      </trkpt>
      <trkpt lat="41.02476" lon="20.19461">
        <ele>867.25</ele>
        <time>2024-09-26T08:11:19.000Z</time>
      </trkpt>
      <trkpt lat="41.02472" lon="20.19463">
        <ele>867.72998046875</ele>
        <time>2024-09-26T08:11:20.000Z</time>
      </trkpt>
      <trkpt lat="41.02467" lon="20.19465">
        <ele>868.21002197266</ele>
        <time>2024-09-26T08:11:21.000Z</time>
      </trkpt>
      <trkpt lat="41.02463" lon="20.19468">
        <ele>868.69000244141</ele>
        <time>2024-09-26T08:11:22.000Z</time>
      </trkpt>
      <trkpt lat="41.02458" lon="20.19474">
        <ele>869.16998291016</ele>
        <time>2024-09-26T08:11:23.000Z</time>
      </trkpt>
      <trkpt lat="41.02448" lon="20.19486">
        <ele>870.13000488281</ele>
        <time>2024-09-26T08:11:24.000Z</time>
      </trkpt>
      <trkpt lat="41.02443" lon="20.19493">
        <ele>871.09002685547</ele>
        <time>2024-09-26T08:11:25.000Z</time>
      </trkpt>
      <trkpt lat="41.02436" lon="20.19502">
        <ele>872.04998779297</ele>
        <time>2024-09-26T08:11:26.000Z</time>
      </trkpt>
      <trkpt lat="41.02424" lon="20.19515">
        <ele>873.5</ele>
        <time>2024-09-26T08:11:27.000Z</time>
      </trkpt>
      <trkpt lat="41.02419" lon="20.19522">
        <ele>874.46002197266</ele>
        <time>2024-09-26T08:11:28.000Z</time>
      </trkpt>
      <trkpt lat="41.02415" lon="20.19529">
        <ele>875.41998291016</ele>
        <time>2024-09-26T08:11:29.000Z</time>
      </trkpt>
      <trkpt lat="41.02412" lon="20.1954">
        <ele>876.85998535156</ele>
        <time>2024-09-26T08:11:30.000Z</time>
      </trkpt>
      <trkpt lat="41.02412" lon="20.19552">
        <ele>878.78002929688</ele>
        <time>2024-09-26T08:11:31.000Z</time>
      </trkpt>
      <trkpt lat="41.02415" lon="20.19571">
        <ele>880.71002197266</ele>
        <time>2024-09-26T08:11:32.000Z</time>
      </trkpt>
      <trkpt lat="41.02418" lon="20.19582">
        <ele>882.15002441406</ele>
        <time>2024-09-26T08:11:33.000Z</time>
      </trkpt>
      <trkpt lat="41.02419" lon="20.19596">
        <ele>883.10998535156</ele>
        <time>2024-09-26T08:11:34.000Z</time>
      </trkpt>
      <trkpt lat="41.02419" lon="20.19608">
        <ele>884.07000732422</ele>
        <time>2024-09-26T08:11:35.000Z</time>
      </trkpt>
      <trkpt lat="41.02415" lon="20.19619">
        <ele>884.54998779297</ele>
        <time>2024-09-26T08:11:36.000Z</time>
      </trkpt>
      <trkpt lat="41.02409" lon="20.19628">
        <ele>885.51000976562</ele>
        <time>2024-09-26T08:11:37.000Z</time>
      </trkpt>
      <trkpt lat="41.024" lon="20.19635">
        <ele>885.98999023438</ele>
        <time>2024-09-26T08:11:38.000Z</time>
      </trkpt>
      <trkpt lat="41.02389" lon="20.19642">
        <ele>886.46997070312</ele>
        <time>2024-09-26T08:11:39.000Z</time>
      </trkpt>
      <trkpt lat="41.02368" lon="20.19659">
        <ele>886.95001220703</ele>
        <time>2024-09-26T08:11:41.000Z</time>
      </trkpt>
      <trkpt lat="41.02362" lon="20.19663">
        <ele>887.42999267578</ele>
        <time>2024-09-26T08:11:42.000Z</time>
      </trkpt>
      <trkpt lat="41.02351" lon="20.19669">
        <ele>887.42999267578</ele>
        <time>2024-09-26T08:11:43.000Z</time>
      </trkpt>
      <trkpt lat="41.02339" lon="20.19673">
        <ele>888.40002441406</ele>
        <time>2024-09-26T08:11:44.000Z</time>
      </trkpt>
      <trkpt lat="41.02328" lon="20.19678">
        <ele>888.88000488281</ele>
        <time>2024-09-26T08:11:45.000Z</time>
      </trkpt>
      <trkpt lat="41.02318" lon="20.19686">
        <ele>889.35998535156</ele>
        <time>2024-09-26T08:11:46.000Z</time>
      </trkpt>
      <trkpt lat="41.02306" lon="20.19701">
        <ele>890.32000732422</ele>
        <time>2024-09-26T08:11:47.000Z</time>
      </trkpt>
      <trkpt lat="41.023" lon="20.19705">
        <ele>890.79998779297</ele>
        <time>2024-09-26T08:11:48.000Z</time>
      </trkpt>
      <trkpt lat="41.02292" lon="20.19709">
        <ele>891.28002929688</ele>
        <time>2024-09-26T08:11:49.000Z</time>
      </trkpt>
      <trkpt lat="41.02284" lon="20.19708">
        <ele>892.23999023438</ele>
        <time>2024-09-26T08:11:50.000Z</time>
      </trkpt>
      <trkpt lat="41.02276" lon="20.19704">
        <ele>892.71997070312</ele>
        <time>2024-09-26T08:11:51.000Z</time>
      </trkpt>
      <trkpt lat="41.02268" lon="20.19698">
        <ele>893.67999267578</ele>
        <time>2024-09-26T08:11:52.000Z</time>
      </trkpt>
      <trkpt lat="41.02259" lon="20.19694">
        <ele>894.64001464844</ele>
        <time>2024-09-26T08:11:53.000Z</time>
      </trkpt>
      <trkpt lat="41.02249" lon="20.19694">
        <ele>895.60998535156</ele>
        <time>2024-09-26T08:11:54.000Z</time>
      </trkpt>
      <trkpt lat="41.02238" lon="20.19697">
        <ele>896.09002685547</ele>
        <time>2024-09-26T08:11:55.000Z</time>
      </trkpt>
      <trkpt lat="41.02228" lon="20.19704">
        <ele>896.57000732422</ele>
        <time>2024-09-26T08:11:56.000Z</time>
      </trkpt>
      <trkpt lat="41.0222" lon="20.19715">
        <ele>898.01000976562</ele>
        <time>2024-09-26T08:11:57.000Z</time>
      </trkpt>
      <trkpt lat="41.02214" lon="20.19729">
        <ele>899.45001220703</ele>
        <time>2024-09-26T08:11:58.000Z</time>
      </trkpt>
      <trkpt lat="41.02207" lon="20.19756">
        <ele>902.82000732422</ele>
        <time>2024-09-26T08:12:00.000Z</time>
      </trkpt>
      <trkpt lat="41.02202" lon="20.1977">
        <ele>904.26000976562</ele>
        <time>2024-09-26T08:12:01.000Z</time>
      </trkpt>
      <trkpt lat="41.02202" lon="20.19772">
        <ele>904.26000976562</ele>
        <time>2024-09-26T08:12:02.000Z</time>
      </trkpt>
      <trkpt lat="41.022" lon="20.19779">
        <ele>905.21997070312</ele>
        <time>2024-09-26T08:12:03.000Z</time>
      </trkpt>
      <trkpt lat="41.02198" lon="20.19785">
        <ele>906.17999267578</ele>
        <time>2024-09-26T08:12:04.000Z</time>
      </trkpt>
      <trkpt lat="41.02193" lon="20.19799">
        <ele>907.61999511719</ele>
        <time>2024-09-26T08:12:05.000Z</time>
      </trkpt>
      <trkpt lat="41.0219" lon="20.19803">
        <ele>908.09997558594</ele>
        <time>2024-09-26T08:12:06.000Z</time>
      </trkpt>
      <trkpt lat="41.02183" lon="20.19816">
        <ele>909.53997802734</ele>
        <time>2024-09-26T08:12:07.000Z</time>
      </trkpt>
      <trkpt lat="41.0218" lon="20.19821">
        <ele>910.51000976562</ele>
        <time>2024-09-26T08:12:08.000Z</time>
      </trkpt>
      <trkpt lat="41.02176" lon="20.19832">
        <ele>911.46997070312</ele>
        <time>2024-09-26T08:12:09.000Z</time>
      </trkpt>
      <trkpt lat="41.02172" lon="20.19846">
        <ele>912.90997314453</ele>
        <time>2024-09-26T08:12:10.000Z</time>
      </trkpt>
      <trkpt lat="41.02169" lon="20.19859">
        <ele>914.34997558594</ele>
        <time>2024-09-26T08:12:11.000Z</time>
      </trkpt>
      <trkpt lat="41.02167" lon="20.1987">
        <ele>915.78997802734</ele>
        <time>2024-09-26T08:12:12.000Z</time>
      </trkpt>
      <trkpt lat="41.02165" lon="20.19886">
        <ele>917.23999023438</ele>
        <time>2024-09-26T08:12:13.000Z</time>
      </trkpt>
      <trkpt lat="41.02163" lon="20.199">
        <ele>918.20001220703</ele>
        <time>2024-09-26T08:12:18.000Z</time>
      </trkpt>
      <trkpt lat="41.02163" lon="20.19903">
        <ele>918.67999267578</ele>
        <time>2024-09-26T08:12:19.000Z</time>
      </trkpt>
      <trkpt lat="41.0216" lon="20.19908">
        <ele>919.15997314453</ele>
        <time>2024-09-26T08:12:20.000Z</time>
      </trkpt>
      <trkpt lat="41.02156" lon="20.19911">
        <ele>919.64001464844</ele>
        <time>2024-09-26T08:12:21.000Z</time>
      </trkpt>
      <trkpt lat="41.02152" lon="20.19913">
        <ele>919.64001464844</ele>
        <time>2024-09-26T08:12:22.000Z</time>
      </trkpt>
      <trkpt lat="41.02143" lon="20.19914">
        <ele>920.59997558594</ele>
        <time>2024-09-26T08:12:23.000Z</time>
      </trkpt>
      <trkpt lat="41.02138" lon="20.19915">
        <ele>921.08001708984</ele>
        <time>2024-09-26T08:12:24.000Z</time>
      </trkpt>
      <trkpt lat="41.0213" lon="20.19919">
        <ele>921.55999755859</ele>
        <time>2024-09-26T08:12:25.000Z</time>
      </trkpt>
      <trkpt lat="41.02122" lon="20.19925">
        <ele>922.52001953125</ele>
        <time>2024-09-26T08:12:26.000Z</time>
      </trkpt>
      <trkpt lat="41.02115" lon="20.19933">
        <ele>923.47998046875</ele>
        <time>2024-09-26T08:12:27.000Z</time>
      </trkpt>
      <trkpt lat="41.0211" lon="20.19941">
        <ele>923.96002197266</ele>
        <time>2024-09-26T08:12:28.000Z</time>
      </trkpt>
      <trkpt lat="41.02101" lon="20.19954">
        <ele>925.89001464844</ele>
        <time>2024-09-26T08:12:29.000Z</time>
      </trkpt>
      <trkpt lat="41.02099" lon="20.19958">
        <ele>926.36999511719</ele>
        <time>2024-09-26T08:12:30.000Z</time>
      </trkpt>
      <trkpt lat="41.02093" lon="20.19968">
        <ele>927.80999755859</ele>
        <time>2024-09-26T08:12:31.000Z</time>
      </trkpt>
      <trkpt lat="41.02089" lon="20.19981">
        <ele>929.25</ele>
        <time>2024-09-26T08:12:32.000Z</time>
      </trkpt>
      <trkpt lat="41.02086" lon="20.19997">
        <ele>930.69000244141</ele>
        <time>2024-09-26T08:12:33.000Z</time>
      </trkpt>
      <trkpt lat="41.0208" lon="20.20056">
        <ele>935.5</ele>
        <time>2024-09-26T08:12:36.000Z</time>
      </trkpt>
      <trkpt lat="41.02079" lon="20.2006">
        <ele>935.5</ele>
        <time>2024-09-26T08:12:37.000Z</time>
      </trkpt>
      <trkpt lat="41.02076" lon="20.20076">
        <ele>936.94000244141</ele>
        <time>2024-09-26T08:12:38.000Z</time>
      </trkpt>
      <trkpt lat="41.02073" lon="20.20087">
        <ele>937.90002441406</ele>
        <time>2024-09-26T08:12:39.000Z</time>
      </trkpt>
      <trkpt lat="41.02067" lon="20.20103">
        <ele>939.34997558594</ele>
        <time>2024-09-26T08:12:40.000Z</time>
      </trkpt>
      <trkpt lat="41.02061" lon="20.20118">
        <ele>940.30999755859</ele>
        <time>2024-09-26T08:12:41.000Z</time>
      </trkpt>
      <trkpt lat="41.02058" lon="20.20125">
        <ele>941.27001953125</ele>
        <time>2024-09-26T08:12:42.000Z</time>
      </trkpt>
      <trkpt lat="41.02054" lon="20.20132">
        <ele>941.75</ele>
        <time>2024-09-26T08:12:43.000Z</time>
      </trkpt>
      <trkpt lat="41.02048" lon="20.20141">
        <ele>942.71002197266</ele>
        <time>2024-09-26T08:12:44.000Z</time>
      </trkpt>
      <trkpt lat="41.02042" lon="20.20148">
        <ele>943.66998291016</ele>
        <time>2024-09-26T08:12:45.000Z</time>
      </trkpt>
      <trkpt lat="41.02025" lon="20.20161">
        <ele>945.59002685547</ele>
        <time>2024-09-26T08:12:47.000Z</time>
      </trkpt>
      <trkpt lat="41.02016" lon="20.20168">
        <ele>946.55999755859</ele>
        <time>2024-09-26T08:12:48.000Z</time>
      </trkpt>
      <trkpt lat="41.02001" lon="20.20176">
        <ele>947.52001953125</ele>
        <time>2024-09-26T08:12:50.000Z</time>
      </trkpt>
      <trkpt lat="41.01998" lon="20.20178">
        <ele>948</ele>
        <time>2024-09-26T08:12:51.000Z</time>
      </trkpt>
      <trkpt lat="41.01979" lon="20.20184">
        <ele>947.52001953125</ele>
        <time>2024-09-26T08:12:58.000Z</time>
      </trkpt>
      <trkpt lat="41.01964" lon="20.20191">
        <ele>946.55999755859</ele>
        <time>2024-09-26T08:13:08.000Z</time>
      </trkpt>
      <trkpt lat="41.01953" lon="20.20205">
        <ele>945.59002685547</ele>
        <time>2024-09-26T08:13:13.000Z</time>
      </trkpt>
      <trkpt lat="41.01941" lon="20.20226">
        <ele>944.15002441406</ele>
        <time>2024-09-26T08:13:18.000Z</time>
      </trkpt>
      <trkpt lat="41.0194" lon="20.20228">
        <ele>944.15002441406</ele>
        <time>2024-09-26T08:13:19.000Z</time>
      </trkpt>
      <trkpt lat="41.01938" lon="20.20232">
        <ele>944.15002441406</ele>
        <time>2024-09-26T08:13:20.000Z</time>
      </trkpt>
      <trkpt lat="41.01915" lon="20.20251">
        <ele>943.19000244141</ele>
        <time>2024-09-26T08:13:28.000Z</time>
      </trkpt>
      <trkpt lat="41.01914" lon="20.20251">
        <ele>943.19000244141</ele>
        <time>2024-09-26T08:13:47.000Z</time>
      </trkpt>
      <trkpt lat="41.01905" lon="20.20257">
        <ele>948</ele>
        <time>2024-09-26T08:17:42.000Z</time>
      </trkpt>
      <trkpt lat="41.01891" lon="20.20259">
        <ele>947.03997802734</ele>
        <time>2024-09-26T08:17:56.000Z</time>
      </trkpt>
      <trkpt lat="41.01876" lon="20.2026">
        <ele>946.07000732422</ele>
        <time>2024-09-26T08:18:05.000Z</time>
      </trkpt>
      <trkpt lat="41.01854" lon="20.20262">
        <ele>945.10998535156</ele>
        <time>2024-09-26T08:18:17.000Z</time>
      </trkpt>
      <trkpt lat="41.01833" lon="20.20268">
        <ele>943.66998291016</ele>
        <time>2024-09-26T08:18:31.000Z</time>
      </trkpt>
      <trkpt lat="41.01819" lon="20.20276">
        <ele>942.71002197266</ele>
        <time>2024-09-26T08:18:43.000Z</time>
      </trkpt>
      <trkpt lat="41.018" lon="20.20284">
        <ele>942.22998046875</ele>
        <time>2024-09-26T08:18:56.000Z</time>
      </trkpt>
      <trkpt lat="41.01782" lon="20.20303">
        <ele>942.22998046875</ele>
        <time>2024-09-26T08:19:08.000Z</time>
      </trkpt>
      <trkpt lat="41.01764" lon="20.20333">
        <ele>941.75</ele>
        <time>2024-09-26T08:19:19.000Z</time>
      </trkpt>
      <trkpt lat="41.01749" lon="20.20356">
        <ele>941.27001953125</ele>
        <time>2024-09-26T08:19:29.000Z</time>
      </trkpt>
      <trkpt lat="41.01731" lon="20.20379">
        <ele>940.30999755859</ele>
        <time>2024-09-26T08:19:40.000Z</time>
      </trkpt>
      <trkpt lat="41.01704" lon="20.2038">
        <ele>940.30999755859</ele>
        <time>2024-09-26T08:19:49.000Z</time>
      </trkpt>
      <trkpt lat="41.01685" lon="20.20384">
        <ele>939.83001708984</ele>
        <time>2024-09-26T08:19:57.000Z</time>
      </trkpt>
      <trkpt lat="41.01683" lon="20.20384">
        <ele>939.83001708984</ele>
        <time>2024-09-26T08:19:58.000Z</time>
      </trkpt>
      <trkpt lat="41.01679" lon="20.20387">
        <ele>939.83001708984</ele>
        <time>2024-09-26T08:19:59.000Z</time>
      </trkpt>
      <trkpt lat="41.01674" lon="20.20391">
        <ele>940.30999755859</ele>
        <time>2024-09-26T08:20:00.000Z</time>
      </trkpt>
      <trkpt lat="41.0167" lon="20.20396">
        <ele>940.30999755859</ele>
        <time>2024-09-26T08:20:01.000Z</time>
      </trkpt>
      <trkpt lat="41.0166" lon="20.20416">
        <ele>940.30999755859</ele>
        <time>2024-09-26T08:20:04.000Z</time>
      </trkpt>
      <trkpt lat="41.01656" lon="20.20425">
        <ele>940.30999755859</ele>
        <time>2024-09-26T08:20:05.000Z</time>
      </trkpt>
      <trkpt lat="41.01651" lon="20.20439">
        <ele>940.78997802734</ele>
        <time>2024-09-26T08:20:07.000Z</time>
      </trkpt>
      <trkpt lat="41.01645" lon="20.20451">
        <ele>940.78997802734</ele>
        <time>2024-09-26T08:20:08.000Z</time>
      </trkpt>
      <trkpt lat="41.01641" lon="20.20458">
        <ele>940.30999755859</ele>
        <time>2024-09-26T08:20:09.000Z</time>
      </trkpt>
      <trkpt lat="41.01635" lon="20.20466">
        <ele>940.30999755859</ele>
        <time>2024-09-26T08:20:10.000Z</time>
      </trkpt>
      <trkpt lat="41.01628" lon="20.20472">
        <ele>940.30999755859</ele>
        <time>2024-09-26T08:20:11.000Z</time>
      </trkpt>
      <trkpt lat="41.01617" lon="20.20481">
        <ele>940.30999755859</ele>
        <time>2024-09-26T08:20:12.000Z</time>
      </trkpt>
      <trkpt lat="41.01615" lon="20.20482">
        <ele>940.30999755859</ele>
        <time>2024-09-26T08:20:13.000Z</time>
      </trkpt>
      <trkpt lat="41.0161" lon="20.20487">
        <ele>940.30999755859</ele>
        <time>2024-09-26T08:20:14.000Z</time>
      </trkpt>
      <trkpt lat="41.01604" lon="20.20495">
        <ele>940.30999755859</ele>
        <time>2024-09-26T08:20:15.000Z</time>
      </trkpt>
      <trkpt lat="41.01599" lon="20.20503">
        <ele>940.78997802734</ele>
        <time>2024-09-26T08:20:16.000Z</time>
      </trkpt>
      <trkpt lat="41.01585" lon="20.20529">
        <ele>941.27001953125</ele>
        <time>2024-09-26T08:20:19.000Z</time>
      </trkpt>
      <trkpt lat="41.01578" lon="20.20539">
        <ele>941.27001953125</ele>
        <time>2024-09-26T08:20:20.000Z</time>
      </trkpt>
      <trkpt lat="41.01575" lon="20.20544">
        <ele>941.27001953125</ele>
        <time>2024-09-26T08:20:21.000Z</time>
      </trkpt>
      <trkpt lat="41.01568" lon="20.20552">
        <ele>941.75</ele>
        <time>2024-09-26T08:20:22.000Z</time>
      </trkpt>
      <trkpt lat="41.01563" lon="20.20557">
        <ele>941.75</ele>
        <time>2024-09-26T08:20:23.000Z</time>
      </trkpt>
      <trkpt lat="41.01542" lon="20.20578">
        <ele>942.71002197266</ele>
        <time>2024-09-26T08:20:26.000Z</time>
      </trkpt>
      <trkpt lat="41.0154" lon="20.2058">
        <ele>943.19000244141</ele>
        <time>2024-09-26T08:20:27.000Z</time>
      </trkpt>
      <trkpt lat="41.01533" lon="20.20585">
        <ele>943.19000244141</ele>
        <time>2024-09-26T08:20:28.000Z</time>
      </trkpt>
      <trkpt lat="41.01527" lon="20.20588">
        <ele>943.66998291016</ele>
        <time>2024-09-26T08:20:29.000Z</time>
      </trkpt>
      <trkpt lat="41.01521" lon="20.20589">
        <ele>943.66998291016</ele>
        <time>2024-09-26T08:20:30.000Z</time>
      </trkpt>
      <trkpt lat="41.01514" lon="20.20591">
        <ele>943.66998291016</ele>
        <time>2024-09-26T08:20:31.000Z</time>
      </trkpt>
      <trkpt lat="41.0149" lon="20.20603">
        <ele>945.59002685547</ele>
        <time>2024-09-26T08:20:40.000Z</time>
      </trkpt>
      <trkpt lat="41.01477" lon="20.20613">
        <ele>946.55999755859</ele>
        <time>2024-09-26T08:20:46.000Z</time>
      </trkpt>
      <trkpt lat="41.01473" lon="20.20615">
        <ele>946.55999755859</ele>
        <time>2024-09-26T08:20:47.000Z</time>
      </trkpt>
      <trkpt lat="41.01469" lon="20.20617">
        <ele>946.55999755859</ele>
        <time>2024-09-26T08:20:48.000Z</time>
      </trkpt>
      <trkpt lat="41.01459" lon="20.20623">
        <ele>947.03997802734</ele>
        <time>2024-09-26T08:20:49.000Z</time>
      </trkpt>
      <trkpt lat="41.01455" lon="20.20626">
        <ele>946.55999755859</ele>
        <time>2024-09-26T08:20:50.000Z</time>
      </trkpt>
      <trkpt lat="41.0145" lon="20.20631">
        <ele>946.55999755859</ele>
        <time>2024-09-26T08:20:51.000Z</time>
      </trkpt>
      <trkpt lat="41.01444" lon="20.20638">
        <ele>946.07000732422</ele>
        <time>2024-09-26T08:20:52.000Z</time>
      </trkpt>
      <trkpt lat="41.01438" lon="20.20646">
        <ele>945.59002685547</ele>
        <time>2024-09-26T08:20:53.000Z</time>
      </trkpt>
      <trkpt lat="41.0142" lon="20.20682">
        <ele>941.75</ele>
        <time>2024-09-26T08:20:56.000Z</time>
      </trkpt>
      <trkpt lat="41.01415" lon="20.20689">
        <ele>941.75</ele>
        <time>2024-09-26T08:20:57.000Z</time>
      </trkpt>
      <trkpt lat="41.01408" lon="20.20696">
        <ele>941.27001953125</ele>
        <time>2024-09-26T08:20:58.000Z</time>
      </trkpt>
      <trkpt lat="41.01402" lon="20.20699">
        <ele>941.27001953125</ele>
        <time>2024-09-26T08:20:59.000Z</time>
      </trkpt>
      <trkpt lat="41.01394" lon="20.20699">
        <ele>941.27001953125</ele>
        <time>2024-09-26T08:21:00.000Z</time>
      </trkpt>
      <trkpt lat="41.01387" lon="20.20696">
        <ele>941.27001953125</ele>
        <time>2024-09-26T08:21:01.000Z</time>
      </trkpt>
      <trkpt lat="41.01378" lon="20.20693">
        <ele>941.75</ele>
        <time>2024-09-26T08:21:02.000Z</time>
      </trkpt>
      <trkpt lat="41.0137" lon="20.20691">
        <ele>942.22998046875</ele>
        <time>2024-09-26T08:21:03.000Z</time>
      </trkpt>
      <trkpt lat="41.01364" lon="20.20694">
        <ele>942.71002197266</ele>
        <time>2024-09-26T08:21:04.000Z</time>
      </trkpt>
      <trkpt lat="41.01359" lon="20.20701">
        <ele>943.66998291016</ele>
        <time>2024-09-26T08:21:05.000Z</time>
      </trkpt>
      <trkpt lat="41.01354" lon="20.20711">
        <ele>944.63000488281</ele>
        <time>2024-09-26T08:21:06.000Z</time>
      </trkpt>
      <trkpt lat="41.01351" lon="20.20721">
        <ele>946.07000732422</ele>
        <time>2024-09-26T08:21:07.000Z</time>
      </trkpt>
      <trkpt lat="41.01348" lon="20.20732">
        <ele>947.03997802734</ele>
        <time>2024-09-26T08:21:08.000Z</time>
      </trkpt>
      <trkpt lat="41.01344" lon="20.20747">
        <ele>948</ele>
        <time>2024-09-26T08:21:09.000Z</time>
      </trkpt>
      <trkpt lat="41.01342" lon="20.20758">
        <ele>948.47998046875</ele>
        <time>2024-09-26T08:21:10.000Z</time>
      </trkpt>
      <trkpt lat="41.01339" lon="20.20765">
        <ele>948.96002197266</ele>
        <time>2024-09-26T08:21:11.000Z</time>
      </trkpt>
      <trkpt lat="41.01333" lon="20.20776">
        <ele>948.96002197266</ele>
        <time>2024-09-26T08:21:12.000Z</time>
      </trkpt>
      <trkpt lat="41.01282" lon="20.20839">
        <ele>951.84002685547</ele>
        <time>2024-09-26T08:21:19.000Z</time>
      </trkpt>
      <trkpt lat="41.01276" lon="20.20845">
        <ele>951.84002685547</ele>
        <time>2024-09-26T08:21:20.000Z</time>
      </trkpt>
      <trkpt lat="41.01269" lon="20.2085">
        <ele>951.84002685547</ele>
        <time>2024-09-26T08:21:21.000Z</time>
      </trkpt>
      <trkpt lat="41.0126" lon="20.20854">
        <ele>951.84002685547</ele>
        <time>2024-09-26T08:21:22.000Z</time>
      </trkpt>
      <trkpt lat="41.01251" lon="20.20856">
        <ele>951.84002685547</ele>
        <time>2024-09-26T08:21:23.000Z</time>
      </trkpt>
      <trkpt lat="41.01236" lon="20.20858">
        <ele>952.32000732422</ele>
        <time>2024-09-26T08:21:25.000Z</time>
      </trkpt>
      <trkpt lat="41.0123" lon="20.20859">
        <ele>952.79998779297</ele>
        <time>2024-09-26T08:21:26.000Z</time>
      </trkpt>
      <trkpt lat="41.01225" lon="20.20861">
        <ele>952.79998779297</ele>
        <time>2024-09-26T08:21:27.000Z</time>
      </trkpt>
      <trkpt lat="41.01221" lon="20.20864">
        <ele>952.79998779297</ele>
        <time>2024-09-26T08:21:28.000Z</time>
      </trkpt>
      <trkpt lat="41.01214" lon="20.20872">
        <ele>952.79998779297</ele>
        <time>2024-09-26T08:21:29.000Z</time>
      </trkpt>
      <trkpt lat="41.01211" lon="20.20874">
        <ele>952.79998779297</ele>
        <time>2024-09-26T08:21:30.000Z</time>
      </trkpt>
      <trkpt lat="41.01207" lon="20.20877">
        <ele>952.32000732422</ele>
        <time>2024-09-26T08:21:31.000Z</time>
      </trkpt>
      <trkpt lat="41.01201" lon="20.20879">
        <ele>952.32000732422</ele>
        <time>2024-09-26T08:21:32.000Z</time>
      </trkpt>
      <trkpt lat="41.01197" lon="20.2088">
        <ele>951.84002685547</ele>
        <time>2024-09-26T08:21:33.000Z</time>
      </trkpt>
      <trkpt lat="41.01191" lon="20.2088">
        <ele>951.84002685547</ele>
        <time>2024-09-26T08:21:34.000Z</time>
      </trkpt>
      <trkpt lat="41.01184" lon="20.20879">
        <ele>951.35998535156</ele>
        <time>2024-09-26T08:21:35.000Z</time>
      </trkpt>
      <trkpt lat="41.01179" lon="20.20878">
        <ele>951.35998535156</ele>
        <time>2024-09-26T08:21:36.000Z</time>
      </trkpt>
      <trkpt lat="41.01176" lon="20.20877">
        <ele>951.35998535156</ele>
        <time>2024-09-26T08:21:37.000Z</time>
      </trkpt>
      <trkpt lat="41.01171" lon="20.20875">
        <ele>950.88000488281</ele>
        <time>2024-09-26T08:21:38.000Z</time>
      </trkpt>
      <trkpt lat="41.01159" lon="20.20869">
        <ele>950.88000488281</ele>
        <time>2024-09-26T08:21:40.000Z</time>
      </trkpt>
      <trkpt lat="41.01155" lon="20.20868">
        <ele>950.88000488281</ele>
        <time>2024-09-26T08:21:41.000Z</time>
      </trkpt>
      <trkpt lat="41.0115" lon="20.20867">
        <ele>951.35998535156</ele>
        <time>2024-09-26T08:21:42.000Z</time>
      </trkpt>
      <trkpt lat="41.01145" lon="20.20868">
        <ele>951.84002685547</ele>
        <time>2024-09-26T08:21:43.000Z</time>
      </trkpt>
      <trkpt lat="41.0114" lon="20.2087">
        <ele>952.32000732422</ele>
        <time>2024-09-26T08:21:44.000Z</time>
      </trkpt>
      <trkpt lat="41.01135" lon="20.20874">
        <ele>953.28002929688</ele>
        <time>2024-09-26T08:21:45.000Z</time>
      </trkpt>
      <trkpt lat="41.01128" lon="20.20882">
        <ele>954.25</ele>
        <time>2024-09-26T08:21:47.000Z</time>
      </trkpt>
      <trkpt lat="41.01124" lon="20.20887">
        <ele>954.25</ele>
        <time>2024-09-26T08:21:48.000Z</time>
      </trkpt>
      <trkpt lat="41.0112" lon="20.20892">
        <ele>954.25</ele>
        <time>2024-09-26T08:21:49.000Z</time>
      </trkpt>
      <trkpt lat="41.01118" lon="20.20895">
        <ele>954.25</ele>
        <time>2024-09-26T08:21:50.000Z</time>
      </trkpt>
      <trkpt lat="41.01115" lon="20.20899">
        <ele>954.25</ele>
        <time>2024-09-26T08:21:51.000Z</time>
      </trkpt>
      <trkpt lat="41.01111" lon="20.20903">
        <ele>954.25</ele>
        <time>2024-09-26T08:21:52.000Z</time>
      </trkpt>
      <trkpt lat="41.01106" lon="20.20906">
        <ele>954.25</ele>
        <time>2024-09-26T08:21:53.000Z</time>
      </trkpt>
      <trkpt lat="41.01094" lon="20.20913">
        <ele>953.77001953125</ele>
        <time>2024-09-26T08:21:56.000Z</time>
      </trkpt>
      <trkpt lat="41.01086" lon="20.20917">
        <ele>953.77001953125</ele>
        <time>2024-09-26T08:21:57.000Z</time>
      </trkpt>
      <trkpt lat="41.01084" lon="20.20918">
        <ele>953.77001953125</ele>
        <time>2024-09-26T08:21:58.000Z</time>
      </trkpt>
      <trkpt lat="41.01074" lon="20.20924">
        <ele>953.28002929688</ele>
        <time>2024-09-26T08:22:00.000Z</time>
      </trkpt>
      <trkpt lat="41.01071" lon="20.20925">
        <ele>953.28002929688</ele>
        <time>2024-09-26T08:22:01.000Z</time>
      </trkpt>
      <trkpt lat="41.01059" lon="20.2093">
        <ele>952.79998779297</ele>
        <time>2024-09-26T08:22:03.000Z</time>
      </trkpt>
      <trkpt lat="41.01044" lon="20.20937">
        <ele>952.79998779297</ele>
        <time>2024-09-26T08:22:05.000Z</time>
      </trkpt>
      <trkpt lat="41.01042" lon="20.20938">
        <ele>952.79998779297</ele>
        <time>2024-09-26T08:22:06.000Z</time>
      </trkpt>
      <trkpt lat="41.01036" lon="20.20941">
        <ele>952.79998779297</ele>
        <time>2024-09-26T08:22:07.000Z</time>
      </trkpt>
      <trkpt lat="41.01028" lon="20.20949">
        <ele>952.79998779297</ele>
        <time>2024-09-26T08:22:10.000Z</time>
      </trkpt>
      <trkpt lat="41.01024" lon="20.20956">
        <ele>951.84002685547</ele>
        <time>2024-09-26T08:22:11.000Z</time>
      </trkpt>
      <trkpt lat="41.01021" lon="20.20961">
        <ele>951.84002685547</ele>
        <time>2024-09-26T08:22:12.000Z</time>
      </trkpt>
      <trkpt lat="41.01006" lon="20.20984">
        <ele>950.88000488281</ele>
        <time>2024-09-26T08:22:15.000Z</time>
      </trkpt>
      <trkpt lat="41.01003" lon="20.20989">
        <ele>950.88000488281</ele>
        <time>2024-09-26T08:22:16.000Z</time>
      </trkpt>
      <trkpt lat="41.00988" lon="20.21004">
        <ele>950.40002441406</ele>
        <time>2024-09-26T08:22:21.000Z</time>
      </trkpt>
      <trkpt lat="41.00985" lon="20.21005">
        <ele>949.91998291016</ele>
        <time>2024-09-26T08:22:22.000Z</time>
      </trkpt>
      <trkpt lat="41.0098" lon="20.21007">
        <ele>949.91998291016</ele>
        <time>2024-09-26T08:22:23.000Z</time>
      </trkpt>
      <trkpt lat="41.00975" lon="20.21008">
        <ele>949.91998291016</ele>
        <time>2024-09-26T08:22:24.000Z</time>
      </trkpt>
      <trkpt lat="41.00964" lon="20.21007">
        <ele>949.91998291016</ele>
        <time>2024-09-26T08:22:25.000Z</time>
      </trkpt>
      <trkpt lat="41.00961" lon="20.21007">
        <ele>950.40002441406</ele>
        <time>2024-09-26T08:22:26.000Z</time>
      </trkpt>
      <trkpt lat="41.00956" lon="20.21006">
        <ele>950.88000488281</ele>
        <time>2024-09-26T08:22:27.000Z</time>
      </trkpt>
      <trkpt lat="41.00951" lon="20.21007">
        <ele>951.35998535156</ele>
        <time>2024-09-26T08:22:28.000Z</time>
      </trkpt>
      <trkpt lat="41.00947" lon="20.2101">
        <ele>951.84002685547</ele>
        <time>2024-09-26T08:22:29.000Z</time>
      </trkpt>
      <trkpt lat="41.00943" lon="20.21014">
        <ele>951.84002685547</ele>
        <time>2024-09-26T08:22:30.000Z</time>
      </trkpt>
      <trkpt lat="41.00941" lon="20.21019">
        <ele>952.32000732422</ele>
        <time>2024-09-26T08:22:31.000Z</time>
      </trkpt>
      <trkpt lat="41.00939" lon="20.21024">
        <ele>952.32000732422</ele>
        <time>2024-09-26T08:22:32.000Z</time>
      </trkpt>
      <trkpt lat="41.00938" lon="20.2103">
        <ele>951.84002685547</ele>
        <time>2024-09-26T08:22:33.000Z</time>
      </trkpt>
      <trkpt lat="41.00937" lon="20.21038">
        <ele>951.35998535156</ele>
        <time>2024-09-26T08:22:34.000Z</time>
      </trkpt>
      <trkpt lat="41.00936" lon="20.21046">
        <ele>950.88000488281</ele>
        <time>2024-09-26T08:22:35.000Z</time>
      </trkpt>
      <trkpt lat="41.00936" lon="20.2106">
        <ele>949.91998291016</ele>
        <time>2024-09-26T08:22:36.000Z</time>
      </trkpt>
      <trkpt lat="41.00935" lon="20.21063">
        <ele>949.44000244141</ele>
        <time>2024-09-26T08:22:37.000Z</time>
      </trkpt>
      <trkpt lat="41.00932" lon="20.21084">
        <ele>948</ele>
        <time>2024-09-26T08:22:39.000Z</time>
      </trkpt>
      <trkpt lat="41.00931" lon="20.21091">
        <ele>947.52001953125</ele>
        <time>2024-09-26T08:22:40.000Z</time>
      </trkpt>
      <trkpt lat="41.0093" lon="20.21098">
        <ele>947.03997802734</ele>
        <time>2024-09-26T08:22:41.000Z</time>
      </trkpt>
      <trkpt lat="41.00929" lon="20.211">
        <ele>946.55999755859</ele>
        <time>2024-09-26T08:22:42.000Z</time>
      </trkpt>
      <trkpt lat="41.00927" lon="20.21118">
        <ele>944.63000488281</ele>
        <time>2024-09-26T08:22:44.000Z</time>
      </trkpt>
      <trkpt lat="41.00927" lon="20.21123">
        <ele>944.15002441406</ele>
        <time>2024-09-26T08:22:45.000Z</time>
      </trkpt>
      <trkpt lat="41.00926" lon="20.21132">
        <ele>943.19000244141</ele>
        <time>2024-09-26T08:22:46.000Z</time>
      </trkpt>
      <trkpt lat="41.00924" lon="20.21145">
        <ele>941.75</ele>
        <time>2024-09-26T08:22:47.000Z</time>
      </trkpt>
      <trkpt lat="41.00924" lon="20.21147">
        <ele>941.27001953125</ele>
        <time>2024-09-26T08:22:48.000Z</time>
      </trkpt>
      <trkpt lat="41.00917" lon="20.21175">
        <ele>939.34997558594</ele>
        <time>2024-09-26T08:22:51.000Z</time>
      </trkpt>
      <trkpt lat="41.00916" lon="20.2118">
        <ele>938.85998535156</ele>
        <time>2024-09-26T08:22:52.000Z</time>
      </trkpt>
      <trkpt lat="41.00914" lon="20.21198">
        <ele>938.85998535156</ele>
        <time>2024-09-26T08:22:54.000Z</time>
      </trkpt>
      <trkpt lat="41.00913" lon="20.21238">
        <ele>938.38000488281</ele>
        <time>2024-09-26T08:22:58.000Z</time>
      </trkpt>
      <trkpt lat="41.00914" lon="20.21256">
        <ele>938.38000488281</ele>
        <time>2024-09-26T08:22:59.000Z</time>
      </trkpt>
      <trkpt lat="41.00914" lon="20.2126">
        <ele>938.38000488281</ele>
        <time>2024-09-26T08:23:00.000Z</time>
      </trkpt>
      <trkpt lat="41.00914" lon="20.21271">
        <ele>938.38000488281</ele>
        <time>2024-09-26T08:23:01.000Z</time>
      </trkpt>
      <trkpt lat="41.00913" lon="20.21285">
        <ele>938.38000488281</ele>
        <time>2024-09-26T08:23:02.000Z</time>
      </trkpt>
      <trkpt lat="41.00913" lon="20.2129">
        <ele>938.38000488281</ele>
        <time>2024-09-26T08:23:03.000Z</time>
      </trkpt>
      <trkpt lat="41.00912" lon="20.21299">
        <ele>938.38000488281</ele>
        <time>2024-09-26T08:23:04.000Z</time>
      </trkpt>
      <trkpt lat="41.00909" lon="20.2131">
        <ele>938.38000488281</ele>
        <time>2024-09-26T08:23:05.000Z</time>
      </trkpt>
      <trkpt lat="41.00907" lon="20.21327">
        <ele>937.90002441406</ele>
        <time>2024-09-26T08:23:06.000Z</time>
      </trkpt>
      <trkpt lat="41.00907" lon="20.2133">
        <ele>937.41998291016</ele>
        <time>2024-09-26T08:23:07.000Z</time>
      </trkpt>
      <trkpt lat="41.00906" lon="20.2134">
        <ele>937.41998291016</ele>
        <time>2024-09-26T08:23:08.000Z</time>
      </trkpt>
      <trkpt lat="41.00906" lon="20.21351">
        <ele>937.41998291016</ele>
        <time>2024-09-26T08:23:09.000Z</time>
      </trkpt>
      <trkpt lat="41.00907" lon="20.21358">
        <ele>936.94000244141</ele>
        <time>2024-09-26T08:23:10.000Z</time>
      </trkpt>
      <trkpt lat="41.00908" lon="20.21366">
        <ele>936.94000244141</ele>
        <time>2024-09-26T08:23:11.000Z</time>
      </trkpt>
      <trkpt lat="41.00911" lon="20.21374">
        <ele>936.94000244141</ele>
        <time>2024-09-26T08:23:12.000Z</time>
      </trkpt>
      <trkpt lat="41.00914" lon="20.21381">
        <ele>936.94000244141</ele>
        <time>2024-09-26T08:23:13.000Z</time>
      </trkpt>
      <trkpt lat="41.00917" lon="20.21386">
        <ele>936.94000244141</ele>
        <time>2024-09-26T08:23:14.000Z</time>
      </trkpt>
      <trkpt lat="41.00921" lon="20.21392">
        <ele>936.94000244141</ele>
        <time>2024-09-26T08:23:15.000Z</time>
      </trkpt>
      <trkpt lat="41.00923" lon="20.21399">
        <ele>936.94000244141</ele>
        <time>2024-09-26T08:23:16.000Z</time>
      </trkpt>
      <trkpt lat="41.00924" lon="20.21407">
        <ele>937.41998291016</ele>
        <time>2024-09-26T08:23:17.000Z</time>
      </trkpt>
      <trkpt lat="41.00923" lon="20.21414">
        <ele>937.41998291016</ele>
        <time>2024-09-26T08:23:18.000Z</time>
      </trkpt>
      <trkpt lat="41.00921" lon="20.2142">
        <ele>937.41998291016</ele>
        <time>2024-09-26T08:23:19.000Z</time>
      </trkpt>
      <trkpt lat="41.00919" lon="20.21427">
        <ele>937.41998291016</ele>
        <time>2024-09-26T08:23:20.000Z</time>
      </trkpt>
      <trkpt lat="41.00918" lon="20.21434">
        <ele>936.94000244141</ele>
        <time>2024-09-26T08:23:21.000Z</time>
      </trkpt>
      <trkpt lat="41.00918" lon="20.21444">
        <ele>936.46002197266</ele>
        <time>2024-09-26T08:23:22.000Z</time>
      </trkpt>
      <trkpt lat="41.00918" lon="20.21449">
        <ele>936.46002197266</ele>
        <time>2024-09-26T08:23:23.000Z</time>
      </trkpt>
      <trkpt lat="41.00918" lon="20.21456">
        <ele>936.46002197266</ele>
        <time>2024-09-26T08:23:24.000Z</time>
      </trkpt>
      <trkpt lat="41.00917" lon="20.21464">
        <ele>936.46002197266</ele>
        <time>2024-09-26T08:23:25.000Z</time>
      </trkpt>
      <trkpt lat="41.00915" lon="20.21471">
        <ele>936.46002197266</ele>
        <time>2024-09-26T08:23:26.000Z</time>
      </trkpt>
      <trkpt lat="41.00911" lon="20.21476">
        <ele>935.97998046875</ele>
        <time>2024-09-26T08:23:27.000Z</time>
      </trkpt>
      <trkpt lat="41.00907" lon="20.21479">
        <ele>935.5</ele>
        <time>2024-09-26T08:23:28.000Z</time>
      </trkpt>
      <trkpt lat="41.00901" lon="20.21481">
        <ele>935.02001953125</ele>
        <time>2024-09-26T08:23:29.000Z</time>
      </trkpt>
      <trkpt lat="41.00896" lon="20.21482">
        <ele>934.53997802734</ele>
        <time>2024-09-26T08:23:30.000Z</time>
      </trkpt>
      <trkpt lat="41.00889" lon="20.21484">
        <ele>934.05999755859</ele>
        <time>2024-09-26T08:23:31.000Z</time>
      </trkpt>
      <trkpt lat="41.00883" lon="20.21488">
        <ele>933.09997558594</ele>
        <time>2024-09-26T08:23:32.000Z</time>
      </trkpt>
      <trkpt lat="41.00872" lon="20.21498">
        <ele>932.14001464844</ele>
        <time>2024-09-26T08:23:33.000Z</time>
      </trkpt>
      <trkpt lat="41.0087" lon="20.215">
        <ele>932.14001464844</ele>
        <time>2024-09-26T08:23:34.000Z</time>
      </trkpt>
      <trkpt lat="41.00861" lon="20.21506">
        <ele>931.65002441406</ele>
        <time>2024-09-26T08:23:35.000Z</time>
      </trkpt>
      <trkpt lat="41.00854" lon="20.2151">
        <ele>931.16998291016</ele>
        <time>2024-09-26T08:23:36.000Z</time>
      </trkpt>
      <trkpt lat="41.00848" lon="20.21513">
        <ele>931.16998291016</ele>
        <time>2024-09-26T08:23:37.000Z</time>
      </trkpt>
      <trkpt lat="41.00841" lon="20.21515">
        <ele>930.69000244141</ele>
        <time>2024-09-26T08:23:38.000Z</time>
      </trkpt>
      <trkpt lat="41.00832" lon="20.21516">
        <ele>930.21002197266</ele>
        <time>2024-09-26T08:23:39.000Z</time>
      </trkpt>
      <trkpt lat="41.00827" lon="20.21517">
        <ele>930.21002197266</ele>
        <time>2024-09-26T08:23:40.000Z</time>
      </trkpt>
      <trkpt lat="41.00821" lon="20.2152">
        <ele>929.72998046875</ele>
        <time>2024-09-26T08:23:41.000Z</time>
      </trkpt>
      <trkpt lat="41.00817" lon="20.21525">
        <ele>929.72998046875</ele>
        <time>2024-09-26T08:23:42.000Z</time>
      </trkpt>
      <trkpt lat="41.00813" lon="20.21531">
        <ele>929.25</ele>
        <time>2024-09-26T08:23:43.000Z</time>
      </trkpt>
      <trkpt lat="41.00811" lon="20.21539">
        <ele>928.77001953125</ele>
        <time>2024-09-26T08:23:44.000Z</time>
      </trkpt>
      <trkpt lat="41.00809" lon="20.2155">
        <ele>929.25</ele>
        <time>2024-09-26T08:23:45.000Z</time>
      </trkpt>
      <trkpt lat="41.00808" lon="20.21559">
        <ele>929.25</ele>
        <time>2024-09-26T08:23:46.000Z</time>
      </trkpt>
      <trkpt lat="41.00806" lon="20.21565">
        <ele>929.25</ele>
        <time>2024-09-26T08:23:47.000Z</time>
      </trkpt>
      <trkpt lat="41.00803" lon="20.21571">
        <ele>929.25</ele>
        <time>2024-09-26T08:23:48.000Z</time>
      </trkpt>
      <trkpt lat="41.00799" lon="20.21575">
        <ele>929.25</ele>
        <time>2024-09-26T08:23:49.000Z</time>
      </trkpt>
      <trkpt lat="41.00793" lon="20.21577">
        <ele>928.77001953125</ele>
        <time>2024-09-26T08:23:50.000Z</time>
      </trkpt>
      <trkpt lat="41.00786" lon="20.21578">
        <ele>928.77001953125</ele>
        <time>2024-09-26T08:23:51.000Z</time>
      </trkpt>
      <trkpt lat="41.00778" lon="20.21579">
        <ele>927.80999755859</ele>
        <time>2024-09-26T08:23:52.000Z</time>
      </trkpt>
      <trkpt lat="41.0077" lon="20.21581">
        <ele>926.84997558594</ele>
        <time>2024-09-26T08:23:53.000Z</time>
      </trkpt>
      <trkpt lat="41.00756" lon="20.21587">
        <ele>925.40997314453</ele>
        <time>2024-09-26T08:23:54.000Z</time>
      </trkpt>
      <trkpt lat="41.00746" lon="20.21591">
        <ele>924.45001220703</ele>
        <time>2024-09-26T08:23:55.000Z</time>
      </trkpt>
      <trkpt lat="41.00745" lon="20.21592">
        <ele>924.45001220703</ele>
        <time>2024-09-26T08:23:56.000Z</time>
      </trkpt>
      <trkpt lat="41.00736" lon="20.21594">
        <ele>923.47998046875</ele>
        <time>2024-09-26T08:23:57.000Z</time>
      </trkpt>
      <trkpt lat="41.0073" lon="20.21594">
        <ele>923</ele>
        <time>2024-09-26T08:23:58.000Z</time>
      </trkpt>
      <trkpt lat="41.00724" lon="20.21592">
        <ele>923</ele>
        <time>2024-09-26T08:23:59.000Z</time>
      </trkpt>
      <trkpt lat="41.00713" lon="20.21587">
        <ele>923</ele>
        <time>2024-09-26T08:24:01.000Z</time>
      </trkpt>
      <trkpt lat="41.00707" lon="20.21584">
        <ele>922.03997802734</ele>
        <time>2024-09-26T08:24:02.000Z</time>
      </trkpt>
      <trkpt lat="41.00701" lon="20.21582">
        <ele>921.55999755859</ele>
        <time>2024-09-26T08:24:03.000Z</time>
      </trkpt>
      <trkpt lat="41.00695" lon="20.21582">
        <ele>920.59997558594</ele>
        <time>2024-09-26T08:24:04.000Z</time>
      </trkpt>
      <trkpt lat="41.00689" lon="20.21582">
        <ele>920.11999511719</ele>
        <time>2024-09-26T08:24:05.000Z</time>
      </trkpt>
      <trkpt lat="41.00682" lon="20.21583">
        <ele>919.64001464844</ele>
        <time>2024-09-26T08:24:06.000Z</time>
      </trkpt>
      <trkpt lat="41.00676" lon="20.21585">
        <ele>919.15997314453</ele>
        <time>2024-09-26T08:24:07.000Z</time>
      </trkpt>
      <trkpt lat="41.00671" lon="20.21589">
        <ele>918.20001220703</ele>
        <time>2024-09-26T08:24:08.000Z</time>
      </trkpt>
      <trkpt lat="41.00665" lon="20.21597">
        <ele>917.71997070312</ele>
        <time>2024-09-26T08:24:09.000Z</time>
      </trkpt>
      <trkpt lat="41.00661" lon="20.21603">
        <ele>916.75</ele>
        <time>2024-09-26T08:24:10.000Z</time>
      </trkpt>
      <trkpt lat="41.00656" lon="20.21611">
        <ele>916.27001953125</ele>
        <time>2024-09-26T08:24:11.000Z</time>
      </trkpt>
      <trkpt lat="41.00647" lon="20.21631">
        <ele>915.78997802734</ele>
        <time>2024-09-26T08:24:13.000Z</time>
      </trkpt>
      <trkpt lat="41.00642" lon="20.21639">
        <ele>915.30999755859</ele>
        <time>2024-09-26T08:24:14.000Z</time>
      </trkpt>
      <trkpt lat="41.00637" lon="20.21646">
        <ele>914.83001708984</ele>
        <time>2024-09-26T08:24:15.000Z</time>
      </trkpt>
      <trkpt lat="41.0063" lon="20.21655">
        <ele>914.34997558594</ele>
        <time>2024-09-26T08:24:16.000Z</time>
      </trkpt>
      <trkpt lat="41.00626" lon="20.2166">
        <ele>913.39001464844</ele>
        <time>2024-09-26T08:24:17.000Z</time>
      </trkpt>
      <trkpt lat="41.00618" lon="20.21672">
        <ele>912.90997314453</ele>
        <time>2024-09-26T08:24:18.000Z</time>
      </trkpt>
      <trkpt lat="41.00614" lon="20.21676">
        <ele>912.42999267578</ele>
        <time>2024-09-26T08:24:19.000Z</time>
      </trkpt>
      <trkpt lat="41.00607" lon="20.21683">
        <ele>911.46997070312</ele>
        <time>2024-09-26T08:24:20.000Z</time>
      </trkpt>
      <trkpt lat="41.0059" lon="20.21698">
        <ele>909.53997802734</ele>
        <time>2024-09-26T08:24:22.000Z</time>
      </trkpt>
      <trkpt lat="41.00589" lon="20.21699">
        <ele>909.53997802734</ele>
        <time>2024-09-26T08:24:23.000Z</time>
      </trkpt>
      <trkpt lat="41.00578" lon="20.21708">
        <ele>909.05999755859</ele>
        <time>2024-09-26T08:24:24.000Z</time>
      </trkpt>
      <trkpt lat="41.00574" lon="20.21711">
        <ele>908.58001708984</ele>
        <time>2024-09-26T08:24:25.000Z</time>
      </trkpt>
      <trkpt lat="41.00567" lon="20.21714">
        <ele>908.58001708984</ele>
        <time>2024-09-26T08:24:26.000Z</time>
      </trkpt>
      <trkpt lat="41.00561" lon="20.21715">
        <ele>907.61999511719</ele>
        <time>2024-09-26T08:24:27.000Z</time>
      </trkpt>
      <trkpt lat="41.00554" lon="20.21714">
        <ele>906.17999267578</ele>
        <time>2024-09-26T08:24:28.000Z</time>
      </trkpt>
      <trkpt lat="41.00546" lon="20.21712">
        <ele>904.26000976562</ele>
        <time>2024-09-26T08:24:29.000Z</time>
      </trkpt>
      <trkpt lat="41.0054" lon="20.21711">
        <ele>902.82000732422</ele>
        <time>2024-09-26T08:24:30.000Z</time>
      </trkpt>
      <trkpt lat="41.00532" lon="20.21708">
        <ele>901.84997558594</ele>
        <time>2024-09-26T08:24:31.000Z</time>
      </trkpt>
      <trkpt lat="41.00523" lon="20.21706">
        <ele>900.40997314453</ele>
        <time>2024-09-26T08:24:32.000Z</time>
      </trkpt>
      <trkpt lat="41.00516" lon="20.21705">
        <ele>898.96997070312</ele>
        <time>2024-09-26T08:24:33.000Z</time>
      </trkpt>
      <trkpt lat="41.00507" lon="20.21704">
        <ele>898.01000976562</ele>
        <time>2024-09-26T08:24:34.000Z</time>
      </trkpt>
      <trkpt lat="41.00497" lon="20.21705">
        <ele>896.09002685547</ele>
        <time>2024-09-26T08:24:35.000Z</time>
      </trkpt>
      <trkpt lat="41.00488" lon="20.21705">
        <ele>894.64001464844</ele>
        <time>2024-09-26T08:24:36.000Z</time>
      </trkpt>
      <trkpt lat="41.00481" lon="20.21707">
        <ele>894.15997314453</ele>
        <time>2024-09-26T08:24:37.000Z</time>
      </trkpt>
      <trkpt lat="41.00474" lon="20.2171">
        <ele>892.71997070312</ele>
        <time>2024-09-26T08:24:38.000Z</time>
      </trkpt>
      <trkpt lat="41.00466" lon="20.21715">
        <ele>892.23999023438</ele>
        <time>2024-09-26T08:24:39.000Z</time>
      </trkpt>
      <trkpt lat="41.00461" lon="20.2172">
        <ele>891.28002929688</ele>
        <time>2024-09-26T08:24:40.000Z</time>
      </trkpt>
      <trkpt lat="41.00455" lon="20.21727">
        <ele>890.79998779297</ele>
        <time>2024-09-26T08:24:41.000Z</time>
      </trkpt>
      <trkpt lat="41.0045" lon="20.21735">
        <ele>890.79998779297</ele>
        <time>2024-09-26T08:24:42.000Z</time>
      </trkpt>
      <trkpt lat="41.00444" lon="20.21745">
        <ele>890.32000732422</ele>
        <time>2024-09-26T08:24:43.000Z</time>
      </trkpt>
      <trkpt lat="41.0044" lon="20.21756">
        <ele>889.84002685547</ele>
        <time>2024-09-26T08:24:44.000Z</time>
      </trkpt>
      <trkpt lat="41.00437" lon="20.21764">
        <ele>889.84002685547</ele>
        <time>2024-09-26T08:24:45.000Z</time>
      </trkpt>
      <trkpt lat="41.00434" lon="20.21773">
        <ele>889.84002685547</ele>
        <time>2024-09-26T08:24:46.000Z</time>
      </trkpt>
      <trkpt lat="41.00431" lon="20.21784">
        <ele>889.84002685547</ele>
        <time>2024-09-26T08:24:47.000Z</time>
      </trkpt>
      <trkpt lat="41.0043" lon="20.21794">
        <ele>889.84002685547</ele>
        <time>2024-09-26T08:24:48.000Z</time>
      </trkpt>
      <trkpt lat="41.0043" lon="20.21806">
        <ele>890.32000732422</ele>
        <time>2024-09-26T08:24:49.000Z</time>
      </trkpt>
      <trkpt lat="41.00431" lon="20.21815">
        <ele>890.79998779297</ele>
        <time>2024-09-26T08:24:50.000Z</time>
      </trkpt>
      <trkpt lat="41.00433" lon="20.21827">
        <ele>890.79998779297</ele>
        <time>2024-09-26T08:24:51.000Z</time>
      </trkpt>
      <trkpt lat="41.00435" lon="20.21837">
        <ele>890.32000732422</ele>
        <time>2024-09-26T08:24:52.000Z</time>
      </trkpt>
      <trkpt lat="41.00439" lon="20.21847">
        <ele>889.35998535156</ele>
        <time>2024-09-26T08:24:53.000Z</time>
      </trkpt>
      <trkpt lat="41.00442" lon="20.21858">
        <ele>889.35998535156</ele>
        <time>2024-09-26T08:24:54.000Z</time>
      </trkpt>
      <trkpt lat="41.00443" lon="20.2187">
        <ele>889.35998535156</ele>
        <time>2024-09-26T08:24:55.000Z</time>
      </trkpt>
      <trkpt lat="41.00444" lon="20.21884">
        <ele>888.40002441406</ele>
        <time>2024-09-26T08:24:56.000Z</time>
      </trkpt>
      <trkpt lat="41.00444" lon="20.21895">
        <ele>887.90997314453</ele>
        <time>2024-09-26T08:24:57.000Z</time>
      </trkpt>
      <trkpt lat="41.00442" lon="20.21906">
        <ele>887.42999267578</ele>
        <time>2024-09-26T08:24:58.000Z</time>
      </trkpt>
      <trkpt lat="41.0044" lon="20.21916">
        <ele>886.95001220703</ele>
        <time>2024-09-26T08:24:59.000Z</time>
      </trkpt>
      <trkpt lat="41.00434" lon="20.2193">
        <ele>885.98999023438</ele>
        <time>2024-09-26T08:25:00.000Z</time>
      </trkpt>
      <trkpt lat="41.00429" lon="20.21941">
        <ele>885.51000976562</ele>
        <time>2024-09-26T08:25:01.000Z</time>
      </trkpt>
      <trkpt lat="41.00422" lon="20.21954">
        <ele>884.54998779297</ele>
        <time>2024-09-26T08:25:02.000Z</time>
      </trkpt>
      <trkpt lat="41.00398" lon="20.21993">
        <ele>882.15002441406</ele>
        <time>2024-09-26T08:25:06.000Z</time>
      </trkpt>
      <trkpt lat="41.00389" lon="20.22005">
        <ele>882.15002441406</ele>
        <time>2024-09-26T08:25:07.000Z</time>
      </trkpt>
      <trkpt lat="41.00379" lon="20.22015">
        <ele>882.15002441406</ele>
        <time>2024-09-26T08:25:08.000Z</time>
      </trkpt>
      <trkpt lat="41.00368" lon="20.22026">
        <ele>881.66998291016</ele>
        <time>2024-09-26T08:25:09.000Z</time>
      </trkpt>
      <trkpt lat="41.00343" lon="20.22051">
        <ele>882.63000488281</ele>
        <time>2024-09-26T08:25:12.000Z</time>
      </trkpt>
      <trkpt lat="41.00339" lon="20.22056">
        <ele>883.10998535156</ele>
        <time>2024-09-26T08:25:13.000Z</time>
      </trkpt>
      <trkpt lat="41.00334" lon="20.22064">
        <ele>883.10998535156</ele>
        <time>2024-09-26T08:25:14.000Z</time>
      </trkpt>
      <trkpt lat="41.00331" lon="20.22073">
        <ele>883.59002685547</ele>
        <time>2024-09-26T08:25:15.000Z</time>
      </trkpt>
      <trkpt lat="41.0033" lon="20.22084">
        <ele>883.59002685547</ele>
        <time>2024-09-26T08:25:16.000Z</time>
      </trkpt>
      <trkpt lat="41.0033" lon="20.22095">
        <ele>884.07000732422</ele>
        <time>2024-09-26T08:25:17.000Z</time>
      </trkpt>
      <trkpt lat="41.0033" lon="20.22107">
        <ele>884.07000732422</ele>
        <time>2024-09-26T08:25:18.000Z</time>
      </trkpt>
      <trkpt lat="41.00329" lon="20.22118">
        <ele>883.59002685547</ele>
        <time>2024-09-26T08:25:19.000Z</time>
      </trkpt>
      <trkpt lat="41.00328" lon="20.22129">
        <ele>882.63000488281</ele>
        <time>2024-09-26T08:25:20.000Z</time>
      </trkpt>
      <trkpt lat="41.00327" lon="20.22137">
        <ele>882.15002441406</ele>
        <time>2024-09-26T08:25:21.000Z</time>
      </trkpt>
      <trkpt lat="41.00328" lon="20.22143">
        <ele>881.19000244141</ele>
        <time>2024-09-26T08:25:22.000Z</time>
      </trkpt>
      <trkpt lat="41.00332" lon="20.22151">
        <ele>880.71002197266</ele>
        <time>2024-09-26T08:25:23.000Z</time>
      </trkpt>
      <trkpt lat="41.00362" lon="20.22191">
        <ele>878.29998779297</ele>
        <time>2024-09-26T08:25:28.000Z</time>
      </trkpt>
      <trkpt lat="41.00369" lon="20.22198">
        <ele>878.29998779297</ele>
        <time>2024-09-26T08:25:29.000Z</time>
      </trkpt>
      <trkpt lat="41.00379" lon="20.22206">
        <ele>877.82000732422</ele>
        <time>2024-09-26T08:25:30.000Z</time>
      </trkpt>
      <trkpt lat="41.00392" lon="20.22215">
        <ele>877.82000732422</ele>
        <time>2024-09-26T08:25:32.000Z</time>
      </trkpt>
      <trkpt lat="41.00399" lon="20.22222">
        <ele>877.34002685547</ele>
        <time>2024-09-26T08:25:33.000Z</time>
      </trkpt>
      <trkpt lat="41.00405" lon="20.22229">
        <ele>877.34002685547</ele>
        <time>2024-09-26T08:25:34.000Z</time>
      </trkpt>
      <trkpt lat="41.0041" lon="20.22239">
        <ele>876.85998535156</ele>
        <time>2024-09-26T08:25:35.000Z</time>
      </trkpt>
      <trkpt lat="41.00417" lon="20.22256">
        <ele>876.85998535156</ele>
        <time>2024-09-26T08:25:36.000Z</time>
      </trkpt>
      <trkpt lat="41.00425" lon="20.22274">
        <ele>876.38000488281</ele>
        <time>2024-09-26T08:25:38.000Z</time>
      </trkpt>
      <trkpt lat="41.00428" lon="20.22281">
        <ele>875.90002441406</ele>
        <time>2024-09-26T08:25:39.000Z</time>
      </trkpt>
      <trkpt lat="41.00432" lon="20.22291">
        <ele>875.90002441406</ele>
        <time>2024-09-26T08:25:40.000Z</time>
      </trkpt>
      <trkpt lat="41.00438" lon="20.22304">
        <ele>875.90002441406</ele>
        <time>2024-09-26T08:25:41.000Z</time>
      </trkpt>
      <trkpt lat="41.00442" lon="20.22311">
        <ele>875.41998291016</ele>
        <time>2024-09-26T08:25:42.000Z</time>
      </trkpt>
      <trkpt lat="41.00445" lon="20.22316">
        <ele>874.94000244141</ele>
        <time>2024-09-26T08:25:43.000Z</time>
      </trkpt>
      <trkpt lat="41.00451" lon="20.22323">
        <ele>874.94000244141</ele>
        <time>2024-09-26T08:25:44.000Z</time>
      </trkpt>
      <trkpt lat="41.00455" lon="20.22328">
        <ele>874.46002197266</ele>
        <time>2024-09-26T08:25:45.000Z</time>
      </trkpt>
      <trkpt lat="41.00463" lon="20.22333">
        <ele>873.97998046875</ele>
        <time>2024-09-26T08:25:46.000Z</time>
      </trkpt>
      <trkpt lat="41.00468" lon="20.22335">
        <ele>873.97998046875</ele>
        <time>2024-09-26T08:25:47.000Z</time>
      </trkpt>
      <trkpt lat="41.00473" lon="20.2234">
        <ele>873.5</ele>
        <time>2024-09-26T08:25:48.000Z</time>
      </trkpt>
      <trkpt lat="41.00477" lon="20.22344">
        <ele>873.5</ele>
        <time>2024-09-26T08:25:49.000Z</time>
      </trkpt>
      <trkpt lat="41.00481" lon="20.22349">
        <ele>873.5</ele>
        <time>2024-09-26T08:25:50.000Z</time>
      </trkpt>
      <trkpt lat="41.00485" lon="20.22355">
        <ele>873.5</ele>
        <time>2024-09-26T08:25:51.000Z</time>
      </trkpt>
      <trkpt lat="41.00488" lon="20.2236">
        <ele>873.5</ele>
        <time>2024-09-26T08:25:52.000Z</time>
      </trkpt>
      <trkpt lat="41.00491" lon="20.22365">
        <ele>873.97998046875</ele>
        <time>2024-09-26T08:25:53.000Z</time>
      </trkpt>
      <trkpt lat="41.00494" lon="20.22368">
        <ele>873.97998046875</ele>
        <time>2024-09-26T08:25:54.000Z</time>
      </trkpt>
      <trkpt lat="41.00513" lon="20.22378">
        <ele>873.5</ele>
        <time>2024-09-26T08:26:02.000Z</time>
      </trkpt>
      <trkpt lat="41.00522" lon="20.22402">
        <ele>873.01000976562</ele>
        <time>2024-09-26T08:26:10.000Z</time>
      </trkpt>
      <trkpt lat="41.00521" lon="20.22413">
        <ele>873.5</ele>
        <time>2024-09-26T08:26:18.000Z</time>
      </trkpt>
      <trkpt lat="41.00519" lon="20.2242">
        <ele>872.53002929688</ele>
        <time>2024-09-26T08:27:24.000Z</time>
      </trkpt>
      <trkpt lat="41.00519" lon="20.22423">
        <ele>872.53002929688</ele>
        <time>2024-09-26T08:27:25.000Z</time>
      </trkpt>
      <trkpt lat="41.00517" lon="20.22429">
        <ele>873.01000976562</ele>
        <time>2024-09-26T08:27:26.000Z</time>
      </trkpt>
      <trkpt lat="41.00514" lon="20.22435">
        <ele>873.01000976562</ele>
        <time>2024-09-26T08:27:27.000Z</time>
      </trkpt>
      <trkpt lat="41.00512" lon="20.22443">
        <ele>873.01000976562</ele>
        <time>2024-09-26T08:27:28.000Z</time>
      </trkpt>
      <trkpt lat="41.00511" lon="20.22449">
        <ele>873.01000976562</ele>
        <time>2024-09-26T08:27:29.000Z</time>
      </trkpt>
      <trkpt lat="41.0051" lon="20.22459">
        <ele>873.01000976562</ele>
        <time>2024-09-26T08:27:30.000Z</time>
      </trkpt>
      <trkpt lat="41.00509" lon="20.22469">
        <ele>873.01000976562</ele>
        <time>2024-09-26T08:27:31.000Z</time>
      </trkpt>
      <trkpt lat="41.00509" lon="20.22479">
        <ele>873.5</ele>
        <time>2024-09-26T08:27:32.000Z</time>
      </trkpt>
      <trkpt lat="41.00511" lon="20.2249">
        <ele>873.97998046875</ele>
        <time>2024-09-26T08:27:33.000Z</time>
      </trkpt>
      <trkpt lat="41.00514" lon="20.22508">
        <ele>874.46002197266</ele>
        <time>2024-09-26T08:27:35.000Z</time>
      </trkpt>
      <trkpt lat="41.00515" lon="20.22514">
        <ele>874.94000244141</ele>
        <time>2024-09-26T08:27:36.000Z</time>
      </trkpt>
      <trkpt lat="41.00518" lon="20.22523">
        <ele>875.41998291016</ele>
        <time>2024-09-26T08:27:37.000Z</time>
      </trkpt>
      <trkpt lat="41.0052" lon="20.22531">
        <ele>876.38000488281</ele>
        <time>2024-09-26T08:27:38.000Z</time>
      </trkpt>
      <trkpt lat="41.00521" lon="20.22537">
        <ele>876.38000488281</ele>
        <time>2024-09-26T08:27:39.000Z</time>
      </trkpt>
      <trkpt lat="41.00522" lon="20.22544">
        <ele>876.85998535156</ele>
        <time>2024-09-26T08:27:40.000Z</time>
      </trkpt>
      <trkpt lat="41.00523" lon="20.22552">
        <ele>877.34002685547</ele>
        <time>2024-09-26T08:27:41.000Z</time>
      </trkpt>
      <trkpt lat="41.00523" lon="20.22562">
        <ele>877.82000732422</ele>
        <time>2024-09-26T08:27:42.000Z</time>
      </trkpt>
      <trkpt lat="41.00522" lon="20.22572">
        <ele>878.29998779297</ele>
        <time>2024-09-26T08:27:43.000Z</time>
      </trkpt>
      <trkpt lat="41.0052" lon="20.22591">
        <ele>878.29998779297</ele>
        <time>2024-09-26T08:27:44.000Z</time>
      </trkpt>
      <trkpt lat="41.00519" lon="20.22593">
        <ele>878.29998779297</ele>
        <time>2024-09-26T08:27:45.000Z</time>
      </trkpt>
      <trkpt lat="41.00517" lon="20.22603">
        <ele>878.29998779297</ele>
        <time>2024-09-26T08:27:46.000Z</time>
      </trkpt>
      <trkpt lat="41.00512" lon="20.22613">
        <ele>878.29998779297</ele>
        <time>2024-09-26T08:27:47.000Z</time>
      </trkpt>
      <trkpt lat="41.00509" lon="20.22618">
        <ele>878.29998779297</ele>
        <time>2024-09-26T08:27:48.000Z</time>
      </trkpt>
      <trkpt lat="41.00508" lon="20.22625">
        <ele>878.78002929688</ele>
        <time>2024-09-26T08:27:49.000Z</time>
      </trkpt>
      <trkpt lat="41.00508" lon="20.22633">
        <ele>878.78002929688</ele>
        <time>2024-09-26T08:27:50.000Z</time>
      </trkpt>
      <trkpt lat="41.0051" lon="20.22648">
        <ele>878.78002929688</ele>
        <time>2024-09-26T08:27:51.000Z</time>
      </trkpt>
      <trkpt lat="41.00511" lon="20.2265">
        <ele>878.78002929688</ele>
        <time>2024-09-26T08:27:52.000Z</time>
      </trkpt>
      <trkpt lat="41.00511" lon="20.2266">
        <ele>878.78002929688</ele>
        <time>2024-09-26T08:27:53.000Z</time>
      </trkpt>
      <trkpt lat="41.0051" lon="20.22672">
        <ele>878.78002929688</ele>
        <time>2024-09-26T08:27:54.000Z</time>
      </trkpt>
      <trkpt lat="41.00502" lon="20.22734">
        <ele>877.34002685547</ele>
        <time>2024-09-26T08:27:59.000Z</time>
      </trkpt>
      <trkpt lat="41.00501" lon="20.22736">
        <ele>877.34002685547</ele>
        <time>2024-09-26T08:28:00.000Z</time>
      </trkpt>
      <trkpt lat="41.00501" lon="20.22747">
        <ele>877.34002685547</ele>
        <time>2024-09-26T08:28:01.000Z</time>
      </trkpt>
      <trkpt lat="41.00503" lon="20.22757">
        <ele>876.85998535156</ele>
        <time>2024-09-26T08:28:02.000Z</time>
      </trkpt>
      <trkpt lat="41.00505" lon="20.22771">
        <ele>876.38000488281</ele>
        <time>2024-09-26T08:28:03.000Z</time>
      </trkpt>
      <trkpt lat="41.00508" lon="20.22779">
        <ele>875.90002441406</ele>
        <time>2024-09-26T08:28:04.000Z</time>
      </trkpt>
      <trkpt lat="41.0051" lon="20.22791">
        <ele>875.41998291016</ele>
        <time>2024-09-26T08:28:05.000Z</time>
      </trkpt>
      <trkpt lat="41.00511" lon="20.228">
        <ele>874.94000244141</ele>
        <time>2024-09-26T08:28:06.000Z</time>
      </trkpt>
      <trkpt lat="41.00513" lon="20.22812">
        <ele>873.97998046875</ele>
        <time>2024-09-26T08:28:07.000Z</time>
      </trkpt>
      <trkpt lat="41.00515" lon="20.22821">
        <ele>873.5</ele>
        <time>2024-09-26T08:28:08.000Z</time>
      </trkpt>
      <trkpt lat="41.00519" lon="20.2283">
        <ele>872.04998779297</ele>
        <time>2024-09-26T08:28:09.000Z</time>
      </trkpt>
      <trkpt lat="41.00523" lon="20.2284">
        <ele>871.09002685547</ele>
        <time>2024-09-26T08:28:10.000Z</time>
      </trkpt>
      <trkpt lat="41.00527" lon="20.22848">
        <ele>870.13000488281</ele>
        <time>2024-09-26T08:28:11.000Z</time>
      </trkpt>
      <trkpt lat="41.0053" lon="20.2286">
        <ele>869.16998291016</ele>
        <time>2024-09-26T08:28:12.000Z</time>
      </trkpt>
      <trkpt lat="41.00534" lon="20.22874">
        <ele>868.21002197266</ele>
        <time>2024-09-26T08:28:13.000Z</time>
      </trkpt>
      <trkpt lat="41.00536" lon="20.22886">
        <ele>867.72998046875</ele>
        <time>2024-09-26T08:28:14.000Z</time>
      </trkpt>
      <trkpt lat="41.00542" lon="20.22909">
        <ele>866.28997802734</ele>
        <time>2024-09-26T08:28:16.000Z</time>
      </trkpt>
      <trkpt lat="41.00548" lon="20.22928">
        <ele>864.84002685547</ele>
        <time>2024-09-26T08:28:18.000Z</time>
      </trkpt>
      <trkpt lat="41.0055" lon="20.22934">
        <ele>864.35998535156</ele>
        <time>2024-09-26T08:28:19.000Z</time>
      </trkpt>
      <trkpt lat="41.00553" lon="20.22942">
        <ele>863.88000488281</ele>
        <time>2024-09-26T08:28:20.000Z</time>
      </trkpt>
      <trkpt lat="41.00558" lon="20.2295">
        <ele>863.40002441406</ele>
        <time>2024-09-26T08:28:21.000Z</time>
      </trkpt>
      <trkpt lat="41.00562" lon="20.22956">
        <ele>862.91998291016</ele>
        <time>2024-09-26T08:28:22.000Z</time>
      </trkpt>
      <trkpt lat="41.00569" lon="20.22961">
        <ele>862.44000244141</ele>
        <time>2024-09-26T08:28:23.000Z</time>
      </trkpt>
      <trkpt lat="41.00575" lon="20.22965">
        <ele>862.44000244141</ele>
        <time>2024-09-26T08:28:24.000Z</time>
      </trkpt>
      <trkpt lat="41.00582" lon="20.22968">
        <ele>861.96002197266</ele>
        <time>2024-09-26T08:28:25.000Z</time>
      </trkpt>
      <trkpt lat="41.00588" lon="20.2297">
        <ele>861.96002197266</ele>
        <time>2024-09-26T08:28:26.000Z</time>
      </trkpt>
      <trkpt lat="41.00595" lon="20.22975">
        <ele>861.47998046875</ele>
        <time>2024-09-26T08:28:27.000Z</time>
      </trkpt>
      <trkpt lat="41.00599" lon="20.22981">
        <ele>861</ele>
        <time>2024-09-26T08:28:28.000Z</time>
      </trkpt>
      <trkpt lat="41.00604" lon="20.22991">
        <ele>860.03997802734</ele>
        <time>2024-09-26T08:28:29.000Z</time>
      </trkpt>
      <trkpt lat="41.00607" lon="20.22997">
        <ele>859.55999755859</ele>
        <time>2024-09-26T08:28:30.000Z</time>
      </trkpt>
      <trkpt lat="41.00613" lon="20.23002">
        <ele>859.55999755859</ele>
        <time>2024-09-26T08:28:31.000Z</time>
      </trkpt>
      <trkpt lat="41.0062" lon="20.23005">
        <ele>859.08001708984</ele>
        <time>2024-09-26T08:28:32.000Z</time>
      </trkpt>
      <trkpt lat="41.00627" lon="20.23007">
        <ele>858.59002685547</ele>
        <time>2024-09-26T08:28:33.000Z</time>
      </trkpt>
      <trkpt lat="41.00635" lon="20.23008">
        <ele>858.59002685547</ele>
        <time>2024-09-26T08:28:34.000Z</time>
      </trkpt>
      <trkpt lat="41.00643" lon="20.23009">
        <ele>857.63000488281</ele>
        <time>2024-09-26T08:28:35.000Z</time>
      </trkpt>
      <trkpt lat="41.00651" lon="20.2301">
        <ele>857.15002441406</ele>
        <time>2024-09-26T08:28:36.000Z</time>
      </trkpt>
      <trkpt lat="41.00657" lon="20.23012">
        <ele>856.66998291016</ele>
        <time>2024-09-26T08:28:37.000Z</time>
      </trkpt>
      <trkpt lat="41.00663" lon="20.23015">
        <ele>856.19000244141</ele>
        <time>2024-09-26T08:28:38.000Z</time>
      </trkpt>
      <trkpt lat="41.00666" lon="20.23019">
        <ele>855.71002197266</ele>
        <time>2024-09-26T08:28:39.000Z</time>
      </trkpt>
      <trkpt lat="41.00669" lon="20.23027">
        <ele>855.22998046875</ele>
        <time>2024-09-26T08:28:40.000Z</time>
      </trkpt>
      <trkpt lat="41.00671" lon="20.2304">
        <ele>855.22998046875</ele>
        <time>2024-09-26T08:28:41.000Z</time>
      </trkpt>
      <trkpt lat="41.00674" lon="20.23071">
        <ele>854.27001953125</ele>
        <time>2024-09-26T08:28:44.000Z</time>
      </trkpt>
      <trkpt lat="41.00675" lon="20.23079">
        <ele>854.27001953125</ele>
        <time>2024-09-26T08:28:45.000Z</time>
      </trkpt>
      <trkpt lat="41.00675" lon="20.2308">
        <ele>854.27001953125</ele>
        <time>2024-09-26T08:28:46.000Z</time>
      </trkpt>
      <trkpt lat="41.00675" lon="20.23088">
        <ele>853.78997802734</ele>
        <time>2024-09-26T08:28:47.000Z</time>
      </trkpt>
      <trkpt lat="41.00684" lon="20.23109">
        <ele>852.34997558594</ele>
        <time>2024-09-26T08:28:52.000Z</time>
      </trkpt>
      <trkpt lat="41.00693" lon="20.23121">
        <ele>850.90002441406</ele>
        <time>2024-09-26T08:28:55.000Z</time>
      </trkpt>
      <trkpt lat="41.00694" lon="20.23123">
        <ele>850.90002441406</ele>
        <time>2024-09-26T08:28:56.000Z</time>
      </trkpt>
      <trkpt lat="41.00697" lon="20.23128">
        <ele>849.94000244141</ele>
        <time>2024-09-26T08:28:57.000Z</time>
      </trkpt>
      <trkpt lat="41.007" lon="20.23134">
        <ele>848.97998046875</ele>
        <time>2024-09-26T08:28:58.000Z</time>
      </trkpt>
      <trkpt lat="41.00702" lon="20.23139">
        <ele>848.5</ele>
        <time>2024-09-26T08:28:59.000Z</time>
      </trkpt>
      <trkpt lat="41.00703" lon="20.23145">
        <ele>848.02001953125</ele>
        <time>2024-09-26T08:29:00.000Z</time>
      </trkpt>
      <trkpt lat="41.00704" lon="20.23151">
        <ele>847.53997802734</ele>
        <time>2024-09-26T08:29:01.000Z</time>
      </trkpt>
      <trkpt lat="41.00704" lon="20.23157">
        <ele>846.58001708984</ele>
        <time>2024-09-26T08:29:02.000Z</time>
      </trkpt>
      <trkpt lat="41.00706" lon="20.23163">
        <ele>846.09997558594</ele>
        <time>2024-09-26T08:29:03.000Z</time>
      </trkpt>
      <trkpt lat="41.00709" lon="20.23168">
        <ele>845.61999511719</ele>
        <time>2024-09-26T08:29:04.000Z</time>
      </trkpt>
      <trkpt lat="41.00713" lon="20.23172">
        <ele>845.14001464844</ele>
        <time>2024-09-26T08:29:05.000Z</time>
      </trkpt>
      <trkpt lat="41.00718" lon="20.23176">
        <ele>844.65997314453</ele>
        <time>2024-09-26T08:29:06.000Z</time>
      </trkpt>
      <trkpt lat="41.00722" lon="20.23179">
        <ele>844.17999267578</ele>
        <time>2024-09-26T08:29:07.000Z</time>
      </trkpt>
      <trkpt lat="41.00727" lon="20.23182">
        <ele>843.69000244141</ele>
        <time>2024-09-26T08:29:08.000Z</time>
      </trkpt>
      <trkpt lat="41.00739" lon="20.23197">
        <ele>842.25</ele>
        <time>2024-09-26T08:29:12.000Z</time>
      </trkpt>
      <trkpt lat="41.00739" lon="20.23198">
        <ele>842.25</ele>
        <time>2024-09-26T08:29:13.000Z</time>
      </trkpt>
      <trkpt lat="41.00741" lon="20.23204">
        <ele>841.77001953125</ele>
        <time>2024-09-26T08:29:14.000Z</time>
      </trkpt>
      <trkpt lat="41.00743" lon="20.23215">
        <ele>841.28997802734</ele>
        <time>2024-09-26T08:29:15.000Z</time>
      </trkpt>
      <trkpt lat="41.00743" lon="20.23218">
        <ele>841.28997802734</ele>
        <time>2024-09-26T08:29:16.000Z</time>
      </trkpt>
      <trkpt lat="41.00745" lon="20.23225">
        <ele>840.80999755859</ele>
        <time>2024-09-26T08:29:17.000Z</time>
      </trkpt>
      <trkpt lat="41.00747" lon="20.23231">
        <ele>840.33001708984</ele>
        <time>2024-09-26T08:29:18.000Z</time>
      </trkpt>
      <trkpt lat="41.00751" lon="20.23239">
        <ele>839.36999511719</ele>
        <time>2024-09-26T08:29:20.000Z</time>
      </trkpt>
      <trkpt lat="41.00754" lon="20.23243">
        <ele>838.40997314453</ele>
        <time>2024-09-26T08:29:21.000Z</time>
      </trkpt>
      <trkpt lat="41.00759" lon="20.23248">
        <ele>837.92999267578</ele>
        <time>2024-09-26T08:29:22.000Z</time>
      </trkpt>
      <trkpt lat="41.00764" lon="20.23251">
        <ele>837.45001220703</ele>
        <time>2024-09-26T08:29:23.000Z</time>
      </trkpt>
      <trkpt lat="41.00769" lon="20.23255">
        <ele>836.47998046875</ele>
        <time>2024-09-26T08:29:24.000Z</time>
      </trkpt>
      <trkpt lat="41.00773" lon="20.23259">
        <ele>836.47998046875</ele>
        <time>2024-09-26T08:29:25.000Z</time>
      </trkpt>
      <trkpt lat="41.00777" lon="20.23262">
        <ele>836</ele>
        <time>2024-09-26T08:29:26.000Z</time>
      </trkpt>
      <trkpt lat="41.00785" lon="20.23267">
        <ele>836</ele>
        <time>2024-09-26T08:29:33.000Z</time>
      </trkpt>
      <trkpt lat="41.00794" lon="20.23276">
        <ele>843.69000244141</ele>
        <time>2024-09-26T08:34:26.000Z</time>
      </trkpt>
      <trkpt lat="41.00813" lon="20.23298">
        <ele>841.28997802734</ele>
        <time>2024-09-26T08:34:35.000Z</time>
      </trkpt>
      <trkpt lat="41.00812" lon="20.23303">
        <ele>840.33001708984</ele>
        <time>2024-09-26T08:34:36.000Z</time>
      </trkpt>
      <trkpt lat="41.00811" lon="20.23309">
        <ele>839.84997558594</ele>
        <time>2024-09-26T08:34:37.000Z</time>
      </trkpt>
      <trkpt lat="41.00808" lon="20.23317">
        <ele>838.89001464844</ele>
        <time>2024-09-26T08:34:38.000Z</time>
      </trkpt>
      <trkpt lat="41.00805" lon="20.23323">
        <ele>838.40997314453</ele>
        <time>2024-09-26T08:34:39.000Z</time>
      </trkpt>
      <trkpt lat="41.00803" lon="20.23329">
        <ele>838.40997314453</ele>
        <time>2024-09-26T08:34:40.000Z</time>
      </trkpt>
      <trkpt lat="41.00801" lon="20.23336">
        <ele>837.92999267578</ele>
        <time>2024-09-26T08:34:41.000Z</time>
      </trkpt>
      <trkpt lat="41.008" lon="20.23344">
        <ele>837.45001220703</ele>
        <time>2024-09-26T08:34:42.000Z</time>
      </trkpt>
      <trkpt lat="41.00801" lon="20.23351">
        <ele>836.96002197266</ele>
        <time>2024-09-26T08:34:43.000Z</time>
      </trkpt>
      <trkpt lat="41.00803" lon="20.23358">
        <ele>836</ele>
        <time>2024-09-26T08:34:44.000Z</time>
      </trkpt>
      <trkpt lat="41.00806" lon="20.23364">
        <ele>835.03997802734</ele>
        <time>2024-09-26T08:34:45.000Z</time>
      </trkpt>
      <trkpt lat="41.00809" lon="20.2337">
        <ele>834.08001708984</ele>
        <time>2024-09-26T08:34:46.000Z</time>
      </trkpt>
      <trkpt lat="41.00812" lon="20.23374">
        <ele>833.59997558594</ele>
        <time>2024-09-26T08:34:47.000Z</time>
      </trkpt>
      <trkpt lat="41.00818" lon="20.23379">
        <ele>832.64001464844</ele>
        <time>2024-09-26T08:34:48.000Z</time>
      </trkpt>
      <trkpt lat="41.00821" lon="20.23382">
        <ele>832.15997314453</ele>
        <time>2024-09-26T08:34:49.000Z</time>
      </trkpt>
      <trkpt lat="41.00824" lon="20.23385">
        <ele>831.67999267578</ele>
        <time>2024-09-26T08:34:50.000Z</time>
      </trkpt>
      <trkpt lat="41.00829" lon="20.2339">
        <ele>831.20001220703</ele>
        <time>2024-09-26T08:34:51.000Z</time>
      </trkpt>
      <trkpt lat="41.00832" lon="20.23395">
        <ele>830.71997070312</ele>
        <time>2024-09-26T08:34:52.000Z</time>
      </trkpt>
      <trkpt lat="41.00834" lon="20.23401">
        <ele>830.23999023438</ele>
        <time>2024-09-26T08:34:53.000Z</time>
      </trkpt>
      <trkpt lat="41.00836" lon="20.2341">
        <ele>829.76000976562</ele>
        <time>2024-09-26T08:34:54.000Z</time>
      </trkpt>
      <trkpt lat="41.00837" lon="20.23413">
        <ele>829.27001953125</ele>
        <time>2024-09-26T08:34:55.000Z</time>
      </trkpt>
      <trkpt lat="41.00838" lon="20.23419">
        <ele>828.78997802734</ele>
        <time>2024-09-26T08:34:56.000Z</time>
      </trkpt>
      <trkpt lat="41.00838" lon="20.23425">
        <ele>828.30999755859</ele>
        <time>2024-09-26T08:34:57.000Z</time>
      </trkpt>
      <trkpt lat="41.00836" lon="20.23432">
        <ele>827.34997558594</ele>
        <time>2024-09-26T08:34:58.000Z</time>
      </trkpt>
      <trkpt lat="41.00834" lon="20.23438">
        <ele>826.86999511719</ele>
        <time>2024-09-26T08:34:59.000Z</time>
      </trkpt>
      <trkpt lat="41.00825" lon="20.23453">
        <ele>824.95001220703</ele>
        <time>2024-09-26T08:35:02.000Z</time>
      </trkpt>
      <trkpt lat="41.00818" lon="20.23487">
        <ele>822.54998779297</ele>
        <time>2024-09-26T08:35:11.000Z</time>
      </trkpt>
      <trkpt lat="41.0082" lon="20.23496">
        <ele>822.05999755859</ele>
        <time>2024-09-26T08:35:13.000Z</time>
      </trkpt>
      <trkpt lat="41.00822" lon="20.23505">
        <ele>821.58001708984</ele>
        <time>2024-09-26T08:35:14.000Z</time>
      </trkpt>
      <trkpt lat="41.00823" lon="20.23508">
        <ele>821.58001708984</ele>
        <time>2024-09-26T08:35:15.000Z</time>
      </trkpt>
      <trkpt lat="41.00824" lon="20.23515">
        <ele>821.09997558594</ele>
        <time>2024-09-26T08:35:16.000Z</time>
      </trkpt>
      <trkpt lat="41.00825" lon="20.23522">
        <ele>821.09997558594</ele>
        <time>2024-09-26T08:35:17.000Z</time>
      </trkpt>
      <trkpt lat="41.00823" lon="20.2353">
        <ele>820.14001464844</ele>
        <time>2024-09-26T08:35:18.000Z</time>
      </trkpt>
      <trkpt lat="41.00821" lon="20.23537">
        <ele>819.17999267578</ele>
        <time>2024-09-26T08:35:19.000Z</time>
      </trkpt>
      <trkpt lat="41.00817" lon="20.23545">
        <ele>818.21997070312</ele>
        <time>2024-09-26T08:35:20.000Z</time>
      </trkpt>
      <trkpt lat="41.00811" lon="20.23553">
        <ele>817.73999023438</ele>
        <time>2024-09-26T08:35:21.000Z</time>
      </trkpt>
      <trkpt lat="41.00808" lon="20.23558">
        <ele>817.73999023438</ele>
        <time>2024-09-26T08:35:22.000Z</time>
      </trkpt>
      <trkpt lat="41.00806" lon="20.23565">
        <ele>817.26000976562</ele>
        <time>2024-09-26T08:35:23.000Z</time>
      </trkpt>
      <trkpt lat="41.00804" lon="20.23572">
        <ele>816.78002929688</ele>
        <time>2024-09-26T08:35:24.000Z</time>
      </trkpt>
      <trkpt lat="41.00805" lon="20.2358">
        <ele>816.78002929688</ele>
        <time>2024-09-26T08:35:25.000Z</time>
      </trkpt>
      <trkpt lat="41.00806" lon="20.23588">
        <ele>816.29998779297</ele>
        <time>2024-09-26T08:35:26.000Z</time>
      </trkpt>
      <trkpt lat="41.00807" lon="20.236">
        <ele>815.82000732422</ele>
        <time>2024-09-26T08:35:27.000Z</time>
      </trkpt>
      <trkpt lat="41.00808" lon="20.23604">
        <ele>815.82000732422</ele>
        <time>2024-09-26T08:35:28.000Z</time>
      </trkpt>
      <trkpt lat="41.0081" lon="20.23613">
        <ele>815.34002685547</ele>
        <time>2024-09-26T08:35:29.000Z</time>
      </trkpt>
      <trkpt lat="41.00811" lon="20.23618">
        <ele>815.34002685547</ele>
        <time>2024-09-26T08:35:30.000Z</time>
      </trkpt>
      <trkpt lat="41.00814" lon="20.23629">
        <ele>814.84997558594</ele>
        <time>2024-09-26T08:35:31.000Z</time>
      </trkpt>
      <trkpt lat="41.00815" lon="20.23633">
        <ele>814.36999511719</ele>
        <time>2024-09-26T08:35:32.000Z</time>
      </trkpt>
      <trkpt lat="41.00817" lon="20.23639">
        <ele>814.36999511719</ele>
        <time>2024-09-26T08:35:33.000Z</time>
      </trkpt>
      <trkpt lat="41.0082" lon="20.23647">
        <ele>813.89001464844</ele>
        <time>2024-09-26T08:35:34.000Z</time>
      </trkpt>
      <trkpt lat="41.00822" lon="20.23653">
        <ele>812.92999267578</ele>
        <time>2024-09-26T08:35:35.000Z</time>
      </trkpt>
      <trkpt lat="41.00825" lon="20.23663">
        <ele>812.45001220703</ele>
        <time>2024-09-26T08:35:36.000Z</time>
      </trkpt>
      <trkpt lat="41.00827" lon="20.2367">
        <ele>811.48999023438</ele>
        <time>2024-09-26T08:35:37.000Z</time>
      </trkpt>
      <trkpt lat="41.00831" lon="20.23681">
        <ele>810.53002929688</ele>
        <time>2024-09-26T08:35:38.000Z</time>
      </trkpt>
      <trkpt lat="41.00832" lon="20.23685">
        <ele>810.53002929688</ele>
        <time>2024-09-26T08:35:39.000Z</time>
      </trkpt>
      <trkpt lat="41.00833" lon="20.23693">
        <ele>810.04998779297</ele>
        <time>2024-09-26T08:35:40.000Z</time>
      </trkpt>
      <trkpt lat="41.00833" lon="20.23702">
        <ele>809.57000732422</ele>
        <time>2024-09-26T08:35:41.000Z</time>
      </trkpt>
      <trkpt lat="41.00831" lon="20.23712">
        <ele>808.13000488281</ele>
        <time>2024-09-26T08:35:42.000Z</time>
      </trkpt>
      <trkpt lat="41.00826" lon="20.23731">
        <ele>806.67999267578</ele>
        <time>2024-09-26T08:35:44.000Z</time>
      </trkpt>
      <trkpt lat="41.00824" lon="20.23738">
        <ele>806.67999267578</ele>
        <time>2024-09-26T08:35:45.000Z</time>
      </trkpt>
      <trkpt lat="41.00823" lon="20.23749">
        <ele>805.71997070312</ele>
        <time>2024-09-26T08:35:46.000Z</time>
      </trkpt>
      <trkpt lat="41.00822" lon="20.23755">
        <ele>805.71997070312</ele>
        <time>2024-09-26T08:35:47.000Z</time>
      </trkpt>
      <trkpt lat="41.00821" lon="20.23763">
        <ele>805.23999023438</ele>
        <time>2024-09-26T08:35:48.000Z</time>
      </trkpt>
      <trkpt lat="41.00822" lon="20.23771">
        <ele>804.76000976562</ele>
        <time>2024-09-26T08:35:49.000Z</time>
      </trkpt>
      <trkpt lat="41.00823" lon="20.2378">
        <ele>803.79998779297</ele>
        <time>2024-09-26T08:35:50.000Z</time>
      </trkpt>
      <trkpt lat="41.00825" lon="20.23793">
        <ele>802.84002685547</ele>
        <time>2024-09-26T08:35:51.000Z</time>
      </trkpt>
      <trkpt lat="41.00825" lon="20.23799">
        <ele>802.35998535156</ele>
        <time>2024-09-26T08:35:52.000Z</time>
      </trkpt>
      <trkpt lat="41.00826" lon="20.23807">
        <ele>801.88000488281</ele>
        <time>2024-09-26T08:35:53.000Z</time>
      </trkpt>
      <trkpt lat="41.00826" lon="20.23816">
        <ele>801.40002441406</ele>
        <time>2024-09-26T08:35:54.000Z</time>
      </trkpt>
      <trkpt lat="41.00827" lon="20.23824">
        <ele>800.91998291016</ele>
        <time>2024-09-26T08:35:55.000Z</time>
      </trkpt>
      <trkpt lat="41.00829" lon="20.23831">
        <ele>800.44000244141</ele>
        <time>2024-09-26T08:35:56.000Z</time>
      </trkpt>
      <trkpt lat="41.00833" lon="20.23837">
        <ele>799.95001220703</ele>
        <time>2024-09-26T08:35:57.000Z</time>
      </trkpt>
      <trkpt lat="41.00838" lon="20.23843">
        <ele>799.46997070312</ele>
        <time>2024-09-26T08:35:58.000Z</time>
      </trkpt>
      <trkpt lat="41.00842" lon="20.23847">
        <ele>798.98999023438</ele>
        <time>2024-09-26T08:35:59.000Z</time>
      </trkpt>
      <trkpt lat="41.00847" lon="20.23855">
        <ele>798.51000976562</ele>
        <time>2024-09-26T08:36:00.000Z</time>
      </trkpt>
      <trkpt lat="41.00851" lon="20.2386">
        <ele>798.51000976562</ele>
        <time>2024-09-26T08:36:01.000Z</time>
      </trkpt>
      <trkpt lat="41.00855" lon="20.23867">
        <ele>798.51000976562</ele>
        <time>2024-09-26T08:36:02.000Z</time>
      </trkpt>
      <trkpt lat="41.00861" lon="20.23875">
        <ele>798.03002929688</ele>
        <time>2024-09-26T08:36:03.000Z</time>
      </trkpt>
      <trkpt lat="41.00864" lon="20.23879">
        <ele>798.03002929688</ele>
        <time>2024-09-26T08:36:04.000Z</time>
      </trkpt>
      <trkpt lat="41.00868" lon="20.23885">
        <ele>798.03002929688</ele>
        <time>2024-09-26T08:36:05.000Z</time>
      </trkpt>
      <trkpt lat="41.0087" lon="20.23892">
        <ele>798.03002929688</ele>
        <time>2024-09-26T08:36:06.000Z</time>
      </trkpt>
      <trkpt lat="41.0087" lon="20.23898">
        <ele>798.03002929688</ele>
        <time>2024-09-26T08:36:07.000Z</time>
      </trkpt>
      <trkpt lat="41.00867" lon="20.23913">
        <ele>798.03002929688</ele>
        <time>2024-09-26T08:36:08.000Z</time>
      </trkpt>
      <trkpt lat="41.00866" lon="20.23917">
        <ele>798.03002929688</ele>
        <time>2024-09-26T08:36:09.000Z</time>
      </trkpt>
      <trkpt lat="41.00864" lon="20.23922">
        <ele>798.03002929688</ele>
        <time>2024-09-26T08:36:10.000Z</time>
      </trkpt>
      <trkpt lat="41.0086" lon="20.23925">
        <ele>797.54998779297</ele>
        <time>2024-09-26T08:36:11.000Z</time>
      </trkpt>
      <trkpt lat="41.00856" lon="20.23927">
        <ele>797.07000732422</ele>
        <time>2024-09-26T08:36:12.000Z</time>
      </trkpt>
      <trkpt lat="41.00843" lon="20.23927">
        <ele>796.10998535156</ele>
        <time>2024-09-26T08:36:14.000Z</time>
      </trkpt>
      <trkpt lat="41.00838" lon="20.23927">
        <ele>795.63000488281</ele>
        <time>2024-09-26T08:36:15.000Z</time>
      </trkpt>
      <trkpt lat="41.00833" lon="20.23927">
        <ele>795.15002441406</ele>
        <time>2024-09-26T08:36:16.000Z</time>
      </trkpt>
      <trkpt lat="41.00827" lon="20.23926">
        <ele>794.66998291016</ele>
        <time>2024-09-26T08:36:17.000Z</time>
      </trkpt>
      <trkpt lat="41.00819" lon="20.23923">
        <ele>793.21997070312</ele>
        <time>2024-09-26T08:36:18.000Z</time>
      </trkpt>
      <trkpt lat="41.00814" lon="20.23922">
        <ele>792.73999023438</ele>
        <time>2024-09-26T08:36:19.000Z</time>
      </trkpt>
      <trkpt lat="41.0081" lon="20.23921">
        <ele>792.26000976562</ele>
        <time>2024-09-26T08:36:20.000Z</time>
      </trkpt>
      <trkpt lat="41.00804" lon="20.23923">
        <ele>791.78002929688</ele>
        <time>2024-09-26T08:36:21.000Z</time>
      </trkpt>
      <trkpt lat="41.00799" lon="20.23926">
        <ele>791.78002929688</ele>
        <time>2024-09-26T08:36:22.000Z</time>
      </trkpt>
      <trkpt lat="41.00794" lon="20.23931">
        <ele>791.29998779297</ele>
        <time>2024-09-26T08:36:23.000Z</time>
      </trkpt>
      <trkpt lat="41.00791" lon="20.23937">
        <ele>791.29998779297</ele>
        <time>2024-09-26T08:36:24.000Z</time>
      </trkpt>
      <trkpt lat="41.00789" lon="20.23944">
        <ele>790.82000732422</ele>
        <time>2024-09-26T08:36:25.000Z</time>
      </trkpt>
      <trkpt lat="41.0079" lon="20.2395">
        <ele>790.82000732422</ele>
        <time>2024-09-26T08:36:26.000Z</time>
      </trkpt>
      <trkpt lat="41.00791" lon="20.23967">
        <ele>790.34002685547</ele>
        <time>2024-09-26T08:36:28.000Z</time>
      </trkpt>
      <trkpt lat="41.00793" lon="20.23977">
        <ele>790.34002685547</ele>
        <time>2024-09-26T08:36:29.000Z</time>
      </trkpt>
      <trkpt lat="41.00794" lon="20.23985">
        <ele>790.34002685547</ele>
        <time>2024-09-26T08:36:30.000Z</time>
      </trkpt>
      <trkpt lat="41.00802" lon="20.24019">
        <ele>790.34002685547</ele>
        <time>2024-09-26T08:36:33.000Z</time>
      </trkpt>
      <trkpt lat="41.00802" lon="20.24021">
        <ele>790.34002685547</ele>
        <time>2024-09-26T08:36:34.000Z</time>
      </trkpt>
      <trkpt lat="41.00804" lon="20.2403">
        <ele>790.82000732422</ele>
        <time>2024-09-26T08:36:35.000Z</time>
      </trkpt>
      <trkpt lat="41.00808" lon="20.2404">
        <ele>790.82000732422</ele>
        <time>2024-09-26T08:36:36.000Z</time>
      </trkpt>
      <trkpt lat="41.0081" lon="20.24048">
        <ele>791.29998779297</ele>
        <time>2024-09-26T08:36:37.000Z</time>
      </trkpt>
      <trkpt lat="41.00812" lon="20.24055">
        <ele>791.29998779297</ele>
        <time>2024-09-26T08:36:38.000Z</time>
      </trkpt>
      <trkpt lat="41.00812" lon="20.24064">
        <ele>790.82000732422</ele>
        <time>2024-09-26T08:36:39.000Z</time>
      </trkpt>
      <trkpt lat="41.00812" lon="20.24073">
        <ele>790.34002685547</ele>
        <time>2024-09-26T08:36:40.000Z</time>
      </trkpt>
      <trkpt lat="41.00813" lon="20.24081">
        <ele>789.38000488281</ele>
        <time>2024-09-26T08:36:41.000Z</time>
      </trkpt>
      <trkpt lat="41.00814" lon="20.24089">
        <ele>788.90002441406</ele>
        <time>2024-09-26T08:36:42.000Z</time>
      </trkpt>
      <trkpt lat="41.00814" lon="20.24102">
        <ele>787.46002197266</ele>
        <time>2024-09-26T08:36:43.000Z</time>
      </trkpt>
      <trkpt lat="41.00814" lon="20.24107">
        <ele>786.97998046875</ele>
        <time>2024-09-26T08:36:44.000Z</time>
      </trkpt>
      <trkpt lat="41.00815" lon="20.24117">
        <ele>786.02001953125</ele>
        <time>2024-09-26T08:36:45.000Z</time>
      </trkpt>
      <trkpt lat="41.00817" lon="20.24125">
        <ele>785.04998779297</ele>
        <time>2024-09-26T08:36:46.000Z</time>
      </trkpt>
      <trkpt lat="41.0082" lon="20.24133">
        <ele>784.09002685547</ele>
        <time>2024-09-26T08:36:47.000Z</time>
      </trkpt>
      <trkpt lat="41.00824" lon="20.24142">
        <ele>783.13000488281</ele>
        <time>2024-09-26T08:36:48.000Z</time>
      </trkpt>
      <trkpt lat="41.0083" lon="20.24149">
        <ele>782.65002441406</ele>
        <time>2024-09-26T08:36:49.000Z</time>
      </trkpt>
      <trkpt lat="41.00834" lon="20.24154">
        <ele>782.16998291016</ele>
        <time>2024-09-26T08:36:50.000Z</time>
      </trkpt>
      <trkpt lat="41.0084" lon="20.2416">
        <ele>782.16998291016</ele>
        <time>2024-09-26T08:36:51.000Z</time>
      </trkpt>
      <trkpt lat="41.00845" lon="20.24165">
        <ele>781.69000244141</ele>
        <time>2024-09-26T08:36:52.000Z</time>
      </trkpt>
      <trkpt lat="41.00851" lon="20.24169">
        <ele>781.69000244141</ele>
        <time>2024-09-26T08:36:53.000Z</time>
      </trkpt>
      <trkpt lat="41.00857" lon="20.24175">
        <ele>781.21002197266</ele>
        <time>2024-09-26T08:36:54.000Z</time>
      </trkpt>
      <trkpt lat="41.00862" lon="20.24182">
        <ele>780.72998046875</ele>
        <time>2024-09-26T08:36:55.000Z</time>
      </trkpt>
      <trkpt lat="41.00864" lon="20.2419">
        <ele>780.25</ele>
        <time>2024-09-26T08:36:56.000Z</time>
      </trkpt>
      <trkpt lat="41.00867" lon="20.24198">
        <ele>780.25</ele>
        <time>2024-09-26T08:36:57.000Z</time>
      </trkpt>
      <trkpt lat="41.00869" lon="20.24205">
        <ele>779.77001953125</ele>
        <time>2024-09-26T08:36:58.000Z</time>
      </trkpt>
      <trkpt lat="41.00869" lon="20.24212">
        <ele>779.77001953125</ele>
        <time>2024-09-26T08:36:59.000Z</time>
      </trkpt>
      <trkpt lat="41.00863" lon="20.24223">
        <ele>779.77001953125</ele>
        <time>2024-09-26T08:37:01.000Z</time>
      </trkpt>
      <trkpt lat="41.00862" lon="20.24223">
        <ele>779.28997802734</ele>
        <time>2024-09-26T08:37:02.000Z</time>
      </trkpt>
      <trkpt lat="41.00857" lon="20.24224">
        <ele>779.28997802734</ele>
        <time>2024-09-26T08:37:03.000Z</time>
      </trkpt>
      <trkpt lat="41.00848" lon="20.24223">
        <ele>779.77001953125</ele>
        <time>2024-09-26T08:37:04.000Z</time>
      </trkpt>
      <trkpt lat="41.00844" lon="20.24223">
        <ele>779.77001953125</ele>
        <time>2024-09-26T08:37:05.000Z</time>
      </trkpt>
      <trkpt lat="41.0084" lon="20.24222">
        <ele>780.25</ele>
        <time>2024-09-26T08:37:06.000Z</time>
      </trkpt>
      <trkpt lat="41.00824" lon="20.24225">
        <ele>781.69000244141</ele>
        <time>2024-09-26T08:37:08.000Z</time>
      </trkpt>
      <trkpt lat="41.00818" lon="20.24226">
        <ele>782.16998291016</ele>
        <time>2024-09-26T08:37:09.000Z</time>
      </trkpt>
      <trkpt lat="41.00812" lon="20.24226">
        <ele>783.13000488281</ele>
        <time>2024-09-26T08:37:10.000Z</time>
      </trkpt>
      <trkpt lat="41.00803" lon="20.24226">
        <ele>784.57000732422</ele>
        <time>2024-09-26T08:37:11.000Z</time>
      </trkpt>
      <trkpt lat="41.00799" lon="20.24226">
        <ele>785.04998779297</ele>
        <time>2024-09-26T08:37:12.000Z</time>
      </trkpt>
      <trkpt lat="41.00792" lon="20.24226">
        <ele>786.02001953125</ele>
        <time>2024-09-26T08:37:13.000Z</time>
      </trkpt>
      <trkpt lat="41.00786" lon="20.24224">
        <ele>786.5</ele>
        <time>2024-09-26T08:37:14.000Z</time>
      </trkpt>
      <trkpt lat="41.00779" lon="20.2422">
        <ele>787.46002197266</ele>
        <time>2024-09-26T08:37:15.000Z</time>
      </trkpt>
      <trkpt lat="41.00773" lon="20.24215">
        <ele>788.41998291016</ele>
        <time>2024-09-26T08:37:16.000Z</time>
      </trkpt>
      <trkpt lat="41.00767" lon="20.24212">
        <ele>789.38000488281</ele>
        <time>2024-09-26T08:37:17.000Z</time>
      </trkpt>
      <trkpt lat="41.00763" lon="20.2421">
        <ele>789.85998535156</ele>
        <time>2024-09-26T08:37:18.000Z</time>
      </trkpt>
      <trkpt lat="41.0075" lon="20.24207">
        <ele>791.29998779297</ele>
        <time>2024-09-26T08:37:20.000Z</time>
      </trkpt>
      <trkpt lat="41.00745" lon="20.24204">
        <ele>791.29998779297</ele>
        <time>2024-09-26T08:37:21.000Z</time>
      </trkpt>
      <trkpt lat="41.00739" lon="20.242">
        <ele>791.29998779297</ele>
        <time>2024-09-26T08:37:22.000Z</time>
      </trkpt>
      <trkpt lat="41.00731" lon="20.24193">
        <ele>791.29998779297</ele>
        <time>2024-09-26T08:37:23.000Z</time>
      </trkpt>
      <trkpt lat="41.00724" lon="20.24185">
        <ele>791.29998779297</ele>
        <time>2024-09-26T08:37:24.000Z</time>
      </trkpt>
      <trkpt lat="41.0072" lon="20.2418">
        <ele>791.78002929688</ele>
        <time>2024-09-26T08:37:25.000Z</time>
      </trkpt>
      <trkpt lat="41.00717" lon="20.24176">
        <ele>791.29998779297</ele>
        <time>2024-09-26T08:37:26.000Z</time>
      </trkpt>
      <trkpt lat="41.00713" lon="20.2417">
        <ele>791.29998779297</ele>
        <time>2024-09-26T08:37:27.000Z</time>
      </trkpt>
      <trkpt lat="41.00709" lon="20.24164">
        <ele>791.29998779297</ele>
        <time>2024-09-26T08:37:28.000Z</time>
      </trkpt>
      <trkpt lat="41.00704" lon="20.24157">
        <ele>791.29998779297</ele>
        <time>2024-09-26T08:37:29.000Z</time>
      </trkpt>
      <trkpt lat="41.00701" lon="20.24153">
        <ele>790.82000732422</ele>
        <time>2024-09-26T08:37:30.000Z</time>
      </trkpt>
      <trkpt lat="41.00695" lon="20.24146">
        <ele>790.82000732422</ele>
        <time>2024-09-26T08:37:31.000Z</time>
      </trkpt>
      <trkpt lat="41.00686" lon="20.2414">
        <ele>790.34002685547</ele>
        <time>2024-09-26T08:37:32.000Z</time>
      </trkpt>
      <trkpt lat="41.00673" lon="20.24134">
        <ele>790.34002685547</ele>
        <time>2024-09-26T08:37:33.000Z</time>
      </trkpt>
      <trkpt lat="41.0066" lon="20.24127">
        <ele>790.34002685547</ele>
        <time>2024-09-26T08:37:34.000Z</time>
      </trkpt>
      <trkpt lat="41.00651" lon="20.24121">
        <ele>789.38000488281</ele>
        <time>2024-09-26T08:37:35.000Z</time>
      </trkpt>
      <trkpt lat="41.00657" lon="20.24125">
        <ele>789.85998535156</ele>
        <time>2024-09-26T08:43:18.000Z</time>
      </trkpt>
      <trkpt lat="41.00628" lon="20.24099">
        <ele>787.94000244141</ele>
        <time>2024-09-26T08:43:22.000Z</time>
      </trkpt>
      <trkpt lat="41.00625" lon="20.24095">
        <ele>787.94000244141</ele>
        <time>2024-09-26T08:43:23.000Z</time>
      </trkpt>
      <trkpt lat="41.00618" lon="20.24091">
        <ele>787.46002197266</ele>
        <time>2024-09-26T08:43:24.000Z</time>
      </trkpt>
      <trkpt lat="41.0061" lon="20.24089">
        <ele>787.46002197266</ele>
        <time>2024-09-26T08:43:25.000Z</time>
      </trkpt>
      <trkpt lat="41.00602" lon="20.24089">
        <ele>787.46002197266</ele>
        <time>2024-09-26T08:43:26.000Z</time>
      </trkpt>
      <trkpt lat="41.00594" lon="20.24092">
        <ele>787.94000244141</ele>
        <time>2024-09-26T08:43:27.000Z</time>
      </trkpt>
      <trkpt lat="41.00587" lon="20.24096">
        <ele>787.94000244141</ele>
        <time>2024-09-26T08:43:28.000Z</time>
      </trkpt>
      <trkpt lat="41.00571" lon="20.2411">
        <ele>788.90002441406</ele>
        <time>2024-09-26T08:43:30.000Z</time>
      </trkpt>
      <trkpt lat="41.00569" lon="20.24112">
        <ele>788.90002441406</ele>
        <time>2024-09-26T08:43:31.000Z</time>
      </trkpt>
      <trkpt lat="41.00563" lon="20.24116">
        <ele>788.90002441406</ele>
        <time>2024-09-26T08:43:32.000Z</time>
      </trkpt>
      <trkpt lat="41.00557" lon="20.24117">
        <ele>788.90002441406</ele>
        <time>2024-09-26T08:43:33.000Z</time>
      </trkpt>
      <trkpt lat="41.00552" lon="20.24115">
        <ele>788.90002441406</ele>
        <time>2024-09-26T08:43:34.000Z</time>
      </trkpt>
      <trkpt lat="41.00547" lon="20.2411">
        <ele>788.90002441406</ele>
        <time>2024-09-26T08:43:35.000Z</time>
      </trkpt>
      <trkpt lat="41.00544" lon="20.24105">
        <ele>788.41998291016</ele>
        <time>2024-09-26T08:43:36.000Z</time>
      </trkpt>
      <trkpt lat="41.00542" lon="20.24098">
        <ele>787.94000244141</ele>
        <time>2024-09-26T08:43:37.000Z</time>
      </trkpt>
      <trkpt lat="41.00542" lon="20.2409">
        <ele>787.94000244141</ele>
        <time>2024-09-26T08:43:38.000Z</time>
      </trkpt>
      <trkpt lat="41.00543" lon="20.24078">
        <ele>786.97998046875</ele>
        <time>2024-09-26T08:43:39.000Z</time>
      </trkpt>
      <trkpt lat="41.00543" lon="20.24076">
        <ele>786.97998046875</ele>
        <time>2024-09-26T08:43:40.000Z</time>
      </trkpt>
      <trkpt lat="41.00542" lon="20.24068">
        <ele>786.5</ele>
        <time>2024-09-26T08:43:41.000Z</time>
      </trkpt>
      <trkpt lat="41.00541" lon="20.2406">
        <ele>786.02001953125</ele>
        <time>2024-09-26T08:43:42.000Z</time>
      </trkpt>
      <trkpt lat="41.00539" lon="20.24055">
        <ele>786.02001953125</ele>
        <time>2024-09-26T08:43:43.000Z</time>
      </trkpt>
      <trkpt lat="41.00536" lon="20.24051">
        <ele>786.02001953125</ele>
        <time>2024-09-26T08:43:44.000Z</time>
      </trkpt>
      <trkpt lat="41.00532" lon="20.24048">
        <ele>785.53002929688</ele>
        <time>2024-09-26T08:43:45.000Z</time>
      </trkpt>
      <trkpt lat="41.00526" lon="20.24046">
        <ele>786.02001953125</ele>
        <time>2024-09-26T08:43:46.000Z</time>
      </trkpt>
      <trkpt lat="41.00519" lon="20.24046">
        <ele>786.5</ele>
        <time>2024-09-26T08:43:47.000Z</time>
      </trkpt>
      <trkpt lat="41.00514" lon="20.24045">
        <ele>786.97998046875</ele>
        <time>2024-09-26T08:43:48.000Z</time>
      </trkpt>
      <trkpt lat="41.00509" lon="20.24045">
        <ele>786.97998046875</ele>
        <time>2024-09-26T08:43:49.000Z</time>
      </trkpt>
      <trkpt lat="41.00503" lon="20.24046">
        <ele>787.46002197266</ele>
        <time>2024-09-26T08:43:50.000Z</time>
      </trkpt>
      <trkpt lat="41.00498" lon="20.24049">
        <ele>787.94000244141</ele>
        <time>2024-09-26T08:43:51.000Z</time>
      </trkpt>
      <trkpt lat="41.00493" lon="20.24053">
        <ele>788.41998291016</ele>
        <time>2024-09-26T08:43:52.000Z</time>
      </trkpt>
      <trkpt lat="41.00488" lon="20.2406">
        <ele>789.38000488281</ele>
        <time>2024-09-26T08:43:53.000Z</time>
      </trkpt>
      <trkpt lat="41.00485" lon="20.24065">
        <ele>789.38000488281</ele>
        <time>2024-09-26T08:43:54.000Z</time>
      </trkpt>
      <trkpt lat="41.00479" lon="20.24071">
        <ele>789.38000488281</ele>
        <time>2024-09-26T08:43:55.000Z</time>
      </trkpt>
      <trkpt lat="41.00473" lon="20.24076">
        <ele>789.85998535156</ele>
        <time>2024-09-26T08:43:56.000Z</time>
      </trkpt>
      <trkpt lat="41.00466" lon="20.24079">
        <ele>790.34002685547</ele>
        <time>2024-09-26T08:43:57.000Z</time>
      </trkpt>
      <trkpt lat="41.00461" lon="20.24082">
        <ele>790.82000732422</ele>
        <time>2024-09-26T08:43:58.000Z</time>
      </trkpt>
      <trkpt lat="41.00454" lon="20.24085">
        <ele>791.29998779297</ele>
        <time>2024-09-26T08:43:59.000Z</time>
      </trkpt>
      <trkpt lat="41.00448" lon="20.24088">
        <ele>791.78002929688</ele>
        <time>2024-09-26T08:44:00.000Z</time>
      </trkpt>
      <trkpt lat="41.00442" lon="20.24093">
        <ele>792.73999023438</ele>
        <time>2024-09-26T08:44:01.000Z</time>
      </trkpt>
      <trkpt lat="41.00438" lon="20.24099">
        <ele>793.71002197266</ele>
        <time>2024-09-26T08:44:02.000Z</time>
      </trkpt>
      <trkpt lat="41.00434" lon="20.24107">
        <ele>795.15002441406</ele>
        <time>2024-09-26T08:44:03.000Z</time>
      </trkpt>
      <trkpt lat="41.0043" lon="20.24113">
        <ele>796.10998535156</ele>
        <time>2024-09-26T08:44:04.000Z</time>
      </trkpt>
      <trkpt lat="41.00425" lon="20.24116">
        <ele>797.07000732422</ele>
        <time>2024-09-26T08:44:05.000Z</time>
      </trkpt>
      <trkpt lat="41.00417" lon="20.24116">
        <ele>796.10998535156</ele>
        <time>2024-09-26T08:44:06.000Z</time>
      </trkpt>
      <trkpt lat="41.00413" lon="20.24117">
        <ele>795.63000488281</ele>
        <time>2024-09-26T08:44:07.000Z</time>
      </trkpt>
      <trkpt lat="41.00406" lon="20.24118">
        <ele>795.63000488281</ele>
        <time>2024-09-26T08:44:08.000Z</time>
      </trkpt>
      <trkpt lat="41.00399" lon="20.24121">
        <ele>795.15002441406</ele>
        <time>2024-09-26T08:44:09.000Z</time>
      </trkpt>
      <trkpt lat="41.0039" lon="20.24127">
        <ele>795.63000488281</ele>
        <time>2024-09-26T08:44:10.000Z</time>
      </trkpt>
      <trkpt lat="41.00384" lon="20.24131">
        <ele>795.63000488281</ele>
        <time>2024-09-26T08:44:11.000Z</time>
      </trkpt>
      <trkpt lat="41.00381" lon="20.24133">
        <ele>795.63000488281</ele>
        <time>2024-09-26T08:44:12.000Z</time>
      </trkpt>
      <trkpt lat="41.00374" lon="20.24134">
        <ele>795.63000488281</ele>
        <time>2024-09-26T08:44:13.000Z</time>
      </trkpt>
      <trkpt lat="41.00368" lon="20.24133">
        <ele>796.10998535156</ele>
        <time>2024-09-26T08:44:14.000Z</time>
      </trkpt>
      <trkpt lat="41.00362" lon="20.24129">
        <ele>795.63000488281</ele>
        <time>2024-09-26T08:44:15.000Z</time>
      </trkpt>
      <trkpt lat="41.00355" lon="20.2412">
        <ele>796.10998535156</ele>
        <time>2024-09-26T08:44:16.000Z</time>
      </trkpt>
      <trkpt lat="41.00342" lon="20.24102">
        <ele>797.07000732422</ele>
        <time>2024-09-26T08:44:18.000Z</time>
      </trkpt>
      <trkpt lat="41.00337" lon="20.24091">
        <ele>797.54998779297</ele>
        <time>2024-09-26T08:44:19.000Z</time>
      </trkpt>
      <trkpt lat="41.00334" lon="20.24086">
        <ele>798.03002929688</ele>
        <time>2024-09-26T08:44:20.000Z</time>
      </trkpt>
      <trkpt lat="41.0033" lon="20.24083">
        <ele>798.51000976562</ele>
        <time>2024-09-26T08:44:21.000Z</time>
      </trkpt>
      <trkpt lat="41.00324" lon="20.24082">
        <ele>798.98999023438</ele>
        <time>2024-09-26T08:44:22.000Z</time>
      </trkpt>
      <trkpt lat="41.00308" lon="20.24082">
        <ele>799.95001220703</ele>
        <time>2024-09-26T08:44:24.000Z</time>
      </trkpt>
      <trkpt lat="41.00301" lon="20.24082">
        <ele>800.91998291016</ele>
        <time>2024-09-26T08:44:25.000Z</time>
      </trkpt>
      <trkpt lat="41.00292" lon="20.24082">
        <ele>801.88000488281</ele>
        <time>2024-09-26T08:44:26.000Z</time>
      </trkpt>
      <trkpt lat="41.00285" lon="20.24081">
        <ele>802.35998535156</ele>
        <time>2024-09-26T08:44:27.000Z</time>
      </trkpt>
      <trkpt lat="41.00261" lon="20.24077">
        <ele>803.79998779297</ele>
        <time>2024-09-26T08:44:30.000Z</time>
      </trkpt>
      <trkpt lat="41.00245" lon="20.24076">
        <ele>804.76000976562</ele>
        <time>2024-09-26T08:44:31.000Z</time>
      </trkpt>
      <trkpt lat="41.00243" lon="20.24076">
        <ele>805.23999023438</ele>
        <time>2024-09-26T08:44:32.000Z</time>
      </trkpt>
      <trkpt lat="41.00234" lon="20.24075">
        <ele>806.20001220703</ele>
        <time>2024-09-26T08:44:33.000Z</time>
      </trkpt>
      <trkpt lat="41.00227" lon="20.24077">
        <ele>807.15997314453</ele>
        <time>2024-09-26T08:44:34.000Z</time>
      </trkpt>
      <trkpt lat="41.00219" lon="20.24081">
        <ele>808.60998535156</ele>
        <time>2024-09-26T08:44:35.000Z</time>
      </trkpt>
      <trkpt lat="41.00213" lon="20.24084">
        <ele>809.57000732422</ele>
        <time>2024-09-26T08:44:36.000Z</time>
      </trkpt>
      <trkpt lat="41.00209" lon="20.24087">
        <ele>810.04998779297</ele>
        <time>2024-09-26T08:44:37.000Z</time>
      </trkpt>
      <trkpt lat="41.00204" lon="20.24088">
        <ele>810.53002929688</ele>
        <time>2024-09-26T08:44:38.000Z</time>
      </trkpt>
      <trkpt lat="41.002" lon="20.24087">
        <ele>811.01000976562</ele>
        <time>2024-09-26T08:44:39.000Z</time>
      </trkpt>
      <trkpt lat="41.00196" lon="20.24086">
        <ele>811.48999023438</ele>
        <time>2024-09-26T08:44:40.000Z</time>
      </trkpt>
      <trkpt lat="41.0018" lon="20.24078">
        <ele>811.96997070312</ele>
        <time>2024-09-26T08:44:48.000Z</time>
      </trkpt>
      <trkpt lat="41.00175" lon="20.24073">
        <ele>814.84997558594</ele>
        <time>2024-09-26T08:45:09.000Z</time>
      </trkpt>
      <trkpt lat="41.00173" lon="20.2407">
        <ele>814.84997558594</ele>
        <time>2024-09-26T08:45:10.000Z</time>
      </trkpt>
      <trkpt lat="41.00169" lon="20.24065">
        <ele>815.34002685547</ele>
        <time>2024-09-26T08:45:11.000Z</time>
      </trkpt>
      <trkpt lat="41.00161" lon="20.24057">
        <ele>815.82000732422</ele>
        <time>2024-09-26T08:45:12.000Z</time>
      </trkpt>
      <trkpt lat="41.0016" lon="20.24056">
        <ele>816.29998779297</ele>
        <time>2024-09-26T08:45:13.000Z</time>
      </trkpt>
      <trkpt lat="41.00156" lon="20.24052">
        <ele>816.29998779297</ele>
        <time>2024-09-26T08:45:14.000Z</time>
      </trkpt>
      <trkpt lat="41.00151" lon="20.24049">
        <ele>816.78002929688</ele>
        <time>2024-09-26T08:45:15.000Z</time>
      </trkpt>
      <trkpt lat="41.00147" lon="20.24047">
        <ele>817.26000976562</ele>
        <time>2024-09-26T08:45:16.000Z</time>
      </trkpt>
      <trkpt lat="41.00135" lon="20.24042">
        <ele>817.73999023438</ele>
        <time>2024-09-26T08:45:18.000Z</time>
      </trkpt>
      <trkpt lat="41.00129" lon="20.24039">
        <ele>818.21997070312</ele>
        <time>2024-09-26T08:45:19.000Z</time>
      </trkpt>
      <trkpt lat="41.00125" lon="20.24036">
        <ele>818.21997070312</ele>
        <time>2024-09-26T08:45:20.000Z</time>
      </trkpt>
      <trkpt lat="41.0012" lon="20.24032">
        <ele>818.70001220703</ele>
        <time>2024-09-26T08:45:21.000Z</time>
      </trkpt>
      <trkpt lat="41.00109" lon="20.24023">
        <ele>819.17999267578</ele>
        <time>2024-09-26T08:45:22.000Z</time>
      </trkpt>
      <trkpt lat="41.00107" lon="20.24022">
        <ele>819.65997314453</ele>
        <time>2024-09-26T08:45:23.000Z</time>
      </trkpt>
      <trkpt lat="41.001" lon="20.24018">
        <ele>821.09997558594</ele>
        <time>2024-09-26T08:45:24.000Z</time>
      </trkpt>
      <trkpt lat="41.00095" lon="20.24014">
        <ele>822.05999755859</ele>
        <time>2024-09-26T08:45:25.000Z</time>
      </trkpt>
      <trkpt lat="41.00089" lon="20.24009">
        <ele>822.54998779297</ele>
        <time>2024-09-26T08:45:26.000Z</time>
      </trkpt>
      <trkpt lat="41.0008" lon="20.23997">
        <ele>823.98999023438</ele>
        <time>2024-09-26T08:45:27.000Z</time>
      </trkpt>
      <trkpt lat="41.00078" lon="20.23995">
        <ele>823.98999023438</ele>
        <time>2024-09-26T08:45:28.000Z</time>
      </trkpt>
      <trkpt lat="41.00073" lon="20.2399">
        <ele>823.98999023438</ele>
        <time>2024-09-26T08:45:29.000Z</time>
      </trkpt>
      <trkpt lat="41.00067" lon="20.23986">
        <ele>824.95001220703</ele>
        <time>2024-09-26T08:45:30.000Z</time>
      </trkpt>
      <trkpt lat="41.0006" lon="20.23985">
        <ele>825.90997314453</ele>
        <time>2024-09-26T08:45:31.000Z</time>
      </trkpt>
      <trkpt lat="41.00054" lon="20.23984">
        <ele>826.39001464844</ele>
        <time>2024-09-26T08:45:32.000Z</time>
      </trkpt>
      <trkpt lat="41.00048" lon="20.23982">
        <ele>826.39001464844</ele>
        <time>2024-09-26T08:45:33.000Z</time>
      </trkpt>
      <trkpt lat="41.00043" lon="20.23976">
        <ele>826.86999511719</ele>
        <time>2024-09-26T08:45:34.000Z</time>
      </trkpt>
      <trkpt lat="41.00037" lon="20.23966">
        <ele>827.34997558594</ele>
        <time>2024-09-26T08:45:35.000Z</time>
      </trkpt>
      <trkpt lat="41.00035" lon="20.23961">
        <ele>827.34997558594</ele>
        <time>2024-09-26T08:45:36.000Z</time>
      </trkpt>
      <trkpt lat="41.00029" lon="20.23954">
        <ele>827.34997558594</ele>
        <time>2024-09-26T08:45:37.000Z</time>
      </trkpt>
      <trkpt lat="41.00023" lon="20.23948">
        <ele>827.34997558594</ele>
        <time>2024-09-26T08:45:38.000Z</time>
      </trkpt>
      <trkpt lat="41.00016" lon="20.23944">
        <ele>827.83001708984</ele>
        <time>2024-09-26T08:45:39.000Z</time>
      </trkpt>
      <trkpt lat="41.0001" lon="20.23941">
        <ele>828.30999755859</ele>
        <time>2024-09-26T08:45:40.000Z</time>
      </trkpt>
      <trkpt lat="41.00003" lon="20.2394">
        <ele>828.78997802734</ele>
        <time>2024-09-26T08:45:41.000Z</time>
      </trkpt>
      <trkpt lat="40.99996" lon="20.23942">
        <ele>829.76000976562</ele>
        <time>2024-09-26T08:45:42.000Z</time>
      </trkpt>
      <trkpt lat="40.99983" lon="20.23946">
        <ele>831.67999267578</ele>
        <time>2024-09-26T08:45:43.000Z</time>
      </trkpt>
      <trkpt lat="40.99981" lon="20.23947">
        <ele>832.15997314453</ele>
        <time>2024-09-26T08:45:44.000Z</time>
      </trkpt>
      <trkpt lat="40.99972" lon="20.23948">
        <ele>833.11999511719</ele>
        <time>2024-09-26T08:45:45.000Z</time>
      </trkpt>
      <trkpt lat="40.99966" lon="20.23949">
        <ele>833.59997558594</ele>
        <time>2024-09-26T08:45:46.000Z</time>
      </trkpt>
      <trkpt lat="40.99939" lon="20.23951">
        <ele>835.03997802734</ele>
        <time>2024-09-26T08:45:49.000Z</time>
      </trkpt>
      <trkpt lat="40.99933" lon="20.23952">
        <ele>835.52001953125</ele>
        <time>2024-09-26T08:45:50.000Z</time>
      </trkpt>
      <trkpt lat="40.99924" lon="20.2395">
        <ele>835.52001953125</ele>
        <time>2024-09-26T08:45:51.000Z</time>
      </trkpt>
      <trkpt lat="40.99918" lon="20.23946">
        <ele>836</ele>
        <time>2024-09-26T08:45:52.000Z</time>
      </trkpt>
      <trkpt lat="40.9991" lon="20.23941">
        <ele>836.47998046875</ele>
        <time>2024-09-26T08:45:53.000Z</time>
      </trkpt>
      <trkpt lat="40.99904" lon="20.23939">
        <ele>836.47998046875</ele>
        <time>2024-09-26T08:45:54.000Z</time>
      </trkpt>
      <trkpt lat="40.99897" lon="20.23939">
        <ele>836.96002197266</ele>
        <time>2024-09-26T08:45:55.000Z</time>
      </trkpt>
      <trkpt lat="40.9989" lon="20.2394">
        <ele>837.45001220703</ele>
        <time>2024-09-26T08:45:56.000Z</time>
      </trkpt>
      <trkpt lat="40.9987" lon="20.23944">
        <ele>838.40997314453</ele>
        <time>2024-09-26T08:45:58.000Z</time>
      </trkpt>
      <trkpt lat="40.99868" lon="20.23944">
        <ele>838.89001464844</ele>
        <time>2024-09-26T08:45:59.000Z</time>
      </trkpt>
      <trkpt lat="40.99861" lon="20.23945">
        <ele>839.36999511719</ele>
        <time>2024-09-26T08:46:00.000Z</time>
      </trkpt>
      <trkpt lat="40.99854" lon="20.23946">
        <ele>839.36999511719</ele>
        <time>2024-09-26T08:46:01.000Z</time>
      </trkpt>
      <trkpt lat="40.99848" lon="20.23944">
        <ele>839.84997558594</ele>
        <time>2024-09-26T08:46:02.000Z</time>
      </trkpt>
      <trkpt lat="40.99838" lon="20.23939">
        <ele>840.33001708984</ele>
        <time>2024-09-26T08:46:04.000Z</time>
      </trkpt>
      <trkpt lat="40.99823" lon="20.23929">
        <ele>841.28997802734</ele>
        <time>2024-09-26T08:46:12.000Z</time>
      </trkpt>
      <trkpt lat="40.99825" lon="20.23927">
        <ele>848.02001953125</ele>
        <time>2024-09-26T09:12:27.000Z</time>
      </trkpt>
      <trkpt lat="40.99814" lon="20.23926">
        <ele>843.21002197266</ele>
        <time>2024-09-26T09:21:26.000Z</time>
      </trkpt>
      <trkpt lat="40.9981" lon="20.23924">
        <ele>843.21002197266</ele>
        <time>2024-09-26T09:21:27.000Z</time>
      </trkpt>
      <trkpt lat="40.99807" lon="20.23921">
        <ele>843.21002197266</ele>
        <time>2024-09-26T09:21:28.000Z</time>
      </trkpt>
      <trkpt lat="40.99803" lon="20.23918">
        <ele>843.21002197266</ele>
        <time>2024-09-26T09:21:29.000Z</time>
      </trkpt>
      <trkpt lat="40.99798" lon="20.23914">
        <ele>843.21002197266</ele>
        <time>2024-09-26T09:21:30.000Z</time>
      </trkpt>
      <trkpt lat="40.99793" lon="20.23909">
        <ele>843.21002197266</ele>
        <time>2024-09-26T09:21:31.000Z</time>
      </trkpt>
      <trkpt lat="40.9979" lon="20.23906">
        <ele>843.21002197266</ele>
        <time>2024-09-26T09:21:32.000Z</time>
      </trkpt>
      <trkpt lat="40.99786" lon="20.23902">
        <ele>843.69000244141</ele>
        <time>2024-09-26T09:21:33.000Z</time>
      </trkpt>
      <trkpt lat="40.99782" lon="20.23898">
        <ele>844.17999267578</ele>
        <time>2024-09-26T09:21:34.000Z</time>
      </trkpt>
      <trkpt lat="40.99777" lon="20.23892">
        <ele>844.65997314453</ele>
        <time>2024-09-26T09:21:35.000Z</time>
      </trkpt>
      <trkpt lat="40.99774" lon="20.23889">
        <ele>845.14001464844</ele>
        <time>2024-09-26T09:21:36.000Z</time>
      </trkpt>
      <trkpt lat="40.99769" lon="20.23885">
        <ele>846.09997558594</ele>
        <time>2024-09-26T09:21:37.000Z</time>
      </trkpt>
      <trkpt lat="40.99765" lon="20.23883">
        <ele>846.58001708984</ele>
        <time>2024-09-26T09:21:38.000Z</time>
      </trkpt>
      <trkpt lat="40.99759" lon="20.23883">
        <ele>847.05999755859</ele>
        <time>2024-09-26T09:21:39.000Z</time>
      </trkpt>
      <trkpt lat="40.99749" lon="20.23885">
        <ele>848.5</ele>
        <time>2024-09-26T09:21:40.000Z</time>
      </trkpt>
      <trkpt lat="40.99747" lon="20.23886">
        <ele>848.97998046875</ele>
        <time>2024-09-26T09:21:41.000Z</time>
      </trkpt>
      <trkpt lat="40.99741" lon="20.23889">
        <ele>849.46002197266</ele>
        <time>2024-09-26T09:21:42.000Z</time>
      </trkpt>
      <trkpt lat="40.99733" lon="20.23896">
        <ele>850.41998291016</ele>
        <time>2024-09-26T09:21:43.000Z</time>
      </trkpt>
      <trkpt lat="40.99726" lon="20.23901">
        <ele>850.90002441406</ele>
        <time>2024-09-26T09:21:44.000Z</time>
      </trkpt>
      <trkpt lat="40.99724" lon="20.23902">
        <ele>851.38000488281</ele>
        <time>2024-09-26T09:21:45.000Z</time>
      </trkpt>
      <trkpt lat="40.99717" lon="20.23908">
        <ele>851.86999511719</ele>
        <time>2024-09-26T09:21:46.000Z</time>
      </trkpt>
      <trkpt lat="40.99713" lon="20.23911">
        <ele>852.34997558594</ele>
        <time>2024-09-26T09:21:47.000Z</time>
      </trkpt>
      <trkpt lat="40.99706" lon="20.23915">
        <ele>852.83001708984</ele>
        <time>2024-09-26T09:21:48.000Z</time>
      </trkpt>
      <trkpt lat="40.997" lon="20.23917">
        <ele>853.78997802734</ele>
        <time>2024-09-26T09:21:49.000Z</time>
      </trkpt>
      <trkpt lat="40.99693" lon="20.23918">
        <ele>854.27001953125</ele>
        <time>2024-09-26T09:21:50.000Z</time>
      </trkpt>
      <trkpt lat="40.99682" lon="20.23917">
        <ele>855.22998046875</ele>
        <time>2024-09-26T09:21:51.000Z</time>
      </trkpt>
      <trkpt lat="40.9968" lon="20.23916">
        <ele>855.22998046875</ele>
        <time>2024-09-26T09:21:52.000Z</time>
      </trkpt>
      <trkpt lat="40.99674" lon="20.23914">
        <ele>856.19000244141</ele>
        <time>2024-09-26T09:21:53.000Z</time>
      </trkpt>
      <trkpt lat="40.99667" lon="20.23911">
        <ele>856.66998291016</ele>
        <time>2024-09-26T09:21:54.000Z</time>
      </trkpt>
      <trkpt lat="40.9966" lon="20.23906">
        <ele>858.10998535156</ele>
        <time>2024-09-26T09:21:55.000Z</time>
      </trkpt>
      <trkpt lat="40.99656" lon="20.23904">
        <ele>858.59002685547</ele>
        <time>2024-09-26T09:21:56.000Z</time>
      </trkpt>
      <trkpt lat="40.9965" lon="20.23901">
        <ele>859.08001708984</ele>
        <time>2024-09-26T09:21:57.000Z</time>
      </trkpt>
      <trkpt lat="40.99644" lon="20.239">
        <ele>859.55999755859</ele>
        <time>2024-09-26T09:21:58.000Z</time>
      </trkpt>
      <trkpt lat="40.99637" lon="20.239">
        <ele>860.03997802734</ele>
        <time>2024-09-26T09:21:59.000Z</time>
      </trkpt>
      <trkpt lat="40.9963" lon="20.23902">
        <ele>860.03997802734</ele>
        <time>2024-09-26T09:22:00.000Z</time>
      </trkpt>
      <trkpt lat="40.99624" lon="20.23902">
        <ele>860.52001953125</ele>
        <time>2024-09-26T09:22:01.000Z</time>
      </trkpt>
      <trkpt lat="40.99619" lon="20.23903">
        <ele>861</ele>
        <time>2024-09-26T09:22:02.000Z</time>
      </trkpt>
      <trkpt lat="40.99613" lon="20.23905">
        <ele>861.47998046875</ele>
        <time>2024-09-26T09:22:03.000Z</time>
      </trkpt>
      <trkpt lat="40.99608" lon="20.23908">
        <ele>861.96002197266</ele>
        <time>2024-09-26T09:22:04.000Z</time>
      </trkpt>
      <trkpt lat="40.99604" lon="20.23914">
        <ele>862.44000244141</ele>
        <time>2024-09-26T09:22:05.000Z</time>
      </trkpt>
      <trkpt lat="40.99601" lon="20.23921">
        <ele>862.91998291016</ele>
        <time>2024-09-26T09:22:06.000Z</time>
      </trkpt>
      <trkpt lat="40.99598" lon="20.23927">
        <ele>863.40002441406</ele>
        <time>2024-09-26T09:22:07.000Z</time>
      </trkpt>
      <trkpt lat="40.99596" lon="20.2394">
        <ele>864.35998535156</ele>
        <time>2024-09-26T09:22:08.000Z</time>
      </trkpt>
      <trkpt lat="40.99593" lon="20.2395">
        <ele>865.32000732422</ele>
        <time>2024-09-26T09:22:09.000Z</time>
      </trkpt>
      <trkpt lat="40.99593" lon="20.23951">
        <ele>865.32000732422</ele>
        <time>2024-09-26T09:22:10.000Z</time>
      </trkpt>
      <trkpt lat="40.99589" lon="20.23962">
        <ele>866.28997802734</ele>
        <time>2024-09-26T09:22:11.000Z</time>
      </trkpt>
      <trkpt lat="40.9958" lon="20.23982">
        <ele>868.69000244141</ele>
        <time>2024-09-26T09:22:14.000Z</time>
      </trkpt>
      <trkpt lat="40.99574" lon="20.23999">
        <ele>870.13000488281</ele>
        <time>2024-09-26T09:22:16.000Z</time>
      </trkpt>
      <trkpt lat="40.99573" lon="20.24004">
        <ele>870.60998535156</ele>
        <time>2024-09-26T09:22:17.000Z</time>
      </trkpt>
      <trkpt lat="40.99569" lon="20.24014">
        <ele>871.57000732422</ele>
        <time>2024-09-26T09:22:18.000Z</time>
      </trkpt>
      <trkpt lat="40.99567" lon="20.24019">
        <ele>872.04998779297</ele>
        <time>2024-09-26T09:22:19.000Z</time>
      </trkpt>
      <trkpt lat="40.99564" lon="20.24023">
        <ele>872.04998779297</ele>
        <time>2024-09-26T09:22:20.000Z</time>
      </trkpt>
      <trkpt lat="40.9956" lon="20.24027">
        <ele>872.53002929688</ele>
        <time>2024-09-26T09:22:21.000Z</time>
      </trkpt>
      <trkpt lat="40.99554" lon="20.24028">
        <ele>872.53002929688</ele>
        <time>2024-09-26T09:22:22.000Z</time>
      </trkpt>
      <trkpt lat="40.99548" lon="20.24027">
        <ele>873.01000976562</ele>
        <time>2024-09-26T09:22:23.000Z</time>
      </trkpt>
      <trkpt lat="40.99543" lon="20.24025">
        <ele>873.01000976562</ele>
        <time>2024-09-26T09:22:24.000Z</time>
      </trkpt>
      <trkpt lat="40.99529" lon="20.24017">
        <ele>872.53002929688</ele>
        <time>2024-09-26T09:22:27.000Z</time>
      </trkpt>
      <trkpt lat="40.99518" lon="20.24011">
        <ele>872.04998779297</ele>
        <time>2024-09-26T09:22:29.000Z</time>
      </trkpt>
      <trkpt lat="40.99513" lon="20.24009">
        <ele>872.04998779297</ele>
        <time>2024-09-26T09:22:30.000Z</time>
      </trkpt>
      <trkpt lat="40.99508" lon="20.24008">
        <ele>872.04998779297</ele>
        <time>2024-09-26T09:22:31.000Z</time>
      </trkpt>
      <trkpt lat="40.99501" lon="20.24007">
        <ele>872.04998779297</ele>
        <time>2024-09-26T09:22:32.000Z</time>
      </trkpt>
      <trkpt lat="40.99495" lon="20.24009">
        <ele>872.04998779297</ele>
        <time>2024-09-26T09:22:33.000Z</time>
      </trkpt>
      <trkpt lat="40.99489" lon="20.24013">
        <ele>872.53002929688</ele>
        <time>2024-09-26T09:22:34.000Z</time>
      </trkpt>
      <trkpt lat="40.9948" lon="20.2402">
        <ele>872.53002929688</ele>
        <time>2024-09-26T09:22:35.000Z</time>
      </trkpt>
      <trkpt lat="40.99475" lon="20.24025">
        <ele>873.01000976562</ele>
        <time>2024-09-26T09:22:36.000Z</time>
      </trkpt>
      <trkpt lat="40.99467" lon="20.24033">
        <ele>873.97998046875</ele>
        <time>2024-09-26T09:22:37.000Z</time>
      </trkpt>
      <trkpt lat="40.99456" lon="20.24044">
        <ele>874.94000244141</ele>
        <time>2024-09-26T09:22:39.000Z</time>
      </trkpt>
      <trkpt lat="40.99451" lon="20.2405">
        <ele>875.90002441406</ele>
        <time>2024-09-26T09:22:40.000Z</time>
      </trkpt>
      <trkpt lat="40.9944" lon="20.24064">
        <ele>877.34002685547</ele>
        <time>2024-09-26T09:22:42.000Z</time>
      </trkpt>
      <trkpt lat="40.99436" lon="20.2407">
        <ele>878.29998779297</ele>
        <time>2024-09-26T09:22:43.000Z</time>
      </trkpt>
      <trkpt lat="40.9943" lon="20.24077">
        <ele>879.26000976562</ele>
        <time>2024-09-26T09:22:44.000Z</time>
      </trkpt>
      <trkpt lat="40.99425" lon="20.2408">
        <ele>879.73999023438</ele>
        <time>2024-09-26T09:22:45.000Z</time>
      </trkpt>
      <trkpt lat="40.99419" lon="20.2408">
        <ele>879.73999023438</ele>
        <time>2024-09-26T09:22:46.000Z</time>
      </trkpt>
      <trkpt lat="40.99414" lon="20.24077">
        <ele>879.73999023438</ele>
        <time>2024-09-26T09:22:47.000Z</time>
      </trkpt>
      <trkpt lat="40.9941" lon="20.24072">
        <ele>880.21997070312</ele>
        <time>2024-09-26T09:22:48.000Z</time>
      </trkpt>
      <trkpt lat="40.99406" lon="20.24064">
        <ele>880.21997070312</ele>
        <time>2024-09-26T09:22:49.000Z</time>
      </trkpt>
      <trkpt lat="40.99398" lon="20.24046">
        <ele>880.71002197266</ele>
        <time>2024-09-26T09:22:51.000Z</time>
      </trkpt>
      <trkpt lat="40.99396" lon="20.24043">
        <ele>881.19000244141</ele>
        <time>2024-09-26T09:22:52.000Z</time>
      </trkpt>
      <trkpt lat="40.99393" lon="20.24037">
        <ele>881.66998291016</ele>
        <time>2024-09-26T09:22:53.000Z</time>
      </trkpt>
      <trkpt lat="40.99388" lon="20.24032">
        <ele>881.66998291016</ele>
        <time>2024-09-26T09:22:54.000Z</time>
      </trkpt>
      <trkpt lat="40.99383" lon="20.24028">
        <ele>882.63000488281</ele>
        <time>2024-09-26T09:22:55.000Z</time>
      </trkpt>
      <trkpt lat="40.99376" lon="20.24025">
        <ele>882.63000488281</ele>
        <time>2024-09-26T09:22:56.000Z</time>
      </trkpt>
      <trkpt lat="40.99368" lon="20.24025">
        <ele>883.10998535156</ele>
        <time>2024-09-26T09:22:57.000Z</time>
      </trkpt>
      <trkpt lat="40.99361" lon="20.24026">
        <ele>883.59002685547</ele>
        <time>2024-09-26T09:22:58.000Z</time>
      </trkpt>
      <trkpt lat="40.99347" lon="20.24029">
        <ele>885.03002929688</ele>
        <time>2024-09-26T09:22:59.000Z</time>
      </trkpt>
      <trkpt lat="40.99345" lon="20.24029">
        <ele>885.03002929688</ele>
        <time>2024-09-26T09:23:00.000Z</time>
      </trkpt>
      <trkpt lat="40.99336" lon="20.24031">
        <ele>886.46997070312</ele>
        <time>2024-09-26T09:23:01.000Z</time>
      </trkpt>
      <trkpt lat="40.9933" lon="20.2403">
        <ele>886.95001220703</ele>
        <time>2024-09-26T09:23:02.000Z</time>
      </trkpt>
      <trkpt lat="40.99322" lon="20.24029">
        <ele>887.90997314453</ele>
        <time>2024-09-26T09:23:03.000Z</time>
      </trkpt>
      <trkpt lat="40.99316" lon="20.24026">
        <ele>888.40002441406</ele>
        <time>2024-09-26T09:23:04.000Z</time>
      </trkpt>
      <trkpt lat="40.99311" lon="20.24021">
        <ele>889.35998535156</ele>
        <time>2024-09-26T09:23:05.000Z</time>
      </trkpt>
      <trkpt lat="40.99303" lon="20.2401">
        <ele>890.79998779297</ele>
        <time>2024-09-26T09:23:06.000Z</time>
      </trkpt>
      <trkpt lat="40.99301" lon="20.24008">
        <ele>890.79998779297</ele>
        <time>2024-09-26T09:23:07.000Z</time>
      </trkpt>
      <trkpt lat="40.99295" lon="20.24003">
        <ele>891.76000976562</ele>
        <time>2024-09-26T09:23:08.000Z</time>
      </trkpt>
      <trkpt lat="40.9929" lon="20.24">
        <ele>892.71997070312</ele>
        <time>2024-09-26T09:23:09.000Z</time>
      </trkpt>
      <trkpt lat="40.99284" lon="20.24001">
        <ele>893.67999267578</ele>
        <time>2024-09-26T09:23:10.000Z</time>
      </trkpt>
      <trkpt lat="40.99279" lon="20.24003">
        <ele>894.64001464844</ele>
        <time>2024-09-26T09:23:11.000Z</time>
      </trkpt>
      <trkpt lat="40.99275" lon="20.24008">
        <ele>895.60998535156</ele>
        <time>2024-09-26T09:23:12.000Z</time>
      </trkpt>
      <trkpt lat="40.99271" lon="20.24014">
        <ele>896.57000732422</ele>
        <time>2024-09-26T09:23:13.000Z</time>
      </trkpt>
      <trkpt lat="40.99271" lon="20.2402">
        <ele>897.53002929688</ele>
        <time>2024-09-26T09:23:14.000Z</time>
      </trkpt>
      <trkpt lat="40.99272" lon="20.24026">
        <ele>898.48999023438</ele>
        <time>2024-09-26T09:23:15.000Z</time>
      </trkpt>
      <trkpt lat="40.99275" lon="20.24036">
        <ele>899.45001220703</ele>
        <time>2024-09-26T09:23:16.000Z</time>
      </trkpt>
      <trkpt lat="40.99278" lon="20.24045">
        <ele>900.40997314453</ele>
        <time>2024-09-26T09:23:17.000Z</time>
      </trkpt>
      <trkpt lat="40.9928" lon="20.24051">
        <ele>901.36999511719</ele>
        <time>2024-09-26T09:23:18.000Z</time>
      </trkpt>
      <trkpt lat="40.99284" lon="20.2407">
        <ele>903.29998779297</ele>
        <time>2024-09-26T09:23:20.000Z</time>
      </trkpt>
      <trkpt lat="40.99285" lon="20.24076">
        <ele>904.26000976562</ele>
        <time>2024-09-26T09:23:21.000Z</time>
      </trkpt>
      <trkpt lat="40.99287" lon="20.24085">
        <ele>905.70001220703</ele>
        <time>2024-09-26T09:23:22.000Z</time>
      </trkpt>
      <trkpt lat="40.99289" lon="20.24092">
        <ele>906.65997314453</ele>
        <time>2024-09-26T09:23:23.000Z</time>
      </trkpt>
      <trkpt lat="40.99292" lon="20.24099">
        <ele>907.61999511719</ele>
        <time>2024-09-26T09:23:24.000Z</time>
      </trkpt>
      <trkpt lat="40.99295" lon="20.24105">
        <ele>907.61999511719</ele>
        <time>2024-09-26T09:23:25.000Z</time>
      </trkpt>
      <trkpt lat="40.99307" lon="20.24123">
        <ele>909.05999755859</ele>
        <time>2024-09-26T09:23:32.000Z</time>
      </trkpt>
      <trkpt lat="40.99309" lon="20.24136">
        <ele>911.95001220703</ele>
        <time>2024-09-26T09:31:55.000Z</time>
      </trkpt>
      <trkpt lat="40.99309" lon="20.24137">
        <ele>911.95001220703</ele>
        <time>2024-09-26T09:31:56.000Z</time>
      </trkpt>
      <trkpt lat="40.9931" lon="20.24144">
        <ele>912.42999267578</ele>
        <time>2024-09-26T09:31:57.000Z</time>
      </trkpt>
      <trkpt lat="40.99311" lon="20.24149">
        <ele>912.90997314453</ele>
        <time>2024-09-26T09:31:58.000Z</time>
      </trkpt>
      <trkpt lat="40.99311" lon="20.24156">
        <ele>913.86999511719</ele>
        <time>2024-09-26T09:31:59.000Z</time>
      </trkpt>
      <trkpt lat="40.99312" lon="20.24164">
        <ele>914.83001708984</ele>
        <time>2024-09-26T09:32:00.000Z</time>
      </trkpt>
      <trkpt lat="40.99313" lon="20.24169">
        <ele>915.78997802734</ele>
        <time>2024-09-26T09:32:01.000Z</time>
      </trkpt>
      <trkpt lat="40.99312" lon="20.24176">
        <ele>916.75</ele>
        <time>2024-09-26T09:32:02.000Z</time>
      </trkpt>
      <trkpt lat="40.99312" lon="20.24184">
        <ele>917.71997070312</ele>
        <time>2024-09-26T09:32:03.000Z</time>
      </trkpt>
      <trkpt lat="40.99312" lon="20.24188">
        <ele>918.20001220703</ele>
        <time>2024-09-26T09:32:04.000Z</time>
      </trkpt>
      <trkpt lat="40.99312" lon="20.24194">
        <ele>918.67999267578</ele>
        <time>2024-09-26T09:32:05.000Z</time>
      </trkpt>
      <trkpt lat="40.99313" lon="20.24201">
        <ele>919.64001464844</ele>
        <time>2024-09-26T09:32:06.000Z</time>
      </trkpt>
      <trkpt lat="40.99315" lon="20.24211">
        <ele>920.59997558594</ele>
        <time>2024-09-26T09:32:07.000Z</time>
      </trkpt>
      <trkpt lat="40.99318" lon="20.24223">
        <ele>922.52001953125</ele>
        <time>2024-09-26T09:32:08.000Z</time>
      </trkpt>
      <trkpt lat="40.99318" lon="20.24224">
        <ele>922.52001953125</ele>
        <time>2024-09-26T09:32:09.000Z</time>
      </trkpt>
      <trkpt lat="40.99321" lon="20.24233">
        <ele>923.47998046875</ele>
        <time>2024-09-26T09:32:10.000Z</time>
      </trkpt>
      <trkpt lat="40.99322" lon="20.24238">
        <ele>923.96002197266</ele>
        <time>2024-09-26T09:32:11.000Z</time>
      </trkpt>
      <trkpt lat="40.99326" lon="20.24247">
        <ele>924.92999267578</ele>
        <time>2024-09-26T09:32:12.000Z</time>
      </trkpt>
      <trkpt lat="40.99328" lon="20.24253">
        <ele>925.40997314453</ele>
        <time>2024-09-26T09:32:13.000Z</time>
      </trkpt>
      <trkpt lat="40.9933" lon="20.24258">
        <ele>925.89001464844</ele>
        <time>2024-09-26T09:32:14.000Z</time>
      </trkpt>
      <trkpt lat="40.99332" lon="20.24263">
        <ele>926.36999511719</ele>
        <time>2024-09-26T09:32:15.000Z</time>
      </trkpt>
      <trkpt lat="40.99334" lon="20.2427">
        <ele>926.84997558594</ele>
        <time>2024-09-26T09:32:16.000Z</time>
      </trkpt>
      <trkpt lat="40.99338" lon="20.24284">
        <ele>927.80999755859</ele>
        <time>2024-09-26T09:32:17.000Z</time>
      </trkpt>
      <trkpt lat="40.99338" lon="20.24286">
        <ele>927.80999755859</ele>
        <time>2024-09-26T09:32:18.000Z</time>
      </trkpt>
      <trkpt lat="40.99339" lon="20.24291">
        <ele>928.28997802734</ele>
        <time>2024-09-26T09:32:19.000Z</time>
      </trkpt>
      <trkpt lat="40.9934" lon="20.243">
        <ele>929.25</ele>
        <time>2024-09-26T09:32:20.000Z</time>
      </trkpt>
      <trkpt lat="40.99341" lon="20.24306">
        <ele>929.72998046875</ele>
        <time>2024-09-26T09:32:21.000Z</time>
      </trkpt>
      <trkpt lat="40.99341" lon="20.24313">
        <ele>930.21002197266</ele>
        <time>2024-09-26T09:32:22.000Z</time>
      </trkpt>
      <trkpt lat="40.9934" lon="20.24327">
        <ele>931.65002441406</ele>
        <time>2024-09-26T09:32:23.000Z</time>
      </trkpt>
      <trkpt lat="40.99341" lon="20.2433">
        <ele>931.65002441406</ele>
        <time>2024-09-26T09:32:24.000Z</time>
      </trkpt>
      <trkpt lat="40.99341" lon="20.24337">
        <ele>932.14001464844</ele>
        <time>2024-09-26T09:32:25.000Z</time>
      </trkpt>
      <trkpt lat="40.99342" lon="20.24345">
        <ele>933.09997558594</ele>
        <time>2024-09-26T09:32:26.000Z</time>
      </trkpt>
      <trkpt lat="40.99343" lon="20.24354">
        <ele>933.58001708984</ele>
        <time>2024-09-26T09:32:27.000Z</time>
      </trkpt>
      <trkpt lat="40.99344" lon="20.24362">
        <ele>934.53997802734</ele>
        <time>2024-09-26T09:32:28.000Z</time>
      </trkpt>
      <trkpt lat="40.99342" lon="20.24398">
        <ele>936.94000244141</ele>
        <time>2024-09-26T09:32:31.000Z</time>
      </trkpt>
      <trkpt lat="40.99341" lon="20.24407">
        <ele>937.41998291016</ele>
        <time>2024-09-26T09:32:32.000Z</time>
      </trkpt>
      <trkpt lat="40.99339" lon="20.24421">
        <ele>938.38000488281</ele>
        <time>2024-09-26T09:32:33.000Z</time>
      </trkpt>
      <trkpt lat="40.99338" lon="20.2443">
        <ele>939.34997558594</ele>
        <time>2024-09-26T09:32:34.000Z</time>
      </trkpt>
      <trkpt lat="40.99337" lon="20.24436">
        <ele>939.83001708984</ele>
        <time>2024-09-26T09:32:35.000Z</time>
      </trkpt>
      <trkpt lat="40.99335" lon="20.24443">
        <ele>940.30999755859</ele>
        <time>2024-09-26T09:32:36.000Z</time>
      </trkpt>
      <trkpt lat="40.9933" lon="20.24453">
        <ele>940.78997802734</ele>
        <time>2024-09-26T09:32:37.000Z</time>
      </trkpt>
      <trkpt lat="40.99325" lon="20.2446">
        <ele>941.27001953125</ele>
        <time>2024-09-26T09:32:38.000Z</time>
      </trkpt>
      <trkpt lat="40.99312" lon="20.24473">
        <ele>941.27001953125</ele>
        <time>2024-09-26T09:32:39.000Z</time>
      </trkpt>
      <trkpt lat="40.9931" lon="20.24475">
        <ele>941.75</ele>
        <time>2024-09-26T09:32:40.000Z</time>
      </trkpt>
      <trkpt lat="40.99304" lon="20.24483">
        <ele>941.75</ele>
        <time>2024-09-26T09:32:41.000Z</time>
      </trkpt>
      <trkpt lat="40.99299" lon="20.2449">
        <ele>942.22998046875</ele>
        <time>2024-09-26T09:32:42.000Z</time>
      </trkpt>
      <trkpt lat="40.99296" lon="20.24497">
        <ele>942.71002197266</ele>
        <time>2024-09-26T09:32:43.000Z</time>
      </trkpt>
      <trkpt lat="40.99293" lon="20.24505">
        <ele>942.71002197266</ele>
        <time>2024-09-26T09:32:44.000Z</time>
      </trkpt>
      <trkpt lat="40.99293" lon="20.24515">
        <ele>943.19000244141</ele>
        <time>2024-09-26T09:32:45.000Z</time>
      </trkpt>
      <trkpt lat="40.99294" lon="20.24522">
        <ele>943.19000244141</ele>
        <time>2024-09-26T09:32:46.000Z</time>
      </trkpt>
      <trkpt lat="40.99296" lon="20.2453">
        <ele>943.19000244141</ele>
        <time>2024-09-26T09:32:47.000Z</time>
      </trkpt>
      <trkpt lat="40.99299" lon="20.24538">
        <ele>943.19000244141</ele>
        <time>2024-09-26T09:32:48.000Z</time>
      </trkpt>
      <trkpt lat="40.99303" lon="20.24545">
        <ele>943.19000244141</ele>
        <time>2024-09-26T09:32:49.000Z</time>
      </trkpt>
      <trkpt lat="40.99308" lon="20.24555">
        <ele>943.19000244141</ele>
        <time>2024-09-26T09:32:50.000Z</time>
      </trkpt>
      <trkpt lat="40.99311" lon="20.24565">
        <ele>943.66998291016</ele>
        <time>2024-09-26T09:32:51.000Z</time>
      </trkpt>
      <trkpt lat="40.99314" lon="20.24578">
        <ele>944.15002441406</ele>
        <time>2024-09-26T09:32:52.000Z</time>
      </trkpt>
      <trkpt lat="40.99315" lon="20.24588">
        <ele>944.15002441406</ele>
        <time>2024-09-26T09:32:53.000Z</time>
      </trkpt>
      <trkpt lat="40.99316" lon="20.24594">
        <ele>944.63000488281</ele>
        <time>2024-09-26T09:32:54.000Z</time>
      </trkpt>
      <trkpt lat="40.99316" lon="20.24604">
        <ele>945.10998535156</ele>
        <time>2024-09-26T09:32:55.000Z</time>
      </trkpt>
      <trkpt lat="40.99315" lon="20.24613">
        <ele>945.10998535156</ele>
        <time>2024-09-26T09:32:56.000Z</time>
      </trkpt>
      <trkpt lat="40.99312" lon="20.24621">
        <ele>945.10998535156</ele>
        <time>2024-09-26T09:32:57.000Z</time>
      </trkpt>
      <trkpt lat="40.9929" lon="20.24657">
        <ele>946.55999755859</ele>
        <time>2024-09-26T09:33:01.000Z</time>
      </trkpt>
      <trkpt lat="40.99285" lon="20.24663">
        <ele>947.52001953125</ele>
        <time>2024-09-26T09:33:02.000Z</time>
      </trkpt>
      <trkpt lat="40.99278" lon="20.24672">
        <ele>949.44000244141</ele>
        <time>2024-09-26T09:33:03.000Z</time>
      </trkpt>
      <trkpt lat="40.99259" lon="20.24696">
        <ele>950.88000488281</ele>
        <time>2024-09-26T09:33:06.000Z</time>
      </trkpt>
      <trkpt lat="40.99257" lon="20.247">
        <ele>951.84002685547</ele>
        <time>2024-09-26T09:33:07.000Z</time>
      </trkpt>
      <trkpt lat="40.99253" lon="20.24708">
        <ele>952.79998779297</ele>
        <time>2024-09-26T09:33:08.000Z</time>
      </trkpt>
      <trkpt lat="40.9925" lon="20.24718">
        <ele>954.25</ele>
        <time>2024-09-26T09:33:09.000Z</time>
      </trkpt>
      <trkpt lat="40.99248" lon="20.24725">
        <ele>955.21002197266</ele>
        <time>2024-09-26T09:33:10.000Z</time>
      </trkpt>
      <trkpt lat="40.99246" lon="20.24734">
        <ele>956.16998291016</ele>
        <time>2024-09-26T09:33:11.000Z</time>
      </trkpt>
      <trkpt lat="40.99243" lon="20.24742">
        <ele>956.65002441406</ele>
        <time>2024-09-26T09:33:12.000Z</time>
      </trkpt>
      <trkpt lat="40.9924" lon="20.2475">
        <ele>956.65002441406</ele>
        <time>2024-09-26T09:33:13.000Z</time>
      </trkpt>
      <trkpt lat="40.99236" lon="20.24761">
        <ele>955.21002197266</ele>
        <time>2024-09-26T09:33:14.000Z</time>
      </trkpt>
      <trkpt lat="40.99233" lon="20.24768">
        <ele>954.72998046875</ele>
        <time>2024-09-26T09:33:15.000Z</time>
      </trkpt>
      <trkpt lat="40.99231" lon="20.24776">
        <ele>954.72998046875</ele>
        <time>2024-09-26T09:33:16.000Z</time>
      </trkpt>
      <trkpt lat="40.99229" lon="20.24785">
        <ele>955.21002197266</ele>
        <time>2024-09-26T09:33:17.000Z</time>
      </trkpt>
      <trkpt lat="40.99229" lon="20.24793">
        <ele>955.69000244141</ele>
        <time>2024-09-26T09:33:18.000Z</time>
      </trkpt>
      <trkpt lat="40.99233" lon="20.2481">
        <ele>956.65002441406</ele>
        <time>2024-09-26T09:33:19.000Z</time>
      </trkpt>
      <trkpt lat="40.99234" lon="20.24813">
        <ele>956.65002441406</ele>
        <time>2024-09-26T09:33:20.000Z</time>
      </trkpt>
      <trkpt lat="40.99236" lon="20.24823">
        <ele>957.13000488281</ele>
        <time>2024-09-26T09:33:21.000Z</time>
      </trkpt>
      <trkpt lat="40.99238" lon="20.24836">
        <ele>957.13000488281</ele>
        <time>2024-09-26T09:33:22.000Z</time>
      </trkpt>
      <trkpt lat="40.99238" lon="20.24843">
        <ele>957.13000488281</ele>
        <time>2024-09-26T09:33:23.000Z</time>
      </trkpt>
      <trkpt lat="40.99238" lon="20.24853">
        <ele>957.13000488281</ele>
        <time>2024-09-26T09:33:24.000Z</time>
      </trkpt>
      <trkpt lat="40.99236" lon="20.24866">
        <ele>958.09002685547</ele>
        <time>2024-09-26T09:33:25.000Z</time>
      </trkpt>
      <trkpt lat="40.99234" lon="20.24874">
        <ele>959.04998779297</ele>
        <time>2024-09-26T09:33:26.000Z</time>
      </trkpt>
      <trkpt lat="40.9923" lon="20.24888">
        <ele>960.48999023438</ele>
        <time>2024-09-26T09:33:27.000Z</time>
      </trkpt>
      <trkpt lat="40.99228" lon="20.24896">
        <ele>961.46002197266</ele>
        <time>2024-09-26T09:33:28.000Z</time>
      </trkpt>
      <trkpt lat="40.99226" lon="20.24904">
        <ele>962.41998291016</ele>
        <time>2024-09-26T09:33:29.000Z</time>
      </trkpt>
      <trkpt lat="40.99224" lon="20.24912">
        <ele>963.38000488281</ele>
        <time>2024-09-26T09:33:30.000Z</time>
      </trkpt>
      <trkpt lat="40.99224" lon="20.24921">
        <ele>964.82000732422</ele>
        <time>2024-09-26T09:33:31.000Z</time>
      </trkpt>
      <trkpt lat="40.99224" lon="20.24933">
        <ele>966.26000976562</ele>
        <time>2024-09-26T09:33:32.000Z</time>
      </trkpt>
      <trkpt lat="40.99224" lon="20.24941">
        <ele>967.21997070312</ele>
        <time>2024-09-26T09:33:33.000Z</time>
      </trkpt>
      <trkpt lat="40.99223" lon="20.24949">
        <ele>968.66998291016</ele>
        <time>2024-09-26T09:33:34.000Z</time>
      </trkpt>
      <trkpt lat="40.99222" lon="20.24958">
        <ele>969.63000488281</ele>
        <time>2024-09-26T09:33:35.000Z</time>
      </trkpt>
      <trkpt lat="40.99222" lon="20.24966">
        <ele>970.59002685547</ele>
        <time>2024-09-26T09:33:36.000Z</time>
      </trkpt>
      <trkpt lat="40.99224" lon="20.24973">
        <ele>970.59002685547</ele>
        <time>2024-09-26T09:33:37.000Z</time>
      </trkpt>
      <trkpt lat="40.9923" lon="20.24984">
        <ele>971.07000732422</ele>
        <time>2024-09-26T09:33:38.000Z</time>
      </trkpt>
      <trkpt lat="40.99231" lon="20.24986">
        <ele>971.07000732422</ele>
        <time>2024-09-26T09:33:39.000Z</time>
      </trkpt>
      <trkpt lat="40.99234" lon="20.24994">
        <ele>971.07000732422</ele>
        <time>2024-09-26T09:33:40.000Z</time>
      </trkpt>
      <trkpt lat="40.99237" lon="20.25004">
        <ele>970.59002685547</ele>
        <time>2024-09-26T09:33:41.000Z</time>
      </trkpt>
      <trkpt lat="40.99239" lon="20.25011">
        <ele>970.59002685547</ele>
        <time>2024-09-26T09:33:42.000Z</time>
      </trkpt>
      <trkpt lat="40.99241" lon="20.25018">
        <ele>970.59002685547</ele>
        <time>2024-09-26T09:33:43.000Z</time>
      </trkpt>
      <trkpt lat="40.99245" lon="20.25027">
        <ele>970.59002685547</ele>
        <time>2024-09-26T09:33:44.000Z</time>
      </trkpt>
      <trkpt lat="40.99249" lon="20.25034">
        <ele>971.54998779297</ele>
        <time>2024-09-26T09:33:45.000Z</time>
      </trkpt>
      <trkpt lat="40.99254" lon="20.25043">
        <ele>972.03002929688</ele>
        <time>2024-09-26T09:33:46.000Z</time>
      </trkpt>
      <trkpt lat="40.99258" lon="20.25052">
        <ele>972.03002929688</ele>
        <time>2024-09-26T09:33:47.000Z</time>
      </trkpt>
      <trkpt lat="40.99264" lon="20.25066">
        <ele>972.51000976562</ele>
        <time>2024-09-26T09:33:48.000Z</time>
      </trkpt>
      <trkpt lat="40.99265" lon="20.25069">
        <ele>972.98999023438</ele>
        <time>2024-09-26T09:33:49.000Z</time>
      </trkpt>
      <trkpt lat="40.99266" lon="20.25073">
        <ele>972.98999023438</ele>
        <time>2024-09-26T09:33:50.000Z</time>
      </trkpt>
      <trkpt lat="40.99266" lon="20.25079">
        <ele>972.51000976562</ele>
        <time>2024-09-26T09:33:51.000Z</time>
      </trkpt>
      <trkpt lat="40.99265" lon="20.25086">
        <ele>972.51000976562</ele>
        <time>2024-09-26T09:33:52.000Z</time>
      </trkpt>
      <trkpt lat="40.99262" lon="20.25091">
        <ele>972.03002929688</ele>
        <time>2024-09-26T09:33:53.000Z</time>
      </trkpt>
      <trkpt lat="40.99258" lon="20.25094">
        <ele>971.54998779297</ele>
        <time>2024-09-26T09:33:54.000Z</time>
      </trkpt>
      <trkpt lat="40.99253" lon="20.25095">
        <ele>970.59002685547</ele>
        <time>2024-09-26T09:33:55.000Z</time>
      </trkpt>
      <trkpt lat="40.99233" lon="20.25093">
        <ele>968.17999267578</ele>
        <time>2024-09-26T09:33:58.000Z</time>
      </trkpt>
      <trkpt lat="40.99224" lon="20.25091">
        <ele>967.21997070312</ele>
        <time>2024-09-26T09:33:59.000Z</time>
      </trkpt>
      <trkpt lat="40.99222" lon="20.25091">
        <ele>967.21997070312</ele>
        <time>2024-09-26T09:34:00.000Z</time>
      </trkpt>
      <trkpt lat="40.99216" lon="20.25091">
        <ele>966.73999023438</ele>
        <time>2024-09-26T09:34:01.000Z</time>
      </trkpt>
      <trkpt lat="40.99209" lon="20.25094">
        <ele>966.73999023438</ele>
        <time>2024-09-26T09:34:02.000Z</time>
      </trkpt>
      <trkpt lat="40.99203" lon="20.25096">
        <ele>966.26000976562</ele>
        <time>2024-09-26T09:34:03.000Z</time>
      </trkpt>
      <trkpt lat="40.99196" lon="20.25101">
        <ele>965.78002929688</ele>
        <time>2024-09-26T09:34:04.000Z</time>
      </trkpt>
      <trkpt lat="40.9919" lon="20.25107">
        <ele>965.29998779297</ele>
        <time>2024-09-26T09:34:05.000Z</time>
      </trkpt>
      <trkpt lat="40.99184" lon="20.25113">
        <ele>964.82000732422</ele>
        <time>2024-09-26T09:34:06.000Z</time>
      </trkpt>
      <trkpt lat="40.99177" lon="20.2512">
        <ele>964.34002685547</ele>
        <time>2024-09-26T09:34:07.000Z</time>
      </trkpt>
      <trkpt lat="40.9917" lon="20.25126">
        <ele>963.85998535156</ele>
        <time>2024-09-26T09:34:08.000Z</time>
      </trkpt>
      <trkpt lat="40.99163" lon="20.2513">
        <ele>962.90002441406</ele>
        <time>2024-09-26T09:34:09.000Z</time>
      </trkpt>
      <trkpt lat="40.99156" lon="20.25133">
        <ele>962.41998291016</ele>
        <time>2024-09-26T09:34:10.000Z</time>
      </trkpt>
      <trkpt lat="40.99148" lon="20.25135">
        <ele>961.94000244141</ele>
        <time>2024-09-26T09:34:11.000Z</time>
      </trkpt>
      <trkpt lat="40.99127" lon="20.25134">
        <ele>959.53002929688</ele>
        <time>2024-09-26T09:34:13.000Z</time>
      </trkpt>
      <trkpt lat="40.99123" lon="20.25134">
        <ele>959.04998779297</ele>
        <time>2024-09-26T09:34:14.000Z</time>
      </trkpt>
      <trkpt lat="40.99116" lon="20.25133">
        <ele>958.57000732422</ele>
        <time>2024-09-26T09:34:15.000Z</time>
      </trkpt>
      <trkpt lat="40.99108" lon="20.25133">
        <ele>957.60998535156</ele>
        <time>2024-09-26T09:34:16.000Z</time>
      </trkpt>
      <trkpt lat="40.99099" lon="20.25133">
        <ele>956.65002441406</ele>
        <time>2024-09-26T09:34:17.000Z</time>
      </trkpt>
      <trkpt lat="40.99083" lon="20.25131">
        <ele>955.21002197266</ele>
        <time>2024-09-26T09:34:19.000Z</time>
      </trkpt>
      <trkpt lat="40.99077" lon="20.2513">
        <ele>955.21002197266</ele>
        <time>2024-09-26T09:34:20.000Z</time>
      </trkpt>
      <trkpt lat="40.9907" lon="20.25131">
        <ele>954.72998046875</ele>
        <time>2024-09-26T09:34:21.000Z</time>
      </trkpt>
      <trkpt lat="40.99065" lon="20.25134">
        <ele>954.25</ele>
        <time>2024-09-26T09:34:22.000Z</time>
      </trkpt>
      <trkpt lat="40.99059" lon="20.25139">
        <ele>953.28002929688</ele>
        <time>2024-09-26T09:34:23.000Z</time>
      </trkpt>
      <trkpt lat="40.99052" lon="20.25144">
        <ele>952.32000732422</ele>
        <time>2024-09-26T09:34:24.000Z</time>
      </trkpt>
      <trkpt lat="40.99045" lon="20.25149">
        <ele>951.84002685547</ele>
        <time>2024-09-26T09:34:25.000Z</time>
      </trkpt>
      <trkpt lat="40.99036" lon="20.25152">
        <ele>951.35998535156</ele>
        <time>2024-09-26T09:34:26.000Z</time>
      </trkpt>
      <trkpt lat="40.99025" lon="20.25154">
        <ele>950.40002441406</ele>
        <time>2024-09-26T09:34:27.000Z</time>
      </trkpt>
      <trkpt lat="40.99016" lon="20.25157">
        <ele>949.91998291016</ele>
        <time>2024-09-26T09:34:28.000Z</time>
      </trkpt>
      <trkpt lat="40.99011" lon="20.25158">
        <ele>949.44000244141</ele>
        <time>2024-09-26T09:34:29.000Z</time>
      </trkpt>
      <trkpt lat="40.99003" lon="20.25158">
        <ele>949.44000244141</ele>
        <time>2024-09-26T09:34:30.000Z</time>
      </trkpt>
      <trkpt lat="40.98995" lon="20.25155">
        <ele>948.96002197266</ele>
        <time>2024-09-26T09:34:31.000Z</time>
      </trkpt>
      <trkpt lat="40.98989" lon="20.25153">
        <ele>948.96002197266</ele>
        <time>2024-09-26T09:34:32.000Z</time>
      </trkpt>
      <trkpt lat="40.98982" lon="20.25153">
        <ele>948.47998046875</ele>
        <time>2024-09-26T09:34:33.000Z</time>
      </trkpt>
      <trkpt lat="40.98975" lon="20.25155">
        <ele>948.47998046875</ele>
        <time>2024-09-26T09:34:34.000Z</time>
      </trkpt>
      <trkpt lat="40.98965" lon="20.25161">
        <ele>948.47998046875</ele>
        <time>2024-09-26T09:34:35.000Z</time>
      </trkpt>
      <trkpt lat="40.98958" lon="20.25165">
        <ele>948.47998046875</ele>
        <time>2024-09-26T09:34:36.000Z</time>
      </trkpt>
      <trkpt lat="40.98919" lon="20.25185">
        <ele>948.47998046875</ele>
        <time>2024-09-26T09:34:40.000Z</time>
      </trkpt>
      <trkpt lat="40.98918" lon="20.25186">
        <ele>948.47998046875</ele>
        <time>2024-09-26T09:34:41.000Z</time>
      </trkpt>
      <trkpt lat="40.98912" lon="20.25191">
        <ele>948.47998046875</ele>
        <time>2024-09-26T09:34:42.000Z</time>
      </trkpt>
      <trkpt lat="40.98909" lon="20.25195">
        <ele>948</ele>
        <time>2024-09-26T09:34:43.000Z</time>
      </trkpt>
      <trkpt lat="40.98907" lon="20.25202">
        <ele>947.52001953125</ele>
        <time>2024-09-26T09:34:44.000Z</time>
      </trkpt>
      <trkpt lat="40.98907" lon="20.25209">
        <ele>947.03997802734</ele>
        <time>2024-09-26T09:34:45.000Z</time>
      </trkpt>
      <trkpt lat="40.98909" lon="20.25217">
        <ele>946.55999755859</ele>
        <time>2024-09-26T09:34:46.000Z</time>
      </trkpt>
      <trkpt lat="40.98912" lon="20.25227">
        <ele>946.07000732422</ele>
        <time>2024-09-26T09:34:47.000Z</time>
      </trkpt>
      <trkpt lat="40.98918" lon="20.25245">
        <ele>945.10998535156</ele>
        <time>2024-09-26T09:34:49.000Z</time>
      </trkpt>
      <trkpt lat="40.98923" lon="20.25255">
        <ele>944.63000488281</ele>
        <time>2024-09-26T09:34:50.000Z</time>
      </trkpt>
      <trkpt lat="40.98928" lon="20.25263">
        <ele>944.15002441406</ele>
        <time>2024-09-26T09:34:51.000Z</time>
      </trkpt>
      <trkpt lat="40.98935" lon="20.25271">
        <ele>943.66998291016</ele>
        <time>2024-09-26T09:34:52.000Z</time>
      </trkpt>
      <trkpt lat="40.98963" lon="20.25303">
        <ele>942.22998046875</ele>
        <time>2024-09-26T09:34:56.000Z</time>
      </trkpt>
      <trkpt lat="40.9897" lon="20.25313">
        <ele>941.75</ele>
        <time>2024-09-26T09:34:57.000Z</time>
      </trkpt>
      <trkpt lat="40.98974" lon="20.25319">
        <ele>941.75</ele>
        <time>2024-09-26T09:34:58.000Z</time>
      </trkpt>
      <trkpt lat="40.9898" lon="20.25329">
        <ele>941.27001953125</ele>
        <time>2024-09-26T09:34:59.000Z</time>
      </trkpt>
      <trkpt lat="40.98983" lon="20.25337">
        <ele>941.27001953125</ele>
        <time>2024-09-26T09:35:00.000Z</time>
      </trkpt>
      <trkpt lat="40.98983" lon="20.25346">
        <ele>941.27001953125</ele>
        <time>2024-09-26T09:35:01.000Z</time>
      </trkpt>
      <trkpt lat="40.9898" lon="20.25355">
        <ele>941.27001953125</ele>
        <time>2024-09-26T09:35:02.000Z</time>
      </trkpt>
      <trkpt lat="40.98976" lon="20.25365">
        <ele>940.78997802734</ele>
        <time>2024-09-26T09:35:03.000Z</time>
      </trkpt>
      <trkpt lat="40.98973" lon="20.25373">
        <ele>941.27001953125</ele>
        <time>2024-09-26T09:35:04.000Z</time>
      </trkpt>
      <trkpt lat="40.98971" lon="20.25387">
        <ele>941.75</ele>
        <time>2024-09-26T09:35:05.000Z</time>
      </trkpt>
      <trkpt lat="40.9897" lon="20.25391">
        <ele>941.75</ele>
        <time>2024-09-26T09:35:06.000Z</time>
      </trkpt>
      <trkpt lat="40.9897" lon="20.25399">
        <ele>941.27001953125</ele>
        <time>2024-09-26T09:35:07.000Z</time>
      </trkpt>
      <trkpt lat="40.98972" lon="20.25406">
        <ele>941.27001953125</ele>
        <time>2024-09-26T09:35:08.000Z</time>
      </trkpt>
      <trkpt lat="40.98976" lon="20.25411">
        <ele>940.78997802734</ele>
        <time>2024-09-26T09:35:09.000Z</time>
      </trkpt>
      <trkpt lat="40.98982" lon="20.25415">
        <ele>940.78997802734</ele>
        <time>2024-09-26T09:35:10.000Z</time>
      </trkpt>
      <trkpt lat="40.98988" lon="20.25419">
        <ele>940.78997802734</ele>
        <time>2024-09-26T09:35:11.000Z</time>
      </trkpt>
      <trkpt lat="40.99005" lon="20.25427">
        <ele>941.27001953125</ele>
        <time>2024-09-26T09:35:13.000Z</time>
      </trkpt>
      <trkpt lat="40.99017" lon="20.25433">
        <ele>940.78997802734</ele>
        <time>2024-09-26T09:35:14.000Z</time>
      </trkpt>
      <trkpt lat="40.99019" lon="20.25434">
        <ele>940.78997802734</ele>
        <time>2024-09-26T09:35:15.000Z</time>
      </trkpt>
      <trkpt lat="40.99024" lon="20.25438">
        <ele>940.30999755859</ele>
        <time>2024-09-26T09:35:16.000Z</time>
      </trkpt>
      <trkpt lat="40.99028" lon="20.25446">
        <ele>940.30999755859</ele>
        <time>2024-09-26T09:35:17.000Z</time>
      </trkpt>
      <trkpt lat="40.9903" lon="20.25455">
        <ele>939.83001708984</ele>
        <time>2024-09-26T09:35:18.000Z</time>
      </trkpt>
      <trkpt lat="40.99029" lon="20.25465">
        <ele>939.34997558594</ele>
        <time>2024-09-26T09:35:19.000Z</time>
      </trkpt>
      <trkpt lat="40.99029" lon="20.25476">
        <ele>939.34997558594</ele>
        <time>2024-09-26T09:35:20.000Z</time>
      </trkpt>
      <trkpt lat="40.9903" lon="20.25485">
        <ele>939.34997558594</ele>
        <time>2024-09-26T09:35:21.000Z</time>
      </trkpt>
      <trkpt lat="40.99031" lon="20.255">
        <ele>938.85998535156</ele>
        <time>2024-09-26T09:35:22.000Z</time>
      </trkpt>
      <trkpt lat="40.99032" lon="20.25505">
        <ele>938.38000488281</ele>
        <time>2024-09-26T09:35:23.000Z</time>
      </trkpt>
      <trkpt lat="40.99034" lon="20.25517">
        <ele>937.41998291016</ele>
        <time>2024-09-26T09:35:24.000Z</time>
      </trkpt>
      <trkpt lat="40.99038" lon="20.25528">
        <ele>936.46002197266</ele>
        <time>2024-09-26T09:35:25.000Z</time>
      </trkpt>
      <trkpt lat="40.99049" lon="20.25562">
        <ele>934.05999755859</ele>
        <time>2024-09-26T09:35:28.000Z</time>
      </trkpt>
      <trkpt lat="40.99055" lon="20.2558">
        <ele>932.61999511719</ele>
        <time>2024-09-26T09:35:30.000Z</time>
      </trkpt>
      <trkpt lat="40.99057" lon="20.25589">
        <ele>931.65002441406</ele>
        <time>2024-09-26T09:35:31.000Z</time>
      </trkpt>
      <trkpt lat="40.99056" lon="20.25597">
        <ele>930.69000244141</ele>
        <time>2024-09-26T09:35:32.000Z</time>
      </trkpt>
      <trkpt lat="40.99053" lon="20.25604">
        <ele>929.72998046875</ele>
        <time>2024-09-26T09:35:33.000Z</time>
      </trkpt>
      <trkpt lat="40.99046" lon="20.25613">
        <ele>929.25</ele>
        <time>2024-09-26T09:35:34.000Z</time>
      </trkpt>
      <trkpt lat="40.99043" lon="20.25618">
        <ele>928.28997802734</ele>
        <time>2024-09-26T09:35:35.000Z</time>
      </trkpt>
      <trkpt lat="40.99037" lon="20.25628">
        <ele>927.80999755859</ele>
        <time>2024-09-26T09:35:36.000Z</time>
      </trkpt>
      <trkpt lat="40.99033" lon="20.25637">
        <ele>927.33001708984</ele>
        <time>2024-09-26T09:35:37.000Z</time>
      </trkpt>
      <trkpt lat="40.99027" lon="20.25652">
        <ele>927.33001708984</ele>
        <time>2024-09-26T09:35:38.000Z</time>
      </trkpt>
      <trkpt lat="40.99011" lon="20.25687">
        <ele>923.96002197266</ele>
        <time>2024-09-26T09:35:42.000Z</time>
      </trkpt>
      <trkpt lat="40.99008" lon="20.25695">
        <ele>923.47998046875</ele>
        <time>2024-09-26T09:35:43.000Z</time>
      </trkpt>
      <trkpt lat="40.99004" lon="20.2571">
        <ele>922.52001953125</ele>
        <time>2024-09-26T09:35:44.000Z</time>
      </trkpt>
      <trkpt lat="40.99003" lon="20.25716">
        <ele>922.03997802734</ele>
        <time>2024-09-26T09:35:45.000Z</time>
      </trkpt>
      <trkpt lat="40.99" lon="20.25727">
        <ele>921.08001708984</ele>
        <time>2024-09-26T09:35:46.000Z</time>
      </trkpt>
      <trkpt lat="40.98997" lon="20.25738">
        <ele>920.11999511719</ele>
        <time>2024-09-26T09:35:47.000Z</time>
      </trkpt>
      <trkpt lat="40.98995" lon="20.25747">
        <ele>919.15997314453</ele>
        <time>2024-09-26T09:35:48.000Z</time>
      </trkpt>
      <trkpt lat="40.9899" lon="20.25759">
        <ele>918.20001220703</ele>
        <time>2024-09-26T09:35:49.000Z</time>
      </trkpt>
      <trkpt lat="40.98986" lon="20.25768">
        <ele>917.23999023438</ele>
        <time>2024-09-26T09:35:50.000Z</time>
      </trkpt>
      <trkpt lat="40.98984" lon="20.25776">
        <ele>916.27001953125</ele>
        <time>2024-09-26T09:35:51.000Z</time>
      </trkpt>
      <trkpt lat="40.98982" lon="20.25785">
        <ele>915.30999755859</ele>
        <time>2024-09-26T09:35:52.000Z</time>
      </trkpt>
      <trkpt lat="40.98982" lon="20.25793">
        <ele>914.83001708984</ele>
        <time>2024-09-26T09:35:53.000Z</time>
      </trkpt>
      <trkpt lat="40.98984" lon="20.258">
        <ele>914.83001708984</ele>
        <time>2024-09-26T09:35:54.000Z</time>
      </trkpt>
      <trkpt lat="40.98987" lon="20.25806">
        <ele>914.34997558594</ele>
        <time>2024-09-26T09:35:55.000Z</time>
      </trkpt>
      <trkpt lat="40.98992" lon="20.25813">
        <ele>913.86999511719</ele>
        <time>2024-09-26T09:35:56.000Z</time>
      </trkpt>
      <trkpt lat="40.98995" lon="20.2582">
        <ele>913.39001464844</ele>
        <time>2024-09-26T09:35:57.000Z</time>
      </trkpt>
      <trkpt lat="40.98996" lon="20.25828">
        <ele>912.42999267578</ele>
        <time>2024-09-26T09:35:58.000Z</time>
      </trkpt>
      <trkpt lat="40.98995" lon="20.25835">
        <ele>912.42999267578</ele>
        <time>2024-09-26T09:35:59.000Z</time>
      </trkpt>
      <trkpt lat="40.98991" lon="20.2584">
        <ele>911.95001220703</ele>
        <time>2024-09-26T09:36:00.000Z</time>
      </trkpt>
      <trkpt lat="40.98985" lon="20.25843">
        <ele>911.95001220703</ele>
        <time>2024-09-26T09:36:01.000Z</time>
      </trkpt>
      <trkpt lat="40.98977" lon="20.25847">
        <ele>912.90997314453</ele>
        <time>2024-09-26T09:36:02.000Z</time>
      </trkpt>
      <trkpt lat="40.98971" lon="20.2585">
        <ele>912.90997314453</ele>
        <time>2024-09-26T09:36:03.000Z</time>
      </trkpt>
      <trkpt lat="40.98964" lon="20.25855">
        <ele>913.86999511719</ele>
        <time>2024-09-26T09:36:04.000Z</time>
      </trkpt>
      <trkpt lat="40.98958" lon="20.2586">
        <ele>914.34997558594</ele>
        <time>2024-09-26T09:36:05.000Z</time>
      </trkpt>
      <trkpt lat="40.98953" lon="20.25867">
        <ele>915.30999755859</ele>
        <time>2024-09-26T09:36:06.000Z</time>
      </trkpt>
      <trkpt lat="40.9895" lon="20.25876">
        <ele>915.78997802734</ele>
        <time>2024-09-26T09:36:07.000Z</time>
      </trkpt>
      <trkpt lat="40.98943" lon="20.25903">
        <ele>916.75</ele>
        <time>2024-09-26T09:36:09.000Z</time>
      </trkpt>
      <trkpt lat="40.98942" lon="20.25906">
        <ele>916.75</ele>
        <time>2024-09-26T09:36:10.000Z</time>
      </trkpt>
      <trkpt lat="40.98939" lon="20.25917">
        <ele>917.23999023438</ele>
        <time>2024-09-26T09:36:11.000Z</time>
      </trkpt>
      <trkpt lat="40.98934" lon="20.25924">
        <ele>917.71997070312</ele>
        <time>2024-09-26T09:36:12.000Z</time>
      </trkpt>
      <trkpt lat="40.98929" lon="20.25928">
        <ele>917.71997070312</ele>
        <time>2024-09-26T09:36:13.000Z</time>
      </trkpt>
      <trkpt lat="40.98916" lon="20.25934">
        <ele>917.71997070312</ele>
        <time>2024-09-26T09:36:14.000Z</time>
      </trkpt>
      <trkpt lat="40.98914" lon="20.25935">
        <ele>918.20001220703</ele>
        <time>2024-09-26T09:36:15.000Z</time>
      </trkpt>
      <trkpt lat="40.9891" lon="20.25938">
        <ele>918.67999267578</ele>
        <time>2024-09-26T09:36:16.000Z</time>
      </trkpt>
      <trkpt lat="40.98906" lon="20.25943">
        <ele>919.15997314453</ele>
        <time>2024-09-26T09:36:17.000Z</time>
      </trkpt>
      <trkpt lat="40.98903" lon="20.25951">
        <ele>919.15997314453</ele>
        <time>2024-09-26T09:36:18.000Z</time>
      </trkpt>
      <trkpt lat="40.98901" lon="20.25965">
        <ele>919.64001464844</ele>
        <time>2024-09-26T09:36:19.000Z</time>
      </trkpt>
      <trkpt lat="40.98899" lon="20.25973">
        <ele>919.64001464844</ele>
        <time>2024-09-26T09:36:20.000Z</time>
      </trkpt>
      <trkpt lat="40.98895" lon="20.25987">
        <ele>920.11999511719</ele>
        <time>2024-09-26T09:36:21.000Z</time>
      </trkpt>
      <trkpt lat="40.9889" lon="20.26">
        <ele>920.11999511719</ele>
        <time>2024-09-26T09:36:22.000Z</time>
      </trkpt>
      <trkpt lat="40.98886" lon="20.26009">
        <ele>920.11999511719</ele>
        <time>2024-09-26T09:36:23.000Z</time>
      </trkpt>
      <trkpt lat="40.98877" lon="20.26025">
        <ele>920.11999511719</ele>
        <time>2024-09-26T09:36:24.000Z</time>
      </trkpt>
      <trkpt lat="40.98875" lon="20.2603">
        <ele>919.64001464844</ele>
        <time>2024-09-26T09:36:25.000Z</time>
      </trkpt>
      <trkpt lat="40.98867" lon="20.26044">
        <ele>919.15997314453</ele>
        <time>2024-09-26T09:36:26.000Z</time>
      </trkpt>
      <trkpt lat="40.98865" lon="20.2605">
        <ele>918.67999267578</ele>
        <time>2024-09-26T09:36:27.000Z</time>
      </trkpt>
      <trkpt lat="40.98852" lon="20.26075">
        <ele>917.71997070312</ele>
        <time>2024-09-26T09:36:29.000Z</time>
      </trkpt>
      <trkpt lat="40.98845" lon="20.26087">
        <ele>917.71997070312</ele>
        <time>2024-09-26T09:36:30.000Z</time>
      </trkpt>
      <trkpt lat="40.98842" lon="20.26092">
        <ele>917.71997070312</ele>
        <time>2024-09-26T09:36:31.000Z</time>
      </trkpt>
      <trkpt lat="40.98833" lon="20.26105">
        <ele>918.20001220703</ele>
        <time>2024-09-26T09:36:32.000Z</time>
      </trkpt>
      <trkpt lat="40.98829" lon="20.26112">
        <ele>918.20001220703</ele>
        <time>2024-09-26T09:36:33.000Z</time>
      </trkpt>
      <trkpt lat="40.98825" lon="20.26117">
        <ele>918.67999267578</ele>
        <time>2024-09-26T09:36:34.000Z</time>
      </trkpt>
      <trkpt lat="40.98818" lon="20.26128">
        <ele>918.20001220703</ele>
        <time>2024-09-26T09:36:35.000Z</time>
      </trkpt>
      <trkpt lat="40.9881" lon="20.26137">
        <ele>918.20001220703</ele>
        <time>2024-09-26T09:36:36.000Z</time>
      </trkpt>
      <trkpt lat="40.98797" lon="20.26151">
        <ele>918.20001220703</ele>
        <time>2024-09-26T09:36:38.000Z</time>
      </trkpt>
      <trkpt lat="40.98789" lon="20.26157">
        <ele>918.67999267578</ele>
        <time>2024-09-26T09:36:39.000Z</time>
      </trkpt>
      <trkpt lat="40.98782" lon="20.26161">
        <ele>918.67999267578</ele>
        <time>2024-09-26T09:36:40.000Z</time>
      </trkpt>
      <trkpt lat="40.98773" lon="20.26161">
        <ele>919.15997314453</ele>
        <time>2024-09-26T09:36:41.000Z</time>
      </trkpt>
      <trkpt lat="40.98764" lon="20.26159">
        <ele>919.64001464844</ele>
        <time>2024-09-26T09:36:42.000Z</time>
      </trkpt>
      <trkpt lat="40.98759" lon="20.26157">
        <ele>920.11999511719</ele>
        <time>2024-09-26T09:36:43.000Z</time>
      </trkpt>
      <trkpt lat="40.98751" lon="20.26154">
        <ele>921.08001708984</ele>
        <time>2024-09-26T09:36:44.000Z</time>
      </trkpt>
      <trkpt lat="40.98748" lon="20.26153">
        <ele>921.08001708984</ele>
        <time>2024-09-26T09:36:45.000Z</time>
      </trkpt>
      <trkpt lat="40.98737" lon="20.26148">
        <ele>922.52001953125</ele>
        <time>2024-09-26T09:36:47.000Z</time>
      </trkpt>
      <trkpt lat="40.98732" lon="20.26147">
        <ele>923.47998046875</ele>
        <time>2024-09-26T09:36:48.000Z</time>
      </trkpt>
      <trkpt lat="40.98714" lon="20.2615">
        <ele>925.89001464844</ele>
        <time>2024-09-26T09:36:55.000Z</time>
      </trkpt>
      <trkpt lat="40.98698" lon="20.26153">
        <ele>927.80999755859</ele>
        <time>2024-09-26T09:37:04.000Z</time>
      </trkpt>
      <trkpt lat="40.98684" lon="20.26167">
        <ele>930.21002197266</ele>
        <time>2024-09-26T09:37:12.000Z</time>
      </trkpt>
      <trkpt lat="40.98674" lon="20.26187">
        <ele>932.14001464844</ele>
        <time>2024-09-26T09:37:21.000Z</time>
      </trkpt>
      <trkpt lat="40.98667" lon="20.26195">
        <ele>931.65002441406</ele>
        <time>2024-09-26T09:37:31.000Z</time>
      </trkpt>
      <trkpt lat="40.98656" lon="20.26217">
        <ele>933.09997558594</ele>
        <time>2024-09-26T09:37:39.000Z</time>
      </trkpt>
      <trkpt lat="40.98646" lon="20.26245">
        <ele>934.05999755859</ele>
        <time>2024-09-26T09:37:50.000Z</time>
      </trkpt>
      <trkpt lat="40.98638" lon="20.26271">
        <ele>935.02001953125</ele>
        <time>2024-09-26T09:38:00.000Z</time>
      </trkpt>
      <trkpt lat="40.98637" lon="20.26274">
        <ele>935.02001953125</ele>
        <time>2024-09-26T09:38:01.000Z</time>
      </trkpt>
      <trkpt lat="40.98635" lon="20.26288">
        <ele>936.46002197266</ele>
        <time>2024-09-26T09:38:04.000Z</time>
      </trkpt>
      <trkpt lat="40.98637" lon="20.26292">
        <ele>936.94000244141</ele>
        <time>2024-09-26T09:38:05.000Z</time>
      </trkpt>
      <trkpt lat="40.98643" lon="20.26306">
        <ele>937.90002441406</ele>
        <time>2024-09-26T09:38:07.000Z</time>
      </trkpt>
      <trkpt lat="40.98645" lon="20.26313">
        <ele>938.38000488281</ele>
        <time>2024-09-26T09:38:08.000Z</time>
      </trkpt>
      <trkpt lat="40.98647" lon="20.26322">
        <ele>938.85998535156</ele>
        <time>2024-09-26T09:38:09.000Z</time>
      </trkpt>
      <trkpt lat="40.98648" lon="20.26331">
        <ele>939.34997558594</ele>
        <time>2024-09-26T09:38:10.000Z</time>
      </trkpt>
      <trkpt lat="40.98647" lon="20.26338">
        <ele>939.34997558594</ele>
        <time>2024-09-26T09:38:11.000Z</time>
      </trkpt>
      <trkpt lat="40.98644" lon="20.26346">
        <ele>939.83001708984</ele>
        <time>2024-09-26T09:38:12.000Z</time>
      </trkpt>
      <trkpt lat="40.98641" lon="20.26356">
        <ele>940.30999755859</ele>
        <time>2024-09-26T09:38:13.000Z</time>
      </trkpt>
      <trkpt lat="40.98638" lon="20.26365">
        <ele>941.27001953125</ele>
        <time>2024-09-26T09:38:14.000Z</time>
      </trkpt>
      <trkpt lat="40.98636" lon="20.2637">
        <ele>941.75</ele>
        <time>2024-09-26T09:38:15.000Z</time>
      </trkpt>
      <trkpt lat="40.98632" lon="20.26379">
        <ele>942.22998046875</ele>
        <time>2024-09-26T09:38:16.000Z</time>
      </trkpt>
      <trkpt lat="40.98627" lon="20.26389">
        <ele>943.19000244141</ele>
        <time>2024-09-26T09:38:17.000Z</time>
      </trkpt>
      <trkpt lat="40.98623" lon="20.26396">
        <ele>943.66998291016</ele>
        <time>2024-09-26T09:38:18.000Z</time>
      </trkpt>
      <trkpt lat="40.98615" lon="20.26407">
        <ele>944.15002441406</ele>
        <time>2024-09-26T09:38:19.000Z</time>
      </trkpt>
      <trkpt lat="40.98606" lon="20.26417">
        <ele>945.10998535156</ele>
        <time>2024-09-26T09:38:20.000Z</time>
      </trkpt>
      <trkpt lat="40.98601" lon="20.26421">
        <ele>946.07000732422</ele>
        <time>2024-09-26T09:38:21.000Z</time>
      </trkpt>
      <trkpt lat="40.98595" lon="20.26427">
        <ele>947.03997802734</ele>
        <time>2024-09-26T09:38:22.000Z</time>
      </trkpt>
      <trkpt lat="40.98583" lon="20.26438">
        <ele>948.96002197266</ele>
        <time>2024-09-26T09:38:23.000Z</time>
      </trkpt>
      <trkpt lat="40.98581" lon="20.2644">
        <ele>948.96002197266</ele>
        <time>2024-09-26T09:38:24.000Z</time>
      </trkpt>
      <trkpt lat="40.98576" lon="20.26446">
        <ele>949.44000244141</ele>
        <time>2024-09-26T09:38:25.000Z</time>
      </trkpt>
      <trkpt lat="40.98571" lon="20.26453">
        <ele>949.44000244141</ele>
        <time>2024-09-26T09:38:26.000Z</time>
      </trkpt>
      <trkpt lat="40.98566" lon="20.26462">
        <ele>948.96002197266</ele>
        <time>2024-09-26T09:38:27.000Z</time>
      </trkpt>
      <trkpt lat="40.98562" lon="20.2647">
        <ele>948.47998046875</ele>
        <time>2024-09-26T09:38:28.000Z</time>
      </trkpt>
      <trkpt lat="40.98557" lon="20.2648">
        <ele>948.47998046875</ele>
        <time>2024-09-26T09:38:29.000Z</time>
      </trkpt>
      <trkpt lat="40.98548" lon="20.26493">
        <ele>947.52001953125</ele>
        <time>2024-09-26T09:38:30.000Z</time>
      </trkpt>
      <trkpt lat="40.98546" lon="20.26498">
        <ele>947.52001953125</ele>
        <time>2024-09-26T09:38:31.000Z</time>
      </trkpt>
      <trkpt lat="40.9854" lon="20.26508">
        <ele>946.55999755859</ele>
        <time>2024-09-26T09:38:32.000Z</time>
      </trkpt>
      <trkpt lat="40.98536" lon="20.26517">
        <ele>946.07000732422</ele>
        <time>2024-09-26T09:38:33.000Z</time>
      </trkpt>
      <trkpt lat="40.98532" lon="20.26527">
        <ele>945.59002685547</ele>
        <time>2024-09-26T09:38:34.000Z</time>
      </trkpt>
      <trkpt lat="40.9853" lon="20.26537">
        <ele>945.59002685547</ele>
        <time>2024-09-26T09:38:35.000Z</time>
      </trkpt>
      <trkpt lat="40.98529" lon="20.26549">
        <ele>945.59002685547</ele>
        <time>2024-09-26T09:38:36.000Z</time>
      </trkpt>
      <trkpt lat="40.98528" lon="20.26562">
        <ele>946.07000732422</ele>
        <time>2024-09-26T09:38:37.000Z</time>
      </trkpt>
      <trkpt lat="40.98527" lon="20.26574">
        <ele>945.59002685547</ele>
        <time>2024-09-26T09:38:38.000Z</time>
      </trkpt>
      <trkpt lat="40.98525" lon="20.26587">
        <ele>945.59002685547</ele>
        <time>2024-09-26T09:38:39.000Z</time>
      </trkpt>
      <trkpt lat="40.98522" lon="20.26604">
        <ele>945.59002685547</ele>
        <time>2024-09-26T09:38:40.000Z</time>
      </trkpt>
      <trkpt lat="40.98519" lon="20.26616">
        <ele>946.55999755859</ele>
        <time>2024-09-26T09:38:41.000Z</time>
      </trkpt>
      <trkpt lat="40.98519" lon="20.26618">
        <ele>947.03997802734</ele>
        <time>2024-09-26T09:38:42.000Z</time>
      </trkpt>
      <trkpt lat="40.98516" lon="20.26635">
        <ele>948</ele>
        <time>2024-09-26T09:38:43.000Z</time>
      </trkpt>
      <trkpt lat="40.98514" lon="20.26643">
        <ele>948.47998046875</ele>
        <time>2024-09-26T09:38:44.000Z</time>
      </trkpt>
      <trkpt lat="40.98509" lon="20.26674">
        <ele>949.44000244141</ele>
        <time>2024-09-26T09:38:46.000Z</time>
      </trkpt>
      <trkpt lat="40.98509" lon="20.2668">
        <ele>949.44000244141</ele>
        <time>2024-09-26T09:38:47.000Z</time>
      </trkpt>
      <trkpt lat="40.98508" lon="20.26689">
        <ele>949.44000244141</ele>
        <time>2024-09-26T09:38:48.000Z</time>
      </trkpt>
      <trkpt lat="40.98508" lon="20.26696">
        <ele>949.91998291016</ele>
        <time>2024-09-26T09:38:49.000Z</time>
      </trkpt>
      <trkpt lat="40.98509" lon="20.26703">
        <ele>949.91998291016</ele>
        <time>2024-09-26T09:38:50.000Z</time>
      </trkpt>
      <trkpt lat="40.98519" lon="20.26731">
        <ele>952.79998779297</ele>
        <time>2024-09-26T09:38:57.000Z</time>
      </trkpt>
      <trkpt lat="40.98525" lon="20.26742">
        <ele>954.25</ele>
        <time>2024-09-26T09:39:05.000Z</time>
      </trkpt>
      <trkpt lat="40.98533" lon="20.26755">
        <ele>955.69000244141</ele>
        <time>2024-09-26T09:40:05.000Z</time>
      </trkpt>
      <trkpt lat="40.98537" lon="20.26762">
        <ele>955.69000244141</ele>
        <time>2024-09-26T09:40:08.000Z</time>
      </trkpt>
      <trkpt lat="40.98541" lon="20.2677">
        <ele>955.21002197266</ele>
        <time>2024-09-26T09:40:09.000Z</time>
      </trkpt>
      <trkpt lat="40.98546" lon="20.26784">
        <ele>954.25</ele>
        <time>2024-09-26T09:40:12.000Z</time>
      </trkpt>
      <trkpt lat="40.98548" lon="20.26792">
        <ele>953.28002929688</ele>
        <time>2024-09-26T09:40:13.000Z</time>
      </trkpt>
      <trkpt lat="40.98552" lon="20.26799">
        <ele>952.79998779297</ele>
        <time>2024-09-26T09:40:14.000Z</time>
      </trkpt>
      <trkpt lat="40.98555" lon="20.26805">
        <ele>951.84002685547</ele>
        <time>2024-09-26T09:40:15.000Z</time>
      </trkpt>
      <trkpt lat="40.98559" lon="20.26812">
        <ele>950.40002441406</ele>
        <time>2024-09-26T09:40:16.000Z</time>
      </trkpt>
      <trkpt lat="40.98562" lon="20.26817">
        <ele>949.91998291016</ele>
        <time>2024-09-26T09:40:17.000Z</time>
      </trkpt>
      <trkpt lat="40.98563" lon="20.26825">
        <ele>948.96002197266</ele>
        <time>2024-09-26T09:40:18.000Z</time>
      </trkpt>
      <trkpt lat="40.98563" lon="20.26832">
        <ele>948</ele>
        <time>2024-09-26T09:40:19.000Z</time>
      </trkpt>
      <trkpt lat="40.98561" lon="20.26839">
        <ele>947.03997802734</ele>
        <time>2024-09-26T09:40:20.000Z</time>
      </trkpt>
      <trkpt lat="40.98557" lon="20.26848">
        <ele>946.07000732422</ele>
        <time>2024-09-26T09:40:21.000Z</time>
      </trkpt>
      <trkpt lat="40.98554" lon="20.26856">
        <ele>945.10998535156</ele>
        <time>2024-09-26T09:40:22.000Z</time>
      </trkpt>
      <trkpt lat="40.98553" lon="20.26861">
        <ele>944.63000488281</ele>
        <time>2024-09-26T09:40:23.000Z</time>
      </trkpt>
      <trkpt lat="40.98551" lon="20.26869">
        <ele>943.66998291016</ele>
        <time>2024-09-26T09:40:24.000Z</time>
      </trkpt>
      <trkpt lat="40.9855" lon="20.26875">
        <ele>943.66998291016</ele>
        <time>2024-09-26T09:40:25.000Z</time>
      </trkpt>
      <trkpt lat="40.9855" lon="20.26883">
        <ele>942.22998046875</ele>
        <time>2024-09-26T09:40:26.000Z</time>
      </trkpt>
      <trkpt lat="40.98552" lon="20.26894">
        <ele>941.27001953125</ele>
        <time>2024-09-26T09:40:27.000Z</time>
      </trkpt>
      <trkpt lat="40.98553" lon="20.26903">
        <ele>940.30999755859</ele>
        <time>2024-09-26T09:40:28.000Z</time>
      </trkpt>
      <trkpt lat="40.98554" lon="20.26908">
        <ele>940.30999755859</ele>
        <time>2024-09-26T09:40:29.000Z</time>
      </trkpt>
      <trkpt lat="40.98555" lon="20.26915">
        <ele>939.83001708984</ele>
        <time>2024-09-26T09:40:30.000Z</time>
      </trkpt>
      <trkpt lat="40.98557" lon="20.26923">
        <ele>939.34997558594</ele>
        <time>2024-09-26T09:40:31.000Z</time>
      </trkpt>
      <trkpt lat="40.98559" lon="20.2693">
        <ele>938.85998535156</ele>
        <time>2024-09-26T09:40:32.000Z</time>
      </trkpt>
      <trkpt lat="40.98562" lon="20.26935">
        <ele>938.38000488281</ele>
        <time>2024-09-26T09:40:33.000Z</time>
      </trkpt>
      <trkpt lat="40.98565" lon="20.26939">
        <ele>937.90002441406</ele>
        <time>2024-09-26T09:40:34.000Z</time>
      </trkpt>
      <trkpt lat="40.9857" lon="20.26943">
        <ele>937.41998291016</ele>
        <time>2024-09-26T09:40:35.000Z</time>
      </trkpt>
      <trkpt lat="40.98575" lon="20.26946">
        <ele>936.94000244141</ele>
        <time>2024-09-26T09:40:36.000Z</time>
      </trkpt>
      <trkpt lat="40.98581" lon="20.26949">
        <ele>936.94000244141</ele>
        <time>2024-09-26T09:40:37.000Z</time>
      </trkpt>
      <trkpt lat="40.98585" lon="20.26954">
        <ele>936.46002197266</ele>
        <time>2024-09-26T09:40:38.000Z</time>
      </trkpt>
      <trkpt lat="40.98594" lon="20.26963">
        <ele>935.97998046875</ele>
        <time>2024-09-26T09:40:39.000Z</time>
      </trkpt>
      <trkpt lat="40.98595" lon="20.26964">
        <ele>935.97998046875</ele>
        <time>2024-09-26T09:40:40.000Z</time>
      </trkpt>
      <trkpt lat="40.98599" lon="20.26968">
        <ele>935.5</ele>
        <time>2024-09-26T09:40:41.000Z</time>
      </trkpt>
      <trkpt lat="40.98604" lon="20.26973">
        <ele>935.02001953125</ele>
        <time>2024-09-26T09:40:42.000Z</time>
      </trkpt>
      <trkpt lat="40.98608" lon="20.26977">
        <ele>934.53997802734</ele>
        <time>2024-09-26T09:40:43.000Z</time>
      </trkpt>
      <trkpt lat="40.98612" lon="20.26982">
        <ele>934.05999755859</ele>
        <time>2024-09-26T09:40:44.000Z</time>
      </trkpt>
      <trkpt lat="40.98616" lon="20.26987">
        <ele>934.05999755859</ele>
        <time>2024-09-26T09:40:45.000Z</time>
      </trkpt>
      <trkpt lat="40.98619" lon="20.26993">
        <ele>933.09997558594</ele>
        <time>2024-09-26T09:40:46.000Z</time>
      </trkpt>
      <trkpt lat="40.98622" lon="20.26996">
        <ele>932.61999511719</ele>
        <time>2024-09-26T09:40:47.000Z</time>
      </trkpt>
      <trkpt lat="40.98627" lon="20.27004">
        <ele>931.65002441406</ele>
        <time>2024-09-26T09:40:48.000Z</time>
      </trkpt>
      <trkpt lat="40.98628" lon="20.27005">
        <ele>931.65002441406</ele>
        <time>2024-09-26T09:40:49.000Z</time>
      </trkpt>
      <trkpt lat="40.98633" lon="20.27014">
        <ele>930.69000244141</ele>
        <time>2024-09-26T09:40:56.000Z</time>
      </trkpt>
      <trkpt lat="40.98642" lon="20.27038">
        <ele>935.02001953125</ele>
        <time>2024-09-26T09:41:22.000Z</time>
      </trkpt>
      <trkpt lat="40.98649" lon="20.27056">
        <ele>934.05999755859</ele>
        <time>2024-09-26T09:41:31.000Z</time>
      </trkpt>
      <trkpt lat="40.98649" lon="20.27058">
        <ele>935.02001953125</ele>
        <time>2024-09-26T09:41:55.000Z</time>
      </trkpt>
      <trkpt lat="40.98652" lon="20.27071">
        <ele>936.46002197266</ele>
        <time>2024-09-26T09:43:41.000Z</time>
      </trkpt>
      <trkpt lat="40.98652" lon="20.27077">
        <ele>936.46002197266</ele>
        <time>2024-09-26T09:43:42.000Z</time>
      </trkpt>
      <trkpt lat="40.98651" lon="20.27083">
        <ele>936.46002197266</ele>
        <time>2024-09-26T09:43:43.000Z</time>
      </trkpt>
      <trkpt lat="40.98651" lon="20.27089">
        <ele>935.97998046875</ele>
        <time>2024-09-26T09:43:44.000Z</time>
      </trkpt>
      <trkpt lat="40.9865" lon="20.27098">
        <ele>935.5</ele>
        <time>2024-09-26T09:43:45.000Z</time>
      </trkpt>
      <trkpt lat="40.98649" lon="20.27103">
        <ele>935.02001953125</ele>
        <time>2024-09-26T09:43:46.000Z</time>
      </trkpt>
      <trkpt lat="40.98648" lon="20.27109">
        <ele>934.53997802734</ele>
        <time>2024-09-26T09:43:47.000Z</time>
      </trkpt>
      <trkpt lat="40.98648" lon="20.27117">
        <ele>934.05999755859</ele>
        <time>2024-09-26T09:43:48.000Z</time>
      </trkpt>
      <trkpt lat="40.98647" lon="20.27124">
        <ele>933.58001708984</ele>
        <time>2024-09-26T09:43:49.000Z</time>
      </trkpt>
      <trkpt lat="40.98645" lon="20.2713">
        <ele>933.09997558594</ele>
        <time>2024-09-26T09:43:50.000Z</time>
      </trkpt>
      <trkpt lat="40.98643" lon="20.27137">
        <ele>932.14001464844</ele>
        <time>2024-09-26T09:43:51.000Z</time>
      </trkpt>
      <trkpt lat="40.98641" lon="20.27143">
        <ele>931.65002441406</ele>
        <time>2024-09-26T09:43:52.000Z</time>
      </trkpt>
      <trkpt lat="40.98638" lon="20.27149">
        <ele>930.69000244141</ele>
        <time>2024-09-26T09:43:53.000Z</time>
      </trkpt>
      <trkpt lat="40.98633" lon="20.27158">
        <ele>929.72998046875</ele>
        <time>2024-09-26T09:43:54.000Z</time>
      </trkpt>
      <trkpt lat="40.9863" lon="20.27163">
        <ele>928.77001953125</ele>
        <time>2024-09-26T09:43:55.000Z</time>
      </trkpt>
      <trkpt lat="40.98626" lon="20.27171">
        <ele>927.80999755859</ele>
        <time>2024-09-26T09:43:56.000Z</time>
      </trkpt>
      <trkpt lat="40.98622" lon="20.27176">
        <ele>926.84997558594</ele>
        <time>2024-09-26T09:43:57.000Z</time>
      </trkpt>
      <trkpt lat="40.98619" lon="20.27182">
        <ele>926.36999511719</ele>
        <time>2024-09-26T09:43:58.000Z</time>
      </trkpt>
      <trkpt lat="40.98615" lon="20.27191">
        <ele>925.40997314453</ele>
        <time>2024-09-26T09:43:59.000Z</time>
      </trkpt>
      <trkpt lat="40.9861" lon="20.27204">
        <ele>923.96002197266</ele>
        <time>2024-09-26T09:44:01.000Z</time>
      </trkpt>
      <trkpt lat="40.98608" lon="20.2721">
        <ele>923</ele>
        <time>2024-09-26T09:44:02.000Z</time>
      </trkpt>
      <trkpt lat="40.98601" lon="20.27222">
        <ele>921.55999755859</ele>
        <time>2024-09-26T09:44:04.000Z</time>
      </trkpt>
      <trkpt lat="40.98598" lon="20.27227">
        <ele>921.08001708984</ele>
        <time>2024-09-26T09:44:05.000Z</time>
      </trkpt>
      <trkpt lat="40.98596" lon="20.27233">
        <ele>920.59997558594</ele>
        <time>2024-09-26T09:44:06.000Z</time>
      </trkpt>
      <trkpt lat="40.98597" lon="20.27239">
        <ele>919.64001464844</ele>
        <time>2024-09-26T09:44:07.000Z</time>
      </trkpt>
      <trkpt lat="40.98599" lon="20.27245">
        <ele>918.67999267578</ele>
        <time>2024-09-26T09:44:08.000Z</time>
      </trkpt>
      <trkpt lat="40.98601" lon="20.2725">
        <ele>918.20001220703</ele>
        <time>2024-09-26T09:44:09.000Z</time>
      </trkpt>
      <trkpt lat="40.98603" lon="20.27255">
        <ele>917.71997070312</ele>
        <time>2024-09-26T09:44:10.000Z</time>
      </trkpt>
      <trkpt lat="40.98607" lon="20.27258">
        <ele>917.23999023438</ele>
        <time>2024-09-26T09:44:11.000Z</time>
      </trkpt>
      <trkpt lat="40.98611" lon="20.27261">
        <ele>916.75</ele>
        <time>2024-09-26T09:44:12.000Z</time>
      </trkpt>
      <trkpt lat="40.98617" lon="20.27265">
        <ele>915.78997802734</ele>
        <time>2024-09-26T09:44:13.000Z</time>
      </trkpt>
      <trkpt lat="40.9862" lon="20.27269">
        <ele>914.83001708984</ele>
        <time>2024-09-26T09:44:14.000Z</time>
      </trkpt>
      <trkpt lat="40.98624" lon="20.27274">
        <ele>913.86999511719</ele>
        <time>2024-09-26T09:44:15.000Z</time>
      </trkpt>
      <trkpt lat="40.98627" lon="20.27281">
        <ele>912.90997314453</ele>
        <time>2024-09-26T09:44:16.000Z</time>
      </trkpt>
      <trkpt lat="40.9863" lon="20.27291">
        <ele>910.98999023438</ele>
        <time>2024-09-26T09:44:17.000Z</time>
      </trkpt>
      <trkpt lat="40.98631" lon="20.27294">
        <ele>910.51000976562</ele>
        <time>2024-09-26T09:44:18.000Z</time>
      </trkpt>
      <trkpt lat="40.98634" lon="20.27301">
        <ele>909.53997802734</ele>
        <time>2024-09-26T09:44:19.000Z</time>
      </trkpt>
      <trkpt lat="40.98638" lon="20.27307">
        <ele>908.58001708984</ele>
        <time>2024-09-26T09:44:20.000Z</time>
      </trkpt>
      <trkpt lat="40.98642" lon="20.27311">
        <ele>907.61999511719</ele>
        <time>2024-09-26T09:44:21.000Z</time>
      </trkpt>
      <trkpt lat="40.98647" lon="20.27315">
        <ele>906.65997314453</ele>
        <time>2024-09-26T09:44:22.000Z</time>
      </trkpt>
      <trkpt lat="40.98655" lon="20.27319">
        <ele>905.21997070312</ele>
        <time>2024-09-26T09:44:23.000Z</time>
      </trkpt>
      <trkpt lat="40.98659" lon="20.27321">
        <ele>904.73999023438</ele>
        <time>2024-09-26T09:44:24.000Z</time>
      </trkpt>
      <trkpt lat="40.98669" lon="20.27325">
        <ele>903.78002929688</ele>
        <time>2024-09-26T09:44:25.000Z</time>
      </trkpt>
      <trkpt lat="40.9867" lon="20.27325">
        <ele>903.29998779297</ele>
        <time>2024-09-26T09:44:26.000Z</time>
      </trkpt>
      <trkpt lat="40.98687" lon="20.27328">
        <ele>901.84997558594</ele>
        <time>2024-09-26T09:44:28.000Z</time>
      </trkpt>
      <trkpt lat="40.98708" lon="20.2733">
        <ele>900.89001464844</ele>
        <time>2024-09-26T09:44:31.000Z</time>
      </trkpt>
      <trkpt lat="40.98711" lon="20.27331">
        <ele>900.89001464844</ele>
        <time>2024-09-26T09:44:32.000Z</time>
      </trkpt>
      <trkpt lat="40.98715" lon="20.27333">
        <ele>900.40997314453</ele>
        <time>2024-09-26T09:44:33.000Z</time>
      </trkpt>
      <trkpt lat="40.98721" lon="20.27336">
        <ele>900.40997314453</ele>
        <time>2024-09-26T09:44:34.000Z</time>
      </trkpt>
      <trkpt lat="40.98726" lon="20.27339">
        <ele>899.92999267578</ele>
        <time>2024-09-26T09:44:35.000Z</time>
      </trkpt>
      <trkpt lat="40.98732" lon="20.27344">
        <ele>898.96997070312</ele>
        <time>2024-09-26T09:44:36.000Z</time>
      </trkpt>
      <trkpt lat="40.98739" lon="20.27352">
        <ele>898.01000976562</ele>
        <time>2024-09-26T09:44:37.000Z</time>
      </trkpt>
      <trkpt lat="40.98744" lon="20.27357">
        <ele>897.04998779297</ele>
        <time>2024-09-26T09:44:38.000Z</time>
      </trkpt>
      <trkpt lat="40.98751" lon="20.27363">
        <ele>896.57000732422</ele>
        <time>2024-09-26T09:44:39.000Z</time>
      </trkpt>
      <trkpt lat="40.98753" lon="20.27364">
        <ele>896.57000732422</ele>
        <time>2024-09-26T09:44:40.000Z</time>
      </trkpt>
      <trkpt lat="40.98759" lon="20.27368">
        <ele>896.09002685547</ele>
        <time>2024-09-26T09:44:41.000Z</time>
      </trkpt>
      <trkpt lat="40.98765" lon="20.27371">
        <ele>896.09002685547</ele>
        <time>2024-09-26T09:44:42.000Z</time>
      </trkpt>
      <trkpt lat="40.9877" lon="20.27372">
        <ele>896.09002685547</ele>
        <time>2024-09-26T09:44:43.000Z</time>
      </trkpt>
      <trkpt lat="40.98785" lon="20.27371">
        <ele>895.60998535156</ele>
        <time>2024-09-26T09:44:45.000Z</time>
      </trkpt>
      <trkpt lat="40.98793" lon="20.27369">
        <ele>895.60998535156</ele>
        <time>2024-09-26T09:44:46.000Z</time>
      </trkpt>
      <trkpt lat="40.98794" lon="20.27369">
        <ele>895.60998535156</ele>
        <time>2024-09-26T09:44:47.000Z</time>
      </trkpt>
      <trkpt lat="40.98805" lon="20.27368">
        <ele>894.64001464844</ele>
        <time>2024-09-26T09:44:48.000Z</time>
      </trkpt>
      <trkpt lat="40.98821" lon="20.27369">
        <ele>894.15997314453</ele>
        <time>2024-09-26T09:44:51.000Z</time>
      </trkpt>
      <trkpt lat="40.98825" lon="20.27368">
        <ele>894.15997314453</ele>
        <time>2024-09-26T09:44:52.000Z</time>
      </trkpt>
      <trkpt lat="40.98831" lon="20.27367">
        <ele>894.15997314453</ele>
        <time>2024-09-26T09:44:53.000Z</time>
      </trkpt>
      <trkpt lat="40.98836" lon="20.27365">
        <ele>894.15997314453</ele>
        <time>2024-09-26T09:44:54.000Z</time>
      </trkpt>
      <trkpt lat="40.98848" lon="20.27359">
        <ele>893.67999267578</ele>
        <time>2024-09-26T09:44:55.000Z</time>
      </trkpt>
      <trkpt lat="40.98851" lon="20.27358">
        <ele>893.20001220703</ele>
        <time>2024-09-26T09:44:56.000Z</time>
      </trkpt>
      <trkpt lat="40.98855" lon="20.27356">
        <ele>892.71997070312</ele>
        <time>2024-09-26T09:44:57.000Z</time>
      </trkpt>
      <trkpt lat="40.98862" lon="20.27354">
        <ele>891.76000976562</ele>
        <time>2024-09-26T09:44:58.000Z</time>
      </trkpt>
      <trkpt lat="40.9887" lon="20.27354">
        <ele>891.28002929688</ele>
        <time>2024-09-26T09:44:59.000Z</time>
      </trkpt>
      <trkpt lat="40.98877" lon="20.27356">
        <ele>890.79998779297</ele>
        <time>2024-09-26T09:45:00.000Z</time>
      </trkpt>
      <trkpt lat="40.98882" lon="20.2736">
        <ele>890.32000732422</ele>
        <time>2024-09-26T09:45:01.000Z</time>
      </trkpt>
      <trkpt lat="40.98888" lon="20.27366">
        <ele>890.32000732422</ele>
        <time>2024-09-26T09:45:02.000Z</time>
      </trkpt>
      <trkpt lat="40.98892" lon="20.2737">
        <ele>890.32000732422</ele>
        <time>2024-09-26T09:45:03.000Z</time>
      </trkpt>
      <trkpt lat="40.98897" lon="20.27372">
        <ele>890.79998779297</ele>
        <time>2024-09-26T09:45:04.000Z</time>
      </trkpt>
      <trkpt lat="40.98902" lon="20.27372">
        <ele>890.79998779297</ele>
        <time>2024-09-26T09:45:05.000Z</time>
      </trkpt>
      <trkpt lat="40.98907" lon="20.2737">
        <ele>891.28002929688</ele>
        <time>2024-09-26T09:45:06.000Z</time>
      </trkpt>
      <trkpt lat="40.98915" lon="20.27366">
        <ele>891.28002929688</ele>
        <time>2024-09-26T09:45:07.000Z</time>
      </trkpt>
      <trkpt lat="40.98919" lon="20.27364">
        <ele>891.28002929688</ele>
        <time>2024-09-26T09:45:08.000Z</time>
      </trkpt>
      <trkpt lat="40.98926" lon="20.27363">
        <ele>891.28002929688</ele>
        <time>2024-09-26T09:45:09.000Z</time>
      </trkpt>
      <trkpt lat="40.98933" lon="20.27364">
        <ele>890.79998779297</ele>
        <time>2024-09-26T09:45:10.000Z</time>
      </trkpt>
      <trkpt lat="40.98939" lon="20.27365">
        <ele>890.32000732422</ele>
        <time>2024-09-26T09:45:11.000Z</time>
      </trkpt>
      <trkpt lat="40.98947" lon="20.27367">
        <ele>889.84002685547</ele>
        <time>2024-09-26T09:45:12.000Z</time>
      </trkpt>
      <trkpt lat="40.98954" lon="20.27369">
        <ele>889.35998535156</ele>
        <time>2024-09-26T09:45:13.000Z</time>
      </trkpt>
      <trkpt lat="40.98962" lon="20.27369">
        <ele>888.40002441406</ele>
        <time>2024-09-26T09:45:14.000Z</time>
      </trkpt>
      <trkpt lat="40.9897" lon="20.27368">
        <ele>887.90997314453</ele>
        <time>2024-09-26T09:45:15.000Z</time>
      </trkpt>
      <trkpt lat="40.98984" lon="20.27369">
        <ele>886.95001220703</ele>
        <time>2024-09-26T09:45:16.000Z</time>
      </trkpt>
      <trkpt lat="40.98988" lon="20.27369">
        <ele>886.95001220703</ele>
        <time>2024-09-26T09:45:17.000Z</time>
      </trkpt>
      <trkpt lat="40.98993" lon="20.27371">
        <ele>886.95001220703</ele>
        <time>2024-09-26T09:45:18.000Z</time>
      </trkpt>
      <trkpt lat="40.99001" lon="20.27373">
        <ele>886.46997070312</ele>
        <time>2024-09-26T09:45:19.000Z</time>
      </trkpt>
      <trkpt lat="40.99015" lon="20.27378">
        <ele>885.51000976562</ele>
        <time>2024-09-26T09:45:21.000Z</time>
      </trkpt>
      <trkpt lat="40.99024" lon="20.27381">
        <ele>885.03002929688</ele>
        <time>2024-09-26T09:45:22.000Z</time>
      </trkpt>
      <trkpt lat="40.99031" lon="20.27383">
        <ele>884.54998779297</ele>
        <time>2024-09-26T09:45:23.000Z</time>
      </trkpt>
      <trkpt lat="40.99037" lon="20.27384">
        <ele>884.54998779297</ele>
        <time>2024-09-26T09:45:24.000Z</time>
      </trkpt>
      <trkpt lat="40.99045" lon="20.27383">
        <ele>884.54998779297</ele>
        <time>2024-09-26T09:45:25.000Z</time>
      </trkpt>
      <trkpt lat="40.99053" lon="20.27383">
        <ele>884.54998779297</ele>
        <time>2024-09-26T09:45:26.000Z</time>
      </trkpt>
      <trkpt lat="40.99058" lon="20.27383">
        <ele>884.54998779297</ele>
        <time>2024-09-26T09:45:27.000Z</time>
      </trkpt>
      <trkpt lat="40.99063" lon="20.27385">
        <ele>884.54998779297</ele>
        <time>2024-09-26T09:45:28.000Z</time>
      </trkpt>
      <trkpt lat="40.99066" lon="20.2739">
        <ele>884.54998779297</ele>
        <time>2024-09-26T09:45:29.000Z</time>
      </trkpt>
      <trkpt lat="40.99067" lon="20.27395">
        <ele>884.07000732422</ele>
        <time>2024-09-26T09:45:30.000Z</time>
      </trkpt>
      <trkpt lat="40.99067" lon="20.274">
        <ele>884.07000732422</ele>
        <time>2024-09-26T09:45:31.000Z</time>
      </trkpt>
      <trkpt lat="40.99063" lon="20.27406">
        <ele>883.59002685547</ele>
        <time>2024-09-26T09:45:32.000Z</time>
      </trkpt>
      <trkpt lat="40.99059" lon="20.2741">
        <ele>882.63000488281</ele>
        <time>2024-09-26T09:45:33.000Z</time>
      </trkpt>
      <trkpt lat="40.99054" lon="20.27413">
        <ele>882.15002441406</ele>
        <time>2024-09-26T09:45:34.000Z</time>
      </trkpt>
      <trkpt lat="40.99046" lon="20.27416">
        <ele>881.19000244141</ele>
        <time>2024-09-26T09:45:35.000Z</time>
      </trkpt>
      <trkpt lat="40.99041" lon="20.27418">
        <ele>880.71002197266</ele>
        <time>2024-09-26T09:45:36.000Z</time>
      </trkpt>
      <trkpt lat="40.99032" lon="20.2742">
        <ele>880.21997070312</ele>
        <time>2024-09-26T09:45:37.000Z</time>
      </trkpt>
      <trkpt lat="40.99027" lon="20.27422">
        <ele>879.73999023438</ele>
        <time>2024-09-26T09:45:38.000Z</time>
      </trkpt>
      <trkpt lat="40.9902" lon="20.27424">
        <ele>878.78002929688</ele>
        <time>2024-09-26T09:45:39.000Z</time>
      </trkpt>
      <trkpt lat="40.99015" lon="20.27427">
        <ele>877.82000732422</ele>
        <time>2024-09-26T09:45:40.000Z</time>
      </trkpt>
      <trkpt lat="40.9901" lon="20.27429">
        <ele>877.34002685547</ele>
        <time>2024-09-26T09:45:41.000Z</time>
      </trkpt>
      <trkpt lat="40.99003" lon="20.27431">
        <ele>876.38000488281</ele>
        <time>2024-09-26T09:45:42.000Z</time>
      </trkpt>
      <trkpt lat="40.98997" lon="20.27433">
        <ele>875.41998291016</ele>
        <time>2024-09-26T09:45:43.000Z</time>
      </trkpt>
      <trkpt lat="40.98991" lon="20.27436">
        <ele>874.94000244141</ele>
        <time>2024-09-26T09:45:44.000Z</time>
      </trkpt>
      <trkpt lat="40.98978" lon="20.27443">
        <ele>874.46002197266</ele>
        <time>2024-09-26T09:45:46.000Z</time>
      </trkpt>
      <trkpt lat="40.98973" lon="20.27445">
        <ele>874.46002197266</ele>
        <time>2024-09-26T09:45:47.000Z</time>
      </trkpt>
      <trkpt lat="40.9897" lon="20.27448">
        <ele>873.97998046875</ele>
        <time>2024-09-26T09:45:48.000Z</time>
      </trkpt>
      <trkpt lat="40.98966" lon="20.27452">
        <ele>873.5</ele>
        <time>2024-09-26T09:45:49.000Z</time>
      </trkpt>
      <trkpt lat="40.9896" lon="20.27457">
        <ele>873.01000976562</ele>
        <time>2024-09-26T09:45:50.000Z</time>
      </trkpt>
      <trkpt lat="40.98956" lon="20.27461">
        <ele>873.01000976562</ele>
        <time>2024-09-26T09:45:51.000Z</time>
      </trkpt>
      <trkpt lat="40.98954" lon="20.27464">
        <ele>873.01000976562</ele>
        <time>2024-09-26T09:45:52.000Z</time>
      </trkpt>
      <trkpt lat="40.98949" lon="20.27468">
        <ele>872.53002929688</ele>
        <time>2024-09-26T09:45:53.000Z</time>
      </trkpt>
      <trkpt lat="40.98946" lon="20.27471">
        <ele>872.04998779297</ele>
        <time>2024-09-26T09:45:54.000Z</time>
      </trkpt>
      <trkpt lat="40.98939" lon="20.27476">
        <ele>871.09002685547</ele>
        <time>2024-09-26T09:45:55.000Z</time>
      </trkpt>
      <trkpt lat="40.98932" lon="20.27481">
        <ele>869.65002441406</ele>
        <time>2024-09-26T09:45:57.000Z</time>
      </trkpt>
      <trkpt lat="40.98929" lon="20.27483">
        <ele>869.16998291016</ele>
        <time>2024-09-26T09:45:58.000Z</time>
      </trkpt>
      <trkpt lat="40.98926" lon="20.27487">
        <ele>868.21002197266</ele>
        <time>2024-09-26T09:45:59.000Z</time>
      </trkpt>
      <trkpt lat="40.9893" lon="20.27513">
        <ele>868.21002197266</ele>
        <time>2024-09-26T09:46:05.000Z</time>
      </trkpt>
      <trkpt lat="40.98941" lon="20.27528">
        <ele>866.77001953125</ele>
        <time>2024-09-26T09:46:10.000Z</time>
      </trkpt>
      <trkpt lat="40.98942" lon="20.2753">
        <ele>866.28997802734</ele>
        <time>2024-09-26T09:46:11.000Z</time>
      </trkpt>
      <trkpt lat="40.98944" lon="20.27536">
        <ele>865.79998779297</ele>
        <time>2024-09-26T09:46:12.000Z</time>
      </trkpt>
      <trkpt lat="40.98945" lon="20.27541">
        <ele>865.32000732422</ele>
        <time>2024-09-26T09:46:13.000Z</time>
      </trkpt>
      <trkpt lat="40.98942" lon="20.27552">
        <ele>865.32000732422</ele>
        <time>2024-09-26T09:46:15.000Z</time>
      </trkpt>
      <trkpt lat="40.98939" lon="20.27556">
        <ele>865.79998779297</ele>
        <time>2024-09-26T09:46:16.000Z</time>
      </trkpt>
      <trkpt lat="40.98936" lon="20.27561">
        <ele>866.28997802734</ele>
        <time>2024-09-26T09:46:17.000Z</time>
      </trkpt>
      <trkpt lat="40.98933" lon="20.27565">
        <ele>866.77001953125</ele>
        <time>2024-09-26T09:46:18.000Z</time>
      </trkpt>
      <trkpt lat="40.9893" lon="20.27568">
        <ele>867.25</ele>
        <time>2024-09-26T09:46:19.000Z</time>
      </trkpt>
      <trkpt lat="40.98927" lon="20.27573">
        <ele>867.25</ele>
        <time>2024-09-26T09:46:20.000Z</time>
      </trkpt>
      <trkpt lat="40.98925" lon="20.27577">
        <ele>867.25</ele>
        <time>2024-09-26T09:46:21.000Z</time>
      </trkpt>
      <trkpt lat="40.98922" lon="20.27584">
        <ele>867.25</ele>
        <time>2024-09-26T09:46:22.000Z</time>
      </trkpt>
      <trkpt lat="40.9892" lon="20.2759">
        <ele>867.25</ele>
        <time>2024-09-26T09:46:23.000Z</time>
      </trkpt>
      <trkpt lat="40.98919" lon="20.27597">
        <ele>867.72998046875</ele>
        <time>2024-09-26T09:46:24.000Z</time>
      </trkpt>
      <trkpt lat="40.98917" lon="20.27604">
        <ele>867.25</ele>
        <time>2024-09-26T09:46:25.000Z</time>
      </trkpt>
      <trkpt lat="40.98916" lon="20.27609">
        <ele>867.25</ele>
        <time>2024-09-26T09:46:26.000Z</time>
      </trkpt>
      <trkpt lat="40.98914" lon="20.27613">
        <ele>867.25</ele>
        <time>2024-09-26T09:46:27.000Z</time>
      </trkpt>
      <trkpt lat="40.98911" lon="20.27616">
        <ele>867.25</ele>
        <time>2024-09-26T09:46:28.000Z</time>
      </trkpt>
      <trkpt lat="40.98907" lon="20.27619">
        <ele>866.77001953125</ele>
        <time>2024-09-26T09:46:29.000Z</time>
      </trkpt>
      <trkpt lat="40.98903" lon="20.27621">
        <ele>866.28997802734</ele>
        <time>2024-09-26T09:46:30.000Z</time>
      </trkpt>
      <trkpt lat="40.98898" lon="20.27623">
        <ele>865.32000732422</ele>
        <time>2024-09-26T09:46:31.000Z</time>
      </trkpt>
      <trkpt lat="40.98893" lon="20.27625">
        <ele>864.35998535156</ele>
        <time>2024-09-26T09:46:32.000Z</time>
      </trkpt>
      <trkpt lat="40.98886" lon="20.27627">
        <ele>863.88000488281</ele>
        <time>2024-09-26T09:46:33.000Z</time>
      </trkpt>
      <trkpt lat="40.98877" lon="20.2763">
        <ele>862.91998291016</ele>
        <time>2024-09-26T09:46:34.000Z</time>
      </trkpt>
      <trkpt lat="40.98873" lon="20.27631">
        <ele>862.44000244141</ele>
        <time>2024-09-26T09:46:35.000Z</time>
      </trkpt>
      <trkpt lat="40.98865" lon="20.27634">
        <ele>861.96002197266</ele>
        <time>2024-09-26T09:46:36.000Z</time>
      </trkpt>
      <trkpt lat="40.9885" lon="20.2764">
        <ele>861</ele>
        <time>2024-09-26T09:46:39.000Z</time>
      </trkpt>
      <trkpt lat="40.98846" lon="20.27642">
        <ele>861</ele>
        <time>2024-09-26T09:46:40.000Z</time>
      </trkpt>
      <trkpt lat="40.98841" lon="20.27645">
        <ele>860.52001953125</ele>
        <time>2024-09-26T09:46:41.000Z</time>
      </trkpt>
      <trkpt lat="40.98839" lon="20.2766">
        <ele>859.08001708984</ele>
        <time>2024-09-26T09:46:45.000Z</time>
      </trkpt>
      <trkpt lat="40.9884" lon="20.27667">
        <ele>859.08001708984</ele>
        <time>2024-09-26T09:46:46.000Z</time>
      </trkpt>
      <trkpt lat="40.9884" lon="20.27673">
        <ele>859.08001708984</ele>
        <time>2024-09-26T09:46:47.000Z</time>
      </trkpt>
      <trkpt lat="40.98836" lon="20.27678">
        <ele>858.10998535156</ele>
        <time>2024-09-26T09:46:48.000Z</time>
      </trkpt>
      <trkpt lat="40.98833" lon="20.27678">
        <ele>857.63000488281</ele>
        <time>2024-09-26T09:46:49.000Z</time>
      </trkpt>
      <trkpt lat="40.98828" lon="20.27677">
        <ele>856.66998291016</ele>
        <time>2024-09-26T09:46:50.000Z</time>
      </trkpt>
      <trkpt lat="40.9882" lon="20.27675">
        <ele>855.71002197266</ele>
        <time>2024-09-26T09:46:51.000Z</time>
      </trkpt>
      <trkpt lat="40.98812" lon="20.27671">
        <ele>854.75</ele>
        <time>2024-09-26T09:46:52.000Z</time>
      </trkpt>
      <trkpt lat="40.98803" lon="20.27667">
        <ele>853.78997802734</ele>
        <time>2024-09-26T09:46:53.000Z</time>
      </trkpt>
      <trkpt lat="40.98799" lon="20.27666">
        <ele>853.30999755859</ele>
        <time>2024-09-26T09:46:54.000Z</time>
      </trkpt>
      <trkpt lat="40.98791" lon="20.27665">
        <ele>852.83001708984</ele>
        <time>2024-09-26T09:46:55.000Z</time>
      </trkpt>
      <trkpt lat="40.98772" lon="20.27666">
        <ele>851.86999511719</ele>
        <time>2024-09-26T09:46:57.000Z</time>
      </trkpt>
      <trkpt lat="40.98768" lon="20.27667">
        <ele>851.38000488281</ele>
        <time>2024-09-26T09:46:58.000Z</time>
      </trkpt>
      <trkpt lat="40.98761" lon="20.2767">
        <ele>851.38000488281</ele>
        <time>2024-09-26T09:46:59.000Z</time>
      </trkpt>
      <trkpt lat="40.98757" lon="20.27671">
        <ele>850.90002441406</ele>
        <time>2024-09-26T09:47:00.000Z</time>
      </trkpt>
      <trkpt lat="40.9875" lon="20.27675">
        <ele>850.41998291016</ele>
        <time>2024-09-26T09:47:01.000Z</time>
      </trkpt>
      <trkpt lat="40.98745" lon="20.27678">
        <ele>850.41998291016</ele>
        <time>2024-09-26T09:47:02.000Z</time>
      </trkpt>
      <trkpt lat="40.9874" lon="20.27678">
        <ele>849.94000244141</ele>
        <time>2024-09-26T09:47:03.000Z</time>
      </trkpt>
      <trkpt lat="40.98735" lon="20.27676">
        <ele>848.97998046875</ele>
        <time>2024-09-26T09:47:04.000Z</time>
      </trkpt>
      <trkpt lat="40.9873" lon="20.27671">
        <ele>848.5</ele>
        <time>2024-09-26T09:47:05.000Z</time>
      </trkpt>
      <trkpt lat="40.98727" lon="20.27664">
        <ele>848.02001953125</ele>
        <time>2024-09-26T09:47:06.000Z</time>
      </trkpt>
      <trkpt lat="40.98726" lon="20.27656">
        <ele>847.53997802734</ele>
        <time>2024-09-26T09:47:07.000Z</time>
      </trkpt>
      <trkpt lat="40.98725" lon="20.27646">
        <ele>846.58001708984</ele>
        <time>2024-09-26T09:47:08.000Z</time>
      </trkpt>
      <trkpt lat="40.98724" lon="20.2764">
        <ele>846.09997558594</ele>
        <time>2024-09-26T09:47:09.000Z</time>
      </trkpt>
      <trkpt lat="40.98721" lon="20.27634">
        <ele>845.61999511719</ele>
        <time>2024-09-26T09:47:10.000Z</time>
      </trkpt>
      <trkpt lat="40.98717" lon="20.27629">
        <ele>845.14001464844</ele>
        <time>2024-09-26T09:47:11.000Z</time>
      </trkpt>
      <trkpt lat="40.98712" lon="20.27626">
        <ele>844.65997314453</ele>
        <time>2024-09-26T09:47:12.000Z</time>
      </trkpt>
      <trkpt lat="40.98706" lon="20.27624">
        <ele>844.17999267578</ele>
        <time>2024-09-26T09:47:13.000Z</time>
      </trkpt>
      <trkpt lat="40.98684" lon="20.27627">
        <ele>843.69000244141</ele>
        <time>2024-09-26T09:47:16.000Z</time>
      </trkpt>
      <trkpt lat="40.98673" lon="20.27628">
        <ele>843.69000244141</ele>
        <time>2024-09-26T09:47:17.000Z</time>
      </trkpt>
      <trkpt lat="40.98667" lon="20.27629">
        <ele>843.21002197266</ele>
        <time>2024-09-26T09:47:18.000Z</time>
      </trkpt>
      <trkpt lat="40.98658" lon="20.27628">
        <ele>843.21002197266</ele>
        <time>2024-09-26T09:47:19.000Z</time>
      </trkpt>
      <trkpt lat="40.98647" lon="20.27626">
        <ele>842.25</ele>
        <time>2024-09-26T09:47:20.000Z</time>
      </trkpt>
      <trkpt lat="40.98637" lon="20.27626">
        <ele>842.25</ele>
        <time>2024-09-26T09:47:21.000Z</time>
      </trkpt>
      <trkpt lat="40.98613" lon="20.27628">
        <ele>842.72998046875</ele>
        <time>2024-09-26T09:47:23.000Z</time>
      </trkpt>
      <trkpt lat="40.98605" lon="20.27628">
        <ele>842.72998046875</ele>
        <time>2024-09-26T09:47:24.000Z</time>
      </trkpt>
      <trkpt lat="40.98599" lon="20.2763">
        <ele>842.72998046875</ele>
        <time>2024-09-26T09:47:25.000Z</time>
      </trkpt>
      <trkpt lat="40.98589" lon="20.27632">
        <ele>842.72998046875</ele>
        <time>2024-09-26T09:47:26.000Z</time>
      </trkpt>
      <trkpt lat="40.9857" lon="20.27642">
        <ele>843.21002197266</ele>
        <time>2024-09-26T09:47:28.000Z</time>
      </trkpt>
      <trkpt lat="40.98563" lon="20.27648">
        <ele>843.21002197266</ele>
        <time>2024-09-26T09:47:29.000Z</time>
      </trkpt>
      <trkpt lat="40.98553" lon="20.27658">
        <ele>843.21002197266</ele>
        <time>2024-09-26T09:47:30.000Z</time>
      </trkpt>
      <trkpt lat="40.98548" lon="20.27663">
        <ele>843.21002197266</ele>
        <time>2024-09-26T09:47:31.000Z</time>
      </trkpt>
      <trkpt lat="40.98522" lon="20.27686">
        <ele>843.21002197266</ele>
        <time>2024-09-26T09:47:34.000Z</time>
      </trkpt>
      <trkpt lat="40.98516" lon="20.27693">
        <ele>843.21002197266</ele>
        <time>2024-09-26T09:47:35.000Z</time>
      </trkpt>
      <trkpt lat="40.98509" lon="20.27702">
        <ele>843.21002197266</ele>
        <time>2024-09-26T09:47:36.000Z</time>
      </trkpt>
      <trkpt lat="40.98504" lon="20.27711">
        <ele>843.21002197266</ele>
        <time>2024-09-26T09:47:37.000Z</time>
      </trkpt>
      <trkpt lat="40.985" lon="20.27723">
        <ele>843.21002197266</ele>
        <time>2024-09-26T09:47:38.000Z</time>
      </trkpt>
      <trkpt lat="40.98496" lon="20.27731">
        <ele>843.21002197266</ele>
        <time>2024-09-26T09:47:39.000Z</time>
      </trkpt>
      <trkpt lat="40.9849" lon="20.27737">
        <ele>842.72998046875</ele>
        <time>2024-09-26T09:47:40.000Z</time>
      </trkpt>
      <trkpt lat="40.98484" lon="20.27741">
        <ele>841.77001953125</ele>
        <time>2024-09-26T09:47:41.000Z</time>
      </trkpt>
      <trkpt lat="40.98478" lon="20.27744">
        <ele>841.28997802734</ele>
        <time>2024-09-26T09:47:42.000Z</time>
      </trkpt>
      <trkpt lat="40.98471" lon="20.2775">
        <ele>840.80999755859</ele>
        <time>2024-09-26T09:47:43.000Z</time>
      </trkpt>
      <trkpt lat="40.98465" lon="20.27756">
        <ele>840.80999755859</ele>
        <time>2024-09-26T09:47:44.000Z</time>
      </trkpt>
      <trkpt lat="40.9846" lon="20.27763">
        <ele>840.80999755859</ele>
        <time>2024-09-26T09:47:45.000Z</time>
      </trkpt>
      <trkpt lat="40.98453" lon="20.27776">
        <ele>839.84997558594</ele>
        <time>2024-09-26T09:47:46.000Z</time>
      </trkpt>
      <trkpt lat="40.98444" lon="20.27795">
        <ele>839.36999511719</ele>
        <time>2024-09-26T09:47:48.000Z</time>
      </trkpt>
      <trkpt lat="40.9844" lon="20.27802">
        <ele>839.36999511719</ele>
        <time>2024-09-26T09:47:49.000Z</time>
      </trkpt>
      <trkpt lat="40.98434" lon="20.27813">
        <ele>839.36999511719</ele>
        <time>2024-09-26T09:47:50.000Z</time>
      </trkpt>
      <trkpt lat="40.98432" lon="20.27817">
        <ele>839.36999511719</ele>
        <time>2024-09-26T09:47:51.000Z</time>
      </trkpt>
      <trkpt lat="40.98429" lon="20.27826">
        <ele>839.36999511719</ele>
        <time>2024-09-26T09:47:52.000Z</time>
      </trkpt>
      <trkpt lat="40.98425" lon="20.27837">
        <ele>839.84997558594</ele>
        <time>2024-09-26T09:47:53.000Z</time>
      </trkpt>
      <trkpt lat="40.98423" lon="20.27842">
        <ele>839.84997558594</ele>
        <time>2024-09-26T09:47:54.000Z</time>
      </trkpt>
      <trkpt lat="40.98419" lon="20.27847">
        <ele>839.84997558594</ele>
        <time>2024-09-26T09:47:55.000Z</time>
      </trkpt>
      <trkpt lat="40.98414" lon="20.2785">
        <ele>839.84997558594</ele>
        <time>2024-09-26T09:47:56.000Z</time>
      </trkpt>
      <trkpt lat="40.98409" lon="20.27852">
        <ele>839.36999511719</ele>
        <time>2024-09-26T09:47:57.000Z</time>
      </trkpt>
      <trkpt lat="40.98402" lon="20.27854">
        <ele>838.89001464844</ele>
        <time>2024-09-26T09:47:58.000Z</time>
      </trkpt>
      <trkpt lat="40.98396" lon="20.27858">
        <ele>838.89001464844</ele>
        <time>2024-09-26T09:47:59.000Z</time>
      </trkpt>
      <trkpt lat="40.9839" lon="20.27863">
        <ele>838.40997314453</ele>
        <time>2024-09-26T09:48:00.000Z</time>
      </trkpt>
      <trkpt lat="40.98384" lon="20.27868">
        <ele>837.92999267578</ele>
        <time>2024-09-26T09:48:01.000Z</time>
      </trkpt>
      <trkpt lat="40.98376" lon="20.27871">
        <ele>837.45001220703</ele>
        <time>2024-09-26T09:48:02.000Z</time>
      </trkpt>
      <trkpt lat="40.98368" lon="20.27874">
        <ele>836.96002197266</ele>
        <time>2024-09-26T09:48:03.000Z</time>
      </trkpt>
      <trkpt lat="40.9835" lon="20.27883">
        <ele>836.96002197266</ele>
        <time>2024-09-26T09:48:05.000Z</time>
      </trkpt>
      <trkpt lat="40.98343" lon="20.27886">
        <ele>836.96002197266</ele>
        <time>2024-09-26T09:48:06.000Z</time>
      </trkpt>
      <trkpt lat="40.98336" lon="20.27889">
        <ele>836.96002197266</ele>
        <time>2024-09-26T09:48:07.000Z</time>
      </trkpt>
      <trkpt lat="40.98319" lon="20.27891">
        <ele>836.47998046875</ele>
        <time>2024-09-26T09:48:09.000Z</time>
      </trkpt>
      <trkpt lat="40.98308" lon="20.27893">
        <ele>836.96002197266</ele>
        <time>2024-09-26T09:48:10.000Z</time>
      </trkpt>
      <trkpt lat="40.98297" lon="20.27895">
        <ele>836.96002197266</ele>
        <time>2024-09-26T09:48:11.000Z</time>
      </trkpt>
      <trkpt lat="40.98289" lon="20.27896">
        <ele>836.96002197266</ele>
        <time>2024-09-26T09:48:12.000Z</time>
      </trkpt>
      <trkpt lat="40.98283" lon="20.27897">
        <ele>836.96002197266</ele>
        <time>2024-09-26T09:48:13.000Z</time>
      </trkpt>
      <trkpt lat="40.98276" lon="20.27899">
        <ele>836.47998046875</ele>
        <time>2024-09-26T09:48:14.000Z</time>
      </trkpt>
      <trkpt lat="40.9827" lon="20.27903">
        <ele>836.47998046875</ele>
        <time>2024-09-26T09:48:15.000Z</time>
      </trkpt>
      <trkpt lat="40.98263" lon="20.2791">
        <ele>836.47998046875</ele>
        <time>2024-09-26T09:48:16.000Z</time>
      </trkpt>
      <trkpt lat="40.98259" lon="20.27913">
        <ele>836</ele>
        <time>2024-09-26T09:48:17.000Z</time>
      </trkpt>
      <trkpt lat="40.98252" lon="20.27916">
        <ele>836</ele>
        <time>2024-09-26T09:48:18.000Z</time>
      </trkpt>
      <trkpt lat="40.98245" lon="20.27918">
        <ele>835.52001953125</ele>
        <time>2024-09-26T09:48:19.000Z</time>
      </trkpt>
      <trkpt lat="40.98236" lon="20.27918">
        <ele>835.52001953125</ele>
        <time>2024-09-26T09:48:20.000Z</time>
      </trkpt>
      <trkpt lat="40.98228" lon="20.2792">
        <ele>835.52001953125</ele>
        <time>2024-09-26T09:48:21.000Z</time>
      </trkpt>
      <trkpt lat="40.9822" lon="20.27923">
        <ele>835.03997802734</ele>
        <time>2024-09-26T09:48:22.000Z</time>
      </trkpt>
      <trkpt lat="40.98212" lon="20.27928">
        <ele>835.03997802734</ele>
        <time>2024-09-26T09:48:23.000Z</time>
      </trkpt>
      <trkpt lat="40.98197" lon="20.27939">
        <ele>834.55999755859</ele>
        <time>2024-09-26T09:48:25.000Z</time>
      </trkpt>
      <trkpt lat="40.98191" lon="20.27944">
        <ele>834.08001708984</ele>
        <time>2024-09-26T09:48:26.000Z</time>
      </trkpt>
      <trkpt lat="40.98175" lon="20.27958">
        <ele>833.59997558594</ele>
        <time>2024-09-26T09:48:28.000Z</time>
      </trkpt>
      <trkpt lat="40.9816" lon="20.27969">
        <ele>833.59997558594</ele>
        <time>2024-09-26T09:48:30.000Z</time>
      </trkpt>
      <trkpt lat="40.98152" lon="20.27974">
        <ele>834.08001708984</ele>
        <time>2024-09-26T09:48:31.000Z</time>
      </trkpt>
      <trkpt lat="40.98142" lon="20.2798">
        <ele>833.59997558594</ele>
        <time>2024-09-26T09:48:32.000Z</time>
      </trkpt>
      <trkpt lat="40.98133" lon="20.27986">
        <ele>833.59997558594</ele>
        <time>2024-09-26T09:48:33.000Z</time>
      </trkpt>
      <trkpt lat="40.98126" lon="20.27992">
        <ele>833.59997558594</ele>
        <time>2024-09-26T09:48:34.000Z</time>
      </trkpt>
      <trkpt lat="40.9812" lon="20.27998">
        <ele>833.59997558594</ele>
        <time>2024-09-26T09:48:35.000Z</time>
      </trkpt>
      <trkpt lat="40.98105" lon="20.28014">
        <ele>833.59997558594</ele>
        <time>2024-09-26T09:48:37.000Z</time>
      </trkpt>
      <trkpt lat="40.98098" lon="20.28021">
        <ele>833.11999511719</ele>
        <time>2024-09-26T09:48:38.000Z</time>
      </trkpt>
      <trkpt lat="40.9809" lon="20.28028">
        <ele>833.11999511719</ele>
        <time>2024-09-26T09:48:39.000Z</time>
      </trkpt>
      <trkpt lat="40.98071" lon="20.28043">
        <ele>832.15997314453</ele>
        <time>2024-09-26T09:48:41.000Z</time>
      </trkpt>
      <trkpt lat="40.98063" lon="20.28048">
        <ele>831.20001220703</ele>
        <time>2024-09-26T09:48:42.000Z</time>
      </trkpt>
      <trkpt lat="40.98048" lon="20.2806">
        <ele>829.27001953125</ele>
        <time>2024-09-26T09:48:44.000Z</time>
      </trkpt>
      <trkpt lat="40.9804" lon="20.28065">
        <ele>828.30999755859</ele>
        <time>2024-09-26T09:48:45.000Z</time>
      </trkpt>
      <trkpt lat="40.98032" lon="20.2807">
        <ele>827.83001708984</ele>
        <time>2024-09-26T09:48:46.000Z</time>
      </trkpt>
      <trkpt lat="40.98025" lon="20.28075">
        <ele>827.34997558594</ele>
        <time>2024-09-26T09:48:47.000Z</time>
      </trkpt>
      <trkpt lat="40.9802" lon="20.2808">
        <ele>826.39001464844</ele>
        <time>2024-09-26T09:48:48.000Z</time>
      </trkpt>
      <trkpt lat="40.98011" lon="20.28085">
        <ele>824.46997070312</ele>
        <time>2024-09-26T09:48:51.000Z</time>
      </trkpt>
      <trkpt lat="40.98005" lon="20.28082">
        <ele>823.51000976562</ele>
        <time>2024-09-26T09:48:52.000Z</time>
      </trkpt>
      <trkpt lat="40.97996" lon="20.28077">
        <ele>822.05999755859</ele>
        <time>2024-09-26T09:48:53.000Z</time>
      </trkpt>
      <trkpt lat="40.97988" lon="20.28072">
        <ele>821.09997558594</ele>
        <time>2024-09-26T09:48:55.000Z</time>
      </trkpt>
      <trkpt lat="40.97981" lon="20.2807">
        <ele>820.14001464844</ele>
        <time>2024-09-26T09:48:56.000Z</time>
      </trkpt>
      <trkpt lat="40.97975" lon="20.28068">
        <ele>819.65997314453</ele>
        <time>2024-09-26T09:48:57.000Z</time>
      </trkpt>
      <trkpt lat="40.97967" lon="20.28066">
        <ele>818.21997070312</ele>
        <time>2024-09-26T09:48:58.000Z</time>
      </trkpt>
      <trkpt lat="40.97958" lon="20.28065">
        <ele>816.78002929688</ele>
        <time>2024-09-26T09:48:59.000Z</time>
      </trkpt>
      <trkpt lat="40.97948" lon="20.28064">
        <ele>815.34002685547</ele>
        <time>2024-09-26T09:49:00.000Z</time>
      </trkpt>
      <trkpt lat="40.97943" lon="20.28064">
        <ele>814.36999511719</ele>
        <time>2024-09-26T09:49:01.000Z</time>
      </trkpt>
      <trkpt lat="40.97933" lon="20.28061">
        <ele>812.92999267578</ele>
        <time>2024-09-26T09:49:02.000Z</time>
      </trkpt>
      <trkpt lat="40.97926" lon="20.28058">
        <ele>811.96997070312</ele>
        <time>2024-09-26T09:49:03.000Z</time>
      </trkpt>
      <trkpt lat="40.97917" lon="20.28056">
        <ele>810.53002929688</ele>
        <time>2024-09-26T09:49:04.000Z</time>
      </trkpt>
      <trkpt lat="40.97896" lon="20.28051">
        <ele>808.60998535156</ele>
        <time>2024-09-26T09:49:06.000Z</time>
      </trkpt>
      <trkpt lat="40.97887" lon="20.2805">
        <ele>808.13000488281</ele>
        <time>2024-09-26T09:49:07.000Z</time>
      </trkpt>
      <trkpt lat="40.97879" lon="20.28049">
        <ele>807.64001464844</ele>
        <time>2024-09-26T09:49:08.000Z</time>
      </trkpt>
      <trkpt lat="40.97871" lon="20.28047">
        <ele>806.67999267578</ele>
        <time>2024-09-26T09:49:09.000Z</time>
      </trkpt>
      <trkpt lat="40.97862" lon="20.28043">
        <ele>805.23999023438</ele>
        <time>2024-09-26T09:49:10.000Z</time>
      </trkpt>
      <trkpt lat="40.97856" lon="20.2804">
        <ele>804.28002929688</ele>
        <time>2024-09-26T09:49:11.000Z</time>
      </trkpt>
      <trkpt lat="40.97846" lon="20.28033">
        <ele>802.35998535156</ele>
        <time>2024-09-26T09:49:12.000Z</time>
      </trkpt>
      <trkpt lat="40.97832" lon="20.28022">
        <ele>799.46997070312</ele>
        <time>2024-09-26T09:49:14.000Z</time>
      </trkpt>
      <trkpt lat="40.97824" lon="20.28017">
        <ele>798.03002929688</ele>
        <time>2024-09-26T09:49:15.000Z</time>
      </trkpt>
      <trkpt lat="40.97815" lon="20.28013">
        <ele>797.07000732422</ele>
        <time>2024-09-26T09:49:16.000Z</time>
      </trkpt>
      <trkpt lat="40.978" lon="20.28009">
        <ele>794.19000244141</ele>
        <time>2024-09-26T09:49:17.000Z</time>
      </trkpt>
      <trkpt lat="40.97794" lon="20.28007">
        <ele>793.21997070312</ele>
        <time>2024-09-26T09:49:18.000Z</time>
      </trkpt>
      <trkpt lat="40.97783" lon="20.28003">
        <ele>791.78002929688</ele>
        <time>2024-09-26T09:49:19.000Z</time>
      </trkpt>
      <trkpt lat="40.97775" lon="20.28001">
        <ele>790.34002685547</ele>
        <time>2024-09-26T09:49:20.000Z</time>
      </trkpt>
      <trkpt lat="40.97767" lon="20.28001">
        <ele>789.38000488281</ele>
        <time>2024-09-26T09:49:21.000Z</time>
      </trkpt>
      <trkpt lat="40.97759" lon="20.28001">
        <ele>787.94000244141</ele>
        <time>2024-09-26T09:49:22.000Z</time>
      </trkpt>
      <trkpt lat="40.97753" lon="20.28001">
        <ele>786.97998046875</ele>
        <time>2024-09-26T09:49:23.000Z</time>
      </trkpt>
      <trkpt lat="40.97747" lon="20.27999">
        <ele>786.02001953125</ele>
        <time>2024-09-26T09:49:24.000Z</time>
      </trkpt>
      <trkpt lat="40.97742" lon="20.27996">
        <ele>785.04998779297</ele>
        <time>2024-09-26T09:49:25.000Z</time>
      </trkpt>
      <trkpt lat="40.97737" lon="20.27991">
        <ele>783.60998535156</ele>
        <time>2024-09-26T09:49:26.000Z</time>
      </trkpt>
      <trkpt lat="40.97734" lon="20.27985">
        <ele>782.65002441406</ele>
        <time>2024-09-26T09:49:27.000Z</time>
      </trkpt>
      <trkpt lat="40.97729" lon="20.27973">
        <ele>781.21002197266</ele>
        <time>2024-09-26T09:49:28.000Z</time>
      </trkpt>
      <trkpt lat="40.97726" lon="20.27967">
        <ele>780.72998046875</ele>
        <time>2024-09-26T09:49:29.000Z</time>
      </trkpt>
      <trkpt lat="40.97724" lon="20.27958">
        <ele>779.77001953125</ele>
        <time>2024-09-26T09:49:30.000Z</time>
      </trkpt>
      <trkpt lat="40.97722" lon="20.27949">
        <ele>779.28997802734</ele>
        <time>2024-09-26T09:49:31.000Z</time>
      </trkpt>
      <trkpt lat="40.97721" lon="20.27939">
        <ele>778.32000732422</ele>
        <time>2024-09-26T09:49:32.000Z</time>
      </trkpt>
      <trkpt lat="40.97719" lon="20.27932">
        <ele>777.84002685547</ele>
        <time>2024-09-26T09:49:33.000Z</time>
      </trkpt>
      <trkpt lat="40.97716" lon="20.27925">
        <ele>777.35998535156</ele>
        <time>2024-09-26T09:49:34.000Z</time>
      </trkpt>
      <trkpt lat="40.97712" lon="20.2792">
        <ele>776.88000488281</ele>
        <time>2024-09-26T09:49:35.000Z</time>
      </trkpt>
      <trkpt lat="40.97706" lon="20.27917">
        <ele>776.40002441406</ele>
        <time>2024-09-26T09:49:36.000Z</time>
      </trkpt>
      <trkpt lat="40.977" lon="20.27915">
        <ele>776.40002441406</ele>
        <time>2024-09-26T09:49:37.000Z</time>
      </trkpt>
      <trkpt lat="40.97688" lon="20.27913">
        <ele>777.35998535156</ele>
        <time>2024-09-26T09:49:39.000Z</time>
      </trkpt>
      <trkpt lat="40.97684" lon="20.27912">
        <ele>777.35998535156</ele>
        <time>2024-09-26T09:49:40.000Z</time>
      </trkpt>
      <trkpt lat="40.9768" lon="20.27911">
        <ele>777.35998535156</ele>
        <time>2024-09-26T09:49:41.000Z</time>
      </trkpt>
      <trkpt lat="40.97676" lon="20.2791">
        <ele>777.35998535156</ele>
        <time>2024-09-26T09:49:42.000Z</time>
      </trkpt>
      <trkpt lat="40.97669" lon="20.27907">
        <ele>777.35998535156</ele>
        <time>2024-09-26T09:49:43.000Z</time>
      </trkpt>
      <trkpt lat="40.97665" lon="20.27906">
        <ele>777.35998535156</ele>
        <time>2024-09-26T09:49:44.000Z</time>
      </trkpt>
      <trkpt lat="40.97661" lon="20.27905">
        <ele>777.84002685547</ele>
        <time>2024-09-26T09:49:45.000Z</time>
      </trkpt>
      <trkpt lat="40.97655" lon="20.27904">
        <ele>777.35998535156</ele>
        <time>2024-09-26T09:49:46.000Z</time>
      </trkpt>
      <trkpt lat="40.97651" lon="20.27902">
        <ele>777.35998535156</ele>
        <time>2024-09-26T09:49:47.000Z</time>
      </trkpt>
      <trkpt lat="40.97646" lon="20.279">
        <ele>777.35998535156</ele>
        <time>2024-09-26T09:49:48.000Z</time>
      </trkpt>
      <trkpt lat="40.97641" lon="20.27897">
        <ele>776.88000488281</ele>
        <time>2024-09-26T09:49:49.000Z</time>
      </trkpt>
      <trkpt lat="40.97635" lon="20.27893">
        <ele>776.40002441406</ele>
        <time>2024-09-26T09:49:50.000Z</time>
      </trkpt>
      <trkpt lat="40.9763" lon="20.2789">
        <ele>776.40002441406</ele>
        <time>2024-09-26T09:49:51.000Z</time>
      </trkpt>
      <trkpt lat="40.97625" lon="20.27886">
        <ele>775.91998291016</ele>
        <time>2024-09-26T09:49:52.000Z</time>
      </trkpt>
      <trkpt lat="40.97617" lon="20.27881">
        <ele>774.96002197266</ele>
        <time>2024-09-26T09:49:53.000Z</time>
      </trkpt>
      <trkpt lat="40.97612" lon="20.27879">
        <ele>774.96002197266</ele>
        <time>2024-09-26T09:49:54.000Z</time>
      </trkpt>
      <trkpt lat="40.97607" lon="20.27875">
        <ele>774.47998046875</ele>
        <time>2024-09-26T09:49:55.000Z</time>
      </trkpt>
      <trkpt lat="40.97602" lon="20.27871">
        <ele>773.52001953125</ele>
        <time>2024-09-26T09:49:56.000Z</time>
      </trkpt>
      <trkpt lat="40.97597" lon="20.27866">
        <ele>773.03997802734</ele>
        <time>2024-09-26T09:49:57.000Z</time>
      </trkpt>
      <trkpt lat="40.97593" lon="20.27859">
        <ele>772.55999755859</ele>
        <time>2024-09-26T09:49:58.000Z</time>
      </trkpt>
      <trkpt lat="40.97588" lon="20.27843">
        <ele>771.10998535156</ele>
        <time>2024-09-26T09:49:59.000Z</time>
      </trkpt>
      <trkpt lat="40.97586" lon="20.27837">
        <ele>770.63000488281</ele>
        <time>2024-09-26T09:50:00.000Z</time>
      </trkpt>
      <trkpt lat="40.97581" lon="20.27819">
        <ele>769.66998291016</ele>
        <time>2024-09-26T09:50:02.000Z</time>
      </trkpt>
      <trkpt lat="40.97579" lon="20.27813">
        <ele>769.19000244141</ele>
        <time>2024-09-26T09:50:03.000Z</time>
      </trkpt>
      <trkpt lat="40.97575" lon="20.27802">
        <ele>768.22998046875</ele>
        <time>2024-09-26T09:50:04.000Z</time>
      </trkpt>
      <trkpt lat="40.9757" lon="20.27794">
        <ele>767.75</ele>
        <time>2024-09-26T09:50:05.000Z</time>
      </trkpt>
      <trkpt lat="40.97564" lon="20.27786">
        <ele>766.78997802734</ele>
        <time>2024-09-26T09:50:06.000Z</time>
      </trkpt>
      <trkpt lat="40.97551" lon="20.27771">
        <ele>765.83001708984</ele>
        <time>2024-09-26T09:50:08.000Z</time>
      </trkpt>
      <trkpt lat="40.97546" lon="20.27765">
        <ele>765.34997558594</ele>
        <time>2024-09-26T09:50:09.000Z</time>
      </trkpt>
      <trkpt lat="40.97539" lon="20.2776">
        <ele>765.34997558594</ele>
        <time>2024-09-26T09:50:10.000Z</time>
      </trkpt>
      <trkpt lat="40.97531" lon="20.27756">
        <ele>765.34997558594</ele>
        <time>2024-09-26T09:50:11.000Z</time>
      </trkpt>
      <trkpt lat="40.97525" lon="20.27753">
        <ele>764.86999511719</ele>
        <time>2024-09-26T09:50:12.000Z</time>
      </trkpt>
      <trkpt lat="40.97519" lon="20.27752">
        <ele>764.86999511719</ele>
        <time>2024-09-26T09:50:13.000Z</time>
      </trkpt>
      <trkpt lat="40.97512" lon="20.27751">
        <ele>764.86999511719</ele>
        <time>2024-09-26T09:50:14.000Z</time>
      </trkpt>
      <trkpt lat="40.97506" lon="20.27751">
        <ele>764.86999511719</ele>
        <time>2024-09-26T09:50:15.000Z</time>
      </trkpt>
      <trkpt lat="40.975" lon="20.27749">
        <ele>764.86999511719</ele>
        <time>2024-09-26T09:50:16.000Z</time>
      </trkpt>
      <trkpt lat="40.97494" lon="20.27747">
        <ele>764.86999511719</ele>
        <time>2024-09-26T09:50:17.000Z</time>
      </trkpt>
      <trkpt lat="40.9748" lon="20.27736">
        <ele>764.86999511719</ele>
        <time>2024-09-26T09:50:19.000Z</time>
      </trkpt>
      <trkpt lat="40.97471" lon="20.2773">
        <ele>764.86999511719</ele>
        <time>2024-09-26T09:50:20.000Z</time>
      </trkpt>
      <trkpt lat="40.97468" lon="20.27728">
        <ele>764.86999511719</ele>
        <time>2024-09-26T09:50:21.000Z</time>
      </trkpt>
      <trkpt lat="40.97463" lon="20.27725">
        <ele>764.86999511719</ele>
        <time>2024-09-26T09:50:22.000Z</time>
      </trkpt>
      <trkpt lat="40.97456" lon="20.27722">
        <ele>764.86999511719</ele>
        <time>2024-09-26T09:50:23.000Z</time>
      </trkpt>
      <trkpt lat="40.97444" lon="20.27717">
        <ele>765.34997558594</ele>
        <time>2024-09-26T09:50:24.000Z</time>
      </trkpt>
      <trkpt lat="40.97443" lon="20.27717">
        <ele>765.34997558594</ele>
        <time>2024-09-26T09:50:25.000Z</time>
      </trkpt>
      <trkpt lat="40.97437" lon="20.27714">
        <ele>765.34997558594</ele>
        <time>2024-09-26T09:50:26.000Z</time>
      </trkpt>
      <trkpt lat="40.97432" lon="20.27709">
        <ele>765.34997558594</ele>
        <time>2024-09-26T09:50:27.000Z</time>
      </trkpt>
      <trkpt lat="40.97427" lon="20.27701">
        <ele>765.34997558594</ele>
        <time>2024-09-26T09:50:28.000Z</time>
      </trkpt>
      <trkpt lat="40.97422" lon="20.27694">
        <ele>764.86999511719</ele>
        <time>2024-09-26T09:50:29.000Z</time>
      </trkpt>
      <trkpt lat="40.97419" lon="20.27687">
        <ele>764.39001464844</ele>
        <time>2024-09-26T09:50:30.000Z</time>
      </trkpt>
      <trkpt lat="40.97415" lon="20.2768">
        <ele>763.90002441406</ele>
        <time>2024-09-26T09:50:31.000Z</time>
      </trkpt>
      <trkpt lat="40.9741" lon="20.27668">
        <ele>762.94000244141</ele>
        <time>2024-09-26T09:50:32.000Z</time>
      </trkpt>
      <trkpt lat="40.97408" lon="20.27659">
        <ele>761.97998046875</ele>
        <time>2024-09-26T09:50:33.000Z</time>
      </trkpt>
      <trkpt lat="40.97406" lon="20.27648">
        <ele>761.02001953125</ele>
        <time>2024-09-26T09:50:34.000Z</time>
      </trkpt>
      <trkpt lat="40.97404" lon="20.27628">
        <ele>760.05999755859</ele>
        <time>2024-09-26T09:50:35.000Z</time>
      </trkpt>
      <trkpt lat="40.97403" lon="20.27624">
        <ele>759.58001708984</ele>
        <time>2024-09-26T09:50:36.000Z</time>
      </trkpt>
      <trkpt lat="40.97401" lon="20.27613">
        <ele>759.09997558594</ele>
        <time>2024-09-26T09:50:37.000Z</time>
      </trkpt>
      <trkpt lat="40.97397" lon="20.27602">
        <ele>758.61999511719</ele>
        <time>2024-09-26T09:50:38.000Z</time>
      </trkpt>
      <trkpt lat="40.97392" lon="20.27593">
        <ele>758.14001464844</ele>
        <time>2024-09-26T09:50:39.000Z</time>
      </trkpt>
      <trkpt lat="40.97386" lon="20.27586">
        <ele>757.65997314453</ele>
        <time>2024-09-26T09:50:40.000Z</time>
      </trkpt>
      <trkpt lat="40.97379" lon="20.27581">
        <ele>757.65997314453</ele>
        <time>2024-09-26T09:50:41.000Z</time>
      </trkpt>
      <trkpt lat="40.97371" lon="20.27579">
        <ele>758.14001464844</ele>
        <time>2024-09-26T09:50:42.000Z</time>
      </trkpt>
      <trkpt lat="40.97364" lon="20.2758">
        <ele>758.14001464844</ele>
        <time>2024-09-26T09:50:43.000Z</time>
      </trkpt>
      <trkpt lat="40.9735" lon="20.27585">
        <ele>758.61999511719</ele>
        <time>2024-09-26T09:50:44.000Z</time>
      </trkpt>
      <trkpt lat="40.97347" lon="20.27585">
        <ele>758.61999511719</ele>
        <time>2024-09-26T09:50:45.000Z</time>
      </trkpt>
      <trkpt lat="40.97339" lon="20.27586">
        <ele>758.61999511719</ele>
        <time>2024-09-26T09:50:46.000Z</time>
      </trkpt>
      <trkpt lat="40.97331" lon="20.27585">
        <ele>759.09997558594</ele>
        <time>2024-09-26T09:50:47.000Z</time>
      </trkpt>
      <trkpt lat="40.97323" lon="20.27581">
        <ele>759.09997558594</ele>
        <time>2024-09-26T09:50:48.000Z</time>
      </trkpt>
      <trkpt lat="40.97291" lon="20.27558">
        <ele>759.58001708984</ele>
        <time>2024-09-26T09:50:51.000Z</time>
      </trkpt>
      <trkpt lat="40.97278" lon="20.27548">
        <ele>760.53997802734</ele>
        <time>2024-09-26T09:50:52.000Z</time>
      </trkpt>
      <trkpt lat="40.97276" lon="20.27547">
        <ele>760.53997802734</ele>
        <time>2024-09-26T09:50:53.000Z</time>
      </trkpt>
      <trkpt lat="40.97267" lon="20.27542">
        <ele>760.53997802734</ele>
        <time>2024-09-26T09:50:54.000Z</time>
      </trkpt>
      <trkpt lat="40.97257" lon="20.27537">
        <ele>761.02001953125</ele>
        <time>2024-09-26T09:50:55.000Z</time>
      </trkpt>
      <trkpt lat="40.97231" lon="20.2753">
        <ele>761.5</ele>
        <time>2024-09-26T09:50:57.000Z</time>
      </trkpt>
      <trkpt lat="40.97228" lon="20.27529">
        <ele>761.97998046875</ele>
        <time>2024-09-26T09:50:58.000Z</time>
      </trkpt>
      <trkpt lat="40.97218" lon="20.27528">
        <ele>761.97998046875</ele>
        <time>2024-09-26T09:50:59.000Z</time>
      </trkpt>
      <trkpt lat="40.97198" lon="20.27527">
        <ele>763.90002441406</ele>
        <time>2024-09-26T09:51:01.000Z</time>
      </trkpt>
      <trkpt lat="40.97191" lon="20.27526">
        <ele>764.86999511719</ele>
        <time>2024-09-26T09:51:02.000Z</time>
      </trkpt>
      <trkpt lat="40.97183" lon="20.27523">
        <ele>765.34997558594</ele>
        <time>2024-09-26T09:51:03.000Z</time>
      </trkpt>
      <trkpt lat="40.97175" lon="20.27518">
        <ele>766.30999755859</ele>
        <time>2024-09-26T09:51:04.000Z</time>
      </trkpt>
      <trkpt lat="40.97155" lon="20.27496">
        <ele>766.78997802734</ele>
        <time>2024-09-26T09:51:06.000Z</time>
      </trkpt>
      <trkpt lat="40.97129" lon="20.27466">
        <ele>767.75</ele>
        <time>2024-09-26T09:51:09.000Z</time>
      </trkpt>
      <trkpt lat="40.97127" lon="20.27465">
        <ele>767.75</ele>
        <time>2024-09-26T09:51:10.000Z</time>
      </trkpt>
      <trkpt lat="40.97113" lon="20.27453">
        <ele>768.22998046875</ele>
        <time>2024-09-26T09:51:11.000Z</time>
      </trkpt>
      <trkpt lat="40.97109" lon="20.27449">
        <ele>768.71002197266</ele>
        <time>2024-09-26T09:51:12.000Z</time>
      </trkpt>
      <trkpt lat="40.97102" lon="20.27442">
        <ele>769.19000244141</ele>
        <time>2024-09-26T09:51:13.000Z</time>
      </trkpt>
      <trkpt lat="40.97098" lon="20.27433">
        <ele>769.66998291016</ele>
        <time>2024-09-26T09:51:14.000Z</time>
      </trkpt>
      <trkpt lat="40.97081" lon="20.27373">
        <ele>767.75</ele>
        <time>2024-09-26T09:51:19.000Z</time>
      </trkpt>
      <trkpt lat="40.97079" lon="20.27362">
        <ele>766.30999755859</ele>
        <time>2024-09-26T09:51:20.000Z</time>
      </trkpt>
      <trkpt lat="40.97075" lon="20.27338">
        <ele>764.86999511719</ele>
        <time>2024-09-26T09:51:21.000Z</time>
      </trkpt>
      <trkpt lat="40.97075" lon="20.27336">
        <ele>764.39001464844</ele>
        <time>2024-09-26T09:51:22.000Z</time>
      </trkpt>
      <trkpt lat="40.97075" lon="20.27323">
        <ele>764.39001464844</ele>
        <time>2024-09-26T09:51:23.000Z</time>
      </trkpt>
      <trkpt lat="40.97075" lon="20.27312">
        <ele>764.39001464844</ele>
        <time>2024-09-26T09:51:24.000Z</time>
      </trkpt>
      <trkpt lat="40.97075" lon="20.27304">
        <ele>764.86999511719</ele>
        <time>2024-09-26T09:51:25.000Z</time>
      </trkpt>
      <trkpt lat="40.97074" lon="20.27295">
        <ele>764.86999511719</ele>
        <time>2024-09-26T09:51:26.000Z</time>
      </trkpt>
      <trkpt lat="40.97075" lon="20.27287">
        <ele>764.86999511719</ele>
        <time>2024-09-26T09:51:27.000Z</time>
      </trkpt>
      <trkpt lat="40.97076" lon="20.27278">
        <ele>764.86999511719</ele>
        <time>2024-09-26T09:51:28.000Z</time>
      </trkpt>
      <trkpt lat="40.97078" lon="20.27272">
        <ele>764.86999511719</ele>
        <time>2024-09-26T09:51:29.000Z</time>
      </trkpt>
      <trkpt lat="40.97083" lon="20.27265">
        <ele>765.34997558594</ele>
        <time>2024-09-26T09:51:30.000Z</time>
      </trkpt>
      <trkpt lat="40.97085" lon="20.27263">
        <ele>765.34997558594</ele>
        <time>2024-09-26T09:51:31.000Z</time>
      </trkpt>
      <trkpt lat="40.97088" lon="20.27258">
        <ele>765.34997558594</ele>
        <time>2024-09-26T09:51:32.000Z</time>
      </trkpt>
      <trkpt lat="40.97092" lon="20.27247">
        <ele>764.39001464844</ele>
        <time>2024-09-26T09:51:33.000Z</time>
      </trkpt>
      <trkpt lat="40.97095" lon="20.27236">
        <ele>763.90002441406</ele>
        <time>2024-09-26T09:51:34.000Z</time>
      </trkpt>
      <trkpt lat="40.97096" lon="20.27235">
        <ele>763.41998291016</ele>
        <time>2024-09-26T09:51:35.000Z</time>
      </trkpt>
      <trkpt lat="40.97099" lon="20.27227">
        <ele>763.41998291016</ele>
        <time>2024-09-26T09:51:36.000Z</time>
      </trkpt>
      <trkpt lat="40.97104" lon="20.2722">
        <ele>762.94000244141</ele>
        <time>2024-09-26T09:51:37.000Z</time>
      </trkpt>
      <trkpt lat="40.97108" lon="20.27215">
        <ele>762.94000244141</ele>
        <time>2024-09-26T09:51:38.000Z</time>
      </trkpt>
      <trkpt lat="40.97112" lon="20.2721">
        <ele>762.94000244141</ele>
        <time>2024-09-26T09:51:39.000Z</time>
      </trkpt>
      <trkpt lat="40.97116" lon="20.27205">
        <ele>762.94000244141</ele>
        <time>2024-09-26T09:51:40.000Z</time>
      </trkpt>
      <trkpt lat="40.97118" lon="20.27201">
        <ele>763.41998291016</ele>
        <time>2024-09-26T09:51:41.000Z</time>
      </trkpt>
      <trkpt lat="40.97137" lon="20.27165">
        <ele>765.83001708984</ele>
        <time>2024-09-26T09:51:50.000Z</time>
      </trkpt>
      <trkpt lat="40.9714" lon="20.2716">
        <ele>766.30999755859</ele>
        <time>2024-09-26T09:51:51.000Z</time>
      </trkpt>
      <trkpt lat="40.97142" lon="20.27155">
        <ele>766.30999755859</ele>
        <time>2024-09-26T09:51:52.000Z</time>
      </trkpt>
      <trkpt lat="40.97143" lon="20.2715">
        <ele>766.78997802734</ele>
        <time>2024-09-26T09:51:53.000Z</time>
      </trkpt>
      <trkpt lat="40.97145" lon="20.27139">
        <ele>765.83001708984</ele>
        <time>2024-09-26T09:51:55.000Z</time>
      </trkpt>
      <trkpt lat="40.97144" lon="20.27129">
        <ele>765.34997558594</ele>
        <time>2024-09-26T09:51:57.000Z</time>
      </trkpt>
      <trkpt lat="40.97143" lon="20.27121">
        <ele>764.86999511719</ele>
        <time>2024-09-26T09:51:58.000Z</time>
      </trkpt>
      <trkpt lat="40.97142" lon="20.27116">
        <ele>764.86999511719</ele>
        <time>2024-09-26T09:51:59.000Z</time>
      </trkpt>
      <trkpt lat="40.97142" lon="20.27112">
        <ele>764.39001464844</ele>
        <time>2024-09-26T09:52:00.000Z</time>
      </trkpt>
      <trkpt lat="40.97141" lon="20.27103">
        <ele>764.39001464844</ele>
        <time>2024-09-26T09:52:01.000Z</time>
      </trkpt>
      <trkpt lat="40.97141" lon="20.27098">
        <ele>763.90002441406</ele>
        <time>2024-09-26T09:52:02.000Z</time>
      </trkpt>
      <trkpt lat="40.9714" lon="20.27091">
        <ele>763.90002441406</ele>
        <time>2024-09-26T09:52:03.000Z</time>
      </trkpt>
      <trkpt lat="40.9714" lon="20.27087">
        <ele>763.90002441406</ele>
        <time>2024-09-26T09:52:04.000Z</time>
      </trkpt>
      <trkpt lat="40.97139" lon="20.27082">
        <ele>763.90002441406</ele>
        <time>2024-09-26T09:52:05.000Z</time>
      </trkpt>
      <trkpt lat="40.9714" lon="20.27062">
        <ele>763.90002441406</ele>
        <time>2024-09-26T09:52:08.000Z</time>
      </trkpt>
      <trkpt lat="40.9714" lon="20.2706">
        <ele>763.90002441406</ele>
        <time>2024-09-26T09:52:09.000Z</time>
      </trkpt>
      <trkpt lat="40.97141" lon="20.27055">
        <ele>763.90002441406</ele>
        <time>2024-09-26T09:52:10.000Z</time>
      </trkpt>
      <trkpt lat="40.97141" lon="20.2705">
        <ele>763.90002441406</ele>
        <time>2024-09-26T09:52:11.000Z</time>
      </trkpt>
      <trkpt lat="40.97143" lon="20.27044">
        <ele>763.90002441406</ele>
        <time>2024-09-26T09:52:12.000Z</time>
      </trkpt>
      <trkpt lat="40.97143" lon="20.2704">
        <ele>763.90002441406</ele>
        <time>2024-09-26T09:52:13.000Z</time>
      </trkpt>
      <trkpt lat="40.97143" lon="20.27033">
        <ele>763.41998291016</ele>
        <time>2024-09-26T09:52:14.000Z</time>
      </trkpt>
      <trkpt lat="40.97143" lon="20.27028">
        <ele>763.41998291016</ele>
        <time>2024-09-26T09:52:15.000Z</time>
      </trkpt>
      <trkpt lat="40.97142" lon="20.27023">
        <ele>762.94000244141</ele>
        <time>2024-09-26T09:52:16.000Z</time>
      </trkpt>
      <trkpt lat="40.97142" lon="20.27016">
        <ele>762.46002197266</ele>
        <time>2024-09-26T09:52:17.000Z</time>
      </trkpt>
      <trkpt lat="40.97141" lon="20.2701">
        <ele>762.46002197266</ele>
        <time>2024-09-26T09:52:18.000Z</time>
      </trkpt>
      <trkpt lat="40.97139" lon="20.27002">
        <ele>762.46002197266</ele>
        <time>2024-09-26T09:52:19.000Z</time>
      </trkpt>
      <trkpt lat="40.97139" lon="20.26996">
        <ele>761.97998046875</ele>
        <time>2024-09-26T09:52:20.000Z</time>
      </trkpt>
      <trkpt lat="40.97138" lon="20.26992">
        <ele>761.97998046875</ele>
        <time>2024-09-26T09:52:21.000Z</time>
      </trkpt>
      <trkpt lat="40.97122" lon="20.26965">
        <ele>761.5</ele>
        <time>2024-09-26T09:52:29.000Z</time>
      </trkpt>
      <trkpt lat="40.97112" lon="20.26959">
        <ele>761.02001953125</ele>
        <time>2024-09-26T09:52:32.000Z</time>
      </trkpt>
      <trkpt lat="40.97107" lon="20.26957">
        <ele>761.02001953125</ele>
        <time>2024-09-26T09:52:33.000Z</time>
      </trkpt>
      <trkpt lat="40.97103" lon="20.26955">
        <ele>761.02001953125</ele>
        <time>2024-09-26T09:52:34.000Z</time>
      </trkpt>
      <trkpt lat="40.97099" lon="20.26953">
        <ele>760.53997802734</ele>
        <time>2024-09-26T09:52:35.000Z</time>
      </trkpt>
      <trkpt lat="40.97092" lon="20.26951">
        <ele>760.53997802734</ele>
        <time>2024-09-26T09:52:36.000Z</time>
      </trkpt>
      <trkpt lat="40.97088" lon="20.26948">
        <ele>760.53997802734</ele>
        <time>2024-09-26T09:52:37.000Z</time>
      </trkpt>
      <trkpt lat="40.97083" lon="20.26944">
        <ele>760.53997802734</ele>
        <time>2024-09-26T09:52:38.000Z</time>
      </trkpt>
      <trkpt lat="40.97078" lon="20.26937">
        <ele>761.02001953125</ele>
        <time>2024-09-26T09:52:39.000Z</time>
      </trkpt>
      <trkpt lat="40.97075" lon="20.26929">
        <ele>761.5</ele>
        <time>2024-09-26T09:52:40.000Z</time>
      </trkpt>
      <trkpt lat="40.97074" lon="20.26921">
        <ele>762.94000244141</ele>
        <time>2024-09-26T09:52:41.000Z</time>
      </trkpt>
      <trkpt lat="40.97072" lon="20.26914">
        <ele>764.39001464844</ele>
        <time>2024-09-26T09:52:42.000Z</time>
      </trkpt>
      <trkpt lat="40.97068" lon="20.26908">
        <ele>765.34997558594</ele>
        <time>2024-09-26T09:52:43.000Z</time>
      </trkpt>
      <trkpt lat="40.97064" lon="20.26904">
        <ele>765.34997558594</ele>
        <time>2024-09-26T09:52:44.000Z</time>
      </trkpt>
      <trkpt lat="40.97058" lon="20.269">
        <ele>765.83001708984</ele>
        <time>2024-09-26T09:52:45.000Z</time>
      </trkpt>
      <trkpt lat="40.9705" lon="20.26896">
        <ele>765.83001708984</ele>
        <time>2024-09-26T09:52:46.000Z</time>
      </trkpt>
      <trkpt lat="40.97044" lon="20.26895">
        <ele>765.83001708984</ele>
        <time>2024-09-26T09:52:47.000Z</time>
      </trkpt>
      <trkpt lat="40.97038" lon="20.26893">
        <ele>765.83001708984</ele>
        <time>2024-09-26T09:52:48.000Z</time>
      </trkpt>
      <trkpt lat="40.97033" lon="20.26892">
        <ele>765.83001708984</ele>
        <time>2024-09-26T09:52:49.000Z</time>
      </trkpt>
      <trkpt lat="40.97028" lon="20.2689">
        <ele>766.30999755859</ele>
        <time>2024-09-26T09:52:50.000Z</time>
      </trkpt>
      <trkpt lat="40.97023" lon="20.26886">
        <ele>766.30999755859</ele>
        <time>2024-09-26T09:52:51.000Z</time>
      </trkpt>
      <trkpt lat="40.97016" lon="20.26877">
        <ele>766.78997802734</ele>
        <time>2024-09-26T09:52:52.000Z</time>
      </trkpt>
      <trkpt lat="40.97014" lon="20.26873">
        <ele>767.27001953125</ele>
        <time>2024-09-26T09:52:53.000Z</time>
      </trkpt>
      <trkpt lat="40.97001" lon="20.26852">
        <ele>769.66998291016</ele>
        <time>2024-09-26T09:52:56.000Z</time>
      </trkpt>
      <trkpt lat="40.96997" lon="20.26846">
        <ele>771.10998535156</ele>
        <time>2024-09-26T09:52:57.000Z</time>
      </trkpt>
      <trkpt lat="40.96992" lon="20.26841">
        <ele>771.59997558594</ele>
        <time>2024-09-26T09:52:58.000Z</time>
      </trkpt>
      <trkpt lat="40.96986" lon="20.26837">
        <ele>772.08001708984</ele>
        <time>2024-09-26T09:52:59.000Z</time>
      </trkpt>
      <trkpt lat="40.96978" lon="20.26833">
        <ele>772.55999755859</ele>
        <time>2024-09-26T09:53:00.000Z</time>
      </trkpt>
      <trkpt lat="40.96973" lon="20.26831">
        <ele>772.55999755859</ele>
        <time>2024-09-26T09:53:01.000Z</time>
      </trkpt>
      <trkpt lat="40.96969" lon="20.26827">
        <ele>772.08001708984</ele>
        <time>2024-09-26T09:53:02.000Z</time>
      </trkpt>
      <trkpt lat="40.96966" lon="20.26822">
        <ele>772.08001708984</ele>
        <time>2024-09-26T09:53:03.000Z</time>
      </trkpt>
      <trkpt lat="40.96964" lon="20.26816">
        <ele>772.08001708984</ele>
        <time>2024-09-26T09:53:04.000Z</time>
      </trkpt>
      <trkpt lat="40.96965" lon="20.26809">
        <ele>771.59997558594</ele>
        <time>2024-09-26T09:53:05.000Z</time>
      </trkpt>
      <trkpt lat="40.96967" lon="20.26801">
        <ele>772.08001708984</ele>
        <time>2024-09-26T09:53:06.000Z</time>
      </trkpt>
      <trkpt lat="40.96972" lon="20.2679">
        <ele>772.55999755859</ele>
        <time>2024-09-26T09:53:07.000Z</time>
      </trkpt>
      <trkpt lat="40.96973" lon="20.26784">
        <ele>773.03997802734</ele>
        <time>2024-09-26T09:53:08.000Z</time>
      </trkpt>
      <trkpt lat="40.96975" lon="20.26775">
        <ele>774</ele>
        <time>2024-09-26T09:53:09.000Z</time>
      </trkpt>
      <trkpt lat="40.96977" lon="20.26766">
        <ele>774.96002197266</ele>
        <time>2024-09-26T09:53:10.000Z</time>
      </trkpt>
      <trkpt lat="40.96979" lon="20.26757">
        <ele>775.44000244141</ele>
        <time>2024-09-26T09:53:11.000Z</time>
      </trkpt>
      <trkpt lat="40.96984" lon="20.26745">
        <ele>775.91998291016</ele>
        <time>2024-09-26T09:53:12.000Z</time>
      </trkpt>
      <trkpt lat="40.96989" lon="20.26735">
        <ele>776.88000488281</ele>
        <time>2024-09-26T09:53:13.000Z</time>
      </trkpt>
      <trkpt lat="40.96991" lon="20.26731">
        <ele>777.35998535156</ele>
        <time>2024-09-26T09:53:14.000Z</time>
      </trkpt>
      <trkpt lat="40.96995" lon="20.26722">
        <ele>778.32000732422</ele>
        <time>2024-09-26T09:53:15.000Z</time>
      </trkpt>
      <trkpt lat="40.96997" lon="20.26714">
        <ele>779.77001953125</ele>
        <time>2024-09-26T09:53:16.000Z</time>
      </trkpt>
      <trkpt lat="40.96999" lon="20.26704">
        <ele>779.77001953125</ele>
        <time>2024-09-26T09:53:17.000Z</time>
      </trkpt>
      <trkpt lat="40.97001" lon="20.26693">
        <ele>780.25</ele>
        <time>2024-09-26T09:53:18.000Z</time>
      </trkpt>
      <trkpt lat="40.97003" lon="20.26684">
        <ele>780.72998046875</ele>
        <time>2024-09-26T09:53:19.000Z</time>
      </trkpt>
      <trkpt lat="40.97005" lon="20.26674">
        <ele>781.21002197266</ele>
        <time>2024-09-26T09:53:20.000Z</time>
      </trkpt>
      <trkpt lat="40.97009" lon="20.26664">
        <ele>782.16998291016</ele>
        <time>2024-09-26T09:53:21.000Z</time>
      </trkpt>
      <trkpt lat="40.97013" lon="20.26651">
        <ele>783.60998535156</ele>
        <time>2024-09-26T09:53:22.000Z</time>
      </trkpt>
      <trkpt lat="40.97015" lon="20.26643">
        <ele>784.57000732422</ele>
        <time>2024-09-26T09:53:23.000Z</time>
      </trkpt>
      <trkpt lat="40.97016" lon="20.26637">
        <ele>785.53002929688</ele>
        <time>2024-09-26T09:53:24.000Z</time>
      </trkpt>
      <trkpt lat="40.97016" lon="20.26628">
        <ele>786.02001953125</ele>
        <time>2024-09-26T09:53:25.000Z</time>
      </trkpt>
      <trkpt lat="40.97016" lon="20.2662">
        <ele>786.02001953125</ele>
        <time>2024-09-26T09:53:26.000Z</time>
      </trkpt>
      <trkpt lat="40.97014" lon="20.26611">
        <ele>786.02001953125</ele>
        <time>2024-09-26T09:53:27.000Z</time>
      </trkpt>
      <trkpt lat="40.97011" lon="20.266">
        <ele>786.5</ele>
        <time>2024-09-26T09:53:28.000Z</time>
      </trkpt>
      <trkpt lat="40.97009" lon="20.26591">
        <ele>786.02001953125</ele>
        <time>2024-09-26T09:53:29.000Z</time>
      </trkpt>
      <trkpt lat="40.97008" lon="20.26581">
        <ele>786.02001953125</ele>
        <time>2024-09-26T09:53:30.000Z</time>
      </trkpt>
      <trkpt lat="40.9701" lon="20.26572">
        <ele>786.5</ele>
        <time>2024-09-26T09:53:31.000Z</time>
      </trkpt>
      <trkpt lat="40.97013" lon="20.26565">
        <ele>786.5</ele>
        <time>2024-09-26T09:53:32.000Z</time>
      </trkpt>
      <trkpt lat="40.97018" lon="20.26553">
        <ele>786.97998046875</ele>
        <time>2024-09-26T09:53:33.000Z</time>
      </trkpt>
      <trkpt lat="40.97022" lon="20.26545">
        <ele>787.46002197266</ele>
        <time>2024-09-26T09:53:34.000Z</time>
      </trkpt>
      <trkpt lat="40.97025" lon="20.26538">
        <ele>787.46002197266</ele>
        <time>2024-09-26T09:53:35.000Z</time>
      </trkpt>
      <trkpt lat="40.97031" lon="20.26524">
        <ele>788.41998291016</ele>
        <time>2024-09-26T09:53:36.000Z</time>
      </trkpt>
      <trkpt lat="40.97034" lon="20.26516">
        <ele>788.90002441406</ele>
        <time>2024-09-26T09:53:37.000Z</time>
      </trkpt>
      <trkpt lat="40.97037" lon="20.26508">
        <ele>789.38000488281</ele>
        <time>2024-09-26T09:53:38.000Z</time>
      </trkpt>
      <trkpt lat="40.9704" lon="20.26501">
        <ele>789.85998535156</ele>
        <time>2024-09-26T09:53:39.000Z</time>
      </trkpt>
      <trkpt lat="40.97044" lon="20.26483">
        <ele>789.85998535156</ele>
        <time>2024-09-26T09:53:41.000Z</time>
      </trkpt>
      <trkpt lat="40.97046" lon="20.26475">
        <ele>790.34002685547</ele>
        <time>2024-09-26T09:53:42.000Z</time>
      </trkpt>
      <trkpt lat="40.97047" lon="20.26465">
        <ele>790.34002685547</ele>
        <time>2024-09-26T09:53:43.000Z</time>
      </trkpt>
      <trkpt lat="40.97048" lon="20.26452">
        <ele>790.34002685547</ele>
        <time>2024-09-26T09:53:44.000Z</time>
      </trkpt>
      <trkpt lat="40.97048" lon="20.26447">
        <ele>790.34002685547</ele>
        <time>2024-09-26T09:53:45.000Z</time>
      </trkpt>
      <trkpt lat="40.97048" lon="20.26439">
        <ele>790.34002685547</ele>
        <time>2024-09-26T09:53:46.000Z</time>
      </trkpt>
      <trkpt lat="40.97048" lon="20.26432">
        <ele>790.34002685547</ele>
        <time>2024-09-26T09:53:47.000Z</time>
      </trkpt>
      <trkpt lat="40.97048" lon="20.26425">
        <ele>790.34002685547</ele>
        <time>2024-09-26T09:53:48.000Z</time>
      </trkpt>
      <trkpt lat="40.97048" lon="20.26419">
        <ele>790.34002685547</ele>
        <time>2024-09-26T09:53:49.000Z</time>
      </trkpt>
      <trkpt lat="40.97036" lon="20.26388">
        <ele>789.85998535156</ele>
        <time>2024-09-26T09:53:57.000Z</time>
      </trkpt>
      <trkpt lat="40.97032" lon="20.26385">
        <ele>789.85998535156</ele>
        <time>2024-09-26T09:53:58.000Z</time>
      </trkpt>
      <trkpt lat="40.97028" lon="20.26383">
        <ele>789.38000488281</ele>
        <time>2024-09-26T09:53:59.000Z</time>
      </trkpt>
      <trkpt lat="40.97023" lon="20.26381">
        <ele>788.90002441406</ele>
        <time>2024-09-26T09:54:00.000Z</time>
      </trkpt>
      <trkpt lat="40.97017" lon="20.26379">
        <ele>788.90002441406</ele>
        <time>2024-09-26T09:54:01.000Z</time>
      </trkpt>
      <trkpt lat="40.97012" lon="20.26379">
        <ele>788.41998291016</ele>
        <time>2024-09-26T09:54:02.000Z</time>
      </trkpt>
      <trkpt lat="40.97008" lon="20.26378">
        <ele>788.41998291016</ele>
        <time>2024-09-26T09:54:03.000Z</time>
      </trkpt>
      <trkpt lat="40.97003" lon="20.26378">
        <ele>788.41998291016</ele>
        <time>2024-09-26T09:54:04.000Z</time>
      </trkpt>
      <trkpt lat="40.96997" lon="20.26377">
        <ele>787.94000244141</ele>
        <time>2024-09-26T09:54:05.000Z</time>
      </trkpt>
      <trkpt lat="40.96992" lon="20.26376">
        <ele>787.46002197266</ele>
        <time>2024-09-26T09:54:06.000Z</time>
      </trkpt>
      <trkpt lat="40.96986" lon="20.26374">
        <ele>786.97998046875</ele>
        <time>2024-09-26T09:54:07.000Z</time>
      </trkpt>
      <trkpt lat="40.9698" lon="20.26371">
        <ele>786.5</ele>
        <time>2024-09-26T09:54:08.000Z</time>
      </trkpt>
      <trkpt lat="40.96975" lon="20.26368">
        <ele>786.02001953125</ele>
        <time>2024-09-26T09:54:09.000Z</time>
      </trkpt>
      <trkpt lat="40.96967" lon="20.26363">
        <ele>785.04998779297</ele>
        <time>2024-09-26T09:54:10.000Z</time>
      </trkpt>
      <trkpt lat="40.96963" lon="20.2636">
        <ele>784.57000732422</ele>
        <time>2024-09-26T09:54:11.000Z</time>
      </trkpt>
      <trkpt lat="40.96957" lon="20.26355">
        <ele>784.09002685547</ele>
        <time>2024-09-26T09:54:12.000Z</time>
      </trkpt>
      <trkpt lat="40.96952" lon="20.26351">
        <ele>783.60998535156</ele>
        <time>2024-09-26T09:54:13.000Z</time>
      </trkpt>
      <trkpt lat="40.9695" lon="20.26349">
        <ele>783.60998535156</ele>
        <time>2024-09-26T09:54:14.000Z</time>
      </trkpt>
      <trkpt lat="40.96946" lon="20.26345">
        <ele>782.65002441406</ele>
        <time>2024-09-26T09:54:21.000Z</time>
      </trkpt>
      <trkpt lat="40.96947" lon="20.26343">
        <ele>779.77001953125</ele>
        <time>2024-09-26T09:54:31.000Z</time>
      </trkpt>
      <trkpt lat="40.96944" lon="20.26339">
        <ele>779.77001953125</ele>
        <time>2024-09-26T09:54:32.000Z</time>
      </trkpt>
      <trkpt lat="40.9694" lon="20.26334">
        <ele>779.77001953125</ele>
        <time>2024-09-26T09:54:33.000Z</time>
      </trkpt>
      <trkpt lat="40.96936" lon="20.2633">
        <ele>779.77001953125</ele>
        <time>2024-09-26T09:54:34.000Z</time>
      </trkpt>
      <trkpt lat="40.96931" lon="20.26323">
        <ele>779.28997802734</ele>
        <time>2024-09-26T09:54:35.000Z</time>
      </trkpt>
      <trkpt lat="40.96928" lon="20.2632">
        <ele>779.28997802734</ele>
        <time>2024-09-26T09:54:36.000Z</time>
      </trkpt>
      <trkpt lat="40.96923" lon="20.26316">
        <ele>779.28997802734</ele>
        <time>2024-09-26T09:54:37.000Z</time>
      </trkpt>
      <trkpt lat="40.96917" lon="20.26312">
        <ele>779.28997802734</ele>
        <time>2024-09-26T09:54:38.000Z</time>
      </trkpt>
      <trkpt lat="40.96912" lon="20.2631">
        <ele>779.28997802734</ele>
        <time>2024-09-26T09:54:39.000Z</time>
      </trkpt>
      <trkpt lat="40.96907" lon="20.2631">
        <ele>779.77001953125</ele>
        <time>2024-09-26T09:54:40.000Z</time>
      </trkpt>
      <trkpt lat="40.96901" lon="20.26311">
        <ele>780.25</ele>
        <time>2024-09-26T09:54:41.000Z</time>
      </trkpt>
      <trkpt lat="40.96895" lon="20.26314">
        <ele>780.25</ele>
        <time>2024-09-26T09:54:42.000Z</time>
      </trkpt>
      <trkpt lat="40.96889" lon="20.26318">
        <ele>780.72998046875</ele>
        <time>2024-09-26T09:54:43.000Z</time>
      </trkpt>
      <trkpt lat="40.96883" lon="20.26323">
        <ele>780.72998046875</ele>
        <time>2024-09-26T09:54:44.000Z</time>
      </trkpt>
      <trkpt lat="40.96875" lon="20.2633">
        <ele>781.21002197266</ele>
        <time>2024-09-26T09:54:45.000Z</time>
      </trkpt>
      <trkpt lat="40.9687" lon="20.26335">
        <ele>781.69000244141</ele>
        <time>2024-09-26T09:54:46.000Z</time>
      </trkpt>
      <trkpt lat="40.96863" lon="20.2634">
        <ele>782.16998291016</ele>
        <time>2024-09-26T09:54:47.000Z</time>
      </trkpt>
      <trkpt lat="40.96854" lon="20.26343">
        <ele>782.16998291016</ele>
        <time>2024-09-26T09:54:48.000Z</time>
      </trkpt>
      <trkpt lat="40.96835" lon="20.26347">
        <ele>782.65002441406</ele>
        <time>2024-09-26T09:54:50.000Z</time>
      </trkpt>
      <trkpt lat="40.96824" lon="20.26349">
        <ele>783.60998535156</ele>
        <time>2024-09-26T09:54:51.000Z</time>
      </trkpt>
      <trkpt lat="40.96821" lon="20.2635">
        <ele>784.09002685547</ele>
        <time>2024-09-26T09:54:52.000Z</time>
      </trkpt>
      <trkpt lat="40.96809" lon="20.26351">
        <ele>785.04998779297</ele>
        <time>2024-09-26T09:54:53.000Z</time>
      </trkpt>
      <trkpt lat="40.96802" lon="20.26351">
        <ele>785.53002929688</ele>
        <time>2024-09-26T09:54:54.000Z</time>
      </trkpt>
      <trkpt lat="40.96796" lon="20.26352">
        <ele>786.02001953125</ele>
        <time>2024-09-26T09:54:55.000Z</time>
      </trkpt>
      <trkpt lat="40.9679" lon="20.26352">
        <ele>786.5</ele>
        <time>2024-09-26T09:54:56.000Z</time>
      </trkpt>
      <trkpt lat="40.96781" lon="20.2635">
        <ele>786.97998046875</ele>
        <time>2024-09-26T09:54:57.000Z</time>
      </trkpt>
      <trkpt lat="40.96773" lon="20.26348">
        <ele>786.97998046875</ele>
        <time>2024-09-26T09:54:58.000Z</time>
      </trkpt>
      <trkpt lat="40.96764" lon="20.26344">
        <ele>787.46002197266</ele>
        <time>2024-09-26T09:54:59.000Z</time>
      </trkpt>
      <trkpt lat="40.96756" lon="20.26339">
        <ele>787.46002197266</ele>
        <time>2024-09-26T09:55:00.000Z</time>
      </trkpt>
      <trkpt lat="40.96747" lon="20.26332">
        <ele>787.46002197266</ele>
        <time>2024-09-26T09:55:01.000Z</time>
      </trkpt>
      <trkpt lat="40.96738" lon="20.26325">
        <ele>787.46002197266</ele>
        <time>2024-09-26T09:55:02.000Z</time>
      </trkpt>
      <trkpt lat="40.9673" lon="20.2632">
        <ele>787.46002197266</ele>
        <time>2024-09-26T09:55:03.000Z</time>
      </trkpt>
      <trkpt lat="40.96723" lon="20.26313">
        <ele>787.46002197266</ele>
        <time>2024-09-26T09:55:04.000Z</time>
      </trkpt>
      <trkpt lat="40.96713" lon="20.26304">
        <ele>787.94000244141</ele>
        <time>2024-09-26T09:55:05.000Z</time>
      </trkpt>
      <trkpt lat="40.96706" lon="20.26298">
        <ele>788.41998291016</ele>
        <time>2024-09-26T09:55:06.000Z</time>
      </trkpt>
      <trkpt lat="40.967" lon="20.26294">
        <ele>788.41998291016</ele>
        <time>2024-09-26T09:55:07.000Z</time>
      </trkpt>
      <trkpt lat="40.9669" lon="20.26287">
        <ele>788.90002441406</ele>
        <time>2024-09-26T09:55:08.000Z</time>
      </trkpt>
      <trkpt lat="40.96686" lon="20.26284">
        <ele>788.90002441406</ele>
        <time>2024-09-26T09:55:09.000Z</time>
      </trkpt>
      <trkpt lat="40.96677" lon="20.26281">
        <ele>788.90002441406</ele>
        <time>2024-09-26T09:55:10.000Z</time>
      </trkpt>
      <trkpt lat="40.9667" lon="20.2628">
        <ele>789.85998535156</ele>
        <time>2024-09-26T09:55:11.000Z</time>
      </trkpt>
      <trkpt lat="40.96664" lon="20.2628">
        <ele>790.34002685547</ele>
        <time>2024-09-26T09:55:12.000Z</time>
      </trkpt>
      <trkpt lat="40.96657" lon="20.26281">
        <ele>790.82000732422</ele>
        <time>2024-09-26T09:55:13.000Z</time>
      </trkpt>
      <trkpt lat="40.96647" lon="20.26284">
        <ele>791.78002929688</ele>
        <time>2024-09-26T09:55:14.000Z</time>
      </trkpt>
      <trkpt lat="40.96644" lon="20.26285">
        <ele>791.78002929688</ele>
        <time>2024-09-26T09:55:15.000Z</time>
      </trkpt>
      <trkpt lat="40.96637" lon="20.26286">
        <ele>791.78002929688</ele>
        <time>2024-09-26T09:55:16.000Z</time>
      </trkpt>
      <trkpt lat="40.9663" lon="20.26285">
        <ele>791.29998779297</ele>
        <time>2024-09-26T09:55:17.000Z</time>
      </trkpt>
      <trkpt lat="40.96617" lon="20.26281">
        <ele>789.85998535156</ele>
        <time>2024-09-26T09:55:18.000Z</time>
      </trkpt>
      <trkpt lat="40.96614" lon="20.2628">
        <ele>789.38000488281</ele>
        <time>2024-09-26T09:55:19.000Z</time>
      </trkpt>
      <trkpt lat="40.96608" lon="20.26277">
        <ele>788.41998291016</ele>
        <time>2024-09-26T09:55:20.000Z</time>
      </trkpt>
      <trkpt lat="40.96601" lon="20.26271">
        <ele>787.94000244141</ele>
        <time>2024-09-26T09:55:21.000Z</time>
      </trkpt>
      <trkpt lat="40.96596" lon="20.26264">
        <ele>787.46002197266</ele>
        <time>2024-09-26T09:55:22.000Z</time>
      </trkpt>
      <trkpt lat="40.96591" lon="20.26255">
        <ele>786.97998046875</ele>
        <time>2024-09-26T09:55:23.000Z</time>
      </trkpt>
      <trkpt lat="40.96585" lon="20.26248">
        <ele>787.46002197266</ele>
        <time>2024-09-26T09:55:24.000Z</time>
      </trkpt>
      <trkpt lat="40.96577" lon="20.26242">
        <ele>787.94000244141</ele>
        <time>2024-09-26T09:55:25.000Z</time>
      </trkpt>
      <trkpt lat="40.96569" lon="20.26238">
        <ele>788.41998291016</ele>
        <time>2024-09-26T09:55:26.000Z</time>
      </trkpt>
      <trkpt lat="40.9656" lon="20.26236">
        <ele>789.38000488281</ele>
        <time>2024-09-26T09:55:27.000Z</time>
      </trkpt>
      <trkpt lat="40.96549" lon="20.26236">
        <ele>789.85998535156</ele>
        <time>2024-09-26T09:55:28.000Z</time>
      </trkpt>
      <trkpt lat="40.96541" lon="20.26236">
        <ele>790.34002685547</ele>
        <time>2024-09-26T09:55:29.000Z</time>
      </trkpt>
      <trkpt lat="40.96535" lon="20.26236">
        <ele>791.29998779297</ele>
        <time>2024-09-26T09:55:30.000Z</time>
      </trkpt>
      <trkpt lat="40.96529" lon="20.26233">
        <ele>791.78002929688</ele>
        <time>2024-09-26T09:55:31.000Z</time>
      </trkpt>
      <trkpt lat="40.96523" lon="20.26228">
        <ele>792.26000976562</ele>
        <time>2024-09-26T09:55:32.000Z</time>
      </trkpt>
      <trkpt lat="40.96514" lon="20.26218">
        <ele>793.21997070312</ele>
        <time>2024-09-26T09:55:33.000Z</time>
      </trkpt>
      <trkpt lat="40.96511" lon="20.26214">
        <ele>793.71002197266</ele>
        <time>2024-09-26T09:55:34.000Z</time>
      </trkpt>
      <trkpt lat="40.96504" lon="20.26209">
        <ele>795.15002441406</ele>
        <time>2024-09-26T09:55:35.000Z</time>
      </trkpt>
      <trkpt lat="40.96497" lon="20.26206">
        <ele>796.10998535156</ele>
        <time>2024-09-26T09:55:36.000Z</time>
      </trkpt>
      <trkpt lat="40.96491" lon="20.26204">
        <ele>797.07000732422</ele>
        <time>2024-09-26T09:55:37.000Z</time>
      </trkpt>
      <trkpt lat="40.96484" lon="20.26203">
        <ele>798.98999023438</ele>
        <time>2024-09-26T09:55:38.000Z</time>
      </trkpt>
      <trkpt lat="40.96478" lon="20.26201">
        <ele>799.95001220703</ele>
        <time>2024-09-26T09:55:39.000Z</time>
      </trkpt>
      <trkpt lat="40.96473" lon="20.26197">
        <ele>800.91998291016</ele>
        <time>2024-09-26T09:55:40.000Z</time>
      </trkpt>
      <trkpt lat="40.96467" lon="20.26189">
        <ele>801.40002441406</ele>
        <time>2024-09-26T09:55:41.000Z</time>
      </trkpt>
      <trkpt lat="40.9646" lon="20.26179">
        <ele>802.84002685547</ele>
        <time>2024-09-26T09:55:42.000Z</time>
      </trkpt>
      <trkpt lat="40.96456" lon="20.26175">
        <ele>803.79998779297</ele>
        <time>2024-09-26T09:55:43.000Z</time>
      </trkpt>
      <trkpt lat="40.9645" lon="20.26169">
        <ele>805.23999023438</ele>
        <time>2024-09-26T09:55:44.000Z</time>
      </trkpt>
      <trkpt lat="40.96444" lon="20.26164">
        <ele>806.20001220703</ele>
        <time>2024-09-26T09:55:45.000Z</time>
      </trkpt>
      <trkpt lat="40.96436" lon="20.26159">
        <ele>806.67999267578</ele>
        <time>2024-09-26T09:55:46.000Z</time>
      </trkpt>
      <trkpt lat="40.96427" lon="20.26156">
        <ele>807.64001464844</ele>
        <time>2024-09-26T09:55:47.000Z</time>
      </trkpt>
      <trkpt lat="40.96417" lon="20.26152">
        <ele>808.13000488281</ele>
        <time>2024-09-26T09:55:48.000Z</time>
      </trkpt>
      <trkpt lat="40.96409" lon="20.26146">
        <ele>809.09002685547</ele>
        <time>2024-09-26T09:55:49.000Z</time>
      </trkpt>
      <trkpt lat="40.96396" lon="20.26135">
        <ele>811.01000976562</ele>
        <time>2024-09-26T09:55:50.000Z</time>
      </trkpt>
      <trkpt lat="40.96395" lon="20.26134">
        <ele>811.01000976562</ele>
        <time>2024-09-26T09:55:51.000Z</time>
      </trkpt>
      <trkpt lat="40.96389" lon="20.2613">
        <ele>811.96997070312</ele>
        <time>2024-09-26T09:55:52.000Z</time>
      </trkpt>
      <trkpt lat="40.96382" lon="20.26129">
        <ele>812.45001220703</ele>
        <time>2024-09-26T09:55:53.000Z</time>
      </trkpt>
      <trkpt lat="40.96309" lon="20.26134">
        <ele>821.09997558594</ele>
        <time>2024-09-26T09:56:01.000Z</time>
      </trkpt>
      <trkpt lat="40.96301" lon="20.26134">
        <ele>822.05999755859</ele>
        <time>2024-09-26T09:56:02.000Z</time>
      </trkpt>
      <trkpt lat="40.96296" lon="20.26133">
        <ele>822.54998779297</ele>
        <time>2024-09-26T09:56:03.000Z</time>
      </trkpt>
      <trkpt lat="40.9629" lon="20.2613">
        <ele>822.54998779297</ele>
        <time>2024-09-26T09:56:04.000Z</time>
      </trkpt>
      <trkpt lat="40.96285" lon="20.26126">
        <ele>822.05999755859</ele>
        <time>2024-09-26T09:56:05.000Z</time>
      </trkpt>
      <trkpt lat="40.96281" lon="20.26121">
        <ele>822.05999755859</ele>
        <time>2024-09-26T09:56:06.000Z</time>
      </trkpt>
      <trkpt lat="40.96279" lon="20.26114">
        <ele>821.09997558594</ele>
        <time>2024-09-26T09:56:07.000Z</time>
      </trkpt>
      <trkpt lat="40.96278" lon="20.26107">
        <ele>820.14001464844</ele>
        <time>2024-09-26T09:56:08.000Z</time>
      </trkpt>
      <trkpt lat="40.96277" lon="20.26089">
        <ele>817.73999023438</ele>
        <time>2024-09-26T09:56:10.000Z</time>
      </trkpt>
      <trkpt lat="40.96275" lon="20.26077">
        <ele>815.82000732422</ele>
        <time>2024-09-26T09:56:11.000Z</time>
      </trkpt>
      <trkpt lat="40.96273" lon="20.2607">
        <ele>814.84997558594</ele>
        <time>2024-09-26T09:56:12.000Z</time>
      </trkpt>
      <trkpt lat="40.96269" lon="20.26062">
        <ele>813.89001464844</ele>
        <time>2024-09-26T09:56:13.000Z</time>
      </trkpt>
      <trkpt lat="40.96263" lon="20.26055">
        <ele>812.92999267578</ele>
        <time>2024-09-26T09:56:14.000Z</time>
      </trkpt>
      <trkpt lat="40.96255" lon="20.2605">
        <ele>811.96997070312</ele>
        <time>2024-09-26T09:56:15.000Z</time>
      </trkpt>
      <trkpt lat="40.96242" lon="20.26044">
        <ele>811.01000976562</ele>
        <time>2024-09-26T09:56:16.000Z</time>
      </trkpt>
      <trkpt lat="40.96237" lon="20.2604">
        <ele>811.01000976562</ele>
        <time>2024-09-26T09:56:17.000Z</time>
      </trkpt>
      <trkpt lat="40.96202" lon="20.26015">
        <ele>811.01000976562</ele>
        <time>2024-09-26T09:56:20.000Z</time>
      </trkpt>
      <trkpt lat="40.96201" lon="20.26014">
        <ele>811.01000976562</ele>
        <time>2024-09-26T09:56:21.000Z</time>
      </trkpt>
      <trkpt lat="40.96192" lon="20.26009">
        <ele>811.48999023438</ele>
        <time>2024-09-26T09:56:22.000Z</time>
      </trkpt>
      <trkpt lat="40.96183" lon="20.26006">
        <ele>811.96997070312</ele>
        <time>2024-09-26T09:56:23.000Z</time>
      </trkpt>
      <trkpt lat="40.96173" lon="20.26005">
        <ele>812.45001220703</ele>
        <time>2024-09-26T09:56:24.000Z</time>
      </trkpt>
      <trkpt lat="40.96157" lon="20.26005">
        <ele>812.92999267578</ele>
        <time>2024-09-26T09:56:25.000Z</time>
      </trkpt>
      <trkpt lat="40.96155" lon="20.26005">
        <ele>812.92999267578</ele>
        <time>2024-09-26T09:56:26.000Z</time>
      </trkpt>
      <trkpt lat="40.96147" lon="20.26004">
        <ele>812.92999267578</ele>
        <time>2024-09-26T09:56:27.000Z</time>
      </trkpt>
      <trkpt lat="40.96136" lon="20.26">
        <ele>812.92999267578</ele>
        <time>2024-09-26T09:56:28.000Z</time>
      </trkpt>
      <trkpt lat="40.96118" lon="20.25992">
        <ele>813.89001464844</ele>
        <time>2024-09-26T09:56:30.000Z</time>
      </trkpt>
      <trkpt lat="40.96111" lon="20.25987">
        <ele>813.89001464844</ele>
        <time>2024-09-26T09:56:31.000Z</time>
      </trkpt>
      <trkpt lat="40.96097" lon="20.25975">
        <ele>813.89001464844</ele>
        <time>2024-09-26T09:56:33.000Z</time>
      </trkpt>
      <trkpt lat="40.9609" lon="20.25967">
        <ele>814.36999511719</ele>
        <time>2024-09-26T09:56:34.000Z</time>
      </trkpt>
      <trkpt lat="40.96084" lon="20.25958">
        <ele>814.36999511719</ele>
        <time>2024-09-26T09:56:35.000Z</time>
      </trkpt>
      <trkpt lat="40.96079" lon="20.25948">
        <ele>814.84997558594</ele>
        <time>2024-09-26T09:56:36.000Z</time>
      </trkpt>
      <trkpt lat="40.96074" lon="20.25938">
        <ele>815.34002685547</ele>
        <time>2024-09-26T09:56:37.000Z</time>
      </trkpt>
      <trkpt lat="40.96063" lon="20.25917">
        <ele>816.78002929688</ele>
        <time>2024-09-26T09:56:39.000Z</time>
      </trkpt>
      <trkpt lat="40.96055" lon="20.259">
        <ele>817.73999023438</ele>
        <time>2024-09-26T09:56:41.000Z</time>
      </trkpt>
      <trkpt lat="40.96049" lon="20.25885">
        <ele>818.70001220703</ele>
        <time>2024-09-26T09:56:43.000Z</time>
      </trkpt>
      <trkpt lat="40.96046" lon="20.25876">
        <ele>819.65997314453</ele>
        <time>2024-09-26T09:56:44.000Z</time>
      </trkpt>
      <trkpt lat="40.96041" lon="20.25855">
        <ele>819.65997314453</ele>
        <time>2024-09-26T09:56:46.000Z</time>
      </trkpt>
      <trkpt lat="40.96037" lon="20.25845">
        <ele>819.17999267578</ele>
        <time>2024-09-26T09:56:47.000Z</time>
      </trkpt>
      <trkpt lat="40.96032" lon="20.25832">
        <ele>818.21997070312</ele>
        <time>2024-09-26T09:56:48.000Z</time>
      </trkpt>
      <trkpt lat="40.96025" lon="20.2582">
        <ele>817.26000976562</ele>
        <time>2024-09-26T09:56:49.000Z</time>
      </trkpt>
      <trkpt lat="40.96019" lon="20.25809">
        <ele>816.29998779297</ele>
        <time>2024-09-26T09:56:50.000Z</time>
      </trkpt>
      <trkpt lat="40.96014" lon="20.25801">
        <ele>815.82000732422</ele>
        <time>2024-09-26T09:56:51.000Z</time>
      </trkpt>
      <trkpt lat="40.96006" lon="20.2579">
        <ele>814.84997558594</ele>
        <time>2024-09-26T09:56:52.000Z</time>
      </trkpt>
      <trkpt lat="40.96" lon="20.25781">
        <ele>814.36999511719</ele>
        <time>2024-09-26T09:56:54.000Z</time>
      </trkpt>
      <trkpt lat="40.95994" lon="20.25774">
        <ele>813.40997314453</ele>
        <time>2024-09-26T09:56:55.000Z</time>
      </trkpt>
      <trkpt lat="40.95986" lon="20.25766">
        <ele>811.48999023438</ele>
        <time>2024-09-26T09:56:56.000Z</time>
      </trkpt>
      <trkpt lat="40.9598" lon="20.25758">
        <ele>810.04998779297</ele>
        <time>2024-09-26T09:56:57.000Z</time>
      </trkpt>
      <trkpt lat="40.95975" lon="20.2575">
        <ele>808.60998535156</ele>
        <time>2024-09-26T09:56:58.000Z</time>
      </trkpt>
      <trkpt lat="40.95969" lon="20.25741">
        <ele>807.64001464844</ele>
        <time>2024-09-26T09:56:59.000Z</time>
      </trkpt>
      <trkpt lat="40.95963" lon="20.25733">
        <ele>806.67999267578</ele>
        <time>2024-09-26T09:57:00.000Z</time>
      </trkpt>
      <trkpt lat="40.95953" lon="20.2572">
        <ele>805.23999023438</ele>
        <time>2024-09-26T09:57:01.000Z</time>
      </trkpt>
      <trkpt lat="40.95948" lon="20.25715">
        <ele>804.76000976562</ele>
        <time>2024-09-26T09:57:02.000Z</time>
      </trkpt>
      <trkpt lat="40.95944" lon="20.25711">
        <ele>804.28002929688</ele>
        <time>2024-09-26T09:57:03.000Z</time>
      </trkpt>
      <trkpt lat="40.95938" lon="20.25706">
        <ele>803.79998779297</ele>
        <time>2024-09-26T09:57:04.000Z</time>
      </trkpt>
      <trkpt lat="40.95931" lon="20.25703">
        <ele>803.79998779297</ele>
        <time>2024-09-26T09:57:05.000Z</time>
      </trkpt>
      <trkpt lat="40.95924" lon="20.25703">
        <ele>803.32000732422</ele>
        <time>2024-09-26T09:57:06.000Z</time>
      </trkpt>
      <trkpt lat="40.95917" lon="20.25704">
        <ele>802.84002685547</ele>
        <time>2024-09-26T09:57:07.000Z</time>
      </trkpt>
      <trkpt lat="40.95899" lon="20.25709">
        <ele>801.40002441406</ele>
        <time>2024-09-26T09:57:09.000Z</time>
      </trkpt>
      <trkpt lat="40.95889" lon="20.25711">
        <ele>800.91998291016</ele>
        <time>2024-09-26T09:57:10.000Z</time>
      </trkpt>
      <trkpt lat="40.95883" lon="20.25712">
        <ele>799.95001220703</ele>
        <time>2024-09-26T09:57:11.000Z</time>
      </trkpt>
      <trkpt lat="40.95874" lon="20.25713">
        <ele>798.98999023438</ele>
        <time>2024-09-26T09:57:12.000Z</time>
      </trkpt>
      <trkpt lat="40.95864" lon="20.25713">
        <ele>798.03002929688</ele>
        <time>2024-09-26T09:57:13.000Z</time>
      </trkpt>
      <trkpt lat="40.95856" lon="20.25712">
        <ele>797.07000732422</ele>
        <time>2024-09-26T09:57:14.000Z</time>
      </trkpt>
      <trkpt lat="40.95837" lon="20.25712">
        <ele>794.19000244141</ele>
        <time>2024-09-26T09:57:16.000Z</time>
      </trkpt>
      <trkpt lat="40.95831" lon="20.25712">
        <ele>793.21997070312</ele>
        <time>2024-09-26T09:57:17.000Z</time>
      </trkpt>
      <trkpt lat="40.95823" lon="20.25714">
        <ele>792.26000976562</ele>
        <time>2024-09-26T09:57:18.000Z</time>
      </trkpt>
      <trkpt lat="40.95816" lon="20.25717">
        <ele>791.29998779297</ele>
        <time>2024-09-26T09:57:19.000Z</time>
      </trkpt>
      <trkpt lat="40.95808" lon="20.25722">
        <ele>790.34002685547</ele>
        <time>2024-09-26T09:57:20.000Z</time>
      </trkpt>
      <trkpt lat="40.95801" lon="20.25727">
        <ele>789.38000488281</ele>
        <time>2024-09-26T09:57:21.000Z</time>
      </trkpt>
      <trkpt lat="40.95782" lon="20.25739">
        <ele>786.97998046875</ele>
        <time>2024-09-26T09:57:24.000Z</time>
      </trkpt>
      <trkpt lat="40.95771" lon="20.25745">
        <ele>785.53002929688</ele>
        <time>2024-09-26T09:57:25.000Z</time>
      </trkpt>
      <trkpt lat="40.95768" lon="20.25747">
        <ele>785.04998779297</ele>
        <time>2024-09-26T09:57:26.000Z</time>
      </trkpt>
      <trkpt lat="40.95763" lon="20.25749">
        <ele>784.09002685547</ele>
        <time>2024-09-26T09:57:27.000Z</time>
      </trkpt>
      <trkpt lat="40.95758" lon="20.25748">
        <ele>783.60998535156</ele>
        <time>2024-09-26T09:57:28.000Z</time>
      </trkpt>
      <trkpt lat="40.95753" lon="20.25746">
        <ele>783.13000488281</ele>
        <time>2024-09-26T09:57:29.000Z</time>
      </trkpt>
      <trkpt lat="40.95749" lon="20.25741">
        <ele>782.16998291016</ele>
        <time>2024-09-26T09:57:30.000Z</time>
      </trkpt>
      <trkpt lat="40.95744" lon="20.25734">
        <ele>780.72998046875</ele>
        <time>2024-09-26T09:57:31.000Z</time>
      </trkpt>
      <trkpt lat="40.95739" lon="20.25726">
        <ele>779.77001953125</ele>
        <time>2024-09-26T09:57:32.000Z</time>
      </trkpt>
      <trkpt lat="40.95735" lon="20.2572">
        <ele>778.80999755859</ele>
        <time>2024-09-26T09:57:33.000Z</time>
      </trkpt>
      <trkpt lat="40.95731" lon="20.25705">
        <ele>777.84002685547</ele>
        <time>2024-09-26T09:57:34.000Z</time>
      </trkpt>
      <trkpt lat="40.9573" lon="20.25702">
        <ele>777.35998535156</ele>
        <time>2024-09-26T09:57:35.000Z</time>
      </trkpt>
      <trkpt lat="40.95726" lon="20.25694">
        <ele>776.40002441406</ele>
        <time>2024-09-26T09:57:36.000Z</time>
      </trkpt>
      <trkpt lat="40.95722" lon="20.25686">
        <ele>775.44000244141</ele>
        <time>2024-09-26T09:57:37.000Z</time>
      </trkpt>
      <trkpt lat="40.95717" lon="20.25678">
        <ele>774.96002197266</ele>
        <time>2024-09-26T09:57:38.000Z</time>
      </trkpt>
      <trkpt lat="40.95712" lon="20.25673">
        <ele>774.47998046875</ele>
        <time>2024-09-26T09:57:39.000Z</time>
      </trkpt>
      <trkpt lat="40.95708" lon="20.25671">
        <ele>774.47998046875</ele>
        <time>2024-09-26T09:57:40.000Z</time>
      </trkpt>
      <trkpt lat="40.95703" lon="20.25671">
        <ele>774</ele>
        <time>2024-09-26T09:57:41.000Z</time>
      </trkpt>
      <trkpt lat="40.95698" lon="20.25673">
        <ele>773.52001953125</ele>
        <time>2024-09-26T09:57:42.000Z</time>
      </trkpt>
      <trkpt lat="40.95692" lon="20.25678">
        <ele>772.55999755859</ele>
        <time>2024-09-26T09:57:43.000Z</time>
      </trkpt>
      <trkpt lat="40.95686" lon="20.25682">
        <ele>771.59997558594</ele>
        <time>2024-09-26T09:57:44.000Z</time>
      </trkpt>
      <trkpt lat="40.9568" lon="20.25688">
        <ele>771.10998535156</ele>
        <time>2024-09-26T09:57:45.000Z</time>
      </trkpt>
      <trkpt lat="40.95675" lon="20.25694">
        <ele>770.63000488281</ele>
        <time>2024-09-26T09:57:46.000Z</time>
      </trkpt>
      <trkpt lat="40.9567" lon="20.257">
        <ele>769.66998291016</ele>
        <time>2024-09-26T09:57:47.000Z</time>
      </trkpt>
      <trkpt lat="40.95665" lon="20.25703">
        <ele>769.19000244141</ele>
        <time>2024-09-26T09:57:48.000Z</time>
      </trkpt>
      <trkpt lat="40.95659" lon="20.25703">
        <ele>768.22998046875</ele>
        <time>2024-09-26T09:57:49.000Z</time>
      </trkpt>
      <trkpt lat="40.95655" lon="20.25701">
        <ele>768.22998046875</ele>
        <time>2024-09-26T09:57:50.000Z</time>
      </trkpt>
      <trkpt lat="40.9565" lon="20.25695">
        <ele>768.22998046875</ele>
        <time>2024-09-26T09:57:51.000Z</time>
      </trkpt>
      <trkpt lat="40.95649" lon="20.25693">
        <ele>768.22998046875</ele>
        <time>2024-09-26T09:57:52.000Z</time>
      </trkpt>
      <trkpt lat="40.95642" lon="20.25686">
        <ele>768.22998046875</ele>
        <time>2024-09-26T09:57:53.000Z</time>
      </trkpt>
      <trkpt lat="40.95637" lon="20.25681">
        <ele>768.71002197266</ele>
        <time>2024-09-26T09:57:54.000Z</time>
      </trkpt>
      <trkpt lat="40.95635" lon="20.25679">
        <ele>768.71002197266</ele>
        <time>2024-09-26T09:57:55.000Z</time>
      </trkpt>
      <trkpt lat="40.95629" lon="20.25673">
        <ele>769.19000244141</ele>
        <time>2024-09-26T09:57:56.000Z</time>
      </trkpt>
      <trkpt lat="40.95624" lon="20.25667">
        <ele>769.66998291016</ele>
        <time>2024-09-26T09:57:57.000Z</time>
      </trkpt>
      <trkpt lat="40.95619" lon="20.25662">
        <ele>771.10998535156</ele>
        <time>2024-09-26T09:57:58.000Z</time>
      </trkpt>
      <trkpt lat="40.95613" lon="20.25659">
        <ele>772.08001708984</ele>
        <time>2024-09-26T09:57:59.000Z</time>
      </trkpt>
      <trkpt lat="40.95607" lon="20.25659">
        <ele>772.08001708984</ele>
        <time>2024-09-26T09:58:00.000Z</time>
      </trkpt>
      <trkpt lat="40.956" lon="20.25659">
        <ele>772.08001708984</ele>
        <time>2024-09-26T09:58:01.000Z</time>
      </trkpt>
      <trkpt lat="40.95594" lon="20.2566">
        <ele>772.08001708984</ele>
        <time>2024-09-26T09:58:02.000Z</time>
      </trkpt>
      <trkpt lat="40.95589" lon="20.25659">
        <ele>772.08001708984</ele>
        <time>2024-09-26T09:58:03.000Z</time>
      </trkpt>
      <trkpt lat="40.95581" lon="20.2566">
        <ele>772.08001708984</ele>
        <time>2024-09-26T09:58:10.000Z</time>
      </trkpt>
      <trkpt lat="40.9558" lon="20.25661">
        <ele>773.03997802734</ele>
        <time>2024-09-26T10:00:42.000Z</time>
      </trkpt>
      <trkpt lat="40.95561" lon="20.25673">
        <ele>772.08001708984</ele>
        <time>2024-09-26T10:00:48.000Z</time>
      </trkpt>
      <trkpt lat="40.95559" lon="20.2567">
        <ele>771.59997558594</ele>
        <time>2024-09-26T10:00:49.000Z</time>
      </trkpt>
      <trkpt lat="40.95557" lon="20.25666">
        <ele>770.63000488281</ele>
        <time>2024-09-26T10:00:50.000Z</time>
      </trkpt>
      <trkpt lat="40.95554" lon="20.25656">
        <ele>768.71002197266</ele>
        <time>2024-09-26T10:00:51.000Z</time>
      </trkpt>
      <trkpt lat="40.95553" lon="20.25652">
        <ele>767.75</ele>
        <time>2024-09-26T10:00:52.000Z</time>
      </trkpt>
      <trkpt lat="40.95552" lon="20.25644">
        <ele>766.30999755859</ele>
        <time>2024-09-26T10:00:53.000Z</time>
      </trkpt>
      <trkpt lat="40.95551" lon="20.25636">
        <ele>765.34997558594</ele>
        <time>2024-09-26T10:00:54.000Z</time>
      </trkpt>
      <trkpt lat="40.95551" lon="20.2563">
        <ele>764.39001464844</ele>
        <time>2024-09-26T10:00:55.000Z</time>
      </trkpt>
      <trkpt lat="40.95552" lon="20.25623">
        <ele>763.41998291016</ele>
        <time>2024-09-26T10:00:56.000Z</time>
      </trkpt>
      <trkpt lat="40.95555" lon="20.25614">
        <ele>761.97998046875</ele>
        <time>2024-09-26T10:00:57.000Z</time>
      </trkpt>
      <trkpt lat="40.95558" lon="20.25605">
        <ele>760.53997802734</ele>
        <time>2024-09-26T10:00:58.000Z</time>
      </trkpt>
      <trkpt lat="40.95559" lon="20.25602">
        <ele>760.05999755859</ele>
        <time>2024-09-26T10:00:59.000Z</time>
      </trkpt>
      <trkpt lat="40.95561" lon="20.25596">
        <ele>759.09997558594</ele>
        <time>2024-09-26T10:01:00.000Z</time>
      </trkpt>
      <trkpt lat="40.95564" lon="20.25585">
        <ele>757.65997314453</ele>
        <time>2024-09-26T10:01:01.000Z</time>
      </trkpt>
      <trkpt lat="40.95567" lon="20.25576">
        <ele>756.69000244141</ele>
        <time>2024-09-26T10:01:02.000Z</time>
      </trkpt>
      <trkpt lat="40.95568" lon="20.25571">
        <ele>755.72998046875</ele>
        <time>2024-09-26T10:01:03.000Z</time>
      </trkpt>
      <trkpt lat="40.95571" lon="20.25564">
        <ele>754.77001953125</ele>
        <time>2024-09-26T10:01:04.000Z</time>
      </trkpt>
      <trkpt lat="40.95573" lon="20.25556">
        <ele>753.80999755859</ele>
        <time>2024-09-26T10:01:05.000Z</time>
      </trkpt>
      <trkpt lat="40.95575" lon="20.25548">
        <ele>753.33001708984</ele>
        <time>2024-09-26T10:01:06.000Z</time>
      </trkpt>
      <trkpt lat="40.95578" lon="20.2554">
        <ele>752.36999511719</ele>
        <time>2024-09-26T10:01:07.000Z</time>
      </trkpt>
      <trkpt lat="40.95579" lon="20.25537">
        <ele>752.36999511719</ele>
        <time>2024-09-26T10:01:08.000Z</time>
      </trkpt>
      <trkpt lat="40.95582" lon="20.25529">
        <ele>751.89001464844</ele>
        <time>2024-09-26T10:01:09.000Z</time>
      </trkpt>
      <trkpt lat="40.95584" lon="20.25524">
        <ele>751.89001464844</ele>
        <time>2024-09-26T10:01:10.000Z</time>
      </trkpt>
      <trkpt lat="40.95585" lon="20.25517">
        <ele>751.89001464844</ele>
        <time>2024-09-26T10:01:11.000Z</time>
      </trkpt>
      <trkpt lat="40.95583" lon="20.25512">
        <ele>751.40997314453</ele>
        <time>2024-09-26T10:01:12.000Z</time>
      </trkpt>
      <trkpt lat="40.95578" lon="20.25505">
        <ele>750.45001220703</ele>
        <time>2024-09-26T10:01:13.000Z</time>
      </trkpt>
      <trkpt lat="40.95575" lon="20.25503">
        <ele>749.96997070312</ele>
        <time>2024-09-26T10:01:14.000Z</time>
      </trkpt>
      <trkpt lat="40.95572" lon="20.25502">
        <ele>749.96997070312</ele>
        <time>2024-09-26T10:01:15.000Z</time>
      </trkpt>
      <trkpt lat="40.95565" lon="20.25498">
        <ele>749</ele>
        <time>2024-09-26T10:01:16.000Z</time>
      </trkpt>
      <trkpt lat="40.95561" lon="20.25495">
        <ele>748.03997802734</ele>
        <time>2024-09-26T10:01:17.000Z</time>
      </trkpt>
      <trkpt lat="40.95549" lon="20.25488">
        <ele>745.15997314453</ele>
        <time>2024-09-26T10:01:19.000Z</time>
      </trkpt>
      <trkpt lat="40.95543" lon="20.25484">
        <ele>744.20001220703</ele>
        <time>2024-09-26T10:01:20.000Z</time>
      </trkpt>
      <trkpt lat="40.95538" lon="20.2548">
        <ele>743.23999023438</ele>
        <time>2024-09-26T10:01:21.000Z</time>
      </trkpt>
      <trkpt lat="40.95534" lon="20.25474">
        <ele>742.28002929688</ele>
        <time>2024-09-26T10:01:22.000Z</time>
      </trkpt>
      <trkpt lat="40.95531" lon="20.25466">
        <ele>741.30999755859</ele>
        <time>2024-09-26T10:01:23.000Z</time>
      </trkpt>
      <trkpt lat="40.95529" lon="20.25458">
        <ele>740.83001708984</ele>
        <time>2024-09-26T10:01:24.000Z</time>
      </trkpt>
      <trkpt lat="40.95527" lon="20.2545">
        <ele>739.86999511719</ele>
        <time>2024-09-26T10:01:25.000Z</time>
      </trkpt>
      <trkpt lat="40.95524" lon="20.25442">
        <ele>738.90997314453</ele>
        <time>2024-09-26T10:01:26.000Z</time>
      </trkpt>
      <trkpt lat="40.9552" lon="20.25435">
        <ele>737.95001220703</ele>
        <time>2024-09-26T10:01:27.000Z</time>
      </trkpt>
      <trkpt lat="40.95512" lon="20.25426">
        <ele>736.03002929688</ele>
        <time>2024-09-26T10:01:28.000Z</time>
      </trkpt>
      <trkpt lat="40.95509" lon="20.25424">
        <ele>736.03002929688</ele>
        <time>2024-09-26T10:01:29.000Z</time>
      </trkpt>
      <trkpt lat="40.95504" lon="20.25419">
        <ele>735.07000732422</ele>
        <time>2024-09-26T10:01:30.000Z</time>
      </trkpt>
      <trkpt lat="40.95499" lon="20.25414">
        <ele>734.09997558594</ele>
        <time>2024-09-26T10:01:31.000Z</time>
      </trkpt>
      <trkpt lat="40.95494" lon="20.25411">
        <ele>733.61999511719</ele>
        <time>2024-09-26T10:01:32.000Z</time>
      </trkpt>
      <trkpt lat="40.95489" lon="20.25404">
        <ele>733.61999511719</ele>
        <time>2024-09-26T10:01:33.000Z</time>
      </trkpt>
      <trkpt lat="40.95486" lon="20.254">
        <ele>733.61999511719</ele>
        <time>2024-09-26T10:01:34.000Z</time>
      </trkpt>
      <trkpt lat="40.95483" lon="20.25394">
        <ele>733.61999511719</ele>
        <time>2024-09-26T10:01:35.000Z</time>
      </trkpt>
      <trkpt lat="40.95479" lon="20.25387">
        <ele>733.61999511719</ele>
        <time>2024-09-26T10:01:36.000Z</time>
      </trkpt>
      <trkpt lat="40.95476" lon="20.2538">
        <ele>734.09997558594</ele>
        <time>2024-09-26T10:01:37.000Z</time>
      </trkpt>
      <trkpt lat="40.95474" lon="20.25373">
        <ele>734.09997558594</ele>
        <time>2024-09-26T10:01:38.000Z</time>
      </trkpt>
      <trkpt lat="40.95473" lon="20.25364">
        <ele>734.09997558594</ele>
        <time>2024-09-26T10:01:39.000Z</time>
      </trkpt>
      <trkpt lat="40.95472" lon="20.25354">
        <ele>734.58001708984</ele>
        <time>2024-09-26T10:01:40.000Z</time>
      </trkpt>
      <trkpt lat="40.95471" lon="20.25344">
        <ele>735.07000732422</ele>
        <time>2024-09-26T10:01:41.000Z</time>
      </trkpt>
      <trkpt lat="40.9547" lon="20.25341">
        <ele>735.54998779297</ele>
        <time>2024-09-26T10:01:42.000Z</time>
      </trkpt>
      <trkpt lat="40.95468" lon="20.25334">
        <ele>735.54998779297</ele>
        <time>2024-09-26T10:01:43.000Z</time>
      </trkpt>
      <trkpt lat="40.95466" lon="20.25327">
        <ele>736.03002929688</ele>
        <time>2024-09-26T10:01:44.000Z</time>
      </trkpt>
      <trkpt lat="40.95462" lon="20.2532">
        <ele>736.51000976562</ele>
        <time>2024-09-26T10:01:45.000Z</time>
      </trkpt>
      <trkpt lat="40.95457" lon="20.25313">
        <ele>736.98999023438</ele>
        <time>2024-09-26T10:01:46.000Z</time>
      </trkpt>
      <trkpt lat="40.95453" lon="20.25307">
        <ele>737.46997070312</ele>
        <time>2024-09-26T10:01:47.000Z</time>
      </trkpt>
      <trkpt lat="40.95449" lon="20.25301">
        <ele>737.95001220703</ele>
        <time>2024-09-26T10:01:48.000Z</time>
      </trkpt>
      <trkpt lat="40.95445" lon="20.25293">
        <ele>738.90997314453</ele>
        <time>2024-09-26T10:01:49.000Z</time>
      </trkpt>
      <trkpt lat="40.95442" lon="20.25289">
        <ele>739.39001464844</ele>
        <time>2024-09-26T10:01:50.000Z</time>
      </trkpt>
      <trkpt lat="40.95437" lon="20.25283">
        <ele>739.39001464844</ele>
        <time>2024-09-26T10:01:51.000Z</time>
      </trkpt>
      <trkpt lat="40.95433" lon="20.25278">
        <ele>739.86999511719</ele>
        <time>2024-09-26T10:01:52.000Z</time>
      </trkpt>
      <trkpt lat="40.9543" lon="20.25275">
        <ele>739.86999511719</ele>
        <time>2024-09-26T10:01:53.000Z</time>
      </trkpt>
      <trkpt lat="40.95427" lon="20.25272">
        <ele>740.34997558594</ele>
        <time>2024-09-26T10:01:54.000Z</time>
      </trkpt>
      <trkpt lat="40.95423" lon="20.25269">
        <ele>740.83001708984</ele>
        <time>2024-09-26T10:01:55.000Z</time>
      </trkpt>
      <trkpt lat="40.95415" lon="20.25263">
        <ele>741.78997802734</ele>
        <time>2024-09-26T10:02:02.000Z</time>
      </trkpt>
      <trkpt lat="40.95415" lon="20.25257">
        <ele>747.08001708984</ele>
        <time>2024-09-26T10:07:25.000Z</time>
      </trkpt>
      <trkpt lat="40.95408" lon="20.25253">
        <ele>747.08001708984</ele>
        <time>2024-09-26T10:07:27.000Z</time>
      </trkpt>
      <trkpt lat="40.95408" lon="20.25253">
        <ele>747.08001708984</ele>
        <time>2024-09-26T10:07:28.000Z</time>
      </trkpt>
      <trkpt lat="40.95403" lon="20.25249">
        <ele>747.08001708984</ele>
        <time>2024-09-26T10:07:29.000Z</time>
      </trkpt>
      <trkpt lat="40.9539" lon="20.25239">
        <ele>748.52001953125</ele>
        <time>2024-09-26T10:07:31.000Z</time>
      </trkpt>
      <trkpt lat="40.95384" lon="20.25234">
        <ele>749.48999023438</ele>
        <time>2024-09-26T10:07:32.000Z</time>
      </trkpt>
      <trkpt lat="40.95377" lon="20.25231">
        <ele>750.45001220703</ele>
        <time>2024-09-26T10:07:33.000Z</time>
      </trkpt>
      <trkpt lat="40.95367" lon="20.25229">
        <ele>751.40997314453</ele>
        <time>2024-09-26T10:07:34.000Z</time>
      </trkpt>
      <trkpt lat="40.95363" lon="20.25228">
        <ele>751.40997314453</ele>
        <time>2024-09-26T10:07:35.000Z</time>
      </trkpt>
      <trkpt lat="40.95357" lon="20.25224">
        <ele>752.36999511719</ele>
        <time>2024-09-26T10:07:36.000Z</time>
      </trkpt>
      <trkpt lat="40.9535" lon="20.25217">
        <ele>752.84997558594</ele>
        <time>2024-09-26T10:07:37.000Z</time>
      </trkpt>
      <trkpt lat="40.95346" lon="20.25213">
        <ele>752.84997558594</ele>
        <time>2024-09-26T10:07:38.000Z</time>
      </trkpt>
      <trkpt lat="40.9534" lon="20.25209">
        <ele>752.84997558594</ele>
        <time>2024-09-26T10:07:39.000Z</time>
      </trkpt>
      <trkpt lat="40.95333" lon="20.25207">
        <ele>753.33001708984</ele>
        <time>2024-09-26T10:07:40.000Z</time>
      </trkpt>
      <trkpt lat="40.95311" lon="20.25202">
        <ele>753.80999755859</ele>
        <time>2024-09-26T10:07:42.000Z</time>
      </trkpt>
      <trkpt lat="40.95307" lon="20.25201">
        <ele>754.28997802734</ele>
        <time>2024-09-26T10:07:43.000Z</time>
      </trkpt>
      <trkpt lat="40.95297" lon="20.25199">
        <ele>754.28997802734</ele>
        <time>2024-09-26T10:07:44.000Z</time>
      </trkpt>
      <trkpt lat="40.9529" lon="20.25198">
        <ele>754.77001953125</ele>
        <time>2024-09-26T10:07:45.000Z</time>
      </trkpt>
      <trkpt lat="40.95285" lon="20.25197">
        <ele>755.25</ele>
        <time>2024-09-26T10:07:46.000Z</time>
      </trkpt>
      <trkpt lat="40.95279" lon="20.25194">
        <ele>755.25</ele>
        <time>2024-09-26T10:07:47.000Z</time>
      </trkpt>
      <trkpt lat="40.95272" lon="20.2519">
        <ele>755.25</ele>
        <time>2024-09-26T10:07:48.000Z</time>
      </trkpt>
      <trkpt lat="40.95265" lon="20.25183">
        <ele>755.25</ele>
        <time>2024-09-26T10:07:49.000Z</time>
      </trkpt>
      <trkpt lat="40.95258" lon="20.25175">
        <ele>755.72998046875</ele>
        <time>2024-09-26T10:07:50.000Z</time>
      </trkpt>
      <trkpt lat="40.9525" lon="20.25169">
        <ele>756.21002197266</ele>
        <time>2024-09-26T10:07:51.000Z</time>
      </trkpt>
      <trkpt lat="40.95242" lon="20.25166">
        <ele>757.17999267578</ele>
        <time>2024-09-26T10:07:52.000Z</time>
      </trkpt>
      <trkpt lat="40.9523" lon="20.25163">
        <ele>757.65997314453</ele>
        <time>2024-09-26T10:07:53.000Z</time>
      </trkpt>
      <trkpt lat="40.9522" lon="20.25161">
        <ele>757.17999267578</ele>
        <time>2024-09-26T10:07:54.000Z</time>
      </trkpt>
      <trkpt lat="40.95211" lon="20.25155">
        <ele>756.69000244141</ele>
        <time>2024-09-26T10:07:55.000Z</time>
      </trkpt>
      <trkpt lat="40.95202" lon="20.25148">
        <ele>756.21002197266</ele>
        <time>2024-09-26T10:07:56.000Z</time>
      </trkpt>
      <trkpt lat="40.9519" lon="20.2514">
        <ele>755.25</ele>
        <time>2024-09-26T10:07:57.000Z</time>
      </trkpt>
      <trkpt lat="40.95179" lon="20.25133">
        <ele>754.77001953125</ele>
        <time>2024-09-26T10:07:58.000Z</time>
      </trkpt>
      <trkpt lat="40.95175" lon="20.2513">
        <ele>754.28997802734</ele>
        <time>2024-09-26T10:07:59.000Z</time>
      </trkpt>
      <trkpt lat="40.95169" lon="20.25127">
        <ele>753.80999755859</ele>
        <time>2024-09-26T10:08:00.000Z</time>
      </trkpt>
      <trkpt lat="40.95162" lon="20.25124">
        <ele>753.33001708984</ele>
        <time>2024-09-26T10:08:01.000Z</time>
      </trkpt>
      <trkpt lat="40.95153" lon="20.25122">
        <ele>752.36999511719</ele>
        <time>2024-09-26T10:08:02.000Z</time>
      </trkpt>
      <trkpt lat="40.95146" lon="20.2512">
        <ele>751.89001464844</ele>
        <time>2024-09-26T10:08:03.000Z</time>
      </trkpt>
      <trkpt lat="40.95139" lon="20.25116">
        <ele>750.45001220703</ele>
        <time>2024-09-26T10:08:04.000Z</time>
      </trkpt>
      <trkpt lat="40.95132" lon="20.25111">
        <ele>749.96997070312</ele>
        <time>2024-09-26T10:08:05.000Z</time>
      </trkpt>
      <trkpt lat="40.9512" lon="20.25098">
        <ele>749.96997070312</ele>
        <time>2024-09-26T10:08:06.000Z</time>
      </trkpt>
      <trkpt lat="40.95118" lon="20.25096">
        <ele>750.45001220703</ele>
        <time>2024-09-26T10:08:07.000Z</time>
      </trkpt>
      <trkpt lat="40.95112" lon="20.2509">
        <ele>750.92999267578</ele>
        <time>2024-09-26T10:08:08.000Z</time>
      </trkpt>
      <trkpt lat="40.95108" lon="20.25086">
        <ele>751.89001464844</ele>
        <time>2024-09-26T10:08:09.000Z</time>
      </trkpt>
      <trkpt lat="40.95103" lon="20.25083">
        <ele>752.84997558594</ele>
        <time>2024-09-26T10:08:10.000Z</time>
      </trkpt>
      <trkpt lat="40.95099" lon="20.25082">
        <ele>753.33001708984</ele>
        <time>2024-09-26T10:08:11.000Z</time>
      </trkpt>
      <trkpt lat="40.95094" lon="20.25082">
        <ele>754.28997802734</ele>
        <time>2024-09-26T10:08:12.000Z</time>
      </trkpt>
      <trkpt lat="40.95089" lon="20.25084">
        <ele>754.77001953125</ele>
        <time>2024-09-26T10:08:13.000Z</time>
      </trkpt>
      <trkpt lat="40.95079" lon="20.25091">
        <ele>756.21002197266</ele>
        <time>2024-09-26T10:08:14.000Z</time>
      </trkpt>
      <trkpt lat="40.95075" lon="20.25094">
        <ele>757.17999267578</ele>
        <time>2024-09-26T10:08:15.000Z</time>
      </trkpt>
      <trkpt lat="40.95071" lon="20.25096">
        <ele>757.65997314453</ele>
        <time>2024-09-26T10:08:16.000Z</time>
      </trkpt>
      <trkpt lat="40.95063" lon="20.25103">
        <ele>759.09997558594</ele>
        <time>2024-09-26T10:08:17.000Z</time>
      </trkpt>
      <trkpt lat="40.95062" lon="20.25104">
        <ele>759.09997558594</ele>
        <time>2024-09-26T10:08:18.000Z</time>
      </trkpt>
      <trkpt lat="40.95051" lon="20.25097">
        <ele>761.02001953125</ele>
        <time>2024-09-26T10:08:22.000Z</time>
      </trkpt>
      <trkpt lat="40.95051" lon="20.25094">
        <ele>761.02001953125</ele>
        <time>2024-09-26T10:08:23.000Z</time>
      </trkpt>
      <trkpt lat="40.95054" lon="20.25086">
        <ele>762.46002197266</ele>
        <time>2024-09-26T10:08:24.000Z</time>
      </trkpt>
      <trkpt lat="40.95055" lon="20.25081">
        <ele>763.41998291016</ele>
        <time>2024-09-26T10:08:25.000Z</time>
      </trkpt>
      <trkpt lat="40.95055" lon="20.25076">
        <ele>763.90002441406</ele>
        <time>2024-09-26T10:08:26.000Z</time>
      </trkpt>
      <trkpt lat="40.95053" lon="20.25071">
        <ele>764.86999511719</ele>
        <time>2024-09-26T10:08:27.000Z</time>
      </trkpt>
      <trkpt lat="40.9505" lon="20.25068">
        <ele>765.34997558594</ele>
        <time>2024-09-26T10:08:28.000Z</time>
      </trkpt>
      <trkpt lat="40.95045" lon="20.25066">
        <ele>766.30999755859</ele>
        <time>2024-09-26T10:08:29.000Z</time>
      </trkpt>
      <trkpt lat="40.9504" lon="20.25067">
        <ele>767.27001953125</ele>
        <time>2024-09-26T10:08:30.000Z</time>
      </trkpt>
      <trkpt lat="40.95034" lon="20.2507">
        <ele>768.22998046875</ele>
        <time>2024-09-26T10:08:31.000Z</time>
      </trkpt>
      <trkpt lat="40.95029" lon="20.25074">
        <ele>769.19000244141</ele>
        <time>2024-09-26T10:08:32.000Z</time>
      </trkpt>
      <trkpt lat="40.95023" lon="20.2508">
        <ele>770.63000488281</ele>
        <time>2024-09-26T10:08:33.000Z</time>
      </trkpt>
      <trkpt lat="40.95018" lon="20.25084">
        <ele>771.10998535156</ele>
        <time>2024-09-26T10:08:34.000Z</time>
      </trkpt>
      <trkpt lat="40.95012" lon="20.25087">
        <ele>772.08001708984</ele>
        <time>2024-09-26T10:08:35.000Z</time>
      </trkpt>
      <trkpt lat="40.95005" lon="20.25089">
        <ele>772.55999755859</ele>
        <time>2024-09-26T10:08:36.000Z</time>
      </trkpt>
      <trkpt lat="40.94995" lon="20.2509">
        <ele>773.52001953125</ele>
        <time>2024-09-26T10:08:37.000Z</time>
      </trkpt>
      <trkpt lat="40.94988" lon="20.25091">
        <ele>774.47998046875</ele>
        <time>2024-09-26T10:08:38.000Z</time>
      </trkpt>
      <trkpt lat="40.94982" lon="20.25092">
        <ele>774.96002197266</ele>
        <time>2024-09-26T10:08:39.000Z</time>
      </trkpt>
      <trkpt lat="40.94971" lon="20.25093">
        <ele>776.40002441406</ele>
        <time>2024-09-26T10:08:40.000Z</time>
      </trkpt>
      <trkpt lat="40.94966" lon="20.25094">
        <ele>777.35998535156</ele>
        <time>2024-09-26T10:08:41.000Z</time>
      </trkpt>
      <trkpt lat="40.94959" lon="20.25094">
        <ele>778.32000732422</ele>
        <time>2024-09-26T10:08:42.000Z</time>
      </trkpt>
      <trkpt lat="40.94951" lon="20.25094">
        <ele>778.80999755859</ele>
        <time>2024-09-26T10:08:43.000Z</time>
      </trkpt>
      <trkpt lat="40.94945" lon="20.25092">
        <ele>779.77001953125</ele>
        <time>2024-09-26T10:08:44.000Z</time>
      </trkpt>
      <trkpt lat="40.94934" lon="20.2509">
        <ele>780.72998046875</ele>
        <time>2024-09-26T10:08:45.000Z</time>
      </trkpt>
      <trkpt lat="40.94927" lon="20.25088">
        <ele>781.69000244141</ele>
        <time>2024-09-26T10:08:46.000Z</time>
      </trkpt>
      <trkpt lat="40.94919" lon="20.25085">
        <ele>782.65002441406</ele>
        <time>2024-09-26T10:08:47.000Z</time>
      </trkpt>
      <trkpt lat="40.94909" lon="20.25081">
        <ele>784.09002685547</ele>
        <time>2024-09-26T10:08:48.000Z</time>
      </trkpt>
      <trkpt lat="40.94903" lon="20.25079">
        <ele>785.04998779297</ele>
        <time>2024-09-26T10:08:49.000Z</time>
      </trkpt>
      <trkpt lat="40.94895" lon="20.25076">
        <ele>786.5</ele>
        <time>2024-09-26T10:08:50.000Z</time>
      </trkpt>
      <trkpt lat="40.94887" lon="20.25075">
        <ele>787.94000244141</ele>
        <time>2024-09-26T10:08:51.000Z</time>
      </trkpt>
      <trkpt lat="40.94878" lon="20.25075">
        <ele>789.38000488281</ele>
        <time>2024-09-26T10:08:52.000Z</time>
      </trkpt>
      <trkpt lat="40.94863" lon="20.25076">
        <ele>791.78002929688</ele>
        <time>2024-09-26T10:08:53.000Z</time>
      </trkpt>
      <trkpt lat="40.94858" lon="20.25076">
        <ele>792.73999023438</ele>
        <time>2024-09-26T10:08:54.000Z</time>
      </trkpt>
      <trkpt lat="40.94852" lon="20.25076">
        <ele>793.21997070312</ele>
        <time>2024-09-26T10:08:55.000Z</time>
      </trkpt>
      <trkpt lat="40.94844" lon="20.25075">
        <ele>794.66998291016</ele>
        <time>2024-09-26T10:08:56.000Z</time>
      </trkpt>
      <trkpt lat="40.94833" lon="20.25074">
        <ele>796.59002685547</ele>
        <time>2024-09-26T10:08:57.000Z</time>
      </trkpt>
      <trkpt lat="40.94815" lon="20.25071">
        <ele>798.03002929688</ele>
        <time>2024-09-26T10:08:59.000Z</time>
      </trkpt>
      <trkpt lat="40.9481" lon="20.2507">
        <ele>798.51000976562</ele>
        <time>2024-09-26T10:09:00.000Z</time>
      </trkpt>
      <trkpt lat="40.94803" lon="20.25065">
        <ele>799.46997070312</ele>
        <time>2024-09-26T10:09:01.000Z</time>
      </trkpt>
      <trkpt lat="40.94798" lon="20.25058">
        <ele>800.44000244141</ele>
        <time>2024-09-26T10:09:02.000Z</time>
      </trkpt>
      <trkpt lat="40.94792" lon="20.25046">
        <ele>801.88000488281</ele>
        <time>2024-09-26T10:09:03.000Z</time>
      </trkpt>
      <trkpt lat="40.94785" lon="20.25034">
        <ele>802.84002685547</ele>
        <time>2024-09-26T10:09:05.000Z</time>
      </trkpt>
      <trkpt lat="40.94779" lon="20.25023">
        <ele>804.28002929688</ele>
        <time>2024-09-26T10:09:06.000Z</time>
      </trkpt>
      <trkpt lat="40.94776" lon="20.25018">
        <ele>805.23999023438</ele>
        <time>2024-09-26T10:09:07.000Z</time>
      </trkpt>
      <trkpt lat="40.94771" lon="20.25012">
        <ele>805.23999023438</ele>
        <time>2024-09-26T10:09:08.000Z</time>
      </trkpt>
      <trkpt lat="40.94766" lon="20.25006">
        <ele>805.71997070312</ele>
        <time>2024-09-26T10:09:09.000Z</time>
      </trkpt>
      <trkpt lat="40.94759" lon="20.24997">
        <ele>806.67999267578</ele>
        <time>2024-09-26T10:09:10.000Z</time>
      </trkpt>
      <trkpt lat="40.94754" lon="20.2499">
        <ele>807.15997314453</ele>
        <time>2024-09-26T10:09:11.000Z</time>
      </trkpt>
      <trkpt lat="40.94748" lon="20.24983">
        <ele>808.13000488281</ele>
        <time>2024-09-26T10:09:12.000Z</time>
      </trkpt>
      <trkpt lat="40.94741" lon="20.24976">
        <ele>808.60998535156</ele>
        <time>2024-09-26T10:09:13.000Z</time>
      </trkpt>
      <trkpt lat="40.94736" lon="20.24969">
        <ele>809.57000732422</ele>
        <time>2024-09-26T10:09:14.000Z</time>
      </trkpt>
      <trkpt lat="40.94731" lon="20.24962">
        <ele>811.01000976562</ele>
        <time>2024-09-26T10:09:15.000Z</time>
      </trkpt>
      <trkpt lat="40.94723" lon="20.24954">
        <ele>811.96997070312</ele>
        <time>2024-09-26T10:09:16.000Z</time>
      </trkpt>
      <trkpt lat="40.94718" lon="20.2495">
        <ele>812.92999267578</ele>
        <time>2024-09-26T10:09:17.000Z</time>
      </trkpt>
      <trkpt lat="40.94711" lon="20.24945">
        <ele>813.89001464844</ele>
        <time>2024-09-26T10:09:18.000Z</time>
      </trkpt>
      <trkpt lat="40.94704" lon="20.24943">
        <ele>814.84997558594</ele>
        <time>2024-09-26T10:09:19.000Z</time>
      </trkpt>
      <trkpt lat="40.94697" lon="20.2494">
        <ele>815.82000732422</ele>
        <time>2024-09-26T10:09:20.000Z</time>
      </trkpt>
      <trkpt lat="40.94689" lon="20.24938">
        <ele>816.78002929688</ele>
        <time>2024-09-26T10:09:21.000Z</time>
      </trkpt>
      <trkpt lat="40.94679" lon="20.24934">
        <ele>817.73999023438</ele>
        <time>2024-09-26T10:09:22.000Z</time>
      </trkpt>
      <trkpt lat="40.94674" lon="20.24933">
        <ele>818.21997070312</ele>
        <time>2024-09-26T10:09:23.000Z</time>
      </trkpt>
      <trkpt lat="40.94666" lon="20.24932">
        <ele>819.17999267578</ele>
        <time>2024-09-26T10:09:24.000Z</time>
      </trkpt>
      <trkpt lat="40.9466" lon="20.24933">
        <ele>819.65997314453</ele>
        <time>2024-09-26T10:09:25.000Z</time>
      </trkpt>
      <trkpt lat="40.94655" lon="20.24935">
        <ele>820.61999511719</ele>
        <time>2024-09-26T10:09:26.000Z</time>
      </trkpt>
      <trkpt lat="40.94647" lon="20.2494">
        <ele>822.05999755859</ele>
        <time>2024-09-26T10:09:27.000Z</time>
      </trkpt>
      <trkpt lat="40.94644" lon="20.24942">
        <ele>822.54998779297</ele>
        <time>2024-09-26T10:09:28.000Z</time>
      </trkpt>
      <trkpt lat="40.94636" lon="20.24948">
        <ele>823.51000976562</ele>
        <time>2024-09-26T10:09:29.000Z</time>
      </trkpt>
      <trkpt lat="40.94631" lon="20.24951">
        <ele>823.98999023438</ele>
        <time>2024-09-26T10:09:30.000Z</time>
      </trkpt>
      <trkpt lat="40.94625" lon="20.24953">
        <ele>824.46997070312</ele>
        <time>2024-09-26T10:09:31.000Z</time>
      </trkpt>
      <trkpt lat="40.94616" lon="20.24955">
        <ele>824.95001220703</ele>
        <time>2024-09-26T10:09:32.000Z</time>
      </trkpt>
      <trkpt lat="40.94609" lon="20.24956">
        <ele>825.42999267578</ele>
        <time>2024-09-26T10:09:33.000Z</time>
      </trkpt>
      <trkpt lat="40.94601" lon="20.24956">
        <ele>825.90997314453</ele>
        <time>2024-09-26T10:09:34.000Z</time>
      </trkpt>
      <trkpt lat="40.94593" lon="20.24955">
        <ele>826.39001464844</ele>
        <time>2024-09-26T10:09:35.000Z</time>
      </trkpt>
      <trkpt lat="40.94585" lon="20.24955">
        <ele>826.86999511719</ele>
        <time>2024-09-26T10:09:36.000Z</time>
      </trkpt>
      <trkpt lat="40.9458" lon="20.24955">
        <ele>826.86999511719</ele>
        <time>2024-09-26T10:09:37.000Z</time>
      </trkpt>
      <trkpt lat="40.94574" lon="20.24955">
        <ele>826.86999511719</ele>
        <time>2024-09-26T10:09:38.000Z</time>
      </trkpt>
      <trkpt lat="40.94568" lon="20.24957">
        <ele>827.34997558594</ele>
        <time>2024-09-26T10:09:39.000Z</time>
      </trkpt>
      <trkpt lat="40.94557" lon="20.24965">
        <ele>827.83001708984</ele>
        <time>2024-09-26T10:09:41.000Z</time>
      </trkpt>
      <trkpt lat="40.9455" lon="20.2497">
        <ele>827.83001708984</ele>
        <time>2024-09-26T10:09:42.000Z</time>
      </trkpt>
      <trkpt lat="40.94548" lon="20.24972">
        <ele>828.30999755859</ele>
        <time>2024-09-26T10:09:43.000Z</time>
      </trkpt>
      <trkpt lat="40.94542" lon="20.24975">
        <ele>828.30999755859</ele>
        <time>2024-09-26T10:09:44.000Z</time>
      </trkpt>
      <trkpt lat="40.94538" lon="20.24977">
        <ele>828.30999755859</ele>
        <time>2024-09-26T10:09:45.000Z</time>
      </trkpt>
      <trkpt lat="40.94533" lon="20.2498">
        <ele>828.78997802734</ele>
        <time>2024-09-26T10:09:46.000Z</time>
      </trkpt>
      <trkpt lat="40.94527" lon="20.24981">
        <ele>829.27001953125</ele>
        <time>2024-09-26T10:09:47.000Z</time>
      </trkpt>
      <trkpt lat="40.9452" lon="20.24983">
        <ele>829.76000976562</ele>
        <time>2024-09-26T10:09:48.000Z</time>
      </trkpt>
      <trkpt lat="40.94515" lon="20.24984">
        <ele>829.76000976562</ele>
        <time>2024-09-26T10:09:49.000Z</time>
      </trkpt>
      <trkpt lat="40.94507" lon="20.24988">
        <ele>830.23999023438</ele>
        <time>2024-09-26T10:09:50.000Z</time>
      </trkpt>
      <trkpt lat="40.94504" lon="20.24989">
        <ele>830.23999023438</ele>
        <time>2024-09-26T10:09:51.000Z</time>
      </trkpt>
      <trkpt lat="40.94499" lon="20.24992">
        <ele>830.71997070312</ele>
        <time>2024-09-26T10:09:52.000Z</time>
      </trkpt>
      <trkpt lat="40.94493" lon="20.24996">
        <ele>831.20001220703</ele>
        <time>2024-09-26T10:09:53.000Z</time>
      </trkpt>
      <trkpt lat="40.94476" lon="20.25009">
        <ele>832.15997314453</ele>
        <time>2024-09-26T10:09:57.000Z</time>
      </trkpt>
      <trkpt lat="40.94471" lon="20.25013">
        <ele>832.64001464844</ele>
        <time>2024-09-26T10:09:58.000Z</time>
      </trkpt>
      <trkpt lat="40.94466" lon="20.25016">
        <ele>832.64001464844</ele>
        <time>2024-09-26T10:09:59.000Z</time>
      </trkpt>
      <trkpt lat="40.94462" lon="20.25019">
        <ele>833.11999511719</ele>
        <time>2024-09-26T10:10:00.000Z</time>
      </trkpt>
      <trkpt lat="40.94457" lon="20.25022">
        <ele>833.11999511719</ele>
        <time>2024-09-26T10:10:01.000Z</time>
      </trkpt>
      <trkpt lat="40.94451" lon="20.25025">
        <ele>833.11999511719</ele>
        <time>2024-09-26T10:10:02.000Z</time>
      </trkpt>
      <trkpt lat="40.94446" lon="20.25028">
        <ele>833.11999511719</ele>
        <time>2024-09-26T10:10:03.000Z</time>
      </trkpt>
      <trkpt lat="40.9444" lon="20.25032">
        <ele>833.11999511719</ele>
        <time>2024-09-26T10:10:04.000Z</time>
      </trkpt>
      <trkpt lat="40.94436" lon="20.25036">
        <ele>833.11999511719</ele>
        <time>2024-09-26T10:10:05.000Z</time>
      </trkpt>
      <trkpt lat="40.94431" lon="20.25037">
        <ele>833.11999511719</ele>
        <time>2024-09-26T10:10:06.000Z</time>
      </trkpt>
      <trkpt lat="40.94427" lon="20.25036">
        <ele>832.64001464844</ele>
        <time>2024-09-26T10:10:07.000Z</time>
      </trkpt>
      <trkpt lat="40.94423" lon="20.25034">
        <ele>832.15997314453</ele>
        <time>2024-09-26T10:10:08.000Z</time>
      </trkpt>
      <trkpt lat="40.94419" lon="20.2503">
        <ele>831.67999267578</ele>
        <time>2024-09-26T10:10:09.000Z</time>
      </trkpt>
      <trkpt lat="40.94416" lon="20.25024">
        <ele>831.20001220703</ele>
        <time>2024-09-26T10:10:10.000Z</time>
      </trkpt>
      <trkpt lat="40.94413" lon="20.25017">
        <ele>830.71997070312</ele>
        <time>2024-09-26T10:10:11.000Z</time>
      </trkpt>
      <trkpt lat="40.94411" lon="20.25009">
        <ele>830.71997070312</ele>
        <time>2024-09-26T10:10:12.000Z</time>
      </trkpt>
      <trkpt lat="40.9441" lon="20.25002">
        <ele>830.23999023438</ele>
        <time>2024-09-26T10:10:13.000Z</time>
      </trkpt>
      <trkpt lat="40.94408" lon="20.24993">
        <ele>829.76000976562</ele>
        <time>2024-09-26T10:10:14.000Z</time>
      </trkpt>
      <trkpt lat="40.94406" lon="20.24987">
        <ele>829.27001953125</ele>
        <time>2024-09-26T10:10:15.000Z</time>
      </trkpt>
      <trkpt lat="40.94402" lon="20.24981">
        <ele>828.30999755859</ele>
        <time>2024-09-26T10:10:16.000Z</time>
      </trkpt>
      <trkpt lat="40.94394" lon="20.24972">
        <ele>827.34997558594</ele>
        <time>2024-09-26T10:10:17.000Z</time>
      </trkpt>
      <trkpt lat="40.94392" lon="20.2497">
        <ele>826.86999511719</ele>
        <time>2024-09-26T10:10:18.000Z</time>
      </trkpt>
      <trkpt lat="40.9439" lon="20.24968">
        <ele>826.39001464844</ele>
        <time>2024-09-26T10:10:19.000Z</time>
      </trkpt>
      <trkpt lat="40.94377" lon="20.24981">
        <ele>823.03002929688</ele>
        <time>2024-09-26T10:10:24.000Z</time>
      </trkpt>
      <trkpt lat="40.94378" lon="20.24984">
        <ele>822.54998779297</ele>
        <time>2024-09-26T10:10:25.000Z</time>
      </trkpt>
      <trkpt lat="40.9438" lon="20.2499">
        <ele>821.58001708984</ele>
        <time>2024-09-26T10:10:26.000Z</time>
      </trkpt>
      <trkpt lat="40.94383" lon="20.24996">
        <ele>821.09997558594</ele>
        <time>2024-09-26T10:10:27.000Z</time>
      </trkpt>
      <trkpt lat="40.94387" lon="20.25003">
        <ele>820.14001464844</ele>
        <time>2024-09-26T10:10:28.000Z</time>
      </trkpt>
      <trkpt lat="40.94389" lon="20.25008">
        <ele>819.65997314453</ele>
        <time>2024-09-26T10:10:29.000Z</time>
      </trkpt>
      <trkpt lat="40.94392" lon="20.25015">
        <ele>819.17999267578</ele>
        <time>2024-09-26T10:10:30.000Z</time>
      </trkpt>
      <trkpt lat="40.94392" lon="20.25022">
        <ele>818.21997070312</ele>
        <time>2024-09-26T10:10:31.000Z</time>
      </trkpt>
      <trkpt lat="40.94391" lon="20.2503">
        <ele>817.26000976562</ele>
        <time>2024-09-26T10:10:32.000Z</time>
      </trkpt>
      <trkpt lat="40.94391" lon="20.25035">
        <ele>816.78002929688</ele>
        <time>2024-09-26T10:10:33.000Z</time>
      </trkpt>
      <trkpt lat="40.94391" lon="20.25046">
        <ele>815.82000732422</ele>
        <time>2024-09-26T10:10:34.000Z</time>
      </trkpt>
      <trkpt lat="40.94392" lon="20.25053">
        <ele>814.84997558594</ele>
        <time>2024-09-26T10:10:35.000Z</time>
      </trkpt>
      <trkpt lat="40.94393" lon="20.25059">
        <ele>814.36999511719</ele>
        <time>2024-09-26T10:10:36.000Z</time>
      </trkpt>
      <trkpt lat="40.94393" lon="20.25067">
        <ele>813.89001464844</ele>
        <time>2024-09-26T10:10:37.000Z</time>
      </trkpt>
      <trkpt lat="40.94393" lon="20.25074">
        <ele>813.40997314453</ele>
        <time>2024-09-26T10:10:38.000Z</time>
      </trkpt>
      <trkpt lat="40.94391" lon="20.25082">
        <ele>812.92999267578</ele>
        <time>2024-09-26T10:10:39.000Z</time>
      </trkpt>
      <trkpt lat="40.94388" lon="20.25092">
        <ele>812.45001220703</ele>
        <time>2024-09-26T10:10:40.000Z</time>
      </trkpt>
      <trkpt lat="40.94387" lon="20.25097">
        <ele>811.96997070312</ele>
        <time>2024-09-26T10:10:41.000Z</time>
      </trkpt>
      <trkpt lat="40.94385" lon="20.25105">
        <ele>811.48999023438</ele>
        <time>2024-09-26T10:10:42.000Z</time>
      </trkpt>
      <trkpt lat="40.94385" lon="20.25112">
        <ele>811.01000976562</ele>
        <time>2024-09-26T10:10:43.000Z</time>
      </trkpt>
      <trkpt lat="40.94386" lon="20.25119">
        <ele>810.04998779297</ele>
        <time>2024-09-26T10:10:44.000Z</time>
      </trkpt>
      <trkpt lat="40.94388" lon="20.25125">
        <ele>809.57000732422</ele>
        <time>2024-09-26T10:10:45.000Z</time>
      </trkpt>
      <trkpt lat="40.9439" lon="20.25131">
        <ele>809.09002685547</ele>
        <time>2024-09-26T10:10:46.000Z</time>
      </trkpt>
      <trkpt lat="40.94391" lon="20.25136">
        <ele>808.60998535156</ele>
        <time>2024-09-26T10:10:47.000Z</time>
      </trkpt>
      <trkpt lat="40.94391" lon="20.25142">
        <ele>807.64001464844</ele>
        <time>2024-09-26T10:10:48.000Z</time>
      </trkpt>
      <trkpt lat="40.94388" lon="20.25145">
        <ele>807.15997314453</ele>
        <time>2024-09-26T10:10:49.000Z</time>
      </trkpt>
      <trkpt lat="40.9438" lon="20.25143">
        <ele>806.20001220703</ele>
        <time>2024-09-26T10:10:51.000Z</time>
      </trkpt>
      <trkpt lat="40.94377" lon="20.2514">
        <ele>805.71997070312</ele>
        <time>2024-09-26T10:10:52.000Z</time>
      </trkpt>
      <trkpt lat="40.94374" lon="20.25135">
        <ele>805.23999023438</ele>
        <time>2024-09-26T10:10:53.000Z</time>
      </trkpt>
      <trkpt lat="40.9437" lon="20.25128">
        <ele>804.28002929688</ele>
        <time>2024-09-26T10:10:54.000Z</time>
      </trkpt>
      <trkpt lat="40.94368" lon="20.25121">
        <ele>803.79998779297</ele>
        <time>2024-09-26T10:10:55.000Z</time>
      </trkpt>
      <trkpt lat="40.94367" lon="20.25115">
        <ele>803.32000732422</ele>
        <time>2024-09-26T10:10:56.000Z</time>
      </trkpt>
      <trkpt lat="40.94366" lon="20.25105">
        <ele>802.84002685547</ele>
        <time>2024-09-26T10:10:57.000Z</time>
      </trkpt>
      <trkpt lat="40.94366" lon="20.251">
        <ele>802.35998535156</ele>
        <time>2024-09-26T10:10:58.000Z</time>
      </trkpt>
      <trkpt lat="40.94367" lon="20.25092">
        <ele>801.88000488281</ele>
        <time>2024-09-26T10:10:59.000Z</time>
      </trkpt>
      <trkpt lat="40.94363" lon="20.25084">
        <ele>802.35998535156</ele>
        <time>2024-09-26T10:11:28.000Z</time>
      </trkpt>
      <trkpt lat="40.94366" lon="20.25076">
        <ele>802.84002685547</ele>
        <time>2024-09-26T10:11:29.000Z</time>
      </trkpt>
      <trkpt lat="40.94367" lon="20.25069">
        <ele>803.32000732422</ele>
        <time>2024-09-26T10:11:30.000Z</time>
      </trkpt>
      <trkpt lat="40.94368" lon="20.25061">
        <ele>803.79998779297</ele>
        <time>2024-09-26T10:11:31.000Z</time>
      </trkpt>
      <trkpt lat="40.94366" lon="20.25052">
        <ele>804.28002929688</ele>
        <time>2024-09-26T10:11:32.000Z</time>
      </trkpt>
      <trkpt lat="40.94362" lon="20.25043">
        <ele>804.28002929688</ele>
        <time>2024-09-26T10:11:33.000Z</time>
      </trkpt>
      <trkpt lat="40.94357" lon="20.25033">
        <ele>804.76000976562</ele>
        <time>2024-09-26T10:11:34.000Z</time>
      </trkpt>
      <trkpt lat="40.94351" lon="20.25023">
        <ele>805.71997070312</ele>
        <time>2024-09-26T10:11:35.000Z</time>
      </trkpt>
      <trkpt lat="40.94348" lon="20.25016">
        <ele>806.20001220703</ele>
        <time>2024-09-26T10:11:36.000Z</time>
      </trkpt>
      <trkpt lat="40.94343" lon="20.25005">
        <ele>806.67999267578</ele>
        <time>2024-09-26T10:11:37.000Z</time>
      </trkpt>
      <trkpt lat="40.94339" lon="20.24999">
        <ele>806.67999267578</ele>
        <time>2024-09-26T10:11:38.000Z</time>
      </trkpt>
      <trkpt lat="40.94333" lon="20.24993">
        <ele>807.15997314453</ele>
        <time>2024-09-26T10:11:39.000Z</time>
      </trkpt>
      <trkpt lat="40.94327" lon="20.24989">
        <ele>808.13000488281</ele>
        <time>2024-09-26T10:11:40.000Z</time>
      </trkpt>
      <trkpt lat="40.94321" lon="20.24986">
        <ele>808.60998535156</ele>
        <time>2024-09-26T10:11:41.000Z</time>
      </trkpt>
      <trkpt lat="40.94315" lon="20.24981">
        <ele>809.09002685547</ele>
        <time>2024-09-26T10:11:42.000Z</time>
      </trkpt>
      <trkpt lat="40.9431" lon="20.24974">
        <ele>809.09002685547</ele>
        <time>2024-09-26T10:11:43.000Z</time>
      </trkpt>
      <trkpt lat="40.94305" lon="20.24966">
        <ele>809.09002685547</ele>
        <time>2024-09-26T10:11:44.000Z</time>
      </trkpt>
      <trkpt lat="40.94299" lon="20.24956">
        <ele>809.09002685547</ele>
        <time>2024-09-26T10:11:45.000Z</time>
      </trkpt>
      <trkpt lat="40.94295" lon="20.24951">
        <ele>809.09002685547</ele>
        <time>2024-09-26T10:11:46.000Z</time>
      </trkpt>
      <trkpt lat="40.94282" lon="20.24936">
        <ele>808.60998535156</ele>
        <time>2024-09-26T10:11:48.000Z</time>
      </trkpt>
      <trkpt lat="40.94276" lon="20.24929">
        <ele>808.60998535156</ele>
        <time>2024-09-26T10:11:49.000Z</time>
      </trkpt>
      <trkpt lat="40.94273" lon="20.24919">
        <ele>808.13000488281</ele>
        <time>2024-09-26T10:11:50.000Z</time>
      </trkpt>
      <trkpt lat="40.94271" lon="20.24909">
        <ele>808.13000488281</ele>
        <time>2024-09-26T10:11:51.000Z</time>
      </trkpt>
      <trkpt lat="40.94267" lon="20.24876">
        <ele>807.15997314453</ele>
        <time>2024-09-26T10:11:53.000Z</time>
      </trkpt>
      <trkpt lat="40.94266" lon="20.24873">
        <ele>807.15997314453</ele>
        <time>2024-09-26T10:11:54.000Z</time>
      </trkpt>
      <trkpt lat="40.94266" lon="20.24858">
        <ele>807.15997314453</ele>
        <time>2024-09-26T10:11:55.000Z</time>
      </trkpt>
      <trkpt lat="40.94265" lon="20.24853">
        <ele>807.15997314453</ele>
        <time>2024-09-26T10:11:56.000Z</time>
      </trkpt>
      <trkpt lat="40.94263" lon="20.24842">
        <ele>807.64001464844</ele>
        <time>2024-09-26T10:11:57.000Z</time>
      </trkpt>
      <trkpt lat="40.94258" lon="20.24831">
        <ele>807.64001464844</ele>
        <time>2024-09-26T10:11:58.000Z</time>
      </trkpt>
      <trkpt lat="40.94252" lon="20.24821">
        <ele>807.64001464844</ele>
        <time>2024-09-26T10:11:59.000Z</time>
      </trkpt>
      <trkpt lat="40.94243" lon="20.24811">
        <ele>807.64001464844</ele>
        <time>2024-09-26T10:12:00.000Z</time>
      </trkpt>
      <trkpt lat="40.94231" lon="20.24801">
        <ele>807.64001464844</ele>
        <time>2024-09-26T10:12:01.000Z</time>
      </trkpt>
      <trkpt lat="40.94219" lon="20.24791">
        <ele>807.64001464844</ele>
        <time>2024-09-26T10:12:02.000Z</time>
      </trkpt>
      <trkpt lat="40.9421" lon="20.24786">
        <ele>808.13000488281</ele>
        <time>2024-09-26T10:12:03.000Z</time>
      </trkpt>
      <trkpt lat="40.94198" lon="20.2478">
        <ele>809.09002685547</ele>
        <time>2024-09-26T10:12:04.000Z</time>
      </trkpt>
      <trkpt lat="40.94192" lon="20.24774">
        <ele>809.57000732422</ele>
        <time>2024-09-26T10:12:05.000Z</time>
      </trkpt>
      <trkpt lat="40.94187" lon="20.24766">
        <ele>810.04998779297</ele>
        <time>2024-09-26T10:12:06.000Z</time>
      </trkpt>
      <trkpt lat="40.94183" lon="20.24756">
        <ele>810.53002929688</ele>
        <time>2024-09-26T10:12:07.000Z</time>
      </trkpt>
      <trkpt lat="40.9418" lon="20.24743">
        <ele>810.53002929688</ele>
        <time>2024-09-26T10:12:08.000Z</time>
      </trkpt>
      <trkpt lat="40.94177" lon="20.24733">
        <ele>810.53002929688</ele>
        <time>2024-09-26T10:12:09.000Z</time>
      </trkpt>
      <trkpt lat="40.94173" lon="20.24723">
        <ele>810.53002929688</ele>
        <time>2024-09-26T10:12:10.000Z</time>
      </trkpt>
      <trkpt lat="40.94162" lon="20.24703">
        <ele>811.01000976562</ele>
        <time>2024-09-26T10:12:12.000Z</time>
      </trkpt>
      <trkpt lat="40.94153" lon="20.2469">
        <ele>811.48999023438</ele>
        <time>2024-09-26T10:12:13.000Z</time>
      </trkpt>
      <trkpt lat="40.9415" lon="20.24686">
        <ele>811.48999023438</ele>
        <time>2024-09-26T10:12:14.000Z</time>
      </trkpt>
      <trkpt lat="40.94143" lon="20.24676">
        <ele>811.48999023438</ele>
        <time>2024-09-26T10:12:15.000Z</time>
      </trkpt>
      <trkpt lat="40.94134" lon="20.24668">
        <ele>811.96997070312</ele>
        <time>2024-09-26T10:12:16.000Z</time>
      </trkpt>
      <trkpt lat="40.94125" lon="20.24661">
        <ele>811.96997070312</ele>
        <time>2024-09-26T10:12:17.000Z</time>
      </trkpt>
      <trkpt lat="40.94113" lon="20.24655">
        <ele>812.92999267578</ele>
        <time>2024-09-26T10:12:18.000Z</time>
      </trkpt>
      <trkpt lat="40.94094" lon="20.24646">
        <ele>813.40997314453</ele>
        <time>2024-09-26T10:12:20.000Z</time>
      </trkpt>
      <trkpt lat="40.94086" lon="20.24642">
        <ele>813.89001464844</ele>
        <time>2024-09-26T10:12:21.000Z</time>
      </trkpt>
      <trkpt lat="40.9408" lon="20.24637">
        <ele>814.36999511719</ele>
        <time>2024-09-26T10:12:22.000Z</time>
      </trkpt>
      <trkpt lat="40.94076" lon="20.24629">
        <ele>814.36999511719</ele>
        <time>2024-09-26T10:12:23.000Z</time>
      </trkpt>
      <trkpt lat="40.94072" lon="20.24615">
        <ele>814.84997558594</ele>
        <time>2024-09-26T10:12:24.000Z</time>
      </trkpt>
      <trkpt lat="40.9407" lon="20.24611">
        <ele>814.84997558594</ele>
        <time>2024-09-26T10:12:25.000Z</time>
      </trkpt>
      <trkpt lat="40.94066" lon="20.24603">
        <ele>815.34002685547</ele>
        <time>2024-09-26T10:12:26.000Z</time>
      </trkpt>
      <trkpt lat="40.94059" lon="20.24596">
        <ele>815.82000732422</ele>
        <time>2024-09-26T10:12:27.000Z</time>
      </trkpt>
      <trkpt lat="40.94052" lon="20.24593">
        <ele>815.82000732422</ele>
        <time>2024-09-26T10:12:28.000Z</time>
      </trkpt>
      <trkpt lat="40.94046" lon="20.24592">
        <ele>816.29998779297</ele>
        <time>2024-09-26T10:12:29.000Z</time>
      </trkpt>
      <trkpt lat="40.9404" lon="20.24594">
        <ele>817.26000976562</ele>
        <time>2024-09-26T10:12:30.000Z</time>
      </trkpt>
      <trkpt lat="40.94031" lon="20.24598">
        <ele>818.21997070312</ele>
        <time>2024-09-26T10:12:31.000Z</time>
      </trkpt>
      <trkpt lat="40.94027" lon="20.246">
        <ele>818.70001220703</ele>
        <time>2024-09-26T10:12:32.000Z</time>
      </trkpt>
      <trkpt lat="40.94021" lon="20.24603">
        <ele>819.17999267578</ele>
        <time>2024-09-26T10:12:33.000Z</time>
      </trkpt>
      <trkpt lat="40.94005" lon="20.24612">
        <ele>819.65997314453</ele>
        <time>2024-09-26T10:12:35.000Z</time>
      </trkpt>
      <trkpt lat="40.93998" lon="20.24615">
        <ele>819.65997314453</ele>
        <time>2024-09-26T10:12:36.000Z</time>
      </trkpt>
      <trkpt lat="40.93975" lon="20.24621">
        <ele>819.65997314453</ele>
        <time>2024-09-26T10:12:38.000Z</time>
      </trkpt>
      <trkpt lat="40.93958" lon="20.24626">
        <ele>819.65997314453</ele>
        <time>2024-09-26T10:12:39.000Z</time>
      </trkpt>
      <trkpt lat="40.93956" lon="20.24626">
        <ele>819.65997314453</ele>
        <time>2024-09-26T10:12:40.000Z</time>
      </trkpt>
      <trkpt lat="40.9395" lon="20.24626">
        <ele>819.65997314453</ele>
        <time>2024-09-26T10:12:41.000Z</time>
      </trkpt>
      <trkpt lat="40.93945" lon="20.24623">
        <ele>819.65997314453</ele>
        <time>2024-09-26T10:12:42.000Z</time>
      </trkpt>
      <trkpt lat="40.93942" lon="20.24619">
        <ele>819.65997314453</ele>
        <time>2024-09-26T10:12:43.000Z</time>
      </trkpt>
      <trkpt lat="40.93939" lon="20.24612">
        <ele>819.65997314453</ele>
        <time>2024-09-26T10:12:44.000Z</time>
      </trkpt>
      <trkpt lat="40.93934" lon="20.24565">
        <ele>819.65997314453</ele>
        <time>2024-09-26T10:12:47.000Z</time>
      </trkpt>
      <trkpt lat="40.93933" lon="20.24552">
        <ele>819.65997314453</ele>
        <time>2024-09-26T10:12:48.000Z</time>
      </trkpt>
      <trkpt lat="40.93933" lon="20.24549">
        <ele>819.65997314453</ele>
        <time>2024-09-26T10:12:49.000Z</time>
      </trkpt>
      <trkpt lat="40.93934" lon="20.24534">
        <ele>819.65997314453</ele>
        <time>2024-09-26T10:12:50.000Z</time>
      </trkpt>
      <trkpt lat="40.93937" lon="20.24502">
        <ele>819.65997314453</ele>
        <time>2024-09-26T10:12:52.000Z</time>
      </trkpt>
      <trkpt lat="40.93938" lon="20.24495">
        <ele>819.65997314453</ele>
        <time>2024-09-26T10:12:53.000Z</time>
      </trkpt>
      <trkpt lat="40.93941" lon="20.24484">
        <ele>820.14001464844</ele>
        <time>2024-09-26T10:12:54.000Z</time>
      </trkpt>
      <trkpt lat="40.93945" lon="20.24474">
        <ele>820.14001464844</ele>
        <time>2024-09-26T10:12:55.000Z</time>
      </trkpt>
      <trkpt lat="40.9395" lon="20.24462">
        <ele>820.14001464844</ele>
        <time>2024-09-26T10:12:56.000Z</time>
      </trkpt>
      <trkpt lat="40.93953" lon="20.24451">
        <ele>819.65997314453</ele>
        <time>2024-09-26T10:12:57.000Z</time>
      </trkpt>
      <trkpt lat="40.93955" lon="20.24423">
        <ele>819.17999267578</ele>
        <time>2024-09-26T10:12:59.000Z</time>
      </trkpt>
      <trkpt lat="40.93957" lon="20.24412">
        <ele>818.70001220703</ele>
        <time>2024-09-26T10:13:00.000Z</time>
      </trkpt>
      <trkpt lat="40.9396" lon="20.24403">
        <ele>818.70001220703</ele>
        <time>2024-09-26T10:13:01.000Z</time>
      </trkpt>
      <trkpt lat="40.93974" lon="20.24388">
        <ele>819.17999267578</ele>
        <time>2024-09-26T10:13:03.000Z</time>
      </trkpt>
      <trkpt lat="40.93978" lon="20.24383">
        <ele>818.70001220703</ele>
        <time>2024-09-26T10:13:04.000Z</time>
      </trkpt>
      <trkpt lat="40.93984" lon="20.24375">
        <ele>818.70001220703</ele>
        <time>2024-09-26T10:13:05.000Z</time>
      </trkpt>
      <trkpt lat="40.93989" lon="20.24367">
        <ele>818.70001220703</ele>
        <time>2024-09-26T10:13:06.000Z</time>
      </trkpt>
      <trkpt lat="40.93993" lon="20.24357">
        <ele>818.70001220703</ele>
        <time>2024-09-26T10:13:07.000Z</time>
      </trkpt>
      <trkpt lat="40.93996" lon="20.24349">
        <ele>818.70001220703</ele>
        <time>2024-09-26T10:13:08.000Z</time>
      </trkpt>
      <trkpt lat="40.94" lon="20.24336">
        <ele>818.21997070312</ele>
        <time>2024-09-26T10:13:09.000Z</time>
      </trkpt>
      <trkpt lat="40.94002" lon="20.24334">
        <ele>817.73999023438</ele>
        <time>2024-09-26T10:13:10.000Z</time>
      </trkpt>
      <trkpt lat="40.94005" lon="20.24325">
        <ele>817.26000976562</ele>
        <time>2024-09-26T10:13:11.000Z</time>
      </trkpt>
      <trkpt lat="40.94008" lon="20.24316">
        <ele>817.26000976562</ele>
        <time>2024-09-26T10:13:12.000Z</time>
      </trkpt>
      <trkpt lat="40.94009" lon="20.24314">
        <ele>816.78002929688</ele>
        <time>2024-09-26T10:13:13.000Z</time>
      </trkpt>
      <trkpt lat="40.94013" lon="20.243">
        <ele>816.29998779297</ele>
        <time>2024-09-26T10:13:15.000Z</time>
      </trkpt>
      <trkpt lat="40.94015" lon="20.24291">
        <ele>815.82000732422</ele>
        <time>2024-09-26T10:13:16.000Z</time>
      </trkpt>
      <trkpt lat="40.94029" lon="20.24264">
        <ele>814.84997558594</ele>
        <time>2024-09-26T10:13:24.000Z</time>
      </trkpt>
      <trkpt lat="40.9403" lon="20.24264">
        <ele>814.84997558594</ele>
        <time>2024-09-26T10:13:38.000Z</time>
      </trkpt>
      <trkpt lat="40.94039" lon="20.24274">
        <ele>815.34002685547</ele>
        <time>2024-09-26T10:14:16.000Z</time>
      </trkpt>
      <trkpt lat="40.9404" lon="20.24277">
        <ele>815.34002685547</ele>
        <time>2024-09-26T10:14:17.000Z</time>
      </trkpt>
      <trkpt lat="40.94042" lon="20.24285">
        <ele>814.84997558594</ele>
        <time>2024-09-26T10:14:18.000Z</time>
      </trkpt>
      <trkpt lat="40.94045" lon="20.24293">
        <ele>814.84997558594</ele>
        <time>2024-09-26T10:14:19.000Z</time>
      </trkpt>
      <trkpt lat="40.94049" lon="20.243">
        <ele>814.36999511719</ele>
        <time>2024-09-26T10:14:20.000Z</time>
      </trkpt>
      <trkpt lat="40.94053" lon="20.24307">
        <ele>813.89001464844</ele>
        <time>2024-09-26T10:14:21.000Z</time>
      </trkpt>
      <trkpt lat="40.94058" lon="20.24315">
        <ele>813.40997314453</ele>
        <time>2024-09-26T10:14:22.000Z</time>
      </trkpt>
      <trkpt lat="40.94062" lon="20.24321">
        <ele>813.40997314453</ele>
        <time>2024-09-26T10:14:23.000Z</time>
      </trkpt>
      <trkpt lat="40.94067" lon="20.24333">
        <ele>812.45001220703</ele>
        <time>2024-09-26T10:14:24.000Z</time>
      </trkpt>
      <trkpt lat="40.94067" lon="20.24335">
        <ele>812.45001220703</ele>
        <time>2024-09-26T10:14:25.000Z</time>
      </trkpt>
      <trkpt lat="40.9407" lon="20.24341">
        <ele>811.96997070312</ele>
        <time>2024-09-26T10:14:26.000Z</time>
      </trkpt>
      <trkpt lat="40.94074" lon="20.24345">
        <ele>811.96997070312</ele>
        <time>2024-09-26T10:14:27.000Z</time>
      </trkpt>
      <trkpt lat="40.94078" lon="20.24351">
        <ele>811.48999023438</ele>
        <time>2024-09-26T10:14:28.000Z</time>
      </trkpt>
      <trkpt lat="40.94087" lon="20.24367">
        <ele>811.01000976562</ele>
        <time>2024-09-26T10:14:30.000Z</time>
      </trkpt>
      <trkpt lat="40.94092" lon="20.24374">
        <ele>810.53002929688</ele>
        <time>2024-09-26T10:14:31.000Z</time>
      </trkpt>
      <trkpt lat="40.94098" lon="20.24382">
        <ele>810.53002929688</ele>
        <time>2024-09-26T10:14:32.000Z</time>
      </trkpt>
      <trkpt lat="40.94101" lon="20.24386">
        <ele>810.53002929688</ele>
        <time>2024-09-26T10:14:33.000Z</time>
      </trkpt>
      <trkpt lat="40.94105" lon="20.24391">
        <ele>810.04998779297</ele>
        <time>2024-09-26T10:14:34.000Z</time>
      </trkpt>
      <trkpt lat="40.9411" lon="20.24398">
        <ele>810.04998779297</ele>
        <time>2024-09-26T10:14:35.000Z</time>
      </trkpt>
      <trkpt lat="40.94112" lon="20.24403">
        <ele>810.04998779297</ele>
        <time>2024-09-26T10:14:36.000Z</time>
      </trkpt>
      <trkpt lat="40.94114" lon="20.24408">
        <ele>809.57000732422</ele>
        <time>2024-09-26T10:14:37.000Z</time>
      </trkpt>
      <trkpt lat="40.94117" lon="20.24413">
        <ele>809.57000732422</ele>
        <time>2024-09-26T10:14:38.000Z</time>
      </trkpt>
      <trkpt lat="40.94121" lon="20.24417">
        <ele>809.09002685547</ele>
        <time>2024-09-26T10:14:39.000Z</time>
      </trkpt>
      <trkpt lat="40.94126" lon="20.24418">
        <ele>809.09002685547</ele>
        <time>2024-09-26T10:14:40.000Z</time>
      </trkpt>
      <trkpt lat="40.94131" lon="20.24416">
        <ele>808.60998535156</ele>
        <time>2024-09-26T10:14:41.000Z</time>
      </trkpt>
      <trkpt lat="40.94137" lon="20.24411">
        <ele>808.13000488281</ele>
        <time>2024-09-26T10:14:42.000Z</time>
      </trkpt>
      <trkpt lat="40.94144" lon="20.24404">
        <ele>808.13000488281</ele>
        <time>2024-09-26T10:14:43.000Z</time>
      </trkpt>
      <trkpt lat="40.9415" lon="20.24399">
        <ele>808.13000488281</ele>
        <time>2024-09-26T10:14:44.000Z</time>
      </trkpt>
      <trkpt lat="40.94156" lon="20.24396">
        <ele>808.13000488281</ele>
        <time>2024-09-26T10:14:45.000Z</time>
      </trkpt>
      <trkpt lat="40.94165" lon="20.24392">
        <ele>807.64001464844</ele>
        <time>2024-09-26T10:14:46.000Z</time>
      </trkpt>
      <trkpt lat="40.94172" lon="20.24389">
        <ele>807.64001464844</ele>
        <time>2024-09-26T10:14:47.000Z</time>
      </trkpt>
      <trkpt lat="40.94176" lon="20.24387">
        <ele>807.64001464844</ele>
        <time>2024-09-26T10:14:48.000Z</time>
      </trkpt>
      <trkpt lat="40.94181" lon="20.24382">
        <ele>807.15997314453</ele>
        <time>2024-09-26T10:14:49.000Z</time>
      </trkpt>
      <trkpt lat="40.94186" lon="20.24375">
        <ele>807.15997314453</ele>
        <time>2024-09-26T10:14:50.000Z</time>
      </trkpt>
      <trkpt lat="40.94191" lon="20.24366">
        <ele>806.67999267578</ele>
        <time>2024-09-26T10:14:51.000Z</time>
      </trkpt>
      <trkpt lat="40.94194" lon="20.24361">
        <ele>806.67999267578</ele>
        <time>2024-09-26T10:14:52.000Z</time>
      </trkpt>
      <trkpt lat="40.94197" lon="20.24354">
        <ele>806.20001220703</ele>
        <time>2024-09-26T10:14:53.000Z</time>
      </trkpt>
      <trkpt lat="40.94202" lon="20.24341">
        <ele>806.20001220703</ele>
        <time>2024-09-26T10:14:54.000Z</time>
      </trkpt>
      <trkpt lat="40.94204" lon="20.24335">
        <ele>806.20001220703</ele>
        <time>2024-09-26T10:14:55.000Z</time>
      </trkpt>
      <trkpt lat="40.94209" lon="20.24322">
        <ele>805.71997070312</ele>
        <time>2024-09-26T10:14:56.000Z</time>
      </trkpt>
      <trkpt lat="40.9421" lon="20.24319">
        <ele>805.71997070312</ele>
        <time>2024-09-26T10:14:57.000Z</time>
      </trkpt>
      <trkpt lat="40.94212" lon="20.24312">
        <ele>805.71997070312</ele>
        <time>2024-09-26T10:14:58.000Z</time>
      </trkpt>
      <trkpt lat="40.94216" lon="20.24298">
        <ele>805.71997070312</ele>
        <time>2024-09-26T10:14:59.000Z</time>
      </trkpt>
      <trkpt lat="40.94216" lon="20.24297">
        <ele>805.71997070312</ele>
        <time>2024-09-26T10:15:00.000Z</time>
      </trkpt>
      <trkpt lat="40.94218" lon="20.24289">
        <ele>805.23999023438</ele>
        <time>2024-09-26T10:15:01.000Z</time>
      </trkpt>
      <trkpt lat="40.94221" lon="20.24283">
        <ele>805.23999023438</ele>
        <time>2024-09-26T10:15:02.000Z</time>
      </trkpt>
      <trkpt lat="40.94224" lon="20.24278">
        <ele>804.76000976562</ele>
        <time>2024-09-26T10:15:03.000Z</time>
      </trkpt>
      <trkpt lat="40.94228" lon="20.24274">
        <ele>804.28002929688</ele>
        <time>2024-09-26T10:15:04.000Z</time>
      </trkpt>
      <trkpt lat="40.94232" lon="20.24271">
        <ele>804.28002929688</ele>
        <time>2024-09-26T10:15:05.000Z</time>
      </trkpt>
      <trkpt lat="40.94238" lon="20.24267">
        <ele>804.28002929688</ele>
        <time>2024-09-26T10:15:06.000Z</time>
      </trkpt>
      <trkpt lat="40.94245" lon="20.24265">
        <ele>803.79998779297</ele>
        <time>2024-09-26T10:15:07.000Z</time>
      </trkpt>
      <trkpt lat="40.94251" lon="20.24264">
        <ele>803.79998779297</ele>
        <time>2024-09-26T10:15:08.000Z</time>
      </trkpt>
      <trkpt lat="40.94258" lon="20.24265">
        <ele>803.79998779297</ele>
        <time>2024-09-26T10:15:09.000Z</time>
      </trkpt>
      <trkpt lat="40.94265" lon="20.24267">
        <ele>803.32000732422</ele>
        <time>2024-09-26T10:15:10.000Z</time>
      </trkpt>
      <trkpt lat="40.94275" lon="20.24275">
        <ele>802.84002685547</ele>
        <time>2024-09-26T10:15:11.000Z</time>
      </trkpt>
      <trkpt lat="40.9428" lon="20.24278">
        <ele>802.35998535156</ele>
        <time>2024-09-26T10:15:12.000Z</time>
      </trkpt>
      <trkpt lat="40.94288" lon="20.24283">
        <ele>801.88000488281</ele>
        <time>2024-09-26T10:15:13.000Z</time>
      </trkpt>
      <trkpt lat="40.94296" lon="20.24286">
        <ele>801.40002441406</ele>
        <time>2024-09-26T10:15:14.000Z</time>
      </trkpt>
      <trkpt lat="40.94304" lon="20.24291">
        <ele>800.91998291016</ele>
        <time>2024-09-26T10:15:15.000Z</time>
      </trkpt>
      <trkpt lat="40.94314" lon="20.24296">
        <ele>799.46997070312</ele>
        <time>2024-09-26T10:15:16.000Z</time>
      </trkpt>
      <trkpt lat="40.94316" lon="20.24297">
        <ele>799.46997070312</ele>
        <time>2024-09-26T10:15:17.000Z</time>
      </trkpt>
      <trkpt lat="40.94323" lon="20.243">
        <ele>798.98999023438</ele>
        <time>2024-09-26T10:15:18.000Z</time>
      </trkpt>
      <trkpt lat="40.94328" lon="20.24301">
        <ele>798.51000976562</ele>
        <time>2024-09-26T10:15:19.000Z</time>
      </trkpt>
      <trkpt lat="40.94335" lon="20.243">
        <ele>798.03002929688</ele>
        <time>2024-09-26T10:15:20.000Z</time>
      </trkpt>
      <trkpt lat="40.9434" lon="20.24296">
        <ele>797.54998779297</ele>
        <time>2024-09-26T10:15:21.000Z</time>
      </trkpt>
      <trkpt lat="40.94345" lon="20.24291">
        <ele>797.54998779297</ele>
        <time>2024-09-26T10:15:22.000Z</time>
      </trkpt>
      <trkpt lat="40.94347" lon="20.24285">
        <ele>797.54998779297</ele>
        <time>2024-09-26T10:15:23.000Z</time>
      </trkpt>
      <trkpt lat="40.94347" lon="20.24278">
        <ele>797.54998779297</ele>
        <time>2024-09-26T10:15:24.000Z</time>
      </trkpt>
      <trkpt lat="40.94346" lon="20.24269">
        <ele>797.54998779297</ele>
        <time>2024-09-26T10:15:25.000Z</time>
      </trkpt>
      <trkpt lat="40.94345" lon="20.24259">
        <ele>797.07000732422</ele>
        <time>2024-09-26T10:15:26.000Z</time>
      </trkpt>
      <trkpt lat="40.94347" lon="20.24249">
        <ele>797.07000732422</ele>
        <time>2024-09-26T10:15:27.000Z</time>
      </trkpt>
      <trkpt lat="40.94352" lon="20.24231">
        <ele>797.07000732422</ele>
        <time>2024-09-26T10:15:28.000Z</time>
      </trkpt>
      <trkpt lat="40.94354" lon="20.24226">
        <ele>796.59002685547</ele>
        <time>2024-09-26T10:15:29.000Z</time>
      </trkpt>
      <trkpt lat="40.9436" lon="20.24213">
        <ele>796.10998535156</ele>
        <time>2024-09-26T10:15:30.000Z</time>
      </trkpt>
      <trkpt lat="40.94363" lon="20.24206">
        <ele>796.10998535156</ele>
        <time>2024-09-26T10:15:31.000Z</time>
      </trkpt>
      <trkpt lat="40.94367" lon="20.24195">
        <ele>795.15002441406</ele>
        <time>2024-09-26T10:15:32.000Z</time>
      </trkpt>
      <trkpt lat="40.94368" lon="20.2419">
        <ele>795.15002441406</ele>
        <time>2024-09-26T10:15:33.000Z</time>
      </trkpt>
      <trkpt lat="40.94369" lon="20.24181">
        <ele>795.15002441406</ele>
        <time>2024-09-26T10:15:34.000Z</time>
      </trkpt>
      <trkpt lat="40.94368" lon="20.24173">
        <ele>794.66998291016</ele>
        <time>2024-09-26T10:15:35.000Z</time>
      </trkpt>
      <trkpt lat="40.94369" lon="20.24164">
        <ele>794.19000244141</ele>
        <time>2024-09-26T10:15:36.000Z</time>
      </trkpt>
      <trkpt lat="40.94371" lon="20.24157">
        <ele>793.71002197266</ele>
        <time>2024-09-26T10:15:37.000Z</time>
      </trkpt>
      <trkpt lat="40.94375" lon="20.24151">
        <ele>793.21997070312</ele>
        <time>2024-09-26T10:15:38.000Z</time>
      </trkpt>
      <trkpt lat="40.9438" lon="20.24147">
        <ele>792.26000976562</ele>
        <time>2024-09-26T10:15:39.000Z</time>
      </trkpt>
      <trkpt lat="40.94387" lon="20.24143">
        <ele>791.29998779297</ele>
        <time>2024-09-26T10:15:40.000Z</time>
      </trkpt>
      <trkpt lat="40.94394" lon="20.24139">
        <ele>789.85998535156</ele>
        <time>2024-09-26T10:15:41.000Z</time>
      </trkpt>
      <trkpt lat="40.94401" lon="20.24134">
        <ele>788.90002441406</ele>
        <time>2024-09-26T10:15:42.000Z</time>
      </trkpt>
      <trkpt lat="40.94407" lon="20.24127">
        <ele>788.41998291016</ele>
        <time>2024-09-26T10:15:43.000Z</time>
      </trkpt>
      <trkpt lat="40.94412" lon="20.24118">
        <ele>787.94000244141</ele>
        <time>2024-09-26T10:15:44.000Z</time>
      </trkpt>
      <trkpt lat="40.94416" lon="20.24109">
        <ele>786.97998046875</ele>
        <time>2024-09-26T10:15:45.000Z</time>
      </trkpt>
      <trkpt lat="40.9442" lon="20.24102">
        <ele>786.5</ele>
        <time>2024-09-26T10:15:46.000Z</time>
      </trkpt>
      <trkpt lat="40.94425" lon="20.24095">
        <ele>786.02001953125</ele>
        <time>2024-09-26T10:15:47.000Z</time>
      </trkpt>
      <trkpt lat="40.94429" lon="20.24088">
        <ele>785.04998779297</ele>
        <time>2024-09-26T10:15:48.000Z</time>
      </trkpt>
      <trkpt lat="40.94432" lon="20.24079">
        <ele>784.57000732422</ele>
        <time>2024-09-26T10:15:49.000Z</time>
      </trkpt>
      <trkpt lat="40.94434" lon="20.24074">
        <ele>784.09002685547</ele>
        <time>2024-09-26T10:15:50.000Z</time>
      </trkpt>
      <trkpt lat="40.94436" lon="20.24058">
        <ele>782.65002441406</ele>
        <time>2024-09-26T10:15:51.000Z</time>
      </trkpt>
      <trkpt lat="40.94436" lon="20.24056">
        <ele>782.65002441406</ele>
        <time>2024-09-26T10:15:52.000Z</time>
      </trkpt>
      <trkpt lat="40.94439" lon="20.24049">
        <ele>781.69000244141</ele>
        <time>2024-09-26T10:15:53.000Z</time>
      </trkpt>
      <trkpt lat="40.94441" lon="20.2404">
        <ele>781.21002197266</ele>
        <time>2024-09-26T10:15:54.000Z</time>
      </trkpt>
      <trkpt lat="40.94443" lon="20.24034">
        <ele>780.25</ele>
        <time>2024-09-26T10:15:55.000Z</time>
      </trkpt>
      <trkpt lat="40.94442" lon="20.24026">
        <ele>779.28997802734</ele>
        <time>2024-09-26T10:15:56.000Z</time>
      </trkpt>
      <trkpt lat="40.94439" lon="20.24018">
        <ele>778.32000732422</ele>
        <time>2024-09-26T10:15:57.000Z</time>
      </trkpt>
      <trkpt lat="40.94433" lon="20.24005">
        <ele>776.88000488281</ele>
        <time>2024-09-26T10:15:58.000Z</time>
      </trkpt>
      <trkpt lat="40.94423" lon="20.23984">
        <ele>775.91998291016</ele>
        <time>2024-09-26T10:16:00.000Z</time>
      </trkpt>
      <trkpt lat="40.9442" lon="20.23975">
        <ele>775.44000244141</ele>
        <time>2024-09-26T10:16:01.000Z</time>
      </trkpt>
      <trkpt lat="40.94416" lon="20.23965">
        <ele>774.96002197266</ele>
        <time>2024-09-26T10:16:02.000Z</time>
      </trkpt>
      <trkpt lat="40.94413" lon="20.23955">
        <ele>774.47998046875</ele>
        <time>2024-09-26T10:16:03.000Z</time>
      </trkpt>
      <trkpt lat="40.94412" lon="20.23944">
        <ele>774</ele>
        <time>2024-09-26T10:16:04.000Z</time>
      </trkpt>
      <trkpt lat="40.9441" lon="20.23924">
        <ele>773.03997802734</ele>
        <time>2024-09-26T10:16:05.000Z</time>
      </trkpt>
      <trkpt lat="40.94407" lon="20.23885">
        <ele>772.55999755859</ele>
        <time>2024-09-26T10:16:09.000Z</time>
      </trkpt>
      <trkpt lat="40.94405" lon="20.23863">
        <ele>772.55999755859</ele>
        <time>2024-09-26T10:16:11.000Z</time>
      </trkpt>
      <trkpt lat="40.94403" lon="20.23851">
        <ele>772.55999755859</ele>
        <time>2024-09-26T10:16:12.000Z</time>
      </trkpt>
      <trkpt lat="40.94402" lon="20.23846">
        <ele>772.55999755859</ele>
        <time>2024-09-26T10:16:13.000Z</time>
      </trkpt>
      <trkpt lat="40.94402" lon="20.23835">
        <ele>773.03997802734</ele>
        <time>2024-09-26T10:16:14.000Z</time>
      </trkpt>
      <trkpt lat="40.94404" lon="20.23825">
        <ele>773.03997802734</ele>
        <time>2024-09-26T10:16:15.000Z</time>
      </trkpt>
      <trkpt lat="40.94405" lon="20.23815">
        <ele>773.52001953125</ele>
        <time>2024-09-26T10:16:16.000Z</time>
      </trkpt>
      <trkpt lat="40.94405" lon="20.23805">
        <ele>773.52001953125</ele>
        <time>2024-09-26T10:16:17.000Z</time>
      </trkpt>
      <trkpt lat="40.94403" lon="20.23797">
        <ele>773.52001953125</ele>
        <time>2024-09-26T10:16:18.000Z</time>
      </trkpt>
      <trkpt lat="40.944" lon="20.23785">
        <ele>773.03997802734</ele>
        <time>2024-09-26T10:16:19.000Z</time>
      </trkpt>
      <trkpt lat="40.94398" lon="20.23777">
        <ele>772.55999755859</ele>
        <time>2024-09-26T10:16:20.000Z</time>
      </trkpt>
      <trkpt lat="40.94398" lon="20.23768">
        <ele>771.10998535156</ele>
        <time>2024-09-26T10:16:21.000Z</time>
      </trkpt>
      <trkpt lat="40.94398" lon="20.23757">
        <ele>770.15002441406</ele>
        <time>2024-09-26T10:16:22.000Z</time>
      </trkpt>
      <trkpt lat="40.944" lon="20.23746">
        <ele>769.66998291016</ele>
        <time>2024-09-26T10:16:23.000Z</time>
      </trkpt>
      <trkpt lat="40.94408" lon="20.23725">
        <ele>768.22998046875</ele>
        <time>2024-09-26T10:16:25.000Z</time>
      </trkpt>
      <trkpt lat="40.9441" lon="20.23715">
        <ele>767.27001953125</ele>
        <time>2024-09-26T10:16:26.000Z</time>
      </trkpt>
      <trkpt lat="40.94412" lon="20.23702">
        <ele>766.78997802734</ele>
        <time>2024-09-26T10:16:27.000Z</time>
      </trkpt>
      <trkpt lat="40.94412" lon="20.23693">
        <ele>766.30999755859</ele>
        <time>2024-09-26T10:16:28.000Z</time>
      </trkpt>
      <trkpt lat="40.94411" lon="20.23683">
        <ele>765.83001708984</ele>
        <time>2024-09-26T10:16:29.000Z</time>
      </trkpt>
      <trkpt lat="40.94409" lon="20.23673">
        <ele>765.83001708984</ele>
        <time>2024-09-26T10:16:30.000Z</time>
      </trkpt>
      <trkpt lat="40.94405" lon="20.23666">
        <ele>765.34997558594</ele>
        <time>2024-09-26T10:16:31.000Z</time>
      </trkpt>
      <trkpt lat="40.94399" lon="20.23658">
        <ele>764.86999511719</ele>
        <time>2024-09-26T10:16:32.000Z</time>
      </trkpt>
      <trkpt lat="40.94392" lon="20.23651">
        <ele>764.86999511719</ele>
        <time>2024-09-26T10:16:33.000Z</time>
      </trkpt>
      <trkpt lat="40.94384" lon="20.23647">
        <ele>765.34997558594</ele>
        <time>2024-09-26T10:16:34.000Z</time>
      </trkpt>
      <trkpt lat="40.9437" lon="20.23644">
        <ele>765.34997558594</ele>
        <time>2024-09-26T10:16:35.000Z</time>
      </trkpt>
      <trkpt lat="40.94369" lon="20.23643">
        <ele>765.34997558594</ele>
        <time>2024-09-26T10:16:36.000Z</time>
      </trkpt>
      <trkpt lat="40.94358" lon="20.23638">
        <ele>765.83001708984</ele>
        <time>2024-09-26T10:16:37.000Z</time>
      </trkpt>
      <trkpt lat="40.94352" lon="20.23635">
        <ele>765.83001708984</ele>
        <time>2024-09-26T10:16:38.000Z</time>
      </trkpt>
      <trkpt lat="40.94348" lon="20.23633">
        <ele>765.83001708984</ele>
        <time>2024-09-26T10:16:39.000Z</time>
      </trkpt>
      <trkpt lat="40.94343" lon="20.2363">
        <ele>765.83001708984</ele>
        <time>2024-09-26T10:16:40.000Z</time>
      </trkpt>
      <trkpt lat="40.94339" lon="20.23625">
        <ele>765.83001708984</ele>
        <time>2024-09-26T10:16:41.000Z</time>
      </trkpt>
      <trkpt lat="40.94336" lon="20.23617">
        <ele>765.83001708984</ele>
        <time>2024-09-26T10:16:42.000Z</time>
      </trkpt>
      <trkpt lat="40.94335" lon="20.23608">
        <ele>765.34997558594</ele>
        <time>2024-09-26T10:16:43.000Z</time>
      </trkpt>
      <trkpt lat="40.94336" lon="20.23598">
        <ele>764.39001464844</ele>
        <time>2024-09-26T10:16:44.000Z</time>
      </trkpt>
      <trkpt lat="40.94339" lon="20.23587">
        <ele>763.90002441406</ele>
        <time>2024-09-26T10:16:45.000Z</time>
      </trkpt>
      <trkpt lat="40.94343" lon="20.23578">
        <ele>762.94000244141</ele>
        <time>2024-09-26T10:16:46.000Z</time>
      </trkpt>
      <trkpt lat="40.94347" lon="20.23567">
        <ele>762.46002197266</ele>
        <time>2024-09-26T10:16:47.000Z</time>
      </trkpt>
      <trkpt lat="40.9435" lon="20.2356">
        <ele>761.97998046875</ele>
        <time>2024-09-26T10:16:48.000Z</time>
      </trkpt>
      <trkpt lat="40.94352" lon="20.23551">
        <ele>761.5</ele>
        <time>2024-09-26T10:16:49.000Z</time>
      </trkpt>
      <trkpt lat="40.94352" lon="20.23542">
        <ele>761.02001953125</ele>
        <time>2024-09-26T10:16:50.000Z</time>
      </trkpt>
      <trkpt lat="40.94351" lon="20.23532">
        <ele>761.02001953125</ele>
        <time>2024-09-26T10:16:51.000Z</time>
      </trkpt>
      <trkpt lat="40.9435" lon="20.23524">
        <ele>761.02001953125</ele>
        <time>2024-09-26T10:16:52.000Z</time>
      </trkpt>
      <trkpt lat="40.94347" lon="20.23515">
        <ele>760.53997802734</ele>
        <time>2024-09-26T10:16:53.000Z</time>
      </trkpt>
      <trkpt lat="40.94342" lon="20.23508">
        <ele>760.53997802734</ele>
        <time>2024-09-26T10:16:54.000Z</time>
      </trkpt>
      <trkpt lat="40.94337" lon="20.23504">
        <ele>760.05999755859</ele>
        <time>2024-09-26T10:16:55.000Z</time>
      </trkpt>
      <trkpt lat="40.94331" lon="20.23501">
        <ele>760.05999755859</ele>
        <time>2024-09-26T10:16:56.000Z</time>
      </trkpt>
      <trkpt lat="40.94325" lon="20.23498">
        <ele>760.05999755859</ele>
        <time>2024-09-26T10:16:57.000Z</time>
      </trkpt>
      <trkpt lat="40.94316" lon="20.23494">
        <ele>760.53997802734</ele>
        <time>2024-09-26T10:16:58.000Z</time>
      </trkpt>
      <trkpt lat="40.9431" lon="20.23488">
        <ele>760.53997802734</ele>
        <time>2024-09-26T10:16:59.000Z</time>
      </trkpt>
      <trkpt lat="40.94304" lon="20.23482">
        <ele>761.02001953125</ele>
        <time>2024-09-26T10:17:00.000Z</time>
      </trkpt>
      <trkpt lat="40.94298" lon="20.23477">
        <ele>761.02001953125</ele>
        <time>2024-09-26T10:17:01.000Z</time>
      </trkpt>
      <trkpt lat="40.94292" lon="20.2347">
        <ele>760.53997802734</ele>
        <time>2024-09-26T10:17:02.000Z</time>
      </trkpt>
      <trkpt lat="40.94285" lon="20.23462">
        <ele>760.53997802734</ele>
        <time>2024-09-26T10:17:03.000Z</time>
      </trkpt>
      <trkpt lat="40.94277" lon="20.23448">
        <ele>760.05999755859</ele>
        <time>2024-09-26T10:17:04.000Z</time>
      </trkpt>
      <trkpt lat="40.94275" lon="20.23444">
        <ele>760.05999755859</ele>
        <time>2024-09-26T10:17:05.000Z</time>
      </trkpt>
      <trkpt lat="40.94266" lon="20.23432">
        <ele>760.05999755859</ele>
        <time>2024-09-26T10:17:06.000Z</time>
      </trkpt>
      <trkpt lat="40.94264" lon="20.23428">
        <ele>759.58001708984</ele>
        <time>2024-09-26T10:17:07.000Z</time>
      </trkpt>
      <trkpt lat="40.9426" lon="20.23423">
        <ele>759.58001708984</ele>
        <time>2024-09-26T10:17:08.000Z</time>
      </trkpt>
      <trkpt lat="40.94255" lon="20.23416">
        <ele>759.58001708984</ele>
        <time>2024-09-26T10:17:09.000Z</time>
      </trkpt>
      <trkpt lat="40.9425" lon="20.23406">
        <ele>759.09997558594</ele>
        <time>2024-09-26T10:17:10.000Z</time>
      </trkpt>
      <trkpt lat="40.94245" lon="20.23397">
        <ele>758.61999511719</ele>
        <time>2024-09-26T10:17:11.000Z</time>
      </trkpt>
      <trkpt lat="40.94242" lon="20.23392">
        <ele>758.14001464844</ele>
        <time>2024-09-26T10:17:12.000Z</time>
      </trkpt>
      <trkpt lat="40.94233" lon="20.23379">
        <ele>756.69000244141</ele>
        <time>2024-09-26T10:17:14.000Z</time>
      </trkpt>
      <trkpt lat="40.94229" lon="20.23373">
        <ele>756.21002197266</ele>
        <time>2024-09-26T10:17:15.000Z</time>
      </trkpt>
      <trkpt lat="40.94223" lon="20.23364">
        <ele>755.25</ele>
        <time>2024-09-26T10:17:16.000Z</time>
      </trkpt>
      <trkpt lat="40.94219" lon="20.23358">
        <ele>754.77001953125</ele>
        <time>2024-09-26T10:17:17.000Z</time>
      </trkpt>
      <trkpt lat="40.94216" lon="20.23353">
        <ele>754.28997802734</ele>
        <time>2024-09-26T10:17:18.000Z</time>
      </trkpt>
      <trkpt lat="40.94213" lon="20.23348">
        <ele>753.80999755859</ele>
        <time>2024-09-26T10:17:19.000Z</time>
      </trkpt>
      <trkpt lat="40.94209" lon="20.23344">
        <ele>753.33001708984</ele>
        <time>2024-09-26T10:17:20.000Z</time>
      </trkpt>
      <trkpt lat="40.94204" lon="20.23342">
        <ele>753.33001708984</ele>
        <time>2024-09-26T10:17:21.000Z</time>
      </trkpt>
      <trkpt lat="40.94199" lon="20.23345">
        <ele>753.33001708984</ele>
        <time>2024-09-26T10:17:22.000Z</time>
      </trkpt>
      <trkpt lat="40.94194" lon="20.23347">
        <ele>753.33001708984</ele>
        <time>2024-09-26T10:17:23.000Z</time>
      </trkpt>
      <trkpt lat="40.94179" lon="20.23359">
        <ele>754.28997802734</ele>
        <time>2024-09-26T10:17:29.000Z</time>
      </trkpt>
      <trkpt lat="40.94177" lon="20.23361">
        <ele>753.80999755859</ele>
        <time>2024-09-26T10:18:02.000Z</time>
      </trkpt>
      <trkpt lat="40.94165" lon="20.23366">
        <ele>753.80999755859</ele>
        <time>2024-09-26T10:18:05.000Z</time>
      </trkpt>
      <trkpt lat="40.94157" lon="20.23369">
        <ele>753.80999755859</ele>
        <time>2024-09-26T10:18:06.000Z</time>
      </trkpt>
      <trkpt lat="40.94151" lon="20.23371">
        <ele>754.28997802734</ele>
        <time>2024-09-26T10:18:07.000Z</time>
      </trkpt>
      <trkpt lat="40.94148" lon="20.23372">
        <ele>754.28997802734</ele>
        <time>2024-09-26T10:18:08.000Z</time>
      </trkpt>
      <trkpt lat="40.94139" lon="20.23373">
        <ele>754.77001953125</ele>
        <time>2024-09-26T10:18:09.000Z</time>
      </trkpt>
      <trkpt lat="40.94137" lon="20.23373">
        <ele>754.77001953125</ele>
        <time>2024-09-26T10:18:10.000Z</time>
      </trkpt>
      <trkpt lat="40.9413" lon="20.23374">
        <ele>754.77001953125</ele>
        <time>2024-09-26T10:18:11.000Z</time>
      </trkpt>
      <trkpt lat="40.94128" lon="20.23375">
        <ele>754.77001953125</ele>
        <time>2024-09-26T10:18:12.000Z</time>
      </trkpt>
      <trkpt lat="40.94119" lon="20.23375">
        <ele>754.28997802734</ele>
        <time>2024-09-26T10:18:13.000Z</time>
      </trkpt>
      <trkpt lat="40.94116" lon="20.23375">
        <ele>754.28997802734</ele>
        <time>2024-09-26T10:18:14.000Z</time>
      </trkpt>
      <trkpt lat="40.94111" lon="20.23376">
        <ele>753.80999755859</ele>
        <time>2024-09-26T10:18:15.000Z</time>
      </trkpt>
      <trkpt lat="40.94107" lon="20.23376">
        <ele>753.80999755859</ele>
        <time>2024-09-26T10:18:16.000Z</time>
      </trkpt>
      <trkpt lat="40.94103" lon="20.23377">
        <ele>753.80999755859</ele>
        <time>2024-09-26T10:18:17.000Z</time>
      </trkpt>
      <trkpt lat="40.94098" lon="20.23377">
        <ele>753.33001708984</ele>
        <time>2024-09-26T10:18:18.000Z</time>
      </trkpt>
      <trkpt lat="40.94093" lon="20.23377">
        <ele>753.33001708984</ele>
        <time>2024-09-26T10:18:19.000Z</time>
      </trkpt>
      <trkpt lat="40.94086" lon="20.23376">
        <ele>752.84997558594</ele>
        <time>2024-09-26T10:18:20.000Z</time>
      </trkpt>
      <trkpt lat="40.94083" lon="20.23376">
        <ele>752.84997558594</ele>
        <time>2024-09-26T10:18:21.000Z</time>
      </trkpt>
      <trkpt lat="40.9407" lon="20.23372">
        <ele>752.36999511719</ele>
        <time>2024-09-26T10:18:28.000Z</time>
      </trkpt>
      <trkpt lat="40.9407" lon="20.23368">
        <ele>753.80999755859</ele>
        <time>2024-09-26T10:19:54.000Z</time>
      </trkpt>
      <trkpt lat="40.94054" lon="20.23363">
        <ele>753.33001708984</ele>
        <time>2024-09-26T10:20:01.000Z</time>
      </trkpt>
      <trkpt lat="40.94053" lon="20.23361">
        <ele>752.84997558594</ele>
        <time>2024-09-26T10:20:13.000Z</time>
      </trkpt>
      <trkpt lat="40.94048" lon="20.23349">
        <ele>756.21002197266</ele>
        <time>2024-09-26T10:25:00.000Z</time>
      </trkpt>
      <trkpt lat="40.94046" lon="20.23346">
        <ele>755.72998046875</ele>
        <time>2024-09-26T10:25:01.000Z</time>
      </trkpt>
      <trkpt lat="40.94043" lon="20.23339">
        <ele>755.25</ele>
        <time>2024-09-26T10:25:02.000Z</time>
      </trkpt>
      <trkpt lat="40.94041" lon="20.23335">
        <ele>755.25</ele>
        <time>2024-09-26T10:25:03.000Z</time>
      </trkpt>
      <trkpt lat="40.94037" lon="20.23329">
        <ele>754.28997802734</ele>
        <time>2024-09-26T10:25:04.000Z</time>
      </trkpt>
      <trkpt lat="40.94036" lon="20.23326">
        <ele>754.28997802734</ele>
        <time>2024-09-26T10:25:05.000Z</time>
      </trkpt>
      <trkpt lat="40.94032" lon="20.23319">
        <ele>753.80999755859</ele>
        <time>2024-09-26T10:25:06.000Z</time>
      </trkpt>
      <trkpt lat="40.9403" lon="20.23315">
        <ele>753.33001708984</ele>
        <time>2024-09-26T10:25:07.000Z</time>
      </trkpt>
      <trkpt lat="40.94027" lon="20.23309">
        <ele>752.84997558594</ele>
        <time>2024-09-26T10:25:08.000Z</time>
      </trkpt>
      <trkpt lat="40.94018" lon="20.23297">
        <ele>751.89001464844</ele>
        <time>2024-09-26T10:25:10.000Z</time>
      </trkpt>
      <trkpt lat="40.94017" lon="20.23295">
        <ele>751.40997314453</ele>
        <time>2024-09-26T10:25:11.000Z</time>
      </trkpt>
      <trkpt lat="40.94013" lon="20.2329">
        <ele>751.40997314453</ele>
        <time>2024-09-26T10:25:12.000Z</time>
      </trkpt>
      <trkpt lat="40.9401" lon="20.23285">
        <ele>750.92999267578</ele>
        <time>2024-09-26T10:25:13.000Z</time>
      </trkpt>
      <trkpt lat="40.94006" lon="20.2328">
        <ele>750.45001220703</ele>
        <time>2024-09-26T10:25:14.000Z</time>
      </trkpt>
      <trkpt lat="40.94" lon="20.23272">
        <ele>749.48999023438</ele>
        <time>2024-09-26T10:25:15.000Z</time>
      </trkpt>
      <trkpt lat="40.93993" lon="20.23262">
        <ele>748.52001953125</ele>
        <time>2024-09-26T10:25:17.000Z</time>
      </trkpt>
      <trkpt lat="40.9399" lon="20.23254">
        <ele>748.03997802734</ele>
        <time>2024-09-26T10:25:18.000Z</time>
      </trkpt>
      <trkpt lat="40.93988" lon="20.23246">
        <ele>747.08001708984</ele>
        <time>2024-09-26T10:25:19.000Z</time>
      </trkpt>
      <trkpt lat="40.93988" lon="20.23238">
        <ele>746.11999511719</ele>
        <time>2024-09-26T10:25:20.000Z</time>
      </trkpt>
      <trkpt lat="40.93989" lon="20.23231">
        <ele>745.64001464844</ele>
        <time>2024-09-26T10:25:21.000Z</time>
      </trkpt>
      <trkpt lat="40.9399" lon="20.23223">
        <ele>744.67999267578</ele>
        <time>2024-09-26T10:25:22.000Z</time>
      </trkpt>
      <trkpt lat="40.9399" lon="20.23217">
        <ele>744.20001220703</ele>
        <time>2024-09-26T10:25:23.000Z</time>
      </trkpt>
      <trkpt lat="40.93989" lon="20.2321">
        <ele>743.23999023438</ele>
        <time>2024-09-26T10:25:24.000Z</time>
      </trkpt>
      <trkpt lat="40.93987" lon="20.23203">
        <ele>742.76000976562</ele>
        <time>2024-09-26T10:25:25.000Z</time>
      </trkpt>
      <trkpt lat="40.93983" lon="20.23191">
        <ele>742.28002929688</ele>
        <time>2024-09-26T10:25:26.000Z</time>
      </trkpt>
      <trkpt lat="40.93981" lon="20.23184">
        <ele>741.78997802734</ele>
        <time>2024-09-26T10:25:28.000Z</time>
      </trkpt>
      <trkpt lat="40.93979" lon="20.23177">
        <ele>741.30999755859</ele>
        <time>2024-09-26T10:25:29.000Z</time>
      </trkpt>
      <trkpt lat="40.93976" lon="20.23167">
        <ele>740.83001708984</ele>
        <time>2024-09-26T10:25:30.000Z</time>
      </trkpt>
      <trkpt lat="40.93975" lon="20.23165">
        <ele>740.34997558594</ele>
        <time>2024-09-26T10:25:31.000Z</time>
      </trkpt>
      <trkpt lat="40.93971" lon="20.23152">
        <ele>739.86999511719</ele>
        <time>2024-09-26T10:25:33.000Z</time>
      </trkpt>
      <trkpt lat="40.93968" lon="20.23147">
        <ele>739.39001464844</ele>
        <time>2024-09-26T10:25:34.000Z</time>
      </trkpt>
      <trkpt lat="40.93965" lon="20.2314">
        <ele>738.90997314453</ele>
        <time>2024-09-26T10:25:35.000Z</time>
      </trkpt>
      <trkpt lat="40.93961" lon="20.23129">
        <ele>738.42999267578</ele>
        <time>2024-09-26T10:25:36.000Z</time>
      </trkpt>
      <trkpt lat="40.93958" lon="20.23122">
        <ele>737.95001220703</ele>
        <time>2024-09-26T10:25:37.000Z</time>
      </trkpt>
      <trkpt lat="40.93957" lon="20.23117">
        <ele>737.95001220703</ele>
        <time>2024-09-26T10:25:38.000Z</time>
      </trkpt>
      <trkpt lat="40.93954" lon="20.23111">
        <ele>737.46997070312</ele>
        <time>2024-09-26T10:25:39.000Z</time>
      </trkpt>
      <trkpt lat="40.93951" lon="20.23105">
        <ele>737.46997070312</ele>
        <time>2024-09-26T10:25:40.000Z</time>
      </trkpt>
      <trkpt lat="40.93947" lon="20.23101">
        <ele>736.98999023438</ele>
        <time>2024-09-26T10:25:41.000Z</time>
      </trkpt>
      <trkpt lat="40.93943" lon="20.23098">
        <ele>737.46997070312</ele>
        <time>2024-09-26T10:25:42.000Z</time>
      </trkpt>
      <trkpt lat="40.93939" lon="20.23098">
        <ele>737.46997070312</ele>
        <time>2024-09-26T10:25:43.000Z</time>
      </trkpt>
      <trkpt lat="40.93935" lon="20.23101">
        <ele>737.95001220703</ele>
        <time>2024-09-26T10:25:44.000Z</time>
      </trkpt>
      <trkpt lat="40.93932" lon="20.23105">
        <ele>737.95001220703</ele>
        <time>2024-09-26T10:25:45.000Z</time>
      </trkpt>
      <trkpt lat="40.9393" lon="20.23111">
        <ele>738.42999267578</ele>
        <time>2024-09-26T10:25:46.000Z</time>
      </trkpt>
      <trkpt lat="40.93928" lon="20.23118">
        <ele>738.90997314453</ele>
        <time>2024-09-26T10:25:47.000Z</time>
      </trkpt>
      <trkpt lat="40.93927" lon="20.23124">
        <ele>738.90997314453</ele>
        <time>2024-09-26T10:25:48.000Z</time>
      </trkpt>
      <trkpt lat="40.93925" lon="20.23131">
        <ele>738.42999267578</ele>
        <time>2024-09-26T10:25:49.000Z</time>
      </trkpt>
      <trkpt lat="40.93923" lon="20.23135">
        <ele>737.95001220703</ele>
        <time>2024-09-26T10:25:50.000Z</time>
      </trkpt>
      <trkpt lat="40.9392" lon="20.23139">
        <ele>737.46997070312</ele>
        <time>2024-09-26T10:25:51.000Z</time>
      </trkpt>
      <trkpt lat="40.93916" lon="20.23139">
        <ele>736.98999023438</ele>
        <time>2024-09-26T10:25:52.000Z</time>
      </trkpt>
      <trkpt lat="40.93911" lon="20.23137">
        <ele>735.54998779297</ele>
        <time>2024-09-26T10:25:53.000Z</time>
      </trkpt>
      <trkpt lat="40.93908" lon="20.23132">
        <ele>735.07000732422</ele>
        <time>2024-09-26T10:25:54.000Z</time>
      </trkpt>
      <trkpt lat="40.93907" lon="20.23126">
        <ele>734.09997558594</ele>
        <time>2024-09-26T10:25:55.000Z</time>
      </trkpt>
      <trkpt lat="40.93907" lon="20.23117">
        <ele>733.14001464844</ele>
        <time>2024-09-26T10:25:56.000Z</time>
      </trkpt>
      <trkpt lat="40.93909" lon="20.23109">
        <ele>732.65997314453</ele>
        <time>2024-09-26T10:25:57.000Z</time>
      </trkpt>
      <trkpt lat="40.93913" lon="20.23103">
        <ele>731.70001220703</ele>
        <time>2024-09-26T10:25:58.000Z</time>
      </trkpt>
      <trkpt lat="40.93919" lon="20.23093">
        <ele>730.73999023438</ele>
        <time>2024-09-26T10:25:59.000Z</time>
      </trkpt>
      <trkpt lat="40.9392" lon="20.23091">
        <ele>730.26000976562</ele>
        <time>2024-09-26T10:26:00.000Z</time>
      </trkpt>
      <trkpt lat="40.93923" lon="20.23087">
        <ele>729.78002929688</ele>
        <time>2024-09-26T10:26:01.000Z</time>
      </trkpt>
      <trkpt lat="40.93928" lon="20.2308">
        <ele>728.82000732422</ele>
        <time>2024-09-26T10:26:02.000Z</time>
      </trkpt>
      <trkpt lat="40.93931" lon="20.23077">
        <ele>728.34002685547</ele>
        <time>2024-09-26T10:26:03.000Z</time>
      </trkpt>
      <trkpt lat="40.93935" lon="20.23074">
        <ele>727.85998535156</ele>
        <time>2024-09-26T10:26:04.000Z</time>
      </trkpt>
      <trkpt lat="40.93939" lon="20.23071">
        <ele>726.89001464844</ele>
        <time>2024-09-26T10:26:05.000Z</time>
      </trkpt>
      <trkpt lat="40.93944" lon="20.23068">
        <ele>726.40997314453</ele>
        <time>2024-09-26T10:26:06.000Z</time>
      </trkpt>
      <trkpt lat="40.9395" lon="20.23066">
        <ele>725.45001220703</ele>
        <time>2024-09-26T10:26:07.000Z</time>
      </trkpt>
      <trkpt lat="40.93955" lon="20.23065">
        <ele>724.96997070312</ele>
        <time>2024-09-26T10:26:08.000Z</time>
      </trkpt>
      <trkpt lat="40.93962" lon="20.23066">
        <ele>724.01000976562</ele>
        <time>2024-09-26T10:26:09.000Z</time>
      </trkpt>
      <trkpt lat="40.93967" lon="20.23067">
        <ele>724.01000976562</ele>
        <time>2024-09-26T10:26:10.000Z</time>
      </trkpt>
      <trkpt lat="40.93971" lon="20.23069">
        <ele>723.53002929688</ele>
        <time>2024-09-26T10:26:11.000Z</time>
      </trkpt>
      <trkpt lat="40.93976" lon="20.23072">
        <ele>722.57000732422</ele>
        <time>2024-09-26T10:26:12.000Z</time>
      </trkpt>
      <trkpt lat="40.9398" lon="20.23076">
        <ele>722.09002685547</ele>
        <time>2024-09-26T10:26:13.000Z</time>
      </trkpt>
      <trkpt lat="40.93983" lon="20.2308">
        <ele>721.60998535156</ele>
        <time>2024-09-26T10:26:14.000Z</time>
      </trkpt>
      <trkpt lat="40.93988" lon="20.23087">
        <ele>720.65002441406</ele>
        <time>2024-09-26T10:26:15.000Z</time>
      </trkpt>
      <trkpt lat="40.93992" lon="20.23093">
        <ele>720.15997314453</ele>
        <time>2024-09-26T10:26:16.000Z</time>
      </trkpt>
      <trkpt lat="40.94001" lon="20.23108">
        <ele>719.20001220703</ele>
        <time>2024-09-26T10:26:18.000Z</time>
      </trkpt>
      <trkpt lat="40.94005" lon="20.23114">
        <ele>718.71997070312</ele>
        <time>2024-09-26T10:26:19.000Z</time>
      </trkpt>
      <trkpt lat="40.94015" lon="20.23125">
        <ele>718.23999023438</ele>
        <time>2024-09-26T10:26:21.000Z</time>
      </trkpt>
      <trkpt lat="40.94017" lon="20.23129">
        <ele>718.23999023438</ele>
        <time>2024-09-26T10:26:22.000Z</time>
      </trkpt>
      <trkpt lat="40.94021" lon="20.23136">
        <ele>717.76000976562</ele>
        <time>2024-09-26T10:26:23.000Z</time>
      </trkpt>
      <trkpt lat="40.94023" lon="20.23142">
        <ele>717.28002929688</ele>
        <time>2024-09-26T10:26:24.000Z</time>
      </trkpt>
      <trkpt lat="40.94026" lon="20.23149">
        <ele>716.79998779297</ele>
        <time>2024-09-26T10:26:25.000Z</time>
      </trkpt>
      <trkpt lat="40.9403" lon="20.23155">
        <ele>716.32000732422</ele>
        <time>2024-09-26T10:26:26.000Z</time>
      </trkpt>
      <trkpt lat="40.94042" lon="20.23167">
        <ele>714.88000488281</ele>
        <time>2024-09-26T10:26:28.000Z</time>
      </trkpt>
      <trkpt lat="40.94062" lon="20.23187">
        <ele>712.95001220703</ele>
        <time>2024-09-26T10:26:31.000Z</time>
      </trkpt>
      <trkpt lat="40.94067" lon="20.23191">
        <ele>712.46997070312</ele>
        <time>2024-09-26T10:26:32.000Z</time>
      </trkpt>
      <trkpt lat="40.94074" lon="20.23196">
        <ele>712.46997070312</ele>
        <time>2024-09-26T10:26:33.000Z</time>
      </trkpt>
      <trkpt lat="40.94078" lon="20.23199">
        <ele>712.46997070312</ele>
        <time>2024-09-26T10:26:34.000Z</time>
      </trkpt>
      <trkpt lat="40.94083" lon="20.23204">
        <ele>712.46997070312</ele>
        <time>2024-09-26T10:26:35.000Z</time>
      </trkpt>
      <trkpt lat="40.94086" lon="20.2321">
        <ele>712.46997070312</ele>
        <time>2024-09-26T10:26:36.000Z</time>
      </trkpt>
      <trkpt lat="40.9409" lon="20.23216">
        <ele>711.98999023438</ele>
        <time>2024-09-26T10:26:37.000Z</time>
      </trkpt>
      <trkpt lat="40.94094" lon="20.23221">
        <ele>711.51000976562</ele>
        <time>2024-09-26T10:26:38.000Z</time>
      </trkpt>
      <trkpt lat="40.941" lon="20.23226">
        <ele>711.51000976562</ele>
        <time>2024-09-26T10:26:39.000Z</time>
      </trkpt>
      <trkpt lat="40.94108" lon="20.23229">
        <ele>711.03002929688</ele>
        <time>2024-09-26T10:26:40.000Z</time>
      </trkpt>
      <trkpt lat="40.94113" lon="20.23231">
        <ele>711.03002929688</ele>
        <time>2024-09-26T10:26:41.000Z</time>
      </trkpt>
      <trkpt lat="40.94118" lon="20.23235">
        <ele>710.54998779297</ele>
        <time>2024-09-26T10:26:42.000Z</time>
      </trkpt>
      <trkpt lat="40.94127" lon="20.23245">
        <ele>710.07000732422</ele>
        <time>2024-09-26T10:26:43.000Z</time>
      </trkpt>
      <trkpt lat="40.94128" lon="20.23247">
        <ele>709.59002685547</ele>
        <time>2024-09-26T10:26:44.000Z</time>
      </trkpt>
      <trkpt lat="40.94132" lon="20.23252">
        <ele>709.10998535156</ele>
        <time>2024-09-26T10:26:45.000Z</time>
      </trkpt>
      <trkpt lat="40.94137" lon="20.23258">
        <ele>708.63000488281</ele>
        <time>2024-09-26T10:26:46.000Z</time>
      </trkpt>
      <trkpt lat="40.94143" lon="20.23262">
        <ele>708.15002441406</ele>
        <time>2024-09-26T10:26:47.000Z</time>
      </trkpt>
      <trkpt lat="40.94149" lon="20.23266">
        <ele>707.66998291016</ele>
        <time>2024-09-26T10:26:48.000Z</time>
      </trkpt>
      <trkpt lat="40.94155" lon="20.23269">
        <ele>707.19000244141</ele>
        <time>2024-09-26T10:26:49.000Z</time>
      </trkpt>
      <trkpt lat="40.94161" lon="20.23272">
        <ele>706.71002197266</ele>
        <time>2024-09-26T10:26:50.000Z</time>
      </trkpt>
      <trkpt lat="40.94167" lon="20.23273">
        <ele>706.22998046875</ele>
        <time>2024-09-26T10:26:51.000Z</time>
      </trkpt>
      <trkpt lat="40.94172" lon="20.23271">
        <ele>705.75</ele>
        <time>2024-09-26T10:26:52.000Z</time>
      </trkpt>
      <trkpt lat="40.94178" lon="20.23267">
        <ele>705.26000976562</ele>
        <time>2024-09-26T10:26:53.000Z</time>
      </trkpt>
      <trkpt lat="40.94184" lon="20.23261">
        <ele>704.29998779297</ele>
        <time>2024-09-26T10:26:54.000Z</time>
      </trkpt>
      <trkpt lat="40.9419" lon="20.23253">
        <ele>703.82000732422</ele>
        <time>2024-09-26T10:26:55.000Z</time>
      </trkpt>
      <trkpt lat="40.94194" lon="20.23246">
        <ele>702.85998535156</ele>
        <time>2024-09-26T10:26:56.000Z</time>
      </trkpt>
      <trkpt lat="40.94198" lon="20.23237">
        <ele>702.38000488281</ele>
        <time>2024-09-26T10:26:57.000Z</time>
      </trkpt>
      <trkpt lat="40.94201" lon="20.23232">
        <ele>701.90002441406</ele>
        <time>2024-09-26T10:26:58.000Z</time>
      </trkpt>
      <trkpt lat="40.94205" lon="20.23224">
        <ele>700.46002197266</ele>
        <time>2024-09-26T10:26:59.000Z</time>
      </trkpt>
      <trkpt lat="40.94209" lon="20.23218">
        <ele>699.97998046875</ele>
        <time>2024-09-26T10:27:00.000Z</time>
      </trkpt>
      <trkpt lat="40.94214" lon="20.23212">
        <ele>699.02001953125</ele>
        <time>2024-09-26T10:27:01.000Z</time>
      </trkpt>
      <trkpt lat="40.94221" lon="20.23208">
        <ele>697.09002685547</ele>
        <time>2024-09-26T10:27:02.000Z</time>
      </trkpt>
      <trkpt lat="40.94226" lon="20.23205">
        <ele>696.13000488281</ele>
        <time>2024-09-26T10:27:03.000Z</time>
      </trkpt>
      <trkpt lat="40.9423" lon="20.23201">
        <ele>695.16998291016</ele>
        <time>2024-09-26T10:27:04.000Z</time>
      </trkpt>
      <trkpt lat="40.9423" lon="20.23185">
        <ele>694.21002197266</ele>
        <time>2024-09-26T10:27:07.000Z</time>
      </trkpt>
      <trkpt lat="40.94227" lon="20.23183">
        <ele>693.72998046875</ele>
        <time>2024-09-26T10:27:08.000Z</time>
      </trkpt>
      <trkpt lat="40.94221" lon="20.23181">
        <ele>693.25</ele>
        <time>2024-09-26T10:27:09.000Z</time>
      </trkpt>
      <trkpt lat="40.94214" lon="20.23182">
        <ele>692.28997802734</ele>
        <time>2024-09-26T10:27:10.000Z</time>
      </trkpt>
      <trkpt lat="40.94202" lon="20.23183">
        <ele>691.33001708984</ele>
        <time>2024-09-26T10:27:11.000Z</time>
      </trkpt>
      <trkpt lat="40.94195" lon="20.23183">
        <ele>690.35998535156</ele>
        <time>2024-09-26T10:27:12.000Z</time>
      </trkpt>
      <trkpt lat="40.94188" lon="20.23182">
        <ele>689.88000488281</ele>
        <time>2024-09-26T10:27:13.000Z</time>
      </trkpt>
      <trkpt lat="40.94181" lon="20.23179">
        <ele>689.40002441406</ele>
        <time>2024-09-26T10:27:14.000Z</time>
      </trkpt>
      <trkpt lat="40.94172" lon="20.23174">
        <ele>688.91998291016</ele>
        <time>2024-09-26T10:27:15.000Z</time>
      </trkpt>
      <trkpt lat="40.94167" lon="20.2317">
        <ele>688.44000244141</ele>
        <time>2024-09-26T10:27:16.000Z</time>
      </trkpt>
      <trkpt lat="40.94155" lon="20.23161">
        <ele>687.47998046875</ele>
        <time>2024-09-26T10:27:18.000Z</time>
      </trkpt>
      <trkpt lat="40.9415" lon="20.23157">
        <ele>687</ele>
        <time>2024-09-26T10:27:19.000Z</time>
      </trkpt>
      <trkpt lat="40.94144" lon="20.23152">
        <ele>686.52001953125</ele>
        <time>2024-09-26T10:27:20.000Z</time>
      </trkpt>
      <trkpt lat="40.9414" lon="20.23147">
        <ele>686.03997802734</ele>
        <time>2024-09-26T10:27:21.000Z</time>
      </trkpt>
      <trkpt lat="40.94135" lon="20.23141">
        <ele>685.55999755859</ele>
        <time>2024-09-26T10:27:22.000Z</time>
      </trkpt>
      <trkpt lat="40.94132" lon="20.23137">
        <ele>685.08001708984</ele>
        <time>2024-09-26T10:27:23.000Z</time>
      </trkpt>
      <trkpt lat="40.94127" lon="20.23133">
        <ele>684.59997558594</ele>
        <time>2024-09-26T10:27:24.000Z</time>
      </trkpt>
      <trkpt lat="40.94123" lon="20.23127">
        <ele>683.63000488281</ele>
        <time>2024-09-26T10:27:25.000Z</time>
      </trkpt>
      <trkpt lat="40.94119" lon="20.2312">
        <ele>682.66998291016</ele>
        <time>2024-09-26T10:27:26.000Z</time>
      </trkpt>
      <trkpt lat="40.94114" lon="20.23112">
        <ele>681.71002197266</ele>
        <time>2024-09-26T10:27:27.000Z</time>
      </trkpt>
      <trkpt lat="40.94108" lon="20.23104">
        <ele>679.78997802734</ele>
        <time>2024-09-26T10:27:28.000Z</time>
      </trkpt>
      <trkpt lat="40.94103" lon="20.23095">
        <ele>678.34997558594</ele>
        <time>2024-09-26T10:27:29.000Z</time>
      </trkpt>
      <trkpt lat="40.94098" lon="20.23084">
        <ele>676.90997314453</ele>
        <time>2024-09-26T10:27:30.000Z</time>
      </trkpt>
      <trkpt lat="40.94097" lon="20.23081">
        <ele>676.41998291016</ele>
        <time>2024-09-26T10:27:31.000Z</time>
      </trkpt>
      <trkpt lat="40.94095" lon="20.23073">
        <ele>675.94000244141</ele>
        <time>2024-09-26T10:27:32.000Z</time>
      </trkpt>
      <trkpt lat="40.94094" lon="20.23064">
        <ele>674.5</ele>
        <time>2024-09-26T10:27:33.000Z</time>
      </trkpt>
      <trkpt lat="40.94106" lon="20.23062">
        <ele>671.14001464844</ele>
        <time>2024-09-26T10:27:38.000Z</time>
      </trkpt>
      <trkpt lat="40.94107" lon="20.23063">
        <ele>671.14001464844</ele>
        <time>2024-09-26T10:27:39.000Z</time>
      </trkpt>
      <trkpt lat="40.94112" lon="20.23068">
        <ele>670.65997314453</ele>
        <time>2024-09-26T10:27:40.000Z</time>
      </trkpt>
      <trkpt lat="40.94117" lon="20.23074">
        <ele>669.70001220703</ele>
        <time>2024-09-26T10:27:41.000Z</time>
      </trkpt>
      <trkpt lat="40.94122" lon="20.23081">
        <ele>668.72998046875</ele>
        <time>2024-09-26T10:27:42.000Z</time>
      </trkpt>
      <trkpt lat="40.94127" lon="20.23086">
        <ele>668.25</ele>
        <time>2024-09-26T10:27:43.000Z</time>
      </trkpt>
      <trkpt lat="40.94133" lon="20.2309">
        <ele>668.25</ele>
        <time>2024-09-26T10:27:44.000Z</time>
      </trkpt>
      <trkpt lat="40.9414" lon="20.23092">
        <ele>667.77001953125</ele>
        <time>2024-09-26T10:27:45.000Z</time>
      </trkpt>
      <trkpt lat="40.94146" lon="20.23094">
        <ele>667.77001953125</ele>
        <time>2024-09-26T10:27:46.000Z</time>
      </trkpt>
      <trkpt lat="40.94154" lon="20.23094">
        <ele>667.28997802734</ele>
        <time>2024-09-26T10:27:47.000Z</time>
      </trkpt>
      <trkpt lat="40.94163" lon="20.23093">
        <ele>666.80999755859</ele>
        <time>2024-09-26T10:27:48.000Z</time>
      </trkpt>
      <trkpt lat="40.94168" lon="20.23093">
        <ele>666.80999755859</ele>
        <time>2024-09-26T10:27:49.000Z</time>
      </trkpt>
      <trkpt lat="40.94174" lon="20.23092">
        <ele>667.28997802734</ele>
        <time>2024-09-26T10:27:50.000Z</time>
      </trkpt>
      <trkpt lat="40.94181" lon="20.23091">
        <ele>666.80999755859</ele>
        <time>2024-09-26T10:27:51.000Z</time>
      </trkpt>
      <trkpt lat="40.9419" lon="20.23092">
        <ele>667.28997802734</ele>
        <time>2024-09-26T10:27:52.000Z</time>
      </trkpt>
      <trkpt lat="40.94195" lon="20.23094">
        <ele>667.28997802734</ele>
        <time>2024-09-26T10:27:53.000Z</time>
      </trkpt>
      <trkpt lat="40.94201" lon="20.23098">
        <ele>667.28997802734</ele>
        <time>2024-09-26T10:27:54.000Z</time>
      </trkpt>
      <trkpt lat="40.94208" lon="20.23103">
        <ele>667.28997802734</ele>
        <time>2024-09-26T10:27:55.000Z</time>
      </trkpt>
      <trkpt lat="40.94215" lon="20.2311">
        <ele>667.77001953125</ele>
        <time>2024-09-26T10:27:56.000Z</time>
      </trkpt>
      <trkpt lat="40.94217" lon="20.23113">
        <ele>667.77001953125</ele>
        <time>2024-09-26T10:27:57.000Z</time>
      </trkpt>
      <trkpt lat="40.94225" lon="20.23123">
        <ele>668.25</ele>
        <time>2024-09-26T10:27:58.000Z</time>
      </trkpt>
      <trkpt lat="40.94229" lon="20.23129">
        <ele>668.72998046875</ele>
        <time>2024-09-26T10:27:59.000Z</time>
      </trkpt>
      <trkpt lat="40.94231" lon="20.23132">
        <ele>668.72998046875</ele>
        <time>2024-09-26T10:28:00.000Z</time>
      </trkpt>
      <trkpt lat="40.94238" lon="20.23138">
        <ele>669.21997070312</ele>
        <time>2024-09-26T10:28:01.000Z</time>
      </trkpt>
      <trkpt lat="40.94243" lon="20.23141">
        <ele>669.21997070312</ele>
        <time>2024-09-26T10:28:02.000Z</time>
      </trkpt>
      <trkpt lat="40.94248" lon="20.23141">
        <ele>668.72998046875</ele>
        <time>2024-09-26T10:28:03.000Z</time>
      </trkpt>
      <trkpt lat="40.94256" lon="20.23141">
        <ele>668.25</ele>
        <time>2024-09-26T10:28:04.000Z</time>
      </trkpt>
      <trkpt lat="40.94271" lon="20.23139">
        <ele>667.77001953125</ele>
        <time>2024-09-26T10:28:06.000Z</time>
      </trkpt>
      <trkpt lat="40.94278" lon="20.23137">
        <ele>666.80999755859</ele>
        <time>2024-09-26T10:28:07.000Z</time>
      </trkpt>
      <trkpt lat="40.94286" lon="20.23138">
        <ele>666.33001708984</ele>
        <time>2024-09-26T10:28:08.000Z</time>
      </trkpt>
      <trkpt lat="40.94291" lon="20.23141">
        <ele>665.84997558594</ele>
        <time>2024-09-26T10:28:09.000Z</time>
      </trkpt>
      <trkpt lat="40.94296" lon="20.23146">
        <ele>665.84997558594</ele>
        <time>2024-09-26T10:28:10.000Z</time>
      </trkpt>
      <trkpt lat="40.94301" lon="20.23153">
        <ele>665.36999511719</ele>
        <time>2024-09-26T10:28:11.000Z</time>
      </trkpt>
      <trkpt lat="40.94305" lon="20.23159">
        <ele>664.40997314453</ele>
        <time>2024-09-26T10:28:12.000Z</time>
      </trkpt>
      <trkpt lat="40.9431" lon="20.23162">
        <ele>663.92999267578</ele>
        <time>2024-09-26T10:28:13.000Z</time>
      </trkpt>
      <trkpt lat="40.94313" lon="20.23162">
        <ele>663.92999267578</ele>
        <time>2024-09-26T10:28:14.000Z</time>
      </trkpt>
      <trkpt lat="40.94316" lon="20.23158">
        <ele>663.45001220703</ele>
        <time>2024-09-26T10:28:15.000Z</time>
      </trkpt>
      <trkpt lat="40.94318" lon="20.23152">
        <ele>663.92999267578</ele>
        <time>2024-09-26T10:28:16.000Z</time>
      </trkpt>
      <trkpt lat="40.94319" lon="20.23143">
        <ele>663.45001220703</ele>
        <time>2024-09-26T10:28:17.000Z</time>
      </trkpt>
      <trkpt lat="40.94319" lon="20.23133">
        <ele>662.48999023438</ele>
        <time>2024-09-26T10:28:18.000Z</time>
      </trkpt>
      <trkpt lat="40.94321" lon="20.23124">
        <ele>662.01000976562</ele>
        <time>2024-09-26T10:28:19.000Z</time>
      </trkpt>
      <trkpt lat="40.94325" lon="20.23117">
        <ele>661.03997802734</ele>
        <time>2024-09-26T10:28:20.000Z</time>
      </trkpt>
      <trkpt lat="40.94334" lon="20.23103">
        <ele>659.11999511719</ele>
        <time>2024-09-26T10:28:22.000Z</time>
      </trkpt>
      <trkpt lat="40.94338" lon="20.23097">
        <ele>658.64001464844</ele>
        <time>2024-09-26T10:28:23.000Z</time>
      </trkpt>
      <trkpt lat="40.94341" lon="20.23088">
        <ele>658.15997314453</ele>
        <time>2024-09-26T10:28:24.000Z</time>
      </trkpt>
      <trkpt lat="40.94346" lon="20.23074">
        <ele>656.71997070312</ele>
        <time>2024-09-26T10:28:25.000Z</time>
      </trkpt>
      <trkpt lat="40.94349" lon="20.23065">
        <ele>656.23999023438</ele>
        <time>2024-09-26T10:28:26.000Z</time>
      </trkpt>
      <trkpt lat="40.94349" lon="20.23063">
        <ele>655.76000976562</ele>
        <time>2024-09-26T10:28:27.000Z</time>
      </trkpt>
      <trkpt lat="40.94352" lon="20.23054">
        <ele>655.28002929688</ele>
        <time>2024-09-26T10:28:28.000Z</time>
      </trkpt>
      <trkpt lat="40.94355" lon="20.23046">
        <ele>654.30999755859</ele>
        <time>2024-09-26T10:28:29.000Z</time>
      </trkpt>
      <trkpt lat="40.94358" lon="20.23038">
        <ele>653.34997558594</ele>
        <time>2024-09-26T10:28:30.000Z</time>
      </trkpt>
      <trkpt lat="40.94362" lon="20.2303">
        <ele>652.39001464844</ele>
        <time>2024-09-26T10:28:31.000Z</time>
      </trkpt>
      <trkpt lat="40.94366" lon="20.23023">
        <ele>651.42999267578</ele>
        <time>2024-09-26T10:28:32.000Z</time>
      </trkpt>
      <trkpt lat="40.94375" lon="20.23013">
        <ele>649.98999023438</ele>
        <time>2024-09-26T10:28:33.000Z</time>
      </trkpt>
      <trkpt lat="40.94378" lon="20.23009">
        <ele>649.51000976562</ele>
        <time>2024-09-26T10:28:34.000Z</time>
      </trkpt>
      <trkpt lat="40.9439" lon="20.22995">
        <ele>647.09997558594</ele>
        <time>2024-09-26T10:28:36.000Z</time>
      </trkpt>
      <trkpt lat="40.94394" lon="20.22989">
        <ele>646.61999511719</ele>
        <time>2024-09-26T10:28:37.000Z</time>
      </trkpt>
      <trkpt lat="40.94398" lon="20.22983">
        <ele>645.65997314453</ele>
        <time>2024-09-26T10:28:38.000Z</time>
      </trkpt>
      <trkpt lat="40.94401" lon="20.22975">
        <ele>645.17999267578</ele>
        <time>2024-09-26T10:28:39.000Z</time>
      </trkpt>
      <trkpt lat="40.94404" lon="20.22966">
        <ele>644.21997070312</ele>
        <time>2024-09-26T10:28:40.000Z</time>
      </trkpt>
      <trkpt lat="40.94406" lon="20.22956">
        <ele>643.26000976562</ele>
        <time>2024-09-26T10:28:41.000Z</time>
      </trkpt>
      <trkpt lat="40.94408" lon="20.22946">
        <ele>642.78002929688</ele>
        <time>2024-09-26T10:28:42.000Z</time>
      </trkpt>
      <trkpt lat="40.94408" lon="20.22936">
        <ele>641.82000732422</ele>
        <time>2024-09-26T10:28:43.000Z</time>
      </trkpt>
      <trkpt lat="40.94408" lon="20.22929">
        <ele>641.34002685547</ele>
        <time>2024-09-26T10:28:44.000Z</time>
      </trkpt>
      <trkpt lat="40.94408" lon="20.22921">
        <ele>640.85998535156</ele>
        <time>2024-09-26T10:28:45.000Z</time>
      </trkpt>
      <trkpt lat="40.94407" lon="20.22912">
        <ele>639.89001464844</ele>
        <time>2024-09-26T10:28:46.000Z</time>
      </trkpt>
      <trkpt lat="40.94404" lon="20.22897">
        <ele>638.92999267578</ele>
        <time>2024-09-26T10:28:47.000Z</time>
      </trkpt>
      <trkpt lat="40.94403" lon="20.22889">
        <ele>638.45001220703</ele>
        <time>2024-09-26T10:28:48.000Z</time>
      </trkpt>
      <trkpt lat="40.94402" lon="20.22881">
        <ele>637.96997070312</ele>
        <time>2024-09-26T10:28:49.000Z</time>
      </trkpt>
      <trkpt lat="40.944" lon="20.22876">
        <ele>637.48999023438</ele>
        <time>2024-09-26T10:28:50.000Z</time>
      </trkpt>
      <trkpt lat="40.94398" lon="20.22868">
        <ele>637.01000976562</ele>
        <time>2024-09-26T10:28:51.000Z</time>
      </trkpt>
      <trkpt lat="40.94395" lon="20.22861">
        <ele>637.01000976562</ele>
        <time>2024-09-26T10:28:52.000Z</time>
      </trkpt>
      <trkpt lat="40.94388" lon="20.22844">
        <ele>635.09002685547</ele>
        <time>2024-09-26T10:28:54.000Z</time>
      </trkpt>
      <trkpt lat="40.94385" lon="20.22836">
        <ele>634.13000488281</ele>
        <time>2024-09-26T10:28:55.000Z</time>
      </trkpt>
      <trkpt lat="40.94383" lon="20.2283">
        <ele>633.16998291016</ele>
        <time>2024-09-26T10:28:56.000Z</time>
      </trkpt>
      <trkpt lat="40.94381" lon="20.2282">
        <ele>631.71997070312</ele>
        <time>2024-09-26T10:28:57.000Z</time>
      </trkpt>
      <trkpt lat="40.9438" lon="20.22815">
        <ele>631.23999023438</ele>
        <time>2024-09-26T10:28:58.000Z</time>
      </trkpt>
      <trkpt lat="40.94377" lon="20.22802">
        <ele>629.79998779297</ele>
        <time>2024-09-26T10:28:59.000Z</time>
      </trkpt>
      <trkpt lat="40.94375" lon="20.22793">
        <ele>628.35998535156</ele>
        <time>2024-09-26T10:29:00.000Z</time>
      </trkpt>
      <trkpt lat="40.94375" lon="20.22791">
        <ele>628.35998535156</ele>
        <time>2024-09-26T10:29:01.000Z</time>
      </trkpt>
      <trkpt lat="40.94374" lon="20.22781">
        <ele>626.44000244141</ele>
        <time>2024-09-26T10:29:02.000Z</time>
      </trkpt>
      <trkpt lat="40.94374" lon="20.22772">
        <ele>625.46997070312</ele>
        <time>2024-09-26T10:29:03.000Z</time>
      </trkpt>
      <trkpt lat="40.94375" lon="20.22763">
        <ele>624.03002929688</ele>
        <time>2024-09-26T10:29:04.000Z</time>
      </trkpt>
      <trkpt lat="40.94376" lon="20.22754">
        <ele>623.07000732422</ele>
        <time>2024-09-26T10:29:05.000Z</time>
      </trkpt>
      <trkpt lat="40.94378" lon="20.22745">
        <ele>621.63000488281</ele>
        <time>2024-09-26T10:29:06.000Z</time>
      </trkpt>
      <trkpt lat="40.9438" lon="20.22732">
        <ele>620.19000244141</ele>
        <time>2024-09-26T10:29:07.000Z</time>
      </trkpt>
      <trkpt lat="40.94381" lon="20.22728">
        <ele>619.71002197266</ele>
        <time>2024-09-26T10:29:08.000Z</time>
      </trkpt>
      <trkpt lat="40.94384" lon="20.22719">
        <ele>618.26000976562</ele>
        <time>2024-09-26T10:29:09.000Z</time>
      </trkpt>
      <trkpt lat="40.94387" lon="20.22712">
        <ele>617.29998779297</ele>
        <time>2024-09-26T10:29:10.000Z</time>
      </trkpt>
      <trkpt lat="40.9439" lon="20.22702">
        <ele>616.34002685547</ele>
        <time>2024-09-26T10:29:11.000Z</time>
      </trkpt>
      <trkpt lat="40.94391" lon="20.22694">
        <ele>615.38000488281</ele>
        <time>2024-09-26T10:29:12.000Z</time>
      </trkpt>
      <trkpt lat="40.9439" lon="20.22686">
        <ele>614.41998291016</ele>
        <time>2024-09-26T10:29:13.000Z</time>
      </trkpt>
      <trkpt lat="40.94387" lon="20.22678">
        <ele>613.94000244141</ele>
        <time>2024-09-26T10:29:14.000Z</time>
      </trkpt>
      <trkpt lat="40.94382" lon="20.22668">
        <ele>612.97998046875</ele>
        <time>2024-09-26T10:29:15.000Z</time>
      </trkpt>
      <trkpt lat="40.94378" lon="20.22659">
        <ele>611.53997802734</ele>
        <time>2024-09-26T10:29:16.000Z</time>
      </trkpt>
      <trkpt lat="40.94376" lon="20.22654">
        <ele>611.05999755859</ele>
        <time>2024-09-26T10:29:17.000Z</time>
      </trkpt>
      <trkpt lat="40.94374" lon="20.22646">
        <ele>609.60998535156</ele>
        <time>2024-09-26T10:29:18.000Z</time>
      </trkpt>
      <trkpt lat="40.94374" lon="20.22636">
        <ele>608.16998291016</ele>
        <time>2024-09-26T10:29:19.000Z</time>
      </trkpt>
      <trkpt lat="40.94376" lon="20.22616">
        <ele>605.77001953125</ele>
        <time>2024-09-26T10:29:21.000Z</time>
      </trkpt>
      <trkpt lat="40.94377" lon="20.22607">
        <ele>604.80999755859</ele>
        <time>2024-09-26T10:29:22.000Z</time>
      </trkpt>
      <trkpt lat="40.94377" lon="20.22598">
        <ele>603.84997558594</ele>
        <time>2024-09-26T10:29:23.000Z</time>
      </trkpt>
      <trkpt lat="40.94376" lon="20.22588">
        <ele>603.35998535156</ele>
        <time>2024-09-26T10:29:24.000Z</time>
      </trkpt>
      <trkpt lat="40.94373" lon="20.2258">
        <ele>602.40002441406</ele>
        <time>2024-09-26T10:29:25.000Z</time>
      </trkpt>
      <trkpt lat="40.9437" lon="20.22573">
        <ele>601.91998291016</ele>
        <time>2024-09-26T10:29:26.000Z</time>
      </trkpt>
      <trkpt lat="40.9436" lon="20.22558">
        <ele>600.47998046875</ele>
        <time>2024-09-26T10:29:28.000Z</time>
      </trkpt>
      <trkpt lat="40.94348" lon="20.22539">
        <ele>599.03997802734</ele>
        <time>2024-09-26T10:29:31.000Z</time>
      </trkpt>
      <trkpt lat="40.94345" lon="20.22534">
        <ele>598.55999755859</ele>
        <time>2024-09-26T10:29:32.000Z</time>
      </trkpt>
      <trkpt lat="40.94342" lon="20.22526">
        <ele>597.59997558594</ele>
        <time>2024-09-26T10:29:33.000Z</time>
      </trkpt>
      <trkpt lat="40.94341" lon="20.22517">
        <ele>596.15002441406</ele>
        <time>2024-09-26T10:29:34.000Z</time>
      </trkpt>
      <trkpt lat="40.9434" lon="20.22501">
        <ele>594.71002197266</ele>
        <time>2024-09-26T10:29:35.000Z</time>
      </trkpt>
      <trkpt lat="40.94339" lon="20.22497">
        <ele>594.22998046875</ele>
        <time>2024-09-26T10:29:36.000Z</time>
      </trkpt>
      <trkpt lat="40.94337" lon="20.22487">
        <ele>594.22998046875</ele>
        <time>2024-09-26T10:29:37.000Z</time>
      </trkpt>
      <trkpt lat="40.94332" lon="20.22477">
        <ele>594.22998046875</ele>
        <time>2024-09-26T10:29:38.000Z</time>
      </trkpt>
      <trkpt lat="40.94328" lon="20.2247">
        <ele>594.22998046875</ele>
        <time>2024-09-26T10:29:39.000Z</time>
      </trkpt>
      <trkpt lat="40.94324" lon="20.22464">
        <ele>594.22998046875</ele>
        <time>2024-09-26T10:29:40.000Z</time>
      </trkpt>
      <trkpt lat="40.94318" lon="20.22458">
        <ele>594.22998046875</ele>
        <time>2024-09-26T10:29:41.000Z</time>
      </trkpt>
      <trkpt lat="40.94313" lon="20.22453">
        <ele>594.22998046875</ele>
        <time>2024-09-26T10:29:42.000Z</time>
      </trkpt>
      <trkpt lat="40.94306" lon="20.22446">
        <ele>594.22998046875</ele>
        <time>2024-09-26T10:29:43.000Z</time>
      </trkpt>
      <trkpt lat="40.94295" lon="20.22439">
        <ele>594.71002197266</ele>
        <time>2024-09-26T10:29:45.000Z</time>
      </trkpt>
      <trkpt lat="40.9429" lon="20.22436">
        <ele>595.19000244141</ele>
        <time>2024-09-26T10:29:46.000Z</time>
      </trkpt>
      <trkpt lat="40.94283" lon="20.22433">
        <ele>595.66998291016</ele>
        <time>2024-09-26T10:29:47.000Z</time>
      </trkpt>
      <trkpt lat="40.94274" lon="20.2243">
        <ele>596.15002441406</ele>
        <time>2024-09-26T10:29:48.000Z</time>
      </trkpt>
      <trkpt lat="40.94266" lon="20.22428">
        <ele>596.15002441406</ele>
        <time>2024-09-26T10:29:49.000Z</time>
      </trkpt>
      <trkpt lat="40.94263" lon="20.22427">
        <ele>596.64001464844</ele>
        <time>2024-09-26T10:29:50.000Z</time>
      </trkpt>
      <trkpt lat="40.94258" lon="20.22424">
        <ele>596.64001464844</ele>
        <time>2024-09-26T10:29:51.000Z</time>
      </trkpt>
      <trkpt lat="40.94256" lon="20.22419">
        <ele>596.64001464844</ele>
        <time>2024-09-26T10:29:52.000Z</time>
      </trkpt>
      <trkpt lat="40.94255" lon="20.22412">
        <ele>596.15002441406</ele>
        <time>2024-09-26T10:29:53.000Z</time>
      </trkpt>
      <trkpt lat="40.94257" lon="20.22405">
        <ele>596.15002441406</ele>
        <time>2024-09-26T10:29:54.000Z</time>
      </trkpt>
      <trkpt lat="40.94269" lon="20.22368">
        <ele>595.19000244141</ele>
        <time>2024-09-26T10:29:58.000Z</time>
      </trkpt>
      <trkpt lat="40.9427" lon="20.22361">
        <ele>595.19000244141</ele>
        <time>2024-09-26T10:29:59.000Z</time>
      </trkpt>
      <trkpt lat="40.9427" lon="20.22353">
        <ele>595.66998291016</ele>
        <time>2024-09-26T10:30:00.000Z</time>
      </trkpt>
      <trkpt lat="40.94269" lon="20.22346">
        <ele>595.19000244141</ele>
        <time>2024-09-26T10:30:01.000Z</time>
      </trkpt>
      <trkpt lat="40.94266" lon="20.22342">
        <ele>595.66998291016</ele>
        <time>2024-09-26T10:30:02.000Z</time>
      </trkpt>
      <trkpt lat="40.94251" lon="20.22325">
        <ele>595.66998291016</ele>
        <time>2024-09-26T10:30:05.000Z</time>
      </trkpt>
      <trkpt lat="40.94244" lon="20.22316">
        <ele>595.66998291016</ele>
        <time>2024-09-26T10:30:06.000Z</time>
      </trkpt>
      <trkpt lat="40.94239" lon="20.22308">
        <ele>596.15002441406</ele>
        <time>2024-09-26T10:30:07.000Z</time>
      </trkpt>
      <trkpt lat="40.94236" lon="20.22301">
        <ele>596.15002441406</ele>
        <time>2024-09-26T10:30:08.000Z</time>
      </trkpt>
      <trkpt lat="40.94234" lon="20.22292">
        <ele>596.64001464844</ele>
        <time>2024-09-26T10:30:09.000Z</time>
      </trkpt>
      <trkpt lat="40.94233" lon="20.22284">
        <ele>596.15002441406</ele>
        <time>2024-09-26T10:30:10.000Z</time>
      </trkpt>
      <trkpt lat="40.94233" lon="20.22276">
        <ele>596.15002441406</ele>
        <time>2024-09-26T10:30:11.000Z</time>
      </trkpt>
      <trkpt lat="40.94234" lon="20.22267">
        <ele>595.66998291016</ele>
        <time>2024-09-26T10:30:12.000Z</time>
      </trkpt>
      <trkpt lat="40.94235" lon="20.22257">
        <ele>595.66998291016</ele>
        <time>2024-09-26T10:30:13.000Z</time>
      </trkpt>
      <trkpt lat="40.94236" lon="20.22248">
        <ele>595.66998291016</ele>
        <time>2024-09-26T10:30:14.000Z</time>
      </trkpt>
      <trkpt lat="40.94235" lon="20.22242">
        <ele>595.66998291016</ele>
        <time>2024-09-26T10:30:15.000Z</time>
      </trkpt>
      <trkpt lat="40.94233" lon="20.22232">
        <ele>595.66998291016</ele>
        <time>2024-09-26T10:30:16.000Z</time>
      </trkpt>
      <trkpt lat="40.94229" lon="20.22223">
        <ele>595.66998291016</ele>
        <time>2024-09-26T10:30:17.000Z</time>
      </trkpt>
      <trkpt lat="40.94223" lon="20.22217">
        <ele>595.19000244141</ele>
        <time>2024-09-26T10:30:18.000Z</time>
      </trkpt>
      <trkpt lat="40.94217" lon="20.22212">
        <ele>595.19000244141</ele>
        <time>2024-09-26T10:30:19.000Z</time>
      </trkpt>
      <trkpt lat="40.94209" lon="20.22209">
        <ele>595.19000244141</ele>
        <time>2024-09-26T10:30:20.000Z</time>
      </trkpt>
      <trkpt lat="40.94202" lon="20.22206">
        <ele>595.66998291016</ele>
        <time>2024-09-26T10:30:21.000Z</time>
      </trkpt>
      <trkpt lat="40.94196" lon="20.22202">
        <ele>595.66998291016</ele>
        <time>2024-09-26T10:30:22.000Z</time>
      </trkpt>
      <trkpt lat="40.94193" lon="20.22196">
        <ele>595.66998291016</ele>
        <time>2024-09-26T10:30:23.000Z</time>
      </trkpt>
      <trkpt lat="40.94192" lon="20.22189">
        <ele>595.19000244141</ele>
        <time>2024-09-26T10:30:24.000Z</time>
      </trkpt>
      <trkpt lat="40.94194" lon="20.22183">
        <ele>595.19000244141</ele>
        <time>2024-09-26T10:30:25.000Z</time>
      </trkpt>
      <trkpt lat="40.94197" lon="20.22174">
        <ele>594.71002197266</ele>
        <time>2024-09-26T10:30:26.000Z</time>
      </trkpt>
      <trkpt lat="40.94205" lon="20.22157">
        <ele>594.71002197266</ele>
        <time>2024-09-26T10:30:28.000Z</time>
      </trkpt>
      <trkpt lat="40.94208" lon="20.2215">
        <ele>594.71002197266</ele>
        <time>2024-09-26T10:30:29.000Z</time>
      </trkpt>
      <trkpt lat="40.94212" lon="20.22135">
        <ele>594.71002197266</ele>
        <time>2024-09-26T10:30:31.000Z</time>
      </trkpt>
      <trkpt lat="40.94222" lon="20.22108">
        <ele>594.71002197266</ele>
        <time>2024-09-26T10:30:35.000Z</time>
      </trkpt>
      <trkpt lat="40.94224" lon="20.221">
        <ele>594.22998046875</ele>
        <time>2024-09-26T10:30:36.000Z</time>
      </trkpt>
      <trkpt lat="40.94225" lon="20.22094">
        <ele>594.22998046875</ele>
        <time>2024-09-26T10:30:37.000Z</time>
      </trkpt>
      <trkpt lat="40.94226" lon="20.22088">
        <ele>594.22998046875</ele>
        <time>2024-09-26T10:30:38.000Z</time>
      </trkpt>
      <trkpt lat="40.94227" lon="20.22076">
        <ele>594.22998046875</ele>
        <time>2024-09-26T10:30:39.000Z</time>
      </trkpt>
      <trkpt lat="40.94227" lon="20.2207">
        <ele>594.22998046875</ele>
        <time>2024-09-26T10:30:40.000Z</time>
      </trkpt>
      <trkpt lat="40.94226" lon="20.2206">
        <ele>593.75</ele>
        <time>2024-09-26T10:30:41.000Z</time>
      </trkpt>
      <trkpt lat="40.94224" lon="20.22052">
        <ele>593.27001953125</ele>
        <time>2024-09-26T10:30:42.000Z</time>
      </trkpt>
      <trkpt lat="40.9422" lon="20.22042">
        <ele>592.78997802734</ele>
        <time>2024-09-26T10:30:43.000Z</time>
      </trkpt>
      <trkpt lat="40.94215" lon="20.22034">
        <ele>592.78997802734</ele>
        <time>2024-09-26T10:30:44.000Z</time>
      </trkpt>
      <trkpt lat="40.94207" lon="20.22026">
        <ele>592.30999755859</ele>
        <time>2024-09-26T10:30:45.000Z</time>
      </trkpt>
      <trkpt lat="40.94182" lon="20.22005">
        <ele>590.86999511719</ele>
        <time>2024-09-26T10:30:48.000Z</time>
      </trkpt>
      <trkpt lat="40.94172" lon="20.21996">
        <ele>589.90997314453</ele>
        <time>2024-09-26T10:30:50.000Z</time>
      </trkpt>
      <trkpt lat="40.94169" lon="20.21994">
        <ele>589.42999267578</ele>
        <time>2024-09-26T10:30:51.000Z</time>
      </trkpt>
      <trkpt lat="40.94164" lon="20.2199">
        <ele>588.95001220703</ele>
        <time>2024-09-26T10:30:52.000Z</time>
      </trkpt>
      <trkpt lat="40.9416" lon="20.21988">
        <ele>588.46002197266</ele>
        <time>2024-09-26T10:30:53.000Z</time>
      </trkpt>
      <trkpt lat="40.94155" lon="20.21987">
        <ele>587.97998046875</ele>
        <time>2024-09-26T10:30:54.000Z</time>
      </trkpt>
      <trkpt lat="40.94151" lon="20.21986">
        <ele>587.97998046875</ele>
        <time>2024-09-26T10:30:55.000Z</time>
      </trkpt>
      <trkpt lat="40.94145" lon="20.21984">
        <ele>587.5</ele>
        <time>2024-09-26T10:31:02.000Z</time>
      </trkpt>
      <trkpt lat="40.9414" lon="20.21977">
        <ele>586.05999755859</ele>
        <time>2024-09-26T10:34:32.000Z</time>
      </trkpt>
      <trkpt lat="40.94137" lon="20.21974">
        <ele>585.58001708984</ele>
        <time>2024-09-26T10:34:33.000Z</time>
      </trkpt>
      <trkpt lat="40.94135" lon="20.21968">
        <ele>585.58001708984</ele>
        <time>2024-09-26T10:34:34.000Z</time>
      </trkpt>
      <trkpt lat="40.94133" lon="20.2196">
        <ele>585.58001708984</ele>
        <time>2024-09-26T10:34:35.000Z</time>
      </trkpt>
      <trkpt lat="40.9413" lon="20.21949">
        <ele>585.09997558594</ele>
        <time>2024-09-26T10:34:36.000Z</time>
      </trkpt>
      <trkpt lat="40.94128" lon="20.21941">
        <ele>585.09997558594</ele>
        <time>2024-09-26T10:34:37.000Z</time>
      </trkpt>
      <trkpt lat="40.94128" lon="20.21938">
        <ele>585.09997558594</ele>
        <time>2024-09-26T10:34:38.000Z</time>
      </trkpt>
      <trkpt lat="40.94125" lon="20.21932">
        <ele>584.61999511719</ele>
        <time>2024-09-26T10:34:39.000Z</time>
      </trkpt>
      <trkpt lat="40.94122" lon="20.21928">
        <ele>585.09997558594</ele>
        <time>2024-09-26T10:34:40.000Z</time>
      </trkpt>
      <trkpt lat="40.94119" lon="20.21926">
        <ele>584.61999511719</ele>
        <time>2024-09-26T10:34:41.000Z</time>
      </trkpt>
      <trkpt lat="40.94114" lon="20.21923">
        <ele>584.61999511719</ele>
        <time>2024-09-26T10:34:42.000Z</time>
      </trkpt>
      <trkpt lat="40.9411" lon="20.21922">
        <ele>584.14001464844</ele>
        <time>2024-09-26T10:34:43.000Z</time>
      </trkpt>
      <trkpt lat="40.94102" lon="20.21923">
        <ele>583.65997314453</ele>
        <time>2024-09-26T10:34:45.000Z</time>
      </trkpt>
      <trkpt lat="40.94096" lon="20.21924">
        <ele>582.70001220703</ele>
        <time>2024-09-26T10:34:46.000Z</time>
      </trkpt>
      <trkpt lat="40.94091" lon="20.21925">
        <ele>582.70001220703</ele>
        <time>2024-09-26T10:34:47.000Z</time>
      </trkpt>
      <trkpt lat="40.9409" lon="20.21926">
        <ele>582.21997070312</ele>
        <time>2024-09-26T10:34:48.000Z</time>
      </trkpt>
      <trkpt lat="40.94085" lon="20.21929">
        <ele>581.72998046875</ele>
        <time>2024-09-26T10:34:49.000Z</time>
      </trkpt>
      <trkpt lat="40.9408" lon="20.21932">
        <ele>581.72998046875</ele>
        <time>2024-09-26T10:34:50.000Z</time>
      </trkpt>
      <trkpt lat="40.94079" lon="20.21933">
        <ele>581.25</ele>
        <time>2024-09-26T10:34:51.000Z</time>
      </trkpt>
      <trkpt lat="40.94075" lon="20.21936">
        <ele>580.77001953125</ele>
        <time>2024-09-26T10:34:52.000Z</time>
      </trkpt>
      <trkpt lat="40.94071" lon="20.2194">
        <ele>580.28997802734</ele>
        <time>2024-09-26T10:34:53.000Z</time>
      </trkpt>
      <trkpt lat="40.94065" lon="20.21946">
        <ele>579.80999755859</ele>
        <time>2024-09-26T10:34:54.000Z</time>
      </trkpt>
      <trkpt lat="40.94061" lon="20.21949">
        <ele>579.33001708984</ele>
        <time>2024-09-26T10:34:55.000Z</time>
      </trkpt>
      <trkpt lat="40.94045" lon="20.21964">
        <ele>577.89001464844</ele>
        <time>2024-09-26T10:34:57.000Z</time>
      </trkpt>
      <trkpt lat="40.9404" lon="20.21969">
        <ele>577.40997314453</ele>
        <time>2024-09-26T10:34:58.000Z</time>
      </trkpt>
      <trkpt lat="40.94033" lon="20.21977">
        <ele>576.92999267578</ele>
        <time>2024-09-26T10:34:59.000Z</time>
      </trkpt>
      <trkpt lat="40.94014" lon="20.21999">
        <ele>574.53002929688</ele>
        <time>2024-09-26T10:35:02.000Z</time>
      </trkpt>
      <trkpt lat="40.94007" lon="20.22009">
        <ele>573.55999755859</ele>
        <time>2024-09-26T10:35:03.000Z</time>
      </trkpt>
      <trkpt lat="40.93999" lon="20.2202">
        <ele>573.08001708984</ele>
        <time>2024-09-26T10:35:05.000Z</time>
      </trkpt>
      <trkpt lat="40.93995" lon="20.22024">
        <ele>572.59997558594</ele>
        <time>2024-09-26T10:35:06.000Z</time>
      </trkpt>
      <trkpt lat="40.93989" lon="20.2203">
        <ele>572.11999511719</ele>
        <time>2024-09-26T10:35:07.000Z</time>
      </trkpt>
      <trkpt lat="40.93985" lon="20.22034">
        <ele>571.64001464844</ele>
        <time>2024-09-26T10:35:08.000Z</time>
      </trkpt>
      <trkpt lat="40.93978" lon="20.22036">
        <ele>571.15997314453</ele>
        <time>2024-09-26T10:35:09.000Z</time>
      </trkpt>
      <trkpt lat="40.93971" lon="20.22038">
        <ele>571.15997314453</ele>
        <time>2024-09-26T10:35:10.000Z</time>
      </trkpt>
      <trkpt lat="40.93964" lon="20.2204">
        <ele>570.67999267578</ele>
        <time>2024-09-26T10:35:11.000Z</time>
      </trkpt>
      <trkpt lat="40.9396" lon="20.22042">
        <ele>570.20001220703</ele>
        <time>2024-09-26T10:35:12.000Z</time>
      </trkpt>
      <trkpt lat="40.93952" lon="20.22045">
        <ele>569.71997070312</ele>
        <time>2024-09-26T10:35:13.000Z</time>
      </trkpt>
      <trkpt lat="40.93946" lon="20.22049">
        <ele>569.23999023438</ele>
        <time>2024-09-26T10:35:14.000Z</time>
      </trkpt>
      <trkpt lat="40.93939" lon="20.22053">
        <ele>568.76000976562</ele>
        <time>2024-09-26T10:35:15.000Z</time>
      </trkpt>
      <trkpt lat="40.93934" lon="20.22056">
        <ele>568.76000976562</ele>
        <time>2024-09-26T10:35:16.000Z</time>
      </trkpt>
      <trkpt lat="40.93929" lon="20.22057">
        <ele>568.76000976562</ele>
        <time>2024-09-26T10:35:17.000Z</time>
      </trkpt>
      <trkpt lat="40.93923" lon="20.22058">
        <ele>568.76000976562</ele>
        <time>2024-09-26T10:35:18.000Z</time>
      </trkpt>
      <trkpt lat="40.93919" lon="20.22057">
        <ele>569.23999023438</ele>
        <time>2024-09-26T10:35:19.000Z</time>
      </trkpt>
      <trkpt lat="40.93915" lon="20.22055">
        <ele>569.23999023438</ele>
        <time>2024-09-26T10:35:20.000Z</time>
      </trkpt>
      <trkpt lat="40.9391" lon="20.22048">
        <ele>568.28002929688</ele>
        <time>2024-09-26T10:35:21.000Z</time>
      </trkpt>
      <trkpt lat="40.93904" lon="20.22037">
        <ele>567.32000732422</ele>
        <time>2024-09-26T10:35:22.000Z</time>
      </trkpt>
      <trkpt lat="40.93901" lon="20.22034">
        <ele>566.83001708984</ele>
        <time>2024-09-26T10:35:23.000Z</time>
      </trkpt>
      <trkpt lat="40.93897" lon="20.22027">
        <ele>566.34997558594</ele>
        <time>2024-09-26T10:35:24.000Z</time>
      </trkpt>
      <trkpt lat="40.93894" lon="20.22024">
        <ele>565.86999511719</ele>
        <time>2024-09-26T10:35:25.000Z</time>
      </trkpt>
      <trkpt lat="40.9389" lon="20.2202">
        <ele>565.86999511719</ele>
        <time>2024-09-26T10:35:26.000Z</time>
      </trkpt>
      <trkpt lat="40.93883" lon="20.22015">
        <ele>565.39001464844</ele>
        <time>2024-09-26T10:35:27.000Z</time>
      </trkpt>
      <trkpt lat="40.93878" lon="20.22013">
        <ele>565.39001464844</ele>
        <time>2024-09-26T10:35:28.000Z</time>
      </trkpt>
      <trkpt lat="40.93872" lon="20.22011">
        <ele>564.90997314453</ele>
        <time>2024-09-26T10:35:29.000Z</time>
      </trkpt>
      <trkpt lat="40.93865" lon="20.22011">
        <ele>564.42999267578</ele>
        <time>2024-09-26T10:35:30.000Z</time>
      </trkpt>
      <trkpt lat="40.93857" lon="20.22013">
        <ele>563.46997070312</ele>
        <time>2024-09-26T10:35:31.000Z</time>
      </trkpt>
      <trkpt lat="40.93851" lon="20.22015">
        <ele>562.98999023438</ele>
        <time>2024-09-26T10:35:32.000Z</time>
      </trkpt>
      <trkpt lat="40.93842" lon="20.22019">
        <ele>562.51000976562</ele>
        <time>2024-09-26T10:35:33.000Z</time>
      </trkpt>
      <trkpt lat="40.93839" lon="20.2202">
        <ele>562.51000976562</ele>
        <time>2024-09-26T10:35:34.000Z</time>
      </trkpt>
      <trkpt lat="40.93833" lon="20.22022">
        <ele>562.03002929688</ele>
        <time>2024-09-26T10:35:35.000Z</time>
      </trkpt>
      <trkpt lat="40.93825" lon="20.22022">
        <ele>561.54998779297</ele>
        <time>2024-09-26T10:35:36.000Z</time>
      </trkpt>
      <trkpt lat="40.93814" lon="20.22019">
        <ele>559.61999511719</ele>
        <time>2024-09-26T10:35:37.000Z</time>
      </trkpt>
      <trkpt lat="40.9381" lon="20.22018">
        <ele>559.61999511719</ele>
        <time>2024-09-26T10:35:38.000Z</time>
      </trkpt>
      <trkpt lat="40.93802" lon="20.22018">
        <ele>558.65997314453</ele>
        <time>2024-09-26T10:35:39.000Z</time>
      </trkpt>
      <trkpt lat="40.93789" lon="20.22021">
        <ele>557.70001220703</ele>
        <time>2024-09-26T10:35:40.000Z</time>
      </trkpt>
      <trkpt lat="40.93785" lon="20.22022">
        <ele>557.70001220703</ele>
        <time>2024-09-26T10:35:41.000Z</time>
      </trkpt>
      <trkpt lat="40.93775" lon="20.22026">
        <ele>557.21997070312</ele>
        <time>2024-09-26T10:35:42.000Z</time>
      </trkpt>
      <trkpt lat="40.93771" lon="20.22027">
        <ele>556.73999023438</ele>
        <time>2024-09-26T10:35:43.000Z</time>
      </trkpt>
      <trkpt lat="40.93765" lon="20.22028">
        <ele>556.73999023438</ele>
        <time>2024-09-26T10:35:44.000Z</time>
      </trkpt>
      <trkpt lat="40.9376" lon="20.22028">
        <ele>556.73999023438</ele>
        <time>2024-09-26T10:35:45.000Z</time>
      </trkpt>
      <trkpt lat="40.93753" lon="20.22026">
        <ele>555.78002929688</ele>
        <time>2024-09-26T10:35:46.000Z</time>
      </trkpt>
      <trkpt lat="40.93737" lon="20.22017">
        <ele>554.82000732422</ele>
        <time>2024-09-26T10:35:48.000Z</time>
      </trkpt>
      <trkpt lat="40.93733" lon="20.22015">
        <ele>554.34002685547</ele>
        <time>2024-09-26T10:35:49.000Z</time>
      </trkpt>
      <trkpt lat="40.93724" lon="20.22009">
        <ele>553.38000488281</ele>
        <time>2024-09-26T10:35:50.000Z</time>
      </trkpt>
      <trkpt lat="40.93714" lon="20.22">
        <ele>552.40997314453</ele>
        <time>2024-09-26T10:35:52.000Z</time>
      </trkpt>
      <trkpt lat="40.93708" lon="20.21995">
        <ele>551.92999267578</ele>
        <time>2024-09-26T10:35:53.000Z</time>
      </trkpt>
      <trkpt lat="40.93704" lon="20.21992">
        <ele>551.45001220703</ele>
        <time>2024-09-26T10:35:54.000Z</time>
      </trkpt>
      <trkpt lat="40.93698" lon="20.21989">
        <ele>550.96997070312</ele>
        <time>2024-09-26T10:35:55.000Z</time>
      </trkpt>
      <trkpt lat="40.93691" lon="20.21987">
        <ele>550.96997070312</ele>
        <time>2024-09-26T10:35:56.000Z</time>
      </trkpt>
      <trkpt lat="40.93687" lon="20.21986">
        <ele>550.48999023438</ele>
        <time>2024-09-26T10:35:57.000Z</time>
      </trkpt>
      <trkpt lat="40.93678" lon="20.21985">
        <ele>549.53002929688</ele>
        <time>2024-09-26T10:35:58.000Z</time>
      </trkpt>
      <trkpt lat="40.93674" lon="20.21985">
        <ele>549.53002929688</ele>
        <time>2024-09-26T10:35:59.000Z</time>
      </trkpt>
      <trkpt lat="40.93641" lon="20.21975">
        <ele>545.69000244141</ele>
        <time>2024-09-26T10:36:03.000Z</time>
      </trkpt>
      <trkpt lat="40.93637" lon="20.21974">
        <ele>544.71997070312</ele>
        <time>2024-09-26T10:36:04.000Z</time>
      </trkpt>
      <trkpt lat="40.93629" lon="20.21972">
        <ele>543.28002929688</ele>
        <time>2024-09-26T10:36:05.000Z</time>
      </trkpt>
      <trkpt lat="40.93624" lon="20.2197">
        <ele>543.28002929688</ele>
        <time>2024-09-26T10:36:12.000Z</time>
      </trkpt>
      <trkpt lat="40.93623" lon="20.2197">
        <ele>543.28002929688</ele>
        <time>2024-09-26T10:37:07.000Z</time>
      </trkpt>
      <trkpt lat="40.93614" lon="20.21966">
        <ele>543.28002929688</ele>
        <time>2024-09-26T10:39:30.000Z</time>
      </trkpt>
      <trkpt lat="40.93609" lon="20.21965">
        <ele>542.79998779297</ele>
        <time>2024-09-26T10:39:31.000Z</time>
      </trkpt>
      <trkpt lat="40.93607" lon="20.21964">
        <ele>542.32000732422</ele>
        <time>2024-09-26T10:39:32.000Z</time>
      </trkpt>
      <trkpt lat="40.93596" lon="20.21962">
        <ele>541.84002685547</ele>
        <time>2024-09-26T10:39:33.000Z</time>
      </trkpt>
      <trkpt lat="40.93595" lon="20.21962">
        <ele>541.84002685547</ele>
        <time>2024-09-26T10:39:34.000Z</time>
      </trkpt>
      <trkpt lat="40.9359" lon="20.21958">
        <ele>541.84002685547</ele>
        <time>2024-09-26T10:39:35.000Z</time>
      </trkpt>
      <trkpt lat="40.93587" lon="20.21954">
        <ele>541.35998535156</ele>
        <time>2024-09-26T10:39:36.000Z</time>
      </trkpt>
      <trkpt lat="40.93585" lon="20.21947">
        <ele>540.88000488281</ele>
        <time>2024-09-26T10:39:37.000Z</time>
      </trkpt>
      <trkpt lat="40.93586" lon="20.21939">
        <ele>539.91998291016</ele>
        <time>2024-09-26T10:39:38.000Z</time>
      </trkpt>
      <trkpt lat="40.93588" lon="20.21932">
        <ele>538.96002197266</ele>
        <time>2024-09-26T10:39:39.000Z</time>
      </trkpt>
      <trkpt lat="40.93595" lon="20.2192">
        <ele>537.51000976562</ele>
        <time>2024-09-26T10:39:41.000Z</time>
      </trkpt>
      <trkpt lat="40.93599" lon="20.21912">
        <ele>536.54998779297</ele>
        <time>2024-09-26T10:39:42.000Z</time>
      </trkpt>
      <trkpt lat="40.936" lon="20.21908">
        <ele>536.07000732422</ele>
        <time>2024-09-26T10:39:43.000Z</time>
      </trkpt>
      <trkpt lat="40.93603" lon="20.21902">
        <ele>535.10998535156</ele>
        <time>2024-09-26T10:39:44.000Z</time>
      </trkpt>
      <trkpt lat="40.93605" lon="20.21897">
        <ele>534.63000488281</ele>
        <time>2024-09-26T10:39:45.000Z</time>
      </trkpt>
      <trkpt lat="40.93608" lon="20.2189">
        <ele>533.66998291016</ele>
        <time>2024-09-26T10:39:46.000Z</time>
      </trkpt>
      <trkpt lat="40.93611" lon="20.21884">
        <ele>533.19000244141</ele>
        <time>2024-09-26T10:39:47.000Z</time>
      </trkpt>
      <trkpt lat="40.93614" lon="20.21878">
        <ele>532.22998046875</ele>
        <time>2024-09-26T10:39:48.000Z</time>
      </trkpt>
      <trkpt lat="40.93615" lon="20.21875">
        <ele>531.75</ele>
        <time>2024-09-26T10:39:49.000Z</time>
      </trkpt>
      <trkpt lat="40.93619" lon="20.21868">
        <ele>530.78997802734</ele>
        <time>2024-09-26T10:39:50.000Z</time>
      </trkpt>
      <trkpt lat="40.93622" lon="20.21864">
        <ele>530.78997802734</ele>
        <time>2024-09-26T10:39:51.000Z</time>
      </trkpt>
      <trkpt lat="40.93625" lon="20.2186">
        <ele>530.29998779297</ele>
        <time>2024-09-26T10:39:52.000Z</time>
      </trkpt>
      <trkpt lat="40.93629" lon="20.21855">
        <ele>529.34002685547</ele>
        <time>2024-09-26T10:39:53.000Z</time>
      </trkpt>
      <trkpt lat="40.93633" lon="20.21849">
        <ele>528.85998535156</ele>
        <time>2024-09-26T10:39:54.000Z</time>
      </trkpt>
      <trkpt lat="40.93635" lon="20.21847">
        <ele>528.85998535156</ele>
        <time>2024-09-26T10:39:55.000Z</time>
      </trkpt>
      <trkpt lat="40.93637" lon="20.21842">
        <ele>528.38000488281</ele>
        <time>2024-09-26T10:39:56.000Z</time>
      </trkpt>
      <trkpt lat="40.93635" lon="20.21817">
        <ele>527.41998291016</ele>
        <time>2024-09-26T10:40:04.000Z</time>
      </trkpt>
      <trkpt lat="40.93635" lon="20.21816">
        <ele>528.38000488281</ele>
        <time>2024-09-26T10:41:33.000Z</time>
      </trkpt>
      <trkpt lat="40.93631" lon="20.21812">
        <ele>527.90002441406</ele>
        <time>2024-09-26T10:41:34.000Z</time>
      </trkpt>
      <trkpt lat="40.9363" lon="20.21809">
        <ele>527.90002441406</ele>
        <time>2024-09-26T10:41:35.000Z</time>
      </trkpt>
      <trkpt lat="40.93626" lon="20.21805">
        <ele>527.41998291016</ele>
        <time>2024-09-26T10:41:36.000Z</time>
      </trkpt>
      <trkpt lat="40.93617" lon="20.21793">
        <ele>526.94000244141</ele>
        <time>2024-09-26T10:41:38.000Z</time>
      </trkpt>
      <trkpt lat="40.93613" lon="20.21788">
        <ele>526.46002197266</ele>
        <time>2024-09-26T10:41:39.000Z</time>
      </trkpt>
      <trkpt lat="40.9361" lon="20.2178">
        <ele>525.97998046875</ele>
        <time>2024-09-26T10:41:40.000Z</time>
      </trkpt>
      <trkpt lat="40.93608" lon="20.21771">
        <ele>525.5</ele>
        <time>2024-09-26T10:41:41.000Z</time>
      </trkpt>
      <trkpt lat="40.93608" lon="20.21763">
        <ele>524.53997802734</ele>
        <time>2024-09-26T10:41:42.000Z</time>
      </trkpt>
      <trkpt lat="40.93609" lon="20.21753">
        <ele>524.05999755859</ele>
        <time>2024-09-26T10:41:43.000Z</time>
      </trkpt>
      <trkpt lat="40.93611" lon="20.21733">
        <ele>521.65002441406</ele>
        <time>2024-09-26T10:41:45.000Z</time>
      </trkpt>
      <trkpt lat="40.93612" lon="20.21723">
        <ele>520.69000244141</ele>
        <time>2024-09-26T10:41:46.000Z</time>
      </trkpt>
      <trkpt lat="40.93612" lon="20.21714">
        <ele>519.25</ele>
        <time>2024-09-26T10:41:47.000Z</time>
      </trkpt>
      <trkpt lat="40.9361" lon="20.2168">
        <ele>515.40002441406</ele>
        <time>2024-09-26T10:41:50.000Z</time>
      </trkpt>
      <trkpt lat="40.93609" lon="20.21671">
        <ele>514.91998291016</ele>
        <time>2024-09-26T10:41:51.000Z</time>
      </trkpt>
      <trkpt lat="40.93607" lon="20.21661">
        <ele>513.96002197266</ele>
        <time>2024-09-26T10:41:52.000Z</time>
      </trkpt>
      <trkpt lat="40.93604" lon="20.21651">
        <ele>513</ele>
        <time>2024-09-26T10:41:53.000Z</time>
      </trkpt>
      <trkpt lat="40.936" lon="20.21643">
        <ele>512.03997802734</ele>
        <time>2024-09-26T10:41:54.000Z</time>
      </trkpt>
      <trkpt lat="40.93594" lon="20.21636">
        <ele>511.55999755859</ele>
        <time>2024-09-26T10:41:55.000Z</time>
      </trkpt>
      <trkpt lat="40.93588" lon="20.21631">
        <ele>510.60000610352</ele>
        <time>2024-09-26T10:41:56.000Z</time>
      </trkpt>
      <trkpt lat="40.9358" lon="20.21628">
        <ele>509.64001464844</ele>
        <time>2024-09-26T10:41:57.000Z</time>
      </trkpt>
      <trkpt lat="40.9357" lon="20.21625">
        <ele>508.19000244141</ele>
        <time>2024-09-26T10:41:58.000Z</time>
      </trkpt>
      <trkpt lat="40.93563" lon="20.21625">
        <ele>507.23001098633</ele>
        <time>2024-09-26T10:41:59.000Z</time>
      </trkpt>
      <trkpt lat="40.93553" lon="20.21625">
        <ele>505.79000854492</ele>
        <time>2024-09-26T10:42:00.000Z</time>
      </trkpt>
      <trkpt lat="40.93545" lon="20.21625">
        <ele>504.82998657227</ele>
        <time>2024-09-26T10:42:01.000Z</time>
      </trkpt>
      <trkpt lat="40.93534" lon="20.21624">
        <ele>503.39001464844</ele>
        <time>2024-09-26T10:42:02.000Z</time>
      </trkpt>
      <trkpt lat="40.93524" lon="20.21623">
        <ele>502.42999267578</ele>
        <time>2024-09-26T10:42:03.000Z</time>
      </trkpt>
      <trkpt lat="40.93519" lon="20.21622">
        <ele>501.95001220703</ele>
        <time>2024-09-26T10:42:04.000Z</time>
      </trkpt>
      <trkpt lat="40.93511" lon="20.21618">
        <ele>500.5</ele>
        <time>2024-09-26T10:42:05.000Z</time>
      </trkpt>
      <trkpt lat="40.93504" lon="20.21612">
        <ele>499.05999755859</ele>
        <time>2024-09-26T10:42:06.000Z</time>
      </trkpt>
      <trkpt lat="40.93498" lon="20.21605">
        <ele>497.61999511719</ele>
        <time>2024-09-26T10:42:07.000Z</time>
      </trkpt>
      <trkpt lat="40.93493" lon="20.21596">
        <ele>496.66000366211</ele>
        <time>2024-09-26T10:42:08.000Z</time>
      </trkpt>
      <trkpt lat="40.93491" lon="20.21587">
        <ele>495.70001220703</ele>
        <time>2024-09-26T10:42:09.000Z</time>
      </trkpt>
      <trkpt lat="40.9349" lon="20.21579">
        <ele>495.2200012207</ele>
        <time>2024-09-26T10:42:10.000Z</time>
      </trkpt>
      <trkpt lat="40.93492" lon="20.21572">
        <ele>494.26000976562</ele>
        <time>2024-09-26T10:42:11.000Z</time>
      </trkpt>
      <trkpt lat="40.93494" lon="20.21563">
        <ele>493.29000854492</ele>
        <time>2024-09-26T10:42:12.000Z</time>
      </trkpt>
      <trkpt lat="40.93498" lon="20.21553">
        <ele>492.32998657227</ele>
        <time>2024-09-26T10:42:13.000Z</time>
      </trkpt>
      <trkpt lat="40.93505" lon="20.21535">
        <ele>490.41000366211</ele>
        <time>2024-09-26T10:42:14.000Z</time>
      </trkpt>
      <trkpt lat="40.93509" lon="20.21526">
        <ele>489.45001220703</ele>
        <time>2024-09-26T10:42:15.000Z</time>
      </trkpt>
      <trkpt lat="40.93512" lon="20.2152">
        <ele>488.9700012207</ele>
        <time>2024-09-26T10:42:16.000Z</time>
      </trkpt>
      <trkpt lat="40.93515" lon="20.21514">
        <ele>488.48999023438</ele>
        <time>2024-09-26T10:42:17.000Z</time>
      </trkpt>
      <trkpt lat="40.93521" lon="20.21506">
        <ele>487.5299987793</ele>
        <time>2024-09-26T10:42:18.000Z</time>
      </trkpt>
      <trkpt lat="40.93526" lon="20.215">
        <ele>486.55999755859</ele>
        <time>2024-09-26T10:42:19.000Z</time>
      </trkpt>
      <trkpt lat="40.93533" lon="20.21494">
        <ele>485.60000610352</ele>
        <time>2024-09-26T10:42:20.000Z</time>
      </trkpt>
      <trkpt lat="40.9354" lon="20.21489">
        <ele>484.64001464844</ele>
        <time>2024-09-26T10:42:21.000Z</time>
      </trkpt>
      <trkpt lat="40.93548" lon="20.21486">
        <ele>483.20001220703</ele>
        <time>2024-09-26T10:42:22.000Z</time>
      </trkpt>
      <trkpt lat="40.93555" lon="20.21483">
        <ele>482.23999023438</ele>
        <time>2024-09-26T10:42:23.000Z</time>
      </trkpt>
      <trkpt lat="40.93559" lon="20.2148">
        <ele>481.2799987793</ele>
        <time>2024-09-26T10:42:24.000Z</time>
      </trkpt>
      <trkpt lat="40.93562" lon="20.21475">
        <ele>480.79998779297</ele>
        <time>2024-09-26T10:42:25.000Z</time>
      </trkpt>
      <trkpt lat="40.93563" lon="20.21469">
        <ele>480.79998779297</ele>
        <time>2024-09-26T10:42:26.000Z</time>
      </trkpt>
      <trkpt lat="40.93561" lon="20.21464">
        <ele>480.32000732422</ele>
        <time>2024-09-26T10:42:27.000Z</time>
      </trkpt>
      <trkpt lat="40.93557" lon="20.2146">
        <ele>479.83999633789</ele>
        <time>2024-09-26T10:42:28.000Z</time>
      </trkpt>
      <trkpt lat="40.93551" lon="20.21458">
        <ele>479.35000610352</ele>
        <time>2024-09-26T10:42:29.000Z</time>
      </trkpt>
      <trkpt lat="40.93544" lon="20.21459">
        <ele>478.39001464844</ele>
        <time>2024-09-26T10:42:30.000Z</time>
      </trkpt>
      <trkpt lat="40.93534" lon="20.21463">
        <ele>477.91000366211</ele>
        <time>2024-09-26T10:42:31.000Z</time>
      </trkpt>
      <trkpt lat="40.93529" lon="20.21466">
        <ele>477.42999267578</ele>
        <time>2024-09-26T10:42:32.000Z</time>
      </trkpt>
      <trkpt lat="40.93506" lon="20.21476">
        <ele>476.4700012207</ele>
        <time>2024-09-26T10:42:34.000Z</time>
      </trkpt>
      <trkpt lat="40.93498" lon="20.2148">
        <ele>475.98999023438</ele>
        <time>2024-09-26T10:42:35.000Z</time>
      </trkpt>
      <trkpt lat="40.93495" lon="20.21483">
        <ele>475.98999023438</ele>
        <time>2024-09-26T10:42:36.000Z</time>
      </trkpt>
      <trkpt lat="40.93486" lon="20.2149">
        <ele>475.51000976562</ele>
        <time>2024-09-26T10:42:37.000Z</time>
      </trkpt>
      <trkpt lat="40.93468" lon="20.21507">
        <ele>474.54998779297</ele>
        <time>2024-09-26T10:42:39.000Z</time>
      </trkpt>
      <trkpt lat="40.93465" lon="20.2151">
        <ele>474.54998779297</ele>
        <time>2024-09-26T10:42:40.000Z</time>
      </trkpt>
      <trkpt lat="40.93453" lon="20.21519">
        <ele>474.07000732422</ele>
        <time>2024-09-26T10:42:42.000Z</time>
      </trkpt>
      <trkpt lat="40.93445" lon="20.21525">
        <ele>473.10998535156</ele>
        <time>2024-09-26T10:42:43.000Z</time>
      </trkpt>
      <trkpt lat="40.93438" lon="20.21531">
        <ele>472.63000488281</ele>
        <time>2024-09-26T10:42:44.000Z</time>
      </trkpt>
      <trkpt lat="40.93433" lon="20.21538">
        <ele>472.14001464844</ele>
        <time>2024-09-26T10:42:45.000Z</time>
      </trkpt>
      <trkpt lat="40.93429" lon="20.21546">
        <ele>471.66000366211</ele>
        <time>2024-09-26T10:42:46.000Z</time>
      </trkpt>
      <trkpt lat="40.93426" lon="20.21555">
        <ele>471.17999267578</ele>
        <time>2024-09-26T10:42:47.000Z</time>
      </trkpt>
      <trkpt lat="40.93425" lon="20.21566">
        <ele>470.2200012207</ele>
        <time>2024-09-26T10:42:48.000Z</time>
      </trkpt>
      <trkpt lat="40.93425" lon="20.21577">
        <ele>469.73999023438</ele>
        <time>2024-09-26T10:42:49.000Z</time>
      </trkpt>
      <trkpt lat="40.93426" lon="20.2159">
        <ele>469.26000976562</ele>
        <time>2024-09-26T10:42:50.000Z</time>
      </trkpt>
      <trkpt lat="40.93428" lon="20.216">
        <ele>468.7799987793</ele>
        <time>2024-09-26T10:42:51.000Z</time>
      </trkpt>
      <trkpt lat="40.9343" lon="20.21612">
        <ele>467.82000732422</ele>
        <time>2024-09-26T10:42:52.000Z</time>
      </trkpt>
      <trkpt lat="40.93434" lon="20.21624">
        <ele>466.85998535156</ele>
        <time>2024-09-26T10:42:53.000Z</time>
      </trkpt>
      <trkpt lat="40.93437" lon="20.21631">
        <ele>465.89999389648</ele>
        <time>2024-09-26T10:42:54.000Z</time>
      </trkpt>
      <trkpt lat="40.93439" lon="20.21641">
        <ele>464.92999267578</ele>
        <time>2024-09-26T10:42:55.000Z</time>
      </trkpt>
      <trkpt lat="40.93439" lon="20.2165">
        <ele>464.45001220703</ele>
        <time>2024-09-26T10:42:56.000Z</time>
      </trkpt>
      <trkpt lat="40.93435" lon="20.21672">
        <ele>462.5299987793</ele>
        <time>2024-09-26T10:42:58.000Z</time>
      </trkpt>
      <trkpt lat="40.93434" lon="20.21675">
        <ele>462.5299987793</ele>
        <time>2024-09-26T10:42:59.000Z</time>
      </trkpt>
      <trkpt lat="40.93432" lon="20.2168">
        <ele>462.04998779297</ele>
        <time>2024-09-26T10:43:00.000Z</time>
      </trkpt>
      <trkpt lat="40.93417" lon="20.21674">
        <ele>458.69000244141</ele>
        <time>2024-09-26T10:43:05.000Z</time>
      </trkpt>
      <trkpt lat="40.93416" lon="20.21669">
        <ele>458.20999145508</ele>
        <time>2024-09-26T10:43:06.000Z</time>
      </trkpt>
      <trkpt lat="40.93417" lon="20.21662">
        <ele>457.7200012207</ele>
        <time>2024-09-26T10:43:07.000Z</time>
      </trkpt>
      <trkpt lat="40.93419" lon="20.21654">
        <ele>456.76000976562</ele>
        <time>2024-09-26T10:43:08.000Z</time>
      </trkpt>
      <trkpt lat="40.93418" lon="20.21647">
        <ele>456.76000976562</ele>
        <time>2024-09-26T10:43:09.000Z</time>
      </trkpt>
      <trkpt lat="40.93415" lon="20.2164">
        <ele>456.2799987793</ele>
        <time>2024-09-26T10:43:10.000Z</time>
      </trkpt>
      <trkpt lat="40.93407" lon="20.21627">
        <ele>454.83999633789</ele>
        <time>2024-09-26T10:43:12.000Z</time>
      </trkpt>
      <trkpt lat="40.93404" lon="20.21619">
        <ele>454.35998535156</ele>
        <time>2024-09-26T10:43:13.000Z</time>
      </trkpt>
      <trkpt lat="40.93402" lon="20.2161">
        <ele>453.88000488281</ele>
        <time>2024-09-26T10:43:14.000Z</time>
      </trkpt>
      <trkpt lat="40.934" lon="20.21593">
        <ele>452.92001342773</ele>
        <time>2024-09-26T10:43:15.000Z</time>
      </trkpt>
      <trkpt lat="40.93398" lon="20.21568">
        <ele>451.48001098633</ele>
        <time>2024-09-26T10:43:17.000Z</time>
      </trkpt>
      <trkpt lat="40.93398" lon="20.21565">
        <ele>451.48001098633</ele>
        <time>2024-09-26T10:43:18.000Z</time>
      </trkpt>
      <trkpt lat="40.93396" lon="20.21548">
        <ele>450.51998901367</ele>
        <time>2024-09-26T10:43:20.000Z</time>
      </trkpt>
      <trkpt lat="40.93395" lon="20.21537">
        <ele>449.54998779297</ele>
        <time>2024-09-26T10:43:21.000Z</time>
      </trkpt>
      <trkpt lat="40.93395" lon="20.21528">
        <ele>449.07000732422</ele>
        <time>2024-09-26T10:43:22.000Z</time>
      </trkpt>
      <trkpt lat="40.93396" lon="20.21518">
        <ele>448.10998535156</ele>
        <time>2024-09-26T10:43:23.000Z</time>
      </trkpt>
      <trkpt lat="40.93399" lon="20.21508">
        <ele>447.63000488281</ele>
        <time>2024-09-26T10:43:24.000Z</time>
      </trkpt>
      <trkpt lat="40.93403" lon="20.21499">
        <ele>447.14999389648</ele>
        <time>2024-09-26T10:43:25.000Z</time>
      </trkpt>
      <trkpt lat="40.93414" lon="20.21481">
        <ele>446.19000244141</ele>
        <time>2024-09-26T10:43:26.000Z</time>
      </trkpt>
      <trkpt lat="40.93419" lon="20.21474">
        <ele>445.70999145508</ele>
        <time>2024-09-26T10:43:27.000Z</time>
      </trkpt>
      <trkpt lat="40.93422" lon="20.21471">
        <ele>445.23001098633</ele>
        <time>2024-09-26T10:43:28.000Z</time>
      </trkpt>
      <trkpt lat="40.93428" lon="20.21464">
        <ele>444.75</ele>
        <time>2024-09-26T10:43:29.000Z</time>
      </trkpt>
      <trkpt lat="40.93434" lon="20.21455">
        <ele>444.26998901367</ele>
        <time>2024-09-26T10:43:30.000Z</time>
      </trkpt>
      <trkpt lat="40.93439" lon="20.21447">
        <ele>444.26998901367</ele>
        <time>2024-09-26T10:43:31.000Z</time>
      </trkpt>
      <trkpt lat="40.93445" lon="20.21436">
        <ele>443.30999755859</ele>
        <time>2024-09-26T10:43:32.000Z</time>
      </trkpt>
      <trkpt lat="40.93449" lon="20.21431">
        <ele>442.82000732422</ele>
        <time>2024-09-26T10:43:33.000Z</time>
      </trkpt>
      <trkpt lat="40.93454" lon="20.21424">
        <ele>442.33999633789</ele>
        <time>2024-09-26T10:43:34.000Z</time>
      </trkpt>
      <trkpt lat="40.93458" lon="20.21419">
        <ele>440.89999389648</ele>
        <time>2024-09-26T10:43:35.000Z</time>
      </trkpt>
      <trkpt lat="40.9346" lon="20.21413">
        <ele>440.89999389648</ele>
        <time>2024-09-26T10:43:36.000Z</time>
      </trkpt>
      <trkpt lat="40.93452" lon="20.21404">
        <ele>440.42001342773</ele>
        <time>2024-09-26T10:43:38.000Z</time>
      </trkpt>
      <trkpt lat="40.93452" lon="20.21404">
        <ele>440.42001342773</ele>
        <time>2024-09-26T10:43:39.000Z</time>
      </trkpt>
      <trkpt lat="40.93448" lon="20.21406">
        <ele>439.94000244141</ele>
        <time>2024-09-26T10:43:40.000Z</time>
      </trkpt>
      <trkpt lat="40.93443" lon="20.21411">
        <ele>439.45999145508</ele>
        <time>2024-09-26T10:43:41.000Z</time>
      </trkpt>
      <trkpt lat="40.93435" lon="20.21423">
        <ele>438.98001098633</ele>
        <time>2024-09-26T10:43:43.000Z</time>
      </trkpt>
      <trkpt lat="40.9343" lon="20.21428">
        <ele>438.98001098633</ele>
        <time>2024-09-26T10:43:44.000Z</time>
      </trkpt>
      <trkpt lat="40.93425" lon="20.21434">
        <ele>438.98001098633</ele>
        <time>2024-09-26T10:43:45.000Z</time>
      </trkpt>
      <trkpt lat="40.93419" lon="20.21438">
        <ele>438.5</ele>
        <time>2024-09-26T10:43:46.000Z</time>
      </trkpt>
      <trkpt lat="40.9341" lon="20.21443">
        <ele>437.54000854492</ele>
        <time>2024-09-26T10:43:47.000Z</time>
      </trkpt>
      <trkpt lat="40.93405" lon="20.21447">
        <ele>437.05999755859</ele>
        <time>2024-09-26T10:43:48.000Z</time>
      </trkpt>
      <trkpt lat="40.93399" lon="20.21452">
        <ele>436.57998657227</ele>
        <time>2024-09-26T10:43:49.000Z</time>
      </trkpt>
      <trkpt lat="40.93393" lon="20.21458">
        <ele>436.10000610352</ele>
        <time>2024-09-26T10:43:50.000Z</time>
      </trkpt>
      <trkpt lat="40.93385" lon="20.21467">
        <ele>436.10000610352</ele>
        <time>2024-09-26T10:43:51.000Z</time>
      </trkpt>
      <trkpt lat="40.93381" lon="20.21475">
        <ele>436.10000610352</ele>
        <time>2024-09-26T10:43:52.000Z</time>
      </trkpt>
      <trkpt lat="40.93377" lon="20.21482">
        <ele>436.10000610352</ele>
        <time>2024-09-26T10:43:53.000Z</time>
      </trkpt>
      <trkpt lat="40.93374" lon="20.21491">
        <ele>436.10000610352</ele>
        <time>2024-09-26T10:43:54.000Z</time>
      </trkpt>
      <trkpt lat="40.93372" lon="20.21502">
        <ele>436.10000610352</ele>
        <time>2024-09-26T10:43:55.000Z</time>
      </trkpt>
      <trkpt lat="40.93368" lon="20.21541">
        <ele>435.60998535156</ele>
        <time>2024-09-26T10:43:58.000Z</time>
      </trkpt>
      <trkpt lat="40.93367" lon="20.21554">
        <ele>435.60998535156</ele>
        <time>2024-09-26T10:43:59.000Z</time>
      </trkpt>
      <trkpt lat="40.93367" lon="20.21563">
        <ele>435.60998535156</ele>
        <time>2024-09-26T10:44:00.000Z</time>
      </trkpt>
      <trkpt lat="40.93366" lon="20.21576">
        <ele>435.13000488281</ele>
        <time>2024-09-26T10:44:01.000Z</time>
      </trkpt>
      <trkpt lat="40.93365" lon="20.21585">
        <ele>435.13000488281</ele>
        <time>2024-09-26T10:44:02.000Z</time>
      </trkpt>
      <trkpt lat="40.93364" lon="20.21593">
        <ele>434.64999389648</ele>
        <time>2024-09-26T10:44:03.000Z</time>
      </trkpt>
      <trkpt lat="40.93361" lon="20.21599">
        <ele>434.17001342773</ele>
        <time>2024-09-26T10:44:04.000Z</time>
      </trkpt>
      <trkpt lat="40.93357" lon="20.21602">
        <ele>433.69000244141</ele>
        <time>2024-09-26T10:44:05.000Z</time>
      </trkpt>
      <trkpt lat="40.93353" lon="20.21604">
        <ele>433.20999145508</ele>
        <time>2024-09-26T10:44:06.000Z</time>
      </trkpt>
      <trkpt lat="40.93348" lon="20.21604">
        <ele>432.73001098633</ele>
        <time>2024-09-26T10:44:07.000Z</time>
      </trkpt>
      <trkpt lat="40.93344" lon="20.21603">
        <ele>432.25</ele>
        <time>2024-09-26T10:44:08.000Z</time>
      </trkpt>
      <trkpt lat="40.9334" lon="20.21601">
        <ele>431.76998901367</ele>
        <time>2024-09-26T10:44:09.000Z</time>
      </trkpt>
      <trkpt lat="40.93333" lon="20.21596">
        <ele>431.29000854492</ele>
        <time>2024-09-26T10:44:11.000Z</time>
      </trkpt>
      <trkpt lat="40.93322" lon="20.21587">
        <ele>431.76998901367</ele>
        <time>2024-09-26T10:44:12.000Z</time>
      </trkpt>
      <trkpt lat="40.93319" lon="20.21586">
        <ele>431.76998901367</ele>
        <time>2024-09-26T10:44:13.000Z</time>
      </trkpt>
      <trkpt lat="40.93314" lon="20.21583">
        <ele>432.25</ele>
        <time>2024-09-26T10:44:14.000Z</time>
      </trkpt>
      <trkpt lat="40.93307" lon="20.21581">
        <ele>432.25</ele>
        <time>2024-09-26T10:44:15.000Z</time>
      </trkpt>
      <trkpt lat="40.93305" lon="20.2158">
        <ele>431.76998901367</ele>
        <time>2024-09-26T10:44:16.000Z</time>
      </trkpt>
      <trkpt lat="40.93301" lon="20.21578">
        <ele>430.80999755859</ele>
        <time>2024-09-26T10:44:17.000Z</time>
      </trkpt>
      <trkpt lat="40.93297" lon="20.21574">
        <ele>429.85000610352</ele>
        <time>2024-09-26T10:44:18.000Z</time>
      </trkpt>
      <trkpt lat="40.93295" lon="20.21569">
        <ele>429.36999511719</ele>
        <time>2024-09-26T10:44:19.000Z</time>
      </trkpt>
      <trkpt lat="40.93297" lon="20.21559">
        <ele>427.92001342773</ele>
        <time>2024-09-26T10:44:21.000Z</time>
      </trkpt>
      <trkpt lat="40.933" lon="20.21556">
        <ele>427.44000244141</ele>
        <time>2024-09-26T10:44:22.000Z</time>
      </trkpt>
      <trkpt lat="40.93305" lon="20.21556">
        <ele>426.95999145508</ele>
        <time>2024-09-26T10:44:23.000Z</time>
      </trkpt>
      <trkpt lat="40.93309" lon="20.21557">
        <ele>426.48001098633</ele>
        <time>2024-09-26T10:44:24.000Z</time>
      </trkpt>
      <trkpt lat="40.93314" lon="20.2156">
        <ele>426</ele>
        <time>2024-09-26T10:44:25.000Z</time>
      </trkpt>
      <trkpt lat="40.93319" lon="20.21565">
        <ele>424.55999755859</ele>
        <time>2024-09-26T10:44:26.000Z</time>
      </trkpt>
      <trkpt lat="40.93326" lon="20.21571">
        <ele>423.60000610352</ele>
        <time>2024-09-26T10:44:27.000Z</time>
      </trkpt>
      <trkpt lat="40.93328" lon="20.21573">
        <ele>423.60000610352</ele>
        <time>2024-09-26T10:44:28.000Z</time>
      </trkpt>
      <trkpt lat="40.93332" lon="20.21576">
        <ele>422.64001464844</ele>
        <time>2024-09-26T10:44:29.000Z</time>
      </trkpt>
      <trkpt lat="40.93336" lon="20.21576">
        <ele>422.64001464844</ele>
        <time>2024-09-26T10:44:30.000Z</time>
      </trkpt>
      <trkpt lat="40.9334" lon="20.21575">
        <ele>422.64001464844</ele>
        <time>2024-09-26T10:44:31.000Z</time>
      </trkpt>
      <trkpt lat="40.93343" lon="20.21571">
        <ele>422.16000366211</ele>
        <time>2024-09-26T10:44:32.000Z</time>
      </trkpt>
      <trkpt lat="40.93344" lon="20.21564">
        <ele>421.67999267578</ele>
        <time>2024-09-26T10:44:33.000Z</time>
      </trkpt>
      <trkpt lat="40.93344" lon="20.21556">
        <ele>421.19000244141</ele>
        <time>2024-09-26T10:44:34.000Z</time>
      </trkpt>
      <trkpt lat="40.93343" lon="20.21541">
        <ele>420.23001098633</ele>
        <time>2024-09-26T10:44:35.000Z</time>
      </trkpt>
      <trkpt lat="40.93342" lon="20.21528">
        <ele>419.26998901367</ele>
        <time>2024-09-26T10:44:36.000Z</time>
      </trkpt>
      <trkpt lat="40.93343" lon="20.21485">
        <ele>416.39001464844</ele>
        <time>2024-09-26T10:44:39.000Z</time>
      </trkpt>
      <trkpt lat="40.93343" lon="20.21477">
        <ele>415.91000366211</ele>
        <time>2024-09-26T10:44:40.000Z</time>
      </trkpt>
      <trkpt lat="40.93342" lon="20.21468">
        <ele>415.42999267578</ele>
        <time>2024-09-26T10:44:41.000Z</time>
      </trkpt>
      <trkpt lat="40.93341" lon="20.21451">
        <ele>414.4700012207</ele>
        <time>2024-09-26T10:44:42.000Z</time>
      </trkpt>
      <trkpt lat="40.93341" lon="20.21447">
        <ele>414.4700012207</ele>
        <time>2024-09-26T10:44:43.000Z</time>
      </trkpt>
      <trkpt lat="40.93342" lon="20.21438">
        <ele>413.5</ele>
        <time>2024-09-26T10:44:44.000Z</time>
      </trkpt>
      <trkpt lat="40.93346" lon="20.21429">
        <ele>413.5</ele>
        <time>2024-09-26T10:44:45.000Z</time>
      </trkpt>
      <trkpt lat="40.9335" lon="20.21419">
        <ele>413.01998901367</ele>
        <time>2024-09-26T10:44:46.000Z</time>
      </trkpt>
      <trkpt lat="40.93355" lon="20.21411">
        <ele>412.54000854492</ele>
        <time>2024-09-26T10:44:47.000Z</time>
      </trkpt>
      <trkpt lat="40.9336" lon="20.21404">
        <ele>412.05999755859</ele>
        <time>2024-09-26T10:44:48.000Z</time>
      </trkpt>
      <trkpt lat="40.93365" lon="20.21397">
        <ele>411.57998657227</ele>
        <time>2024-09-26T10:44:49.000Z</time>
      </trkpt>
      <trkpt lat="40.93369" lon="20.21389">
        <ele>411.10000610352</ele>
        <time>2024-09-26T10:44:50.000Z</time>
      </trkpt>
      <trkpt lat="40.93373" lon="20.21378">
        <ele>410.14001464844</ele>
        <time>2024-09-26T10:44:51.000Z</time>
      </trkpt>
      <trkpt lat="40.93375" lon="20.21373">
        <ele>409.66000366211</ele>
        <time>2024-09-26T10:44:52.000Z</time>
      </trkpt>
      <trkpt lat="40.9338" lon="20.21367">
        <ele>409.17999267578</ele>
        <time>2024-09-26T10:44:53.000Z</time>
      </trkpt>
      <trkpt lat="40.93385" lon="20.21362">
        <ele>408.70001220703</ele>
        <time>2024-09-26T10:44:54.000Z</time>
      </trkpt>
      <trkpt lat="40.93411" lon="20.21344">
        <ele>405.32998657227</ele>
        <time>2024-09-26T10:44:57.000Z</time>
      </trkpt>
      <trkpt lat="40.93412" lon="20.21343">
        <ele>404.85000610352</ele>
        <time>2024-09-26T10:44:58.000Z</time>
      </trkpt>
      <trkpt lat="40.93436" lon="20.21325">
        <ele>401.9700012207</ele>
        <time>2024-09-26T10:45:01.000Z</time>
      </trkpt>
      <trkpt lat="40.93445" lon="20.2132">
        <ele>401.01000976562</ele>
        <time>2024-09-26T10:45:02.000Z</time>
      </trkpt>
      <trkpt lat="40.93448" lon="20.21317">
        <ele>400.04998779297</ele>
        <time>2024-09-26T10:45:03.000Z</time>
      </trkpt>
      <trkpt lat="40.93452" lon="20.21313">
        <ele>399.57000732422</ele>
        <time>2024-09-26T10:45:04.000Z</time>
      </trkpt>
      <trkpt lat="40.93453" lon="20.21307">
        <ele>399.07998657227</ele>
        <time>2024-09-26T10:45:05.000Z</time>
      </trkpt>
      <trkpt lat="40.9345" lon="20.21299">
        <ele>398.60000610352</ele>
        <time>2024-09-26T10:45:06.000Z</time>
      </trkpt>
      <trkpt lat="40.93449" lon="20.21299">
        <ele>398.11999511719</ele>
        <time>2024-09-26T10:45:07.000Z</time>
      </trkpt>
      <trkpt lat="40.93445" lon="20.21297">
        <ele>398.11999511719</ele>
        <time>2024-09-26T10:45:08.000Z</time>
      </trkpt>
      <trkpt lat="40.93439" lon="20.21298">
        <ele>397.64001464844</ele>
        <time>2024-09-26T10:45:09.000Z</time>
      </trkpt>
      <trkpt lat="40.93431" lon="20.21301">
        <ele>397.16000366211</ele>
        <time>2024-09-26T10:45:10.000Z</time>
      </trkpt>
      <trkpt lat="40.93424" lon="20.21301">
        <ele>396.67999267578</ele>
        <time>2024-09-26T10:45:11.000Z</time>
      </trkpt>
      <trkpt lat="40.93415" lon="20.213">
        <ele>396.20001220703</ele>
        <time>2024-09-26T10:45:12.000Z</time>
      </trkpt>
      <trkpt lat="40.93408" lon="20.21298">
        <ele>395.7200012207</ele>
        <time>2024-09-26T10:45:13.000Z</time>
      </trkpt>
      <trkpt lat="40.93402" lon="20.21298">
        <ele>394.76000976562</ele>
        <time>2024-09-26T10:45:14.000Z</time>
      </trkpt>
      <trkpt lat="40.93392" lon="20.21301">
        <ele>393.79998779297</ele>
        <time>2024-09-26T10:45:15.000Z</time>
      </trkpt>
      <trkpt lat="40.93384" lon="20.21304">
        <ele>393.32000732422</ele>
        <time>2024-09-26T10:45:16.000Z</time>
      </trkpt>
      <trkpt lat="40.93363" lon="20.21312">
        <ele>391.86999511719</ele>
        <time>2024-09-26T10:45:19.000Z</time>
      </trkpt>
      <trkpt lat="40.93354" lon="20.21315">
        <ele>391.39001464844</ele>
        <time>2024-09-26T10:45:20.000Z</time>
      </trkpt>
      <trkpt lat="40.93348" lon="20.21317">
        <ele>390.91000366211</ele>
        <time>2024-09-26T10:45:21.000Z</time>
      </trkpt>
      <trkpt lat="40.93342" lon="20.21321">
        <ele>390.42999267578</ele>
        <time>2024-09-26T10:45:22.000Z</time>
      </trkpt>
      <trkpt lat="40.93336" lon="20.21326">
        <ele>389.95001220703</ele>
        <time>2024-09-26T10:45:23.000Z</time>
      </trkpt>
      <trkpt lat="40.93331" lon="20.21332">
        <ele>389.95001220703</ele>
        <time>2024-09-26T10:45:24.000Z</time>
      </trkpt>
      <trkpt lat="40.93327" lon="20.2134">
        <ele>389.4700012207</ele>
        <time>2024-09-26T10:45:25.000Z</time>
      </trkpt>
      <trkpt lat="40.93324" lon="20.21349">
        <ele>388.51000976562</ele>
        <time>2024-09-26T10:45:26.000Z</time>
      </trkpt>
      <trkpt lat="40.93323" lon="20.21353">
        <ele>388.0299987793</ele>
        <time>2024-09-26T10:45:27.000Z</time>
      </trkpt>
      <trkpt lat="40.93312" lon="20.21349">
        <ele>384.66000366211</ele>
        <time>2024-09-26T10:45:32.000Z</time>
      </trkpt>
      <trkpt lat="40.93312" lon="20.21344">
        <ele>384.17999267578</ele>
        <time>2024-09-26T10:45:33.000Z</time>
      </trkpt>
      <trkpt lat="40.93314" lon="20.21338">
        <ele>383.2200012207</ele>
        <time>2024-09-26T10:45:34.000Z</time>
      </trkpt>
      <trkpt lat="40.93318" lon="20.21329">
        <ele>381.7799987793</ele>
        <time>2024-09-26T10:45:35.000Z</time>
      </trkpt>
      <trkpt lat="40.93321" lon="20.21322">
        <ele>380.82000732422</ele>
        <time>2024-09-26T10:45:36.000Z</time>
      </trkpt>
      <trkpt lat="40.93326" lon="20.21315">
        <ele>380.33999633789</ele>
        <time>2024-09-26T10:45:37.000Z</time>
      </trkpt>
      <trkpt lat="40.93329" lon="20.21309">
        <ele>379.85998535156</ele>
        <time>2024-09-26T10:45:38.000Z</time>
      </trkpt>
      <trkpt lat="40.93334" lon="20.21302">
        <ele>378.89999389648</ele>
        <time>2024-09-26T10:45:39.000Z</time>
      </trkpt>
      <trkpt lat="40.93339" lon="20.21295">
        <ele>378.42001342773</ele>
        <time>2024-09-26T10:45:40.000Z</time>
      </trkpt>
      <trkpt lat="40.93345" lon="20.2129">
        <ele>377.45001220703</ele>
        <time>2024-09-26T10:45:41.000Z</time>
      </trkpt>
      <trkpt lat="40.93352" lon="20.21286">
        <ele>376.48999023438</ele>
        <time>2024-09-26T10:45:42.000Z</time>
      </trkpt>
      <trkpt lat="40.93365" lon="20.21281">
        <ele>375.04998779297</ele>
        <time>2024-09-26T10:45:43.000Z</time>
      </trkpt>
      <trkpt lat="40.93369" lon="20.21279">
        <ele>374.57000732422</ele>
        <time>2024-09-26T10:45:44.000Z</time>
      </trkpt>
      <trkpt lat="40.93378" lon="20.21273">
        <ele>374.08999633789</ele>
        <time>2024-09-26T10:45:45.000Z</time>
      </trkpt>
      <trkpt lat="40.93396" lon="20.21257">
        <ele>372.64999389648</ele>
        <time>2024-09-26T10:45:47.000Z</time>
      </trkpt>
      <trkpt lat="40.93401" lon="20.21254">
        <ele>372.17001342773</ele>
        <time>2024-09-26T10:45:48.000Z</time>
      </trkpt>
      <trkpt lat="40.9341" lon="20.2125">
        <ele>371.69000244141</ele>
        <time>2024-09-26T10:45:49.000Z</time>
      </trkpt>
      <trkpt lat="40.93419" lon="20.21248">
        <ele>371.20999145508</ele>
        <time>2024-09-26T10:45:50.000Z</time>
      </trkpt>
      <trkpt lat="40.93426" lon="20.21246">
        <ele>370.23999023438</ele>
        <time>2024-09-26T10:45:51.000Z</time>
      </trkpt>
      <trkpt lat="40.93434" lon="20.21241">
        <ele>370.23999023438</ele>
        <time>2024-09-26T10:45:52.000Z</time>
      </trkpt>
      <trkpt lat="40.93443" lon="20.21234">
        <ele>369.76000976562</ele>
        <time>2024-09-26T10:45:53.000Z</time>
      </trkpt>
      <trkpt lat="40.93456" lon="20.2122">
        <ele>368.32000732422</ele>
        <time>2024-09-26T10:45:55.000Z</time>
      </trkpt>
      <trkpt lat="40.93463" lon="20.21213">
        <ele>367.83999633789</ele>
        <time>2024-09-26T10:45:56.000Z</time>
      </trkpt>
      <trkpt lat="40.93474" lon="20.21199">
        <ele>367.35998535156</ele>
        <time>2024-09-26T10:45:57.000Z</time>
      </trkpt>
      <trkpt lat="40.93477" lon="20.21196">
        <ele>367.35998535156</ele>
        <time>2024-09-26T10:45:58.000Z</time>
      </trkpt>
      <trkpt lat="40.93482" lon="20.21191">
        <ele>366.39999389648</ele>
        <time>2024-09-26T10:45:59.000Z</time>
      </trkpt>
      <trkpt lat="40.93488" lon="20.21188">
        <ele>365.92001342773</ele>
        <time>2024-09-26T10:46:00.000Z</time>
      </trkpt>
      <trkpt lat="40.93494" lon="20.21186">
        <ele>364.48001098633</ele>
        <time>2024-09-26T10:46:01.000Z</time>
      </trkpt>
      <trkpt lat="40.93499" lon="20.21183">
        <ele>364</ele>
        <time>2024-09-26T10:46:02.000Z</time>
      </trkpt>
      <trkpt lat="40.93503" lon="20.21179">
        <ele>363.51998901367</ele>
        <time>2024-09-26T10:46:03.000Z</time>
      </trkpt>
      <trkpt lat="40.93504" lon="20.21174">
        <ele>363.04000854492</ele>
        <time>2024-09-26T10:46:04.000Z</time>
      </trkpt>
      <trkpt lat="40.93504" lon="20.21168">
        <ele>362.54998779297</ele>
        <time>2024-09-26T10:46:05.000Z</time>
      </trkpt>
      <trkpt lat="40.93501" lon="20.21164">
        <ele>362.07000732422</ele>
        <time>2024-09-26T10:46:06.000Z</time>
      </trkpt>
      <trkpt lat="40.93497" lon="20.21161">
        <ele>361.58999633789</ele>
        <time>2024-09-26T10:46:07.000Z</time>
      </trkpt>
      <trkpt lat="40.93492" lon="20.2116">
        <ele>361.10998535156</ele>
        <time>2024-09-26T10:46:08.000Z</time>
      </trkpt>
      <trkpt lat="40.93486" lon="20.21161">
        <ele>360.63000488281</ele>
        <time>2024-09-26T10:46:09.000Z</time>
      </trkpt>
      <trkpt lat="40.9348" lon="20.21163">
        <ele>360.14999389648</ele>
        <time>2024-09-26T10:46:10.000Z</time>
      </trkpt>
      <trkpt lat="40.93474" lon="20.21165">
        <ele>359.67001342773</ele>
        <time>2024-09-26T10:46:11.000Z</time>
      </trkpt>
      <trkpt lat="40.93464" lon="20.21169">
        <ele>358.70999145508</ele>
        <time>2024-09-26T10:46:12.000Z</time>
      </trkpt>
      <trkpt lat="40.93462" lon="20.2117">
        <ele>358.70999145508</ele>
        <time>2024-09-26T10:46:13.000Z</time>
      </trkpt>
      <trkpt lat="40.93439" lon="20.2118">
        <ele>356.30999755859</ele>
        <time>2024-09-26T10:46:16.000Z</time>
      </trkpt>
      <trkpt lat="40.93434" lon="20.21182">
        <ele>356.30999755859</ele>
        <time>2024-09-26T10:46:17.000Z</time>
      </trkpt>
      <trkpt lat="40.93425" lon="20.21184">
        <ele>355.33999633789</ele>
        <time>2024-09-26T10:46:18.000Z</time>
      </trkpt>
      <trkpt lat="40.93409" lon="20.21187">
        <ele>353.89999389648</ele>
        <time>2024-09-26T10:46:20.000Z</time>
      </trkpt>
      <trkpt lat="40.93398" lon="20.21191">
        <ele>352.94000244141</ele>
        <time>2024-09-26T10:46:21.000Z</time>
      </trkpt>
      <trkpt lat="40.93364" lon="20.21208">
        <ele>348.61999511719</ele>
        <time>2024-09-26T10:46:25.000Z</time>
      </trkpt>
      <trkpt lat="40.93347" lon="20.21215">
        <ele>346.20999145508</ele>
        <time>2024-09-26T10:46:27.000Z</time>
      </trkpt>
      <trkpt lat="40.93343" lon="20.21216">
        <ele>345.73001098633</ele>
        <time>2024-09-26T10:46:28.000Z</time>
      </trkpt>
      <trkpt lat="40.93335" lon="20.21217">
        <ele>344.76998901367</ele>
        <time>2024-09-26T10:46:29.000Z</time>
      </trkpt>
      <trkpt lat="40.93328" lon="20.21215">
        <ele>343.80999755859</ele>
        <time>2024-09-26T10:46:30.000Z</time>
      </trkpt>
      <trkpt lat="40.9332" lon="20.21213">
        <ele>342.36999511719</ele>
        <time>2024-09-26T10:46:31.000Z</time>
      </trkpt>
      <trkpt lat="40.93312" lon="20.21207">
        <ele>340.92001342773</ele>
        <time>2024-09-26T10:46:32.000Z</time>
      </trkpt>
      <trkpt lat="40.93305" lon="20.21202">
        <ele>339.48001098633</ele>
        <time>2024-09-26T10:46:33.000Z</time>
      </trkpt>
      <trkpt lat="40.93286" lon="20.21185">
        <ele>336.60000610352</ele>
        <time>2024-09-26T10:46:35.000Z</time>
      </trkpt>
      <trkpt lat="40.93282" lon="20.21181">
        <ele>336.11999511719</ele>
        <time>2024-09-26T10:46:36.000Z</time>
      </trkpt>
      <trkpt lat="40.93276" lon="20.21176">
        <ele>335.64001464844</ele>
        <time>2024-09-26T10:46:37.000Z</time>
      </trkpt>
      <trkpt lat="40.93268" lon="20.21173">
        <ele>335.64001464844</ele>
        <time>2024-09-26T10:46:38.000Z</time>
      </trkpt>
      <trkpt lat="40.9326" lon="20.21171">
        <ele>334.67999267578</ele>
        <time>2024-09-26T10:46:39.000Z</time>
      </trkpt>
      <trkpt lat="40.93245" lon="20.21172">
        <ele>333.70999145508</ele>
        <time>2024-09-26T10:46:40.000Z</time>
      </trkpt>
      <trkpt lat="40.93241" lon="20.21172">
        <ele>333.70999145508</ele>
        <time>2024-09-26T10:46:41.000Z</time>
      </trkpt>
      <trkpt lat="40.93227" lon="20.21174">
        <ele>332.26998901367</ele>
        <time>2024-09-26T10:46:42.000Z</time>
      </trkpt>
      <trkpt lat="40.93212" lon="20.21177">
        <ele>330.82998657227</ele>
        <time>2024-09-26T10:46:44.000Z</time>
      </trkpt>
      <trkpt lat="40.932" lon="20.21179">
        <ele>329.86999511719</ele>
        <time>2024-09-26T10:46:45.000Z</time>
      </trkpt>
      <trkpt lat="40.93191" lon="20.21181">
        <ele>329.39001464844</ele>
        <time>2024-09-26T10:46:46.000Z</time>
      </trkpt>
      <trkpt lat="40.93181" lon="20.21185">
        <ele>328.42999267578</ele>
        <time>2024-09-26T10:46:47.000Z</time>
      </trkpt>
      <trkpt lat="40.93176" lon="20.21185">
        <ele>327.95001220703</ele>
        <time>2024-09-26T10:46:48.000Z</time>
      </trkpt>
      <trkpt lat="40.93169" lon="20.21185">
        <ele>326.98999023438</ele>
        <time>2024-09-26T10:46:49.000Z</time>
      </trkpt>
      <trkpt lat="40.93161" lon="20.21182">
        <ele>326.01998901367</ele>
        <time>2024-09-26T10:46:50.000Z</time>
      </trkpt>
      <trkpt lat="40.93155" lon="20.21177">
        <ele>325.05999755859</ele>
        <time>2024-09-26T10:46:51.000Z</time>
      </trkpt>
      <trkpt lat="40.93152" lon="20.2117">
        <ele>324.57998657227</ele>
        <time>2024-09-26T10:46:52.000Z</time>
      </trkpt>
      <trkpt lat="40.93151" lon="20.21164">
        <ele>324.10000610352</ele>
        <time>2024-09-26T10:46:53.000Z</time>
      </trkpt>
      <trkpt lat="40.93152" lon="20.21157">
        <ele>323.61999511719</ele>
        <time>2024-09-26T10:46:54.000Z</time>
      </trkpt>
      <trkpt lat="40.93156" lon="20.21152">
        <ele>323.14001464844</ele>
        <time>2024-09-26T10:46:55.000Z</time>
      </trkpt>
      <trkpt lat="40.93161" lon="20.21147">
        <ele>323.14001464844</ele>
        <time>2024-09-26T10:46:56.000Z</time>
      </trkpt>
      <trkpt lat="40.93169" lon="20.21142">
        <ele>322.66000366211</ele>
        <time>2024-09-26T10:46:57.000Z</time>
      </trkpt>
      <trkpt lat="40.93176" lon="20.21138">
        <ele>322.17999267578</ele>
        <time>2024-09-26T10:46:58.000Z</time>
      </trkpt>
      <trkpt lat="40.93178" lon="20.21137">
        <ele>322.17999267578</ele>
        <time>2024-09-26T10:46:59.000Z</time>
      </trkpt>
      <trkpt lat="40.93185" lon="20.21132">
        <ele>321.70001220703</ele>
        <time>2024-09-26T10:47:00.000Z</time>
      </trkpt>
      <trkpt lat="40.9319" lon="20.21129">
        <ele>321.2200012207</ele>
        <time>2024-09-26T10:47:01.000Z</time>
      </trkpt>
      <trkpt lat="40.93195" lon="20.21127">
        <ele>320.73999023438</ele>
        <time>2024-09-26T10:47:02.000Z</time>
      </trkpt>
      <trkpt lat="40.93202" lon="20.21124">
        <ele>320.26000976562</ele>
        <time>2024-09-26T10:47:03.000Z</time>
      </trkpt>
      <trkpt lat="40.93209" lon="20.21121">
        <ele>319.29998779297</ele>
        <time>2024-09-26T10:47:04.000Z</time>
      </trkpt>
      <trkpt lat="40.93218" lon="20.21115">
        <ele>318.80999755859</ele>
        <time>2024-09-26T10:47:05.000Z</time>
      </trkpt>
      <trkpt lat="40.93223" lon="20.21111">
        <ele>318.32998657227</ele>
        <time>2024-09-26T10:47:06.000Z</time>
      </trkpt>
      <trkpt lat="40.9323" lon="20.21108">
        <ele>317.36999511719</ele>
        <time>2024-09-26T10:47:07.000Z</time>
      </trkpt>
      <trkpt lat="40.93237" lon="20.21104">
        <ele>316.41000366211</ele>
        <time>2024-09-26T10:47:08.000Z</time>
      </trkpt>
      <trkpt lat="40.93248" lon="20.21101">
        <ele>315.45001220703</ele>
        <time>2024-09-26T10:47:09.000Z</time>
      </trkpt>
      <trkpt lat="40.93256" lon="20.21098">
        <ele>314.48999023438</ele>
        <time>2024-09-26T10:47:10.000Z</time>
      </trkpt>
      <trkpt lat="40.93262" lon="20.21097">
        <ele>313.5299987793</ele>
        <time>2024-09-26T10:47:11.000Z</time>
      </trkpt>
      <trkpt lat="40.93274" lon="20.21092">
        <ele>311.60000610352</ele>
        <time>2024-09-26T10:47:12.000Z</time>
      </trkpt>
      <trkpt lat="40.93282" lon="20.21089">
        <ele>311.11999511719</ele>
        <time>2024-09-26T10:47:13.000Z</time>
      </trkpt>
      <trkpt lat="40.93284" lon="20.21088">
        <ele>310.64001464844</ele>
        <time>2024-09-26T10:47:14.000Z</time>
      </trkpt>
      <trkpt lat="40.93291" lon="20.21087">
        <ele>309.20001220703</ele>
        <time>2024-09-26T10:47:15.000Z</time>
      </trkpt>
      <trkpt lat="40.93297" lon="20.21089">
        <ele>308.7200012207</ele>
        <time>2024-09-26T10:47:16.000Z</time>
      </trkpt>
      <trkpt lat="40.93309" lon="20.21096">
        <ele>306.79998779297</ele>
        <time>2024-09-26T10:47:18.000Z</time>
      </trkpt>
      <trkpt lat="40.93316" lon="20.21098">
        <ele>306.32000732422</ele>
        <time>2024-09-26T10:47:19.000Z</time>
      </trkpt>
      <trkpt lat="40.93323" lon="20.21096">
        <ele>305.35998535156</ele>
        <time>2024-09-26T10:47:20.000Z</time>
      </trkpt>
      <trkpt lat="40.9333" lon="20.21092">
        <ele>304.88000488281</ele>
        <time>2024-09-26T10:47:21.000Z</time>
      </trkpt>
      <trkpt lat="40.93342" lon="20.21083">
        <ele>303.42999267578</ele>
        <time>2024-09-26T10:47:23.000Z</time>
      </trkpt>
      <trkpt lat="40.93347" lon="20.21078">
        <ele>302.95001220703</ele>
        <time>2024-09-26T10:47:24.000Z</time>
      </trkpt>
      <trkpt lat="40.9335" lon="20.21071">
        <ele>302.4700012207</ele>
        <time>2024-09-26T10:47:25.000Z</time>
      </trkpt>
      <trkpt lat="40.93349" lon="20.21063">
        <ele>301.51000976562</ele>
        <time>2024-09-26T10:47:26.000Z</time>
      </trkpt>
      <trkpt lat="40.93344" lon="20.21058">
        <ele>301.0299987793</ele>
        <time>2024-09-26T10:47:27.000Z</time>
      </trkpt>
      <trkpt lat="40.93338" lon="20.21055">
        <ele>300.07000732422</ele>
        <time>2024-09-26T10:47:28.000Z</time>
      </trkpt>
      <trkpt lat="40.93317" lon="20.21054">
        <ele>299.10998535156</ele>
        <time>2024-09-26T10:47:31.000Z</time>
      </trkpt>
      <trkpt lat="40.93297" lon="20.21054">
        <ele>298.14999389648</ele>
        <time>2024-09-26T10:47:34.000Z</time>
      </trkpt>
      <trkpt lat="40.93217" lon="20.21063">
        <ele>292.38000488281</ele>
        <time>2024-09-26T10:47:45.000Z</time>
      </trkpt>
      <trkpt lat="40.93213" lon="20.21063">
        <ele>291.89999389648</ele>
        <time>2024-09-26T10:47:46.000Z</time>
      </trkpt>
      <trkpt lat="40.93195" lon="20.21068">
        <ele>289.48999023438</ele>
        <time>2024-09-26T10:47:48.000Z</time>
      </trkpt>
      <trkpt lat="40.93192" lon="20.21069">
        <ele>289.01000976562</ele>
        <time>2024-09-26T10:47:49.000Z</time>
      </trkpt>
      <trkpt lat="40.93184" lon="20.21068">
        <ele>288.04998779297</ele>
        <time>2024-09-26T10:47:50.000Z</time>
      </trkpt>
      <trkpt lat="40.93176" lon="20.21066">
        <ele>287.08999633789</ele>
        <time>2024-09-26T10:47:51.000Z</time>
      </trkpt>
      <trkpt lat="40.93062" lon="20.21033">
        <ele>269.79000854492</ele>
        <time>2024-09-26T10:48:05.000Z</time>
      </trkpt>
      <trkpt lat="40.93046" lon="20.21029">
        <ele>267.38000488281</ele>
        <time>2024-09-26T10:48:07.000Z</time>
      </trkpt>
      <trkpt lat="40.93025" lon="20.21021">
        <ele>264.01998901367</ele>
        <time>2024-09-26T10:48:10.000Z</time>
      </trkpt>
      <trkpt lat="40.93009" lon="20.21011">
        <ele>262.10000610352</ele>
        <time>2024-09-26T10:48:12.000Z</time>
      </trkpt>
      <trkpt lat="40.93" lon="20.21007">
        <ele>261.14001464844</ele>
        <time>2024-09-26T10:48:13.000Z</time>
      </trkpt>
      <trkpt lat="40.92993" lon="20.21004">
        <ele>260.17001342773</ele>
        <time>2024-09-26T10:48:14.000Z</time>
      </trkpt>
      <trkpt lat="40.92968" lon="20.20996">
        <ele>257.29000854492</ele>
        <time>2024-09-26T10:48:17.000Z</time>
      </trkpt>
      <trkpt lat="40.9296" lon="20.20991">
        <ele>256.32998657227</ele>
        <time>2024-09-26T10:48:18.000Z</time>
      </trkpt>
      <trkpt lat="40.92953" lon="20.20985">
        <ele>255.36999511719</ele>
        <time>2024-09-26T10:48:19.000Z</time>
      </trkpt>
      <trkpt lat="40.92946" lon="20.20978">
        <ele>253.92999267578</ele>
        <time>2024-09-26T10:48:20.000Z</time>
      </trkpt>
      <trkpt lat="40.92936" lon="20.20966">
        <ele>252</ele>
        <time>2024-09-26T10:48:21.000Z</time>
      </trkpt>
      <trkpt lat="40.92933" lon="20.20961">
        <ele>251.52000427246</ele>
        <time>2024-09-26T10:48:22.000Z</time>
      </trkpt>
      <trkpt lat="40.92927" lon="20.20952">
        <ele>250.55999755859</ele>
        <time>2024-09-26T10:48:23.000Z</time>
      </trkpt>
      <trkpt lat="40.92923" lon="20.20944">
        <ele>249.60000610352</ele>
        <time>2024-09-26T10:48:24.000Z</time>
      </trkpt>
      <trkpt lat="40.92918" lon="20.20937">
        <ele>248.16000366211</ele>
        <time>2024-09-26T10:48:25.000Z</time>
      </trkpt>
      <trkpt lat="40.92912" lon="20.20932">
        <ele>247.19999694824</ele>
        <time>2024-09-26T10:48:26.000Z</time>
      </trkpt>
      <trkpt lat="40.92905" lon="20.2093">
        <ele>246.22999572754</ele>
        <time>2024-09-26T10:48:27.000Z</time>
      </trkpt>
      <trkpt lat="40.92897" lon="20.20931">
        <ele>245.27000427246</ele>
        <time>2024-09-26T10:48:28.000Z</time>
      </trkpt>
      <trkpt lat="40.92856" lon="20.20939">
        <ele>239.99000549316</ele>
        <time>2024-09-26T10:48:33.000Z</time>
      </trkpt>
      <trkpt lat="40.92855" lon="20.20939">
        <ele>239.99000549316</ele>
        <time>2024-09-26T10:48:34.000Z</time>
      </trkpt>
      <trkpt lat="40.92849" lon="20.20938">
        <ele>239.50999450684</ele>
        <time>2024-09-26T10:48:35.000Z</time>
      </trkpt>
      <trkpt lat="40.92841" lon="20.20949">
        <ele>239.02000427246</ele>
        <time>2024-09-26T10:48:41.000Z</time>
      </trkpt>
      <trkpt lat="40.92841" lon="20.2096">
        <ele>239.50999450684</ele>
        <time>2024-09-26T10:48:43.000Z</time>
      </trkpt>
      <trkpt lat="40.92841" lon="20.20963">
        <ele>239.50999450684</ele>
        <time>2024-09-26T10:48:44.000Z</time>
      </trkpt>
      <trkpt lat="40.92841" lon="20.2097">
        <ele>239.50999450684</ele>
        <time>2024-09-26T10:48:45.000Z</time>
      </trkpt>
      <trkpt lat="40.92839" lon="20.20977">
        <ele>239.50999450684</ele>
        <time>2024-09-26T10:48:46.000Z</time>
      </trkpt>
      <trkpt lat="40.92835" lon="20.20987">
        <ele>239.02000427246</ele>
        <time>2024-09-26T10:48:47.000Z</time>
      </trkpt>
      <trkpt lat="40.92833" lon="20.20991">
        <ele>239.02000427246</ele>
        <time>2024-09-26T10:48:48.000Z</time>
      </trkpt>
      <trkpt lat="40.92832" lon="20.20995">
        <ele>238.53999328613</ele>
        <time>2024-09-26T10:48:49.000Z</time>
      </trkpt>
      <trkpt lat="40.92831" lon="20.21">
        <ele>238.05999755859</ele>
        <time>2024-09-26T10:48:50.000Z</time>
      </trkpt>
      <trkpt lat="40.92829" lon="20.21008">
        <ele>237.58000183105</ele>
        <time>2024-09-26T10:48:51.000Z</time>
      </trkpt>
      <trkpt lat="40.92828" lon="20.21014">
        <ele>237.10000610352</ele>
        <time>2024-09-26T10:48:52.000Z</time>
      </trkpt>
      <trkpt lat="40.92826" lon="20.21022">
        <ele>236.13999938965</ele>
        <time>2024-09-26T10:48:53.000Z</time>
      </trkpt>
      <trkpt lat="40.92824" lon="20.21028">
        <ele>235.66000366211</ele>
        <time>2024-09-26T10:48:54.000Z</time>
      </trkpt>
      <trkpt lat="40.92821" lon="20.21035">
        <ele>234.69999694824</ele>
        <time>2024-09-26T10:48:55.000Z</time>
      </trkpt>
      <trkpt lat="40.92818" lon="20.21041">
        <ele>234.2200012207</ele>
        <time>2024-09-26T10:48:56.000Z</time>
      </trkpt>
      <trkpt lat="40.928" lon="20.21069">
        <ele>231.80999755859</ele>
        <time>2024-09-26T10:49:00.000Z</time>
      </trkpt>
      <trkpt lat="40.92797" lon="20.21075">
        <ele>231.33000183105</ele>
        <time>2024-09-26T10:49:01.000Z</time>
      </trkpt>
      <trkpt lat="40.92793" lon="20.21083">
        <ele>230.85000610352</ele>
        <time>2024-09-26T10:49:02.000Z</time>
      </trkpt>
      <trkpt lat="40.92792" lon="20.21088">
        <ele>230.85000610352</ele>
        <time>2024-09-26T10:49:03.000Z</time>
      </trkpt>
      <trkpt lat="40.92792" lon="20.21093">
        <ele>230.85000610352</ele>
        <time>2024-09-26T10:49:04.000Z</time>
      </trkpt>
      <trkpt lat="40.92792" lon="20.211">
        <ele>230.36999511719</ele>
        <time>2024-09-26T10:49:05.000Z</time>
      </trkpt>
      <trkpt lat="40.92794" lon="20.21107">
        <ele>229.88999938965</ele>
        <time>2024-09-26T10:49:06.000Z</time>
      </trkpt>
      <trkpt lat="40.92797" lon="20.21122">
        <ele>229.41000366211</ele>
        <time>2024-09-26T10:49:07.000Z</time>
      </trkpt>
      <trkpt lat="40.92801" lon="20.21135">
        <ele>229.88999938965</ele>
        <time>2024-09-26T10:49:09.000Z</time>
      </trkpt>
      <trkpt lat="40.92801" lon="20.21138">
        <ele>229.88999938965</ele>
        <time>2024-09-26T10:49:10.000Z</time>
      </trkpt>
      <trkpt lat="40.9281" lon="20.21179">
        <ele>230.85000610352</ele>
        <time>2024-09-26T10:49:20.000Z</time>
      </trkpt>
      <trkpt lat="40.9281" lon="20.21179">
        <ele>230.85000610352</ele>
        <time>2024-09-26T10:49:41.000Z</time>
      </trkpt>
      <trkpt lat="40.92813" lon="20.21183">
        <ele>232.7799987793</ele>
        <time>2024-09-26T10:55:07.000Z</time>
      </trkpt>
      <trkpt lat="40.9282" lon="20.21192">
        <ele>232.7799987793</ele>
        <time>2024-09-26T10:55:09.000Z</time>
      </trkpt>
      <trkpt lat="40.92824" lon="20.21197">
        <ele>232.7799987793</ele>
        <time>2024-09-26T10:55:10.000Z</time>
      </trkpt>
      <trkpt lat="40.92829" lon="20.21203">
        <ele>233.25999450684</ele>
        <time>2024-09-26T10:55:11.000Z</time>
      </trkpt>
      <trkpt lat="40.92832" lon="20.21207">
        <ele>233.74000549316</ele>
        <time>2024-09-26T10:55:12.000Z</time>
      </trkpt>
      <trkpt lat="40.92835" lon="20.21212">
        <ele>233.74000549316</ele>
        <time>2024-09-26T10:55:13.000Z</time>
      </trkpt>
      <trkpt lat="40.92838" lon="20.21218">
        <ele>233.74000549316</ele>
        <time>2024-09-26T10:55:14.000Z</time>
      </trkpt>
      <trkpt lat="40.9284" lon="20.21224">
        <ele>233.74000549316</ele>
        <time>2024-09-26T10:55:15.000Z</time>
      </trkpt>
      <trkpt lat="40.92842" lon="20.21233">
        <ele>234.2200012207</ele>
        <time>2024-09-26T10:55:16.000Z</time>
      </trkpt>
      <trkpt lat="40.92844" lon="20.21243">
        <ele>234.2200012207</ele>
        <time>2024-09-26T10:55:17.000Z</time>
      </trkpt>
      <trkpt lat="40.92845" lon="20.21252">
        <ele>234.2200012207</ele>
        <time>2024-09-26T10:55:18.000Z</time>
      </trkpt>
      <trkpt lat="40.92845" lon="20.21259">
        <ele>234.2200012207</ele>
        <time>2024-09-26T10:55:19.000Z</time>
      </trkpt>
      <trkpt lat="40.92845" lon="20.21267">
        <ele>234.2200012207</ele>
        <time>2024-09-26T10:55:20.000Z</time>
      </trkpt>
      <trkpt lat="40.92845" lon="20.21276">
        <ele>234.2200012207</ele>
        <time>2024-09-26T10:55:21.000Z</time>
      </trkpt>
      <trkpt lat="40.9284" lon="20.21368">
        <ele>236.13999938965</ele>
        <time>2024-09-26T10:55:27.000Z</time>
      </trkpt>
      <trkpt lat="40.92838" lon="20.21385">
        <ele>236.13999938965</ele>
        <time>2024-09-26T10:55:28.000Z</time>
      </trkpt>
      <trkpt lat="40.92838" lon="20.21399">
        <ele>236.13999938965</ele>
        <time>2024-09-26T10:55:29.000Z</time>
      </trkpt>
      <trkpt lat="40.92837" lon="20.21421">
        <ele>236.13999938965</ele>
        <time>2024-09-26T10:55:30.000Z</time>
      </trkpt>
      <trkpt lat="40.92835" lon="20.21463">
        <ele>237.10000610352</ele>
        <time>2024-09-26T10:55:33.000Z</time>
      </trkpt>
      <trkpt lat="40.92833" lon="20.2149">
        <ele>237.10000610352</ele>
        <time>2024-09-26T10:55:34.000Z</time>
      </trkpt>
      <trkpt lat="40.92833" lon="20.21496">
        <ele>237.10000610352</ele>
        <time>2024-09-26T10:55:35.000Z</time>
      </trkpt>
      <trkpt lat="40.92832" lon="20.21509">
        <ele>237.10000610352</ele>
        <time>2024-09-26T10:55:36.000Z</time>
      </trkpt>
      <trkpt lat="40.92828" lon="20.21525">
        <ele>237.58000183105</ele>
        <time>2024-09-26T10:55:37.000Z</time>
      </trkpt>
      <trkpt lat="40.92781" lon="20.21699">
        <ele>239.99000549316</ele>
        <time>2024-09-26T10:55:48.000Z</time>
      </trkpt>
      <trkpt lat="40.92749" lon="20.21831">
        <ele>241.42999267578</ele>
        <time>2024-09-26T10:55:57.000Z</time>
      </trkpt>
      <trkpt lat="40.92746" lon="20.21841">
        <ele>241.91000366211</ele>
        <time>2024-09-26T10:55:58.000Z</time>
      </trkpt>
      <trkpt lat="40.92737" lon="20.21863">
        <ele>242.38999938965</ele>
        <time>2024-09-26T10:56:00.000Z</time>
      </trkpt>
      <trkpt lat="40.92732" lon="20.21877">
        <ele>242.38999938965</ele>
        <time>2024-09-26T10:56:01.000Z</time>
      </trkpt>
      <trkpt lat="40.9273" lon="20.21891">
        <ele>242.38999938965</ele>
        <time>2024-09-26T10:56:02.000Z</time>
      </trkpt>
      <trkpt lat="40.92729" lon="20.21905">
        <ele>242.38999938965</ele>
        <time>2024-09-26T10:56:03.000Z</time>
      </trkpt>
      <trkpt lat="40.92729" lon="20.21921">
        <ele>242.86999511719</ele>
        <time>2024-09-26T10:56:04.000Z</time>
      </trkpt>
      <trkpt lat="40.9273" lon="20.21932">
        <ele>243.35000610352</ele>
        <time>2024-09-26T10:56:05.000Z</time>
      </trkpt>
      <trkpt lat="40.92731" lon="20.21941">
        <ele>243.35000610352</ele>
        <time>2024-09-26T10:56:06.000Z</time>
      </trkpt>
      <trkpt lat="40.92731" lon="20.21949">
        <ele>243.35000610352</ele>
        <time>2024-09-26T10:56:07.000Z</time>
      </trkpt>
      <trkpt lat="40.92731" lon="20.21956">
        <ele>243.83000183105</ele>
        <time>2024-09-26T10:56:08.000Z</time>
      </trkpt>
      <trkpt lat="40.92729" lon="20.21963">
        <ele>244.30999755859</ele>
        <time>2024-09-26T10:56:09.000Z</time>
      </trkpt>
      <trkpt lat="40.92725" lon="20.2197">
        <ele>244.30999755859</ele>
        <time>2024-09-26T10:56:10.000Z</time>
      </trkpt>
      <trkpt lat="40.92721" lon="20.21977">
        <ele>244.78999328613</ele>
        <time>2024-09-26T10:56:11.000Z</time>
      </trkpt>
      <trkpt lat="40.92716" lon="20.21983">
        <ele>244.78999328613</ele>
        <time>2024-09-26T10:56:12.000Z</time>
      </trkpt>
      <trkpt lat="40.92709" lon="20.21989">
        <ele>245.27000427246</ele>
        <time>2024-09-26T10:56:13.000Z</time>
      </trkpt>
      <trkpt lat="40.92702" lon="20.21993">
        <ele>245.27000427246</ele>
        <time>2024-09-26T10:56:14.000Z</time>
      </trkpt>
      <trkpt lat="40.92691" lon="20.21997">
        <ele>245.27000427246</ele>
        <time>2024-09-26T10:56:15.000Z</time>
      </trkpt>
      <trkpt lat="40.92685" lon="20.21999">
        <ele>244.78999328613</ele>
        <time>2024-09-26T10:56:16.000Z</time>
      </trkpt>
      <trkpt lat="40.92679" lon="20.22001">
        <ele>244.78999328613</ele>
        <time>2024-09-26T10:56:17.000Z</time>
      </trkpt>
      <trkpt lat="40.92672" lon="20.22005">
        <ele>244.78999328613</ele>
        <time>2024-09-26T10:56:18.000Z</time>
      </trkpt>
      <trkpt lat="40.92665" lon="20.2201">
        <ele>244.78999328613</ele>
        <time>2024-09-26T10:56:19.000Z</time>
      </trkpt>
      <trkpt lat="40.92659" lon="20.22015">
        <ele>244.78999328613</ele>
        <time>2024-09-26T10:56:20.000Z</time>
      </trkpt>
      <trkpt lat="40.92654" lon="20.22023">
        <ele>244.30999755859</ele>
        <time>2024-09-26T10:56:21.000Z</time>
      </trkpt>
      <trkpt lat="40.9265" lon="20.22031">
        <ele>244.30999755859</ele>
        <time>2024-09-26T10:56:22.000Z</time>
      </trkpt>
      <trkpt lat="40.92644" lon="20.22042">
        <ele>243.83000183105</ele>
        <time>2024-09-26T10:56:23.000Z</time>
      </trkpt>
      <trkpt lat="40.92641" lon="20.2205">
        <ele>243.83000183105</ele>
        <time>2024-09-26T10:56:24.000Z</time>
      </trkpt>
      <trkpt lat="40.92635" lon="20.22062">
        <ele>243.35000610352</ele>
        <time>2024-09-26T10:56:25.000Z</time>
      </trkpt>
      <trkpt lat="40.92629" lon="20.22071">
        <ele>243.35000610352</ele>
        <time>2024-09-26T10:56:26.000Z</time>
      </trkpt>
      <trkpt lat="40.92625" lon="20.22078">
        <ele>243.35000610352</ele>
        <time>2024-09-26T10:56:27.000Z</time>
      </trkpt>
      <trkpt lat="40.9262" lon="20.22087">
        <ele>243.35000610352</ele>
        <time>2024-09-26T10:56:28.000Z</time>
      </trkpt>
      <trkpt lat="40.92617" lon="20.22095">
        <ele>243.35000610352</ele>
        <time>2024-09-26T10:56:29.000Z</time>
      </trkpt>
      <trkpt lat="40.92614" lon="20.22103">
        <ele>243.83000183105</ele>
        <time>2024-09-26T10:56:30.000Z</time>
      </trkpt>
      <trkpt lat="40.92607" lon="20.22129">
        <ele>243.35000610352</ele>
        <time>2024-09-26T10:56:33.000Z</time>
      </trkpt>
      <trkpt lat="40.92605" lon="20.22137">
        <ele>243.83000183105</ele>
        <time>2024-09-26T10:56:34.000Z</time>
      </trkpt>
      <trkpt lat="40.92604" lon="20.22147">
        <ele>243.35000610352</ele>
        <time>2024-09-26T10:56:35.000Z</time>
      </trkpt>
      <trkpt lat="40.92603" lon="20.22155">
        <ele>243.83000183105</ele>
        <time>2024-09-26T10:56:36.000Z</time>
      </trkpt>
      <trkpt lat="40.92604" lon="20.22168">
        <ele>244.30999755859</ele>
        <time>2024-09-26T10:56:38.000Z</time>
      </trkpt>
      <trkpt lat="40.92604" lon="20.22176">
        <ele>244.30999755859</ele>
        <time>2024-09-26T10:56:39.000Z</time>
      </trkpt>
      <trkpt lat="40.92604" lon="20.2218">
        <ele>244.30999755859</ele>
        <time>2024-09-26T10:56:40.000Z</time>
      </trkpt>
      <trkpt lat="40.92591" lon="20.22206">
        <ele>245.27000427246</ele>
        <time>2024-09-26T10:56:48.000Z</time>
      </trkpt>
      <trkpt lat="40.92592" lon="20.22214">
        <ele>239.02000427246</ele>
        <time>2024-09-26T11:50:53.000Z</time>
      </trkpt>
      <trkpt lat="40.92592" lon="20.22214">
        <ele>239.02000427246</ele>
        <time>2024-09-26T11:50:55.000Z</time>
      </trkpt>
      <trkpt lat="40.92601" lon="20.22195">
        <ele>239.02000427246</ele>
        <time>2024-09-26T11:51:02.000Z</time>
      </trkpt>
      <trkpt lat="40.92604" lon="20.22168">
        <ele>239.02000427246</ele>
        <time>2024-09-26T11:51:08.000Z</time>
      </trkpt>
      <trkpt lat="40.92605" lon="20.22144">
        <ele>239.99000549316</ele>
        <time>2024-09-26T11:51:14.000Z</time>
      </trkpt>
      <trkpt lat="40.92612" lon="20.22117">
        <ele>240.94999694824</ele>
        <time>2024-09-26T11:51:21.000Z</time>
      </trkpt>
      <trkpt lat="40.92624" lon="20.22083">
        <ele>241.42999267578</ele>
        <time>2024-09-26T11:51:29.000Z</time>
      </trkpt>
      <trkpt lat="40.92625" lon="20.2208">
        <ele>241.42999267578</ele>
        <time>2024-09-26T11:51:30.000Z</time>
      </trkpt>
      <trkpt lat="40.92629" lon="20.22075">
        <ele>241.42999267578</ele>
        <time>2024-09-26T11:51:31.000Z</time>
      </trkpt>
      <trkpt lat="40.92631" lon="20.22071">
        <ele>241.42999267578</ele>
        <time>2024-09-26T11:51:32.000Z</time>
      </trkpt>
      <trkpt lat="40.92633" lon="20.22068">
        <ele>241.42999267578</ele>
        <time>2024-09-26T11:51:33.000Z</time>
      </trkpt>
      <trkpt lat="40.92648" lon="20.22037">
        <ele>241.91000366211</ele>
        <time>2024-09-26T11:51:41.000Z</time>
      </trkpt>
      <trkpt lat="40.92651" lon="20.22031">
        <ele>242.38999938965</ele>
        <time>2024-09-26T11:51:42.000Z</time>
      </trkpt>
      <trkpt lat="40.92653" lon="20.22029">
        <ele>242.38999938965</ele>
        <time>2024-09-26T11:51:43.000Z</time>
      </trkpt>
      <trkpt lat="40.92658" lon="20.22021">
        <ele>242.38999938965</ele>
        <time>2024-09-26T11:51:44.000Z</time>
      </trkpt>
      <trkpt lat="40.9266" lon="20.22018">
        <ele>242.38999938965</ele>
        <time>2024-09-26T11:51:45.000Z</time>
      </trkpt>
      <trkpt lat="40.92664" lon="20.22013">
        <ele>242.86999511719</ele>
        <time>2024-09-26T11:51:46.000Z</time>
      </trkpt>
      <trkpt lat="40.92668" lon="20.22009">
        <ele>242.86999511719</ele>
        <time>2024-09-26T11:51:47.000Z</time>
      </trkpt>
      <trkpt lat="40.92686" lon="20.22001">
        <ele>243.35000610352</ele>
        <time>2024-09-26T11:51:52.000Z</time>
      </trkpt>
      <trkpt lat="40.92689" lon="20.22">
        <ele>243.35000610352</ele>
        <time>2024-09-26T11:51:53.000Z</time>
      </trkpt>
      <trkpt lat="40.92695" lon="20.21999">
        <ele>243.35000610352</ele>
        <time>2024-09-26T11:51:54.000Z</time>
      </trkpt>
      <trkpt lat="40.92702" lon="20.21996">
        <ele>243.83000183105</ele>
        <time>2024-09-26T11:51:55.000Z</time>
      </trkpt>
      <trkpt lat="40.92707" lon="20.21993">
        <ele>244.30999755859</ele>
        <time>2024-09-26T11:51:56.000Z</time>
      </trkpt>
      <trkpt lat="40.92713" lon="20.2199">
        <ele>244.30999755859</ele>
        <time>2024-09-26T11:51:57.000Z</time>
      </trkpt>
      <trkpt lat="40.92718" lon="20.21984">
        <ele>244.30999755859</ele>
        <time>2024-09-26T11:51:58.000Z</time>
      </trkpt>
      <trkpt lat="40.92724" lon="20.21977">
        <ele>243.83000183105</ele>
        <time>2024-09-26T11:51:59.000Z</time>
      </trkpt>
      <trkpt lat="40.92727" lon="20.21973">
        <ele>243.83000183105</ele>
        <time>2024-09-26T11:52:00.000Z</time>
      </trkpt>
      <trkpt lat="40.9273" lon="20.21968">
        <ele>243.35000610352</ele>
        <time>2024-09-26T11:52:01.000Z</time>
      </trkpt>
      <trkpt lat="40.92733" lon="20.21962">
        <ele>243.35000610352</ele>
        <time>2024-09-26T11:52:02.000Z</time>
      </trkpt>
      <trkpt lat="40.92735" lon="20.21955">
        <ele>242.86999511719</ele>
        <time>2024-09-26T11:52:03.000Z</time>
      </trkpt>
      <trkpt lat="40.92735" lon="20.21947">
        <ele>242.86999511719</ele>
        <time>2024-09-26T11:52:04.000Z</time>
      </trkpt>
      <trkpt lat="40.92735" lon="20.21938">
        <ele>242.38999938965</ele>
        <time>2024-09-26T11:52:05.000Z</time>
      </trkpt>
      <trkpt lat="40.92733" lon="20.21929">
        <ele>241.91000366211</ele>
        <time>2024-09-26T11:52:06.000Z</time>
      </trkpt>
      <trkpt lat="40.92732" lon="20.21917">
        <ele>241.91000366211</ele>
        <time>2024-09-26T11:52:07.000Z</time>
      </trkpt>
      <trkpt lat="40.92732" lon="20.21909">
        <ele>241.42999267578</ele>
        <time>2024-09-26T11:52:08.000Z</time>
      </trkpt>
      <trkpt lat="40.92732" lon="20.21899">
        <ele>241.42999267578</ele>
        <time>2024-09-26T11:52:09.000Z</time>
      </trkpt>
      <trkpt lat="40.92733" lon="20.21888">
        <ele>241.42999267578</ele>
        <time>2024-09-26T11:52:10.000Z</time>
      </trkpt>
      <trkpt lat="40.92733" lon="20.21884">
        <ele>241.42999267578</ele>
        <time>2024-09-26T11:52:11.000Z</time>
      </trkpt>
      <trkpt lat="40.92735" lon="20.21876">
        <ele>241.42999267578</ele>
        <time>2024-09-26T11:52:12.000Z</time>
      </trkpt>
      <trkpt lat="40.92737" lon="20.21868">
        <ele>241.42999267578</ele>
        <time>2024-09-26T11:52:13.000Z</time>
      </trkpt>
      <trkpt lat="40.92743" lon="20.21856">
        <ele>241.42999267578</ele>
        <time>2024-09-26T11:52:14.000Z</time>
      </trkpt>
      <trkpt lat="40.92746" lon="20.21849">
        <ele>240.94999694824</ele>
        <time>2024-09-26T11:52:15.000Z</time>
      </trkpt>
      <trkpt lat="40.9275" lon="20.21839">
        <ele>240.4700012207</ele>
        <time>2024-09-26T11:52:16.000Z</time>
      </trkpt>
      <trkpt lat="40.92754" lon="20.21827">
        <ele>239.99000549316</ele>
        <time>2024-09-26T11:52:17.000Z</time>
      </trkpt>
      <trkpt lat="40.92757" lon="20.21816">
        <ele>239.99000549316</ele>
        <time>2024-09-26T11:52:18.000Z</time>
      </trkpt>
      <trkpt lat="40.9276" lon="20.21805">
        <ele>239.50999450684</ele>
        <time>2024-09-26T11:52:19.000Z</time>
      </trkpt>
      <trkpt lat="40.92764" lon="20.21786">
        <ele>239.50999450684</ele>
        <time>2024-09-26T11:52:20.000Z</time>
      </trkpt>
      <trkpt lat="40.92766" lon="20.21776">
        <ele>239.50999450684</ele>
        <time>2024-09-26T11:52:21.000Z</time>
      </trkpt>
      <trkpt lat="40.92769" lon="20.21762">
        <ele>239.02000427246</ele>
        <time>2024-09-26T11:52:22.000Z</time>
      </trkpt>
      <trkpt lat="40.92773" lon="20.21748">
        <ele>239.02000427246</ele>
        <time>2024-09-26T11:52:23.000Z</time>
      </trkpt>
      <trkpt lat="40.92776" lon="20.21734">
        <ele>238.53999328613</ele>
        <time>2024-09-26T11:52:24.000Z</time>
      </trkpt>
      <trkpt lat="40.92782" lon="20.21711">
        <ele>238.53999328613</ele>
        <time>2024-09-26T11:52:26.000Z</time>
      </trkpt>
      <trkpt lat="40.92783" lon="20.21706">
        <ele>238.53999328613</ele>
        <time>2024-09-26T11:52:27.000Z</time>
      </trkpt>
      <trkpt lat="40.92787" lon="20.2169">
        <ele>238.05999755859</ele>
        <time>2024-09-26T11:52:28.000Z</time>
      </trkpt>
      <trkpt lat="40.92826" lon="20.2155">
        <ele>237.58000183105</ele>
        <time>2024-09-26T11:52:38.000Z</time>
      </trkpt>
      <trkpt lat="40.92834" lon="20.21516">
        <ele>237.10000610352</ele>
        <time>2024-09-26T11:52:40.000Z</time>
      </trkpt>
      <trkpt lat="40.92836" lon="20.21507">
        <ele>237.10000610352</ele>
        <time>2024-09-26T11:52:41.000Z</time>
      </trkpt>
      <trkpt lat="40.92837" lon="20.21493">
        <ele>236.61999511719</ele>
        <time>2024-09-26T11:52:42.000Z</time>
      </trkpt>
      <trkpt lat="40.9284" lon="20.214">
        <ele>235.66000366211</ele>
        <time>2024-09-26T11:52:48.000Z</time>
      </trkpt>
      <trkpt lat="40.92841" lon="20.21384">
        <ele>235.66000366211</ele>
        <time>2024-09-26T11:52:49.000Z</time>
      </trkpt>
      <trkpt lat="40.92848" lon="20.21248">
        <ele>234.2200012207</ele>
        <time>2024-09-26T11:52:58.000Z</time>
      </trkpt>
      <trkpt lat="40.92847" lon="20.21238">
        <ele>234.69999694824</ele>
        <time>2024-09-26T11:52:59.000Z</time>
      </trkpt>
      <trkpt lat="40.92844" lon="20.21224">
        <ele>234.69999694824</ele>
        <time>2024-09-26T11:53:00.000Z</time>
      </trkpt>
      <trkpt lat="40.9284" lon="20.21213">
        <ele>234.2200012207</ele>
        <time>2024-09-26T11:53:01.000Z</time>
      </trkpt>
      <trkpt lat="40.92834" lon="20.21203">
        <ele>234.2200012207</ele>
        <time>2024-09-26T11:53:02.000Z</time>
      </trkpt>
      <trkpt lat="40.92825" lon="20.21191">
        <ele>232.30000305176</ele>
        <time>2024-09-26T11:53:03.000Z</time>
      </trkpt>
      <trkpt lat="40.9282" lon="20.21183">
        <ele>231.80999755859</ele>
        <time>2024-09-26T11:53:04.000Z</time>
      </trkpt>
      <trkpt lat="40.92815" lon="20.21172">
        <ele>231.80999755859</ele>
        <time>2024-09-26T11:53:05.000Z</time>
      </trkpt>
      <trkpt lat="40.9281" lon="20.21155">
        <ele>231.33000183105</ele>
        <time>2024-09-26T11:53:06.000Z</time>
      </trkpt>
      <trkpt lat="40.92808" lon="20.21148">
        <ele>230.85000610352</ele>
        <time>2024-09-26T11:53:07.000Z</time>
      </trkpt>
      <trkpt lat="40.92799" lon="20.2112">
        <ele>230.36999511719</ele>
        <time>2024-09-26T11:53:09.000Z</time>
      </trkpt>
      <trkpt lat="40.92795" lon="20.2111">
        <ele>230.36999511719</ele>
        <time>2024-09-26T11:53:10.000Z</time>
      </trkpt>
      <trkpt lat="40.92793" lon="20.21101">
        <ele>230.85000610352</ele>
        <time>2024-09-26T11:53:11.000Z</time>
      </trkpt>
      <trkpt lat="40.92793" lon="20.21092">
        <ele>231.33000183105</ele>
        <time>2024-09-26T11:53:12.000Z</time>
      </trkpt>
      <trkpt lat="40.92794" lon="20.21084">
        <ele>231.80999755859</ele>
        <time>2024-09-26T11:53:13.000Z</time>
      </trkpt>
      <trkpt lat="40.92797" lon="20.21075">
        <ele>231.80999755859</ele>
        <time>2024-09-26T11:53:14.000Z</time>
      </trkpt>
      <trkpt lat="40.92803" lon="20.21064">
        <ele>232.30000305176</ele>
        <time>2024-09-26T11:53:15.000Z</time>
      </trkpt>
      <trkpt lat="40.92805" lon="20.2106">
        <ele>232.7799987793</ele>
        <time>2024-09-26T11:53:16.000Z</time>
      </trkpt>
      <trkpt lat="40.92823" lon="20.21035">
        <ele>235.66000366211</ele>
        <time>2024-09-26T11:53:19.000Z</time>
      </trkpt>
      <trkpt lat="40.92829" lon="20.21026">
        <ele>236.61999511719</ele>
        <time>2024-09-26T11:53:20.000Z</time>
      </trkpt>
      <trkpt lat="40.92832" lon="20.21017">
        <ele>238.05999755859</ele>
        <time>2024-09-26T11:53:21.000Z</time>
      </trkpt>
      <trkpt lat="40.92834" lon="20.21007">
        <ele>239.02000427246</ele>
        <time>2024-09-26T11:53:22.000Z</time>
      </trkpt>
      <trkpt lat="40.92836" lon="20.20997">
        <ele>239.99000549316</ele>
        <time>2024-09-26T11:53:23.000Z</time>
      </trkpt>
      <trkpt lat="40.92839" lon="20.20989">
        <ele>240.94999694824</ele>
        <time>2024-09-26T11:53:24.000Z</time>
      </trkpt>
      <trkpt lat="40.92844" lon="20.20975">
        <ele>241.42999267578</ele>
        <time>2024-09-26T11:53:25.000Z</time>
      </trkpt>
      <trkpt lat="40.92846" lon="20.20969">
        <ele>241.42999267578</ele>
        <time>2024-09-26T11:53:26.000Z</time>
      </trkpt>
      <trkpt lat="40.92847" lon="20.2096">
        <ele>241.42999267578</ele>
        <time>2024-09-26T11:53:27.000Z</time>
      </trkpt>
      <trkpt lat="40.92847" lon="20.20952">
        <ele>241.42999267578</ele>
        <time>2024-09-26T11:53:28.000Z</time>
      </trkpt>
      <trkpt lat="40.92845" lon="20.20947">
        <ele>241.42999267578</ele>
        <time>2024-09-26T11:53:29.000Z</time>
      </trkpt>
      <trkpt lat="40.92843" lon="20.20941">
        <ele>240.94999694824</ele>
        <time>2024-09-26T11:53:30.000Z</time>
      </trkpt>
      <trkpt lat="40.9284" lon="20.20936">
        <ele>240.4700012207</ele>
        <time>2024-09-26T11:53:31.000Z</time>
      </trkpt>
      <trkpt lat="40.92821" lon="20.20923">
        <ele>238.53799438477</ele>
        <time>2023-09-29T12:23:11.000Z</time>
      </trkpt>
      <trkpt lat="40.92803" lon="20.20879">
        <ele>237.57800292969</ele>
        <time>2023-09-29T12:23:15.000Z</time>
      </trkpt>
      <trkpt lat="40.92796" lon="20.20838">
        <ele>237.57800292969</ele>
        <time>2023-09-29T12:23:18.000Z</time>
      </trkpt>
      <trkpt lat="40.9278" lon="20.20798">
        <ele>235.17799377441</ele>
        <time>2023-09-29T12:23:21.000Z</time>
      </trkpt>
      <trkpt lat="40.92749" lon="20.20765">
        <ele>233.7380065918</ele>
        <time>2023-09-29T12:23:24.000Z</time>
      </trkpt>
      <trkpt lat="40.92734" lon="20.20755">
        <ele>233.25799560547</ele>
        <time>2023-09-29T12:23:25.000Z</time>
      </trkpt>
      <trkpt lat="40.92608" lon="20.20691">
        <ele>229.88800048828</ele>
        <time>2023-09-29T12:23:32.000Z</time>
      </trkpt>
      <trkpt lat="40.9251" lon="20.20649">
        <ele>225.56799316406</ele>
        <time>2023-09-29T12:23:39.000Z</time>
      </trkpt>
      <trkpt lat="40.92488" lon="20.20613">
        <ele>224.11799621582</ele>
        <time>2023-09-29T12:23:42.000Z</time>
      </trkpt>
      <trkpt lat="40.92486" lon="20.20582">
        <ele>223.63800048828</ele>
        <time>2023-09-29T12:23:44.000Z</time>
      </trkpt>
      <trkpt lat="40.9249" lon="20.20559">
        <ele>223.63800048828</ele>
        <time>2023-09-29T12:23:45.000Z</time>
      </trkpt>
      <trkpt lat="40.92522" lon="20.20435">
        <ele>222.67799377441</ele>
        <time>2023-09-29T12:23:50.000Z</time>
      </trkpt>
      <trkpt lat="40.92551" lon="20.20318">
        <ele>221.71800231934</ele>
        <time>2023-09-29T12:23:54.000Z</time>
      </trkpt>
      <trkpt lat="40.92555" lon="20.20302">
        <ele>221.2380065918</ele>
        <time>2023-09-29T12:23:55.000Z</time>
      </trkpt>
      <trkpt lat="40.92574" lon="20.2008">
        <ele>219.31799316406</ele>
        <time>2023-09-29T12:24:01.000Z</time>
      </trkpt>
      <trkpt lat="40.92584" lon="20.19839">
        <ele>217.39799499512</ele>
        <time>2023-09-29T12:24:09.000Z</time>
      </trkpt>
      <trkpt lat="40.926" lon="20.19515">
        <ele>213.54800415039</ele>
        <time>2023-09-29T12:24:18.000Z</time>
      </trkpt>
      <trkpt lat="40.92603" lon="20.19452">
        <ele>212.58799743652</ele>
        <time>2023-09-29T12:24:20.000Z</time>
      </trkpt>
      <trkpt lat="40.92603" lon="20.19446">
        <ele>212.58799743652</ele>
        <time>2023-09-29T12:24:21.000Z</time>
      </trkpt>
      <trkpt lat="40.92588" lon="20.1937">
        <ele>211.62800598145</ele>
        <time>2023-09-29T12:24:24.000Z</time>
      </trkpt>
      <trkpt lat="40.92578" lon="20.19345">
        <ele>211.62800598145</ele>
        <time>2023-09-29T12:24:25.000Z</time>
      </trkpt>
      <trkpt lat="40.92505" lon="20.19204">
        <ele>210.18800354004</ele>
        <time>2023-09-29T12:24:31.000Z</time>
      </trkpt>
      <trkpt lat="40.92443" lon="20.19083">
        <ele>208.25799560547</ele>
        <time>2023-09-29T12:24:39.000Z</time>
      </trkpt>
      <trkpt lat="40.92407" lon="20.19008">
        <ele>207.77799987793</ele>
        <time>2023-09-29T12:24:45.000Z</time>
      </trkpt>
      <trkpt lat="40.92396" lon="20.18974">
        <ele>207.77799987793</ele>
        <time>2023-09-29T12:24:48.000Z</time>
      </trkpt>
      <trkpt lat="40.92391" lon="20.18945">
        <ele>207.77799987793</ele>
        <time>2023-09-29T12:24:50.000Z</time>
      </trkpt>
      <trkpt lat="40.9239" lon="20.18934">
        <ele>207.77799987793</ele>
        <time>2023-09-29T12:24:51.000Z</time>
      </trkpt>
      <trkpt lat="40.92387" lon="20.18816">
        <ele>206.81799316406</ele>
        <time>2023-09-29T12:24:56.000Z</time>
      </trkpt>
      <trkpt lat="40.92386" lon="20.18603">
        <ele>204.89799499512</ele>
        <time>2023-09-29T12:25:03.000Z</time>
      </trkpt>
      <trkpt lat="40.92384" lon="20.18435">
        <ele>202.00799560547</ele>
        <time>2023-09-29T12:25:10.000Z</time>
      </trkpt>
      <trkpt lat="40.92382" lon="20.18082">
        <ele>197.68800354004</ele>
        <time>2023-09-29T12:25:22.000Z</time>
      </trkpt>
      <trkpt lat="40.92387" lon="20.18038">
        <ele>197.68800354004</ele>
        <time>2023-09-29T12:25:24.000Z</time>
      </trkpt>
      <trkpt lat="40.9241" lon="20.17933">
        <ele>198.16799926758</ele>
        <time>2023-09-29T12:25:28.000Z</time>
      </trkpt>
      <trkpt lat="40.92421" lon="20.17779">
        <ele>205.85800170898</ele>
        <time>2023-09-29T12:25:33.000Z</time>
      </trkpt>
      <trkpt lat="40.92435" lon="20.17658">
        <ele>212.10800170898</ele>
        <time>2023-09-29T12:25:37.000Z</time>
      </trkpt>
      <trkpt lat="40.92435" lon="20.17633">
        <ele>213.54800415039</ele>
        <time>2023-09-29T12:25:39.000Z</time>
      </trkpt>
      <trkpt lat="40.92427" lon="20.17592">
        <ele>215.94799804688</ele>
        <time>2023-09-29T12:25:41.000Z</time>
      </trkpt>
      <trkpt lat="40.92426" lon="20.1754">
        <ele>217.87800598145</ele>
        <time>2023-09-29T12:25:44.000Z</time>
      </trkpt>
      <trkpt lat="40.92433" lon="20.17511">
        <ele>217.87800598145</ele>
        <time>2023-09-29T12:25:46.000Z</time>
      </trkpt>
      <trkpt lat="40.92445" lon="20.17503">
        <ele>218.83799743652</ele>
        <time>2023-09-29T12:25:48.000Z</time>
      </trkpt>
      <trkpt lat="40.92476" lon="20.17498">
        <ele>217.87800598145</ele>
        <time>2023-09-29T12:25:50.000Z</time>
      </trkpt>
      <trkpt lat="40.92484" lon="20.17498">
        <ele>217.87800598145</ele>
        <time>2023-09-29T12:25:51.000Z</time>
      </trkpt>
      <trkpt lat="40.92506" lon="20.17506">
        <ele>216.42799377441</ele>
        <time>2023-09-29T12:25:53.000Z</time>
      </trkpt>
      <trkpt lat="40.92536" lon="20.17487">
        <ele>215.46800231934</ele>
        <time>2023-09-29T12:25:56.000Z</time>
      </trkpt>
      <trkpt lat="40.92557" lon="20.17479">
        <ele>214.9880065918</ele>
        <time>2023-09-29T12:25:58.000Z</time>
      </trkpt>
      <trkpt lat="40.92596" lon="20.1748">
        <ele>214.50799560547</ele>
        <time>2023-09-29T12:26:01.000Z</time>
      </trkpt>
      <trkpt lat="40.92609" lon="20.1747">
        <ele>214.50799560547</ele>
        <time>2023-09-29T12:26:03.000Z</time>
      </trkpt>
      <trkpt lat="40.92604" lon="20.17446">
        <ele>214.02799987793</ele>
        <time>2023-09-29T12:26:06.000Z</time>
      </trkpt>
      <trkpt lat="40.92595" lon="20.1744">
        <ele>214.02799987793</ele>
        <time>2023-09-29T12:26:07.000Z</time>
      </trkpt>
      <trkpt lat="40.92558" lon="20.17419">
        <ele>216.42799377441</ele>
        <time>2023-09-29T12:26:10.000Z</time>
      </trkpt>
      <trkpt lat="40.92507" lon="20.17417">
        <ele>215.94799804688</ele>
        <time>2023-09-29T12:26:14.000Z</time>
      </trkpt>
      <trkpt lat="40.92468" lon="20.17408">
        <ele>216.42799377441</ele>
        <time>2023-09-29T12:26:17.000Z</time>
      </trkpt>
      <trkpt lat="40.92447" lon="20.17391">
        <ele>217.39799499512</ele>
        <time>2023-09-29T12:26:19.000Z</time>
      </trkpt>
      <trkpt lat="40.92439" lon="20.17367">
        <ele>217.87800598145</ele>
        <time>2023-09-29T12:26:21.000Z</time>
      </trkpt>
      <trkpt lat="40.9244" lon="20.17292">
        <ele>218.35800170898</ele>
        <time>2023-09-29T12:26:24.000Z</time>
      </trkpt>
      <trkpt lat="40.92441" lon="20.17277">
        <ele>218.35800170898</ele>
        <time>2023-09-29T12:26:25.000Z</time>
      </trkpt>
      <trkpt lat="40.92454" lon="20.17205">
        <ele>219.31799316406</ele>
        <time>2023-09-29T12:26:27.000Z</time>
      </trkpt>
      <trkpt lat="40.92488" lon="20.17058">
        <ele>219.31799316406</ele>
        <time>2023-09-29T12:26:33.000Z</time>
      </trkpt>
      <trkpt lat="40.9249" lon="20.17011">
        <ele>218.35800170898</ele>
        <time>2023-09-29T12:26:35.000Z</time>
      </trkpt>
      <trkpt lat="40.92487" lon="20.16976">
        <ele>218.35800170898</ele>
        <time>2023-09-29T12:26:36.000Z</time>
      </trkpt>
      <trkpt lat="40.92492" lon="20.1694">
        <ele>218.35800170898</ele>
        <time>2023-09-29T12:26:39.000Z</time>
      </trkpt>
      <trkpt lat="40.92503" lon="20.1691">
        <ele>217.87800598145</ele>
        <time>2023-09-29T12:26:41.000Z</time>
      </trkpt>
      <trkpt lat="40.92539" lon="20.16837">
        <ele>214.9880065918</ele>
        <time>2023-09-29T12:26:45.000Z</time>
      </trkpt>
      <trkpt lat="40.92563" lon="20.16812">
        <ele>211.62800598145</ele>
        <time>2023-09-29T12:26:48.000Z</time>
      </trkpt>
      <trkpt lat="40.92586" lon="20.16824">
        <ele>209.21800231934</ele>
        <time>2023-09-29T12:26:51.000Z</time>
      </trkpt>
      <trkpt lat="40.92599" lon="20.16833">
        <ele>207.77799987793</ele>
        <time>2023-09-29T12:26:53.000Z</time>
      </trkpt>
      <trkpt lat="40.9261" lon="20.16823">
        <ele>208.7380065918</ele>
        <time>2023-09-29T12:26:55.000Z</time>
      </trkpt>
      <trkpt lat="40.9261" lon="20.16802">
        <ele>209.69799804688</ele>
        <time>2023-09-29T12:26:57.000Z</time>
      </trkpt>
      <trkpt lat="40.92594" lon="20.16766">
        <ele>212.58799743652</ele>
        <time>2023-09-29T12:26:59.000Z</time>
      </trkpt>
      <trkpt lat="40.9258" lon="20.16727">
        <ele>213.06799316406</ele>
        <time>2023-09-29T12:27:02.000Z</time>
      </trkpt>
      <trkpt lat="40.92587" lon="20.16685">
        <ele>213.54800415039</ele>
        <time>2023-09-29T12:27:05.000Z</time>
      </trkpt>
      <trkpt lat="40.92601" lon="20.16651">
        <ele>213.54800415039</ele>
        <time>2023-09-29T12:27:07.000Z</time>
      </trkpt>
      <trkpt lat="40.926" lon="20.16615">
        <ele>214.50799560547</ele>
        <time>2023-09-29T12:27:09.000Z</time>
      </trkpt>
      <trkpt lat="40.92595" lon="20.16574">
        <ele>215.94799804688</ele>
        <time>2023-09-29T12:27:11.000Z</time>
      </trkpt>
      <trkpt lat="40.92606" lon="20.16505">
        <ele>216.90800476074</ele>
        <time>2023-09-29T12:27:14.000Z</time>
      </trkpt>
      <trkpt lat="40.92608" lon="20.16466">
        <ele>217.39799499512</ele>
        <time>2023-09-29T12:27:16.000Z</time>
      </trkpt>
      <trkpt lat="40.92594" lon="20.16418">
        <ele>216.90800476074</ele>
        <time>2023-09-29T12:27:19.000Z</time>
      </trkpt>
      <trkpt lat="40.92581" lon="20.16359">
        <ele>214.02799987793</ele>
        <time>2023-09-29T12:27:22.000Z</time>
      </trkpt>
      <trkpt lat="40.92585" lon="20.16331">
        <ele>212.58799743652</ele>
        <time>2023-09-29T12:27:24.000Z</time>
      </trkpt>
      <trkpt lat="40.92612" lon="20.16316">
        <ele>210.18800354004</ele>
        <time>2023-09-29T12:27:27.000Z</time>
      </trkpt>
      <trkpt lat="40.92636" lon="20.16304">
        <ele>207.77799987793</ele>
        <time>2023-09-29T12:27:29.000Z</time>
      </trkpt>
      <trkpt lat="40.92672" lon="20.16276">
        <ele>204.41799926758</ele>
        <time>2023-09-29T12:27:32.000Z</time>
      </trkpt>
      <trkpt lat="40.92683" lon="20.16252">
        <ele>204.41799926758</ele>
        <time>2023-09-29T12:27:35.000Z</time>
      </trkpt>
      <trkpt lat="40.92664" lon="20.16231">
        <ele>204.41799926758</ele>
        <time>2023-09-29T12:27:38.000Z</time>
      </trkpt>
      <trkpt lat="40.92653" lon="20.16229">
        <ele>204.89799499512</ele>
        <time>2023-09-29T12:27:39.000Z</time>
      </trkpt>
      <trkpt lat="40.92618" lon="20.16227">
        <ele>206.81799316406</ele>
        <time>2023-09-29T12:27:41.000Z</time>
      </trkpt>
      <trkpt lat="40.92595" lon="20.16219">
        <ele>208.25799560547</ele>
        <time>2023-09-29T12:27:43.000Z</time>
      </trkpt>
      <trkpt lat="40.92587" lon="20.16205">
        <ele>208.25799560547</ele>
        <time>2023-09-29T12:27:45.000Z</time>
      </trkpt>
      <trkpt lat="40.92588" lon="20.16196">
        <ele>208.25799560547</ele>
        <time>2023-09-29T12:27:46.000Z</time>
      </trkpt>
      <trkpt lat="40.92607" lon="20.16113">
        <ele>206.33799743652</ele>
        <time>2023-09-29T12:27:51.000Z</time>
      </trkpt>
      <trkpt lat="40.92607" lon="20.16081">
        <ele>205.85800170898</ele>
        <time>2023-09-29T12:27:53.000Z</time>
      </trkpt>
      <trkpt lat="40.92585" lon="20.16">
        <ele>206.81799316406</ele>
        <time>2023-09-29T12:27:57.000Z</time>
      </trkpt>
      <trkpt lat="40.92574" lon="20.15928">
        <ele>206.81799316406</ele>
        <time>2023-09-29T12:28:00.000Z</time>
      </trkpt>
      <trkpt lat="40.92568" lon="20.15895">
        <ele>205.37800598145</ele>
        <time>2023-09-29T12:28:02.000Z</time>
      </trkpt>
      <trkpt lat="40.92563" lon="20.15876">
        <ele>203.93800354004</ele>
        <time>2023-09-29T12:28:04.000Z</time>
      </trkpt>
      <trkpt lat="40.92555" lon="20.15855">
        <ele>202.00799560547</ele>
        <time>2023-09-29T12:28:05.000Z</time>
      </trkpt>
      <trkpt lat="40.9255" lon="20.15828">
        <ele>199.60800170898</ele>
        <time>2023-09-29T12:28:08.000Z</time>
      </trkpt>
      <trkpt lat="40.92553" lon="20.15805">
        <ele>196.72799682617</ele>
        <time>2023-09-29T12:28:10.000Z</time>
      </trkpt>
      <trkpt lat="40.92573" lon="20.15756">
        <ele>191.91799926758</ele>
        <time>2023-09-29T12:28:14.000Z</time>
      </trkpt>
      <trkpt lat="40.92596" lon="20.15728">
        <ele>188.07800292969</ele>
        <time>2023-09-29T12:28:17.000Z</time>
      </trkpt>
      <trkpt lat="40.92621" lon="20.15708">
        <ele>184.22799682617</ele>
        <time>2023-09-29T12:28:20.000Z</time>
      </trkpt>
      <trkpt lat="40.92634" lon="20.15675">
        <ele>181.34800720215</ele>
        <time>2023-09-29T12:28:23.000Z</time>
      </trkpt>
      <trkpt lat="40.92635" lon="20.15659">
        <ele>180.86799621582</ele>
        <time>2023-09-29T12:28:24.000Z</time>
      </trkpt>
      <trkpt lat="40.92639" lon="20.15556">
        <ele>181.82800292969</ele>
        <time>2023-09-29T12:28:30.000Z</time>
      </trkpt>
      <trkpt lat="40.9263" lon="20.1551">
        <ele>184.22799682617</ele>
        <time>2023-09-29T12:28:33.000Z</time>
      </trkpt>
      <trkpt lat="40.92614" lon="20.15488">
        <ele>187.10800170898</ele>
        <time>2023-09-29T12:28:35.000Z</time>
      </trkpt>
      <trkpt lat="40.92598" lon="20.15478">
        <ele>188.55799865723</ele>
        <time>2023-09-29T12:28:36.000Z</time>
      </trkpt>
      <trkpt lat="40.92584" lon="20.15468">
        <ele>189.99800109863</ele>
        <time>2023-09-29T12:28:38.000Z</time>
      </trkpt>
      <trkpt lat="40.92568" lon="20.1543">
        <ele>191.91799926758</ele>
        <time>2023-09-29T12:28:42.000Z</time>
      </trkpt>
      <trkpt lat="40.92554" lon="20.1536">
        <ele>192.87800598145</ele>
        <time>2023-09-29T12:28:49.000Z</time>
      </trkpt>
      <trkpt lat="40.92528" lon="20.15315">
        <ele>192.39799499512</ele>
        <time>2023-09-29T12:28:55.000Z</time>
      </trkpt>
      <trkpt lat="40.92523" lon="20.15298">
        <ele>192.39799499512</ele>
        <time>2023-09-29T12:28:58.000Z</time>
      </trkpt>
      <trkpt lat="40.92525" lon="20.15281">
        <ele>193.35800170898</ele>
        <time>2023-09-29T12:29:01.000Z</time>
      </trkpt>
      <trkpt lat="40.92547" lon="20.15266">
        <ele>195.27799987793</ele>
        <time>2023-09-29T12:29:05.000Z</time>
      </trkpt>
      <trkpt lat="40.92568" lon="20.1524">
        <ele>196.24800109863</ele>
        <time>2023-09-29T12:29:08.000Z</time>
      </trkpt>
      <trkpt lat="40.9258" lon="20.15182">
        <ele>197.20799255371</ele>
        <time>2023-09-29T12:29:11.000Z</time>
      </trkpt>
      <trkpt lat="40.92581" lon="20.15088">
        <ele>197.68800354004</ele>
        <time>2023-09-29T12:29:16.000Z</time>
      </trkpt>
      <trkpt lat="40.92574" lon="20.15051">
        <ele>198.16799926758</ele>
        <time>2023-09-29T12:29:18.000Z</time>
      </trkpt>
      <trkpt lat="40.92551" lon="20.14999">
        <ele>197.68800354004</ele>
        <time>2023-09-29T12:29:20.000Z</time>
      </trkpt>
      <trkpt lat="40.92548" lon="20.14993">
        <ele>197.68800354004</ele>
        <time>2023-09-29T12:29:21.000Z</time>
      </trkpt>
      <trkpt lat="40.92525" lon="20.14902">
        <ele>194.79800415039</ele>
        <time>2023-09-29T12:29:26.000Z</time>
      </trkpt>
      <trkpt lat="40.9253" lon="20.14879">
        <ele>194.31799316406</ele>
        <time>2023-09-29T12:29:28.000Z</time>
      </trkpt>
      <trkpt lat="40.9256" lon="20.14859">
        <ele>194.31799316406</ele>
        <time>2023-09-29T12:29:31.000Z</time>
      </trkpt>
      <trkpt lat="40.92583" lon="20.14845">
        <ele>194.31799316406</ele>
        <time>2023-09-29T12:29:33.000Z</time>
      </trkpt>
      <trkpt lat="40.92591" lon="20.14832">
        <ele>194.31799316406</ele>
        <time>2023-09-29T12:29:34.000Z</time>
      </trkpt>
      <trkpt lat="40.92617" lon="20.14767">
        <ele>192.87800598145</ele>
        <time>2023-09-29T12:29:38.000Z</time>
      </trkpt>
      <trkpt lat="40.9261" lon="20.14739">
        <ele>192.39799499512</ele>
        <time>2023-09-29T12:29:41.000Z</time>
      </trkpt>
      <trkpt lat="40.92588" lon="20.14725">
        <ele>192.39799499512</ele>
        <time>2023-09-29T12:29:43.000Z</time>
      </trkpt>
      <trkpt lat="40.92568" lon="20.14707">
        <ele>191.91799926758</ele>
        <time>2023-09-29T12:29:45.000Z</time>
      </trkpt>
      <trkpt lat="40.92557" lon="20.1469">
        <ele>191.91799926758</ele>
        <time>2023-09-29T12:29:46.000Z</time>
      </trkpt>
      <trkpt lat="40.92533" lon="20.1466">
        <ele>191.43800354004</ele>
        <time>2023-09-29T12:29:48.000Z</time>
      </trkpt>
      <trkpt lat="40.92498" lon="20.14632">
        <ele>191.43800354004</ele>
        <time>2023-09-29T12:29:50.000Z</time>
      </trkpt>
      <trkpt lat="40.92482" lon="20.14615">
        <ele>191.43800354004</ele>
        <time>2023-09-29T12:29:52.000Z</time>
      </trkpt>
      <trkpt lat="40.92475" lon="20.146">
        <ele>191.43800354004</ele>
        <time>2023-09-29T12:29:53.000Z</time>
      </trkpt>
      <trkpt lat="40.92436" lon="20.14496">
        <ele>194.31799316406</ele>
        <time>2023-09-29T12:29:57.000Z</time>
      </trkpt>
      <trkpt lat="40.92427" lon="20.14467">
        <ele>195.76800537109</ele>
        <time>2023-09-29T12:29:59.000Z</time>
      </trkpt>
      <trkpt lat="40.92425" lon="20.14429">
        <ele>197.20799255371</ele>
        <time>2023-09-29T12:30:01.000Z</time>
      </trkpt>
      <trkpt lat="40.92411" lon="20.14399">
        <ele>200.08799743652</ele>
        <time>2023-09-29T12:30:03.000Z</time>
      </trkpt>
      <trkpt lat="40.92382" lon="20.14375">
        <ele>204.89799499512</ele>
        <time>2023-09-29T12:30:05.000Z</time>
      </trkpt>
      <trkpt lat="40.92358" lon="20.14353">
        <ele>208.25799560547</ele>
        <time>2023-09-29T12:30:06.000Z</time>
      </trkpt>
      <trkpt lat="40.92318" lon="20.1431">
        <ele>211.62800598145</ele>
        <time>2023-09-29T12:30:09.000Z</time>
      </trkpt>
      <trkpt lat="40.92307" lon="20.14287">
        <ele>214.02799987793</ele>
        <time>2023-09-29T12:30:11.000Z</time>
      </trkpt>
      <trkpt lat="40.92316" lon="20.14258">
        <ele>215.46800231934</ele>
        <time>2023-09-29T12:30:13.000Z</time>
      </trkpt>
      <trkpt lat="40.92323" lon="20.14231">
        <ele>217.39799499512</ele>
        <time>2023-09-29T12:30:15.000Z</time>
      </trkpt>
      <trkpt lat="40.92325" lon="20.14187">
        <ele>220.75799560547</ele>
        <time>2023-09-29T12:30:17.000Z</time>
      </trkpt>
      <trkpt lat="40.92329" lon="20.14155">
        <ele>222.19799804688</ele>
        <time>2023-09-29T12:30:19.000Z</time>
      </trkpt>
      <trkpt lat="40.92316" lon="20.14132">
        <ele>226.04800415039</ele>
        <time>2023-09-29T12:30:21.000Z</time>
      </trkpt>
      <trkpt lat="40.92276" lon="20.14111">
        <ele>228.44799804688</ele>
        <time>2023-09-29T12:30:24.000Z</time>
      </trkpt>
      <trkpt lat="40.9225" lon="20.14076">
        <ele>231.80799865723</ele>
        <time>2023-09-29T12:30:27.000Z</time>
      </trkpt>
      <trkpt lat="40.92245" lon="20.14047">
        <ele>232.77799987793</ele>
        <time>2023-09-29T12:30:29.000Z</time>
      </trkpt>
      <trkpt lat="40.92266" lon="20.14">
        <ele>235.65800476074</ele>
        <time>2023-09-29T12:30:32.000Z</time>
      </trkpt>
      <trkpt lat="40.92278" lon="20.13984">
        <ele>236.61799621582</ele>
        <time>2023-09-29T12:30:33.000Z</time>
      </trkpt>
      <trkpt lat="40.92328" lon="20.13932">
        <ele>242.38800048828</ele>
        <time>2023-09-29T12:30:36.000Z</time>
      </trkpt>
      <trkpt lat="40.92359" lon="20.13908">
        <ele>247.19799804688</ele>
        <time>2023-09-29T12:30:38.000Z</time>
      </trkpt>
      <trkpt lat="40.92377" lon="20.13884">
        <ele>250.07800292969</ele>
        <time>2023-09-29T12:30:40.000Z</time>
      </trkpt>
      <trkpt lat="40.92378" lon="20.1386">
        <ele>252.95799255371</ele>
        <time>2023-09-29T12:30:42.000Z</time>
      </trkpt>
      <trkpt lat="40.92363" lon="20.13838">
        <ele>254.88800048828</ele>
        <time>2023-09-29T12:30:44.000Z</time>
      </trkpt>
      <trkpt lat="40.92326" lon="20.13824">
        <ele>258.24798583984</ele>
        <time>2023-09-29T12:30:46.000Z</time>
      </trkpt>
      <trkpt lat="40.92313" lon="20.13823">
        <ele>258.72799682617</ele>
        <time>2023-09-29T12:30:47.000Z</time>
      </trkpt>
      <trkpt lat="40.9225" lon="20.13823">
        <ele>265.4580078125</ele>
        <time>2023-09-29T12:30:50.000Z</time>
      </trkpt>
      <trkpt lat="40.9222" lon="20.13816">
        <ele>267.85800170898</ele>
        <time>2023-09-29T12:30:52.000Z</time>
      </trkpt>
      <trkpt lat="40.92201" lon="20.13797">
        <ele>269.30801391602</ele>
        <time>2023-09-29T12:30:54.000Z</time>
      </trkpt>
      <trkpt lat="40.9218" lon="20.13742">
        <ele>270.74798583984</ele>
        <time>2023-09-29T12:30:57.000Z</time>
      </trkpt>
      <trkpt lat="40.92181" lon="20.13715">
        <ele>270.26800537109</ele>
        <time>2023-09-29T12:30:59.000Z</time>
      </trkpt>
      <trkpt lat="40.92195" lon="20.13701">
        <ele>269.78799438477</ele>
        <time>2023-09-29T12:31:01.000Z</time>
      </trkpt>
      <trkpt lat="40.92224" lon="20.13706">
        <ele>270.74798583984</ele>
        <time>2023-09-29T12:31:03.000Z</time>
      </trkpt>
      <trkpt lat="40.9226" lon="20.13719">
        <ele>272.18798828125</ele>
        <time>2023-09-29T12:31:05.000Z</time>
      </trkpt>
      <trkpt lat="40.92282" lon="20.13713">
        <ele>274.10800170898</ele>
        <time>2023-09-29T12:31:07.000Z</time>
      </trkpt>
      <trkpt lat="40.92316" lon="20.13669">
        <ele>277.47799682617</ele>
        <time>2023-09-29T12:31:11.000Z</time>
      </trkpt>
      <trkpt lat="40.92337" lon="20.1365">
        <ele>279.87799072266</ele>
        <time>2023-09-29T12:31:13.000Z</time>
      </trkpt>
      <trkpt lat="40.92344" lon="20.1361">
        <ele>282.27801513672</ele>
        <time>2023-09-29T12:31:16.000Z</time>
      </trkpt>
      <trkpt lat="40.9232" lon="20.13571">
        <ele>279.39999389648</ele>
        <time>2024-09-26T12:05:23.000Z</time>
      </trkpt>
      <trkpt lat="40.92316" lon="20.13563">
        <ele>278.44000244141</ele>
        <time>2024-09-26T12:05:24.000Z</time>
      </trkpt>
      <trkpt lat="40.92313" lon="20.13555">
        <ele>277.48001098633</ele>
        <time>2024-09-26T12:05:25.000Z</time>
      </trkpt>
      <trkpt lat="40.92309" lon="20.13549">
        <ele>277</ele>
        <time>2024-09-26T12:05:26.000Z</time>
      </trkpt>
      <trkpt lat="40.92304" lon="20.13546">
        <ele>276.04000854492</ele>
        <time>2024-09-26T12:05:27.000Z</time>
      </trkpt>
      <trkpt lat="40.92288" lon="20.1354">
        <ele>274.10998535156</ele>
        <time>2024-09-26T12:05:29.000Z</time>
      </trkpt>
      <trkpt lat="40.92283" lon="20.13539">
        <ele>274.10998535156</ele>
        <time>2024-09-26T12:05:30.000Z</time>
      </trkpt>
      <trkpt lat="40.92277" lon="20.13539">
        <ele>273.63000488281</ele>
        <time>2024-09-26T12:05:31.000Z</time>
      </trkpt>
      <trkpt lat="40.92272" lon="20.13541">
        <ele>273.63000488281</ele>
        <time>2024-09-26T12:05:32.000Z</time>
      </trkpt>
      <trkpt lat="40.92267" lon="20.13545">
        <ele>273.14999389648</ele>
        <time>2024-09-26T12:05:33.000Z</time>
      </trkpt>
      <trkpt lat="40.92264" lon="20.13552">
        <ele>273.14999389648</ele>
        <time>2024-09-26T12:05:34.000Z</time>
      </trkpt>
      <trkpt lat="40.92262" lon="20.1356">
        <ele>272.67001342773</ele>
        <time>2024-09-26T12:05:35.000Z</time>
      </trkpt>
      <trkpt lat="40.92263" lon="20.13568">
        <ele>272.19000244141</ele>
        <time>2024-09-26T12:05:36.000Z</time>
      </trkpt>
      <trkpt lat="40.92264" lon="20.13576">
        <ele>271.70999145508</ele>
        <time>2024-09-26T12:05:37.000Z</time>
      </trkpt>
      <trkpt lat="40.92267" lon="20.13583">
        <ele>271.23001098633</ele>
        <time>2024-09-26T12:05:38.000Z</time>
      </trkpt>
      <trkpt lat="40.92271" lon="20.13589">
        <ele>270.75</ele>
        <time>2024-09-26T12:05:39.000Z</time>
      </trkpt>
      <trkpt lat="40.92275" lon="20.13594">
        <ele>269.79000854492</ele>
        <time>2024-09-26T12:05:40.000Z</time>
      </trkpt>
      <trkpt lat="40.92281" lon="20.13599">
        <ele>269.30999755859</ele>
        <time>2024-09-26T12:05:41.000Z</time>
      </trkpt>
      <trkpt lat="40.92287" lon="20.13604">
        <ele>268.35000610352</ele>
        <time>2024-09-26T12:05:42.000Z</time>
      </trkpt>
      <trkpt lat="40.9229" lon="20.13606">
        <ele>267.85998535156</ele>
        <time>2024-09-26T12:05:43.000Z</time>
      </trkpt>
      <trkpt lat="40.92294" lon="20.13609">
        <ele>267.38000488281</ele>
        <time>2024-09-26T12:05:44.000Z</time>
      </trkpt>
      <trkpt lat="40.92299" lon="20.13614">
        <ele>266.89999389648</ele>
        <time>2024-09-26T12:05:45.000Z</time>
      </trkpt>
      <trkpt lat="40.92302" lon="20.13617">
        <ele>266.42001342773</ele>
        <time>2024-09-26T12:05:46.000Z</time>
      </trkpt>
      <trkpt lat="40.92305" lon="20.13622">
        <ele>265.94000244141</ele>
        <time>2024-09-26T12:05:47.000Z</time>
      </trkpt>
      <trkpt lat="40.92306" lon="20.13629">
        <ele>265.45999145508</ele>
        <time>2024-09-26T12:05:48.000Z</time>
      </trkpt>
      <trkpt lat="40.92306" lon="20.13634">
        <ele>265.45999145508</ele>
        <time>2024-09-26T12:05:49.000Z</time>
      </trkpt>
      <trkpt lat="40.92305" lon="20.1364">
        <ele>264.98001098633</ele>
        <time>2024-09-26T12:05:50.000Z</time>
      </trkpt>
      <trkpt lat="40.92303" lon="20.13646">
        <ele>264.98001098633</ele>
        <time>2024-09-26T12:05:51.000Z</time>
      </trkpt>
      <trkpt lat="40.923" lon="20.13651">
        <ele>264.5</ele>
        <time>2024-09-26T12:05:52.000Z</time>
      </trkpt>
      <trkpt lat="40.92294" lon="20.13656">
        <ele>264.5</ele>
        <time>2024-09-26T12:05:53.000Z</time>
      </trkpt>
      <trkpt lat="40.9229" lon="20.1366">
        <ele>264.01998901367</ele>
        <time>2024-09-26T12:05:54.000Z</time>
      </trkpt>
      <trkpt lat="40.92285" lon="20.13666">
        <ele>263.54000854492</ele>
        <time>2024-09-26T12:05:55.000Z</time>
      </trkpt>
      <trkpt lat="40.92281" lon="20.13672">
        <ele>263.05999755859</ele>
        <time>2024-09-26T12:05:56.000Z</time>
      </trkpt>
      <trkpt lat="40.92277" lon="20.13677">
        <ele>263.05999755859</ele>
        <time>2024-09-26T12:05:57.000Z</time>
      </trkpt>
      <trkpt lat="40.92272" lon="20.13681">
        <ele>262.57998657227</ele>
        <time>2024-09-26T12:05:58.000Z</time>
      </trkpt>
      <trkpt lat="40.92266" lon="20.13684">
        <ele>261.61999511719</ele>
        <time>2024-09-26T12:05:59.000Z</time>
      </trkpt>
      <trkpt lat="40.92259" lon="20.13684">
        <ele>260.64999389648</ele>
        <time>2024-09-26T12:06:00.000Z</time>
      </trkpt>
      <trkpt lat="40.92253" lon="20.1368">
        <ele>259.69000244141</ele>
        <time>2024-09-26T12:06:01.000Z</time>
      </trkpt>
      <trkpt lat="40.92243" lon="20.1367">
        <ele>258.73001098633</ele>
        <time>2024-09-26T12:06:03.000Z</time>
      </trkpt>
      <trkpt lat="40.92238" lon="20.13667">
        <ele>258.25</ele>
        <time>2024-09-26T12:06:04.000Z</time>
      </trkpt>
      <trkpt lat="40.92232" lon="20.13664">
        <ele>257.76998901367</ele>
        <time>2024-09-26T12:06:05.000Z</time>
      </trkpt>
      <trkpt lat="40.92226" lon="20.13662">
        <ele>257.29000854492</ele>
        <time>2024-09-26T12:06:06.000Z</time>
      </trkpt>
      <trkpt lat="40.92207" lon="20.13657">
        <ele>255.36999511719</ele>
        <time>2024-09-26T12:06:09.000Z</time>
      </trkpt>
      <trkpt lat="40.92202" lon="20.13656">
        <ele>254.88999938965</ele>
        <time>2024-09-26T12:06:10.000Z</time>
      </trkpt>
      <trkpt lat="40.92197" lon="20.13654">
        <ele>254.41000366211</ele>
        <time>2024-09-26T12:06:11.000Z</time>
      </trkpt>
      <trkpt lat="40.9219" lon="20.13651">
        <ele>253.44000244141</ele>
        <time>2024-09-26T12:06:12.000Z</time>
      </trkpt>
      <trkpt lat="40.92183" lon="20.13648">
        <ele>252.47999572754</ele>
        <time>2024-09-26T12:06:13.000Z</time>
      </trkpt>
      <trkpt lat="40.92155" lon="20.13634">
        <ele>250.08000183105</ele>
        <time>2024-09-26T12:06:18.000Z</time>
      </trkpt>
      <trkpt lat="40.9215" lon="20.13632">
        <ele>249.60000610352</ele>
        <time>2024-09-26T12:06:19.000Z</time>
      </trkpt>
      <trkpt lat="40.92142" lon="20.1363">
        <ele>248.63999938965</ele>
        <time>2024-09-26T12:06:20.000Z</time>
      </trkpt>
      <trkpt lat="40.92134" lon="20.13629">
        <ele>247.67999267578</ele>
        <time>2024-09-26T12:06:21.000Z</time>
      </trkpt>
      <trkpt lat="40.92104" lon="20.13626">
        <ele>243.83000183105</ele>
        <time>2024-09-26T12:06:25.000Z</time>
      </trkpt>
      <trkpt lat="40.92102" lon="20.13626">
        <ele>243.83000183105</ele>
        <time>2024-09-26T12:06:26.000Z</time>
      </trkpt>
      <trkpt lat="40.92094" lon="20.13626">
        <ele>242.86999511719</ele>
        <time>2024-09-26T12:06:27.000Z</time>
      </trkpt>
      <trkpt lat="40.92086" lon="20.13628">
        <ele>242.38999938965</ele>
        <time>2024-09-26T12:06:28.000Z</time>
      </trkpt>
      <trkpt lat="40.92077" lon="20.13632">
        <ele>241.42999267578</ele>
        <time>2024-09-26T12:06:29.000Z</time>
      </trkpt>
      <trkpt lat="40.92071" lon="20.13634">
        <ele>240.94999694824</ele>
        <time>2024-09-26T12:06:30.000Z</time>
      </trkpt>
      <trkpt lat="40.92063" lon="20.13634">
        <ele>239.99000549316</ele>
        <time>2024-09-26T12:06:31.000Z</time>
      </trkpt>
      <trkpt lat="40.92056" lon="20.13632">
        <ele>239.02000427246</ele>
        <time>2024-09-26T12:06:32.000Z</time>
      </trkpt>
      <trkpt lat="40.92049" lon="20.13629">
        <ele>238.05999755859</ele>
        <time>2024-09-26T12:06:33.000Z</time>
      </trkpt>
      <trkpt lat="40.92025" lon="20.13618">
        <ele>235.17999267578</ele>
        <time>2024-09-26T12:06:37.000Z</time>
      </trkpt>
      <trkpt lat="40.92015" lon="20.13611">
        <ele>234.2200012207</ele>
        <time>2024-09-26T12:06:38.000Z</time>
      </trkpt>
      <trkpt lat="40.92012" lon="20.13609">
        <ele>233.74000549316</ele>
        <time>2024-09-26T12:06:39.000Z</time>
      </trkpt>
      <trkpt lat="40.92005" lon="20.13603">
        <ele>232.7799987793</ele>
        <time>2024-09-26T12:06:40.000Z</time>
      </trkpt>
      <trkpt lat="40.91998" lon="20.13598">
        <ele>232.30000305176</ele>
        <time>2024-09-26T12:06:41.000Z</time>
      </trkpt>
      <trkpt lat="40.91993" lon="20.13596">
        <ele>231.80999755859</ele>
        <time>2024-09-26T12:06:42.000Z</time>
      </trkpt>
      <trkpt lat="40.91987" lon="20.13593">
        <ele>231.33000183105</ele>
        <time>2024-09-26T12:06:43.000Z</time>
      </trkpt>
      <trkpt lat="40.91982" lon="20.13592">
        <ele>230.36999511719</ele>
        <time>2024-09-26T12:06:44.000Z</time>
      </trkpt>
      <trkpt lat="40.91976" lon="20.13592">
        <ele>229.88999938965</ele>
        <time>2024-09-26T12:06:45.000Z</time>
      </trkpt>
      <trkpt lat="40.91971" lon="20.13592">
        <ele>229.41000366211</ele>
        <time>2024-09-26T12:06:46.000Z</time>
      </trkpt>
      <trkpt lat="40.91966" lon="20.13594">
        <ele>228.92999267578</ele>
        <time>2024-09-26T12:06:47.000Z</time>
      </trkpt>
      <trkpt lat="40.91959" lon="20.13596">
        <ele>228.44999694824</ele>
        <time>2024-09-26T12:06:48.000Z</time>
      </trkpt>
      <trkpt lat="40.91952" lon="20.13598">
        <ele>227.9700012207</ele>
        <time>2024-09-26T12:06:49.000Z</time>
      </trkpt>
      <trkpt lat="40.91945" lon="20.13601">
        <ele>227.49000549316</ele>
        <time>2024-09-26T12:06:50.000Z</time>
      </trkpt>
      <trkpt lat="40.9194" lon="20.13603">
        <ele>227.00999450684</ele>
        <time>2024-09-26T12:06:51.000Z</time>
      </trkpt>
      <trkpt lat="40.91934" lon="20.13606">
        <ele>227.00999450684</ele>
        <time>2024-09-26T12:06:52.000Z</time>
      </trkpt>
      <trkpt lat="40.91929" lon="20.13608">
        <ele>226.5299987793</ele>
        <time>2024-09-26T12:06:53.000Z</time>
      </trkpt>
      <trkpt lat="40.91922" lon="20.1361">
        <ele>226.5299987793</ele>
        <time>2024-09-26T12:06:54.000Z</time>
      </trkpt>
      <trkpt lat="40.91913" lon="20.13612">
        <ele>226.05000305176</ele>
        <time>2024-09-26T12:06:55.000Z</time>
      </trkpt>
      <trkpt lat="40.91909" lon="20.13612">
        <ele>225.57000732422</ele>
        <time>2024-09-26T12:06:56.000Z</time>
      </trkpt>
      <trkpt lat="40.91903" lon="20.13612">
        <ele>225.08999633789</ele>
        <time>2024-09-26T12:06:57.000Z</time>
      </trkpt>
      <trkpt lat="40.91897" lon="20.13609">
        <ele>224.61000061035</ele>
        <time>2024-09-26T12:06:58.000Z</time>
      </trkpt>
      <trkpt lat="40.91889" lon="20.13602">
        <ele>223.63999938965</ele>
        <time>2024-09-26T12:06:59.000Z</time>
      </trkpt>
      <trkpt lat="40.91883" lon="20.13598">
        <ele>222.67999267578</ele>
        <time>2024-09-26T12:07:00.000Z</time>
      </trkpt>
      <trkpt lat="40.91881" lon="20.13595">
        <ele>222.19999694824</ele>
        <time>2024-09-26T12:07:01.000Z</time>
      </trkpt>
      <trkpt lat="40.91868" lon="20.1358">
        <ele>220.2799987793</ele>
        <time>2024-09-26T12:07:03.000Z</time>
      </trkpt>
      <trkpt lat="40.91865" lon="20.13577">
        <ele>219.80000305176</ele>
        <time>2024-09-26T12:07:04.000Z</time>
      </trkpt>
      <trkpt lat="40.9186" lon="20.13572">
        <ele>219.32000732422</ele>
        <time>2024-09-26T12:07:05.000Z</time>
      </trkpt>
      <trkpt lat="40.91853" lon="20.13569">
        <ele>218.36000061035</ele>
        <time>2024-09-26T12:07:06.000Z</time>
      </trkpt>
      <trkpt lat="40.91844" lon="20.13565">
        <ele>217.39999389648</ele>
        <time>2024-09-26T12:07:07.000Z</time>
      </trkpt>
      <trkpt lat="40.91841" lon="20.13564">
        <ele>217.39999389648</ele>
        <time>2024-09-26T12:07:08.000Z</time>
      </trkpt>
      <trkpt lat="40.91812" lon="20.1355">
        <ele>214.0299987793</ele>
        <time>2024-09-26T12:07:11.000Z</time>
      </trkpt>
      <trkpt lat="40.91811" lon="20.13549">
        <ele>214.0299987793</ele>
        <time>2024-09-26T12:07:12.000Z</time>
      </trkpt>
      <trkpt lat="40.91805" lon="20.13544">
        <ele>213.07000732422</ele>
        <time>2024-09-26T12:07:13.000Z</time>
      </trkpt>
      <trkpt lat="40.918" lon="20.13537">
        <ele>212.58999633789</ele>
        <time>2024-09-26T12:07:14.000Z</time>
      </trkpt>
      <trkpt lat="40.91791" lon="20.13521">
        <ele>211.14999389648</ele>
        <time>2024-09-26T12:07:16.000Z</time>
      </trkpt>
      <trkpt lat="40.91781" lon="20.13505">
        <ele>209.69999694824</ele>
        <time>2024-09-26T12:07:18.000Z</time>
      </trkpt>
      <trkpt lat="40.91776" lon="20.13498">
        <ele>208.74000549316</ele>
        <time>2024-09-26T12:07:19.000Z</time>
      </trkpt>
      <trkpt lat="40.91753" lon="20.13475">
        <ele>205.86000061035</ele>
        <time>2024-09-26T12:07:23.000Z</time>
      </trkpt>
      <trkpt lat="40.91751" lon="20.13473">
        <ele>205.86000061035</ele>
        <time>2024-09-26T12:07:24.000Z</time>
      </trkpt>
      <trkpt lat="40.91741" lon="20.13461">
        <ele>204.41999816895</ele>
        <time>2024-09-26T12:07:26.000Z</time>
      </trkpt>
      <trkpt lat="40.91735" lon="20.13455">
        <ele>203.94000244141</ele>
        <time>2024-09-26T12:07:27.000Z</time>
      </trkpt>
      <trkpt lat="40.91727" lon="20.13447">
        <ele>203.46000671387</ele>
        <time>2024-09-26T12:07:29.000Z</time>
      </trkpt>
      <trkpt lat="40.91717" lon="20.13435">
        <ele>202.97999572754</ele>
        <time>2024-09-26T12:07:31.000Z</time>
      </trkpt>
      <trkpt lat="40.91715" lon="20.13432">
        <ele>202.49000549316</ele>
        <time>2024-09-26T12:07:32.000Z</time>
      </trkpt>
      <trkpt lat="40.91711" lon="20.13427">
        <ele>202.49000549316</ele>
        <time>2024-09-26T12:07:33.000Z</time>
      </trkpt>
      <trkpt lat="40.91707" lon="20.13422">
        <ele>202.49000549316</ele>
        <time>2024-09-26T12:07:34.000Z</time>
      </trkpt>
      <trkpt lat="40.91702" lon="20.13416">
        <ele>202.00999450684</ele>
        <time>2024-09-26T12:07:35.000Z</time>
      </trkpt>
      <trkpt lat="40.91697" lon="20.1341">
        <ele>202.00999450684</ele>
        <time>2024-09-26T12:07:36.000Z</time>
      </trkpt>
      <trkpt lat="40.91689" lon="20.13401">
        <ele>201.5299987793</ele>
        <time>2024-09-26T12:07:38.000Z</time>
      </trkpt>
      <trkpt lat="40.91685" lon="20.13396">
        <ele>201.5299987793</ele>
        <time>2024-09-26T12:07:39.000Z</time>
      </trkpt>
      <trkpt lat="40.9168" lon="20.13392">
        <ele>201.5299987793</ele>
        <time>2024-09-26T12:07:40.000Z</time>
      </trkpt>
      <trkpt lat="40.91678" lon="20.13389">
        <ele>201.5299987793</ele>
        <time>2024-09-26T12:07:41.000Z</time>
      </trkpt>
      <trkpt lat="40.91673" lon="20.13386">
        <ele>201.5299987793</ele>
        <time>2024-09-26T12:07:42.000Z</time>
      </trkpt>
      <trkpt lat="40.91666" lon="20.1338">
        <ele>201.5299987793</ele>
        <time>2024-09-26T12:07:43.000Z</time>
      </trkpt>
      <trkpt lat="40.91663" lon="20.13378">
        <ele>201.05000305176</ele>
        <time>2024-09-26T12:07:44.000Z</time>
      </trkpt>
      <trkpt lat="40.91658" lon="20.13375">
        <ele>201.05000305176</ele>
        <time>2024-09-26T12:07:45.000Z</time>
      </trkpt>
      <trkpt lat="40.91652" lon="20.13372">
        <ele>200.57000732422</ele>
        <time>2024-09-26T12:07:46.000Z</time>
      </trkpt>
      <trkpt lat="40.91616" lon="20.13357">
        <ele>196.25</ele>
        <time>2024-09-26T12:07:52.000Z</time>
      </trkpt>
      <trkpt lat="40.91611" lon="20.13354">
        <ele>195.77000427246</ele>
        <time>2024-09-26T12:07:53.000Z</time>
      </trkpt>
      <trkpt lat="40.91605" lon="20.13351">
        <ele>194.80000305176</ele>
        <time>2024-09-26T12:07:54.000Z</time>
      </trkpt>
      <trkpt lat="40.91595" lon="20.13346">
        <ele>193.83999633789</ele>
        <time>2024-09-26T12:08:02.000Z</time>
      </trkpt>
      <trkpt lat="40.91581" lon="20.13343">
        <ele>192.88000488281</ele>
        <time>2024-09-26T12:08:21.000Z</time>
      </trkpt>
      <trkpt lat="40.91578" lon="20.13344">
        <ele>192.88000488281</ele>
        <time>2024-09-26T12:08:22.000Z</time>
      </trkpt>
      <trkpt lat="40.91573" lon="20.13349">
        <ele>192.88000488281</ele>
        <time>2024-09-26T12:08:23.000Z</time>
      </trkpt>
      <trkpt lat="40.91529" lon="20.13409">
        <ele>191.44000244141</ele>
        <time>2024-09-26T12:08:31.000Z</time>
      </trkpt>
      <trkpt lat="40.91448" lon="20.13521">
        <ele>185.66999816895</ele>
        <time>2024-09-26T12:08:45.000Z</time>
      </trkpt>
      <trkpt lat="40.91385" lon="20.13605">
        <ele>182.78999328613</ele>
        <time>2024-09-26T12:08:51.000Z</time>
      </trkpt>
      <trkpt lat="40.91263" lon="20.1377">
        <ele>183.75</ele>
        <time>2024-09-26T12:09:03.000Z</time>
      </trkpt>
      <trkpt lat="40.91256" lon="20.13779">
        <ele>183.75</ele>
        <time>2024-09-26T12:09:04.000Z</time>
      </trkpt>
      <trkpt lat="40.91251" lon="20.13787">
        <ele>184.22999572754</ele>
        <time>2024-09-26T12:09:05.000Z</time>
      </trkpt>
      <trkpt lat="40.91241" lon="20.13807">
        <ele>184.71000671387</ele>
        <time>2024-09-26T12:09:06.000Z</time>
      </trkpt>
      <trkpt lat="40.91237" lon="20.13815">
        <ele>185.19000244141</ele>
        <time>2024-09-26T12:09:07.000Z</time>
      </trkpt>
      <trkpt lat="40.91233" lon="20.13827">
        <ele>185.66999816895</ele>
        <time>2024-09-26T12:09:08.000Z</time>
      </trkpt>
      <trkpt lat="40.91227" lon="20.13843">
        <ele>186.14999389648</ele>
        <time>2024-09-26T12:09:09.000Z</time>
      </trkpt>
      <trkpt lat="40.91223" lon="20.1386">
        <ele>187.11000061035</ele>
        <time>2024-09-26T12:09:10.000Z</time>
      </trkpt>
      <trkpt lat="40.91221" lon="20.13873">
        <ele>187.58999633789</ele>
        <time>2024-09-26T12:09:11.000Z</time>
      </trkpt>
      <trkpt lat="40.91202" lon="20.14028">
        <ele>195.2799987793</ele>
        <time>2024-09-26T12:09:21.000Z</time>
      </trkpt>
      <trkpt lat="40.912" lon="20.14047">
        <ele>196.25</ele>
        <time>2024-09-26T12:09:22.000Z</time>
      </trkpt>
      <trkpt lat="40.91196" lon="20.14074">
        <ele>196.72999572754</ele>
        <time>2024-09-26T12:09:24.000Z</time>
      </trkpt>
      <trkpt lat="40.91191" lon="20.14118">
        <ele>198.16999816895</ele>
        <time>2024-09-26T12:09:28.000Z</time>
      </trkpt>
      <trkpt lat="40.91177" lon="20.14199">
        <ele>198.64999389648</ele>
        <time>2024-09-26T12:09:36.000Z</time>
      </trkpt>
      <trkpt lat="40.91175" lon="20.14206">
        <ele>198.16999816895</ele>
        <time>2024-09-26T12:09:37.000Z</time>
      </trkpt>
      <trkpt lat="40.91172" lon="20.14212">
        <ele>197.69000244141</ele>
        <time>2024-09-26T12:09:38.000Z</time>
      </trkpt>
      <trkpt lat="40.91169" lon="20.1422">
        <ele>197.69000244141</ele>
        <time>2024-09-26T12:09:39.000Z</time>
      </trkpt>
      <trkpt lat="40.91168" lon="20.14222">
        <ele>197.21000671387</ele>
        <time>2024-09-26T12:09:40.000Z</time>
      </trkpt>
      <trkpt lat="40.91159" lon="20.14247">
        <ele>196.25</ele>
        <time>2024-09-26T12:09:45.000Z</time>
      </trkpt>
      <trkpt lat="40.91159" lon="20.14249">
        <ele>196.25</ele>
        <time>2024-09-26T12:09:46.000Z</time>
      </trkpt>
      <trkpt lat="40.91157" lon="20.14259">
        <ele>195.77000427246</ele>
        <time>2024-09-26T12:09:47.000Z</time>
      </trkpt>
      <trkpt lat="40.91155" lon="20.14271">
        <ele>195.2799987793</ele>
        <time>2024-09-26T12:09:48.000Z</time>
      </trkpt>
      <trkpt lat="40.91154" lon="20.14279">
        <ele>194.80000305176</ele>
        <time>2024-09-26T12:09:49.000Z</time>
      </trkpt>
      <trkpt lat="40.91153" lon="20.14303">
        <ele>193.83999633789</ele>
        <time>2024-09-26T12:09:50.000Z</time>
      </trkpt>
      <trkpt lat="40.91153" lon="20.14314">
        <ele>193.36000061035</ele>
        <time>2024-09-26T12:09:51.000Z</time>
      </trkpt>
      <trkpt lat="40.91154" lon="20.14331">
        <ele>192.88000488281</ele>
        <time>2024-09-26T12:09:52.000Z</time>
      </trkpt>
      <trkpt lat="40.91155" lon="20.1435">
        <ele>191.44000244141</ele>
        <time>2024-09-26T12:09:53.000Z</time>
      </trkpt>
      <trkpt lat="40.91155" lon="20.14356">
        <ele>190.96000671387</ele>
        <time>2024-09-26T12:09:54.000Z</time>
      </trkpt>
      <trkpt lat="40.91154" lon="20.14372">
        <ele>190.47999572754</ele>
        <time>2024-09-26T12:09:55.000Z</time>
      </trkpt>
      <trkpt lat="40.9115" lon="20.14388">
        <ele>190</ele>
        <time>2024-09-26T12:09:56.000Z</time>
      </trkpt>
      <trkpt lat="40.91144" lon="20.14403">
        <ele>190</ele>
        <time>2024-09-26T12:09:57.000Z</time>
      </trkpt>
      <trkpt lat="40.91135" lon="20.14419">
        <ele>190.47999572754</ele>
        <time>2024-09-26T12:09:58.000Z</time>
      </trkpt>
      <trkpt lat="40.91126" lon="20.1443">
        <ele>190.47999572754</ele>
        <time>2024-09-26T12:09:59.000Z</time>
      </trkpt>
      <trkpt lat="40.91114" lon="20.14445">
        <ele>190.96000671387</ele>
        <time>2024-09-26T12:10:00.000Z</time>
      </trkpt>
      <trkpt lat="40.91107" lon="20.14454">
        <ele>191.44000244141</ele>
        <time>2024-09-26T12:10:01.000Z</time>
      </trkpt>
      <trkpt lat="40.911" lon="20.14465">
        <ele>191.91999816895</ele>
        <time>2024-09-26T12:10:02.000Z</time>
      </trkpt>
      <trkpt lat="40.91092" lon="20.1448">
        <ele>192.39999389648</ele>
        <time>2024-09-26T12:10:03.000Z</time>
      </trkpt>
      <trkpt lat="40.91086" lon="20.14496">
        <ele>193.36000061035</ele>
        <time>2024-09-26T12:10:04.000Z</time>
      </trkpt>
      <trkpt lat="40.91083" lon="20.14508">
        <ele>194.32000732422</ele>
        <time>2024-09-26T12:10:05.000Z</time>
      </trkpt>
      <trkpt lat="40.91081" lon="20.14529">
        <ele>194.80000305176</ele>
        <time>2024-09-26T12:10:06.000Z</time>
      </trkpt>
      <trkpt lat="40.91077" lon="20.14555">
        <ele>194.80000305176</ele>
        <time>2024-09-26T12:10:07.000Z</time>
      </trkpt>
      <trkpt lat="40.91076" lon="20.14562">
        <ele>195.2799987793</ele>
        <time>2024-09-26T12:10:08.000Z</time>
      </trkpt>
      <trkpt lat="40.91071" lon="20.14579">
        <ele>195.77000427246</ele>
        <time>2024-09-26T12:10:09.000Z</time>
      </trkpt>
      <trkpt lat="40.91064" lon="20.14594">
        <ele>196.72999572754</ele>
        <time>2024-09-26T12:10:10.000Z</time>
      </trkpt>
      <trkpt lat="40.91053" lon="20.14606">
        <ele>197.69000244141</ele>
        <time>2024-09-26T12:10:11.000Z</time>
      </trkpt>
      <trkpt lat="40.91041" lon="20.14616">
        <ele>199.61000061035</ele>
        <time>2024-09-26T12:10:12.000Z</time>
      </trkpt>
      <trkpt lat="40.91027" lon="20.14625">
        <ele>201.5299987793</ele>
        <time>2024-09-26T12:10:13.000Z</time>
      </trkpt>
      <trkpt lat="40.90995" lon="20.14644">
        <ele>206.33999633789</ele>
        <time>2024-09-26T12:10:15.000Z</time>
      </trkpt>
      <trkpt lat="40.90986" lon="20.1465">
        <ele>207.7799987793</ele>
        <time>2024-09-26T12:10:16.000Z</time>
      </trkpt>
      <trkpt lat="40.90979" lon="20.14657">
        <ele>209.2200012207</ele>
        <time>2024-09-26T12:10:17.000Z</time>
      </trkpt>
      <trkpt lat="40.90969" lon="20.14667">
        <ele>210.66999816895</ele>
        <time>2024-09-26T12:10:18.000Z</time>
      </trkpt>
      <trkpt lat="40.90962" lon="20.14678">
        <ele>211.63000488281</ele>
        <time>2024-09-26T12:10:19.000Z</time>
      </trkpt>
      <trkpt lat="40.90956" lon="20.14692">
        <ele>213.07000732422</ele>
        <time>2024-09-26T12:10:20.000Z</time>
      </trkpt>
      <trkpt lat="40.90951" lon="20.14707">
        <ele>214.0299987793</ele>
        <time>2024-09-26T12:10:21.000Z</time>
      </trkpt>
      <trkpt lat="40.90949" lon="20.14723">
        <ele>214.99000549316</ele>
        <time>2024-09-26T12:10:22.000Z</time>
      </trkpt>
      <trkpt lat="40.90949" lon="20.14742">
        <ele>215.94999694824</ele>
        <time>2024-09-26T12:10:23.000Z</time>
      </trkpt>
      <trkpt lat="40.90949" lon="20.14759">
        <ele>216.42999267578</ele>
        <time>2024-09-26T12:10:24.000Z</time>
      </trkpt>
      <trkpt lat="40.9095" lon="20.1478">
        <ele>217.39999389648</ele>
        <time>2024-09-26T12:10:25.000Z</time>
      </trkpt>
      <trkpt lat="40.90951" lon="20.14794">
        <ele>217.88000488281</ele>
        <time>2024-09-26T12:10:26.000Z</time>
      </trkpt>
      <trkpt lat="40.9095" lon="20.14809">
        <ele>217.88000488281</ele>
        <time>2024-09-26T12:10:27.000Z</time>
      </trkpt>
      <trkpt lat="40.90948" lon="20.14826">
        <ele>218.83999633789</ele>
        <time>2024-09-26T12:10:28.000Z</time>
      </trkpt>
      <trkpt lat="40.90942" lon="20.14843">
        <ele>219.32000732422</ele>
        <time>2024-09-26T12:10:29.000Z</time>
      </trkpt>
      <trkpt lat="40.90934" lon="20.14858">
        <ele>220.2799987793</ele>
        <time>2024-09-26T12:10:30.000Z</time>
      </trkpt>
      <trkpt lat="40.90924" lon="20.14872">
        <ele>221.24000549316</ele>
        <time>2024-09-26T12:10:31.000Z</time>
      </trkpt>
      <trkpt lat="40.90912" lon="20.14885">
        <ele>221.7200012207</ele>
        <time>2024-09-26T12:10:32.000Z</time>
      </trkpt>
      <trkpt lat="40.90901" lon="20.14898">
        <ele>222.67999267578</ele>
        <time>2024-09-26T12:10:33.000Z</time>
      </trkpt>
      <trkpt lat="40.90895" lon="20.14906">
        <ele>222.67999267578</ele>
        <time>2024-09-26T12:10:34.000Z</time>
      </trkpt>
      <trkpt lat="40.90888" lon="20.14918">
        <ele>222.67999267578</ele>
        <time>2024-09-26T12:10:35.000Z</time>
      </trkpt>
      <trkpt lat="40.90883" lon="20.14931">
        <ele>222.67999267578</ele>
        <time>2024-09-26T12:10:36.000Z</time>
      </trkpt>
      <trkpt lat="40.90879" lon="20.14943">
        <ele>222.67999267578</ele>
        <time>2024-09-26T12:10:37.000Z</time>
      </trkpt>
      <trkpt lat="40.90875" lon="20.14956">
        <ele>222.67999267578</ele>
        <time>2024-09-26T12:10:38.000Z</time>
      </trkpt>
      <trkpt lat="40.90872" lon="20.14971">
        <ele>221.7200012207</ele>
        <time>2024-09-26T12:10:39.000Z</time>
      </trkpt>
      <trkpt lat="40.90871" lon="20.14987">
        <ele>221.24000549316</ele>
        <time>2024-09-26T12:10:40.000Z</time>
      </trkpt>
      <trkpt lat="40.9087" lon="20.1504">
        <ele>218.36000061035</ele>
        <time>2024-09-26T12:10:43.000Z</time>
      </trkpt>
      <trkpt lat="40.90869" lon="20.15057">
        <ele>217.39999389648</ele>
        <time>2024-09-26T12:10:44.000Z</time>
      </trkpt>
      <trkpt lat="40.90866" lon="20.15073">
        <ele>216.91000366211</ele>
        <time>2024-09-26T12:10:45.000Z</time>
      </trkpt>
      <trkpt lat="40.90861" lon="20.15089">
        <ele>216.42999267578</ele>
        <time>2024-09-26T12:10:46.000Z</time>
      </trkpt>
      <trkpt lat="40.90853" lon="20.15104">
        <ele>215.4700012207</ele>
        <time>2024-09-26T12:10:47.000Z</time>
      </trkpt>
      <trkpt lat="40.90844" lon="20.15117">
        <ele>215.4700012207</ele>
        <time>2024-09-26T12:10:48.000Z</time>
      </trkpt>
      <trkpt lat="40.90808" lon="20.15151">
        <ele>212.11000061035</ele>
        <time>2024-09-26T12:10:51.000Z</time>
      </trkpt>
      <trkpt lat="40.90801" lon="20.15158">
        <ele>211.63000488281</ele>
        <time>2024-09-26T12:10:52.000Z</time>
      </trkpt>
      <trkpt lat="40.90792" lon="20.15169">
        <ele>210.66999816895</ele>
        <time>2024-09-26T12:10:53.000Z</time>
      </trkpt>
      <trkpt lat="40.90784" lon="20.15181">
        <ele>210.19000244141</ele>
        <time>2024-09-26T12:10:54.000Z</time>
      </trkpt>
      <trkpt lat="40.90773" lon="20.15209">
        <ele>209.69999694824</ele>
        <time>2024-09-26T12:10:56.000Z</time>
      </trkpt>
      <trkpt lat="40.90766" lon="20.15236">
        <ele>210.19000244141</ele>
        <time>2024-09-26T12:10:58.000Z</time>
      </trkpt>
      <trkpt lat="40.90765" lon="20.15243">
        <ele>210.66999816895</ele>
        <time>2024-09-26T12:10:59.000Z</time>
      </trkpt>
      <trkpt lat="40.90754" lon="20.1531">
        <ele>207.30000305176</ele>
        <time>2024-09-26T12:11:04.000Z</time>
      </trkpt>
      <trkpt lat="40.90749" lon="20.15333">
        <ele>206.33999633789</ele>
        <time>2024-09-26T12:11:06.000Z</time>
      </trkpt>
      <trkpt lat="40.90735" lon="20.15425">
        <ele>208.74000549316</ele>
        <time>2024-09-26T12:11:14.000Z</time>
      </trkpt>
      <trkpt lat="40.90731" lon="20.15445">
        <ele>208.25999450684</ele>
        <time>2024-09-26T12:11:16.000Z</time>
      </trkpt>
      <trkpt lat="40.90727" lon="20.15462">
        <ele>208.25999450684</ele>
        <time>2024-09-26T12:11:17.000Z</time>
      </trkpt>
      <trkpt lat="40.90726" lon="20.15464">
        <ele>207.7799987793</ele>
        <time>2024-09-26T12:11:18.000Z</time>
      </trkpt>
      <trkpt lat="40.90717" lon="20.15492">
        <ele>207.30000305176</ele>
        <time>2024-09-26T12:11:21.000Z</time>
      </trkpt>
      <trkpt lat="40.90695" lon="20.15543">
        <ele>203.94000244141</ele>
        <time>2024-09-26T12:11:27.000Z</time>
      </trkpt>
      <trkpt lat="40.90668" lon="20.15585">
        <ele>200.08999633789</ele>
        <time>2024-09-26T12:11:32.000Z</time>
      </trkpt>
      <trkpt lat="40.90652" lon="20.15604">
        <ele>198.16999816895</ele>
        <time>2024-09-26T12:11:34.000Z</time>
      </trkpt>
      <trkpt lat="40.90618" lon="20.15634">
        <ele>197.21000671387</ele>
        <time>2024-09-26T12:11:38.000Z</time>
      </trkpt>
      <trkpt lat="40.90613" lon="20.15638">
        <ele>196.72999572754</ele>
        <time>2024-09-26T12:11:39.000Z</time>
      </trkpt>
      <trkpt lat="40.90595" lon="20.15647">
        <ele>196.25</ele>
        <time>2024-09-26T12:11:41.000Z</time>
      </trkpt>
      <trkpt lat="40.90581" lon="20.15652">
        <ele>195.2799987793</ele>
        <time>2024-09-26T12:11:42.000Z</time>
      </trkpt>
      <trkpt lat="40.90549" lon="20.15659">
        <ele>194.32000732422</ele>
        <time>2024-09-26T12:11:44.000Z</time>
      </trkpt>
      <trkpt lat="40.90539" lon="20.1566">
        <ele>193.83999633789</ele>
        <time>2024-09-26T12:11:45.000Z</time>
      </trkpt>
      <trkpt lat="40.90534" lon="20.1566">
        <ele>193.83999633789</ele>
        <time>2024-09-26T12:11:46.000Z</time>
      </trkpt>
      <trkpt lat="40.90519" lon="20.1566">
        <ele>193.36000061035</ele>
        <time>2024-09-26T12:11:47.000Z</time>
      </trkpt>
      <trkpt lat="40.90405" lon="20.15631">
        <ele>190.47999572754</ele>
        <time>2024-09-26T12:11:56.000Z</time>
      </trkpt>
      <trkpt lat="40.90399" lon="20.1563">
        <ele>190</ele>
        <time>2024-09-26T12:11:57.000Z</time>
      </trkpt>
      <trkpt lat="40.90386" lon="20.15629">
        <ele>188.55999755859</ele>
        <time>2024-09-26T12:11:58.000Z</time>
      </trkpt>
      <trkpt lat="40.90373" lon="20.1563">
        <ele>187.58999633789</ele>
        <time>2024-09-26T12:11:59.000Z</time>
      </trkpt>
      <trkpt lat="40.9036" lon="20.15633">
        <ele>186.14999389648</ele>
        <time>2024-09-26T12:12:00.000Z</time>
      </trkpt>
      <trkpt lat="40.90348" lon="20.1564">
        <ele>185.66999816895</ele>
        <time>2024-09-26T12:12:01.000Z</time>
      </trkpt>
      <trkpt lat="40.90337" lon="20.15648">
        <ele>185.66999816895</ele>
        <time>2024-09-26T12:12:02.000Z</time>
      </trkpt>
      <trkpt lat="40.90327" lon="20.15657">
        <ele>185.66999816895</ele>
        <time>2024-09-26T12:12:03.000Z</time>
      </trkpt>
      <trkpt lat="40.90317" lon="20.15668">
        <ele>186.14999389648</ele>
        <time>2024-09-26T12:12:04.000Z</time>
      </trkpt>
      <trkpt lat="40.90286" lon="20.15714">
        <ele>186.14999389648</ele>
        <time>2024-09-26T12:12:07.000Z</time>
      </trkpt>
      <trkpt lat="40.90281" lon="20.15722">
        <ele>186.14999389648</ele>
        <time>2024-09-26T12:12:08.000Z</time>
      </trkpt>
      <trkpt lat="40.90272" lon="20.15733">
        <ele>186.14999389648</ele>
        <time>2024-09-26T12:12:09.000Z</time>
      </trkpt>
      <trkpt lat="40.9022" lon="20.15782">
        <ele>188.08000183105</ele>
        <time>2024-09-26T12:12:14.000Z</time>
      </trkpt>
      <trkpt lat="40.9021" lon="20.15792">
        <ele>188.08000183105</ele>
        <time>2024-09-26T12:12:15.000Z</time>
      </trkpt>
      <trkpt lat="40.90202" lon="20.15804">
        <ele>188.08000183105</ele>
        <time>2024-09-26T12:12:16.000Z</time>
      </trkpt>
      <trkpt lat="40.90186" lon="20.15839">
        <ele>187.11000061035</ele>
        <time>2024-09-26T12:12:18.000Z</time>
      </trkpt>
      <trkpt lat="40.90185" lon="20.15842">
        <ele>187.11000061035</ele>
        <time>2024-09-26T12:12:19.000Z</time>
      </trkpt>
      <trkpt lat="40.90139" lon="20.15914">
        <ele>187.58999633789</ele>
        <time>2024-09-26T12:12:24.000Z</time>
      </trkpt>
      <trkpt lat="40.90133" lon="20.15925">
        <ele>187.58999633789</ele>
        <time>2024-09-26T12:12:25.000Z</time>
      </trkpt>
      <trkpt lat="40.90127" lon="20.15936">
        <ele>187.58999633789</ele>
        <time>2024-09-26T12:12:26.000Z</time>
      </trkpt>
      <trkpt lat="40.9012" lon="20.15952">
        <ele>187.58999633789</ele>
        <time>2024-09-26T12:12:27.000Z</time>
      </trkpt>
      <trkpt lat="40.90117" lon="20.15957">
        <ele>187.11000061035</ele>
        <time>2024-09-26T12:12:28.000Z</time>
      </trkpt>
      <trkpt lat="40.90108" lon="20.15966">
        <ele>187.11000061035</ele>
        <time>2024-09-26T12:12:29.000Z</time>
      </trkpt>
      <trkpt lat="40.90024" lon="20.16031">
        <ele>187.58999633789</ele>
        <time>2024-09-26T12:12:36.000Z</time>
      </trkpt>
      <trkpt lat="40.90022" lon="20.16032">
        <ele>187.58999633789</ele>
        <time>2024-09-26T12:12:37.000Z</time>
      </trkpt>
      <trkpt lat="40.90012" lon="20.16038">
        <ele>187.11000061035</ele>
        <time>2024-09-26T12:12:38.000Z</time>
      </trkpt>
      <trkpt lat="40.89997" lon="20.16046">
        <ele>187.58999633789</ele>
        <time>2024-09-26T12:12:39.000Z</time>
      </trkpt>
      <trkpt lat="40.8999" lon="20.16049">
        <ele>187.58999633789</ele>
        <time>2024-09-26T12:12:40.000Z</time>
      </trkpt>
      <trkpt lat="40.8998" lon="20.16056">
        <ele>188.08000183105</ele>
        <time>2024-09-26T12:12:41.000Z</time>
      </trkpt>
      <trkpt lat="40.89971" lon="20.16065">
        <ele>188.55999755859</ele>
        <time>2024-09-26T12:12:42.000Z</time>
      </trkpt>
      <trkpt lat="40.89963" lon="20.16076">
        <ele>189.52000427246</ele>
        <time>2024-09-26T12:12:43.000Z</time>
      </trkpt>
      <trkpt lat="40.89957" lon="20.1609">
        <ele>190.47999572754</ele>
        <time>2024-09-26T12:12:44.000Z</time>
      </trkpt>
      <trkpt lat="40.89952" lon="20.16105">
        <ele>190.96000671387</ele>
        <time>2024-09-26T12:12:45.000Z</time>
      </trkpt>
      <trkpt lat="40.89946" lon="20.16123">
        <ele>191.44000244141</ele>
        <time>2024-09-26T12:12:46.000Z</time>
      </trkpt>
      <trkpt lat="40.89941" lon="20.16135">
        <ele>191.44000244141</ele>
        <time>2024-09-26T12:12:47.000Z</time>
      </trkpt>
      <trkpt lat="40.89935" lon="20.16147">
        <ele>191.44000244141</ele>
        <time>2024-09-26T12:12:48.000Z</time>
      </trkpt>
      <trkpt lat="40.89927" lon="20.16158">
        <ele>191.44000244141</ele>
        <time>2024-09-26T12:12:49.000Z</time>
      </trkpt>
      <trkpt lat="40.89917" lon="20.16168">
        <ele>191.91999816895</ele>
        <time>2024-09-26T12:12:50.000Z</time>
      </trkpt>
      <trkpt lat="40.89905" lon="20.16174">
        <ele>191.91999816895</ele>
        <time>2024-09-26T12:12:51.000Z</time>
      </trkpt>
      <trkpt lat="40.89892" lon="20.16179">
        <ele>191.91999816895</ele>
        <time>2024-09-26T12:12:52.000Z</time>
      </trkpt>
      <trkpt lat="40.89719" lon="20.16226">
        <ele>191.91999816895</ele>
        <time>2024-09-26T12:13:05.000Z</time>
      </trkpt>
      <trkpt lat="40.89688" lon="20.16234">
        <ele>191.91999816895</ele>
        <time>2024-09-26T12:13:07.000Z</time>
      </trkpt>
      <trkpt lat="40.89661" lon="20.16238">
        <ele>191.91999816895</ele>
        <time>2024-09-26T12:13:09.000Z</time>
      </trkpt>
      <trkpt lat="40.89588" lon="20.16235">
        <ele>194.32000732422</ele>
        <time>2024-09-26T12:13:15.000Z</time>
      </trkpt>
      <trkpt lat="40.89522" lon="20.16244">
        <ele>195.2799987793</ele>
        <time>2024-09-26T12:13:19.000Z</time>
      </trkpt>
      <trkpt lat="40.89519" lon="20.16245">
        <ele>195.2799987793</ele>
        <time>2024-09-26T12:13:20.000Z</time>
      </trkpt>
      <trkpt lat="40.89505" lon="20.16251">
        <ele>195.77000427246</ele>
        <time>2024-09-26T12:13:21.000Z</time>
      </trkpt>
      <trkpt lat="40.89492" lon="20.16258">
        <ele>196.25</ele>
        <time>2024-09-26T12:13:22.000Z</time>
      </trkpt>
      <trkpt lat="40.89461" lon="20.16278">
        <ele>197.69000244141</ele>
        <time>2024-09-26T12:13:24.000Z</time>
      </trkpt>
      <trkpt lat="40.89456" lon="20.16281">
        <ele>197.69000244141</ele>
        <time>2024-09-26T12:13:25.000Z</time>
      </trkpt>
      <trkpt lat="40.89298" lon="20.16345">
        <ele>201.05000305176</ele>
        <time>2024-09-26T12:13:36.000Z</time>
      </trkpt>
      <trkpt lat="40.89167" lon="20.1641">
        <ele>201.5299987793</ele>
        <time>2024-09-26T12:13:46.000Z</time>
      </trkpt>
      <trkpt lat="40.89123" lon="20.16446">
        <ele>202.49000549316</ele>
        <time>2024-09-26T12:13:49.000Z</time>
      </trkpt>
      <trkpt lat="40.89015" lon="20.16574">
        <ele>202.97999572754</ele>
        <time>2024-09-26T12:13:59.000Z</time>
      </trkpt>
      <trkpt lat="40.88956" lon="20.16641">
        <ele>203.46000671387</ele>
        <time>2024-09-26T12:14:05.000Z</time>
      </trkpt>
      <trkpt lat="40.88949" lon="20.16652">
        <ele>203.46000671387</ele>
        <time>2024-09-26T12:14:06.000Z</time>
      </trkpt>
      <trkpt lat="40.88935" lon="20.16677">
        <ele>203.94000244141</ele>
        <time>2024-09-26T12:14:07.000Z</time>
      </trkpt>
      <trkpt lat="40.88912" lon="20.1672">
        <ele>203.94000244141</ele>
        <time>2024-09-26T12:14:10.000Z</time>
      </trkpt>
      <trkpt lat="40.88908" lon="20.16729">
        <ele>203.94000244141</ele>
        <time>2024-09-26T12:14:11.000Z</time>
      </trkpt>
      <trkpt lat="40.889" lon="20.1675">
        <ele>203.94000244141</ele>
        <time>2024-09-26T12:14:12.000Z</time>
      </trkpt>
      <trkpt lat="40.88887" lon="20.16797">
        <ele>203.94000244141</ele>
        <time>2024-09-26T12:14:14.000Z</time>
      </trkpt>
      <trkpt lat="40.88886" lon="20.168">
        <ele>203.94000244141</ele>
        <time>2024-09-26T12:14:15.000Z</time>
      </trkpt>
      <trkpt lat="40.88839" lon="20.169">
        <ele>205.86000061035</ele>
        <time>2024-09-26T12:14:21.000Z</time>
      </trkpt>
      <trkpt lat="40.88831" lon="20.16912">
        <ele>205.86000061035</ele>
        <time>2024-09-26T12:14:22.000Z</time>
      </trkpt>
      <trkpt lat="40.88731" lon="20.17026">
        <ele>208.25999450684</ele>
        <time>2024-09-26T12:14:31.000Z</time>
      </trkpt>
      <trkpt lat="40.88716" lon="20.17043">
        <ele>208.74000549316</ele>
        <time>2024-09-26T12:14:32.000Z</time>
      </trkpt>
      <trkpt lat="40.88712" lon="20.17048">
        <ele>208.25999450684</ele>
        <time>2024-09-26T12:14:33.000Z</time>
      </trkpt>
      <trkpt lat="40.88701" lon="20.17058">
        <ele>207.7799987793</ele>
        <time>2024-09-26T12:14:34.000Z</time>
      </trkpt>
      <trkpt lat="40.88688" lon="20.17067">
        <ele>207.30000305176</ele>
        <time>2024-09-26T12:14:35.000Z</time>
      </trkpt>
      <trkpt lat="40.88678" lon="20.17072">
        <ele>206.33999633789</ele>
        <time>2024-09-26T12:14:36.000Z</time>
      </trkpt>
      <trkpt lat="40.88664" lon="20.17079">
        <ele>205.38000488281</ele>
        <time>2024-09-26T12:14:37.000Z</time>
      </trkpt>
      <trkpt lat="40.8865" lon="20.17083">
        <ele>204.41999816895</ele>
        <time>2024-09-26T12:14:38.000Z</time>
      </trkpt>
      <trkpt lat="40.88584" lon="20.17096">
        <ele>199.13000488281</ele>
        <time>2024-09-26T12:14:43.000Z</time>
      </trkpt>
      <trkpt lat="40.88571" lon="20.17102">
        <ele>197.69000244141</ele>
        <time>2024-09-26T12:14:44.000Z</time>
      </trkpt>
      <trkpt lat="40.88558" lon="20.17111">
        <ele>196.72999572754</ele>
        <time>2024-09-26T12:14:45.000Z</time>
      </trkpt>
      <trkpt lat="40.8855" lon="20.17119">
        <ele>195.77000427246</ele>
        <time>2024-09-26T12:14:46.000Z</time>
      </trkpt>
      <trkpt lat="40.8854" lon="20.17131">
        <ele>194.32000732422</ele>
        <time>2024-09-26T12:14:47.000Z</time>
      </trkpt>
      <trkpt lat="40.88531" lon="20.17144">
        <ele>192.88000488281</ele>
        <time>2024-09-26T12:14:48.000Z</time>
      </trkpt>
      <trkpt lat="40.88523" lon="20.1716">
        <ele>191.44000244141</ele>
        <time>2024-09-26T12:14:49.000Z</time>
      </trkpt>
      <trkpt lat="40.88518" lon="20.17177">
        <ele>189.52000427246</ele>
        <time>2024-09-26T12:14:50.000Z</time>
      </trkpt>
      <trkpt lat="40.88515" lon="20.17195">
        <ele>188.55999755859</ele>
        <time>2024-09-26T12:14:51.000Z</time>
      </trkpt>
      <trkpt lat="40.88514" lon="20.17216">
        <ele>188.08000183105</ele>
        <time>2024-09-26T12:14:52.000Z</time>
      </trkpt>
      <trkpt lat="40.88511" lon="20.17233">
        <ele>187.11000061035</ele>
        <time>2024-09-26T12:14:53.000Z</time>
      </trkpt>
      <trkpt lat="40.88504" lon="20.17249">
        <ele>187.11000061035</ele>
        <time>2024-09-26T12:14:54.000Z</time>
      </trkpt>
      <trkpt lat="40.88494" lon="20.17261">
        <ele>188.55999755859</ele>
        <time>2024-09-26T12:14:55.000Z</time>
      </trkpt>
      <trkpt lat="40.88477" lon="20.1728">
        <ele>190.96000671387</ele>
        <time>2024-09-26T12:14:56.000Z</time>
      </trkpt>
      <trkpt lat="40.88471" lon="20.17287">
        <ele>191.91999816895</ele>
        <time>2024-09-26T12:14:57.000Z</time>
      </trkpt>
      <trkpt lat="40.88463" lon="20.17298">
        <ele>193.36000061035</ele>
        <time>2024-09-26T12:14:58.000Z</time>
      </trkpt>
      <trkpt lat="40.88444" lon="20.1733">
        <ele>195.77000427246</ele>
        <time>2024-09-26T12:15:00.000Z</time>
      </trkpt>
      <trkpt lat="40.88439" lon="20.17339">
        <ele>196.25</ele>
        <time>2024-09-26T12:15:01.000Z</time>
      </trkpt>
      <trkpt lat="40.88425" lon="20.17373">
        <ele>198.64999389648</ele>
        <time>2024-09-26T12:15:03.000Z</time>
      </trkpt>
      <trkpt lat="40.88418" lon="20.17389">
        <ele>199.61000061035</ele>
        <time>2024-09-26T12:15:04.000Z</time>
      </trkpt>
      <trkpt lat="40.88396" lon="20.17422">
        <ele>202.97999572754</ele>
        <time>2024-09-26T12:15:06.000Z</time>
      </trkpt>
      <trkpt lat="40.88389" lon="20.17431">
        <ele>203.46000671387</ele>
        <time>2024-09-26T12:15:07.000Z</time>
      </trkpt>
      <trkpt lat="40.88376" lon="20.17448">
        <ele>205.86000061035</ele>
        <time>2024-09-26T12:15:08.000Z</time>
      </trkpt>
      <trkpt lat="40.88368" lon="20.1746">
        <ele>207.30000305176</ele>
        <time>2024-09-26T12:15:09.000Z</time>
      </trkpt>
      <trkpt lat="40.88364" lon="20.17466">
        <ele>208.25999450684</ele>
        <time>2024-09-26T12:15:10.000Z</time>
      </trkpt>
      <trkpt lat="40.88356" lon="20.1748">
        <ele>209.69999694824</ele>
        <time>2024-09-26T12:15:11.000Z</time>
      </trkpt>
      <trkpt lat="40.88347" lon="20.17501">
        <ele>212.11000061035</ele>
        <time>2024-09-26T12:15:12.000Z</time>
      </trkpt>
      <trkpt lat="40.88334" lon="20.17538">
        <ele>214.50999450684</ele>
        <time>2024-09-26T12:15:14.000Z</time>
      </trkpt>
      <trkpt lat="40.88333" lon="20.17541">
        <ele>214.50999450684</ele>
        <time>2024-09-26T12:15:15.000Z</time>
      </trkpt>
      <trkpt lat="40.8833" lon="20.17557">
        <ele>214.99000549316</ele>
        <time>2024-09-26T12:15:16.000Z</time>
      </trkpt>
      <trkpt lat="40.88329" lon="20.17574">
        <ele>215.4700012207</ele>
        <time>2024-09-26T12:15:17.000Z</time>
      </trkpt>
      <trkpt lat="40.8833" lon="20.17592">
        <ele>216.42999267578</ele>
        <time>2024-09-26T12:15:18.000Z</time>
      </trkpt>
      <trkpt lat="40.88331" lon="20.17612">
        <ele>216.42999267578</ele>
        <time>2024-09-26T12:15:19.000Z</time>
      </trkpt>
      <trkpt lat="40.88334" lon="20.17652">
        <ele>216.91000366211</ele>
        <time>2024-09-26T12:15:21.000Z</time>
      </trkpt>
      <trkpt lat="40.88335" lon="20.17664">
        <ele>216.91000366211</ele>
        <time>2024-09-26T12:15:22.000Z</time>
      </trkpt>
      <trkpt lat="40.88339" lon="20.1768">
        <ele>216.91000366211</ele>
        <time>2024-09-26T12:15:23.000Z</time>
      </trkpt>
      <trkpt lat="40.88344" lon="20.17696">
        <ele>216.42999267578</ele>
        <time>2024-09-26T12:15:24.000Z</time>
      </trkpt>
      <trkpt lat="40.88356" lon="20.17722">
        <ele>215.94999694824</ele>
        <time>2024-09-26T12:15:25.000Z</time>
      </trkpt>
      <trkpt lat="40.88358" lon="20.17728">
        <ele>215.4700012207</ele>
        <time>2024-09-26T12:15:26.000Z</time>
      </trkpt>
      <trkpt lat="40.88363" lon="20.17744">
        <ele>214.99000549316</ele>
        <time>2024-09-26T12:15:27.000Z</time>
      </trkpt>
      <trkpt lat="40.88366" lon="20.1776">
        <ele>214.50999450684</ele>
        <time>2024-09-26T12:15:28.000Z</time>
      </trkpt>
      <trkpt lat="40.88367" lon="20.17776">
        <ele>213.55000305176</ele>
        <time>2024-09-26T12:15:29.000Z</time>
      </trkpt>
      <trkpt lat="40.88366" lon="20.17792">
        <ele>212.11000061035</ele>
        <time>2024-09-26T12:15:30.000Z</time>
      </trkpt>
      <trkpt lat="40.88363" lon="20.17808">
        <ele>211.14999389648</ele>
        <time>2024-09-26T12:15:31.000Z</time>
      </trkpt>
      <trkpt lat="40.88358" lon="20.17823">
        <ele>210.19000244141</ele>
        <time>2024-09-26T12:15:32.000Z</time>
      </trkpt>
      <trkpt lat="40.88351" lon="20.17838">
        <ele>209.2200012207</ele>
        <time>2024-09-26T12:15:33.000Z</time>
      </trkpt>
      <trkpt lat="40.88328" lon="20.17885">
        <ele>205.86000061035</ele>
        <time>2024-09-26T12:15:36.000Z</time>
      </trkpt>
      <trkpt lat="40.88308" lon="20.17919">
        <ele>203.94000244141</ele>
        <time>2024-09-26T12:15:39.000Z</time>
      </trkpt>
      <trkpt lat="40.88279" lon="20.17959">
        <ele>204.89999389648</ele>
        <time>2024-09-26T12:15:42.000Z</time>
      </trkpt>
      <trkpt lat="40.88276" lon="20.17962">
        <ele>205.38000488281</ele>
        <time>2024-09-26T12:15:43.000Z</time>
      </trkpt>
      <trkpt lat="40.8827" lon="20.17973">
        <ele>205.38000488281</ele>
        <time>2024-09-26T12:15:44.000Z</time>
      </trkpt>
      <trkpt lat="40.88239" lon="20.1805">
        <ele>206.82000732422</ele>
        <time>2024-09-26T12:15:48.000Z</time>
      </trkpt>
      <trkpt lat="40.88238" lon="20.18053">
        <ele>206.82000732422</ele>
        <time>2024-09-26T12:15:49.000Z</time>
      </trkpt>
      <trkpt lat="40.88231" lon="20.18067">
        <ele>207.30000305176</ele>
        <time>2024-09-26T12:15:50.000Z</time>
      </trkpt>
      <trkpt lat="40.88222" lon="20.18079">
        <ele>207.7799987793</ele>
        <time>2024-09-26T12:15:51.000Z</time>
      </trkpt>
      <trkpt lat="40.88116" lon="20.18185">
        <ele>204.41999816895</ele>
        <time>2024-09-26T12:16:02.000Z</time>
      </trkpt>
      <trkpt lat="40.88103" lon="20.18196">
        <ele>204.41999816895</ele>
        <time>2024-09-26T12:16:03.000Z</time>
      </trkpt>
      <trkpt lat="40.88096" lon="20.18203">
        <ele>203.94000244141</ele>
        <time>2024-09-26T12:16:04.000Z</time>
      </trkpt>
      <trkpt lat="40.88087" lon="20.18213">
        <ele>203.94000244141</ele>
        <time>2024-09-26T12:16:05.000Z</time>
      </trkpt>
      <trkpt lat="40.88078" lon="20.18227">
        <ele>203.46000671387</ele>
        <time>2024-09-26T12:16:06.000Z</time>
      </trkpt>
      <trkpt lat="40.88053" lon="20.18278">
        <ele>202.97999572754</ele>
        <time>2024-09-26T12:16:09.000Z</time>
      </trkpt>
      <trkpt lat="40.88049" lon="20.18285">
        <ele>202.97999572754</ele>
        <time>2024-09-26T12:16:10.000Z</time>
      </trkpt>
      <trkpt lat="40.88041" lon="20.18297">
        <ele>202.97999572754</ele>
        <time>2024-09-26T12:16:11.000Z</time>
      </trkpt>
      <trkpt lat="40.8794" lon="20.18416">
        <ele>202.49000549316</ele>
        <time>2024-09-26T12:16:21.000Z</time>
      </trkpt>
      <trkpt lat="40.87913" lon="20.18443">
        <ele>202.49000549316</ele>
        <time>2024-09-26T12:16:24.000Z</time>
      </trkpt>
      <trkpt lat="40.87903" lon="20.18452">
        <ele>202.97999572754</ele>
        <time>2024-09-26T12:16:25.000Z</time>
      </trkpt>
      <trkpt lat="40.8789" lon="20.18461">
        <ele>203.46000671387</ele>
        <time>2024-09-26T12:16:26.000Z</time>
      </trkpt>
      <trkpt lat="40.8785" lon="20.18482">
        <ele>203.94000244141</ele>
        <time>2024-09-26T12:16:29.000Z</time>
      </trkpt>
      <trkpt lat="40.87734" lon="20.18507">
        <ele>207.30000305176</ele>
        <time>2024-09-26T12:16:38.000Z</time>
      </trkpt>
      <trkpt lat="40.87626" lon="20.18528">
        <ele>205.86000061035</ele>
        <time>2024-09-26T12:16:46.000Z</time>
      </trkpt>
      <trkpt lat="40.87605" lon="20.18532">
        <ele>205.38000488281</ele>
        <time>2024-09-26T12:16:48.000Z</time>
      </trkpt>
      <trkpt lat="40.87597" lon="20.18533">
        <ele>204.89999389648</ele>
        <time>2024-09-26T12:16:49.000Z</time>
      </trkpt>
      <trkpt lat="40.87585" lon="20.18532">
        <ele>204.89999389648</ele>
        <time>2024-09-26T12:16:50.000Z</time>
      </trkpt>
      <trkpt lat="40.87572" lon="20.18528">
        <ele>204.41999816895</ele>
        <time>2024-09-26T12:16:51.000Z</time>
      </trkpt>
      <trkpt lat="40.87493" lon="20.18497">
        <ele>202.00999450684</ele>
        <time>2024-09-26T12:16:58.000Z</time>
      </trkpt>
      <trkpt lat="40.87465" lon="20.1849">
        <ele>201.05000305176</ele>
        <time>2024-09-26T12:17:00.000Z</time>
      </trkpt>
      <trkpt lat="40.87417" lon="20.18481">
        <ele>200.08999633789</ele>
        <time>2024-09-26T12:17:04.000Z</time>
      </trkpt>
      <trkpt lat="40.87377" lon="20.18475">
        <ele>200.08999633789</ele>
        <time>2024-09-26T12:17:07.000Z</time>
      </trkpt>
      <trkpt lat="40.87366" lon="20.18474">
        <ele>200.08999633789</ele>
        <time>2024-09-26T12:17:08.000Z</time>
      </trkpt>
      <trkpt lat="40.87253" lon="20.18465">
        <ele>200.57000732422</ele>
        <time>2024-09-26T12:17:17.000Z</time>
      </trkpt>
      <trkpt lat="40.8724" lon="20.18464">
        <ele>201.05000305176</ele>
        <time>2024-09-26T12:17:19.000Z</time>
      </trkpt>
      <trkpt lat="40.87234" lon="20.18464">
        <ele>201.5299987793</ele>
        <time>2024-09-26T12:17:20.000Z</time>
      </trkpt>
      <trkpt lat="40.87215" lon="20.18464">
        <ele>202.49000549316</ele>
        <time>2024-09-26T12:17:22.000Z</time>
      </trkpt>
      <trkpt lat="40.87212" lon="20.18464">
        <ele>202.49000549316</ele>
        <time>2024-09-26T12:17:23.000Z</time>
      </trkpt>
      <trkpt lat="40.87205" lon="20.18464">
        <ele>202.49000549316</ele>
        <time>2024-09-26T12:17:24.000Z</time>
      </trkpt>
      <trkpt lat="40.87194" lon="20.18462">
        <ele>202.97999572754</ele>
        <time>2024-09-26T12:17:25.000Z</time>
      </trkpt>
      <trkpt lat="40.87188" lon="20.18461">
        <ele>202.97999572754</ele>
        <time>2024-09-26T12:17:26.000Z</time>
      </trkpt>
      <trkpt lat="40.87178" lon="20.18457">
        <ele>203.46000671387</ele>
        <time>2024-09-26T12:17:27.000Z</time>
      </trkpt>
      <trkpt lat="40.87176" lon="20.18457">
        <ele>203.46000671387</ele>
        <time>2024-09-26T12:17:28.000Z</time>
      </trkpt>
      <trkpt lat="40.87168" lon="20.18455">
        <ele>203.46000671387</ele>
        <time>2024-09-26T12:17:29.000Z</time>
      </trkpt>
      <trkpt lat="40.87161" lon="20.18454">
        <ele>203.94000244141</ele>
        <time>2024-09-26T12:17:30.000Z</time>
      </trkpt>
      <trkpt lat="40.87152" lon="20.18454">
        <ele>203.94000244141</ele>
        <time>2024-09-26T12:17:31.000Z</time>
      </trkpt>
      <trkpt lat="40.87137" lon="20.18452">
        <ele>203.94000244141</ele>
        <time>2024-09-26T12:17:32.000Z</time>
      </trkpt>
      <trkpt lat="40.87136" lon="20.18452">
        <ele>204.41999816895</ele>
        <time>2024-09-26T12:17:33.000Z</time>
      </trkpt>
      <trkpt lat="40.87128" lon="20.18451">
        <ele>204.41999816895</ele>
        <time>2024-09-26T12:17:34.000Z</time>
      </trkpt>
      <trkpt lat="40.871" lon="20.18449">
        <ele>205.38000488281</ele>
        <time>2024-09-26T12:17:37.000Z</time>
      </trkpt>
      <trkpt lat="40.87079" lon="20.18448">
        <ele>205.38000488281</ele>
        <time>2024-09-26T12:17:40.000Z</time>
      </trkpt>
      <trkpt lat="40.8707" lon="20.18448">
        <ele>205.86000061035</ele>
        <time>2024-09-26T12:17:41.000Z</time>
      </trkpt>
      <trkpt lat="40.87059" lon="20.18447">
        <ele>205.38000488281</ele>
        <time>2024-09-26T12:17:42.000Z</time>
      </trkpt>
      <trkpt lat="40.8705" lon="20.18446">
        <ele>205.38000488281</ele>
        <time>2024-09-26T12:17:43.000Z</time>
      </trkpt>
      <trkpt lat="40.87048" lon="20.18445">
        <ele>205.38000488281</ele>
        <time>2024-09-26T12:17:44.000Z</time>
      </trkpt>
      <trkpt lat="40.87039" lon="20.18444">
        <ele>205.86000061035</ele>
        <time>2024-09-26T12:17:45.000Z</time>
      </trkpt>
      <trkpt lat="40.87033" lon="20.18444">
        <ele>205.86000061035</ele>
        <time>2024-09-26T12:17:46.000Z</time>
      </trkpt>
      <trkpt lat="40.87023" lon="20.18444">
        <ele>205.86000061035</ele>
        <time>2024-09-26T12:17:47.000Z</time>
      </trkpt>
      <trkpt lat="40.87018" lon="20.18443">
        <ele>205.86000061035</ele>
        <time>2024-09-26T12:17:48.000Z</time>
      </trkpt>
      <trkpt lat="40.86984" lon="20.1844">
        <ele>207.30000305176</ele>
        <time>2024-09-26T12:17:52.000Z</time>
      </trkpt>
      <trkpt lat="40.86983" lon="20.1844">
        <ele>207.30000305176</ele>
        <time>2024-09-26T12:17:53.000Z</time>
      </trkpt>
      <trkpt lat="40.86973" lon="20.18439">
        <ele>207.30000305176</ele>
        <time>2024-09-26T12:17:54.000Z</time>
      </trkpt>
      <trkpt lat="40.86957" lon="20.18438">
        <ele>208.25999450684</ele>
        <time>2024-09-26T12:17:56.000Z</time>
      </trkpt>
      <trkpt lat="40.8695" lon="20.18438">
        <ele>208.25999450684</ele>
        <time>2024-09-26T12:17:57.000Z</time>
      </trkpt>
      <trkpt lat="40.86942" lon="20.18438">
        <ele>208.74000549316</ele>
        <time>2024-09-26T12:17:58.000Z</time>
      </trkpt>
      <trkpt lat="40.86912" lon="20.18436">
        <ele>210.66999816895</ele>
        <time>2024-09-26T12:18:02.000Z</time>
      </trkpt>
      <trkpt lat="40.86894" lon="20.18435">
        <ele>212.11000061035</ele>
        <time>2024-09-26T12:18:04.000Z</time>
      </trkpt>
      <trkpt lat="40.86888" lon="20.18435">
        <ele>212.11000061035</ele>
        <time>2024-09-26T12:18:05.000Z</time>
      </trkpt>
      <trkpt lat="40.86875" lon="20.18433">
        <ele>212.58999633789</ele>
        <time>2024-09-26T12:18:07.000Z</time>
      </trkpt>
      <trkpt lat="40.86842" lon="20.1843">
        <ele>212.11000061035</ele>
        <time>2024-09-26T12:18:12.000Z</time>
      </trkpt>
      <trkpt lat="40.86832" lon="20.1843">
        <ele>211.63000488281</ele>
        <time>2024-09-26T12:18:14.000Z</time>
      </trkpt>
      <trkpt lat="40.86814" lon="20.18429">
        <ele>211.63000488281</ele>
        <time>2024-09-26T12:18:21.000Z</time>
      </trkpt>
      <trkpt lat="40.8681" lon="20.18429">
        <ele>211.63000488281</ele>
        <time>2024-09-26T12:18:22.000Z</time>
      </trkpt>
      <trkpt lat="40.86806" lon="20.18429">
        <ele>211.63000488281</ele>
        <time>2024-09-26T12:18:23.000Z</time>
      </trkpt>
      <trkpt lat="40.86801" lon="20.18429">
        <ele>211.63000488281</ele>
        <time>2024-09-26T12:18:24.000Z</time>
      </trkpt>
      <trkpt lat="40.86791" lon="20.18429">
        <ele>211.63000488281</ele>
        <time>2024-09-26T12:18:25.000Z</time>
      </trkpt>
      <trkpt lat="40.86789" lon="20.18429">
        <ele>211.63000488281</ele>
        <time>2024-09-26T12:18:26.000Z</time>
      </trkpt>
      <trkpt lat="40.86779" lon="20.18429">
        <ele>211.63000488281</ele>
        <time>2024-09-26T12:18:27.000Z</time>
      </trkpt>
      <trkpt lat="40.86775" lon="20.18428">
        <ele>211.63000488281</ele>
        <time>2024-09-26T12:18:28.000Z</time>
      </trkpt>
      <trkpt lat="40.86763" lon="20.18428">
        <ele>211.63000488281</ele>
        <time>2024-09-26T12:18:29.000Z</time>
      </trkpt>
      <trkpt lat="40.86757" lon="20.18427">
        <ele>211.63000488281</ele>
        <time>2024-09-26T12:18:30.000Z</time>
      </trkpt>
      <trkpt lat="40.86752" lon="20.18427">
        <ele>211.63000488281</ele>
        <time>2024-09-26T12:18:31.000Z</time>
      </trkpt>
      <trkpt lat="40.86692" lon="20.18424">
        <ele>210.66999816895</ele>
        <time>2024-09-26T12:18:38.000Z</time>
      </trkpt>
      <trkpt lat="40.86673" lon="20.18423">
        <ele>210.66999816895</ele>
        <time>2024-09-26T12:18:41.000Z</time>
      </trkpt>
      <trkpt lat="40.86659" lon="20.18423">
        <ele>211.63000488281</ele>
        <time>2024-09-26T12:18:43.000Z</time>
      </trkpt>
      <trkpt lat="40.86648" lon="20.18424">
        <ele>212.11000061035</ele>
        <time>2024-09-26T12:18:44.000Z</time>
      </trkpt>
      <trkpt lat="40.86643" lon="20.18424">
        <ele>212.58999633789</ele>
        <time>2024-09-26T12:18:45.000Z</time>
      </trkpt>
      <trkpt lat="40.86631" lon="20.18425">
        <ele>213.07000732422</ele>
        <time>2024-09-26T12:18:46.000Z</time>
      </trkpt>
      <trkpt lat="40.86628" lon="20.18425">
        <ele>213.07000732422</ele>
        <time>2024-09-26T12:18:47.000Z</time>
      </trkpt>
      <trkpt lat="40.86619" lon="20.18426">
        <ele>213.55000305176</ele>
        <time>2024-09-26T12:18:48.000Z</time>
      </trkpt>
      <trkpt lat="40.86612" lon="20.18427">
        <ele>213.55000305176</ele>
        <time>2024-09-26T12:18:49.000Z</time>
      </trkpt>
      <trkpt lat="40.86604" lon="20.1843">
        <ele>214.0299987793</ele>
        <time>2024-09-26T12:18:50.000Z</time>
      </trkpt>
      <trkpt lat="40.86596" lon="20.18434">
        <ele>214.0299987793</ele>
        <time>2024-09-26T12:18:51.000Z</time>
      </trkpt>
      <trkpt lat="40.86586" lon="20.18441">
        <ele>214.0299987793</ele>
        <time>2024-09-26T12:18:52.000Z</time>
      </trkpt>
      <trkpt lat="40.86579" lon="20.18445">
        <ele>214.50999450684</ele>
        <time>2024-09-26T12:18:53.000Z</time>
      </trkpt>
      <trkpt lat="40.86575" lon="20.18449">
        <ele>214.50999450684</ele>
        <time>2024-09-26T12:18:54.000Z</time>
      </trkpt>
      <trkpt lat="40.86567" lon="20.18456">
        <ele>214.99000549316</ele>
        <time>2024-09-26T12:18:55.000Z</time>
      </trkpt>
      <trkpt lat="40.86563" lon="20.18459">
        <ele>214.99000549316</ele>
        <time>2024-09-26T12:18:56.000Z</time>
      </trkpt>
      <trkpt lat="40.86558" lon="20.18465">
        <ele>215.4700012207</ele>
        <time>2024-09-26T12:18:57.000Z</time>
      </trkpt>
      <trkpt lat="40.86552" lon="20.18472">
        <ele>215.4700012207</ele>
        <time>2024-09-26T12:18:58.000Z</time>
      </trkpt>
      <trkpt lat="40.86547" lon="20.18479">
        <ele>215.94999694824</ele>
        <time>2024-09-26T12:18:59.000Z</time>
      </trkpt>
      <trkpt lat="40.86542" lon="20.18487">
        <ele>215.94999694824</ele>
        <time>2024-09-26T12:19:00.000Z</time>
      </trkpt>
      <trkpt lat="40.86535" lon="20.185">
        <ele>215.94999694824</ele>
        <time>2024-09-26T12:19:01.000Z</time>
      </trkpt>
      <trkpt lat="40.86531" lon="20.18509">
        <ele>215.4700012207</ele>
        <time>2024-09-26T12:19:02.000Z</time>
      </trkpt>
      <trkpt lat="40.86528" lon="20.18514">
        <ele>215.4700012207</ele>
        <time>2024-09-26T12:19:03.000Z</time>
      </trkpt>
      <trkpt lat="40.86523" lon="20.18523">
        <ele>215.4700012207</ele>
        <time>2024-09-26T12:19:04.000Z</time>
      </trkpt>
      <trkpt lat="40.86515" lon="20.18538">
        <ele>214.99000549316</ele>
        <time>2024-09-26T12:19:05.000Z</time>
      </trkpt>
      <trkpt lat="40.86509" lon="20.18549">
        <ele>214.99000549316</ele>
        <time>2024-09-26T12:19:07.000Z</time>
      </trkpt>
      <trkpt lat="40.86504" lon="20.18559">
        <ele>214.99000549316</ele>
        <time>2024-09-26T12:19:08.000Z</time>
      </trkpt>
      <trkpt lat="40.86492" lon="20.18577">
        <ele>214.99000549316</ele>
        <time>2024-09-26T12:19:10.000Z</time>
      </trkpt>
      <trkpt lat="40.86489" lon="20.18582">
        <ele>214.50999450684</ele>
        <time>2024-09-26T12:19:11.000Z</time>
      </trkpt>
      <trkpt lat="40.86478" lon="20.18599">
        <ele>214.50999450684</ele>
        <time>2024-09-26T12:19:13.000Z</time>
      </trkpt>
      <trkpt lat="40.86473" lon="20.18604">
        <ele>214.99000549316</ele>
        <time>2024-09-26T12:19:14.000Z</time>
      </trkpt>
      <trkpt lat="40.86466" lon="20.18611">
        <ele>215.4700012207</ele>
        <time>2024-09-26T12:19:15.000Z</time>
      </trkpt>
      <trkpt lat="40.86459" lon="20.18618">
        <ele>215.94999694824</ele>
        <time>2024-09-26T12:19:16.000Z</time>
      </trkpt>
      <trkpt lat="40.86452" lon="20.18624">
        <ele>215.94999694824</ele>
        <time>2024-09-26T12:19:17.000Z</time>
      </trkpt>
      <trkpt lat="40.86447" lon="20.18628">
        <ele>216.42999267578</ele>
        <time>2024-09-26T12:19:18.000Z</time>
      </trkpt>
      <trkpt lat="40.86431" lon="20.18641">
        <ele>216.91000366211</ele>
        <time>2024-09-26T12:19:20.000Z</time>
      </trkpt>
      <trkpt lat="40.86427" lon="20.18644">
        <ele>216.91000366211</ele>
        <time>2024-09-26T12:19:21.000Z</time>
      </trkpt>
      <trkpt lat="40.86421" lon="20.18648">
        <ele>216.91000366211</ele>
        <time>2024-09-26T12:19:22.000Z</time>
      </trkpt>
      <trkpt lat="40.86386" lon="20.18669">
        <ele>217.88000488281</ele>
        <time>2024-09-26T12:19:27.000Z</time>
      </trkpt>
      <trkpt lat="40.86378" lon="20.18672">
        <ele>218.36000061035</ele>
        <time>2024-09-26T12:19:28.000Z</time>
      </trkpt>
      <trkpt lat="40.86369" lon="20.18677">
        <ele>218.36000061035</ele>
        <time>2024-09-26T12:19:29.000Z</time>
      </trkpt>
      <trkpt lat="40.86357" lon="20.18683">
        <ele>218.83999633789</ele>
        <time>2024-09-26T12:19:30.000Z</time>
      </trkpt>
      <trkpt lat="40.86336" lon="20.18692">
        <ele>219.80000305176</ele>
        <time>2024-09-26T12:19:33.000Z</time>
      </trkpt>
      <trkpt lat="40.86325" lon="20.18696">
        <ele>220.2799987793</ele>
        <time>2024-09-26T12:19:34.000Z</time>
      </trkpt>
      <trkpt lat="40.86274" lon="20.18711">
        <ele>222.67999267578</ele>
        <time>2024-09-26T12:19:39.000Z</time>
      </trkpt>
      <trkpt lat="40.86255" lon="20.18716">
        <ele>224.11999511719</ele>
        <time>2024-09-26T12:19:41.000Z</time>
      </trkpt>
      <trkpt lat="40.86148" lon="20.18727">
        <ele>229.41000366211</ele>
        <time>2024-09-26T12:19:53.000Z</time>
      </trkpt>
      <trkpt lat="40.86139" lon="20.18729">
        <ele>230.36999511719</ele>
        <time>2024-09-26T12:19:54.000Z</time>
      </trkpt>
      <trkpt lat="40.86131" lon="20.18731">
        <ele>230.85000610352</ele>
        <time>2024-09-26T12:19:55.000Z</time>
      </trkpt>
      <trkpt lat="40.86123" lon="20.18736">
        <ele>231.80999755859</ele>
        <time>2024-09-26T12:19:56.000Z</time>
      </trkpt>
      <trkpt lat="40.86118" lon="20.18743">
        <ele>232.30000305176</ele>
        <time>2024-09-26T12:19:57.000Z</time>
      </trkpt>
      <trkpt lat="40.86115" lon="20.18752">
        <ele>232.7799987793</ele>
        <time>2024-09-26T12:19:58.000Z</time>
      </trkpt>
      <trkpt lat="40.86114" lon="20.18763">
        <ele>233.25999450684</ele>
        <time>2024-09-26T12:19:59.000Z</time>
      </trkpt>
      <trkpt lat="40.86118" lon="20.18819">
        <ele>234.69999694824</ele>
        <time>2024-09-26T12:20:03.000Z</time>
      </trkpt>
      <trkpt lat="40.86119" lon="20.18824">
        <ele>234.69999694824</ele>
        <time>2024-09-26T12:20:04.000Z</time>
      </trkpt>
      <trkpt lat="40.8612" lon="20.18836">
        <ele>234.2200012207</ele>
        <time>2024-09-26T12:20:05.000Z</time>
      </trkpt>
      <trkpt lat="40.8612" lon="20.18843">
        <ele>234.2200012207</ele>
        <time>2024-09-26T12:20:06.000Z</time>
      </trkpt>
      <trkpt lat="40.86119" lon="20.18854">
        <ele>233.74000549316</ele>
        <time>2024-09-26T12:20:07.000Z</time>
      </trkpt>
      <trkpt lat="40.86118" lon="20.18865">
        <ele>233.25999450684</ele>
        <time>2024-09-26T12:20:08.000Z</time>
      </trkpt>
      <trkpt lat="40.86113" lon="20.18876">
        <ele>232.30000305176</ele>
        <time>2024-09-26T12:20:09.000Z</time>
      </trkpt>
      <trkpt lat="40.86108" lon="20.18885">
        <ele>231.80999755859</ele>
        <time>2024-09-26T12:20:10.000Z</time>
      </trkpt>
      <trkpt lat="40.861" lon="20.18892">
        <ele>231.33000183105</ele>
        <time>2024-09-26T12:20:11.000Z</time>
      </trkpt>
      <trkpt lat="40.86093" lon="20.18898">
        <ele>230.85000610352</ele>
        <time>2024-09-26T12:20:12.000Z</time>
      </trkpt>
      <trkpt lat="40.86085" lon="20.18901">
        <ele>230.36999511719</ele>
        <time>2024-09-26T12:20:13.000Z</time>
      </trkpt>
      <trkpt lat="40.86078" lon="20.189">
        <ele>229.88999938965</ele>
        <time>2024-09-26T12:20:14.000Z</time>
      </trkpt>
      <trkpt lat="40.86073" lon="20.18893">
        <ele>229.88999938965</ele>
        <time>2024-09-26T12:20:15.000Z</time>
      </trkpt>
      <trkpt lat="40.8607" lon="20.18884">
        <ele>229.88999938965</ele>
        <time>2024-09-26T12:20:16.000Z</time>
      </trkpt>
      <trkpt lat="40.86067" lon="20.18872">
        <ele>229.88999938965</ele>
        <time>2024-09-26T12:20:17.000Z</time>
      </trkpt>
      <trkpt lat="40.86066" lon="20.18861">
        <ele>230.36999511719</ele>
        <time>2024-09-26T12:20:18.000Z</time>
      </trkpt>
      <trkpt lat="40.86064" lon="20.18847">
        <ele>230.85000610352</ele>
        <time>2024-09-26T12:20:19.000Z</time>
      </trkpt>
      <trkpt lat="40.86061" lon="20.18838">
        <ele>231.33000183105</ele>
        <time>2024-09-26T12:20:20.000Z</time>
      </trkpt>
      <trkpt lat="40.86056" lon="20.18828">
        <ele>231.80999755859</ele>
        <time>2024-09-26T12:20:21.000Z</time>
      </trkpt>
      <trkpt lat="40.86051" lon="20.18818">
        <ele>232.7799987793</ele>
        <time>2024-09-26T12:20:22.000Z</time>
      </trkpt>
      <trkpt lat="40.86044" lon="20.18809">
        <ele>232.7799987793</ele>
        <time>2024-09-26T12:20:23.000Z</time>
      </trkpt>
      <trkpt lat="40.86036" lon="20.18802">
        <ele>232.7799987793</ele>
        <time>2024-09-26T12:20:24.000Z</time>
      </trkpt>
      <trkpt lat="40.86026" lon="20.18798">
        <ele>232.7799987793</ele>
        <time>2024-09-26T12:20:25.000Z</time>
      </trkpt>
      <trkpt lat="40.86016" lon="20.18796">
        <ele>233.25999450684</ele>
        <time>2024-09-26T12:20:26.000Z</time>
      </trkpt>
      <trkpt lat="40.86006" lon="20.18797">
        <ele>233.25999450684</ele>
        <time>2024-09-26T12:20:27.000Z</time>
      </trkpt>
      <trkpt lat="40.85927" lon="20.18811">
        <ele>234.2200012207</ele>
        <time>2024-09-26T12:20:34.000Z</time>
      </trkpt>
      <trkpt lat="40.85922" lon="20.18812">
        <ele>234.69999694824</ele>
        <time>2024-09-26T12:20:35.000Z</time>
      </trkpt>
      <trkpt lat="40.85913" lon="20.18815">
        <ele>234.69999694824</ele>
        <time>2024-09-26T12:20:36.000Z</time>
      </trkpt>
      <trkpt lat="40.85905" lon="20.1882">
        <ele>235.17999267578</ele>
        <time>2024-09-26T12:20:37.000Z</time>
      </trkpt>
      <trkpt lat="40.85887" lon="20.18833">
        <ele>235.66000366211</ele>
        <time>2024-09-26T12:20:39.000Z</time>
      </trkpt>
      <trkpt lat="40.85881" lon="20.18836">
        <ele>235.66000366211</ele>
        <time>2024-09-26T12:20:40.000Z</time>
      </trkpt>
      <trkpt lat="40.85872" lon="20.18839">
        <ele>235.66000366211</ele>
        <time>2024-09-26T12:20:41.000Z</time>
      </trkpt>
      <trkpt lat="40.85854" lon="20.18841">
        <ele>236.13999938965</ele>
        <time>2024-09-26T12:20:42.000Z</time>
      </trkpt>
      <trkpt lat="40.85844" lon="20.18842">
        <ele>236.13999938965</ele>
        <time>2024-09-26T12:20:43.000Z</time>
      </trkpt>
      <trkpt lat="40.85841" lon="20.18841">
        <ele>236.13999938965</ele>
        <time>2024-09-26T12:20:44.000Z</time>
      </trkpt>
      <trkpt lat="40.85832" lon="20.1884">
        <ele>236.13999938965</ele>
        <time>2024-09-26T12:20:45.000Z</time>
      </trkpt>
      <trkpt lat="40.85819" lon="20.18836">
        <ele>236.61999511719</ele>
        <time>2024-09-26T12:20:46.000Z</time>
      </trkpt>
      <trkpt lat="40.85813" lon="20.18834">
        <ele>236.61999511719</ele>
        <time>2024-09-26T12:20:47.000Z</time>
      </trkpt>
      <trkpt lat="40.85803" lon="20.18834">
        <ele>237.10000610352</ele>
        <time>2024-09-26T12:20:48.000Z</time>
      </trkpt>
      <trkpt lat="40.85785" lon="20.18839">
        <ele>238.05999755859</ele>
        <time>2024-09-26T12:20:50.000Z</time>
      </trkpt>
      <trkpt lat="40.85774" lon="20.18843">
        <ele>238.05999755859</ele>
        <time>2024-09-26T12:20:51.000Z</time>
      </trkpt>
      <trkpt lat="40.85727" lon="20.18868">
        <ele>240.94999694824</ele>
        <time>2024-09-26T12:20:55.000Z</time>
      </trkpt>
      <trkpt lat="40.85692" lon="20.18885">
        <ele>242.86999511719</ele>
        <time>2024-09-26T12:20:59.000Z</time>
      </trkpt>
      <trkpt lat="40.85683" lon="20.18891">
        <ele>243.35000610352</ele>
        <time>2024-09-26T12:21:00.000Z</time>
      </trkpt>
      <trkpt lat="40.85666" lon="20.18902">
        <ele>244.30999755859</ele>
        <time>2024-09-26T12:21:02.000Z</time>
      </trkpt>
      <trkpt lat="40.85653" lon="20.18913">
        <ele>244.78999328613</ele>
        <time>2024-09-26T12:21:03.000Z</time>
      </trkpt>
      <trkpt lat="40.85646" lon="20.1892">
        <ele>245.27000427246</ele>
        <time>2024-09-26T12:21:04.000Z</time>
      </trkpt>
      <trkpt lat="40.85609" lon="20.18962">
        <ele>247.67999267578</ele>
        <time>2024-09-26T12:21:09.000Z</time>
      </trkpt>
      <trkpt lat="40.85592" lon="20.18982">
        <ele>248.16000366211</ele>
        <time>2024-09-26T12:21:11.000Z</time>
      </trkpt>
      <trkpt lat="40.85585" lon="20.1899">
        <ele>248.63999938965</ele>
        <time>2024-09-26T12:21:12.000Z</time>
      </trkpt>
      <trkpt lat="40.85578" lon="20.18996">
        <ele>248.63999938965</ele>
        <time>2024-09-26T12:21:13.000Z</time>
      </trkpt>
      <trkpt lat="40.85559" lon="20.19012">
        <ele>248.16000366211</ele>
        <time>2024-09-26T12:21:15.000Z</time>
      </trkpt>
      <trkpt lat="40.85554" lon="20.19016">
        <ele>248.16000366211</ele>
        <time>2024-09-26T12:21:16.000Z</time>
      </trkpt>
      <trkpt lat="40.85543" lon="20.19019">
        <ele>247.67999267578</ele>
        <time>2024-09-26T12:21:17.000Z</time>
      </trkpt>
      <trkpt lat="40.85502" lon="20.19023">
        <ele>245.75</ele>
        <time>2024-09-26T12:21:20.000Z</time>
      </trkpt>
      <trkpt lat="40.855" lon="20.19023">
        <ele>245.27000427246</ele>
        <time>2024-09-26T12:21:21.000Z</time>
      </trkpt>
      <trkpt lat="40.8549" lon="20.19022">
        <ele>244.78999328613</ele>
        <time>2024-09-26T12:21:22.000Z</time>
      </trkpt>
      <trkpt lat="40.85481" lon="20.19017">
        <ele>244.78999328613</ele>
        <time>2024-09-26T12:21:23.000Z</time>
      </trkpt>
      <trkpt lat="40.85474" lon="20.19009">
        <ele>243.83000183105</ele>
        <time>2024-09-26T12:21:24.000Z</time>
      </trkpt>
      <trkpt lat="40.85472" lon="20.18999">
        <ele>243.35000610352</ele>
        <time>2024-09-26T12:21:25.000Z</time>
      </trkpt>
      <trkpt lat="40.85474" lon="20.18989">
        <ele>242.38999938965</ele>
        <time>2024-09-26T12:21:26.000Z</time>
      </trkpt>
      <trkpt lat="40.85478" lon="20.18978">
        <ele>240.94999694824</ele>
        <time>2024-09-26T12:21:27.000Z</time>
      </trkpt>
      <trkpt lat="40.85481" lon="20.18966">
        <ele>240.4700012207</ele>
        <time>2024-09-26T12:21:28.000Z</time>
      </trkpt>
      <trkpt lat="40.85482" lon="20.18955">
        <ele>239.99000549316</ele>
        <time>2024-09-26T12:21:29.000Z</time>
      </trkpt>
      <trkpt lat="40.8548" lon="20.18943">
        <ele>239.50999450684</ele>
        <time>2024-09-26T12:21:30.000Z</time>
      </trkpt>
      <trkpt lat="40.85476" lon="20.18934">
        <ele>239.02000427246</ele>
        <time>2024-09-26T12:21:31.000Z</time>
      </trkpt>
      <trkpt lat="40.85469" lon="20.18926">
        <ele>238.53999328613</ele>
        <time>2024-09-26T12:21:32.000Z</time>
      </trkpt>
      <trkpt lat="40.85461" lon="20.18922">
        <ele>237.58000183105</ele>
        <time>2024-09-26T12:21:33.000Z</time>
      </trkpt>
      <trkpt lat="40.85452" lon="20.18922">
        <ele>237.10000610352</ele>
        <time>2024-09-26T12:21:34.000Z</time>
      </trkpt>
      <trkpt lat="40.85441" lon="20.18927">
        <ele>236.61999511719</ele>
        <time>2024-09-26T12:21:35.000Z</time>
      </trkpt>
      <trkpt lat="40.85429" lon="20.18934">
        <ele>235.66000366211</ele>
        <time>2024-09-26T12:21:36.000Z</time>
      </trkpt>
      <trkpt lat="40.85305" lon="20.18983">
        <ele>227.49000549316</ele>
        <time>2024-09-26T12:21:46.000Z</time>
      </trkpt>
      <trkpt lat="40.85277" lon="20.18994">
        <ele>226.05000305176</ele>
        <time>2024-09-26T12:21:49.000Z</time>
      </trkpt>
      <trkpt lat="40.85264" lon="20.18999">
        <ele>224.61000061035</ele>
        <time>2024-09-26T12:21:50.000Z</time>
      </trkpt>
      <trkpt lat="40.85242" lon="20.19013">
        <ele>223.16000366211</ele>
        <time>2024-09-26T12:21:51.000Z</time>
      </trkpt>
      <trkpt lat="40.8524" lon="20.19014">
        <ele>222.67999267578</ele>
        <time>2024-09-26T12:21:52.000Z</time>
      </trkpt>
      <trkpt lat="40.85226" lon="20.1902">
        <ele>221.7200012207</ele>
        <time>2024-09-26T12:21:53.000Z</time>
      </trkpt>
      <trkpt lat="40.85212" lon="20.19022">
        <ele>220.75999450684</ele>
        <time>2024-09-26T12:21:54.000Z</time>
      </trkpt>
      <trkpt lat="40.85117" lon="20.19008">
        <ele>216.42999267578</ele>
        <time>2024-09-26T12:22:00.000Z</time>
      </trkpt>
      <trkpt lat="40.85103" lon="20.19007">
        <ele>215.94999694824</ele>
        <time>2024-09-26T12:22:01.000Z</time>
      </trkpt>
      <trkpt lat="40.85027" lon="20.18987">
        <ele>210.66999816895</ele>
        <time>2024-09-26T12:22:07.000Z</time>
      </trkpt>
      <trkpt lat="40.85013" lon="20.1898">
        <ele>210.19000244141</ele>
        <time>2024-09-26T12:22:08.000Z</time>
      </trkpt>
      <trkpt lat="40.84874" lon="20.18877">
        <ele>204.89999389648</ele>
        <time>2024-09-26T12:22:19.000Z</time>
      </trkpt>
      <trkpt lat="40.84813" lon="20.18844">
        <ele>207.30000305176</ele>
        <time>2024-09-26T12:22:23.000Z</time>
      </trkpt>
      <trkpt lat="40.84806" lon="20.18841">
        <ele>207.7799987793</ele>
        <time>2024-09-26T12:22:24.000Z</time>
      </trkpt>
      <trkpt lat="40.84745" lon="20.18822">
        <ele>209.69999694824</ele>
        <time>2024-09-26T12:22:28.000Z</time>
      </trkpt>
      <trkpt lat="40.84696" lon="20.18799">
        <ele>211.63000488281</ele>
        <time>2024-09-26T12:22:32.000Z</time>
      </trkpt>
      <trkpt lat="40.84688" lon="20.18794">
        <ele>212.11000061035</ele>
        <time>2024-09-26T12:22:33.000Z</time>
      </trkpt>
      <trkpt lat="40.84677" lon="20.18785">
        <ele>212.58999633789</ele>
        <time>2024-09-26T12:22:34.000Z</time>
      </trkpt>
      <trkpt lat="40.84646" lon="20.1876">
        <ele>214.99000549316</ele>
        <time>2024-09-26T12:22:37.000Z</time>
      </trkpt>
      <trkpt lat="40.84636" lon="20.18754">
        <ele>215.94999694824</ele>
        <time>2024-09-26T12:22:38.000Z</time>
      </trkpt>
      <trkpt lat="40.84619" lon="20.18749">
        <ele>216.91000366211</ele>
        <time>2024-09-26T12:22:40.000Z</time>
      </trkpt>
      <trkpt lat="40.84593" lon="20.18739">
        <ele>217.88000488281</ele>
        <time>2024-09-26T12:22:43.000Z</time>
      </trkpt>
      <trkpt lat="40.84588" lon="20.18738">
        <ele>218.36000061035</ele>
        <time>2024-09-26T12:22:44.000Z</time>
      </trkpt>
      <trkpt lat="40.84583" lon="20.18737">
        <ele>218.36000061035</ele>
        <time>2024-09-26T12:22:45.000Z</time>
      </trkpt>
      <trkpt lat="40.84576" lon="20.18736">
        <ele>219.32000732422</ele>
        <time>2024-09-26T12:22:46.000Z</time>
      </trkpt>
      <trkpt lat="40.84571" lon="20.18735">
        <ele>219.80000305176</ele>
        <time>2024-09-26T12:22:47.000Z</time>
      </trkpt>
      <trkpt lat="40.84565" lon="20.18735">
        <ele>219.80000305176</ele>
        <time>2024-09-26T12:22:48.000Z</time>
      </trkpt>
      <trkpt lat="40.84532" lon="20.18732">
        <ele>220.75999450684</ele>
        <time>2024-09-26T12:22:58.000Z</time>
      </trkpt>
      <trkpt lat="40.84497" lon="20.18728">
        <ele>220.2799987793</ele>
        <time>2024-09-26T12:23:08.000Z</time>
      </trkpt>
      <trkpt lat="40.84491" lon="20.18728">
        <ele>219.80000305176</ele>
        <time>2024-09-26T12:23:09.000Z</time>
      </trkpt>
      <trkpt lat="40.84488" lon="20.18727">
        <ele>219.80000305176</ele>
        <time>2024-09-26T12:23:10.000Z</time>
      </trkpt>
      <trkpt lat="40.84484" lon="20.18726">
        <ele>219.32000732422</ele>
        <time>2024-09-26T12:23:11.000Z</time>
      </trkpt>
      <trkpt lat="40.84479" lon="20.18724">
        <ele>218.83999633789</ele>
        <time>2024-09-26T12:23:12.000Z</time>
      </trkpt>
      <trkpt lat="40.84474" lon="20.18721">
        <ele>218.36000061035</ele>
        <time>2024-09-26T12:23:13.000Z</time>
      </trkpt>
      <trkpt lat="40.84471" lon="20.18717">
        <ele>217.88000488281</ele>
        <time>2024-09-26T12:23:14.000Z</time>
      </trkpt>
      <trkpt lat="40.84465" lon="20.18709">
        <ele>217.39999389648</ele>
        <time>2024-09-26T12:23:15.000Z</time>
      </trkpt>
      <trkpt lat="40.8446" lon="20.18703">
        <ele>216.91000366211</ele>
        <time>2024-09-26T12:23:16.000Z</time>
      </trkpt>
      <trkpt lat="40.84456" lon="20.18698">
        <ele>216.42999267578</ele>
        <time>2024-09-26T12:23:17.000Z</time>
      </trkpt>
      <trkpt lat="40.8445" lon="20.18693">
        <ele>215.94999694824</ele>
        <time>2024-09-26T12:23:18.000Z</time>
      </trkpt>
      <trkpt lat="40.84445" lon="20.18687">
        <ele>215.4700012207</ele>
        <time>2024-09-26T12:23:19.000Z</time>
      </trkpt>
      <trkpt lat="40.84439" lon="20.18682">
        <ele>214.99000549316</ele>
        <time>2024-09-26T12:23:20.000Z</time>
      </trkpt>
      <trkpt lat="40.84432" lon="20.18678">
        <ele>214.50999450684</ele>
        <time>2024-09-26T12:23:21.000Z</time>
      </trkpt>
      <trkpt lat="40.84424" lon="20.18676">
        <ele>213.55000305176</ele>
        <time>2024-09-26T12:23:22.000Z</time>
      </trkpt>
      <trkpt lat="40.844" lon="20.1868">
        <ele>211.63000488281</ele>
        <time>2024-09-26T12:23:24.000Z</time>
      </trkpt>
      <trkpt lat="40.84395" lon="20.1868">
        <ele>211.14999389648</ele>
        <time>2024-09-26T12:23:25.000Z</time>
      </trkpt>
      <trkpt lat="40.84389" lon="20.18681">
        <ele>210.66999816895</ele>
        <time>2024-09-26T12:23:26.000Z</time>
      </trkpt>
      <trkpt lat="40.84381" lon="20.1868">
        <ele>209.69999694824</ele>
        <time>2024-09-26T12:23:27.000Z</time>
      </trkpt>
      <trkpt lat="40.84373" lon="20.18678">
        <ele>208.74000549316</ele>
        <time>2024-09-26T12:23:28.000Z</time>
      </trkpt>
      <trkpt lat="40.84366" lon="20.18674">
        <ele>207.7799987793</ele>
        <time>2024-09-26T12:23:29.000Z</time>
      </trkpt>
      <trkpt lat="40.84361" lon="20.18666">
        <ele>206.82000732422</ele>
        <time>2024-09-26T12:23:30.000Z</time>
      </trkpt>
      <trkpt lat="40.84303" lon="20.18553">
        <ele>204.89999389648</ele>
        <time>2024-09-26T12:23:41.000Z</time>
      </trkpt>
      <trkpt lat="40.84254" lon="20.18455">
        <ele>206.33999633789</ele>
        <time>2024-09-26T12:23:50.000Z</time>
      </trkpt>
      <trkpt lat="40.84218" lon="20.18385">
        <ele>202.97999572754</ele>
        <time>2024-09-26T12:23:56.000Z</time>
      </trkpt>
      <trkpt lat="40.84151" lon="20.1826">
        <ele>203.94000244141</ele>
        <time>2024-09-26T12:24:07.000Z</time>
      </trkpt>
      <trkpt lat="40.84137" lon="20.18235">
        <ele>204.89999389648</ele>
        <time>2024-09-26T12:24:09.000Z</time>
      </trkpt>
      <trkpt lat="40.84131" lon="20.18224">
        <ele>205.38000488281</ele>
        <time>2024-09-26T12:24:10.000Z</time>
      </trkpt>
      <trkpt lat="40.84128" lon="20.18219">
        <ele>205.38000488281</ele>
        <time>2024-09-26T12:24:11.000Z</time>
      </trkpt>
      <trkpt lat="40.84123" lon="20.18212">
        <ele>205.86000061035</ele>
        <time>2024-09-26T12:24:12.000Z</time>
      </trkpt>
      <trkpt lat="40.84116" lon="20.18204">
        <ele>206.33999633789</ele>
        <time>2024-09-26T12:24:13.000Z</time>
      </trkpt>
      <trkpt lat="40.84108" lon="20.18198">
        <ele>206.82000732422</ele>
        <time>2024-09-26T12:24:14.000Z</time>
      </trkpt>
      <trkpt lat="40.841" lon="20.18195">
        <ele>207.30000305176</ele>
        <time>2024-09-26T12:24:15.000Z</time>
      </trkpt>
      <trkpt lat="40.84092" lon="20.18194">
        <ele>207.7799987793</ele>
        <time>2024-09-26T12:24:16.000Z</time>
      </trkpt>
      <trkpt lat="40.84082" lon="20.18196">
        <ele>208.74000549316</ele>
        <time>2024-09-26T12:24:17.000Z</time>
      </trkpt>
      <trkpt lat="40.84078" lon="20.18196">
        <ele>208.74000549316</ele>
        <time>2024-09-26T12:24:18.000Z</time>
      </trkpt>
      <trkpt lat="40.8407" lon="20.18195">
        <ele>209.2200012207</ele>
        <time>2024-09-26T12:24:25.000Z</time>
      </trkpt>
      <trkpt lat="40.84072" lon="20.18194">
        <ele>208.25999450684</ele>
        <time>2024-09-26T12:26:42.000Z</time>
      </trkpt>
      <trkpt lat="40.84064" lon="20.18174">
        <ele>209.69999694824</ele>
        <time>2024-09-26T12:26:49.000Z</time>
      </trkpt>
      <trkpt lat="40.84066" lon="20.1817">
        <ele>209.69999694824</ele>
        <time>2024-09-26T12:26:50.000Z</time>
      </trkpt>
      <trkpt lat="40.8407" lon="20.18168">
        <ele>210.19000244141</ele>
        <time>2024-09-26T12:26:51.000Z</time>
      </trkpt>
      <trkpt lat="40.84074" lon="20.18166">
        <ele>210.66999816895</ele>
        <time>2024-09-26T12:26:52.000Z</time>
      </trkpt>
      <trkpt lat="40.84083" lon="20.18162">
        <ele>211.14999389648</ele>
        <time>2024-09-26T12:26:53.000Z</time>
      </trkpt>
      <trkpt lat="40.84087" lon="20.18161">
        <ele>212.11000061035</ele>
        <time>2024-09-26T12:26:54.000Z</time>
      </trkpt>
      <trkpt lat="40.84092" lon="20.18159">
        <ele>212.11000061035</ele>
        <time>2024-09-26T12:26:55.000Z</time>
      </trkpt>
      <trkpt lat="40.84099" lon="20.18156">
        <ele>213.07000732422</ele>
        <time>2024-09-26T12:26:56.000Z</time>
      </trkpt>
      <trkpt lat="40.84105" lon="20.18154">
        <ele>214.0299987793</ele>
        <time>2024-09-26T12:26:57.000Z</time>
      </trkpt>
      <trkpt lat="40.84111" lon="20.18153">
        <ele>214.50999450684</ele>
        <time>2024-09-26T12:26:58.000Z</time>
      </trkpt>
      <trkpt lat="40.84119" lon="20.18153">
        <ele>214.99000549316</ele>
        <time>2024-09-26T12:26:59.000Z</time>
      </trkpt>
      <trkpt lat="40.84125" lon="20.18154">
        <ele>215.94999694824</ele>
        <time>2024-09-26T12:27:00.000Z</time>
      </trkpt>
      <trkpt lat="40.84131" lon="20.18155">
        <ele>216.91000366211</ele>
        <time>2024-09-26T12:27:01.000Z</time>
      </trkpt>
      <trkpt lat="40.84136" lon="20.18154">
        <ele>216.91000366211</ele>
        <time>2024-09-26T12:27:02.000Z</time>
      </trkpt>
      <trkpt lat="40.8414" lon="20.18151">
        <ele>217.39999389648</ele>
        <time>2024-09-26T12:27:03.000Z</time>
      </trkpt>
      <trkpt lat="40.84143" lon="20.18145">
        <ele>217.88000488281</ele>
        <time>2024-09-26T12:27:04.000Z</time>
      </trkpt>
      <trkpt lat="40.84143" lon="20.1814">
        <ele>218.36000061035</ele>
        <time>2024-09-26T12:27:05.000Z</time>
      </trkpt>
      <trkpt lat="40.8414" lon="20.18135">
        <ele>218.36000061035</ele>
        <time>2024-09-26T12:27:06.000Z</time>
      </trkpt>
      <trkpt lat="40.84135" lon="20.18132">
        <ele>218.83999633789</ele>
        <time>2024-09-26T12:27:07.000Z</time>
      </trkpt>
      <trkpt lat="40.8413" lon="20.18131">
        <ele>219.32000732422</ele>
        <time>2024-09-26T12:27:08.000Z</time>
      </trkpt>
      <trkpt lat="40.84124" lon="20.18131">
        <ele>219.80000305176</ele>
        <time>2024-09-26T12:27:09.000Z</time>
      </trkpt>
      <trkpt lat="40.84119" lon="20.18132">
        <ele>220.2799987793</ele>
        <time>2024-09-26T12:27:10.000Z</time>
      </trkpt>
      <trkpt lat="40.84113" lon="20.18134">
        <ele>221.24000549316</ele>
        <time>2024-09-26T12:27:11.000Z</time>
      </trkpt>
      <trkpt lat="40.84107" lon="20.18134">
        <ele>221.7200012207</ele>
        <time>2024-09-26T12:27:12.000Z</time>
      </trkpt>
      <trkpt lat="40.84101" lon="20.18135">
        <ele>222.67999267578</ele>
        <time>2024-09-26T12:27:13.000Z</time>
      </trkpt>
      <trkpt lat="40.84095" lon="20.18135">
        <ele>223.63999938965</ele>
        <time>2024-09-26T12:27:14.000Z</time>
      </trkpt>
      <trkpt lat="40.84089" lon="20.18136">
        <ele>224.11999511719</ele>
        <time>2024-09-26T12:27:15.000Z</time>
      </trkpt>
      <trkpt lat="40.84083" lon="20.18138">
        <ele>225.08999633789</ele>
        <time>2024-09-26T12:27:16.000Z</time>
      </trkpt>
      <trkpt lat="40.84076" lon="20.18139">
        <ele>226.05000305176</ele>
        <time>2024-09-26T12:27:17.000Z</time>
      </trkpt>
      <trkpt lat="40.84068" lon="20.18141">
        <ele>227.00999450684</ele>
        <time>2024-09-26T12:27:18.000Z</time>
      </trkpt>
      <trkpt lat="40.84063" lon="20.18142">
        <ele>227.49000549316</ele>
        <time>2024-09-26T12:27:19.000Z</time>
      </trkpt>
      <trkpt lat="40.84058" lon="20.18141">
        <ele>228.44999694824</ele>
        <time>2024-09-26T12:27:20.000Z</time>
      </trkpt>
      <trkpt lat="40.84057" lon="20.18126">
        <ele>229.41000366211</ele>
        <time>2024-09-26T12:27:23.000Z</time>
      </trkpt>
      <trkpt lat="40.84059" lon="20.18124">
        <ele>229.41000366211</ele>
        <time>2024-09-26T12:27:24.000Z</time>
      </trkpt>
      <trkpt lat="40.84064" lon="20.18123">
        <ele>229.88999938965</ele>
        <time>2024-09-26T12:27:25.000Z</time>
      </trkpt>
      <trkpt lat="40.84072" lon="20.18122">
        <ele>230.85000610352</ele>
        <time>2024-09-26T12:27:26.000Z</time>
      </trkpt>
      <trkpt lat="40.84089" lon="20.18119">
        <ele>231.80999755859</ele>
        <time>2024-09-26T12:27:28.000Z</time>
      </trkpt>
      <trkpt lat="40.84093" lon="20.18117">
        <ele>231.80999755859</ele>
        <time>2024-09-26T12:27:29.000Z</time>
      </trkpt>
      <trkpt lat="40.841" lon="20.18116">
        <ele>232.30000305176</ele>
        <time>2024-09-26T12:27:30.000Z</time>
      </trkpt>
      <trkpt lat="40.84111" lon="20.18114">
        <ele>232.7799987793</ele>
        <time>2024-09-26T12:27:31.000Z</time>
      </trkpt>
      <trkpt lat="40.84116" lon="20.18113">
        <ele>232.7799987793</ele>
        <time>2024-09-26T12:27:32.000Z</time>
      </trkpt>
      <trkpt lat="40.84126" lon="20.18112">
        <ele>233.74000549316</ele>
        <time>2024-09-26T12:27:33.000Z</time>
      </trkpt>
      <trkpt lat="40.84134" lon="20.1811">
        <ele>234.2200012207</ele>
        <time>2024-09-26T12:27:34.000Z</time>
      </trkpt>
      <trkpt lat="40.84143" lon="20.18109">
        <ele>234.69999694824</ele>
        <time>2024-09-26T12:27:35.000Z</time>
      </trkpt>
      <trkpt lat="40.84152" lon="20.18107">
        <ele>235.66000366211</ele>
        <time>2024-09-26T12:27:36.000Z</time>
      </trkpt>
      <trkpt lat="40.84158" lon="20.18105">
        <ele>236.13999938965</ele>
        <time>2024-09-26T12:27:37.000Z</time>
      </trkpt>
      <trkpt lat="40.84167" lon="20.181">
        <ele>237.58000183105</ele>
        <time>2024-09-26T12:27:38.000Z</time>
      </trkpt>
      <trkpt lat="40.84175" lon="20.18096">
        <ele>238.53999328613</ele>
        <time>2024-09-26T12:27:39.000Z</time>
      </trkpt>
      <trkpt lat="40.84184" lon="20.18091">
        <ele>239.50999450684</ele>
        <time>2024-09-26T12:27:40.000Z</time>
      </trkpt>
      <trkpt lat="40.84191" lon="20.18086">
        <ele>240.4700012207</ele>
        <time>2024-09-26T12:27:41.000Z</time>
      </trkpt>
      <trkpt lat="40.84195" lon="20.18082">
        <ele>240.4700012207</ele>
        <time>2024-09-26T12:27:42.000Z</time>
      </trkpt>
      <trkpt lat="40.84209" lon="20.18069">
        <ele>241.91000366211</ele>
        <time>2024-09-26T12:27:44.000Z</time>
      </trkpt>
      <trkpt lat="40.84216" lon="20.18065">
        <ele>242.38999938965</ele>
        <time>2024-09-26T12:27:45.000Z</time>
      </trkpt>
      <trkpt lat="40.84229" lon="20.18059">
        <ele>242.86999511719</ele>
        <time>2024-09-26T12:27:46.000Z</time>
      </trkpt>
      <trkpt lat="40.84232" lon="20.18058">
        <ele>242.86999511719</ele>
        <time>2024-09-26T12:27:47.000Z</time>
      </trkpt>
      <trkpt lat="40.84243" lon="20.18052">
        <ele>243.35000610352</ele>
        <time>2024-09-26T12:27:48.000Z</time>
      </trkpt>
      <trkpt lat="40.84251" lon="20.18046">
        <ele>243.35000610352</ele>
        <time>2024-09-26T12:27:49.000Z</time>
      </trkpt>
      <trkpt lat="40.8426" lon="20.18041">
        <ele>243.83000183105</ele>
        <time>2024-09-26T12:27:50.000Z</time>
      </trkpt>
      <trkpt lat="40.84276" lon="20.18034">
        <ele>244.78999328613</ele>
        <time>2024-09-26T12:27:52.000Z</time>
      </trkpt>
      <trkpt lat="40.84285" lon="20.18031">
        <ele>245.27000427246</ele>
        <time>2024-09-26T12:27:53.000Z</time>
      </trkpt>
      <trkpt lat="40.84312" lon="20.18024">
        <ele>247.19999694824</ele>
        <time>2024-09-26T12:27:56.000Z</time>
      </trkpt>
      <trkpt lat="40.84317" lon="20.18021">
        <ele>247.67999267578</ele>
        <time>2024-09-26T12:27:57.000Z</time>
      </trkpt>
      <trkpt lat="40.84321" lon="20.18017">
        <ele>248.16000366211</ele>
        <time>2024-09-26T12:27:58.000Z</time>
      </trkpt>
      <trkpt lat="40.84323" lon="20.18011">
        <ele>249.11999511719</ele>
        <time>2024-09-26T12:27:59.000Z</time>
      </trkpt>
      <trkpt lat="40.84322" lon="20.18005">
        <ele>249.11999511719</ele>
        <time>2024-09-26T12:28:00.000Z</time>
      </trkpt>
      <trkpt lat="40.84318" lon="20.17999">
        <ele>249.60000610352</ele>
        <time>2024-09-26T12:28:01.000Z</time>
      </trkpt>
      <trkpt lat="40.84312" lon="20.17996">
        <ele>250.08000183105</ele>
        <time>2024-09-26T12:28:02.000Z</time>
      </trkpt>
      <trkpt lat="40.84305" lon="20.17995">
        <ele>250.55999755859</ele>
        <time>2024-09-26T12:28:03.000Z</time>
      </trkpt>
      <trkpt lat="40.84297" lon="20.17996">
        <ele>251.52000427246</ele>
        <time>2024-09-26T12:28:04.000Z</time>
      </trkpt>
      <trkpt lat="40.84289" lon="20.17998">
        <ele>252</ele>
        <time>2024-09-26T12:28:05.000Z</time>
      </trkpt>
      <trkpt lat="40.84282" lon="20.18002">
        <ele>252.47999572754</ele>
        <time>2024-09-26T12:28:06.000Z</time>
      </trkpt>
      <trkpt lat="40.84274" lon="20.18008">
        <ele>253.44000244141</ele>
        <time>2024-09-26T12:28:07.000Z</time>
      </trkpt>
      <trkpt lat="40.84265" lon="20.18013">
        <ele>254.41000366211</ele>
        <time>2024-09-26T12:28:08.000Z</time>
      </trkpt>
      <trkpt lat="40.84254" lon="20.18018">
        <ele>255.36999511719</ele>
        <time>2024-09-26T12:28:09.000Z</time>
      </trkpt>
      <trkpt lat="40.84249" lon="20.18021">
        <ele>255.85000610352</ele>
        <time>2024-09-26T12:28:10.000Z</time>
      </trkpt>
      <trkpt lat="40.84241" lon="20.18026">
        <ele>256.32998657227</ele>
        <time>2024-09-26T12:28:11.000Z</time>
      </trkpt>
      <trkpt lat="40.84229" lon="20.18032">
        <ele>256.80999755859</ele>
        <time>2024-09-26T12:28:12.000Z</time>
      </trkpt>
      <trkpt lat="40.84225" lon="20.18034">
        <ele>257.29000854492</ele>
        <time>2024-09-26T12:28:13.000Z</time>
      </trkpt>
      <trkpt lat="40.84196" lon="20.18044">
        <ele>258.73001098633</ele>
        <time>2024-09-26T12:28:16.000Z</time>
      </trkpt>
      <trkpt lat="40.8419" lon="20.18045">
        <ele>258.73001098633</ele>
        <time>2024-09-26T12:28:17.000Z</time>
      </trkpt>
      <trkpt lat="40.84181" lon="20.18046">
        <ele>259.20999145508</ele>
        <time>2024-09-26T12:28:18.000Z</time>
      </trkpt>
      <trkpt lat="40.84165" lon="20.18045">
        <ele>260.17001342773</ele>
        <time>2024-09-26T12:28:19.000Z</time>
      </trkpt>
      <trkpt lat="40.84142" lon="20.18042">
        <ele>261.14001464844</ele>
        <time>2024-09-26T12:28:22.000Z</time>
      </trkpt>
      <trkpt lat="40.84136" lon="20.18041">
        <ele>261.61999511719</ele>
        <time>2024-09-26T12:28:23.000Z</time>
      </trkpt>
      <trkpt lat="40.84126" lon="20.18038">
        <ele>262.10000610352</ele>
        <time>2024-09-26T12:28:24.000Z</time>
      </trkpt>
      <trkpt lat="40.84117" lon="20.18035">
        <ele>263.05999755859</ele>
        <time>2024-09-26T12:28:25.000Z</time>
      </trkpt>
      <trkpt lat="40.84109" lon="20.1803">
        <ele>263.05999755859</ele>
        <time>2024-09-26T12:28:26.000Z</time>
      </trkpt>
      <trkpt lat="40.84102" lon="20.18024">
        <ele>264.01998901367</ele>
        <time>2024-09-26T12:28:27.000Z</time>
      </trkpt>
      <trkpt lat="40.84095" lon="20.18018">
        <ele>264.98001098633</ele>
        <time>2024-09-26T12:28:28.000Z</time>
      </trkpt>
      <trkpt lat="40.84086" lon="20.1801">
        <ele>265.45999145508</ele>
        <time>2024-09-26T12:28:29.000Z</time>
      </trkpt>
      <trkpt lat="40.84066" lon="20.17996">
        <ele>267.85998535156</ele>
        <time>2024-09-26T12:28:31.000Z</time>
      </trkpt>
      <trkpt lat="40.8406" lon="20.17992">
        <ele>268.35000610352</ele>
        <time>2024-09-26T12:28:32.000Z</time>
      </trkpt>
      <trkpt lat="40.84053" lon="20.17987">
        <ele>269.30999755859</ele>
        <time>2024-09-26T12:28:33.000Z</time>
      </trkpt>
      <trkpt lat="40.84044" lon="20.17981">
        <ele>269.79000854492</ele>
        <time>2024-09-26T12:28:34.000Z</time>
      </trkpt>
      <trkpt lat="40.84034" lon="20.17976">
        <ele>270.75</ele>
        <time>2024-09-26T12:28:35.000Z</time>
      </trkpt>
      <trkpt lat="40.84026" lon="20.17973">
        <ele>271.23001098633</ele>
        <time>2024-09-26T12:28:36.000Z</time>
      </trkpt>
      <trkpt lat="40.84015" lon="20.1797">
        <ele>271.70999145508</ele>
        <time>2024-09-26T12:28:37.000Z</time>
      </trkpt>
      <trkpt lat="40.84005" lon="20.17969">
        <ele>272.19000244141</ele>
        <time>2024-09-26T12:28:38.000Z</time>
      </trkpt>
      <trkpt lat="40.83985" lon="20.17968">
        <ele>273.63000488281</ele>
        <time>2024-09-26T12:28:40.000Z</time>
      </trkpt>
      <trkpt lat="40.83961" lon="20.17968">
        <ele>275.55999755859</ele>
        <time>2024-09-26T12:28:42.000Z</time>
      </trkpt>
      <trkpt lat="40.83918" lon="20.17974">
        <ele>279.88000488281</ele>
        <time>2024-09-26T12:28:47.000Z</time>
      </trkpt>
      <trkpt lat="40.83908" lon="20.17977">
        <ele>280.83999633789</ele>
        <time>2024-09-26T12:28:48.000Z</time>
      </trkpt>
      <trkpt lat="40.83899" lon="20.17981">
        <ele>281.79998779297</ele>
        <time>2024-09-26T12:28:49.000Z</time>
      </trkpt>
      <trkpt lat="40.83885" lon="20.1799">
        <ele>283.25</ele>
        <time>2024-09-26T12:28:50.000Z</time>
      </trkpt>
      <trkpt lat="40.8388" lon="20.17994">
        <ele>284.20999145508</ele>
        <time>2024-09-26T12:28:51.000Z</time>
      </trkpt>
      <trkpt lat="40.83874" lon="20.17999">
        <ele>285.64999389648</ele>
        <time>2024-09-26T12:28:52.000Z</time>
      </trkpt>
      <trkpt lat="40.83866" lon="20.18003">
        <ele>286.60998535156</ele>
        <time>2024-09-26T12:28:53.000Z</time>
      </trkpt>
      <trkpt lat="40.83858" lon="20.18003">
        <ele>287.08999633789</ele>
        <time>2024-09-26T12:28:54.000Z</time>
      </trkpt>
      <trkpt lat="40.83851" lon="20.17999">
        <ele>287.57000732422</ele>
        <time>2024-09-26T12:28:55.000Z</time>
      </trkpt>
      <trkpt lat="40.83843" lon="20.17994">
        <ele>289.01000976562</ele>
        <time>2024-09-26T12:28:56.000Z</time>
      </trkpt>
      <trkpt lat="40.83836" lon="20.1799">
        <ele>289.9700012207</ele>
        <time>2024-09-26T12:28:57.000Z</time>
      </trkpt>
      <trkpt lat="40.83828" lon="20.17988">
        <ele>290.94000244141</ele>
        <time>2024-09-26T12:28:58.000Z</time>
      </trkpt>
      <trkpt lat="40.83819" lon="20.17984">
        <ele>291.89999389648</ele>
        <time>2024-09-26T12:28:59.000Z</time>
      </trkpt>
      <trkpt lat="40.83813" lon="20.17978">
        <ele>293.33999633789</ele>
        <time>2024-09-26T12:29:00.000Z</time>
      </trkpt>
      <trkpt lat="40.83805" lon="20.17965">
        <ele>295.26000976562</ele>
        <time>2024-09-26T12:29:01.000Z</time>
      </trkpt>
      <trkpt lat="40.83802" lon="20.17961">
        <ele>296.2200012207</ele>
        <time>2024-09-26T12:29:02.000Z</time>
      </trkpt>
      <trkpt lat="40.83795" lon="20.17954">
        <ele>297.17999267578</ele>
        <time>2024-09-26T12:29:03.000Z</time>
      </trkpt>
      <trkpt lat="40.83783" lon="20.17945">
        <ele>299.58999633789</ele>
        <time>2024-09-26T12:29:04.000Z</time>
      </trkpt>
      <trkpt lat="40.83778" lon="20.1794">
        <ele>300.54998779297</ele>
        <time>2024-09-26T12:29:05.000Z</time>
      </trkpt>
      <trkpt lat="40.8377" lon="20.17934">
        <ele>301.51000976562</ele>
        <time>2024-09-26T12:29:06.000Z</time>
      </trkpt>
      <trkpt lat="40.83761" lon="20.17929">
        <ele>303.42999267578</ele>
        <time>2024-09-26T12:29:07.000Z</time>
      </trkpt>
      <trkpt lat="40.83749" lon="20.17924">
        <ele>304.88000488281</ele>
        <time>2024-09-26T12:29:08.000Z</time>
      </trkpt>
      <trkpt lat="40.83742" lon="20.17922">
        <ele>305.35998535156</ele>
        <time>2024-09-26T12:29:09.000Z</time>
      </trkpt>
      <trkpt lat="40.83733" lon="20.17922">
        <ele>306.79998779297</ele>
        <time>2024-09-26T12:29:10.000Z</time>
      </trkpt>
      <trkpt lat="40.83723" lon="20.17923">
        <ele>308.7200012207</ele>
        <time>2024-09-26T12:29:11.000Z</time>
      </trkpt>
      <trkpt lat="40.83716" lon="20.17922">
        <ele>310.16000366211</ele>
        <time>2024-09-26T12:29:12.000Z</time>
      </trkpt>
      <trkpt lat="40.83709" lon="20.17918">
        <ele>311.11999511719</ele>
        <time>2024-09-26T12:29:13.000Z</time>
      </trkpt>
      <trkpt lat="40.83705" lon="20.17913">
        <ele>311.60000610352</ele>
        <time>2024-09-26T12:29:14.000Z</time>
      </trkpt>
      <trkpt lat="40.83702" lon="20.17902">
        <ele>312.08999633789</ele>
        <time>2024-09-26T12:29:15.000Z</time>
      </trkpt>
      <trkpt lat="40.83701" lon="20.17889">
        <ele>313.04998779297</ele>
        <time>2024-09-26T12:29:16.000Z</time>
      </trkpt>
      <trkpt lat="40.837" lon="20.1788">
        <ele>313.5299987793</ele>
        <time>2024-09-26T12:29:17.000Z</time>
      </trkpt>
      <trkpt lat="40.83699" lon="20.17868">
        <ele>314.9700012207</ele>
        <time>2024-09-26T12:29:18.000Z</time>
      </trkpt>
      <trkpt lat="40.83697" lon="20.1786">
        <ele>315.92999267578</ele>
        <time>2024-09-26T12:29:19.000Z</time>
      </trkpt>
      <trkpt lat="40.83694" lon="20.1785">
        <ele>316.89001464844</ele>
        <time>2024-09-26T12:29:20.000Z</time>
      </trkpt>
      <trkpt lat="40.8369" lon="20.17842">
        <ele>317.85000610352</ele>
        <time>2024-09-26T12:29:21.000Z</time>
      </trkpt>
      <trkpt lat="40.83683" lon="20.17832">
        <ele>318.80999755859</ele>
        <time>2024-09-26T12:29:22.000Z</time>
      </trkpt>
      <trkpt lat="40.83679" lon="20.17825">
        <ele>319.7799987793</ele>
        <time>2024-09-26T12:29:23.000Z</time>
      </trkpt>
      <trkpt lat="40.83675" lon="20.17817">
        <ele>320.26000976562</ele>
        <time>2024-09-26T12:29:24.000Z</time>
      </trkpt>
      <trkpt lat="40.83671" lon="20.17807">
        <ele>321.2200012207</ele>
        <time>2024-09-26T12:29:25.000Z</time>
      </trkpt>
      <trkpt lat="40.83669" lon="20.17797">
        <ele>321.70001220703</ele>
        <time>2024-09-26T12:29:26.000Z</time>
      </trkpt>
      <trkpt lat="40.83669" lon="20.17786">
        <ele>322.66000366211</ele>
        <time>2024-09-26T12:29:27.000Z</time>
      </trkpt>
      <trkpt lat="40.83671" lon="20.17762">
        <ele>325.05999755859</ele>
        <time>2024-09-26T12:29:29.000Z</time>
      </trkpt>
      <trkpt lat="40.83671" lon="20.17752">
        <ele>325.54000854492</ele>
        <time>2024-09-26T12:29:30.000Z</time>
      </trkpt>
      <trkpt lat="40.83671" lon="20.17741">
        <ele>326.5</ele>
        <time>2024-09-26T12:29:31.000Z</time>
      </trkpt>
      <trkpt lat="40.83669" lon="20.17728">
        <ele>327.4700012207</ele>
        <time>2024-09-26T12:29:32.000Z</time>
      </trkpt>
      <trkpt lat="40.83669" lon="20.1772">
        <ele>327.95001220703</ele>
        <time>2024-09-26T12:29:33.000Z</time>
      </trkpt>
      <trkpt lat="40.83669" lon="20.1771">
        <ele>328.91000366211</ele>
        <time>2024-09-26T12:29:34.000Z</time>
      </trkpt>
      <trkpt lat="40.83673" lon="20.17682">
        <ele>330.35000610352</ele>
        <time>2024-09-26T12:29:36.000Z</time>
      </trkpt>
      <trkpt lat="40.8368" lon="20.17644">
        <ele>332.75</ele>
        <time>2024-09-26T12:29:40.000Z</time>
      </trkpt>
      <trkpt lat="40.83681" lon="20.17634">
        <ele>333.70999145508</ele>
        <time>2024-09-26T12:29:41.000Z</time>
      </trkpt>
      <trkpt lat="40.83681" lon="20.17622">
        <ele>335.16000366211</ele>
        <time>2024-09-26T12:29:42.000Z</time>
      </trkpt>
      <trkpt lat="40.83682" lon="20.17612">
        <ele>336.11999511719</ele>
        <time>2024-09-26T12:29:43.000Z</time>
      </trkpt>
      <trkpt lat="40.83685" lon="20.17603">
        <ele>337.07998657227</ele>
        <time>2024-09-26T12:29:44.000Z</time>
      </trkpt>
      <trkpt lat="40.8369" lon="20.17594">
        <ele>338.04000854492</ele>
        <time>2024-09-26T12:29:45.000Z</time>
      </trkpt>
      <trkpt lat="40.83697" lon="20.17585">
        <ele>339</ele>
        <time>2024-09-26T12:29:46.000Z</time>
      </trkpt>
      <trkpt lat="40.83708" lon="20.17573">
        <ele>341.41000366211</ele>
        <time>2024-09-26T12:29:47.000Z</time>
      </trkpt>
      <trkpt lat="40.83711" lon="20.1757">
        <ele>341.89001464844</ele>
        <time>2024-09-26T12:29:48.000Z</time>
      </trkpt>
      <trkpt lat="40.83718" lon="20.17562">
        <ele>343.32998657227</ele>
        <time>2024-09-26T12:29:49.000Z</time>
      </trkpt>
      <trkpt lat="40.83724" lon="20.17554">
        <ele>344.29000854492</ele>
        <time>2024-09-26T12:29:50.000Z</time>
      </trkpt>
      <trkpt lat="40.83731" lon="20.17542">
        <ele>345.25</ele>
        <time>2024-09-26T12:29:51.000Z</time>
      </trkpt>
      <trkpt lat="40.83735" lon="20.17537">
        <ele>346.20999145508</ele>
        <time>2024-09-26T12:29:52.000Z</time>
      </trkpt>
      <trkpt lat="40.83741" lon="20.17527">
        <ele>347.17001342773</ele>
        <time>2024-09-26T12:29:53.000Z</time>
      </trkpt>
      <trkpt lat="40.83746" lon="20.17518">
        <ele>348.13000488281</ele>
        <time>2024-09-26T12:29:54.000Z</time>
      </trkpt>
      <trkpt lat="40.83755" lon="20.17501">
        <ele>350.05999755859</ele>
        <time>2024-09-26T12:29:55.000Z</time>
      </trkpt>
      <trkpt lat="40.83757" lon="20.17497">
        <ele>350.54000854492</ele>
        <time>2024-09-26T12:29:56.000Z</time>
      </trkpt>
      <trkpt lat="40.83762" lon="20.17487">
        <ele>351.5</ele>
        <time>2024-09-26T12:29:57.000Z</time>
      </trkpt>
      <trkpt lat="40.83769" lon="20.17471">
        <ele>352.94000244141</ele>
        <time>2024-09-26T12:29:58.000Z</time>
      </trkpt>
      <trkpt lat="40.83781" lon="20.17448">
        <ele>354.85998535156</ele>
        <time>2024-09-26T12:30:00.000Z</time>
      </trkpt>
      <trkpt lat="40.83783" lon="20.17442">
        <ele>355.82998657227</ele>
        <time>2024-09-26T12:30:01.000Z</time>
      </trkpt>
      <trkpt lat="40.83788" lon="20.17433">
        <ele>356.30999755859</ele>
        <time>2024-09-26T12:30:02.000Z</time>
      </trkpt>
      <trkpt lat="40.83792" lon="20.17425">
        <ele>356.79000854492</ele>
        <time>2024-09-26T12:30:03.000Z</time>
      </trkpt>
      <trkpt lat="40.83797" lon="20.17418">
        <ele>357.26998901367</ele>
        <time>2024-09-26T12:30:04.000Z</time>
      </trkpt>
      <trkpt lat="40.83809" lon="20.17404">
        <ele>358.70999145508</ele>
        <time>2024-09-26T12:30:05.000Z</time>
      </trkpt>
      <trkpt lat="40.83813" lon="20.174">
        <ele>359.67001342773</ele>
        <time>2024-09-26T12:30:06.000Z</time>
      </trkpt>
      <trkpt lat="40.83821" lon="20.17392">
        <ele>360.63000488281</ele>
        <time>2024-09-26T12:30:07.000Z</time>
      </trkpt>
      <trkpt lat="40.83832" lon="20.17383">
        <ele>362.07000732422</ele>
        <time>2024-09-26T12:30:08.000Z</time>
      </trkpt>
      <trkpt lat="40.83837" lon="20.17379">
        <ele>363.04000854492</ele>
        <time>2024-09-26T12:30:09.000Z</time>
      </trkpt>
      <trkpt lat="40.83845" lon="20.17375">
        <ele>364</ele>
        <time>2024-09-26T12:30:10.000Z</time>
      </trkpt>
      <trkpt lat="40.83856" lon="20.17369">
        <ele>365.44000244141</ele>
        <time>2024-09-26T12:30:11.000Z</time>
      </trkpt>
      <trkpt lat="40.83862" lon="20.17366">
        <ele>366.39999389648</ele>
        <time>2024-09-26T12:30:12.000Z</time>
      </trkpt>
      <trkpt lat="40.83908" lon="20.17338">
        <ele>373.13000488281</ele>
        <time>2024-09-26T12:30:17.000Z</time>
      </trkpt>
      <trkpt lat="40.83914" lon="20.17334">
        <ele>373.60998535156</ele>
        <time>2024-09-26T12:30:18.000Z</time>
      </trkpt>
      <trkpt lat="40.83922" lon="20.17328">
        <ele>374.57000732422</ele>
        <time>2024-09-26T12:30:19.000Z</time>
      </trkpt>
      <trkpt lat="40.83928" lon="20.1732">
        <ele>375.04998779297</ele>
        <time>2024-09-26T12:30:20.000Z</time>
      </trkpt>
      <trkpt lat="40.83934" lon="20.17311">
        <ele>376.01000976562</ele>
        <time>2024-09-26T12:30:21.000Z</time>
      </trkpt>
      <trkpt lat="40.83937" lon="20.17301">
        <ele>376.48999023438</ele>
        <time>2024-09-26T12:30:22.000Z</time>
      </trkpt>
      <trkpt lat="40.8394" lon="20.17282">
        <ele>377.45001220703</ele>
        <time>2024-09-26T12:30:23.000Z</time>
      </trkpt>
      <trkpt lat="40.83941" lon="20.17274">
        <ele>377.94000244141</ele>
        <time>2024-09-26T12:30:24.000Z</time>
      </trkpt>
      <trkpt lat="40.83943" lon="20.17266">
        <ele>378.42001342773</ele>
        <time>2024-09-26T12:30:25.000Z</time>
      </trkpt>
      <trkpt lat="40.83948" lon="20.17255">
        <ele>379.38000488281</ele>
        <time>2024-09-26T12:30:26.000Z</time>
      </trkpt>
      <trkpt lat="40.83952" lon="20.17248">
        <ele>379.85998535156</ele>
        <time>2024-09-26T12:30:27.000Z</time>
      </trkpt>
      <trkpt lat="40.83958" lon="20.1724">
        <ele>380.33999633789</ele>
        <time>2024-09-26T12:30:28.000Z</time>
      </trkpt>
      <trkpt lat="40.83966" lon="20.17229">
        <ele>381.29998779297</ele>
        <time>2024-09-26T12:30:29.000Z</time>
      </trkpt>
      <trkpt lat="40.83971" lon="20.17222">
        <ele>381.29998779297</ele>
        <time>2024-09-26T12:30:30.000Z</time>
      </trkpt>
      <trkpt lat="40.83975" lon="20.17217">
        <ele>381.7799987793</ele>
        <time>2024-09-26T12:30:31.000Z</time>
      </trkpt>
      <trkpt lat="40.83981" lon="20.17211">
        <ele>382.26000976562</ele>
        <time>2024-09-26T12:30:32.000Z</time>
      </trkpt>
      <trkpt lat="40.8399" lon="20.17202">
        <ele>382.26000976562</ele>
        <time>2024-09-26T12:30:34.000Z</time>
      </trkpt>
      <trkpt lat="40.83996" lon="20.17196">
        <ele>382.73999023438</ele>
        <time>2024-09-26T12:30:35.000Z</time>
      </trkpt>
      <trkpt lat="40.84003" lon="20.1719">
        <ele>382.73999023438</ele>
        <time>2024-09-26T12:30:36.000Z</time>
      </trkpt>
      <trkpt lat="40.84009" lon="20.17186">
        <ele>383.70001220703</ele>
        <time>2024-09-26T12:30:37.000Z</time>
      </trkpt>
      <trkpt lat="40.84016" lon="20.17182">
        <ele>384.66000366211</ele>
        <time>2024-09-26T12:30:38.000Z</time>
      </trkpt>
      <trkpt lat="40.84023" lon="20.17178">
        <ele>385.63000488281</ele>
        <time>2024-09-26T12:30:39.000Z</time>
      </trkpt>
      <trkpt lat="40.84031" lon="20.17172">
        <ele>386.58999633789</ele>
        <time>2024-09-26T12:30:40.000Z</time>
      </trkpt>
      <trkpt lat="40.84036" lon="20.17167">
        <ele>386.58999633789</ele>
        <time>2024-09-26T12:30:41.000Z</time>
      </trkpt>
      <trkpt lat="40.84041" lon="20.17159">
        <ele>387.07000732422</ele>
        <time>2024-09-26T12:30:42.000Z</time>
      </trkpt>
      <trkpt lat="40.84045" lon="20.17151">
        <ele>387.07000732422</ele>
        <time>2024-09-26T12:30:43.000Z</time>
      </trkpt>
      <trkpt lat="40.84051" lon="20.17133">
        <ele>387.54998779297</ele>
        <time>2024-09-26T12:30:44.000Z</time>
      </trkpt>
      <trkpt lat="40.84052" lon="20.17131">
        <ele>387.54998779297</ele>
        <time>2024-09-26T12:30:45.000Z</time>
      </trkpt>
      <trkpt lat="40.84057" lon="20.17119">
        <ele>387.54998779297</ele>
        <time>2024-09-26T12:30:46.000Z</time>
      </trkpt>
      <trkpt lat="40.84072" lon="20.17095">
        <ele>387.54998779297</ele>
        <time>2024-09-26T12:30:48.000Z</time>
      </trkpt>
      <trkpt lat="40.84074" lon="20.17091">
        <ele>387.54998779297</ele>
        <time>2024-09-26T12:30:49.000Z</time>
      </trkpt>
      <trkpt lat="40.84082" lon="20.17077">
        <ele>388.0299987793</ele>
        <time>2024-09-26T12:30:50.000Z</time>
      </trkpt>
      <trkpt lat="40.84083" lon="20.17076">
        <ele>388.0299987793</ele>
        <time>2024-09-26T12:30:51.000Z</time>
      </trkpt>
      <trkpt lat="40.84089" lon="20.1706">
        <ele>388.51000976562</ele>
        <time>2024-09-26T12:30:52.000Z</time>
      </trkpt>
      <trkpt lat="40.8409" lon="20.17058">
        <ele>388.51000976562</ele>
        <time>2024-09-26T12:30:53.000Z</time>
      </trkpt>
      <trkpt lat="40.84093" lon="20.1705">
        <ele>388.51000976562</ele>
        <time>2024-09-26T12:30:54.000Z</time>
      </trkpt>
      <trkpt lat="40.84098" lon="20.17042">
        <ele>388.51000976562</ele>
        <time>2024-09-26T12:30:55.000Z</time>
      </trkpt>
      <trkpt lat="40.84106" lon="20.17032">
        <ele>388.98999023438</ele>
        <time>2024-09-26T12:30:56.000Z</time>
      </trkpt>
      <trkpt lat="40.8411" lon="20.17027">
        <ele>388.98999023438</ele>
        <time>2024-09-26T12:30:57.000Z</time>
      </trkpt>
      <trkpt lat="40.84116" lon="20.17016">
        <ele>389.4700012207</ele>
        <time>2024-09-26T12:30:58.000Z</time>
      </trkpt>
      <trkpt lat="40.84121" lon="20.17009">
        <ele>390.42999267578</ele>
        <time>2024-09-26T12:30:59.000Z</time>
      </trkpt>
      <trkpt lat="40.84127" lon="20.17002">
        <ele>390.91000366211</ele>
        <time>2024-09-26T12:31:00.000Z</time>
      </trkpt>
      <trkpt lat="40.84136" lon="20.16994">
        <ele>391.86999511719</ele>
        <time>2024-09-26T12:31:01.000Z</time>
      </trkpt>
      <trkpt lat="40.84145" lon="20.16987">
        <ele>392.83999633789</ele>
        <time>2024-09-26T12:31:02.000Z</time>
      </trkpt>
      <trkpt lat="40.8416" lon="20.16972">
        <ele>394.2799987793</ele>
        <time>2024-09-26T12:31:04.000Z</time>
      </trkpt>
      <trkpt lat="40.84162" lon="20.1697">
        <ele>394.76000976562</ele>
        <time>2024-09-26T12:31:05.000Z</time>
      </trkpt>
      <trkpt lat="40.84167" lon="20.16963">
        <ele>395.23999023438</ele>
        <time>2024-09-26T12:31:06.000Z</time>
      </trkpt>
      <trkpt lat="40.84171" lon="20.16953">
        <ele>395.23999023438</ele>
        <time>2024-09-26T12:31:07.000Z</time>
      </trkpt>
      <trkpt lat="40.84173" lon="20.16943">
        <ele>395.7200012207</ele>
        <time>2024-09-26T12:31:08.000Z</time>
      </trkpt>
      <trkpt lat="40.84177" lon="20.16921">
        <ele>396.67999267578</ele>
        <time>2024-09-26T12:31:09.000Z</time>
      </trkpt>
      <trkpt lat="40.84183" lon="20.1689">
        <ele>398.11999511719</ele>
        <time>2024-09-26T12:31:12.000Z</time>
      </trkpt>
      <trkpt lat="40.84184" lon="20.16882">
        <ele>398.60000610352</ele>
        <time>2024-09-26T12:31:13.000Z</time>
      </trkpt>
      <trkpt lat="40.84184" lon="20.1687">
        <ele>399.57000732422</ele>
        <time>2024-09-26T12:31:14.000Z</time>
      </trkpt>
      <trkpt lat="40.84182" lon="20.16857">
        <ele>400.5299987793</ele>
        <time>2024-09-26T12:31:15.000Z</time>
      </trkpt>
      <trkpt lat="40.8418" lon="20.16848">
        <ele>401.48999023438</ele>
        <time>2024-09-26T12:31:16.000Z</time>
      </trkpt>
      <trkpt lat="40.84176" lon="20.16836">
        <ele>402.45001220703</ele>
        <time>2024-09-26T12:31:17.000Z</time>
      </trkpt>
      <trkpt lat="40.84172" lon="20.16826">
        <ele>403.41000366211</ele>
        <time>2024-09-26T12:31:18.000Z</time>
      </trkpt>
      <trkpt lat="40.84156" lon="20.16799">
        <ele>405.80999755859</ele>
        <time>2024-09-26T12:31:20.000Z</time>
      </trkpt>
      <trkpt lat="40.84151" lon="20.16792">
        <ele>406.76998901367</ele>
        <time>2024-09-26T12:31:21.000Z</time>
      </trkpt>
      <trkpt lat="40.84139" lon="20.16775">
        <ele>408.2200012207</ele>
        <time>2024-09-26T12:31:23.000Z</time>
      </trkpt>
      <trkpt lat="40.84132" lon="20.16765">
        <ele>409.66000366211</ele>
        <time>2024-09-26T12:31:24.000Z</time>
      </trkpt>
      <trkpt lat="40.84127" lon="20.16753">
        <ele>410.61999511719</ele>
        <time>2024-09-26T12:31:25.000Z</time>
      </trkpt>
      <trkpt lat="40.84123" lon="20.1674">
        <ele>412.05999755859</ele>
        <time>2024-09-26T12:31:26.000Z</time>
      </trkpt>
      <trkpt lat="40.84117" lon="20.16728">
        <ele>413.98001098633</ele>
        <time>2024-09-26T12:31:27.000Z</time>
      </trkpt>
      <trkpt lat="40.8411" lon="20.16719">
        <ele>415.42999267578</ele>
        <time>2024-09-26T12:31:28.000Z</time>
      </trkpt>
      <trkpt lat="40.84097" lon="20.16706">
        <ele>417.35000610352</ele>
        <time>2024-09-26T12:31:29.000Z</time>
      </trkpt>
      <trkpt lat="40.84093" lon="20.16703">
        <ele>418.30999755859</ele>
        <time>2024-09-26T12:31:30.000Z</time>
      </trkpt>
      <trkpt lat="40.84087" lon="20.16697">
        <ele>419.26998901367</ele>
        <time>2024-09-26T12:31:31.000Z</time>
      </trkpt>
      <trkpt lat="40.84081" lon="20.16691">
        <ele>420.70999145508</ele>
        <time>2024-09-26T12:31:32.000Z</time>
      </trkpt>
      <trkpt lat="40.84076" lon="20.16682">
        <ele>421.19000244141</ele>
        <time>2024-09-26T12:31:33.000Z</time>
      </trkpt>
      <trkpt lat="40.84073" lon="20.16673">
        <ele>422.16000366211</ele>
        <time>2024-09-26T12:31:34.000Z</time>
      </trkpt>
      <trkpt lat="40.84072" lon="20.16662">
        <ele>423.11999511719</ele>
        <time>2024-09-26T12:31:35.000Z</time>
      </trkpt>
      <trkpt lat="40.84073" lon="20.16651">
        <ele>424.07998657227</ele>
        <time>2024-09-26T12:31:36.000Z</time>
      </trkpt>
      <trkpt lat="40.84075" lon="20.1664">
        <ele>425.04000854492</ele>
        <time>2024-09-26T12:31:37.000Z</time>
      </trkpt>
      <trkpt lat="40.84084" lon="20.16618">
        <ele>426.95999145508</ele>
        <time>2024-09-26T12:31:39.000Z</time>
      </trkpt>
      <trkpt lat="40.84088" lon="20.16608">
        <ele>427.44000244141</ele>
        <time>2024-09-26T12:31:40.000Z</time>
      </trkpt>
      <trkpt lat="40.84096" lon="20.1659">
        <ele>429.36999511719</ele>
        <time>2024-09-26T12:31:41.000Z</time>
      </trkpt>
      <trkpt lat="40.84097" lon="20.16588">
        <ele>429.85000610352</ele>
        <time>2024-09-26T12:31:42.000Z</time>
      </trkpt>
      <trkpt lat="40.84101" lon="20.16577">
        <ele>430.80999755859</ele>
        <time>2024-09-26T12:31:43.000Z</time>
      </trkpt>
      <trkpt lat="40.84104" lon="20.16564">
        <ele>432.25</ele>
        <time>2024-09-26T12:31:44.000Z</time>
      </trkpt>
      <trkpt lat="40.84106" lon="20.16552">
        <ele>432.73001098633</ele>
        <time>2024-09-26T12:31:45.000Z</time>
      </trkpt>
      <trkpt lat="40.84108" lon="20.16532">
        <ele>434.17001342773</ele>
        <time>2024-09-26T12:31:46.000Z</time>
      </trkpt>
      <trkpt lat="40.84109" lon="20.16526">
        <ele>434.64999389648</ele>
        <time>2024-09-26T12:31:47.000Z</time>
      </trkpt>
      <trkpt lat="40.84112" lon="20.16515">
        <ele>435.13000488281</ele>
        <time>2024-09-26T12:31:48.000Z</time>
      </trkpt>
      <trkpt lat="40.84117" lon="20.16506">
        <ele>436.10000610352</ele>
        <time>2024-09-26T12:31:49.000Z</time>
      </trkpt>
      <trkpt lat="40.84128" lon="20.16491">
        <ele>437.54000854492</ele>
        <time>2024-09-26T12:31:50.000Z</time>
      </trkpt>
      <trkpt lat="40.84129" lon="20.16489">
        <ele>438.01998901367</ele>
        <time>2024-09-26T12:31:51.000Z</time>
      </trkpt>
      <trkpt lat="40.84135" lon="20.1648">
        <ele>438.5</ele>
        <time>2024-09-26T12:31:52.000Z</time>
      </trkpt>
      <trkpt lat="40.84139" lon="20.16468">
        <ele>439.94000244141</ele>
        <time>2024-09-26T12:31:53.000Z</time>
      </trkpt>
      <trkpt lat="40.84142" lon="20.16457">
        <ele>440.89999389648</ele>
        <time>2024-09-26T12:31:54.000Z</time>
      </trkpt>
      <trkpt lat="40.84146" lon="20.16442">
        <ele>442.33999633789</ele>
        <time>2024-09-26T12:31:55.000Z</time>
      </trkpt>
      <trkpt lat="40.84152" lon="20.16425">
        <ele>444.26998901367</ele>
        <time>2024-09-26T12:31:56.000Z</time>
      </trkpt>
      <trkpt lat="40.84152" lon="20.16423">
        <ele>444.26998901367</ele>
        <time>2024-09-26T12:31:57.000Z</time>
      </trkpt>
      <trkpt lat="40.84157" lon="20.16407">
        <ele>446.19000244141</ele>
        <time>2024-09-26T12:31:58.000Z</time>
      </trkpt>
      <trkpt lat="40.84158" lon="20.16403">
        <ele>446.67001342773</ele>
        <time>2024-09-26T12:31:59.000Z</time>
      </trkpt>
      <trkpt lat="40.84162" lon="20.16385">
        <ele>448.58999633789</ele>
        <time>2024-09-26T12:32:00.000Z</time>
      </trkpt>
      <trkpt lat="40.84164" lon="20.1638">
        <ele>449.07000732422</ele>
        <time>2024-09-26T12:32:01.000Z</time>
      </trkpt>
      <trkpt lat="40.84167" lon="20.16368">
        <ele>450.0299987793</ele>
        <time>2024-09-26T12:32:02.000Z</time>
      </trkpt>
      <trkpt lat="40.8417" lon="20.16359">
        <ele>451</ele>
        <time>2024-09-26T12:32:03.000Z</time>
      </trkpt>
      <trkpt lat="40.84171" lon="20.1635">
        <ele>451.95999145508</ele>
        <time>2024-09-26T12:32:04.000Z</time>
      </trkpt>
      <trkpt lat="40.8417" lon="20.1634">
        <ele>452.44000244141</ele>
        <time>2024-09-26T12:32:05.000Z</time>
      </trkpt>
      <trkpt lat="40.84167" lon="20.16331">
        <ele>453.39999389648</ele>
        <time>2024-09-26T12:32:06.000Z</time>
      </trkpt>
      <trkpt lat="40.84163" lon="20.16323">
        <ele>453.88000488281</ele>
        <time>2024-09-26T12:32:07.000Z</time>
      </trkpt>
      <trkpt lat="40.84159" lon="20.16313">
        <ele>454.35998535156</ele>
        <time>2024-09-26T12:32:08.000Z</time>
      </trkpt>
      <trkpt lat="40.84154" lon="20.16297">
        <ele>455.32000732422</ele>
        <time>2024-09-26T12:32:09.000Z</time>
      </trkpt>
      <trkpt lat="40.84153" lon="20.16292">
        <ele>455.32000732422</ele>
        <time>2024-09-26T12:32:10.000Z</time>
      </trkpt>
      <trkpt lat="40.84151" lon="20.16277">
        <ele>456.2799987793</ele>
        <time>2024-09-26T12:32:11.000Z</time>
      </trkpt>
      <trkpt lat="40.8415" lon="20.16271">
        <ele>456.2799987793</ele>
        <time>2024-09-26T12:32:12.000Z</time>
      </trkpt>
      <trkpt lat="40.84149" lon="20.16264">
        <ele>456.76000976562</ele>
        <time>2024-09-26T12:32:13.000Z</time>
      </trkpt>
      <trkpt lat="40.84146" lon="20.16256">
        <ele>456.76000976562</ele>
        <time>2024-09-26T12:32:14.000Z</time>
      </trkpt>
      <trkpt lat="40.84139" lon="20.16245">
        <ele>456.76000976562</ele>
        <time>2024-09-26T12:32:15.000Z</time>
      </trkpt>
      <trkpt lat="40.84136" lon="20.1624">
        <ele>457.23999023438</ele>
        <time>2024-09-26T12:32:16.000Z</time>
      </trkpt>
      <trkpt lat="40.84132" lon="20.16234">
        <ele>457.23999023438</ele>
        <time>2024-09-26T12:32:17.000Z</time>
      </trkpt>
      <trkpt lat="40.84128" lon="20.16226">
        <ele>457.23999023438</ele>
        <time>2024-09-26T12:32:18.000Z</time>
      </trkpt>
      <trkpt lat="40.84121" lon="20.16213">
        <ele>457.7200012207</ele>
        <time>2024-09-26T12:32:19.000Z</time>
      </trkpt>
      <trkpt lat="40.84121" lon="20.16212">
        <ele>457.7200012207</ele>
        <time>2024-09-26T12:32:20.000Z</time>
      </trkpt>
      <trkpt lat="40.84116" lon="20.16205">
        <ele>457.7200012207</ele>
        <time>2024-09-26T12:32:21.000Z</time>
      </trkpt>
      <trkpt lat="40.84102" lon="20.16181">
        <ele>458.69000244141</ele>
        <time>2024-09-26T12:32:24.000Z</time>
      </trkpt>
      <trkpt lat="40.84098" lon="20.16176">
        <ele>458.69000244141</ele>
        <time>2024-09-26T12:32:25.000Z</time>
      </trkpt>
      <trkpt lat="40.84091" lon="20.16169">
        <ele>458.69000244141</ele>
        <time>2024-09-26T12:32:26.000Z</time>
      </trkpt>
      <trkpt lat="40.84089" lon="20.16165">
        <ele>458.69000244141</ele>
        <time>2024-09-26T12:32:27.000Z</time>
      </trkpt>
      <trkpt lat="40.84085" lon="20.16159">
        <ele>458.69000244141</ele>
        <time>2024-09-26T12:32:28.000Z</time>
      </trkpt>
      <trkpt lat="40.84083" lon="20.16151">
        <ele>458.69000244141</ele>
        <time>2024-09-26T12:32:29.000Z</time>
      </trkpt>
      <trkpt lat="40.84082" lon="20.16145">
        <ele>458.20999145508</ele>
        <time>2024-09-26T12:32:30.000Z</time>
      </trkpt>
      <trkpt lat="40.84081" lon="20.16138">
        <ele>457.23999023438</ele>
        <time>2024-09-26T12:32:31.000Z</time>
      </trkpt>
      <trkpt lat="40.84083" lon="20.1613">
        <ele>456.2799987793</ele>
        <time>2024-09-26T12:32:32.000Z</time>
      </trkpt>
      <trkpt lat="40.84085" lon="20.16124">
        <ele>455.79998779297</ele>
        <time>2024-09-26T12:32:33.000Z</time>
      </trkpt>
      <trkpt lat="40.84089" lon="20.16118">
        <ele>455.32000732422</ele>
        <time>2024-09-26T12:32:34.000Z</time>
      </trkpt>
      <trkpt lat="40.84092" lon="20.16112">
        <ele>454.83999633789</ele>
        <time>2024-09-26T12:32:35.000Z</time>
      </trkpt>
      <trkpt lat="40.84104" lon="20.16096">
        <ele>453.39999389648</ele>
        <time>2024-09-26T12:32:37.000Z</time>
      </trkpt>
      <trkpt lat="40.84115" lon="20.16081">
        <ele>452.44000244141</ele>
        <time>2024-09-26T12:32:40.000Z</time>
      </trkpt>
      <trkpt lat="40.84118" lon="20.16078">
        <ele>452.44000244141</ele>
        <time>2024-09-26T12:32:41.000Z</time>
      </trkpt>
      <trkpt lat="40.84123" lon="20.1607">
        <ele>452.44000244141</ele>
        <time>2024-09-26T12:32:42.000Z</time>
      </trkpt>
      <trkpt lat="40.84126" lon="20.16065">
        <ele>452.44000244141</ele>
        <time>2024-09-26T12:32:43.000Z</time>
      </trkpt>
      <trkpt lat="40.84129" lon="20.16057">
        <ele>452.92001342773</ele>
        <time>2024-09-26T12:32:44.000Z</time>
      </trkpt>
      <trkpt lat="40.84131" lon="20.16049">
        <ele>452.92001342773</ele>
        <time>2024-09-26T12:32:45.000Z</time>
      </trkpt>
      <trkpt lat="40.84133" lon="20.16041">
        <ele>452.92001342773</ele>
        <time>2024-09-26T12:32:46.000Z</time>
      </trkpt>
      <trkpt lat="40.84135" lon="20.16028">
        <ele>452.92001342773</ele>
        <time>2024-09-26T12:32:47.000Z</time>
      </trkpt>
      <trkpt lat="40.84136" lon="20.16025">
        <ele>452.92001342773</ele>
        <time>2024-09-26T12:32:48.000Z</time>
      </trkpt>
      <trkpt lat="40.84138" lon="20.16019">
        <ele>452.92001342773</ele>
        <time>2024-09-26T12:32:49.000Z</time>
      </trkpt>
      <trkpt lat="40.84141" lon="20.16014">
        <ele>452.44000244141</ele>
        <time>2024-09-26T12:32:50.000Z</time>
      </trkpt>
      <trkpt lat="40.84144" lon="20.1601">
        <ele>451.95999145508</ele>
        <time>2024-09-26T12:32:51.000Z</time>
      </trkpt>
      <trkpt lat="40.84148" lon="20.16006">
        <ele>451.95999145508</ele>
        <time>2024-09-26T12:32:52.000Z</time>
      </trkpt>
      <trkpt lat="40.84151" lon="20.16002">
        <ele>451.48001098633</ele>
        <time>2024-09-26T12:32:53.000Z</time>
      </trkpt>
      <trkpt lat="40.84156" lon="20.15997">
        <ele>451</ele>
        <time>2024-09-26T12:32:54.000Z</time>
      </trkpt>
      <trkpt lat="40.84164" lon="20.15988">
        <ele>450.0299987793</ele>
        <time>2024-09-26T12:32:56.000Z</time>
      </trkpt>
      <trkpt lat="40.84171" lon="20.15981">
        <ele>449.07000732422</ele>
        <time>2024-09-26T12:32:57.000Z</time>
      </trkpt>
      <trkpt lat="40.84175" lon="20.15977">
        <ele>448.58999633789</ele>
        <time>2024-09-26T12:32:58.000Z</time>
      </trkpt>
      <trkpt lat="40.84181" lon="20.15973">
        <ele>448.58999633789</ele>
        <time>2024-09-26T12:32:59.000Z</time>
      </trkpt>
      <trkpt lat="40.8419" lon="20.15967">
        <ele>448.10998535156</ele>
        <time>2024-09-26T12:33:00.000Z</time>
      </trkpt>
      <trkpt lat="40.84194" lon="20.15965">
        <ele>447.63000488281</ele>
        <time>2024-09-26T12:33:01.000Z</time>
      </trkpt>
      <trkpt lat="40.84199" lon="20.15959">
        <ele>446.67001342773</ele>
        <time>2024-09-26T12:33:02.000Z</time>
      </trkpt>
      <trkpt lat="40.84204" lon="20.15951">
        <ele>446.19000244141</ele>
        <time>2024-09-26T12:33:03.000Z</time>
      </trkpt>
      <trkpt lat="40.84208" lon="20.15943">
        <ele>445.70999145508</ele>
        <time>2024-09-26T12:33:04.000Z</time>
      </trkpt>
      <trkpt lat="40.8421" lon="20.15934">
        <ele>445.23001098633</ele>
        <time>2024-09-26T12:33:05.000Z</time>
      </trkpt>
      <trkpt lat="40.84214" lon="20.15906">
        <ele>445.23001098633</ele>
        <time>2024-09-26T12:33:07.000Z</time>
      </trkpt>
      <trkpt lat="40.84216" lon="20.15895">
        <ele>444.75</ele>
        <time>2024-09-26T12:33:09.000Z</time>
      </trkpt>
      <trkpt lat="40.84218" lon="20.15878">
        <ele>445.23001098633</ele>
        <time>2024-09-26T12:33:10.000Z</time>
      </trkpt>
      <trkpt lat="40.8422" lon="20.15867">
        <ele>445.23001098633</ele>
        <time>2024-09-26T12:33:11.000Z</time>
      </trkpt>
      <trkpt lat="40.8422" lon="20.15864">
        <ele>445.23001098633</ele>
        <time>2024-09-26T12:33:12.000Z</time>
      </trkpt>
      <trkpt lat="40.84222" lon="20.15855">
        <ele>445.23001098633</ele>
        <time>2024-09-26T12:33:13.000Z</time>
      </trkpt>
      <trkpt lat="40.84226" lon="20.15846">
        <ele>445.23001098633</ele>
        <time>2024-09-26T12:33:14.000Z</time>
      </trkpt>
      <trkpt lat="40.84245" lon="20.1581">
        <ele>445.23001098633</ele>
        <time>2024-09-26T12:33:18.000Z</time>
      </trkpt>
      <trkpt lat="40.8425" lon="20.15798">
        <ele>445.70999145508</ele>
        <time>2024-09-26T12:33:19.000Z</time>
      </trkpt>
      <trkpt lat="40.8426" lon="20.15766">
        <ele>446.67001342773</ele>
        <time>2024-09-26T12:33:21.000Z</time>
      </trkpt>
      <trkpt lat="40.84262" lon="20.15761">
        <ele>446.67001342773</ele>
        <time>2024-09-26T12:33:22.000Z</time>
      </trkpt>
      <trkpt lat="40.84268" lon="20.15745">
        <ele>447.14999389648</ele>
        <time>2024-09-26T12:33:23.000Z</time>
      </trkpt>
      <trkpt lat="40.84271" lon="20.15739">
        <ele>447.63000488281</ele>
        <time>2024-09-26T12:33:24.000Z</time>
      </trkpt>
      <trkpt lat="40.84275" lon="20.15729">
        <ele>448.10998535156</ele>
        <time>2024-09-26T12:33:25.000Z</time>
      </trkpt>
      <trkpt lat="40.8428" lon="20.15716">
        <ele>449.07000732422</ele>
        <time>2024-09-26T12:33:26.000Z</time>
      </trkpt>
      <trkpt lat="40.84283" lon="20.15709">
        <ele>449.07000732422</ele>
        <time>2024-09-26T12:33:27.000Z</time>
      </trkpt>
      <trkpt lat="40.84285" lon="20.15698">
        <ele>449.54998779297</ele>
        <time>2024-09-26T12:33:28.000Z</time>
      </trkpt>
      <trkpt lat="40.84286" lon="20.15688">
        <ele>450.0299987793</ele>
        <time>2024-09-26T12:33:29.000Z</time>
      </trkpt>
      <trkpt lat="40.84285" lon="20.15676">
        <ele>450.0299987793</ele>
        <time>2024-09-26T12:33:30.000Z</time>
      </trkpt>
      <trkpt lat="40.84282" lon="20.15665">
        <ele>450.51998901367</ele>
        <time>2024-09-26T12:33:31.000Z</time>
      </trkpt>
      <trkpt lat="40.84277" lon="20.15651">
        <ele>450.51998901367</ele>
        <time>2024-09-26T12:33:32.000Z</time>
      </trkpt>
      <trkpt lat="40.84274" lon="20.15643">
        <ele>451</ele>
        <time>2024-09-26T12:33:33.000Z</time>
      </trkpt>
      <trkpt lat="40.84272" lon="20.15632">
        <ele>451.48001098633</ele>
        <time>2024-09-26T12:33:34.000Z</time>
      </trkpt>
      <trkpt lat="40.84272" lon="20.1562">
        <ele>451.95999145508</ele>
        <time>2024-09-26T12:33:35.000Z</time>
      </trkpt>
      <trkpt lat="40.84274" lon="20.15606">
        <ele>452.92001342773</ele>
        <time>2024-09-26T12:33:36.000Z</time>
      </trkpt>
      <trkpt lat="40.84277" lon="20.15593">
        <ele>453.39999389648</ele>
        <time>2024-09-26T12:33:37.000Z</time>
      </trkpt>
      <trkpt lat="40.84278" lon="20.15581">
        <ele>454.35998535156</ele>
        <time>2024-09-26T12:33:38.000Z</time>
      </trkpt>
      <trkpt lat="40.84278" lon="20.15565">
        <ele>455.32000732422</ele>
        <time>2024-09-26T12:33:39.000Z</time>
      </trkpt>
      <trkpt lat="40.84278" lon="20.15555">
        <ele>455.79998779297</ele>
        <time>2024-09-26T12:33:40.000Z</time>
      </trkpt>
      <trkpt lat="40.84275" lon="20.15536">
        <ele>457.23999023438</ele>
        <time>2024-09-26T12:33:41.000Z</time>
      </trkpt>
      <trkpt lat="40.84274" lon="20.15523">
        <ele>458.20999145508</ele>
        <time>2024-09-26T12:33:42.000Z</time>
      </trkpt>
      <trkpt lat="40.84273" lon="20.15519">
        <ele>458.69000244141</ele>
        <time>2024-09-26T12:33:43.000Z</time>
      </trkpt>
      <trkpt lat="40.84271" lon="20.15491">
        <ele>459.64999389648</ele>
        <time>2024-09-26T12:33:45.000Z</time>
      </trkpt>
      <trkpt lat="40.84267" lon="20.15457">
        <ele>460.60998535156</ele>
        <time>2024-09-26T12:33:48.000Z</time>
      </trkpt>
      <trkpt lat="40.84242" lon="20.15357">
        <ele>464.92999267578</ele>
        <time>2024-09-26T12:33:57.000Z</time>
      </trkpt>
      <trkpt lat="40.8424" lon="20.15347">
        <ele>465.42001342773</ele>
        <time>2024-09-26T12:33:58.000Z</time>
      </trkpt>
      <trkpt lat="40.8424" lon="20.15337">
        <ele>465.89999389648</ele>
        <time>2024-09-26T12:33:59.000Z</time>
      </trkpt>
      <trkpt lat="40.84242" lon="20.15328">
        <ele>466.38000488281</ele>
        <time>2024-09-26T12:34:00.000Z</time>
      </trkpt>
      <trkpt lat="40.84247" lon="20.15314">
        <ele>468.29998779297</ele>
        <time>2024-09-26T12:34:01.000Z</time>
      </trkpt>
      <trkpt lat="40.84249" lon="20.15309">
        <ele>468.7799987793</ele>
        <time>2024-09-26T12:34:02.000Z</time>
      </trkpt>
      <trkpt lat="40.8425" lon="20.153">
        <ele>469.73999023438</ele>
        <time>2024-09-26T12:34:03.000Z</time>
      </trkpt>
      <trkpt lat="40.8425" lon="20.15291">
        <ele>470.70001220703</ele>
        <time>2024-09-26T12:34:04.000Z</time>
      </trkpt>
      <trkpt lat="40.84248" lon="20.15282">
        <ele>471.17999267578</ele>
        <time>2024-09-26T12:34:05.000Z</time>
      </trkpt>
      <trkpt lat="40.84245" lon="20.15273">
        <ele>472.14001464844</ele>
        <time>2024-09-26T12:34:06.000Z</time>
      </trkpt>
      <trkpt lat="40.84241" lon="20.15265">
        <ele>472.63000488281</ele>
        <time>2024-09-26T12:34:07.000Z</time>
      </trkpt>
      <trkpt lat="40.84235" lon="20.15259">
        <ele>473.58999633789</ele>
        <time>2024-09-26T12:34:08.000Z</time>
      </trkpt>
      <trkpt lat="40.84225" lon="20.15249">
        <ele>474.54998779297</ele>
        <time>2024-09-26T12:34:09.000Z</time>
      </trkpt>
      <trkpt lat="40.84219" lon="20.15244">
        <ele>475.0299987793</ele>
        <time>2024-09-26T12:34:10.000Z</time>
      </trkpt>
      <trkpt lat="40.84215" lon="20.1524">
        <ele>475.51000976562</ele>
        <time>2024-09-26T12:34:11.000Z</time>
      </trkpt>
      <trkpt lat="40.84208" lon="20.15232">
        <ele>475.98999023438</ele>
        <time>2024-09-26T12:34:12.000Z</time>
      </trkpt>
      <trkpt lat="40.84203" lon="20.15225">
        <ele>476.95001220703</ele>
        <time>2024-09-26T12:34:13.000Z</time>
      </trkpt>
      <trkpt lat="40.84196" lon="20.15212">
        <ele>477.91000366211</ele>
        <time>2024-09-26T12:34:14.000Z</time>
      </trkpt>
      <trkpt lat="40.84193" lon="20.15208">
        <ele>478.39001464844</ele>
        <time>2024-09-26T12:34:15.000Z</time>
      </trkpt>
      <trkpt lat="40.8419" lon="20.15201">
        <ele>478.86999511719</ele>
        <time>2024-09-26T12:34:16.000Z</time>
      </trkpt>
      <trkpt lat="40.84188" lon="20.15194">
        <ele>479.35000610352</ele>
        <time>2024-09-26T12:34:17.000Z</time>
      </trkpt>
      <trkpt lat="40.84187" lon="20.15185">
        <ele>479.83999633789</ele>
        <time>2024-09-26T12:34:18.000Z</time>
      </trkpt>
      <trkpt lat="40.84188" lon="20.15176">
        <ele>479.83999633789</ele>
        <time>2024-09-26T12:34:19.000Z</time>
      </trkpt>
      <trkpt lat="40.8419" lon="20.15167">
        <ele>479.83999633789</ele>
        <time>2024-09-26T12:34:20.000Z</time>
      </trkpt>
      <trkpt lat="40.84194" lon="20.15157">
        <ele>480.32000732422</ele>
        <time>2024-09-26T12:34:21.000Z</time>
      </trkpt>
      <trkpt lat="40.84199" lon="20.1515">
        <ele>481.2799987793</ele>
        <time>2024-09-26T12:34:22.000Z</time>
      </trkpt>
      <trkpt lat="40.84205" lon="20.15144">
        <ele>481.2799987793</ele>
        <time>2024-09-26T12:34:23.000Z</time>
      </trkpt>
      <trkpt lat="40.84211" lon="20.1514">
        <ele>481.76000976562</ele>
        <time>2024-09-26T12:34:24.000Z</time>
      </trkpt>
      <trkpt lat="40.84218" lon="20.15137">
        <ele>482.23999023438</ele>
        <time>2024-09-26T12:34:25.000Z</time>
      </trkpt>
      <trkpt lat="40.84223" lon="20.15133">
        <ele>482.7200012207</ele>
        <time>2024-09-26T12:34:26.000Z</time>
      </trkpt>
      <trkpt lat="40.84225" lon="20.15127">
        <ele>482.7200012207</ele>
        <time>2024-09-26T12:34:27.000Z</time>
      </trkpt>
      <trkpt lat="40.84226" lon="20.1512">
        <ele>482.7200012207</ele>
        <time>2024-09-26T12:34:28.000Z</time>
      </trkpt>
      <trkpt lat="40.84224" lon="20.15112">
        <ele>483.20001220703</ele>
        <time>2024-09-26T12:34:29.000Z</time>
      </trkpt>
      <trkpt lat="40.8422" lon="20.15104">
        <ele>483.20001220703</ele>
        <time>2024-09-26T12:34:30.000Z</time>
      </trkpt>
      <trkpt lat="40.84215" lon="20.15096">
        <ele>483.67999267578</ele>
        <time>2024-09-26T12:34:31.000Z</time>
      </trkpt>
      <trkpt lat="40.84212" lon="20.15087">
        <ele>483.67999267578</ele>
        <time>2024-09-26T12:34:32.000Z</time>
      </trkpt>
      <trkpt lat="40.84208" lon="20.15078">
        <ele>484.16000366211</ele>
        <time>2024-09-26T12:34:33.000Z</time>
      </trkpt>
      <trkpt lat="40.84205" lon="20.15068">
        <ele>484.16000366211</ele>
        <time>2024-09-26T12:34:34.000Z</time>
      </trkpt>
      <trkpt lat="40.84204" lon="20.15061">
        <ele>484.16000366211</ele>
        <time>2024-09-26T12:34:35.000Z</time>
      </trkpt>
      <trkpt lat="40.84204" lon="20.15053">
        <ele>484.64001464844</ele>
        <time>2024-09-26T12:34:36.000Z</time>
      </trkpt>
      <trkpt lat="40.84205" lon="20.15045">
        <ele>485.11999511719</ele>
        <time>2024-09-26T12:34:37.000Z</time>
      </trkpt>
      <trkpt lat="40.84209" lon="20.15036">
        <ele>486.07998657227</ele>
        <time>2024-09-26T12:34:38.000Z</time>
      </trkpt>
      <trkpt lat="40.84213" lon="20.15031">
        <ele>486.55999755859</ele>
        <time>2024-09-26T12:34:39.000Z</time>
      </trkpt>
      <trkpt lat="40.8422" lon="20.15025">
        <ele>486.55999755859</ele>
        <time>2024-09-26T12:34:40.000Z</time>
      </trkpt>
      <trkpt lat="40.84228" lon="20.15021">
        <ele>487.5299987793</ele>
        <time>2024-09-26T12:34:41.000Z</time>
      </trkpt>
      <trkpt lat="40.84234" lon="20.1502">
        <ele>488.01000976562</ele>
        <time>2024-09-26T12:34:42.000Z</time>
      </trkpt>
      <trkpt lat="40.84242" lon="20.15019">
        <ele>489.45001220703</ele>
        <time>2024-09-26T12:34:43.000Z</time>
      </trkpt>
      <trkpt lat="40.84249" lon="20.15017">
        <ele>490.41000366211</ele>
        <time>2024-09-26T12:34:44.000Z</time>
      </trkpt>
      <trkpt lat="40.84255" lon="20.15013">
        <ele>491.36999511719</ele>
        <time>2024-09-26T12:34:45.000Z</time>
      </trkpt>
      <trkpt lat="40.84259" lon="20.15008">
        <ele>491.85000610352</ele>
        <time>2024-09-26T12:34:46.000Z</time>
      </trkpt>
      <trkpt lat="40.84262" lon="20.15001">
        <ele>492.32998657227</ele>
        <time>2024-09-26T12:34:47.000Z</time>
      </trkpt>
      <trkpt lat="40.84263" lon="20.14993">
        <ele>493.29000854492</ele>
        <time>2024-09-26T12:34:48.000Z</time>
      </trkpt>
      <trkpt lat="40.84263" lon="20.14985">
        <ele>493.76998901367</ele>
        <time>2024-09-26T12:34:49.000Z</time>
      </trkpt>
      <trkpt lat="40.84262" lon="20.14975">
        <ele>494.73999023438</ele>
        <time>2024-09-26T12:34:50.000Z</time>
      </trkpt>
      <trkpt lat="40.84259" lon="20.14966">
        <ele>495.70001220703</ele>
        <time>2024-09-26T12:34:51.000Z</time>
      </trkpt>
      <trkpt lat="40.84249" lon="20.14945">
        <ele>497.14001464844</ele>
        <time>2024-09-26T12:34:53.000Z</time>
      </trkpt>
      <trkpt lat="40.84246" lon="20.14938">
        <ele>498.10000610352</ele>
        <time>2024-09-26T12:34:54.000Z</time>
      </trkpt>
      <trkpt lat="40.84243" lon="20.14929">
        <ele>498.57998657227</ele>
        <time>2024-09-26T12:34:55.000Z</time>
      </trkpt>
      <trkpt lat="40.84238" lon="20.14911">
        <ele>499.54000854492</ele>
        <time>2024-09-26T12:34:56.000Z</time>
      </trkpt>
      <trkpt lat="40.84231" lon="20.14887">
        <ele>501.45999145508</ele>
        <time>2024-09-26T12:34:59.000Z</time>
      </trkpt>
      <trkpt lat="40.8423" lon="20.1488">
        <ele>501.95001220703</ele>
        <time>2024-09-26T12:35:00.000Z</time>
      </trkpt>
      <trkpt lat="40.8423" lon="20.1487">
        <ele>502.42999267578</ele>
        <time>2024-09-26T12:35:01.000Z</time>
      </trkpt>
      <trkpt lat="40.84232" lon="20.14852">
        <ele>503.86999511719</ele>
        <time>2024-09-26T12:35:02.000Z</time>
      </trkpt>
      <trkpt lat="40.84233" lon="20.14847">
        <ele>504.35000610352</ele>
        <time>2024-09-26T12:35:03.000Z</time>
      </trkpt>
      <trkpt lat="40.84233" lon="20.14838">
        <ele>504.82998657227</ele>
        <time>2024-09-26T12:35:04.000Z</time>
      </trkpt>
      <trkpt lat="40.84232" lon="20.14827">
        <ele>505.30999755859</ele>
        <time>2024-09-26T12:35:05.000Z</time>
      </trkpt>
      <trkpt lat="40.8423" lon="20.14816">
        <ele>505.79000854492</ele>
        <time>2024-09-26T12:35:06.000Z</time>
      </trkpt>
      <trkpt lat="40.84225" lon="20.14807">
        <ele>506.75</ele>
        <time>2024-09-26T12:35:07.000Z</time>
      </trkpt>
      <trkpt lat="40.8422" lon="20.14798">
        <ele>507.70999145508</ele>
        <time>2024-09-26T12:35:08.000Z</time>
      </trkpt>
      <trkpt lat="40.84216" lon="20.14791">
        <ele>508.19000244141</ele>
        <time>2024-09-26T12:35:09.000Z</time>
      </trkpt>
      <trkpt lat="40.84212" lon="20.14782">
        <ele>509.64001464844</ele>
        <time>2024-09-26T12:35:10.000Z</time>
      </trkpt>
      <trkpt lat="40.84209" lon="20.14771">
        <ele>510.11999511719</ele>
        <time>2024-09-26T12:35:11.000Z</time>
      </trkpt>
      <trkpt lat="40.84208" lon="20.14759">
        <ele>511.07998657227</ele>
        <time>2024-09-26T12:35:12.000Z</time>
      </trkpt>
      <trkpt lat="40.84207" lon="20.14747">
        <ele>511.55999755859</ele>
        <time>2024-09-26T12:35:13.000Z</time>
      </trkpt>
      <trkpt lat="40.84205" lon="20.14736">
        <ele>512.03997802734</ele>
        <time>2024-09-26T12:35:14.000Z</time>
      </trkpt>
      <trkpt lat="40.84201" lon="20.14728">
        <ele>512.03997802734</ele>
        <time>2024-09-26T12:35:15.000Z</time>
      </trkpt>
      <trkpt lat="40.84196" lon="20.14719">
        <ele>512.52001953125</ele>
        <time>2024-09-26T12:35:16.000Z</time>
      </trkpt>
      <trkpt lat="40.84193" lon="20.14712">
        <ele>513</ele>
        <time>2024-09-26T12:35:17.000Z</time>
      </trkpt>
      <trkpt lat="40.8419" lon="20.14702">
        <ele>513.47998046875</ele>
        <time>2024-09-26T12:35:18.000Z</time>
      </trkpt>
      <trkpt lat="40.84187" lon="20.14683">
        <ele>513.47998046875</ele>
        <time>2024-09-26T12:35:19.000Z</time>
      </trkpt>
      <trkpt lat="40.84186" lon="20.1468">
        <ele>513.96002197266</ele>
        <time>2024-09-26T12:35:20.000Z</time>
      </trkpt>
      <trkpt lat="40.84183" lon="20.14668">
        <ele>513.96002197266</ele>
        <time>2024-09-26T12:35:21.000Z</time>
      </trkpt>
      <trkpt lat="40.84169" lon="20.14641">
        <ele>514.44000244141</ele>
        <time>2024-09-26T12:35:23.000Z</time>
      </trkpt>
      <trkpt lat="40.84165" lon="20.14634">
        <ele>514.91998291016</ele>
        <time>2024-09-26T12:35:24.000Z</time>
      </trkpt>
      <trkpt lat="40.8416" lon="20.14623">
        <ele>514.91998291016</ele>
        <time>2024-09-26T12:35:25.000Z</time>
      </trkpt>
      <trkpt lat="40.84158" lon="20.1462">
        <ele>514.91998291016</ele>
        <time>2024-09-26T12:35:26.000Z</time>
      </trkpt>
      <trkpt lat="40.84153" lon="20.14615">
        <ele>515.40002441406</ele>
        <time>2024-09-26T12:35:27.000Z</time>
      </trkpt>
      <trkpt lat="40.84147" lon="20.14611">
        <ele>515.88000488281</ele>
        <time>2024-09-26T12:35:28.000Z</time>
      </trkpt>
      <trkpt lat="40.84137" lon="20.14604">
        <ele>516.84997558594</ele>
        <time>2024-09-26T12:35:29.000Z</time>
      </trkpt>
      <trkpt lat="40.84133" lon="20.14601">
        <ele>517.33001708984</ele>
        <time>2024-09-26T12:35:30.000Z</time>
      </trkpt>
      <trkpt lat="40.84127" lon="20.14595">
        <ele>517.80999755859</ele>
        <time>2024-09-26T12:35:31.000Z</time>
      </trkpt>
      <trkpt lat="40.8412" lon="20.14588">
        <ele>517.80999755859</ele>
        <time>2024-09-26T12:35:32.000Z</time>
      </trkpt>
      <trkpt lat="40.84115" lon="20.14581">
        <ele>518.28997802734</ele>
        <time>2024-09-26T12:35:33.000Z</time>
      </trkpt>
      <trkpt lat="40.84109" lon="20.1457">
        <ele>518.77001953125</ele>
        <time>2024-09-26T12:35:34.000Z</time>
      </trkpt>
      <trkpt lat="40.84103" lon="20.14561">
        <ele>519.25</ele>
        <time>2024-09-26T12:35:35.000Z</time>
      </trkpt>
      <trkpt lat="40.841" lon="20.14556">
        <ele>519.25</ele>
        <time>2024-09-26T12:35:36.000Z</time>
      </trkpt>
      <trkpt lat="40.84098" lon="20.14548">
        <ele>520.21002197266</ele>
        <time>2024-09-26T12:35:37.000Z</time>
      </trkpt>
      <trkpt lat="40.84098" lon="20.14541">
        <ele>520.69000244141</ele>
        <time>2024-09-26T12:35:38.000Z</time>
      </trkpt>
      <trkpt lat="40.84101" lon="20.14533">
        <ele>520.69000244141</ele>
        <time>2024-09-26T12:35:39.000Z</time>
      </trkpt>
      <trkpt lat="40.84105" lon="20.14527">
        <ele>521.16998291016</ele>
        <time>2024-09-26T12:35:40.000Z</time>
      </trkpt>
      <trkpt lat="40.84121" lon="20.14511">
        <ele>521.16998291016</ele>
        <time>2024-09-26T12:35:42.000Z</time>
      </trkpt>
      <trkpt lat="40.84127" lon="20.14505">
        <ele>521.65002441406</ele>
        <time>2024-09-26T12:35:43.000Z</time>
      </trkpt>
      <trkpt lat="40.84148" lon="20.14488">
        <ele>522.13000488281</ele>
        <time>2024-09-26T12:35:45.000Z</time>
      </trkpt>
      <trkpt lat="40.84157" lon="20.1448">
        <ele>522.60998535156</ele>
        <time>2024-09-26T12:35:46.000Z</time>
      </trkpt>
      <trkpt lat="40.84167" lon="20.14471">
        <ele>522.60998535156</ele>
        <time>2024-09-26T12:35:48.000Z</time>
      </trkpt>
      <trkpt lat="40.84173" lon="20.14465">
        <ele>523.09002685547</ele>
        <time>2024-09-26T12:35:49.000Z</time>
      </trkpt>
      <trkpt lat="40.84178" lon="20.14456">
        <ele>523.09002685547</ele>
        <time>2024-09-26T12:35:50.000Z</time>
      </trkpt>
      <trkpt lat="40.84179" lon="20.14446">
        <ele>523.58001708984</ele>
        <time>2024-09-26T12:35:51.000Z</time>
      </trkpt>
      <trkpt lat="40.84178" lon="20.14435">
        <ele>523.58001708984</ele>
        <time>2024-09-26T12:35:52.000Z</time>
      </trkpt>
      <trkpt lat="40.84174" lon="20.1442">
        <ele>523.58001708984</ele>
        <time>2024-09-26T12:35:53.000Z</time>
      </trkpt>
      <trkpt lat="40.84172" lon="20.14412">
        <ele>524.05999755859</ele>
        <time>2024-09-26T12:35:54.000Z</time>
      </trkpt>
      <trkpt lat="40.8417" lon="20.14402">
        <ele>524.05999755859</ele>
        <time>2024-09-26T12:35:55.000Z</time>
      </trkpt>
      <trkpt lat="40.8417" lon="20.14393">
        <ele>524.05999755859</ele>
        <time>2024-09-26T12:35:56.000Z</time>
      </trkpt>
      <trkpt lat="40.84173" lon="20.14384">
        <ele>524.53997802734</ele>
        <time>2024-09-26T12:35:57.000Z</time>
      </trkpt>
      <trkpt lat="40.84178" lon="20.14374">
        <ele>524.53997802734</ele>
        <time>2024-09-26T12:35:58.000Z</time>
      </trkpt>
      <trkpt lat="40.84182" lon="20.14365">
        <ele>525.02001953125</ele>
        <time>2024-09-26T12:35:59.000Z</time>
      </trkpt>
      <trkpt lat="40.84182" lon="20.14355">
        <ele>525.5</ele>
        <time>2024-09-26T12:36:00.000Z</time>
      </trkpt>
      <trkpt lat="40.84179" lon="20.14346">
        <ele>525.97998046875</ele>
        <time>2024-09-26T12:36:01.000Z</time>
      </trkpt>
      <trkpt lat="40.84174" lon="20.14336">
        <ele>525.97998046875</ele>
        <time>2024-09-26T12:36:02.000Z</time>
      </trkpt>
      <trkpt lat="40.84169" lon="20.14328">
        <ele>525.97998046875</ele>
        <time>2024-09-26T12:36:03.000Z</time>
      </trkpt>
      <trkpt lat="40.84165" lon="20.1432">
        <ele>526.46002197266</ele>
        <time>2024-09-26T12:36:04.000Z</time>
      </trkpt>
      <trkpt lat="40.84165" lon="20.14312">
        <ele>526.94000244141</ele>
        <time>2024-09-26T12:36:05.000Z</time>
      </trkpt>
      <trkpt lat="40.84167" lon="20.14307">
        <ele>526.94000244141</ele>
        <time>2024-09-26T12:36:06.000Z</time>
      </trkpt>
      <trkpt lat="40.84172" lon="20.14302">
        <ele>527.41998291016</ele>
        <time>2024-09-26T12:36:07.000Z</time>
      </trkpt>
      <trkpt lat="40.84179" lon="20.14297">
        <ele>526.94000244141</ele>
        <time>2024-09-26T12:36:08.000Z</time>
      </trkpt>
      <trkpt lat="40.8419" lon="20.14293">
        <ele>526.46002197266</ele>
        <time>2024-09-26T12:36:09.000Z</time>
      </trkpt>
      <trkpt lat="40.84207" lon="20.14287">
        <ele>525.97998046875</ele>
        <time>2024-09-26T12:36:11.000Z</time>
      </trkpt>
      <trkpt lat="40.84218" lon="20.14282">
        <ele>525.97998046875</ele>
        <time>2024-09-26T12:36:12.000Z</time>
      </trkpt>
      <trkpt lat="40.84224" lon="20.14279">
        <ele>525.97998046875</ele>
        <time>2024-09-26T12:36:13.000Z</time>
      </trkpt>
      <trkpt lat="40.84236" lon="20.14275">
        <ele>525.97998046875</ele>
        <time>2024-09-26T12:36:14.000Z</time>
      </trkpt>
      <trkpt lat="40.84244" lon="20.14272">
        <ele>525.5</ele>
        <time>2024-09-26T12:36:15.000Z</time>
      </trkpt>
      <trkpt lat="40.84254" lon="20.14266">
        <ele>525.5</ele>
        <time>2024-09-26T12:36:16.000Z</time>
      </trkpt>
      <trkpt lat="40.84299" lon="20.1423">
        <ele>526.94000244141</ele>
        <time>2024-09-26T12:36:20.000Z</time>
      </trkpt>
      <trkpt lat="40.84314" lon="20.14219">
        <ele>528.38000488281</ele>
        <time>2024-09-26T12:36:22.000Z</time>
      </trkpt>
      <trkpt lat="40.84328" lon="20.14211">
        <ele>528.85998535156</ele>
        <time>2024-09-26T12:36:23.000Z</time>
      </trkpt>
      <trkpt lat="40.84331" lon="20.14208">
        <ele>528.85998535156</ele>
        <time>2024-09-26T12:36:24.000Z</time>
      </trkpt>
      <trkpt lat="40.8434" lon="20.142">
        <ele>529.34002685547</ele>
        <time>2024-09-26T12:36:25.000Z</time>
      </trkpt>
      <trkpt lat="40.84361" lon="20.14174">
        <ele>530.78997802734</ele>
        <time>2024-09-26T12:36:27.000Z</time>
      </trkpt>
      <trkpt lat="40.84365" lon="20.1417">
        <ele>530.78997802734</ele>
        <time>2024-09-26T12:36:28.000Z</time>
      </trkpt>
      <trkpt lat="40.84374" lon="20.14163">
        <ele>531.75</ele>
        <time>2024-09-26T12:36:29.000Z</time>
      </trkpt>
      <trkpt lat="40.84392" lon="20.14152">
        <ele>532.71002197266</ele>
        <time>2024-09-26T12:36:31.000Z</time>
      </trkpt>
      <trkpt lat="40.84401" lon="20.14145">
        <ele>532.71002197266</ele>
        <time>2024-09-26T12:36:32.000Z</time>
      </trkpt>
      <trkpt lat="40.84432" lon="20.1411">
        <ele>535.10998535156</ele>
        <time>2024-09-26T12:36:35.000Z</time>
      </trkpt>
      <trkpt lat="40.84434" lon="20.14109">
        <ele>535.10998535156</ele>
        <time>2024-09-26T12:36:36.000Z</time>
      </trkpt>
      <trkpt lat="40.84442" lon="20.14102">
        <ele>535.59002685547</ele>
        <time>2024-09-26T12:36:37.000Z</time>
      </trkpt>
      <trkpt lat="40.84451" lon="20.14098">
        <ele>536.07000732422</ele>
        <time>2024-09-26T12:36:38.000Z</time>
      </trkpt>
      <trkpt lat="40.84464" lon="20.14093">
        <ele>537.03002929688</ele>
        <time>2024-09-26T12:36:39.000Z</time>
      </trkpt>
      <trkpt lat="40.8447" lon="20.14091">
        <ele>537.98999023438</ele>
        <time>2024-09-26T12:36:40.000Z</time>
      </trkpt>
      <trkpt lat="40.84479" lon="20.14085">
        <ele>538.96002197266</ele>
        <time>2024-09-26T12:36:41.000Z</time>
      </trkpt>
      <trkpt lat="40.84488" lon="20.14079">
        <ele>539.91998291016</ele>
        <time>2024-09-26T12:36:42.000Z</time>
      </trkpt>
      <trkpt lat="40.84504" lon="20.14067">
        <ele>542.32000732422</ele>
        <time>2024-09-26T12:36:44.000Z</time>
      </trkpt>
      <trkpt lat="40.84547" lon="20.14027">
        <ele>547.60998535156</ele>
        <time>2024-09-26T12:36:49.000Z</time>
      </trkpt>
      <trkpt lat="40.84551" lon="20.14023">
        <ele>547.60998535156</ele>
        <time>2024-09-26T12:36:50.000Z</time>
      </trkpt>
      <trkpt lat="40.84558" lon="20.1402">
        <ele>548.09002685547</ele>
        <time>2024-09-26T12:36:51.000Z</time>
      </trkpt>
      <trkpt lat="40.84565" lon="20.1402">
        <ele>548.57000732422</ele>
        <time>2024-09-26T12:36:52.000Z</time>
      </trkpt>
      <trkpt lat="40.84575" lon="20.14024">
        <ele>549.53002929688</ele>
        <time>2024-09-26T12:36:53.000Z</time>
      </trkpt>
      <trkpt lat="40.84579" lon="20.14025">
        <ele>550.01000976562</ele>
        <time>2024-09-26T12:36:54.000Z</time>
      </trkpt>
      <trkpt lat="40.84587" lon="20.14025">
        <ele>550.48999023438</ele>
        <time>2024-09-26T12:36:55.000Z</time>
      </trkpt>
      <trkpt lat="40.84595" lon="20.14022">
        <ele>550.96997070312</ele>
        <time>2024-09-26T12:36:56.000Z</time>
      </trkpt>
      <trkpt lat="40.84602" lon="20.14017">
        <ele>551.45001220703</ele>
        <time>2024-09-26T12:36:57.000Z</time>
      </trkpt>
      <trkpt lat="40.84609" lon="20.1401">
        <ele>552.90002441406</ele>
        <time>2024-09-26T12:36:58.000Z</time>
      </trkpt>
      <trkpt lat="40.84612" lon="20.14004">
        <ele>553.38000488281</ele>
        <time>2024-09-26T12:36:59.000Z</time>
      </trkpt>
      <trkpt lat="40.84614" lon="20.13997">
        <ele>554.34002685547</ele>
        <time>2024-09-26T12:37:00.000Z</time>
      </trkpt>
      <trkpt lat="40.84615" lon="20.13988">
        <ele>555.29998779297</ele>
        <time>2024-09-26T12:37:01.000Z</time>
      </trkpt>
      <trkpt lat="40.84615" lon="20.13976">
        <ele>556.26000976562</ele>
        <time>2024-09-26T12:37:02.000Z</time>
      </trkpt>
      <trkpt lat="40.84615" lon="20.13971">
        <ele>556.73999023438</ele>
        <time>2024-09-26T12:37:03.000Z</time>
      </trkpt>
      <trkpt lat="40.84614" lon="20.13957">
        <ele>558.17999267578</ele>
        <time>2024-09-26T12:37:04.000Z</time>
      </trkpt>
      <trkpt lat="40.84614" lon="20.13949">
        <ele>558.65997314453</ele>
        <time>2024-09-26T12:37:05.000Z</time>
      </trkpt>
      <trkpt lat="40.84614" lon="20.13942">
        <ele>559.61999511719</ele>
        <time>2024-09-26T12:37:06.000Z</time>
      </trkpt>
      <trkpt lat="40.84615" lon="20.13934">
        <ele>560.59002685547</ele>
        <time>2024-09-26T12:37:07.000Z</time>
      </trkpt>
      <trkpt lat="40.84618" lon="20.13922">
        <ele>561.54998779297</ele>
        <time>2024-09-26T12:37:08.000Z</time>
      </trkpt>
      <trkpt lat="40.8462" lon="20.13916">
        <ele>562.51000976562</ele>
        <time>2024-09-26T12:37:09.000Z</time>
      </trkpt>
      <trkpt lat="40.84624" lon="20.13902">
        <ele>563.95001220703</ele>
        <time>2024-09-26T12:37:10.000Z</time>
      </trkpt>
      <trkpt lat="40.84625" lon="20.13899">
        <ele>563.95001220703</ele>
        <time>2024-09-26T12:37:11.000Z</time>
      </trkpt>
      <trkpt lat="40.84627" lon="20.13891">
        <ele>564.42999267578</ele>
        <time>2024-09-26T12:37:12.000Z</time>
      </trkpt>
      <trkpt lat="40.84628" lon="20.13883">
        <ele>564.90997314453</ele>
        <time>2024-09-26T12:37:13.000Z</time>
      </trkpt>
      <trkpt lat="40.84629" lon="20.13869">
        <ele>566.34997558594</ele>
        <time>2024-09-26T12:37:14.000Z</time>
      </trkpt>
      <trkpt lat="40.84629" lon="20.13854">
        <ele>567.79998779297</ele>
        <time>2024-09-26T12:37:16.000Z</time>
      </trkpt>
      <trkpt lat="40.84629" lon="20.13838">
        <ele>569.23999023438</ele>
        <time>2024-09-26T12:37:18.000Z</time>
      </trkpt>
      <trkpt lat="40.84631" lon="20.13827">
        <ele>570.67999267578</ele>
        <time>2024-09-26T12:37:19.000Z</time>
      </trkpt>
      <trkpt lat="40.84632" lon="20.1382">
        <ele>571.15997314453</ele>
        <time>2024-09-26T12:37:20.000Z</time>
      </trkpt>
      <trkpt lat="40.84633" lon="20.13808">
        <ele>572.11999511719</ele>
        <time>2024-09-26T12:37:21.000Z</time>
      </trkpt>
      <trkpt lat="40.84635" lon="20.13803">
        <ele>573.08001708984</ele>
        <time>2024-09-26T12:37:22.000Z</time>
      </trkpt>
      <trkpt lat="40.84638" lon="20.13794">
        <ele>574.03997802734</ele>
        <time>2024-09-26T12:37:23.000Z</time>
      </trkpt>
      <trkpt lat="40.84642" lon="20.13787">
        <ele>574.53002929688</ele>
        <time>2024-09-26T12:37:24.000Z</time>
      </trkpt>
      <trkpt lat="40.84649" lon="20.13776">
        <ele>575.96997070312</ele>
        <time>2024-09-26T12:37:25.000Z</time>
      </trkpt>
      <trkpt lat="40.8465" lon="20.13775">
        <ele>575.96997070312</ele>
        <time>2024-09-26T12:37:26.000Z</time>
      </trkpt>
      <trkpt lat="40.84653" lon="20.13768">
        <ele>576.45001220703</ele>
        <time>2024-09-26T12:37:27.000Z</time>
      </trkpt>
      <trkpt lat="40.84656" lon="20.1376">
        <ele>576.92999267578</ele>
        <time>2024-09-26T12:37:28.000Z</time>
      </trkpt>
      <trkpt lat="40.84657" lon="20.13751">
        <ele>577.89001464844</ele>
        <time>2024-09-26T12:37:29.000Z</time>
      </trkpt>
      <trkpt lat="40.84657" lon="20.13742">
        <ele>578.36999511719</ele>
        <time>2024-09-26T12:37:30.000Z</time>
      </trkpt>
      <trkpt lat="40.84656" lon="20.13725">
        <ele>579.33001708984</ele>
        <time>2024-09-26T12:37:31.000Z</time>
      </trkpt>
      <trkpt lat="40.84656" lon="20.13723">
        <ele>579.33001708984</ele>
        <time>2024-09-26T12:37:32.000Z</time>
      </trkpt>
      <trkpt lat="40.84657" lon="20.13716">
        <ele>579.80999755859</ele>
        <time>2024-09-26T12:37:33.000Z</time>
      </trkpt>
      <trkpt lat="40.84658" lon="20.13709">
        <ele>579.80999755859</ele>
        <time>2024-09-26T12:37:34.000Z</time>
      </trkpt>
      <trkpt lat="40.8466" lon="20.13702">
        <ele>579.80999755859</ele>
        <time>2024-09-26T12:37:35.000Z</time>
      </trkpt>
      <trkpt lat="40.84663" lon="20.13695">
        <ele>579.80999755859</ele>
        <time>2024-09-26T12:37:36.000Z</time>
      </trkpt>
      <trkpt lat="40.84667" lon="20.13687">
        <ele>579.33001708984</ele>
        <time>2024-09-26T12:37:37.000Z</time>
      </trkpt>
      <trkpt lat="40.84693" lon="20.13637">
        <ele>576.45001220703</ele>
        <time>2024-09-26T12:37:43.000Z</time>
      </trkpt>
      <trkpt lat="40.84697" lon="20.13628">
        <ele>576.45001220703</ele>
        <time>2024-09-26T12:37:44.000Z</time>
      </trkpt>
      <trkpt lat="40.84711" lon="20.13558">
        <ele>579.80999755859</ele>
        <time>2024-09-26T12:37:50.000Z</time>
      </trkpt>
      <trkpt lat="40.84711" lon="20.13552">
        <ele>580.28997802734</ele>
        <time>2024-09-26T12:37:51.000Z</time>
      </trkpt>
      <trkpt lat="40.84711" lon="20.13539">
        <ele>581.72998046875</ele>
        <time>2024-09-26T12:37:53.000Z</time>
      </trkpt>
      <trkpt lat="40.84712" lon="20.13516">
        <ele>582.70001220703</ele>
        <time>2024-09-26T12:37:56.000Z</time>
      </trkpt>
      <trkpt lat="40.84716" lon="20.13473">
        <ele>584.61999511719</ele>
        <time>2024-09-26T12:38:00.000Z</time>
      </trkpt>
      <trkpt lat="40.84717" lon="20.13472">
        <ele>584.61999511719</ele>
        <time>2024-09-26T12:38:01.000Z</time>
      </trkpt>
      <trkpt lat="40.84717" lon="20.13462">
        <ele>584.61999511719</ele>
        <time>2024-09-26T12:38:02.000Z</time>
      </trkpt>
      <trkpt lat="40.84717" lon="20.13454">
        <ele>585.09997558594</ele>
        <time>2024-09-26T12:38:03.000Z</time>
      </trkpt>
      <trkpt lat="40.84716" lon="20.13445">
        <ele>585.58001708984</ele>
        <time>2024-09-26T12:38:04.000Z</time>
      </trkpt>
      <trkpt lat="40.84713" lon="20.13436">
        <ele>585.58001708984</ele>
        <time>2024-09-26T12:38:05.000Z</time>
      </trkpt>
      <trkpt lat="40.84708" lon="20.13429">
        <ele>586.05999755859</ele>
        <time>2024-09-26T12:38:06.000Z</time>
      </trkpt>
      <trkpt lat="40.84702" lon="20.13423">
        <ele>586.53997802734</ele>
        <time>2024-09-26T12:38:07.000Z</time>
      </trkpt>
      <trkpt lat="40.84693" lon="20.13417">
        <ele>587.02001953125</ele>
        <time>2024-09-26T12:38:08.000Z</time>
      </trkpt>
      <trkpt lat="40.84687" lon="20.13413">
        <ele>587.02001953125</ele>
        <time>2024-09-26T12:38:09.000Z</time>
      </trkpt>
      <trkpt lat="40.84683" lon="20.13409">
        <ele>587.5</ele>
        <time>2024-09-26T12:38:10.000Z</time>
      </trkpt>
      <trkpt lat="40.84678" lon="20.13403">
        <ele>587.97998046875</ele>
        <time>2024-09-26T12:38:11.000Z</time>
      </trkpt>
      <trkpt lat="40.84675" lon="20.13395">
        <ele>587.97998046875</ele>
        <time>2024-09-26T12:38:12.000Z</time>
      </trkpt>
      <trkpt lat="40.84673" lon="20.13387">
        <ele>588.46002197266</ele>
        <time>2024-09-26T12:38:13.000Z</time>
      </trkpt>
      <trkpt lat="40.84674" lon="20.13379">
        <ele>588.95001220703</ele>
        <time>2024-09-26T12:38:14.000Z</time>
      </trkpt>
      <trkpt lat="40.84677" lon="20.13366">
        <ele>589.90997314453</ele>
        <time>2024-09-26T12:38:15.000Z</time>
      </trkpt>
      <trkpt lat="40.84678" lon="20.13361">
        <ele>590.39001464844</ele>
        <time>2024-09-26T12:38:16.000Z</time>
      </trkpt>
      <trkpt lat="40.84677" lon="20.13353">
        <ele>590.86999511719</ele>
        <time>2024-09-26T12:38:17.000Z</time>
      </trkpt>
      <trkpt lat="40.84675" lon="20.13346">
        <ele>591.34997558594</ele>
        <time>2024-09-26T12:38:18.000Z</time>
      </trkpt>
      <trkpt lat="40.8467" lon="20.13339">
        <ele>591.83001708984</ele>
        <time>2024-09-26T12:38:19.000Z</time>
      </trkpt>
      <trkpt lat="40.84662" lon="20.13331">
        <ele>592.30999755859</ele>
        <time>2024-09-26T12:38:20.000Z</time>
      </trkpt>
      <trkpt lat="40.84659" lon="20.13328">
        <ele>592.78997802734</ele>
        <time>2024-09-26T12:38:21.000Z</time>
      </trkpt>
      <trkpt lat="40.84654" lon="20.13321">
        <ele>593.27001953125</ele>
        <time>2024-09-26T12:38:22.000Z</time>
      </trkpt>
      <trkpt lat="40.84651" lon="20.13312">
        <ele>593.75</ele>
        <time>2024-09-26T12:38:23.000Z</time>
      </trkpt>
      <trkpt lat="40.84649" lon="20.13302">
        <ele>593.75</ele>
        <time>2024-09-26T12:38:24.000Z</time>
      </trkpt>
      <trkpt lat="40.84647" lon="20.13291">
        <ele>594.71002197266</ele>
        <time>2024-09-26T12:38:25.000Z</time>
      </trkpt>
      <trkpt lat="40.84647" lon="20.13284">
        <ele>595.19000244141</ele>
        <time>2024-09-26T12:38:26.000Z</time>
      </trkpt>
      <trkpt lat="40.84647" lon="20.13267">
        <ele>596.64001464844</ele>
        <time>2024-09-26T12:38:27.000Z</time>
      </trkpt>
      <trkpt lat="40.84647" lon="20.13265">
        <ele>596.64001464844</ele>
        <time>2024-09-26T12:38:28.000Z</time>
      </trkpt>
      <trkpt lat="40.84646" lon="20.13256">
        <ele>597.59997558594</ele>
        <time>2024-09-26T12:38:29.000Z</time>
      </trkpt>
      <trkpt lat="40.84643" lon="20.13247">
        <ele>598.55999755859</ele>
        <time>2024-09-26T12:38:30.000Z</time>
      </trkpt>
      <trkpt lat="40.8464" lon="20.13239">
        <ele>599.03997802734</ele>
        <time>2024-09-26T12:38:31.000Z</time>
      </trkpt>
      <trkpt lat="40.84635" lon="20.13232">
        <ele>599.03997802734</ele>
        <time>2024-09-26T12:38:32.000Z</time>
      </trkpt>
      <trkpt lat="40.84629" lon="20.13226">
        <ele>599.52001953125</ele>
        <time>2024-09-26T12:38:33.000Z</time>
      </trkpt>
      <trkpt lat="40.84622" lon="20.13222">
        <ele>599.52001953125</ele>
        <time>2024-09-26T12:38:34.000Z</time>
      </trkpt>
      <trkpt lat="40.84616" lon="20.13221">
        <ele>599.03997802734</ele>
        <time>2024-09-26T12:38:35.000Z</time>
      </trkpt>
      <trkpt lat="40.84609" lon="20.13221">
        <ele>598.55999755859</ele>
        <time>2024-09-26T12:38:36.000Z</time>
      </trkpt>
      <trkpt lat="40.84596" lon="20.13223">
        <ele>597.11999511719</ele>
        <time>2024-09-26T12:38:43.000Z</time>
      </trkpt>
      <trkpt lat="40.84586" lon="20.13223">
        <ele>596.15002441406</ele>
        <time>2024-09-26T12:38:56.000Z</time>
      </trkpt>
      <trkpt lat="40.84584" lon="20.13224">
        <ele>596.15002441406</ele>
        <time>2024-09-26T12:38:57.000Z</time>
      </trkpt>
      <trkpt lat="40.8458" lon="20.13224">
        <ele>595.66998291016</ele>
        <time>2024-09-26T12:38:58.000Z</time>
      </trkpt>
      <trkpt lat="40.84568" lon="20.13224">
        <ele>595.19000244141</ele>
        <time>2024-09-26T12:39:00.000Z</time>
      </trkpt>
      <trkpt lat="40.84563" lon="20.13224">
        <ele>594.71002197266</ele>
        <time>2024-09-26T12:39:01.000Z</time>
      </trkpt>
      <trkpt lat="40.84557" lon="20.13221">
        <ele>594.22998046875</ele>
        <time>2024-09-26T12:39:02.000Z</time>
      </trkpt>
      <trkpt lat="40.84532" lon="20.13204">
        <ele>591.83001708984</ele>
        <time>2024-09-26T12:39:06.000Z</time>
      </trkpt>
      <trkpt lat="40.84523" lon="20.13198">
        <ele>590.86999511719</ele>
        <time>2024-09-26T12:39:08.000Z</time>
      </trkpt>
      <trkpt lat="40.84519" lon="20.13195">
        <ele>590.86999511719</ele>
        <time>2024-09-26T12:39:09.000Z</time>
      </trkpt>
      <trkpt lat="40.84515" lon="20.13191">
        <ele>589.90997314453</ele>
        <time>2024-09-26T12:39:10.000Z</time>
      </trkpt>
      <trkpt lat="40.84512" lon="20.13186">
        <ele>589.42999267578</ele>
        <time>2024-09-26T12:39:11.000Z</time>
      </trkpt>
      <trkpt lat="40.84511" lon="20.1318">
        <ele>589.42999267578</ele>
        <time>2024-09-26T12:39:12.000Z</time>
      </trkpt>
      <trkpt lat="40.84511" lon="20.13174">
        <ele>588.95001220703</ele>
        <time>2024-09-26T12:39:13.000Z</time>
      </trkpt>
      <trkpt lat="40.84512" lon="20.13167">
        <ele>587.97998046875</ele>
        <time>2024-09-26T12:39:14.000Z</time>
      </trkpt>
      <trkpt lat="40.84514" lon="20.1316">
        <ele>587.5</ele>
        <time>2024-09-26T12:39:15.000Z</time>
      </trkpt>
      <trkpt lat="40.84517" lon="20.13149">
        <ele>586.53997802734</ele>
        <time>2024-09-26T12:39:16.000Z</time>
      </trkpt>
      <trkpt lat="40.8452" lon="20.13139">
        <ele>585.58001708984</ele>
        <time>2024-09-26T12:39:18.000Z</time>
      </trkpt>
      <trkpt lat="40.84523" lon="20.13128">
        <ele>585.09997558594</ele>
        <time>2024-09-26T12:39:19.000Z</time>
      </trkpt>
      <trkpt lat="40.84525" lon="20.13123">
        <ele>584.61999511719</ele>
        <time>2024-09-26T12:39:20.000Z</time>
      </trkpt>
      <trkpt lat="40.84529" lon="20.13111">
        <ele>583.65997314453</ele>
        <time>2024-09-26T12:39:22.000Z</time>
      </trkpt>
      <trkpt lat="40.8453" lon="20.13108">
        <ele>583.65997314453</ele>
        <time>2024-09-26T12:39:23.000Z</time>
      </trkpt>
      <trkpt lat="40.84532" lon="20.13102">
        <ele>583.65997314453</ele>
        <time>2024-09-26T12:39:24.000Z</time>
      </trkpt>
      <trkpt lat="40.84535" lon="20.13093">
        <ele>582.70001220703</ele>
        <time>2024-09-26T12:39:25.000Z</time>
      </trkpt>
      <trkpt lat="40.84537" lon="20.13086">
        <ele>582.70001220703</ele>
        <time>2024-09-26T12:39:26.000Z</time>
      </trkpt>
      <trkpt lat="40.84541" lon="20.13074">
        <ele>581.72998046875</ele>
        <time>2024-09-26T12:39:28.000Z</time>
      </trkpt>
      <trkpt lat="40.84543" lon="20.13068">
        <ele>581.72998046875</ele>
        <time>2024-09-26T12:39:29.000Z</time>
      </trkpt>
      <trkpt lat="40.84544" lon="20.13061">
        <ele>581.72998046875</ele>
        <time>2024-09-26T12:39:30.000Z</time>
      </trkpt>
      <trkpt lat="40.84544" lon="20.13054">
        <ele>581.72998046875</ele>
        <time>2024-09-26T12:39:31.000Z</time>
      </trkpt>
      <trkpt lat="40.84543" lon="20.13047">
        <ele>581.72998046875</ele>
        <time>2024-09-26T12:39:32.000Z</time>
      </trkpt>
      <trkpt lat="40.84542" lon="20.13041">
        <ele>581.72998046875</ele>
        <time>2024-09-26T12:39:33.000Z</time>
      </trkpt>
      <trkpt lat="40.84539" lon="20.13035">
        <ele>581.72998046875</ele>
        <time>2024-09-26T12:39:34.000Z</time>
      </trkpt>
      <trkpt lat="40.84535" lon="20.13028">
        <ele>581.25</ele>
        <time>2024-09-26T12:39:35.000Z</time>
      </trkpt>
      <trkpt lat="40.84532" lon="20.13024">
        <ele>581.25</ele>
        <time>2024-09-26T12:39:36.000Z</time>
      </trkpt>
      <trkpt lat="40.8453" lon="20.13018">
        <ele>580.77001953125</ele>
        <time>2024-09-26T12:39:37.000Z</time>
      </trkpt>
      <trkpt lat="40.84529" lon="20.13012">
        <ele>580.28997802734</ele>
        <time>2024-09-26T12:39:38.000Z</time>
      </trkpt>
      <trkpt lat="40.84528" lon="20.13005">
        <ele>579.80999755859</ele>
        <time>2024-09-26T12:39:39.000Z</time>
      </trkpt>
      <trkpt lat="40.84528" lon="20.12999">
        <ele>579.33001708984</ele>
        <time>2024-09-26T12:39:40.000Z</time>
      </trkpt>
      <trkpt lat="40.8453" lon="20.12992">
        <ele>579.33001708984</ele>
        <time>2024-09-26T12:39:41.000Z</time>
      </trkpt>
      <trkpt lat="40.84531" lon="20.12988">
        <ele>578.84997558594</ele>
        <time>2024-09-26T12:39:42.000Z</time>
      </trkpt>
      <trkpt lat="40.84533" lon="20.12982">
        <ele>578.36999511719</ele>
        <time>2024-09-26T12:39:43.000Z</time>
      </trkpt>
      <trkpt lat="40.84537" lon="20.1297">
        <ele>577.40997314453</ele>
        <time>2024-09-26T12:39:45.000Z</time>
      </trkpt>
      <trkpt lat="40.84539" lon="20.12965">
        <ele>576.92999267578</ele>
        <time>2024-09-26T12:39:46.000Z</time>
      </trkpt>
      <trkpt lat="40.84546" lon="20.12948">
        <ele>575.96997070312</ele>
        <time>2024-09-26T12:39:50.000Z</time>
      </trkpt>
      <trkpt lat="40.84537" lon="20.12915">
        <ele>574.53002929688</ele>
        <time>2024-09-26T12:39:57.000Z</time>
      </trkpt>
      <trkpt lat="40.84532" lon="20.12907">
        <ele>574.03997802734</ele>
        <time>2024-09-26T12:39:59.000Z</time>
      </trkpt>
      <trkpt lat="40.84531" lon="20.12905">
        <ele>574.03997802734</ele>
        <time>2024-09-26T12:40:00.000Z</time>
      </trkpt>
      <trkpt lat="40.84529" lon="20.12901">
        <ele>574.03997802734</ele>
        <time>2024-09-26T12:40:01.000Z</time>
      </trkpt>
      <trkpt lat="40.84528" lon="20.12896">
        <ele>573.55999755859</ele>
        <time>2024-09-26T12:40:02.000Z</time>
      </trkpt>
      <trkpt lat="40.84527" lon="20.1289">
        <ele>573.08001708984</ele>
        <time>2024-09-26T12:40:03.000Z</time>
      </trkpt>
      <trkpt lat="40.84527" lon="20.12883">
        <ele>572.59997558594</ele>
        <time>2024-09-26T12:40:04.000Z</time>
      </trkpt>
      <trkpt lat="40.84528" lon="20.12877">
        <ele>571.64001464844</ele>
        <time>2024-09-26T12:40:05.000Z</time>
      </trkpt>
      <trkpt lat="40.84529" lon="20.12872">
        <ele>571.15997314453</ele>
        <time>2024-09-26T12:40:06.000Z</time>
      </trkpt>
      <trkpt lat="40.84531" lon="20.12865">
        <ele>570.20001220703</ele>
        <time>2024-09-26T12:40:07.000Z</time>
      </trkpt>
      <trkpt lat="40.84532" lon="20.12861">
        <ele>569.71997070312</ele>
        <time>2024-09-26T12:40:08.000Z</time>
      </trkpt>
      <trkpt lat="40.84534" lon="20.12856">
        <ele>569.71997070312</ele>
        <time>2024-09-26T12:40:09.000Z</time>
      </trkpt>
      <trkpt lat="40.84536" lon="20.12849">
        <ele>568.76000976562</ele>
        <time>2024-09-26T12:40:10.000Z</time>
      </trkpt>
      <trkpt lat="40.84537" lon="20.12844">
        <ele>568.76000976562</ele>
        <time>2024-09-26T12:40:11.000Z</time>
      </trkpt>
      <trkpt lat="40.84538" lon="20.12838">
        <ele>568.28002929688</ele>
        <time>2024-09-26T12:40:12.000Z</time>
      </trkpt>
      <trkpt lat="40.84538" lon="20.12831">
        <ele>568.28002929688</ele>
        <time>2024-09-26T12:40:13.000Z</time>
      </trkpt>
      <trkpt lat="40.84536" lon="20.12821">
        <ele>568.76000976562</ele>
        <time>2024-09-26T12:40:14.000Z</time>
      </trkpt>
      <trkpt lat="40.84535" lon="20.12818">
        <ele>568.76000976562</ele>
        <time>2024-09-26T12:40:15.000Z</time>
      </trkpt>
      <trkpt lat="40.84547" lon="20.12791">
        <ele>567.32000732422</ele>
        <time>2024-09-26T12:40:22.000Z</time>
      </trkpt>
      <trkpt lat="40.84558" lon="20.12769">
        <ele>565.86999511719</ele>
        <time>2024-09-26T12:40:28.000Z</time>
      </trkpt>
      <trkpt lat="40.84562" lon="20.12762">
        <ele>564.90997314453</ele>
        <time>2024-09-26T12:40:29.000Z</time>
      </trkpt>
      <trkpt lat="40.84564" lon="20.12758">
        <ele>564.90997314453</ele>
        <time>2024-09-26T12:40:30.000Z</time>
      </trkpt>
      <trkpt lat="40.84565" lon="20.12756">
        <ele>564.90997314453</ele>
        <time>2024-09-26T12:40:31.000Z</time>
      </trkpt>
      <trkpt lat="40.84563" lon="20.12724">
        <ele>563.95001220703</ele>
        <time>2024-09-26T12:40:39.000Z</time>
      </trkpt>
      <trkpt lat="40.84552" lon="20.12698">
        <ele>560.59002685547</ele>
        <time>2024-09-26T12:40:48.000Z</time>
      </trkpt>
      <trkpt lat="40.84554" lon="20.12691">
        <ele>559.14001464844</ele>
        <time>2024-09-26T12:40:50.000Z</time>
      </trkpt>
      <trkpt lat="40.84554" lon="20.12685">
        <ele>558.65997314453</ele>
        <time>2024-09-26T12:40:51.000Z</time>
      </trkpt>
      <trkpt lat="40.84554" lon="20.12678">
        <ele>558.17999267578</ele>
        <time>2024-09-26T12:40:52.000Z</time>
      </trkpt>
      <trkpt lat="40.84551" lon="20.12673">
        <ele>557.70001220703</ele>
        <time>2024-09-26T12:40:53.000Z</time>
      </trkpt>
      <trkpt lat="40.84548" lon="20.12669">
        <ele>557.70001220703</ele>
        <time>2024-09-26T12:40:54.000Z</time>
      </trkpt>
      <trkpt lat="40.84544" lon="20.12667">
        <ele>557.70001220703</ele>
        <time>2024-09-26T12:40:55.000Z</time>
      </trkpt>
      <trkpt lat="40.8452" lon="20.12673">
        <ele>557.70001220703</ele>
        <time>2024-09-26T12:41:02.000Z</time>
      </trkpt>
      <trkpt lat="40.84518" lon="20.12674">
        <ele>557.70001220703</ele>
        <time>2024-09-26T12:41:13.000Z</time>
      </trkpt>
      <trkpt lat="40.84504" lon="20.1268">
        <ele>557.21997070312</ele>
        <time>2024-09-26T12:43:02.000Z</time>
      </trkpt>
      <trkpt lat="40.84501" lon="20.12681">
        <ele>557.21997070312</ele>
        <time>2024-09-26T12:43:03.000Z</time>
      </trkpt>
      <trkpt lat="40.84496" lon="20.12681">
        <ele>557.70001220703</ele>
        <time>2024-09-26T12:43:04.000Z</time>
      </trkpt>
      <trkpt lat="40.84492" lon="20.1268">
        <ele>557.70001220703</ele>
        <time>2024-09-26T12:43:05.000Z</time>
      </trkpt>
      <trkpt lat="40.84488" lon="20.12676">
        <ele>558.17999267578</ele>
        <time>2024-09-26T12:43:06.000Z</time>
      </trkpt>
      <trkpt lat="40.84485" lon="20.1267">
        <ele>558.17999267578</ele>
        <time>2024-09-26T12:43:07.000Z</time>
      </trkpt>
      <trkpt lat="40.84484" lon="20.12665">
        <ele>558.65997314453</ele>
        <time>2024-09-26T12:43:08.000Z</time>
      </trkpt>
      <trkpt lat="40.84482" lon="20.12657">
        <ele>559.61999511719</ele>
        <time>2024-09-26T12:43:09.000Z</time>
      </trkpt>
      <trkpt lat="40.84481" lon="20.12651">
        <ele>560.10998535156</ele>
        <time>2024-09-26T12:43:10.000Z</time>
      </trkpt>
      <trkpt lat="40.84479" lon="20.12644">
        <ele>561.07000732422</ele>
        <time>2024-09-26T12:43:11.000Z</time>
      </trkpt>
      <trkpt lat="40.84477" lon="20.12637">
        <ele>561.54998779297</ele>
        <time>2024-09-26T12:43:12.000Z</time>
      </trkpt>
      <trkpt lat="40.84475" lon="20.12631">
        <ele>562.51000976562</ele>
        <time>2024-09-26T12:43:13.000Z</time>
      </trkpt>
      <trkpt lat="40.84474" lon="20.12623">
        <ele>563.46997070312</ele>
        <time>2024-09-26T12:43:14.000Z</time>
      </trkpt>
      <trkpt lat="40.84474" lon="20.12616">
        <ele>564.42999267578</ele>
        <time>2024-09-26T12:43:15.000Z</time>
      </trkpt>
      <trkpt lat="40.84475" lon="20.12609">
        <ele>564.90997314453</ele>
        <time>2024-09-26T12:43:16.000Z</time>
      </trkpt>
      <trkpt lat="40.84475" lon="20.12601">
        <ele>565.86999511719</ele>
        <time>2024-09-26T12:43:17.000Z</time>
      </trkpt>
      <trkpt lat="40.84478" lon="20.1259">
        <ele>566.83001708984</ele>
        <time>2024-09-26T12:43:18.000Z</time>
      </trkpt>
      <trkpt lat="40.84483" lon="20.12575">
        <ele>568.28002929688</ele>
        <time>2024-09-26T12:43:20.000Z</time>
      </trkpt>
      <trkpt lat="40.84486" lon="20.12568">
        <ele>569.23999023438</ele>
        <time>2024-09-26T12:43:21.000Z</time>
      </trkpt>
      <trkpt lat="40.84488" lon="20.12559">
        <ele>569.71997070312</ele>
        <time>2024-09-26T12:43:22.000Z</time>
      </trkpt>
      <trkpt lat="40.8449" lon="20.12551">
        <ele>570.20001220703</ele>
        <time>2024-09-26T12:43:23.000Z</time>
      </trkpt>
      <trkpt lat="40.84489" lon="20.12544">
        <ele>570.67999267578</ele>
        <time>2024-09-26T12:43:24.000Z</time>
      </trkpt>
      <trkpt lat="40.84487" lon="20.12538">
        <ele>570.67999267578</ele>
        <time>2024-09-26T12:43:25.000Z</time>
      </trkpt>
      <trkpt lat="40.84483" lon="20.12534">
        <ele>570.67999267578</ele>
        <time>2024-09-26T12:43:26.000Z</time>
      </trkpt>
      <trkpt lat="40.84478" lon="20.12532">
        <ele>571.15997314453</ele>
        <time>2024-09-26T12:43:27.000Z</time>
      </trkpt>
      <trkpt lat="40.84471" lon="20.12532">
        <ele>571.64001464844</ele>
        <time>2024-09-26T12:43:28.000Z</time>
      </trkpt>
      <trkpt lat="40.84462" lon="20.12533">
        <ele>572.59997558594</ele>
        <time>2024-09-26T12:43:29.000Z</time>
      </trkpt>
      <trkpt lat="40.84459" lon="20.12533">
        <ele>572.59997558594</ele>
        <time>2024-09-26T12:43:30.000Z</time>
      </trkpt>
      <trkpt lat="40.84454" lon="20.12533">
        <ele>573.55999755859</ele>
        <time>2024-09-26T12:43:31.000Z</time>
      </trkpt>
      <trkpt lat="40.84448" lon="20.12531">
        <ele>574.03997802734</ele>
        <time>2024-09-26T12:43:32.000Z</time>
      </trkpt>
      <trkpt lat="40.84442" lon="20.12528">
        <ele>574.03997802734</ele>
        <time>2024-09-26T12:43:33.000Z</time>
      </trkpt>
      <trkpt lat="40.84437" lon="20.12524">
        <ele>574.53002929688</ele>
        <time>2024-09-26T12:43:34.000Z</time>
      </trkpt>
      <trkpt lat="40.84426" lon="20.12515">
        <ele>574.53002929688</ele>
        <time>2024-09-26T12:43:35.000Z</time>
      </trkpt>
      <trkpt lat="40.84424" lon="20.12513">
        <ele>574.53002929688</ele>
        <time>2024-09-26T12:43:36.000Z</time>
      </trkpt>
      <trkpt lat="40.84419" lon="20.12507">
        <ele>574.53002929688</ele>
        <time>2024-09-26T12:43:37.000Z</time>
      </trkpt>
      <trkpt lat="40.84411" lon="20.12499">
        <ele>574.53002929688</ele>
        <time>2024-09-26T12:43:38.000Z</time>
      </trkpt>
      <trkpt lat="40.84406" lon="20.12494">
        <ele>574.53002929688</ele>
        <time>2024-09-26T12:43:39.000Z</time>
      </trkpt>
      <trkpt lat="40.84402" lon="20.12491">
        <ele>575.01000976562</ele>
        <time>2024-09-26T12:43:40.000Z</time>
      </trkpt>
      <trkpt lat="40.84398" lon="20.12485">
        <ele>575.01000976562</ele>
        <time>2024-09-26T12:43:41.000Z</time>
      </trkpt>
      <trkpt lat="40.84394" lon="20.12478">
        <ele>575.01000976562</ele>
        <time>2024-09-26T12:43:42.000Z</time>
      </trkpt>
      <trkpt lat="40.84391" lon="20.1247">
        <ele>575.48999023438</ele>
        <time>2024-09-26T12:43:43.000Z</time>
      </trkpt>
      <trkpt lat="40.84389" lon="20.12461">
        <ele>575.48999023438</ele>
        <time>2024-09-26T12:43:44.000Z</time>
      </trkpt>
      <trkpt lat="40.84389" lon="20.12452">
        <ele>575.48999023438</ele>
        <time>2024-09-26T12:43:45.000Z</time>
      </trkpt>
      <trkpt lat="40.84392" lon="20.12429">
        <ele>575.48999023438</ele>
        <time>2024-09-26T12:43:47.000Z</time>
      </trkpt>
      <trkpt lat="40.84393" lon="20.12423">
        <ele>575.48999023438</ele>
        <time>2024-09-26T12:43:48.000Z</time>
      </trkpt>
      <trkpt lat="40.84393" lon="20.12414">
        <ele>575.48999023438</ele>
        <time>2024-09-26T12:43:49.000Z</time>
      </trkpt>
      <trkpt lat="40.84393" lon="20.12404">
        <ele>575.48999023438</ele>
        <time>2024-09-26T12:43:50.000Z</time>
      </trkpt>
      <trkpt lat="40.8439" lon="20.12372">
        <ele>575.01000976562</ele>
        <time>2024-09-26T12:43:53.000Z</time>
      </trkpt>
      <trkpt lat="40.8439" lon="20.12371">
        <ele>575.01000976562</ele>
        <time>2024-09-26T12:43:54.000Z</time>
      </trkpt>
      <trkpt lat="40.84388" lon="20.12365">
        <ele>574.53002929688</ele>
        <time>2024-09-26T12:43:55.000Z</time>
      </trkpt>
      <trkpt lat="40.84384" lon="20.1236">
        <ele>574.53002929688</ele>
        <time>2024-09-26T12:43:56.000Z</time>
      </trkpt>
      <trkpt lat="40.84379" lon="20.12359">
        <ele>574.53002929688</ele>
        <time>2024-09-26T12:43:57.000Z</time>
      </trkpt>
      <trkpt lat="40.84374" lon="20.1236">
        <ele>574.53002929688</ele>
        <time>2024-09-26T12:43:58.000Z</time>
      </trkpt>
      <trkpt lat="40.84369" lon="20.12364">
        <ele>574.53002929688</ele>
        <time>2024-09-26T12:43:59.000Z</time>
      </trkpt>
      <trkpt lat="40.84365" lon="20.1237">
        <ele>574.53002929688</ele>
        <time>2024-09-26T12:44:00.000Z</time>
      </trkpt>
      <trkpt lat="40.84362" lon="20.12377">
        <ele>574.53002929688</ele>
        <time>2024-09-26T12:44:01.000Z</time>
      </trkpt>
      <trkpt lat="40.84359" lon="20.12384">
        <ele>575.01000976562</ele>
        <time>2024-09-26T12:44:02.000Z</time>
      </trkpt>
      <trkpt lat="40.84357" lon="20.12393">
        <ele>575.01000976562</ele>
        <time>2024-09-26T12:44:03.000Z</time>
      </trkpt>
      <trkpt lat="40.84353" lon="20.12406">
        <ele>575.48999023438</ele>
        <time>2024-09-26T12:44:04.000Z</time>
      </trkpt>
      <trkpt lat="40.84352" lon="20.12409">
        <ele>575.96997070312</ele>
        <time>2024-09-26T12:44:05.000Z</time>
      </trkpt>
      <trkpt lat="40.84349" lon="20.12415">
        <ele>576.45001220703</ele>
        <time>2024-09-26T12:44:06.000Z</time>
      </trkpt>
      <trkpt lat="40.84344" lon="20.1242">
        <ele>576.92999267578</ele>
        <time>2024-09-26T12:44:07.000Z</time>
      </trkpt>
      <trkpt lat="40.84338" lon="20.12424">
        <ele>577.40997314453</ele>
        <time>2024-09-26T12:44:08.000Z</time>
      </trkpt>
      <trkpt lat="40.84331" lon="20.12427">
        <ele>577.40997314453</ele>
        <time>2024-09-26T12:44:09.000Z</time>
      </trkpt>
      <trkpt lat="40.84325" lon="20.12431">
        <ele>577.89001464844</ele>
        <time>2024-09-26T12:44:10.000Z</time>
      </trkpt>
      <trkpt lat="40.84321" lon="20.12436">
        <ele>578.36999511719</ele>
        <time>2024-09-26T12:44:11.000Z</time>
      </trkpt>
      <trkpt lat="40.84317" lon="20.12443">
        <ele>578.84997558594</ele>
        <time>2024-09-26T12:44:12.000Z</time>
      </trkpt>
      <trkpt lat="40.84314" lon="20.12452">
        <ele>578.84997558594</ele>
        <time>2024-09-26T12:44:13.000Z</time>
      </trkpt>
      <trkpt lat="40.84313" lon="20.12461">
        <ele>579.33001708984</ele>
        <time>2024-09-26T12:44:14.000Z</time>
      </trkpt>
      <trkpt lat="40.84313" lon="20.12469">
        <ele>580.28997802734</ele>
        <time>2024-09-26T12:44:15.000Z</time>
      </trkpt>
      <trkpt lat="40.84316" lon="20.12482">
        <ele>581.72998046875</ele>
        <time>2024-09-26T12:44:16.000Z</time>
      </trkpt>
      <trkpt lat="40.84317" lon="20.12486">
        <ele>582.21997070312</ele>
        <time>2024-09-26T12:44:17.000Z</time>
      </trkpt>
      <trkpt lat="40.84317" lon="20.12495">
        <ele>583.17999267578</ele>
        <time>2024-09-26T12:44:18.000Z</time>
      </trkpt>
      <trkpt lat="40.84315" lon="20.12502">
        <ele>584.14001464844</ele>
        <time>2024-09-26T12:44:19.000Z</time>
      </trkpt>
      <trkpt lat="40.84311" lon="20.12509">
        <ele>585.09997558594</ele>
        <time>2024-09-26T12:44:20.000Z</time>
      </trkpt>
      <trkpt lat="40.84306" lon="20.12512">
        <ele>586.05999755859</ele>
        <time>2024-09-26T12:44:21.000Z</time>
      </trkpt>
      <trkpt lat="40.84301" lon="20.12512">
        <ele>586.53997802734</ele>
        <time>2024-09-26T12:44:22.000Z</time>
      </trkpt>
      <trkpt lat="40.84296" lon="20.12508">
        <ele>587.02001953125</ele>
        <time>2024-09-26T12:44:23.000Z</time>
      </trkpt>
      <trkpt lat="40.84293" lon="20.12502">
        <ele>587.5</ele>
        <time>2024-09-26T12:44:24.000Z</time>
      </trkpt>
      <trkpt lat="40.84291" lon="20.12494">
        <ele>587.97998046875</ele>
        <time>2024-09-26T12:44:25.000Z</time>
      </trkpt>
      <trkpt lat="40.84287" lon="20.12472">
        <ele>589.42999267578</ele>
        <time>2024-09-26T12:44:27.000Z</time>
      </trkpt>
      <trkpt lat="40.84286" lon="20.12458">
        <ele>590.39001464844</ele>
        <time>2024-09-26T12:44:29.000Z</time>
      </trkpt>
      <trkpt lat="40.84285" lon="20.12449">
        <ele>590.86999511719</ele>
        <time>2024-09-26T12:44:30.000Z</time>
      </trkpt>
      <trkpt lat="40.84281" lon="20.12428">
        <ele>591.34997558594</ele>
        <time>2024-09-26T12:44:32.000Z</time>
      </trkpt>
      <trkpt lat="40.84281" lon="20.12418">
        <ele>591.83001708984</ele>
        <time>2024-09-26T12:44:33.000Z</time>
      </trkpt>
      <trkpt lat="40.84281" lon="20.12408">
        <ele>592.30999755859</ele>
        <time>2024-09-26T12:44:34.000Z</time>
      </trkpt>
      <trkpt lat="40.84284" lon="20.12397">
        <ele>592.78997802734</ele>
        <time>2024-09-26T12:44:35.000Z</time>
      </trkpt>
      <trkpt lat="40.84288" lon="20.12383">
        <ele>593.75</ele>
        <time>2024-09-26T12:44:36.000Z</time>
      </trkpt>
      <trkpt lat="40.84289" lon="20.12377">
        <ele>594.22998046875</ele>
        <time>2024-09-26T12:44:37.000Z</time>
      </trkpt>
      <trkpt lat="40.84291" lon="20.12368">
        <ele>594.71002197266</ele>
        <time>2024-09-26T12:44:38.000Z</time>
      </trkpt>
      <trkpt lat="40.84292" lon="20.12349">
        <ele>595.66998291016</ele>
        <time>2024-09-26T12:44:39.000Z</time>
      </trkpt>
      <trkpt lat="40.84298" lon="20.1231">
        <ele>598.55999755859</ele>
        <time>2024-09-26T12:44:43.000Z</time>
      </trkpt>
      <trkpt lat="40.84299" lon="20.12301">
        <ele>599.03997802734</ele>
        <time>2024-09-26T12:44:44.000Z</time>
      </trkpt>
      <trkpt lat="40.843" lon="20.12284">
        <ele>600</ele>
        <time>2024-09-26T12:44:45.000Z</time>
      </trkpt>
      <trkpt lat="40.84304" lon="20.12254">
        <ele>601.91998291016</ele>
        <time>2024-09-26T12:44:48.000Z</time>
      </trkpt>
      <trkpt lat="40.84305" lon="20.12248">
        <ele>602.40002441406</ele>
        <time>2024-09-26T12:44:49.000Z</time>
      </trkpt>
      <trkpt lat="40.84306" lon="20.12241">
        <ele>602.88000488281</ele>
        <time>2024-09-26T12:44:50.000Z</time>
      </trkpt>
      <trkpt lat="40.84309" lon="20.1223">
        <ele>603.35998535156</ele>
        <time>2024-09-26T12:44:51.000Z</time>
      </trkpt>
      <trkpt lat="40.84314" lon="20.12222">
        <ele>604.33001708984</ele>
        <time>2024-09-26T12:44:52.000Z</time>
      </trkpt>
      <trkpt lat="40.8432" lon="20.12213">
        <ele>605.28997802734</ele>
        <time>2024-09-26T12:44:53.000Z</time>
      </trkpt>
      <trkpt lat="40.84325" lon="20.12208">
        <ele>605.77001953125</ele>
        <time>2024-09-26T12:44:54.000Z</time>
      </trkpt>
      <trkpt lat="40.84329" lon="20.12203">
        <ele>606.72998046875</ele>
        <time>2024-09-26T12:44:55.000Z</time>
      </trkpt>
      <trkpt lat="40.84333" lon="20.12198">
        <ele>607.21002197266</ele>
        <time>2024-09-26T12:44:56.000Z</time>
      </trkpt>
      <trkpt lat="40.84336" lon="20.12192">
        <ele>607.21002197266</ele>
        <time>2024-09-26T12:44:57.000Z</time>
      </trkpt>
      <trkpt lat="40.84337" lon="20.12185">
        <ele>607.69000244141</ele>
        <time>2024-09-26T12:44:58.000Z</time>
      </trkpt>
      <trkpt lat="40.84336" lon="20.12179">
        <ele>608.16998291016</ele>
        <time>2024-09-26T12:44:59.000Z</time>
      </trkpt>
      <trkpt lat="40.84333" lon="20.12172">
        <ele>608.65002441406</ele>
        <time>2024-09-26T12:45:00.000Z</time>
      </trkpt>
      <trkpt lat="40.84328" lon="20.12168">
        <ele>609.13000488281</ele>
        <time>2024-09-26T12:45:01.000Z</time>
      </trkpt>
      <trkpt lat="40.84323" lon="20.12165">
        <ele>609.13000488281</ele>
        <time>2024-09-26T12:45:02.000Z</time>
      </trkpt>
      <trkpt lat="40.84316" lon="20.12165">
        <ele>610.09002685547</ele>
        <time>2024-09-26T12:45:03.000Z</time>
      </trkpt>
      <trkpt lat="40.8431" lon="20.12167">
        <ele>610.09002685547</ele>
        <time>2024-09-26T12:45:04.000Z</time>
      </trkpt>
      <trkpt lat="40.84305" lon="20.12172">
        <ele>610.57000732422</ele>
        <time>2024-09-26T12:45:05.000Z</time>
      </trkpt>
      <trkpt lat="40.843" lon="20.12178">
        <ele>611.05999755859</ele>
        <time>2024-09-26T12:45:06.000Z</time>
      </trkpt>
      <trkpt lat="40.84297" lon="20.12186">
        <ele>611.05999755859</ele>
        <time>2024-09-26T12:45:07.000Z</time>
      </trkpt>
      <trkpt lat="40.84292" lon="20.12201">
        <ele>612.02001953125</ele>
        <time>2024-09-26T12:45:08.000Z</time>
      </trkpt>
      <trkpt lat="40.8429" lon="20.12206">
        <ele>612.02001953125</ele>
        <time>2024-09-26T12:45:09.000Z</time>
      </trkpt>
      <trkpt lat="40.84287" lon="20.12212">
        <ele>612.5</ele>
        <time>2024-09-26T12:45:10.000Z</time>
      </trkpt>
      <trkpt lat="40.84284" lon="20.12218">
        <ele>612.97998046875</ele>
        <time>2024-09-26T12:45:11.000Z</time>
      </trkpt>
      <trkpt lat="40.8428" lon="20.12221">
        <ele>613.46002197266</ele>
        <time>2024-09-26T12:45:12.000Z</time>
      </trkpt>
      <trkpt lat="40.84275" lon="20.12222">
        <ele>613.94000244141</ele>
        <time>2024-09-26T12:45:13.000Z</time>
      </trkpt>
      <trkpt lat="40.84271" lon="20.12219">
        <ele>613.94000244141</ele>
        <time>2024-09-26T12:45:14.000Z</time>
      </trkpt>
      <trkpt lat="40.84268" lon="20.12214">
        <ele>613.94000244141</ele>
        <time>2024-09-26T12:45:15.000Z</time>
      </trkpt>
      <trkpt lat="40.84267" lon="20.12206">
        <ele>613.94000244141</ele>
        <time>2024-09-26T12:45:16.000Z</time>
      </trkpt>
      <trkpt lat="40.84266" lon="20.12198">
        <ele>614.41998291016</ele>
        <time>2024-09-26T12:45:17.000Z</time>
      </trkpt>
      <trkpt lat="40.84267" lon="20.1219">
        <ele>614.90002441406</ele>
        <time>2024-09-26T12:45:18.000Z</time>
      </trkpt>
      <trkpt lat="40.84269" lon="20.12172">
        <ele>616.34002685547</ele>
        <time>2024-09-26T12:45:20.000Z</time>
      </trkpt>
      <trkpt lat="40.84272" lon="20.12158">
        <ele>617.29998779297</ele>
        <time>2024-09-26T12:45:21.000Z</time>
      </trkpt>
      <trkpt lat="40.84275" lon="20.12147">
        <ele>617.78002929688</ele>
        <time>2024-09-26T12:45:22.000Z</time>
      </trkpt>
      <trkpt lat="40.84277" lon="20.12141">
        <ele>618.26000976562</ele>
        <time>2024-09-26T12:45:23.000Z</time>
      </trkpt>
      <trkpt lat="40.84279" lon="20.12133">
        <ele>618.75</ele>
        <time>2024-09-26T12:45:24.000Z</time>
      </trkpt>
      <trkpt lat="40.8428" lon="20.12126">
        <ele>619.22998046875</ele>
        <time>2024-09-26T12:45:25.000Z</time>
      </trkpt>
      <trkpt lat="40.84285" lon="20.12082">
        <ele>620.66998291016</ele>
        <time>2024-09-26T12:45:29.000Z</time>
      </trkpt>
      <trkpt lat="40.84286" lon="20.12055">
        <ele>621.63000488281</ele>
        <time>2024-09-26T12:45:31.000Z</time>
      </trkpt>
      <trkpt lat="40.84286" lon="20.12049">
        <ele>622.10998535156</ele>
        <time>2024-09-26T12:45:32.000Z</time>
      </trkpt>
      <trkpt lat="40.84286" lon="20.12037">
        <ele>622.10998535156</ele>
        <time>2024-09-26T12:45:33.000Z</time>
      </trkpt>
      <trkpt lat="40.84284" lon="20.12024">
        <ele>622.59002685547</ele>
        <time>2024-09-26T12:45:34.000Z</time>
      </trkpt>
      <trkpt lat="40.84281" lon="20.12002">
        <ele>623.07000732422</ele>
        <time>2024-09-26T12:45:36.000Z</time>
      </trkpt>
      <trkpt lat="40.84281" lon="20.11995">
        <ele>623.54998779297</ele>
        <time>2024-09-26T12:45:37.000Z</time>
      </trkpt>
      <trkpt lat="40.84281" lon="20.11984">
        <ele>624.98999023438</ele>
        <time>2024-09-26T12:45:38.000Z</time>
      </trkpt>
      <trkpt lat="40.84285" lon="20.11936">
        <ele>627.40002441406</ele>
        <time>2024-09-26T12:45:42.000Z</time>
      </trkpt>
      <trkpt lat="40.84286" lon="20.11923">
        <ele>627.88000488281</ele>
        <time>2024-09-26T12:45:43.000Z</time>
      </trkpt>
      <trkpt lat="40.84289" lon="20.11909">
        <ele>628.35998535156</ele>
        <time>2024-09-26T12:45:44.000Z</time>
      </trkpt>
      <trkpt lat="40.84291" lon="20.11901">
        <ele>628.35998535156</ele>
        <time>2024-09-26T12:45:45.000Z</time>
      </trkpt>
      <trkpt lat="40.84293" lon="20.11889">
        <ele>628.35998535156</ele>
        <time>2024-09-26T12:45:46.000Z</time>
      </trkpt>
      <trkpt lat="40.84294" lon="20.11879">
        <ele>628.35998535156</ele>
        <time>2024-09-26T12:45:47.000Z</time>
      </trkpt>
      <trkpt lat="40.84294" lon="20.11862">
        <ele>628.35998535156</ele>
        <time>2024-09-26T12:45:48.000Z</time>
      </trkpt>
      <trkpt lat="40.84294" lon="20.11859">
        <ele>628.35998535156</ele>
        <time>2024-09-26T12:45:49.000Z</time>
      </trkpt>
      <trkpt lat="40.84294" lon="20.11847">
        <ele>628.35998535156</ele>
        <time>2024-09-26T12:45:50.000Z</time>
      </trkpt>
      <trkpt lat="40.84297" lon="20.1183">
        <ele>627.40002441406</ele>
        <time>2024-09-26T12:45:51.000Z</time>
      </trkpt>
      <trkpt lat="40.84298" lon="20.11826">
        <ele>627.40002441406</ele>
        <time>2024-09-26T12:45:52.000Z</time>
      </trkpt>
      <trkpt lat="40.84298" lon="20.11814">
        <ele>626.91998291016</ele>
        <time>2024-09-26T12:45:53.000Z</time>
      </trkpt>
      <trkpt lat="40.84296" lon="20.11802">
        <ele>626.44000244141</ele>
        <time>2024-09-26T12:45:54.000Z</time>
      </trkpt>
      <trkpt lat="40.84293" lon="20.11791">
        <ele>625.96002197266</ele>
        <time>2024-09-26T12:45:55.000Z</time>
      </trkpt>
      <trkpt lat="40.84289" lon="20.11779">
        <ele>625.96002197266</ele>
        <time>2024-09-26T12:45:56.000Z</time>
      </trkpt>
      <trkpt lat="40.84286" lon="20.11772">
        <ele>625.96002197266</ele>
        <time>2024-09-26T12:45:57.000Z</time>
      </trkpt>
      <trkpt lat="40.84283" lon="20.11758">
        <ele>625.46997070312</ele>
        <time>2024-09-26T12:45:58.000Z</time>
      </trkpt>
      <trkpt lat="40.84283" lon="20.11755">
        <ele>624.98999023438</ele>
        <time>2024-09-26T12:45:59.000Z</time>
      </trkpt>
      <trkpt lat="40.84283" lon="20.11746">
        <ele>624.51000976562</ele>
        <time>2024-09-26T12:46:00.000Z</time>
      </trkpt>
      <trkpt lat="40.84286" lon="20.11739">
        <ele>624.03002929688</ele>
        <time>2024-09-26T12:46:01.000Z</time>
      </trkpt>
      <trkpt lat="40.8429" lon="20.11734">
        <ele>623.54998779297</ele>
        <time>2024-09-26T12:46:02.000Z</time>
      </trkpt>
      <trkpt lat="40.84294" lon="20.11728">
        <ele>623.07000732422</ele>
        <time>2024-09-26T12:46:03.000Z</time>
      </trkpt>
      <trkpt lat="40.84297" lon="20.11724">
        <ele>623.07000732422</ele>
        <time>2024-09-26T12:46:04.000Z</time>
      </trkpt>
      <trkpt lat="40.843" lon="20.11719">
        <ele>623.07000732422</ele>
        <time>2024-09-26T12:46:05.000Z</time>
      </trkpt>
      <trkpt lat="40.84302" lon="20.11712">
        <ele>623.07000732422</ele>
        <time>2024-09-26T12:46:06.000Z</time>
      </trkpt>
      <trkpt lat="40.84303" lon="20.11707">
        <ele>623.54998779297</ele>
        <time>2024-09-26T12:46:07.000Z</time>
      </trkpt>
      <trkpt lat="40.84305" lon="20.117">
        <ele>623.54998779297</ele>
        <time>2024-09-26T12:46:08.000Z</time>
      </trkpt>
      <trkpt lat="40.84306" lon="20.11696">
        <ele>623.54998779297</ele>
        <time>2024-09-26T12:46:09.000Z</time>
      </trkpt>
      <trkpt lat="40.84307" lon="20.1169">
        <ele>624.03002929688</ele>
        <time>2024-09-26T12:46:10.000Z</time>
      </trkpt>
      <trkpt lat="40.84308" lon="20.11677">
        <ele>624.03002929688</ele>
        <time>2024-09-26T12:46:11.000Z</time>
      </trkpt>
      <trkpt lat="40.84309" lon="20.11661">
        <ele>624.51000976562</ele>
        <time>2024-09-26T12:46:13.000Z</time>
      </trkpt>
      <trkpt lat="40.84309" lon="20.11654">
        <ele>624.98999023438</ele>
        <time>2024-09-26T12:46:14.000Z</time>
      </trkpt>
      <trkpt lat="40.84308" lon="20.11646">
        <ele>624.98999023438</ele>
        <time>2024-09-26T12:46:15.000Z</time>
      </trkpt>
      <trkpt lat="40.84305" lon="20.11639">
        <ele>624.98999023438</ele>
        <time>2024-09-26T12:46:16.000Z</time>
      </trkpt>
      <trkpt lat="40.84302" lon="20.11632">
        <ele>624.98999023438</ele>
        <time>2024-09-26T12:46:17.000Z</time>
      </trkpt>
      <trkpt lat="40.84298" lon="20.11626">
        <ele>625.46997070312</ele>
        <time>2024-09-26T12:46:18.000Z</time>
      </trkpt>
      <trkpt lat="40.84293" lon="20.11621">
        <ele>625.46997070312</ele>
        <time>2024-09-26T12:46:19.000Z</time>
      </trkpt>
      <trkpt lat="40.84286" lon="20.11616">
        <ele>625.46997070312</ele>
        <time>2024-09-26T12:46:20.000Z</time>
      </trkpt>
      <trkpt lat="40.8428" lon="20.11612">
        <ele>625.46997070312</ele>
        <time>2024-09-26T12:46:21.000Z</time>
      </trkpt>
      <trkpt lat="40.84273" lon="20.11609">
        <ele>625.96002197266</ele>
        <time>2024-09-26T12:46:22.000Z</time>
      </trkpt>
      <trkpt lat="40.84265" lon="20.11607">
        <ele>625.96002197266</ele>
        <time>2024-09-26T12:46:23.000Z</time>
      </trkpt>
      <trkpt lat="40.84257" lon="20.11607">
        <ele>626.44000244141</ele>
        <time>2024-09-26T12:46:24.000Z</time>
      </trkpt>
      <trkpt lat="40.84249" lon="20.11608">
        <ele>627.40002441406</ele>
        <time>2024-09-26T12:46:25.000Z</time>
      </trkpt>
      <trkpt lat="40.84241" lon="20.11608">
        <ele>627.88000488281</ele>
        <time>2024-09-26T12:46:26.000Z</time>
      </trkpt>
      <trkpt lat="40.84233" lon="20.11604">
        <ele>628.84002685547</ele>
        <time>2024-09-26T12:46:27.000Z</time>
      </trkpt>
      <trkpt lat="40.84228" lon="20.11598">
        <ele>629.32000732422</ele>
        <time>2024-09-26T12:46:28.000Z</time>
      </trkpt>
      <trkpt lat="40.84225" lon="20.11589">
        <ele>629.79998779297</ele>
        <time>2024-09-26T12:46:29.000Z</time>
      </trkpt>
      <trkpt lat="40.84221" lon="20.11575">
        <ele>630.76000976562</ele>
        <time>2024-09-26T12:46:30.000Z</time>
      </trkpt>
      <trkpt lat="40.84214" lon="20.11553">
        <ele>632.20001220703</ele>
        <time>2024-09-26T12:46:32.000Z</time>
      </trkpt>
      <trkpt lat="40.84208" lon="20.11535">
        <ele>633.65002441406</ele>
        <time>2024-09-26T12:46:34.000Z</time>
      </trkpt>
      <trkpt lat="40.84204" lon="20.11526">
        <ele>634.13000488281</ele>
        <time>2024-09-26T12:46:35.000Z</time>
      </trkpt>
      <trkpt lat="40.84202" lon="20.1152">
        <ele>635.09002685547</ele>
        <time>2024-09-26T12:46:36.000Z</time>
      </trkpt>
      <trkpt lat="40.84199" lon="20.1151">
        <ele>636.04998779297</ele>
        <time>2024-09-26T12:46:37.000Z</time>
      </trkpt>
      <trkpt lat="40.84196" lon="20.11498">
        <ele>637.48999023438</ele>
        <time>2024-09-26T12:46:38.000Z</time>
      </trkpt>
      <trkpt lat="40.84194" lon="20.11492">
        <ele>637.96997070312</ele>
        <time>2024-09-26T12:46:39.000Z</time>
      </trkpt>
      <trkpt lat="40.84191" lon="20.11487">
        <ele>638.45001220703</ele>
        <time>2024-09-26T12:46:40.000Z</time>
      </trkpt>
      <trkpt lat="40.84186" lon="20.11484">
        <ele>638.92999267578</ele>
        <time>2024-09-26T12:46:41.000Z</time>
      </trkpt>
      <trkpt lat="40.84181" lon="20.11484">
        <ele>639.89001464844</ele>
        <time>2024-09-26T12:46:42.000Z</time>
      </trkpt>
      <trkpt lat="40.84175" lon="20.11485">
        <ele>640.38000488281</ele>
        <time>2024-09-26T12:46:43.000Z</time>
      </trkpt>
      <trkpt lat="40.84168" lon="20.11487">
        <ele>640.85998535156</ele>
        <time>2024-09-26T12:46:44.000Z</time>
      </trkpt>
      <trkpt lat="40.84162" lon="20.11488">
        <ele>641.34002685547</ele>
        <time>2024-09-26T12:46:45.000Z</time>
      </trkpt>
      <trkpt lat="40.84155" lon="20.11487">
        <ele>641.82000732422</ele>
        <time>2024-09-26T12:46:46.000Z</time>
      </trkpt>
      <trkpt lat="40.84149" lon="20.11483">
        <ele>641.82000732422</ele>
        <time>2024-09-26T12:46:47.000Z</time>
      </trkpt>
      <trkpt lat="40.84144" lon="20.11478">
        <ele>642.29998779297</ele>
        <time>2024-09-26T12:46:48.000Z</time>
      </trkpt>
      <trkpt lat="40.84139" lon="20.1147">
        <ele>642.29998779297</ele>
        <time>2024-09-26T12:46:49.000Z</time>
      </trkpt>
      <trkpt lat="40.84132" lon="20.11455">
        <ele>642.78002929688</ele>
        <time>2024-09-26T12:46:50.000Z</time>
      </trkpt>
      <trkpt lat="40.84131" lon="20.11453">
        <ele>642.78002929688</ele>
        <time>2024-09-26T12:46:51.000Z</time>
      </trkpt>
      <trkpt lat="40.84128" lon="20.11447">
        <ele>642.78002929688</ele>
        <time>2024-09-26T12:46:52.000Z</time>
      </trkpt>
      <trkpt lat="40.84124" lon="20.11444">
        <ele>641.82000732422</ele>
        <time>2024-09-26T12:46:53.000Z</time>
      </trkpt>
      <trkpt lat="40.84119" lon="20.11444">
        <ele>641.82000732422</ele>
        <time>2024-09-26T12:46:54.000Z</time>
      </trkpt>
      <trkpt lat="40.84115" lon="20.11446">
        <ele>641.82000732422</ele>
        <time>2024-09-26T12:46:55.000Z</time>
      </trkpt>
      <trkpt lat="40.84111" lon="20.11451">
        <ele>641.82000732422</ele>
        <time>2024-09-26T12:46:56.000Z</time>
      </trkpt>
      <trkpt lat="40.84107" lon="20.11458">
        <ele>641.82000732422</ele>
        <time>2024-09-26T12:46:57.000Z</time>
      </trkpt>
      <trkpt lat="40.84102" lon="20.11466">
        <ele>641.82000732422</ele>
        <time>2024-09-26T12:46:58.000Z</time>
      </trkpt>
      <trkpt lat="40.84098" lon="20.11476">
        <ele>641.34002685547</ele>
        <time>2024-09-26T12:46:59.000Z</time>
      </trkpt>
      <trkpt lat="40.84087" lon="20.11503">
        <ele>642.78002929688</ele>
        <time>2024-09-26T12:47:01.000Z</time>
      </trkpt>
      <trkpt lat="40.84086" lon="20.11505">
        <ele>642.78002929688</ele>
        <time>2024-09-26T12:47:02.000Z</time>
      </trkpt>
      <trkpt lat="40.8408" lon="20.11516">
        <ele>643.26000976562</ele>
        <time>2024-09-26T12:47:03.000Z</time>
      </trkpt>
      <trkpt lat="40.84074" lon="20.11526">
        <ele>643.26000976562</ele>
        <time>2024-09-26T12:47:04.000Z</time>
      </trkpt>
      <trkpt lat="40.84056" lon="20.11558">
        <ele>644.21997070312</ele>
        <time>2024-09-26T12:47:07.000Z</time>
      </trkpt>
      <trkpt lat="40.84053" lon="20.11564">
        <ele>644.21997070312</ele>
        <time>2024-09-26T12:47:08.000Z</time>
      </trkpt>
      <trkpt lat="40.84047" lon="20.11572">
        <ele>644.70001220703</ele>
        <time>2024-09-26T12:47:09.000Z</time>
      </trkpt>
      <trkpt lat="40.84037" lon="20.11584">
        <ele>645.17999267578</ele>
        <time>2024-09-26T12:47:10.000Z</time>
      </trkpt>
      <trkpt lat="40.84034" lon="20.11587">
        <ele>645.17999267578</ele>
        <time>2024-09-26T12:47:11.000Z</time>
      </trkpt>
      <trkpt lat="40.84026" lon="20.11594">
        <ele>645.65997314453</ele>
        <time>2024-09-26T12:47:12.000Z</time>
      </trkpt>
      <trkpt lat="40.8402" lon="20.116">
        <ele>646.61999511719</ele>
        <time>2024-09-26T12:47:13.000Z</time>
      </trkpt>
      <trkpt lat="40.83994" lon="20.11624">
        <ele>649.98999023438</ele>
        <time>2024-09-26T12:47:16.000Z</time>
      </trkpt>
      <trkpt lat="40.83992" lon="20.11626">
        <ele>649.98999023438</ele>
        <time>2024-09-26T12:47:17.000Z</time>
      </trkpt>
      <trkpt lat="40.8398" lon="20.11634">
        <ele>650.95001220703</ele>
        <time>2024-09-26T12:47:18.000Z</time>
      </trkpt>
      <trkpt lat="40.83967" lon="20.11642">
        <ele>651.42999267578</ele>
        <time>2024-09-26T12:47:20.000Z</time>
      </trkpt>
      <trkpt lat="40.83919" lon="20.11662">
        <ele>651.42999267578</ele>
        <time>2024-09-26T12:47:25.000Z</time>
      </trkpt>
      <trkpt lat="40.83918" lon="20.11663">
        <ele>651.42999267578</ele>
        <time>2024-09-26T12:47:26.000Z</time>
      </trkpt>
      <trkpt lat="40.8391" lon="20.11666">
        <ele>651.42999267578</ele>
        <time>2024-09-26T12:47:27.000Z</time>
      </trkpt>
      <trkpt lat="40.83903" lon="20.11666">
        <ele>651.42999267578</ele>
        <time>2024-09-26T12:47:28.000Z</time>
      </trkpt>
      <trkpt lat="40.83896" lon="20.11665">
        <ele>651.42999267578</ele>
        <time>2024-09-26T12:47:29.000Z</time>
      </trkpt>
      <trkpt lat="40.83891" lon="20.11662">
        <ele>651.42999267578</ele>
        <time>2024-09-26T12:47:30.000Z</time>
      </trkpt>
      <trkpt lat="40.83885" lon="20.11657">
        <ele>651.42999267578</ele>
        <time>2024-09-26T12:47:31.000Z</time>
      </trkpt>
      <trkpt lat="40.8388" lon="20.1165">
        <ele>651.42999267578</ele>
        <time>2024-09-26T12:47:32.000Z</time>
      </trkpt>
      <trkpt lat="40.83877" lon="20.11642">
        <ele>651.90997314453</ele>
        <time>2024-09-26T12:47:33.000Z</time>
      </trkpt>
      <trkpt lat="40.83875" lon="20.11635">
        <ele>651.90997314453</ele>
        <time>2024-09-26T12:47:34.000Z</time>
      </trkpt>
      <trkpt lat="40.83874" lon="20.11625">
        <ele>652.39001464844</ele>
        <time>2024-09-26T12:47:35.000Z</time>
      </trkpt>
      <trkpt lat="40.83874" lon="20.11615">
        <ele>652.86999511719</ele>
        <time>2024-09-26T12:47:36.000Z</time>
      </trkpt>
      <trkpt lat="40.83875" lon="20.11607">
        <ele>653.34997558594</ele>
        <time>2024-09-26T12:47:37.000Z</time>
      </trkpt>
      <trkpt lat="40.83879" lon="20.11598">
        <ele>653.34997558594</ele>
        <time>2024-09-26T12:47:38.000Z</time>
      </trkpt>
      <trkpt lat="40.83882" lon="20.11591">
        <ele>653.34997558594</ele>
        <time>2024-09-26T12:47:39.000Z</time>
      </trkpt>
      <trkpt lat="40.83888" lon="20.11581">
        <ele>652.86999511719</ele>
        <time>2024-09-26T12:47:40.000Z</time>
      </trkpt>
      <trkpt lat="40.83893" lon="20.11573">
        <ele>652.86999511719</ele>
        <time>2024-09-26T12:47:41.000Z</time>
      </trkpt>
      <trkpt lat="40.839" lon="20.11564">
        <ele>653.34997558594</ele>
        <time>2024-09-26T12:47:42.000Z</time>
      </trkpt>
      <trkpt lat="40.83909" lon="20.11553">
        <ele>652.86999511719</ele>
        <time>2024-09-26T12:47:43.000Z</time>
      </trkpt>
      <trkpt lat="40.83912" lon="20.1155">
        <ele>652.39001464844</ele>
        <time>2024-09-26T12:47:44.000Z</time>
      </trkpt>
      <trkpt lat="40.83917" lon="20.11543">
        <ele>652.39001464844</ele>
        <time>2024-09-26T12:47:45.000Z</time>
      </trkpt>
      <trkpt lat="40.83923" lon="20.11533">
        <ele>652.39001464844</ele>
        <time>2024-09-26T12:47:46.000Z</time>
      </trkpt>
      <trkpt lat="40.83926" lon="20.11528">
        <ele>652.39001464844</ele>
        <time>2024-09-26T12:47:47.000Z</time>
      </trkpt>
      <trkpt lat="40.83929" lon="20.1152">
        <ele>652.39001464844</ele>
        <time>2024-09-26T12:47:48.000Z</time>
      </trkpt>
      <trkpt lat="40.83932" lon="20.11512">
        <ele>652.39001464844</ele>
        <time>2024-09-26T12:47:49.000Z</time>
      </trkpt>
      <trkpt lat="40.83934" lon="20.11505">
        <ele>652.86999511719</ele>
        <time>2024-09-26T12:47:50.000Z</time>
      </trkpt>
      <trkpt lat="40.83937" lon="20.11495">
        <ele>652.86999511719</ele>
        <time>2024-09-26T12:47:51.000Z</time>
      </trkpt>
      <trkpt lat="40.83938" lon="20.11484">
        <ele>653.34997558594</ele>
        <time>2024-09-26T12:47:52.000Z</time>
      </trkpt>
      <trkpt lat="40.83939" lon="20.11474">
        <ele>653.83001708984</ele>
        <time>2024-09-26T12:47:53.000Z</time>
      </trkpt>
      <trkpt lat="40.83937" lon="20.11458">
        <ele>653.83001708984</ele>
        <time>2024-09-26T12:47:54.000Z</time>
      </trkpt>
      <trkpt lat="40.83936" lon="20.11451">
        <ele>654.30999755859</ele>
        <time>2024-09-26T12:47:55.000Z</time>
      </trkpt>
      <trkpt lat="40.83936" lon="20.11438">
        <ele>653.83001708984</ele>
        <time>2024-09-26T12:47:56.000Z</time>
      </trkpt>
      <trkpt lat="40.83936" lon="20.11428">
        <ele>654.30999755859</ele>
        <time>2024-09-26T12:47:57.000Z</time>
      </trkpt>
      <trkpt lat="40.83936" lon="20.1142">
        <ele>654.79998779297</ele>
        <time>2024-09-26T12:47:58.000Z</time>
      </trkpt>
      <trkpt lat="40.83938" lon="20.11396">
        <ele>654.79998779297</ele>
        <time>2024-09-26T12:48:00.000Z</time>
      </trkpt>
      <trkpt lat="40.83939" lon="20.11374">
        <ele>654.79998779297</ele>
        <time>2024-09-26T12:48:02.000Z</time>
      </trkpt>
      <trkpt lat="40.83939" lon="20.11367">
        <ele>654.79998779297</ele>
        <time>2024-09-26T12:48:03.000Z</time>
      </trkpt>
      <trkpt lat="40.83941" lon="20.11358">
        <ele>654.79998779297</ele>
        <time>2024-09-26T12:48:04.000Z</time>
      </trkpt>
      <trkpt lat="40.83945" lon="20.11347">
        <ele>654.30999755859</ele>
        <time>2024-09-26T12:48:05.000Z</time>
      </trkpt>
      <trkpt lat="40.83948" lon="20.11339">
        <ele>654.30999755859</ele>
        <time>2024-09-26T12:48:06.000Z</time>
      </trkpt>
      <trkpt lat="40.8395" lon="20.11332">
        <ele>654.30999755859</ele>
        <time>2024-09-26T12:48:07.000Z</time>
      </trkpt>
      <trkpt lat="40.8395" lon="20.11324">
        <ele>654.30999755859</ele>
        <time>2024-09-26T12:48:08.000Z</time>
      </trkpt>
      <trkpt lat="40.83949" lon="20.11316">
        <ele>653.83001708984</ele>
        <time>2024-09-26T12:48:09.000Z</time>
      </trkpt>
      <trkpt lat="40.83945" lon="20.11309">
        <ele>654.30999755859</ele>
        <time>2024-09-26T12:48:10.000Z</time>
      </trkpt>
      <trkpt lat="40.8394" lon="20.11302">
        <ele>654.30999755859</ele>
        <time>2024-09-26T12:48:11.000Z</time>
      </trkpt>
      <trkpt lat="40.83935" lon="20.11296">
        <ele>654.79998779297</ele>
        <time>2024-09-26T12:48:12.000Z</time>
      </trkpt>
      <trkpt lat="40.83925" lon="20.1128">
        <ele>655.28002929688</ele>
        <time>2024-09-26T12:48:14.000Z</time>
      </trkpt>
      <trkpt lat="40.83916" lon="20.11267">
        <ele>655.76000976562</ele>
        <time>2024-09-26T12:48:15.000Z</time>
      </trkpt>
      <trkpt lat="40.83914" lon="20.11263">
        <ele>656.23999023438</ele>
        <time>2024-09-26T12:48:16.000Z</time>
      </trkpt>
      <trkpt lat="40.83909" lon="20.11258">
        <ele>656.23999023438</ele>
        <time>2024-09-26T12:48:17.000Z</time>
      </trkpt>
      <trkpt lat="40.83903" lon="20.11249">
        <ele>657.20001220703</ele>
        <time>2024-09-26T12:48:18.000Z</time>
      </trkpt>
      <trkpt lat="40.83899" lon="20.11245">
        <ele>657.67999267578</ele>
        <time>2024-09-26T12:48:19.000Z</time>
      </trkpt>
      <trkpt lat="40.83897" lon="20.11239">
        <ele>658.64001464844</ele>
        <time>2024-09-26T12:48:20.000Z</time>
      </trkpt>
      <trkpt lat="40.83896" lon="20.11232">
        <ele>659.11999511719</ele>
        <time>2024-09-26T12:48:21.000Z</time>
      </trkpt>
      <trkpt lat="40.83897" lon="20.11226">
        <ele>660.08001708984</ele>
        <time>2024-09-26T12:48:22.000Z</time>
      </trkpt>
      <trkpt lat="40.83899" lon="20.1122">
        <ele>660.08001708984</ele>
        <time>2024-09-26T12:48:23.000Z</time>
      </trkpt>
      <trkpt lat="40.83904" lon="20.11213">
        <ele>660.08001708984</ele>
        <time>2024-09-26T12:48:30.000Z</time>
      </trkpt>
      <trkpt lat="40.83909" lon="20.11206">
        <ele>660.08001708984</ele>
        <time>2024-09-26T12:50:05.000Z</time>
      </trkpt>
      <trkpt lat="40.83911" lon="20.11203">
        <ele>660.55999755859</ele>
        <time>2024-09-26T12:50:06.000Z</time>
      </trkpt>
      <trkpt lat="40.83914" lon="20.11199">
        <ele>660.55999755859</ele>
        <time>2024-09-26T12:50:07.000Z</time>
      </trkpt>
      <trkpt lat="40.83917" lon="20.11191">
        <ele>661.52001953125</ele>
        <time>2024-09-26T12:50:08.000Z</time>
      </trkpt>
      <trkpt lat="40.83919" lon="20.11184">
        <ele>661.52001953125</ele>
        <time>2024-09-26T12:50:09.000Z</time>
      </trkpt>
      <trkpt lat="40.83923" lon="20.11173">
        <ele>662.48999023438</ele>
        <time>2024-09-26T12:50:10.000Z</time>
      </trkpt>
      <trkpt lat="40.83937" lon="20.11118">
        <ele>666.33001708984</ele>
        <time>2024-09-26T12:50:15.000Z</time>
      </trkpt>
      <trkpt lat="40.83939" lon="20.11112">
        <ele>666.33001708984</ele>
        <time>2024-09-26T12:50:16.000Z</time>
      </trkpt>
      <trkpt lat="40.83942" lon="20.11103">
        <ele>666.80999755859</ele>
        <time>2024-09-26T12:50:17.000Z</time>
      </trkpt>
      <trkpt lat="40.83948" lon="20.11093">
        <ele>667.28997802734</ele>
        <time>2024-09-26T12:50:18.000Z</time>
      </trkpt>
      <trkpt lat="40.8395" lon="20.11088">
        <ele>667.28997802734</ele>
        <time>2024-09-26T12:50:19.000Z</time>
      </trkpt>
      <trkpt lat="40.83953" lon="20.11081">
        <ele>666.80999755859</ele>
        <time>2024-09-26T12:50:20.000Z</time>
      </trkpt>
      <trkpt lat="40.83954" lon="20.11073">
        <ele>666.33001708984</ele>
        <time>2024-09-26T12:50:21.000Z</time>
      </trkpt>
      <trkpt lat="40.83952" lon="20.11067">
        <ele>666.33001708984</ele>
        <time>2024-09-26T12:50:22.000Z</time>
      </trkpt>
      <trkpt lat="40.83949" lon="20.11061">
        <ele>665.84997558594</ele>
        <time>2024-09-26T12:50:23.000Z</time>
      </trkpt>
      <trkpt lat="40.83944" lon="20.11056">
        <ele>665.84997558594</ele>
        <time>2024-09-26T12:50:24.000Z</time>
      </trkpt>
      <trkpt lat="40.83938" lon="20.11052">
        <ele>665.84997558594</ele>
        <time>2024-09-26T12:50:25.000Z</time>
      </trkpt>
      <trkpt lat="40.83928" lon="20.11044">
        <ele>664.89001464844</ele>
        <time>2024-09-26T12:50:26.000Z</time>
      </trkpt>
      <trkpt lat="40.83924" lon="20.1104">
        <ele>664.89001464844</ele>
        <time>2024-09-26T12:50:27.000Z</time>
      </trkpt>
      <trkpt lat="40.83916" lon="20.11031">
        <ele>663.92999267578</ele>
        <time>2024-09-26T12:50:28.000Z</time>
      </trkpt>
      <trkpt lat="40.83912" lon="20.11028">
        <ele>663.92999267578</ele>
        <time>2024-09-26T12:50:29.000Z</time>
      </trkpt>
      <trkpt lat="40.83901" lon="20.11019">
        <ele>662.96997070312</ele>
        <time>2024-09-26T12:50:30.000Z</time>
      </trkpt>
      <trkpt lat="40.83898" lon="20.11017">
        <ele>662.96997070312</ele>
        <time>2024-09-26T12:50:31.000Z</time>
      </trkpt>
      <trkpt lat="40.83892" lon="20.11011">
        <ele>662.96997070312</ele>
        <time>2024-09-26T12:50:32.000Z</time>
      </trkpt>
      <trkpt lat="40.83889" lon="20.11003">
        <ele>662.48999023438</ele>
        <time>2024-09-26T12:50:33.000Z</time>
      </trkpt>
      <trkpt lat="40.83888" lon="20.10994">
        <ele>662.01000976562</ele>
        <time>2024-09-26T12:50:34.000Z</time>
      </trkpt>
      <trkpt lat="40.83888" lon="20.10983">
        <ele>661.52001953125</ele>
        <time>2024-09-26T12:50:35.000Z</time>
      </trkpt>
      <trkpt lat="40.83889" lon="20.10976">
        <ele>661.03997802734</ele>
        <time>2024-09-26T12:50:36.000Z</time>
      </trkpt>
      <trkpt lat="40.8389" lon="20.10963">
        <ele>660.08001708984</ele>
        <time>2024-09-26T12:50:37.000Z</time>
      </trkpt>
      <trkpt lat="40.83891" lon="20.10951">
        <ele>659.59997558594</ele>
        <time>2024-09-26T12:50:38.000Z</time>
      </trkpt>
      <trkpt lat="40.83892" lon="20.10948">
        <ele>659.59997558594</ele>
        <time>2024-09-26T12:50:39.000Z</time>
      </trkpt>
      <trkpt lat="40.8389" lon="20.10942">
        <ele>660.08001708984</ele>
        <time>2024-09-26T12:50:40.000Z</time>
      </trkpt>
      <trkpt lat="40.83888" lon="20.10937">
        <ele>659.59997558594</ele>
        <time>2024-09-26T12:50:41.000Z</time>
      </trkpt>
      <trkpt lat="40.83883" lon="20.10934">
        <ele>659.11999511719</ele>
        <time>2024-09-26T12:50:42.000Z</time>
      </trkpt>
      <trkpt lat="40.83878" lon="20.10934">
        <ele>659.11999511719</ele>
        <time>2024-09-26T12:50:43.000Z</time>
      </trkpt>
      <trkpt lat="40.83873" lon="20.10936">
        <ele>659.11999511719</ele>
        <time>2024-09-26T12:50:44.000Z</time>
      </trkpt>
      <trkpt lat="40.83869" lon="20.10938">
        <ele>659.11999511719</ele>
        <time>2024-09-26T12:50:45.000Z</time>
      </trkpt>
      <trkpt lat="40.83863" lon="20.10942">
        <ele>659.11999511719</ele>
        <time>2024-09-26T12:50:46.000Z</time>
      </trkpt>
      <trkpt lat="40.83857" lon="20.10948">
        <ele>659.11999511719</ele>
        <time>2024-09-26T12:50:47.000Z</time>
      </trkpt>
      <trkpt lat="40.83853" lon="20.10953">
        <ele>659.59997558594</ele>
        <time>2024-09-26T12:50:48.000Z</time>
      </trkpt>
      <trkpt lat="40.83835" lon="20.10972">
        <ele>659.59997558594</ele>
        <time>2024-09-26T12:50:51.000Z</time>
      </trkpt>
      <trkpt lat="40.83832" lon="20.10975">
        <ele>659.59997558594</ele>
        <time>2024-09-26T12:50:52.000Z</time>
      </trkpt>
      <trkpt lat="40.83825" lon="20.10981">
        <ele>660.08001708984</ele>
        <time>2024-09-26T12:50:58.000Z</time>
      </trkpt>
      <trkpt lat="40.83821" lon="20.10985">
        <ele>660.08001708984</ele>
        <time>2024-09-26T12:51:48.000Z</time>
      </trkpt>
      <trkpt lat="40.83819" lon="20.10986">
        <ele>660.08001708984</ele>
        <time>2024-09-26T12:51:49.000Z</time>
      </trkpt>
      <trkpt lat="40.83814" lon="20.10988">
        <ele>660.08001708984</ele>
        <time>2024-09-26T12:51:50.000Z</time>
      </trkpt>
      <trkpt lat="40.83808" lon="20.10989">
        <ele>660.08001708984</ele>
        <time>2024-09-26T12:51:51.000Z</time>
      </trkpt>
      <trkpt lat="40.838" lon="20.10989">
        <ele>659.59997558594</ele>
        <time>2024-09-26T12:51:52.000Z</time>
      </trkpt>
      <trkpt lat="40.83793" lon="20.10989">
        <ele>659.11999511719</ele>
        <time>2024-09-26T12:51:53.000Z</time>
      </trkpt>
      <trkpt lat="40.8379" lon="20.10989">
        <ele>659.11999511719</ele>
        <time>2024-09-26T12:51:54.000Z</time>
      </trkpt>
      <trkpt lat="40.83783" lon="20.1099">
        <ele>658.64001464844</ele>
        <time>2024-09-26T12:51:55.000Z</time>
      </trkpt>
      <trkpt lat="40.83777" lon="20.10992">
        <ele>658.64001464844</ele>
        <time>2024-09-26T12:51:56.000Z</time>
      </trkpt>
      <trkpt lat="40.8377" lon="20.10997">
        <ele>658.15997314453</ele>
        <time>2024-09-26T12:51:57.000Z</time>
      </trkpt>
      <trkpt lat="40.83763" lon="20.11">
        <ele>657.67999267578</ele>
        <time>2024-09-26T12:51:58.000Z</time>
      </trkpt>
      <trkpt lat="40.8376" lon="20.11002">
        <ele>657.67999267578</ele>
        <time>2024-09-26T12:51:59.000Z</time>
      </trkpt>
      <trkpt lat="40.83755" lon="20.11003">
        <ele>657.20001220703</ele>
        <time>2024-09-26T12:52:00.000Z</time>
      </trkpt>
      <trkpt lat="40.8375" lon="20.11">
        <ele>657.20001220703</ele>
        <time>2024-09-26T12:52:01.000Z</time>
      </trkpt>
      <trkpt lat="40.83748" lon="20.10996">
        <ele>657.20001220703</ele>
        <time>2024-09-26T12:52:02.000Z</time>
      </trkpt>
      <trkpt lat="40.83747" lon="20.10989">
        <ele>656.71997070312</ele>
        <time>2024-09-26T12:52:03.000Z</time>
      </trkpt>
      <trkpt lat="40.83747" lon="20.10981">
        <ele>656.23999023438</ele>
        <time>2024-09-26T12:52:04.000Z</time>
      </trkpt>
      <trkpt lat="40.83748" lon="20.10975">
        <ele>656.23999023438</ele>
        <time>2024-09-26T12:52:05.000Z</time>
      </trkpt>
      <trkpt lat="40.83755" lon="20.10965">
        <ele>655.76000976562</ele>
        <time>2024-09-26T12:52:06.000Z</time>
      </trkpt>
      <trkpt lat="40.83755" lon="20.10964">
        <ele>655.28002929688</ele>
        <time>2024-09-26T12:52:07.000Z</time>
      </trkpt>
      <trkpt lat="40.8376" lon="20.10957">
        <ele>654.79998779297</ele>
        <time>2024-09-26T12:52:08.000Z</time>
      </trkpt>
      <trkpt lat="40.83765" lon="20.10949">
        <ele>654.30999755859</ele>
        <time>2024-09-26T12:52:09.000Z</time>
      </trkpt>
      <trkpt lat="40.8377" lon="20.10941">
        <ele>653.83001708984</ele>
        <time>2024-09-26T12:52:10.000Z</time>
      </trkpt>
      <trkpt lat="40.83771" lon="20.10937">
        <ele>653.83001708984</ele>
        <time>2024-09-26T12:52:11.000Z</time>
      </trkpt>
      <trkpt lat="40.83773" lon="20.10931">
        <ele>653.83001708984</ele>
        <time>2024-09-26T12:52:12.000Z</time>
      </trkpt>
      <trkpt lat="40.83774" lon="20.10922">
        <ele>654.30999755859</ele>
        <time>2024-09-26T12:52:13.000Z</time>
      </trkpt>
      <trkpt lat="40.83774" lon="20.10914">
        <ele>653.83001708984</ele>
        <time>2024-09-26T12:52:14.000Z</time>
      </trkpt>
      <trkpt lat="40.83772" lon="20.10906">
        <ele>654.30999755859</ele>
        <time>2024-09-26T12:52:15.000Z</time>
      </trkpt>
      <trkpt lat="40.83768" lon="20.10898">
        <ele>654.30999755859</ele>
        <time>2024-09-26T12:52:16.000Z</time>
      </trkpt>
      <trkpt lat="40.83764" lon="20.10888">
        <ele>653.83001708984</ele>
        <time>2024-09-26T12:52:17.000Z</time>
      </trkpt>
      <trkpt lat="40.83761" lon="20.10882">
        <ele>653.83001708984</ele>
        <time>2024-09-26T12:52:18.000Z</time>
      </trkpt>
      <trkpt lat="40.83757" lon="20.10875">
        <ele>653.34997558594</ele>
        <time>2024-09-26T12:52:19.000Z</time>
      </trkpt>
      <trkpt lat="40.83752" lon="20.10868">
        <ele>653.34997558594</ele>
        <time>2024-09-26T12:52:20.000Z</time>
      </trkpt>
      <trkpt lat="40.83742" lon="20.10853">
        <ele>652.86999511719</ele>
        <time>2024-09-26T12:52:22.000Z</time>
      </trkpt>
      <trkpt lat="40.83738" lon="20.10846">
        <ele>652.39001464844</ele>
        <time>2024-09-26T12:52:23.000Z</time>
      </trkpt>
      <trkpt lat="40.83734" lon="20.10837">
        <ele>652.39001464844</ele>
        <time>2024-09-26T12:52:24.000Z</time>
      </trkpt>
      <trkpt lat="40.83732" lon="20.10828">
        <ele>651.90997314453</ele>
        <time>2024-09-26T12:52:25.000Z</time>
      </trkpt>
      <trkpt lat="40.83724" lon="20.10792">
        <ele>650.95001220703</ele>
        <time>2024-09-26T12:52:28.000Z</time>
      </trkpt>
      <trkpt lat="40.83723" lon="20.1079">
        <ele>650.95001220703</ele>
        <time>2024-09-26T12:52:29.000Z</time>
      </trkpt>
      <trkpt lat="40.8372" lon="20.10779">
        <ele>650.95001220703</ele>
        <time>2024-09-26T12:52:30.000Z</time>
      </trkpt>
      <trkpt lat="40.83717" lon="20.10773">
        <ele>650.95001220703</ele>
        <time>2024-09-26T12:52:31.000Z</time>
      </trkpt>
      <trkpt lat="40.83713" lon="20.10763">
        <ele>650.46997070312</ele>
        <time>2024-09-26T12:52:32.000Z</time>
      </trkpt>
      <trkpt lat="40.83704" lon="20.10738">
        <ele>650.46997070312</ele>
        <time>2024-09-26T12:52:34.000Z</time>
      </trkpt>
      <trkpt lat="40.83703" lon="20.10735">
        <ele>650.46997070312</ele>
        <time>2024-09-26T12:52:35.000Z</time>
      </trkpt>
      <trkpt lat="40.83701" lon="20.10725">
        <ele>649.98999023438</ele>
        <time>2024-09-26T12:52:36.000Z</time>
      </trkpt>
      <trkpt lat="40.83698" lon="20.10707">
        <ele>649.51000976562</ele>
        <time>2024-09-26T12:52:38.000Z</time>
      </trkpt>
      <trkpt lat="40.83696" lon="20.10692">
        <ele>649.03002929688</ele>
        <time>2024-09-26T12:52:39.000Z</time>
      </trkpt>
      <trkpt lat="40.83694" lon="20.10683">
        <ele>648.54998779297</ele>
        <time>2024-09-26T12:52:40.000Z</time>
      </trkpt>
      <trkpt lat="40.83694" lon="20.10681">
        <ele>648.07000732422</ele>
        <time>2024-09-26T12:52:41.000Z</time>
      </trkpt>
      <trkpt lat="40.83693" lon="20.10671">
        <ele>647.59002685547</ele>
        <time>2024-09-26T12:52:42.000Z</time>
      </trkpt>
      <trkpt lat="40.83693" lon="20.10661">
        <ele>646.61999511719</ele>
        <time>2024-09-26T12:52:43.000Z</time>
      </trkpt>
      <trkpt lat="40.83692" lon="20.10655">
        <ele>646.14001464844</ele>
        <time>2024-09-26T12:52:44.000Z</time>
      </trkpt>
      <trkpt lat="40.83689" lon="20.10647">
        <ele>645.17999267578</ele>
        <time>2024-09-26T12:52:45.000Z</time>
      </trkpt>
      <trkpt lat="40.83685" lon="20.10642">
        <ele>644.70001220703</ele>
        <time>2024-09-26T12:52:46.000Z</time>
      </trkpt>
      <trkpt lat="40.8368" lon="20.10639">
        <ele>644.21997070312</ele>
        <time>2024-09-26T12:52:47.000Z</time>
      </trkpt>
      <trkpt lat="40.83674" lon="20.10637">
        <ele>643.73999023438</ele>
        <time>2024-09-26T12:52:48.000Z</time>
      </trkpt>
      <trkpt lat="40.83668" lon="20.10638">
        <ele>643.73999023438</ele>
        <time>2024-09-26T12:52:49.000Z</time>
      </trkpt>
      <trkpt lat="40.83662" lon="20.10641">
        <ele>643.73999023438</ele>
        <time>2024-09-26T12:52:50.000Z</time>
      </trkpt>
      <trkpt lat="40.83656" lon="20.10646">
        <ele>643.73999023438</ele>
        <time>2024-09-26T12:52:51.000Z</time>
      </trkpt>
      <trkpt lat="40.8365" lon="20.1065">
        <ele>643.73999023438</ele>
        <time>2024-09-26T12:52:52.000Z</time>
      </trkpt>
      <trkpt lat="40.83644" lon="20.10657">
        <ele>643.73999023438</ele>
        <time>2024-09-26T12:52:53.000Z</time>
      </trkpt>
      <trkpt lat="40.83639" lon="20.10664">
        <ele>643.73999023438</ele>
        <time>2024-09-26T12:52:54.000Z</time>
      </trkpt>
      <trkpt lat="40.83635" lon="20.1067">
        <ele>643.73999023438</ele>
        <time>2024-09-26T12:52:55.000Z</time>
      </trkpt>
      <trkpt lat="40.83628" lon="20.10677">
        <ele>643.73999023438</ele>
        <time>2024-09-26T12:52:56.000Z</time>
      </trkpt>
      <trkpt lat="40.83623" lon="20.10682">
        <ele>644.21997070312</ele>
        <time>2024-09-26T12:53:03.000Z</time>
      </trkpt>
      <trkpt lat="40.83623" lon="20.10682">
        <ele>646.61999511719</ele>
        <time>2024-09-26T13:02:51.000Z</time>
      </trkpt>
      <trkpt lat="40.8361" lon="20.10701">
        <ele>646.14001464844</ele>
        <time>2024-09-26T13:03:03.000Z</time>
      </trkpt>
      <trkpt lat="40.83608" lon="20.10704">
        <ele>645.65997314453</ele>
        <time>2024-09-26T13:03:04.000Z</time>
      </trkpt>
      <trkpt lat="40.83605" lon="20.10706">
        <ele>645.65997314453</ele>
        <time>2024-09-26T13:03:05.000Z</time>
      </trkpt>
      <trkpt lat="40.836" lon="20.10709">
        <ele>645.65997314453</ele>
        <time>2024-09-26T13:03:06.000Z</time>
      </trkpt>
      <trkpt lat="40.83594" lon="20.1071">
        <ele>645.17999267578</ele>
        <time>2024-09-26T13:03:07.000Z</time>
      </trkpt>
      <trkpt lat="40.83588" lon="20.1071">
        <ele>644.70001220703</ele>
        <time>2024-09-26T13:03:08.000Z</time>
      </trkpt>
      <trkpt lat="40.83581" lon="20.10708">
        <ele>644.70001220703</ele>
        <time>2024-09-26T13:03:09.000Z</time>
      </trkpt>
      <trkpt lat="40.83574" lon="20.10705">
        <ele>644.70001220703</ele>
        <time>2024-09-26T13:03:10.000Z</time>
      </trkpt>
      <trkpt lat="40.83568" lon="20.10702">
        <ele>644.70001220703</ele>
        <time>2024-09-26T13:03:11.000Z</time>
      </trkpt>
      <trkpt lat="40.83562" lon="20.10698">
        <ele>644.21997070312</ele>
        <time>2024-09-26T13:03:12.000Z</time>
      </trkpt>
      <trkpt lat="40.83553" lon="20.10692">
        <ele>644.21997070312</ele>
        <time>2024-09-26T13:03:13.000Z</time>
      </trkpt>
      <trkpt lat="40.83549" lon="20.10691">
        <ele>644.21997070312</ele>
        <time>2024-09-26T13:03:14.000Z</time>
      </trkpt>
      <trkpt lat="40.83543" lon="20.10687">
        <ele>644.21997070312</ele>
        <time>2024-09-26T13:03:15.000Z</time>
      </trkpt>
      <trkpt lat="40.83531" lon="20.10682">
        <ele>644.21997070312</ele>
        <time>2024-09-26T13:03:16.000Z</time>
      </trkpt>
      <trkpt lat="40.83529" lon="20.10681">
        <ele>644.21997070312</ele>
        <time>2024-09-26T13:03:17.000Z</time>
      </trkpt>
      <trkpt lat="40.8352" lon="20.10679">
        <ele>643.73999023438</ele>
        <time>2024-09-26T13:03:18.000Z</time>
      </trkpt>
      <trkpt lat="40.83512" lon="20.10677">
        <ele>643.73999023438</ele>
        <time>2024-09-26T13:03:19.000Z</time>
      </trkpt>
      <trkpt lat="40.83506" lon="20.10677">
        <ele>643.73999023438</ele>
        <time>2024-09-26T13:03:20.000Z</time>
      </trkpt>
      <trkpt lat="40.83498" lon="20.10677">
        <ele>643.73999023438</ele>
        <time>2024-09-26T13:03:21.000Z</time>
      </trkpt>
      <trkpt lat="40.83491" lon="20.1068">
        <ele>643.73999023438</ele>
        <time>2024-09-26T13:03:22.000Z</time>
      </trkpt>
      <trkpt lat="40.83471" lon="20.10689">
        <ele>643.26000976562</ele>
        <time>2024-09-26T13:03:24.000Z</time>
      </trkpt>
      <trkpt lat="40.83465" lon="20.10692">
        <ele>643.26000976562</ele>
        <time>2024-09-26T13:03:25.000Z</time>
      </trkpt>
      <trkpt lat="40.83454" lon="20.10696">
        <ele>643.26000976562</ele>
        <time>2024-09-26T13:03:26.000Z</time>
      </trkpt>
      <trkpt lat="40.83372" lon="20.10732">
        <ele>641.34002685547</ele>
        <time>2024-09-26T13:03:35.000Z</time>
      </trkpt>
      <trkpt lat="40.83369" lon="20.10733">
        <ele>641.34002685547</ele>
        <time>2024-09-26T13:03:36.000Z</time>
      </trkpt>
      <trkpt lat="40.83362" lon="20.10735">
        <ele>640.38000488281</ele>
        <time>2024-09-26T13:03:37.000Z</time>
      </trkpt>
      <trkpt lat="40.83356" lon="20.10735">
        <ele>639.89001464844</ele>
        <time>2024-09-26T13:03:38.000Z</time>
      </trkpt>
      <trkpt lat="40.8335" lon="20.10734">
        <ele>639.40997314453</ele>
        <time>2024-09-26T13:03:39.000Z</time>
      </trkpt>
      <trkpt lat="40.83346" lon="20.1073">
        <ele>638.92999267578</ele>
        <time>2024-09-26T13:03:40.000Z</time>
      </trkpt>
      <trkpt lat="40.83342" lon="20.10725">
        <ele>637.96997070312</ele>
        <time>2024-09-26T13:03:41.000Z</time>
      </trkpt>
      <trkpt lat="40.83338" lon="20.10719">
        <ele>637.48999023438</ele>
        <time>2024-09-26T13:03:42.000Z</time>
      </trkpt>
      <trkpt lat="40.83333" lon="20.1071">
        <ele>636.53002929688</ele>
        <time>2024-09-26T13:03:43.000Z</time>
      </trkpt>
      <trkpt lat="40.83328" lon="20.10702">
        <ele>636.04998779297</ele>
        <time>2024-09-26T13:03:44.000Z</time>
      </trkpt>
      <trkpt lat="40.83322" lon="20.10694">
        <ele>635.57000732422</ele>
        <time>2024-09-26T13:03:45.000Z</time>
      </trkpt>
      <trkpt lat="40.83317" lon="20.10688">
        <ele>635.09002685547</ele>
        <time>2024-09-26T13:03:46.000Z</time>
      </trkpt>
      <trkpt lat="40.83311" lon="20.10684">
        <ele>634.60998535156</ele>
        <time>2024-09-26T13:03:47.000Z</time>
      </trkpt>
      <trkpt lat="40.83306" lon="20.10684">
        <ele>634.13000488281</ele>
        <time>2024-09-26T13:03:48.000Z</time>
      </trkpt>
      <trkpt lat="40.83302" lon="20.10686">
        <ele>634.13000488281</ele>
        <time>2024-09-26T13:03:49.000Z</time>
      </trkpt>
      <trkpt lat="40.83298" lon="20.10689">
        <ele>634.60998535156</ele>
        <time>2024-09-26T13:03:50.000Z</time>
      </trkpt>
      <trkpt lat="40.83295" lon="20.10693">
        <ele>635.09002685547</ele>
        <time>2024-09-26T13:03:51.000Z</time>
      </trkpt>
      <trkpt lat="40.83292" lon="20.10698">
        <ele>635.09002685547</ele>
        <time>2024-09-26T13:03:52.000Z</time>
      </trkpt>
      <trkpt lat="40.83291" lon="20.10705">
        <ele>635.09002685547</ele>
        <time>2024-09-26T13:03:53.000Z</time>
      </trkpt>
      <trkpt lat="40.83292" lon="20.10714">
        <ele>635.57000732422</ele>
        <time>2024-09-26T13:03:54.000Z</time>
      </trkpt>
      <trkpt lat="40.83294" lon="20.10723">
        <ele>635.57000732422</ele>
        <time>2024-09-26T13:03:55.000Z</time>
      </trkpt>
      <trkpt lat="40.83298" lon="20.10734">
        <ele>636.53002929688</ele>
        <time>2024-09-26T13:03:56.000Z</time>
      </trkpt>
      <trkpt lat="40.833" lon="20.10739">
        <ele>636.53002929688</ele>
        <time>2024-09-26T13:03:57.000Z</time>
      </trkpt>
      <trkpt lat="40.83302" lon="20.10749">
        <ele>637.01000976562</ele>
        <time>2024-09-26T13:03:58.000Z</time>
      </trkpt>
      <trkpt lat="40.83302" lon="20.10771">
        <ele>638.92999267578</ele>
        <time>2024-09-26T13:04:00.000Z</time>
      </trkpt>
      <trkpt lat="40.83304" lon="20.10793">
        <ele>640.38000488281</ele>
        <time>2024-09-26T13:04:02.000Z</time>
      </trkpt>
      <trkpt lat="40.83304" lon="20.108">
        <ele>640.85998535156</ele>
        <time>2024-09-26T13:04:03.000Z</time>
      </trkpt>
      <trkpt lat="40.83304" lon="20.1081">
        <ele>642.29998779297</ele>
        <time>2024-09-26T13:04:04.000Z</time>
      </trkpt>
      <trkpt lat="40.83302" lon="20.10844">
        <ele>644.21997070312</ele>
        <time>2024-09-26T13:04:07.000Z</time>
      </trkpt>
      <trkpt lat="40.833" lon="20.10855">
        <ele>644.70001220703</ele>
        <time>2024-09-26T13:04:08.000Z</time>
      </trkpt>
      <trkpt lat="40.83297" lon="20.10866">
        <ele>645.17999267578</ele>
        <time>2024-09-26T13:04:09.000Z</time>
      </trkpt>
      <trkpt lat="40.83294" lon="20.10874">
        <ele>645.65997314453</ele>
        <time>2024-09-26T13:04:10.000Z</time>
      </trkpt>
      <trkpt lat="40.8329" lon="20.10886">
        <ele>646.14001464844</ele>
        <time>2024-09-26T13:04:11.000Z</time>
      </trkpt>
      <trkpt lat="40.83287" lon="20.10896">
        <ele>646.61999511719</ele>
        <time>2024-09-26T13:04:12.000Z</time>
      </trkpt>
      <trkpt lat="40.83284" lon="20.10903">
        <ele>647.09997558594</ele>
        <time>2024-09-26T13:04:13.000Z</time>
      </trkpt>
      <trkpt lat="40.8328" lon="20.10909">
        <ele>647.59002685547</ele>
        <time>2024-09-26T13:04:14.000Z</time>
      </trkpt>
      <trkpt lat="40.83276" lon="20.10911">
        <ele>648.07000732422</ele>
        <time>2024-09-26T13:04:15.000Z</time>
      </trkpt>
      <trkpt lat="40.83271" lon="20.1091">
        <ele>649.03002929688</ele>
        <time>2024-09-26T13:04:16.000Z</time>
      </trkpt>
      <trkpt lat="40.83267" lon="20.10906">
        <ele>649.51000976562</ele>
        <time>2024-09-26T13:04:17.000Z</time>
      </trkpt>
      <trkpt lat="40.83265" lon="20.10899">
        <ele>649.98999023438</ele>
        <time>2024-09-26T13:04:18.000Z</time>
      </trkpt>
      <trkpt lat="40.83263" lon="20.10883">
        <ele>651.90997314453</ele>
        <time>2024-09-26T13:04:19.000Z</time>
      </trkpt>
      <trkpt lat="40.83262" lon="20.10869">
        <ele>652.39001464844</ele>
        <time>2024-09-26T13:04:21.000Z</time>
      </trkpt>
      <trkpt lat="40.8326" lon="20.10836">
        <ele>652.86999511719</ele>
        <time>2024-09-26T13:04:23.000Z</time>
      </trkpt>
      <trkpt lat="40.83259" lon="20.10832">
        <ele>652.39001464844</ele>
        <time>2024-09-26T13:04:24.000Z</time>
      </trkpt>
      <trkpt lat="40.83258" lon="20.10821">
        <ele>652.39001464844</ele>
        <time>2024-09-26T13:04:25.000Z</time>
      </trkpt>
      <trkpt lat="40.83255" lon="20.10811">
        <ele>652.39001464844</ele>
        <time>2024-09-26T13:04:26.000Z</time>
      </trkpt>
      <trkpt lat="40.83251" lon="20.10801">
        <ele>652.39001464844</ele>
        <time>2024-09-26T13:04:27.000Z</time>
      </trkpt>
      <trkpt lat="40.83246" lon="20.1079">
        <ele>652.86999511719</ele>
        <time>2024-09-26T13:04:28.000Z</time>
      </trkpt>
      <trkpt lat="40.83243" lon="20.10784">
        <ele>652.86999511719</ele>
        <time>2024-09-26T13:04:29.000Z</time>
      </trkpt>
      <trkpt lat="40.83238" lon="20.10776">
        <ele>652.86999511719</ele>
        <time>2024-09-26T13:04:30.000Z</time>
      </trkpt>
      <trkpt lat="40.83231" lon="20.10771">
        <ele>652.86999511719</ele>
        <time>2024-09-26T13:04:31.000Z</time>
      </trkpt>
      <trkpt lat="40.83224" lon="20.10769">
        <ele>653.83001708984</ele>
        <time>2024-09-26T13:04:32.000Z</time>
      </trkpt>
      <trkpt lat="40.83215" lon="20.10768">
        <ele>654.30999755859</ele>
        <time>2024-09-26T13:04:33.000Z</time>
      </trkpt>
      <trkpt lat="40.83208" lon="20.10766">
        <ele>654.79998779297</ele>
        <time>2024-09-26T13:04:34.000Z</time>
      </trkpt>
      <trkpt lat="40.832" lon="20.10761">
        <ele>655.76000976562</ele>
        <time>2024-09-26T13:04:35.000Z</time>
      </trkpt>
      <trkpt lat="40.83195" lon="20.10757">
        <ele>656.23999023438</ele>
        <time>2024-09-26T13:04:36.000Z</time>
      </trkpt>
      <trkpt lat="40.83188" lon="20.10755">
        <ele>657.20001220703</ele>
        <time>2024-09-26T13:04:37.000Z</time>
      </trkpt>
      <trkpt lat="40.8318" lon="20.10755">
        <ele>657.67999267578</ele>
        <time>2024-09-26T13:04:38.000Z</time>
      </trkpt>
      <trkpt lat="40.83172" lon="20.1076">
        <ele>658.64001464844</ele>
        <time>2024-09-26T13:04:39.000Z</time>
      </trkpt>
      <trkpt lat="40.83162" lon="20.10767">
        <ele>660.08001708984</ele>
        <time>2024-09-26T13:04:40.000Z</time>
      </trkpt>
      <trkpt lat="40.83157" lon="20.10772">
        <ele>660.55999755859</ele>
        <time>2024-09-26T13:04:41.000Z</time>
      </trkpt>
      <trkpt lat="40.8315" lon="20.1078">
        <ele>661.52001953125</ele>
        <time>2024-09-26T13:04:42.000Z</time>
      </trkpt>
      <trkpt lat="40.83145" lon="20.10789">
        <ele>662.01000976562</ele>
        <time>2024-09-26T13:04:43.000Z</time>
      </trkpt>
      <trkpt lat="40.8314" lon="20.10803">
        <ele>662.96997070312</ele>
        <time>2024-09-26T13:04:44.000Z</time>
      </trkpt>
      <trkpt lat="40.83138" lon="20.10812">
        <ele>663.45001220703</ele>
        <time>2024-09-26T13:04:45.000Z</time>
      </trkpt>
      <trkpt lat="40.83132" lon="20.10827">
        <ele>663.92999267578</ele>
        <time>2024-09-26T13:04:46.000Z</time>
      </trkpt>
      <trkpt lat="40.83127" lon="20.10839">
        <ele>664.89001464844</ele>
        <time>2024-09-26T13:04:48.000Z</time>
      </trkpt>
      <trkpt lat="40.83125" lon="20.10843">
        <ele>664.89001464844</ele>
        <time>2024-09-26T13:04:54.000Z</time>
      </trkpt>
      <trkpt lat="40.83122" lon="20.10851">
        <ele>664.40997314453</ele>
        <time>2024-09-26T13:05:57.000Z</time>
      </trkpt>
      <trkpt lat="40.83121" lon="20.10854">
        <ele>664.89001464844</ele>
        <time>2024-09-26T13:05:58.000Z</time>
      </trkpt>
      <trkpt lat="40.83117" lon="20.1086">
        <ele>664.40997314453</ele>
        <time>2024-09-26T13:05:59.000Z</time>
      </trkpt>
      <trkpt lat="40.83102" lon="20.1088">
        <ele>664.40997314453</ele>
        <time>2024-09-26T13:06:02.000Z</time>
      </trkpt>
      <trkpt lat="40.83094" lon="20.10891">
        <ele>664.40997314453</ele>
        <time>2024-09-26T13:06:03.000Z</time>
      </trkpt>
      <trkpt lat="40.8309" lon="20.10895">
        <ele>664.40997314453</ele>
        <time>2024-09-26T13:06:04.000Z</time>
      </trkpt>
      <trkpt lat="40.83073" lon="20.10911">
        <ele>663.92999267578</ele>
        <time>2024-09-26T13:06:07.000Z</time>
      </trkpt>
      <trkpt lat="40.83064" lon="20.1092">
        <ele>662.96997070312</ele>
        <time>2024-09-26T13:06:08.000Z</time>
      </trkpt>
      <trkpt lat="40.83059" lon="20.10926">
        <ele>662.48999023438</ele>
        <time>2024-09-26T13:06:09.000Z</time>
      </trkpt>
      <trkpt lat="40.83055" lon="20.10933">
        <ele>662.01000976562</ele>
        <time>2024-09-26T13:06:10.000Z</time>
      </trkpt>
      <trkpt lat="40.83049" lon="20.10942">
        <ele>661.52001953125</ele>
        <time>2024-09-26T13:06:11.000Z</time>
      </trkpt>
      <trkpt lat="40.83044" lon="20.10953">
        <ele>661.03997802734</ele>
        <time>2024-09-26T13:06:12.000Z</time>
      </trkpt>
      <trkpt lat="40.8304" lon="20.1096">
        <ele>660.55999755859</ele>
        <time>2024-09-26T13:06:13.000Z</time>
      </trkpt>
      <trkpt lat="40.83035" lon="20.10966">
        <ele>660.08001708984</ele>
        <time>2024-09-26T13:06:14.000Z</time>
      </trkpt>
      <trkpt lat="40.83028" lon="20.10968">
        <ele>659.59997558594</ele>
        <time>2024-09-26T13:06:15.000Z</time>
      </trkpt>
      <trkpt lat="40.8302" lon="20.10968">
        <ele>659.11999511719</ele>
        <time>2024-09-26T13:06:16.000Z</time>
      </trkpt>
      <trkpt lat="40.83012" lon="20.10967">
        <ele>658.15997314453</ele>
        <time>2024-09-26T13:06:17.000Z</time>
      </trkpt>
      <trkpt lat="40.83005" lon="20.10963">
        <ele>657.67999267578</ele>
        <time>2024-09-26T13:06:18.000Z</time>
      </trkpt>
      <trkpt lat="40.82999" lon="20.10956">
        <ele>657.20001220703</ele>
        <time>2024-09-26T13:06:19.000Z</time>
      </trkpt>
      <trkpt lat="40.82989" lon="20.10937">
        <ele>656.23999023438</ele>
        <time>2024-09-26T13:06:21.000Z</time>
      </trkpt>
      <trkpt lat="40.82983" lon="20.10927">
        <ele>656.23999023438</ele>
        <time>2024-09-26T13:06:22.000Z</time>
      </trkpt>
      <trkpt lat="40.82975" lon="20.1092">
        <ele>656.23999023438</ele>
        <time>2024-09-26T13:06:23.000Z</time>
      </trkpt>
      <trkpt lat="40.82962" lon="20.1091">
        <ele>656.71997070312</ele>
        <time>2024-09-26T13:06:24.000Z</time>
      </trkpt>
      <trkpt lat="40.82956" lon="20.10905">
        <ele>656.71997070312</ele>
        <time>2024-09-26T13:06:25.000Z</time>
      </trkpt>
      <trkpt lat="40.82944" lon="20.10895">
        <ele>657.20001220703</ele>
        <time>2024-09-26T13:06:26.000Z</time>
      </trkpt>
      <trkpt lat="40.82934" lon="20.10889">
        <ele>657.20001220703</ele>
        <time>2024-09-26T13:06:27.000Z</time>
      </trkpt>
      <trkpt lat="40.82916" lon="20.10878">
        <ele>657.67999267578</ele>
        <time>2024-09-26T13:06:28.000Z</time>
      </trkpt>
      <trkpt lat="40.82914" lon="20.10877">
        <ele>658.15997314453</ele>
        <time>2024-09-26T13:06:29.000Z</time>
      </trkpt>
      <trkpt lat="40.82904" lon="20.10874">
        <ele>658.15997314453</ele>
        <time>2024-09-26T13:06:30.000Z</time>
      </trkpt>
      <trkpt lat="40.82895" lon="20.10873">
        <ele>658.15997314453</ele>
        <time>2024-09-26T13:06:31.000Z</time>
      </trkpt>
      <trkpt lat="40.82886" lon="20.10876">
        <ele>658.64001464844</ele>
        <time>2024-09-26T13:06:32.000Z</time>
      </trkpt>
      <trkpt lat="40.82878" lon="20.10881">
        <ele>659.11999511719</ele>
        <time>2024-09-26T13:06:33.000Z</time>
      </trkpt>
      <trkpt lat="40.82869" lon="20.10887">
        <ele>659.59997558594</ele>
        <time>2024-09-26T13:06:34.000Z</time>
      </trkpt>
      <trkpt lat="40.8286" lon="20.10892">
        <ele>660.08001708984</ele>
        <time>2024-09-26T13:06:35.000Z</time>
      </trkpt>
      <trkpt lat="40.82851" lon="20.10895">
        <ele>661.03997802734</ele>
        <time>2024-09-26T13:06:36.000Z</time>
      </trkpt>
      <trkpt lat="40.82838" lon="20.10895">
        <ele>661.52001953125</ele>
        <time>2024-09-26T13:06:37.000Z</time>
      </trkpt>
      <trkpt lat="40.82828" lon="20.10894">
        <ele>662.48999023438</ele>
        <time>2024-09-26T13:06:38.000Z</time>
      </trkpt>
      <trkpt lat="40.82817" lon="20.10892">
        <ele>663.45001220703</ele>
        <time>2024-09-26T13:06:39.000Z</time>
      </trkpt>
      <trkpt lat="40.82792" lon="20.10881">
        <ele>663.92999267578</ele>
        <time>2024-09-26T13:06:41.000Z</time>
      </trkpt>
      <trkpt lat="40.82788" lon="20.1088">
        <ele>663.92999267578</ele>
        <time>2024-09-26T13:06:42.000Z</time>
      </trkpt>
      <trkpt lat="40.82775" lon="20.10876">
        <ele>663.45001220703</ele>
        <time>2024-09-26T13:06:43.000Z</time>
      </trkpt>
      <trkpt lat="40.82765" lon="20.10874">
        <ele>663.45001220703</ele>
        <time>2024-09-26T13:06:44.000Z</time>
      </trkpt>
      <trkpt lat="40.82759" lon="20.10872">
        <ele>663.45001220703</ele>
        <time>2024-09-26T13:06:45.000Z</time>
      </trkpt>
      <trkpt lat="40.82749" lon="20.10867">
        <ele>663.45001220703</ele>
        <time>2024-09-26T13:06:46.000Z</time>
      </trkpt>
      <trkpt lat="40.82728" lon="20.10854">
        <ele>662.96997070312</ele>
        <time>2024-09-26T13:06:48.000Z</time>
      </trkpt>
      <trkpt lat="40.82721" lon="20.10851">
        <ele>662.48999023438</ele>
        <time>2024-09-26T13:06:49.000Z</time>
      </trkpt>
      <trkpt lat="40.82711" lon="20.10846">
        <ele>662.01000976562</ele>
        <time>2024-09-26T13:06:50.000Z</time>
      </trkpt>
      <trkpt lat="40.82701" lon="20.10843">
        <ele>661.52001953125</ele>
        <time>2024-09-26T13:06:51.000Z</time>
      </trkpt>
      <trkpt lat="40.82688" lon="20.10842">
        <ele>661.03997802734</ele>
        <time>2024-09-26T13:06:52.000Z</time>
      </trkpt>
      <trkpt lat="40.82674" lon="20.10842">
        <ele>660.08001708984</ele>
        <time>2024-09-26T13:06:53.000Z</time>
      </trkpt>
      <trkpt lat="40.82667" lon="20.10841">
        <ele>660.08001708984</ele>
        <time>2024-09-26T13:06:54.000Z</time>
      </trkpt>
      <trkpt lat="40.8266" lon="20.10839">
        <ele>659.59997558594</ele>
        <time>2024-09-26T13:06:55.000Z</time>
      </trkpt>
      <trkpt lat="40.82651" lon="20.10836">
        <ele>659.11999511719</ele>
        <time>2024-09-26T13:06:56.000Z</time>
      </trkpt>
      <trkpt lat="40.82638" lon="20.1083">
        <ele>658.64001464844</ele>
        <time>2024-09-26T13:06:57.000Z</time>
      </trkpt>
      <trkpt lat="40.82628" lon="20.10827">
        <ele>658.64001464844</ele>
        <time>2024-09-26T13:06:58.000Z</time>
      </trkpt>
      <trkpt lat="40.82601" lon="20.10818">
        <ele>659.59997558594</ele>
        <time>2024-09-26T13:07:01.000Z</time>
      </trkpt>
      <trkpt lat="40.82598" lon="20.10817">
        <ele>659.59997558594</ele>
        <time>2024-09-26T13:07:02.000Z</time>
      </trkpt>
      <trkpt lat="40.82593" lon="20.10814">
        <ele>659.59997558594</ele>
        <time>2024-09-26T13:07:03.000Z</time>
      </trkpt>
      <trkpt lat="40.82588" lon="20.1081">
        <ele>660.08001708984</ele>
        <time>2024-09-26T13:07:04.000Z</time>
      </trkpt>
      <trkpt lat="40.82583" lon="20.10803">
        <ele>660.55999755859</ele>
        <time>2024-09-26T13:07:05.000Z</time>
      </trkpt>
      <trkpt lat="40.8258" lon="20.10796">
        <ele>661.03997802734</ele>
        <time>2024-09-26T13:07:06.000Z</time>
      </trkpt>
      <trkpt lat="40.82578" lon="20.10785">
        <ele>662.01000976562</ele>
        <time>2024-09-26T13:07:07.000Z</time>
      </trkpt>
      <trkpt lat="40.82576" lon="20.10777">
        <ele>662.48999023438</ele>
        <time>2024-09-26T13:07:08.000Z</time>
      </trkpt>
      <trkpt lat="40.82573" lon="20.1077">
        <ele>662.96997070312</ele>
        <time>2024-09-26T13:07:09.000Z</time>
      </trkpt>
      <trkpt lat="40.82571" lon="20.10763">
        <ele>662.96997070312</ele>
        <time>2024-09-26T13:07:10.000Z</time>
      </trkpt>
      <trkpt lat="40.82566" lon="20.10757">
        <ele>662.96997070312</ele>
        <time>2024-09-26T13:07:11.000Z</time>
      </trkpt>
      <trkpt lat="40.82561" lon="20.10753">
        <ele>663.45001220703</ele>
        <time>2024-09-26T13:07:12.000Z</time>
      </trkpt>
      <trkpt lat="40.82554" lon="20.10752">
        <ele>663.92999267578</ele>
        <time>2024-09-26T13:07:13.000Z</time>
      </trkpt>
      <trkpt lat="40.82549" lon="20.10755">
        <ele>663.92999267578</ele>
        <time>2024-09-26T13:07:14.000Z</time>
      </trkpt>
      <trkpt lat="40.82545" lon="20.1076">
        <ele>664.40997314453</ele>
        <time>2024-09-26T13:07:15.000Z</time>
      </trkpt>
      <trkpt lat="40.82541" lon="20.10767">
        <ele>664.40997314453</ele>
        <time>2024-09-26T13:07:16.000Z</time>
      </trkpt>
      <trkpt lat="40.8254" lon="20.10777">
        <ele>664.89001464844</ele>
        <time>2024-09-26T13:07:17.000Z</time>
      </trkpt>
      <trkpt lat="40.82539" lon="20.10788">
        <ele>665.36999511719</ele>
        <time>2024-09-26T13:07:18.000Z</time>
      </trkpt>
      <trkpt lat="40.82539" lon="20.10806">
        <ele>666.33001708984</ele>
        <time>2024-09-26T13:07:19.000Z</time>
      </trkpt>
      <trkpt lat="40.82539" lon="20.10813">
        <ele>666.80999755859</ele>
        <time>2024-09-26T13:07:20.000Z</time>
      </trkpt>
      <trkpt lat="40.8254" lon="20.10823">
        <ele>667.77001953125</ele>
        <time>2024-09-26T13:07:21.000Z</time>
      </trkpt>
      <trkpt lat="40.8254" lon="20.10833">
        <ele>668.72998046875</ele>
        <time>2024-09-26T13:07:22.000Z</time>
      </trkpt>
      <trkpt lat="40.82539" lon="20.10844">
        <ele>670.17999267578</ele>
        <time>2024-09-26T13:07:23.000Z</time>
      </trkpt>
      <trkpt lat="40.82536" lon="20.10853">
        <ele>670.65997314453</ele>
        <time>2024-09-26T13:07:24.000Z</time>
      </trkpt>
      <trkpt lat="40.82532" lon="20.10862">
        <ele>671.61999511719</ele>
        <time>2024-09-26T13:07:25.000Z</time>
      </trkpt>
      <trkpt lat="40.82527" lon="20.10871">
        <ele>672.09997558594</ele>
        <time>2024-09-26T13:07:26.000Z</time>
      </trkpt>
      <trkpt lat="40.82521" lon="20.10883">
        <ele>672.58001708984</ele>
        <time>2024-09-26T13:07:27.000Z</time>
      </trkpt>
      <trkpt lat="40.82517" lon="20.1089">
        <ele>673.05999755859</ele>
        <time>2024-09-26T13:07:28.000Z</time>
      </trkpt>
      <trkpt lat="40.82511" lon="20.10899">
        <ele>673.53997802734</ele>
        <time>2024-09-26T13:07:29.000Z</time>
      </trkpt>
      <trkpt lat="40.82504" lon="20.10906">
        <ele>674.02001953125</ele>
        <time>2024-09-26T13:07:30.000Z</time>
      </trkpt>
      <trkpt lat="40.82484" lon="20.10922">
        <ele>675.46002197266</ele>
        <time>2024-09-26T13:07:32.000Z</time>
      </trkpt>
      <trkpt lat="40.8248" lon="20.10926">
        <ele>675.94000244141</ele>
        <time>2024-09-26T13:07:33.000Z</time>
      </trkpt>
      <trkpt lat="40.82471" lon="20.10935">
        <ele>676.90997314453</ele>
        <time>2024-09-26T13:07:34.000Z</time>
      </trkpt>
      <trkpt lat="40.82465" lon="20.1094">
        <ele>677.39001464844</ele>
        <time>2024-09-26T13:07:35.000Z</time>
      </trkpt>
      <trkpt lat="40.82458" lon="20.10945">
        <ele>678.83001708984</ele>
        <time>2024-09-26T13:07:36.000Z</time>
      </trkpt>
      <trkpt lat="40.82451" lon="20.10948">
        <ele>679.78997802734</ele>
        <time>2024-09-26T13:07:37.000Z</time>
      </trkpt>
      <trkpt lat="40.82445" lon="20.10948">
        <ele>680.75</ele>
        <time>2024-09-26T13:07:38.000Z</time>
      </trkpt>
      <trkpt lat="40.82441" lon="20.10945">
        <ele>681.22998046875</ele>
        <time>2024-09-26T13:07:39.000Z</time>
      </trkpt>
      <trkpt lat="40.82437" lon="20.10939">
        <ele>681.71002197266</ele>
        <time>2024-09-26T13:07:40.000Z</time>
      </trkpt>
      <trkpt lat="40.82434" lon="20.10931">
        <ele>682.66998291016</ele>
        <time>2024-09-26T13:07:41.000Z</time>
      </trkpt>
      <trkpt lat="40.82432" lon="20.10915">
        <ele>683.15002441406</ele>
        <time>2024-09-26T13:07:42.000Z</time>
      </trkpt>
      <trkpt lat="40.82431" lon="20.10911">
        <ele>683.63000488281</ele>
        <time>2024-09-26T13:07:43.000Z</time>
      </trkpt>
      <trkpt lat="40.82427" lon="20.10897">
        <ele>684.11999511719</ele>
        <time>2024-09-26T13:07:44.000Z</time>
      </trkpt>
      <trkpt lat="40.82425" lon="20.10889">
        <ele>684.59997558594</ele>
        <time>2024-09-26T13:07:45.000Z</time>
      </trkpt>
      <trkpt lat="40.82424" lon="20.1088">
        <ele>685.55999755859</ele>
        <time>2024-09-26T13:07:46.000Z</time>
      </trkpt>
      <trkpt lat="40.82422" lon="20.10868">
        <ele>686.03997802734</ele>
        <time>2024-09-26T13:07:47.000Z</time>
      </trkpt>
      <trkpt lat="40.82421" lon="20.10857">
        <ele>686.52001953125</ele>
        <time>2024-09-26T13:07:48.000Z</time>
      </trkpt>
      <trkpt lat="40.82417" lon="20.10846">
        <ele>687</ele>
        <time>2024-09-26T13:07:49.000Z</time>
      </trkpt>
      <trkpt lat="40.82411" lon="20.10833">
        <ele>687.96002197266</ele>
        <time>2024-09-26T13:07:50.000Z</time>
      </trkpt>
      <trkpt lat="40.82408" lon="20.10826">
        <ele>688.44000244141</ele>
        <time>2024-09-26T13:07:51.000Z</time>
      </trkpt>
      <trkpt lat="40.82406" lon="20.10819">
        <ele>688.91998291016</ele>
        <time>2024-09-26T13:07:52.000Z</time>
      </trkpt>
      <trkpt lat="40.82402" lon="20.10809">
        <ele>688.91998291016</ele>
        <time>2024-09-26T13:07:53.000Z</time>
      </trkpt>
      <trkpt lat="40.82399" lon="20.10801">
        <ele>688.44000244141</ele>
        <time>2024-09-26T13:07:54.000Z</time>
      </trkpt>
      <trkpt lat="40.82395" lon="20.10794">
        <ele>687.96002197266</ele>
        <time>2024-09-26T13:07:55.000Z</time>
      </trkpt>
      <trkpt lat="40.8239" lon="20.10789">
        <ele>687.96002197266</ele>
        <time>2024-09-26T13:07:56.000Z</time>
      </trkpt>
      <trkpt lat="40.82383" lon="20.10787">
        <ele>687.96002197266</ele>
        <time>2024-09-26T13:07:57.000Z</time>
      </trkpt>
      <trkpt lat="40.8236" lon="20.10784">
        <ele>688.91998291016</ele>
        <time>2024-09-26T13:08:00.000Z</time>
      </trkpt>
      <trkpt lat="40.82344" lon="20.10782">
        <ele>689.88000488281</ele>
        <time>2024-09-26T13:08:02.000Z</time>
      </trkpt>
      <trkpt lat="40.82334" lon="20.10779">
        <ele>691.33001708984</ele>
        <time>2024-09-26T13:08:04.000Z</time>
      </trkpt>
      <trkpt lat="40.82327" lon="20.10777">
        <ele>692.28997802734</ele>
        <time>2024-09-26T13:08:05.000Z</time>
      </trkpt>
      <trkpt lat="40.82321" lon="20.10772">
        <ele>693.25</ele>
        <time>2024-09-26T13:08:06.000Z</time>
      </trkpt>
      <trkpt lat="40.82316" lon="20.10765">
        <ele>693.72998046875</ele>
        <time>2024-09-26T13:08:07.000Z</time>
      </trkpt>
      <trkpt lat="40.82306" lon="20.10747">
        <ele>695.16998291016</ele>
        <time>2024-09-26T13:08:09.000Z</time>
      </trkpt>
      <trkpt lat="40.82301" lon="20.10739">
        <ele>696.13000488281</ele>
        <time>2024-09-26T13:08:10.000Z</time>
      </trkpt>
      <trkpt lat="40.8229" lon="20.10724">
        <ele>698.04998779297</ele>
        <time>2024-09-26T13:08:12.000Z</time>
      </trkpt>
      <trkpt lat="40.82284" lon="20.10716">
        <ele>699.02001953125</ele>
        <time>2024-09-26T13:08:13.000Z</time>
      </trkpt>
      <trkpt lat="40.8228" lon="20.10709">
        <ele>699.97998046875</ele>
        <time>2024-09-26T13:08:14.000Z</time>
      </trkpt>
      <trkpt lat="40.82275" lon="20.10701">
        <ele>700.94000244141</ele>
        <time>2024-09-26T13:08:15.000Z</time>
      </trkpt>
      <trkpt lat="40.82271" lon="20.10694">
        <ele>702.38000488281</ele>
        <time>2024-09-26T13:08:16.000Z</time>
      </trkpt>
      <trkpt lat="40.8227" lon="20.10686">
        <ele>703.82000732422</ele>
        <time>2024-09-26T13:08:17.000Z</time>
      </trkpt>
      <trkpt lat="40.82271" lon="20.10678">
        <ele>704.78002929688</ele>
        <time>2024-09-26T13:08:18.000Z</time>
      </trkpt>
      <trkpt lat="40.82274" lon="20.1067">
        <ele>705.75</ele>
        <time>2024-09-26T13:08:19.000Z</time>
      </trkpt>
      <trkpt lat="40.82278" lon="20.10662">
        <ele>707.19000244141</ele>
        <time>2024-09-26T13:08:20.000Z</time>
      </trkpt>
      <trkpt lat="40.82282" lon="20.10655">
        <ele>708.15002441406</ele>
        <time>2024-09-26T13:08:21.000Z</time>
      </trkpt>
      <trkpt lat="40.82288" lon="20.10649">
        <ele>709.10998535156</ele>
        <time>2024-09-26T13:08:22.000Z</time>
      </trkpt>
      <trkpt lat="40.82293" lon="20.10645">
        <ele>710.07000732422</ele>
        <time>2024-09-26T13:08:23.000Z</time>
      </trkpt>
      <trkpt lat="40.82298" lon="20.1064">
        <ele>711.03002929688</ele>
        <time>2024-09-26T13:08:24.000Z</time>
      </trkpt>
      <trkpt lat="40.82305" lon="20.10631">
        <ele>712.46997070312</ele>
        <time>2024-09-26T13:08:25.000Z</time>
      </trkpt>
      <trkpt lat="40.82309" lon="20.10626">
        <ele>712.95001220703</ele>
        <time>2024-09-26T13:08:26.000Z</time>
      </trkpt>
      <trkpt lat="40.82313" lon="20.10619">
        <ele>714.40002441406</ele>
        <time>2024-09-26T13:08:27.000Z</time>
      </trkpt>
      <trkpt lat="40.82317" lon="20.10612">
        <ele>715.35998535156</ele>
        <time>2024-09-26T13:08:28.000Z</time>
      </trkpt>
      <trkpt lat="40.82319" lon="20.10604">
        <ele>715.84002685547</ele>
        <time>2024-09-26T13:08:29.000Z</time>
      </trkpt>
      <trkpt lat="40.82319" lon="20.10595">
        <ele>716.79998779297</ele>
        <time>2024-09-26T13:08:30.000Z</time>
      </trkpt>
      <trkpt lat="40.82318" lon="20.10587">
        <ele>717.76000976562</ele>
        <time>2024-09-26T13:08:31.000Z</time>
      </trkpt>
      <trkpt lat="40.82315" lon="20.10582">
        <ele>718.71997070312</ele>
        <time>2024-09-26T13:08:32.000Z</time>
      </trkpt>
      <trkpt lat="40.82311" lon="20.10578">
        <ele>719.20001220703</ele>
        <time>2024-09-26T13:08:33.000Z</time>
      </trkpt>
      <trkpt lat="40.82306" lon="20.10577">
        <ele>719.67999267578</ele>
        <time>2024-09-26T13:08:34.000Z</time>
      </trkpt>
      <trkpt lat="40.82299" lon="20.10577">
        <ele>720.15997314453</ele>
        <time>2024-09-26T13:08:35.000Z</time>
      </trkpt>
      <trkpt lat="40.82293" lon="20.10579">
        <ele>721.13000488281</ele>
        <time>2024-09-26T13:08:36.000Z</time>
      </trkpt>
      <trkpt lat="40.82287" lon="20.1058">
        <ele>722.09002685547</ele>
        <time>2024-09-26T13:08:37.000Z</time>
      </trkpt>
      <trkpt lat="40.82282" lon="20.10581">
        <ele>722.57000732422</ele>
        <time>2024-09-26T13:08:38.000Z</time>
      </trkpt>
      <trkpt lat="40.82278" lon="20.10579">
        <ele>723.53002929688</ele>
        <time>2024-09-26T13:08:39.000Z</time>
      </trkpt>
      <trkpt lat="40.82277" lon="20.1057">
        <ele>724.96997070312</ele>
        <time>2024-09-26T13:08:41.000Z</time>
      </trkpt>
      <trkpt lat="40.82278" lon="20.10565">
        <ele>725.45001220703</ele>
        <time>2024-09-26T13:08:42.000Z</time>
      </trkpt>
      <trkpt lat="40.82281" lon="20.10557">
        <ele>725.92999267578</ele>
        <time>2024-09-26T13:08:43.000Z</time>
      </trkpt>
      <trkpt lat="40.82284" lon="20.10551">
        <ele>726.89001464844</ele>
        <time>2024-09-26T13:08:44.000Z</time>
      </trkpt>
      <trkpt lat="40.8229" lon="20.10542">
        <ele>727.85998535156</ele>
        <time>2024-09-26T13:08:45.000Z</time>
      </trkpt>
      <trkpt lat="40.82291" lon="20.10539">
        <ele>728.34002685547</ele>
        <time>2024-09-26T13:08:46.000Z</time>
      </trkpt>
      <trkpt lat="40.82294" lon="20.10532">
        <ele>729.29998779297</ele>
        <time>2024-09-26T13:08:47.000Z</time>
      </trkpt>
      <trkpt lat="40.82297" lon="20.10523">
        <ele>730.26000976562</ele>
        <time>2024-09-26T13:08:48.000Z</time>
      </trkpt>
      <trkpt lat="40.82299" lon="20.10516">
        <ele>730.73999023438</ele>
        <time>2024-09-26T13:08:49.000Z</time>
      </trkpt>
      <trkpt lat="40.82303" lon="20.10505">
        <ele>732.17999267578</ele>
        <time>2024-09-26T13:08:50.000Z</time>
      </trkpt>
      <trkpt lat="40.82304" lon="20.105">
        <ele>732.65997314453</ele>
        <time>2024-09-26T13:08:51.000Z</time>
      </trkpt>
      <trkpt lat="40.82305" lon="20.10491">
        <ele>734.09997558594</ele>
        <time>2024-09-26T13:08:52.000Z</time>
      </trkpt>
      <trkpt lat="40.82304" lon="20.10483">
        <ele>735.07000732422</ele>
        <time>2024-09-26T13:08:53.000Z</time>
      </trkpt>
      <trkpt lat="40.823" lon="20.1047">
        <ele>736.03002929688</ele>
        <time>2024-09-26T13:08:54.000Z</time>
      </trkpt>
      <trkpt lat="40.82299" lon="20.10465">
        <ele>736.98999023438</ele>
        <time>2024-09-26T13:08:55.000Z</time>
      </trkpt>
      <trkpt lat="40.82299" lon="20.10456">
        <ele>737.46997070312</ele>
        <time>2024-09-26T13:08:56.000Z</time>
      </trkpt>
      <trkpt lat="40.823" lon="20.10447">
        <ele>738.90997314453</ele>
        <time>2024-09-26T13:08:57.000Z</time>
      </trkpt>
      <trkpt lat="40.82303" lon="20.10437">
        <ele>739.39001464844</ele>
        <time>2024-09-26T13:08:58.000Z</time>
      </trkpt>
      <trkpt lat="40.82306" lon="20.10429">
        <ele>740.34997558594</ele>
        <time>2024-09-26T13:08:59.000Z</time>
      </trkpt>
      <trkpt lat="40.82308" lon="20.10422">
        <ele>740.83001708984</ele>
        <time>2024-09-26T13:09:00.000Z</time>
      </trkpt>
      <trkpt lat="40.82312" lon="20.10392">
        <ele>743.71997070312</ele>
        <time>2024-09-26T13:09:03.000Z</time>
      </trkpt>
      <trkpt lat="40.82313" lon="20.10377">
        <ele>745.15997314453</ele>
        <time>2024-09-26T13:09:04.000Z</time>
      </trkpt>
      <trkpt lat="40.82313" lon="20.10372">
        <ele>745.64001464844</ele>
        <time>2024-09-26T13:09:05.000Z</time>
      </trkpt>
      <trkpt lat="40.82315" lon="20.10357">
        <ele>747.08001708984</ele>
        <time>2024-09-26T13:09:06.000Z</time>
      </trkpt>
      <trkpt lat="40.82316" lon="20.10352">
        <ele>747.55999755859</ele>
        <time>2024-09-26T13:09:07.000Z</time>
      </trkpt>
      <trkpt lat="40.8232" lon="20.10332">
        <ele>749.48999023438</ele>
        <time>2024-09-26T13:09:08.000Z</time>
      </trkpt>
      <trkpt lat="40.8232" lon="20.10328">
        <ele>749.48999023438</ele>
        <time>2024-09-26T13:09:09.000Z</time>
      </trkpt>
      <trkpt lat="40.82321" lon="20.10316">
        <ele>750.45001220703</ele>
        <time>2024-09-26T13:09:10.000Z</time>
      </trkpt>
      <trkpt lat="40.82321" lon="20.10299">
        <ele>751.40997314453</ele>
        <time>2024-09-26T13:09:11.000Z</time>
      </trkpt>
      <trkpt lat="40.82321" lon="20.10295">
        <ele>751.89001464844</ele>
        <time>2024-09-26T13:09:12.000Z</time>
      </trkpt>
      <trkpt lat="40.82323" lon="20.10285">
        <ele>752.84997558594</ele>
        <time>2024-09-26T13:09:13.000Z</time>
      </trkpt>
      <trkpt lat="40.82325" lon="20.10274">
        <ele>754.28997802734</ele>
        <time>2024-09-26T13:09:14.000Z</time>
      </trkpt>
      <trkpt lat="40.82327" lon="20.10259">
        <ele>755.72998046875</ele>
        <time>2024-09-26T13:09:15.000Z</time>
      </trkpt>
      <trkpt lat="40.82327" lon="20.10252">
        <ele>756.21002197266</ele>
        <time>2024-09-26T13:09:16.000Z</time>
      </trkpt>
      <trkpt lat="40.82327" lon="20.10243">
        <ele>757.17999267578</ele>
        <time>2024-09-26T13:09:17.000Z</time>
      </trkpt>
      <trkpt lat="40.82326" lon="20.10216">
        <ele>759.58001708984</ele>
        <time>2024-09-26T13:09:19.000Z</time>
      </trkpt>
      <trkpt lat="40.82326" lon="20.1021">
        <ele>760.05999755859</ele>
        <time>2024-09-26T13:09:20.000Z</time>
      </trkpt>
      <trkpt lat="40.82328" lon="20.10203">
        <ele>761.02001953125</ele>
        <time>2024-09-26T13:09:21.000Z</time>
      </trkpt>
      <trkpt lat="40.82331" lon="20.10195">
        <ele>762.46002197266</ele>
        <time>2024-09-26T13:09:22.000Z</time>
      </trkpt>
      <trkpt lat="40.82331" lon="20.10187">
        <ele>763.90002441406</ele>
        <time>2024-09-26T13:09:23.000Z</time>
      </trkpt>
      <trkpt lat="40.82329" lon="20.10181">
        <ele>764.86999511719</ele>
        <time>2024-09-26T13:09:24.000Z</time>
      </trkpt>
      <trkpt lat="40.82325" lon="20.10178">
        <ele>765.83001708984</ele>
        <time>2024-09-26T13:09:25.000Z</time>
      </trkpt>
      <trkpt lat="40.82321" lon="20.10179">
        <ele>766.30999755859</ele>
        <time>2024-09-26T13:09:26.000Z</time>
      </trkpt>
      <trkpt lat="40.82315" lon="20.10183">
        <ele>766.78997802734</ele>
        <time>2024-09-26T13:09:27.000Z</time>
      </trkpt>
      <trkpt lat="40.82312" lon="20.1019">
        <ele>767.75</ele>
        <time>2024-09-26T13:09:28.000Z</time>
      </trkpt>
      <trkpt lat="40.82311" lon="20.10201">
        <ele>768.71002197266</ele>
        <time>2024-09-26T13:09:29.000Z</time>
      </trkpt>
      <trkpt lat="40.8231" lon="20.10213">
        <ele>769.66998291016</ele>
        <time>2024-09-26T13:09:30.000Z</time>
      </trkpt>
      <trkpt lat="40.8231" lon="20.10235">
        <ele>772.08001708984</ele>
        <time>2024-09-26T13:09:32.000Z</time>
      </trkpt>
      <trkpt lat="40.82309" lon="20.10243">
        <ele>773.03997802734</ele>
        <time>2024-09-26T13:09:33.000Z</time>
      </trkpt>
      <trkpt lat="40.82305" lon="20.1025">
        <ele>773.52001953125</ele>
        <time>2024-09-26T13:09:34.000Z</time>
      </trkpt>
      <trkpt lat="40.823" lon="20.10256">
        <ele>774</ele>
        <time>2024-09-26T13:09:35.000Z</time>
      </trkpt>
      <trkpt lat="40.82293" lon="20.10262">
        <ele>774.47998046875</ele>
        <time>2024-09-26T13:09:36.000Z</time>
      </trkpt>
      <trkpt lat="40.82289" lon="20.10266">
        <ele>774.47998046875</ele>
        <time>2024-09-26T13:09:37.000Z</time>
      </trkpt>
      <trkpt lat="40.82284" lon="20.10273">
        <ele>774.96002197266</ele>
        <time>2024-09-26T13:09:38.000Z</time>
      </trkpt>
      <trkpt lat="40.82282" lon="20.10281">
        <ele>775.44000244141</ele>
        <time>2024-09-26T13:09:39.000Z</time>
      </trkpt>
      <trkpt lat="40.8228" lon="20.10289">
        <ele>776.40002441406</ele>
        <time>2024-09-26T13:09:40.000Z</time>
      </trkpt>
      <trkpt lat="40.82279" lon="20.10296">
        <ele>776.88000488281</ele>
        <time>2024-09-26T13:09:41.000Z</time>
      </trkpt>
      <trkpt lat="40.82281" lon="20.10308">
        <ele>777.84002685547</ele>
        <time>2024-09-26T13:09:42.000Z</time>
      </trkpt>
      <trkpt lat="40.82281" lon="20.10312">
        <ele>778.32000732422</ele>
        <time>2024-09-26T13:09:43.000Z</time>
      </trkpt>
      <trkpt lat="40.82282" lon="20.10319">
        <ele>778.80999755859</ele>
        <time>2024-09-26T13:09:44.000Z</time>
      </trkpt>
      <trkpt lat="40.82282" lon="20.10327">
        <ele>778.80999755859</ele>
        <time>2024-09-26T13:09:45.000Z</time>
      </trkpt>
      <trkpt lat="40.82281" lon="20.10332">
        <ele>779.28997802734</ele>
        <time>2024-09-26T13:09:46.000Z</time>
      </trkpt>
      <trkpt lat="40.82279" lon="20.1034">
        <ele>779.28997802734</ele>
        <time>2024-09-26T13:09:47.000Z</time>
      </trkpt>
      <trkpt lat="40.82275" lon="20.10348">
        <ele>778.80999755859</ele>
        <time>2024-09-26T13:09:48.000Z</time>
      </trkpt>
      <trkpt lat="40.82269" lon="20.10355">
        <ele>778.80999755859</ele>
        <time>2024-09-26T13:09:49.000Z</time>
      </trkpt>
      <trkpt lat="40.82263" lon="20.10363">
        <ele>779.28997802734</ele>
        <time>2024-09-26T13:09:50.000Z</time>
      </trkpt>
      <trkpt lat="40.82256" lon="20.1037">
        <ele>779.28997802734</ele>
        <time>2024-09-26T13:09:51.000Z</time>
      </trkpt>
      <trkpt lat="40.82247" lon="20.10378">
        <ele>779.77001953125</ele>
        <time>2024-09-26T13:09:52.000Z</time>
      </trkpt>
      <trkpt lat="40.82243" lon="20.10383">
        <ele>779.77001953125</ele>
        <time>2024-09-26T13:09:53.000Z</time>
      </trkpt>
      <trkpt lat="40.82232" lon="20.10399">
        <ele>780.25</ele>
        <time>2024-09-26T13:09:55.000Z</time>
      </trkpt>
      <trkpt lat="40.82225" lon="20.10409">
        <ele>780.72998046875</ele>
        <time>2024-09-26T13:09:56.000Z</time>
      </trkpt>
      <trkpt lat="40.82219" lon="20.10416">
        <ele>781.21002197266</ele>
        <time>2024-09-26T13:09:57.000Z</time>
      </trkpt>
      <trkpt lat="40.82213" lon="20.10425">
        <ele>781.69000244141</ele>
        <time>2024-09-26T13:09:58.000Z</time>
      </trkpt>
      <trkpt lat="40.82206" lon="20.10437">
        <ele>782.16998291016</ele>
        <time>2024-09-26T13:09:59.000Z</time>
      </trkpt>
      <trkpt lat="40.82203" lon="20.10441">
        <ele>782.16998291016</ele>
        <time>2024-09-26T13:10:00.000Z</time>
      </trkpt>
      <trkpt lat="40.82198" lon="20.10448">
        <ele>782.65002441406</ele>
        <time>2024-09-26T13:10:01.000Z</time>
      </trkpt>
      <trkpt lat="40.82192" lon="20.10454">
        <ele>783.13000488281</ele>
        <time>2024-09-26T13:10:02.000Z</time>
      </trkpt>
      <trkpt lat="40.82185" lon="20.10459">
        <ele>783.60998535156</ele>
        <time>2024-09-26T13:10:03.000Z</time>
      </trkpt>
      <trkpt lat="40.82182" lon="20.10462">
        <ele>784.09002685547</ele>
        <time>2024-09-26T13:10:04.000Z</time>
      </trkpt>
      <trkpt lat="40.82178" lon="20.10464">
        <ele>784.57000732422</ele>
        <time>2024-09-26T13:10:05.000Z</time>
      </trkpt>
      <trkpt lat="40.82174" lon="20.10463">
        <ele>785.53002929688</ele>
        <time>2024-09-26T13:10:06.000Z</time>
      </trkpt>
      <trkpt lat="40.8217" lon="20.10461">
        <ele>786.5</ele>
        <time>2024-09-26T13:10:07.000Z</time>
      </trkpt>
      <trkpt lat="40.82166" lon="20.10456">
        <ele>787.46002197266</ele>
        <time>2024-09-26T13:10:08.000Z</time>
      </trkpt>
      <trkpt lat="40.82161" lon="20.10447">
        <ele>787.94000244141</ele>
        <time>2024-09-26T13:10:09.000Z</time>
      </trkpt>
      <trkpt lat="40.82157" lon="20.10442">
        <ele>787.94000244141</ele>
        <time>2024-09-26T13:10:10.000Z</time>
      </trkpt>
      <trkpt lat="40.82146" lon="20.10427">
        <ele>789.38000488281</ele>
        <time>2024-09-26T13:10:12.000Z</time>
      </trkpt>
      <trkpt lat="40.82144" lon="20.10423">
        <ele>789.85998535156</ele>
        <time>2024-09-26T13:10:13.000Z</time>
      </trkpt>
      <trkpt lat="40.82137" lon="20.10413">
        <ele>791.29998779297</ele>
        <time>2024-09-26T13:10:14.000Z</time>
      </trkpt>
      <trkpt lat="40.82134" lon="20.10409">
        <ele>791.78002929688</ele>
        <time>2024-09-26T13:10:15.000Z</time>
      </trkpt>
      <trkpt lat="40.82129" lon="20.10405">
        <ele>792.73999023438</ele>
        <time>2024-09-26T13:10:16.000Z</time>
      </trkpt>
      <trkpt lat="40.82122" lon="20.10403">
        <ele>793.71002197266</ele>
        <time>2024-09-26T13:10:17.000Z</time>
      </trkpt>
      <trkpt lat="40.82115" lon="20.10403">
        <ele>794.66998291016</ele>
        <time>2024-09-26T13:10:18.000Z</time>
      </trkpt>
      <trkpt lat="40.82107" lon="20.10403">
        <ele>796.10998535156</ele>
        <time>2024-09-26T13:10:19.000Z</time>
      </trkpt>
      <trkpt lat="40.82097" lon="20.10403">
        <ele>797.54998779297</ele>
        <time>2024-09-26T13:10:20.000Z</time>
      </trkpt>
      <trkpt lat="40.82094" lon="20.10403">
        <ele>798.03002929688</ele>
        <time>2024-09-26T13:10:21.000Z</time>
      </trkpt>
      <trkpt lat="40.82083" lon="20.10403">
        <ele>799.46997070312</ele>
        <time>2024-09-26T13:10:22.000Z</time>
      </trkpt>
      <trkpt lat="40.82079" lon="20.10403">
        <ele>799.95001220703</ele>
        <time>2024-09-26T13:10:23.000Z</time>
      </trkpt>
      <trkpt lat="40.82071" lon="20.10404">
        <ele>800.44000244141</ele>
        <time>2024-09-26T13:10:24.000Z</time>
      </trkpt>
      <trkpt lat="40.82064" lon="20.10406">
        <ele>801.40002441406</ele>
        <time>2024-09-26T13:10:25.000Z</time>
      </trkpt>
      <trkpt lat="40.82057" lon="20.1041">
        <ele>802.35998535156</ele>
        <time>2024-09-26T13:10:26.000Z</time>
      </trkpt>
      <trkpt lat="40.8205" lon="20.10417">
        <ele>803.32000732422</ele>
        <time>2024-09-26T13:10:27.000Z</time>
      </trkpt>
      <trkpt lat="40.82045" lon="20.1042">
        <ele>804.28002929688</ele>
        <time>2024-09-26T13:10:28.000Z</time>
      </trkpt>
      <trkpt lat="40.8204" lon="20.10423">
        <ele>805.23999023438</ele>
        <time>2024-09-26T13:10:29.000Z</time>
      </trkpt>
      <trkpt lat="40.82034" lon="20.10423">
        <ele>805.71997070312</ele>
        <time>2024-09-26T13:10:30.000Z</time>
      </trkpt>
      <trkpt lat="40.82028" lon="20.1042">
        <ele>806.67999267578</ele>
        <time>2024-09-26T13:10:31.000Z</time>
      </trkpt>
      <trkpt lat="40.82024" lon="20.10414">
        <ele>807.64001464844</ele>
        <time>2024-09-26T13:10:32.000Z</time>
      </trkpt>
      <trkpt lat="40.82022" lon="20.10407">
        <ele>808.13000488281</ele>
        <time>2024-09-26T13:10:33.000Z</time>
      </trkpt>
      <trkpt lat="40.82022" lon="20.10398">
        <ele>809.09002685547</ele>
        <time>2024-09-26T13:10:34.000Z</time>
      </trkpt>
      <trkpt lat="40.82024" lon="20.10393">
        <ele>808.60998535156</ele>
        <time>2024-09-26T13:10:35.000Z</time>
      </trkpt>
      <trkpt lat="40.82027" lon="20.10387">
        <ele>808.13000488281</ele>
        <time>2024-09-26T13:10:36.000Z</time>
      </trkpt>
      <trkpt lat="40.82033" lon="20.10381">
        <ele>807.64001464844</ele>
        <time>2024-09-26T13:10:37.000Z</time>
      </trkpt>
      <trkpt lat="40.82035" lon="20.10379">
        <ele>807.64001464844</ele>
        <time>2024-09-26T13:10:38.000Z</time>
      </trkpt>
      <trkpt lat="40.82038" lon="20.10374">
        <ele>807.15997314453</ele>
        <time>2024-09-26T13:10:39.000Z</time>
      </trkpt>
      <trkpt lat="40.82042" lon="20.10369">
        <ele>807.15997314453</ele>
        <time>2024-09-26T13:10:40.000Z</time>
      </trkpt>
      <trkpt lat="40.82055" lon="20.10348">
        <ele>807.15997314453</ele>
        <time>2024-09-26T13:10:44.000Z</time>
      </trkpt>
      <trkpt lat="40.82057" lon="20.10343">
        <ele>807.15997314453</ele>
        <time>2024-09-26T13:10:45.000Z</time>
      </trkpt>
      <trkpt lat="40.82061" lon="20.10337">
        <ele>807.15997314453</ele>
        <time>2024-09-26T13:10:46.000Z</time>
      </trkpt>
      <trkpt lat="40.82064" lon="20.10329">
        <ele>807.64001464844</ele>
        <time>2024-09-26T13:10:47.000Z</time>
      </trkpt>
      <trkpt lat="40.82067" lon="20.1032">
        <ele>807.64001464844</ele>
        <time>2024-09-26T13:10:48.000Z</time>
      </trkpt>
      <trkpt lat="40.82068" lon="20.10317">
        <ele>807.64001464844</ele>
        <time>2024-09-26T13:10:49.000Z</time>
      </trkpt>
      <trkpt lat="40.82069" lon="20.10313">
        <ele>807.64001464844</ele>
        <time>2024-09-26T13:10:50.000Z</time>
      </trkpt>
      <trkpt lat="40.82071" lon="20.10301">
        <ele>808.13000488281</ele>
        <time>2024-09-26T13:10:51.000Z</time>
      </trkpt>
      <trkpt lat="40.82071" lon="20.10298">
        <ele>808.13000488281</ele>
        <time>2024-09-26T13:10:52.000Z</time>
      </trkpt>
      <trkpt lat="40.82073" lon="20.1029">
        <ele>808.13000488281</ele>
        <time>2024-09-26T13:10:53.000Z</time>
      </trkpt>
      <trkpt lat="40.82074" lon="20.10284">
        <ele>808.13000488281</ele>
        <time>2024-09-26T13:10:54.000Z</time>
      </trkpt>
      <trkpt lat="40.82075" lon="20.10278">
        <ele>808.60998535156</ele>
        <time>2024-09-26T13:10:55.000Z</time>
      </trkpt>
      <trkpt lat="40.82076" lon="20.10273">
        <ele>808.60998535156</ele>
        <time>2024-09-26T13:10:56.000Z</time>
      </trkpt>
      <trkpt lat="40.82078" lon="20.10266">
        <ele>809.09002685547</ele>
        <time>2024-09-26T13:10:57.000Z</time>
      </trkpt>
      <trkpt lat="40.82081" lon="20.10257">
        <ele>809.09002685547</ele>
        <time>2024-09-26T13:10:58.000Z</time>
      </trkpt>
      <trkpt lat="40.82085" lon="20.10249">
        <ele>809.09002685547</ele>
        <time>2024-09-26T13:10:59.000Z</time>
      </trkpt>
      <trkpt lat="40.82086" lon="20.10245">
        <ele>809.57000732422</ele>
        <time>2024-09-26T13:11:00.000Z</time>
      </trkpt>
      <trkpt lat="40.82088" lon="20.10237">
        <ele>810.04998779297</ele>
        <time>2024-09-26T13:11:01.000Z</time>
      </trkpt>
      <trkpt lat="40.82088" lon="20.10229">
        <ele>810.53002929688</ele>
        <time>2024-09-26T13:11:02.000Z</time>
      </trkpt>
      <trkpt lat="40.82086" lon="20.10222">
        <ele>810.53002929688</ele>
        <time>2024-09-26T13:11:03.000Z</time>
      </trkpt>
      <trkpt lat="40.82083" lon="20.10215">
        <ele>811.01000976562</ele>
        <time>2024-09-26T13:11:04.000Z</time>
      </trkpt>
      <trkpt lat="40.82077" lon="20.10209">
        <ele>811.48999023438</ele>
        <time>2024-09-26T13:11:05.000Z</time>
      </trkpt>
      <trkpt lat="40.82071" lon="20.10205">
        <ele>812.45001220703</ele>
        <time>2024-09-26T13:11:06.000Z</time>
      </trkpt>
      <trkpt lat="40.82061" lon="20.10202">
        <ele>812.92999267578</ele>
        <time>2024-09-26T13:11:07.000Z</time>
      </trkpt>
      <trkpt lat="40.82059" lon="20.102">
        <ele>813.40997314453</ele>
        <time>2024-09-26T13:11:08.000Z</time>
      </trkpt>
      <trkpt lat="40.82054" lon="20.10198">
        <ele>813.89001464844</ele>
        <time>2024-09-26T13:11:09.000Z</time>
      </trkpt>
      <trkpt lat="40.8205" lon="20.10194">
        <ele>814.36999511719</ele>
        <time>2024-09-26T13:11:10.000Z</time>
      </trkpt>
      <trkpt lat="40.82046" lon="20.1019">
        <ele>815.34002685547</ele>
        <time>2024-09-26T13:11:11.000Z</time>
      </trkpt>
      <trkpt lat="40.82044" lon="20.10184">
        <ele>816.29998779297</ele>
        <time>2024-09-26T13:11:12.000Z</time>
      </trkpt>
      <trkpt lat="40.82041" lon="20.10177">
        <ele>817.26000976562</ele>
        <time>2024-09-26T13:11:13.000Z</time>
      </trkpt>
      <trkpt lat="40.82039" lon="20.10169">
        <ele>818.21997070312</ele>
        <time>2024-09-26T13:11:14.000Z</time>
      </trkpt>
      <trkpt lat="40.82038" lon="20.10163">
        <ele>819.17999267578</ele>
        <time>2024-09-26T13:11:15.000Z</time>
      </trkpt>
      <trkpt lat="40.82037" lon="20.10156">
        <ele>820.14001464844</ele>
        <time>2024-09-26T13:11:16.000Z</time>
      </trkpt>
      <trkpt lat="40.82037" lon="20.10148">
        <ele>820.61999511719</ele>
        <time>2024-09-26T13:11:17.000Z</time>
      </trkpt>
      <trkpt lat="40.82039" lon="20.10136">
        <ele>821.58001708984</ele>
        <time>2024-09-26T13:11:18.000Z</time>
      </trkpt>
      <trkpt lat="40.82039" lon="20.10132">
        <ele>822.05999755859</ele>
        <time>2024-09-26T13:11:19.000Z</time>
      </trkpt>
      <trkpt lat="40.82041" lon="20.10122">
        <ele>822.54998779297</ele>
        <time>2024-09-26T13:11:20.000Z</time>
      </trkpt>
      <trkpt lat="40.82044" lon="20.1011">
        <ele>823.98999023438</ele>
        <time>2024-09-26T13:11:21.000Z</time>
      </trkpt>
      <trkpt lat="40.82045" lon="20.10106">
        <ele>823.98999023438</ele>
        <time>2024-09-26T13:11:22.000Z</time>
      </trkpt>
      <trkpt lat="40.82047" lon="20.101">
        <ele>824.95001220703</ele>
        <time>2024-09-26T13:11:23.000Z</time>
      </trkpt>
      <trkpt lat="40.82048" lon="20.10094">
        <ele>825.42999267578</ele>
        <time>2024-09-26T13:11:24.000Z</time>
      </trkpt>
      <trkpt lat="40.82051" lon="20.10082">
        <ele>826.86999511719</ele>
        <time>2024-09-26T13:11:25.000Z</time>
      </trkpt>
      <trkpt lat="40.82052" lon="20.10077">
        <ele>827.34997558594</ele>
        <time>2024-09-26T13:11:26.000Z</time>
      </trkpt>
      <trkpt lat="40.82053" lon="20.10071">
        <ele>827.34997558594</ele>
        <time>2024-09-26T13:11:27.000Z</time>
      </trkpt>
      <trkpt lat="40.82052" lon="20.10062">
        <ele>828.30999755859</ele>
        <time>2024-09-26T13:11:28.000Z</time>
      </trkpt>
      <trkpt lat="40.82051" lon="20.10054">
        <ele>829.27001953125</ele>
        <time>2024-09-26T13:11:29.000Z</time>
      </trkpt>
      <trkpt lat="40.82051" lon="20.10047">
        <ele>830.71997070312</ele>
        <time>2024-09-26T13:11:30.000Z</time>
      </trkpt>
      <trkpt lat="40.82052" lon="20.1004">
        <ele>831.20001220703</ele>
        <time>2024-09-26T13:11:31.000Z</time>
      </trkpt>
      <trkpt lat="40.82059" lon="20.10024">
        <ele>832.64001464844</ele>
        <time>2024-09-26T13:11:33.000Z</time>
      </trkpt>
      <trkpt lat="40.82063" lon="20.10013">
        <ele>833.59997558594</ele>
        <time>2024-09-26T13:11:34.000Z</time>
      </trkpt>
      <trkpt lat="40.82064" lon="20.10007">
        <ele>834.08001708984</ele>
        <time>2024-09-26T13:11:35.000Z</time>
      </trkpt>
      <trkpt lat="40.82068" lon="20.09994">
        <ele>835.52001953125</ele>
        <time>2024-09-26T13:11:36.000Z</time>
      </trkpt>
      <trkpt lat="40.82069" lon="20.09989">
        <ele>835.52001953125</ele>
        <time>2024-09-26T13:11:37.000Z</time>
      </trkpt>
      <trkpt lat="40.8207" lon="20.09983">
        <ele>836.47998046875</ele>
        <time>2024-09-26T13:11:38.000Z</time>
      </trkpt>
      <trkpt lat="40.82071" lon="20.09975">
        <ele>837.45001220703</ele>
        <time>2024-09-26T13:11:39.000Z</time>
      </trkpt>
      <trkpt lat="40.8207" lon="20.09969">
        <ele>837.92999267578</ele>
        <time>2024-09-26T13:11:40.000Z</time>
      </trkpt>
      <trkpt lat="40.82068" lon="20.09962">
        <ele>839.36999511719</ele>
        <time>2024-09-26T13:11:41.000Z</time>
      </trkpt>
      <trkpt lat="40.82064" lon="20.09954">
        <ele>839.84997558594</ele>
        <time>2024-09-26T13:11:42.000Z</time>
      </trkpt>
      <trkpt lat="40.82061" lon="20.09947">
        <ele>841.28997802734</ele>
        <time>2024-09-26T13:11:43.000Z</time>
      </trkpt>
      <trkpt lat="40.82055" lon="20.09942">
        <ele>842.25</ele>
        <time>2024-09-26T13:11:44.000Z</time>
      </trkpt>
      <trkpt lat="40.82048" lon="20.09938">
        <ele>843.21002197266</ele>
        <time>2024-09-26T13:11:45.000Z</time>
      </trkpt>
      <trkpt lat="40.82043" lon="20.09937">
        <ele>843.69000244141</ele>
        <time>2024-09-26T13:11:46.000Z</time>
      </trkpt>
      <trkpt lat="40.82036" lon="20.09936">
        <ele>844.65997314453</ele>
        <time>2024-09-26T13:11:47.000Z</time>
      </trkpt>
      <trkpt lat="40.82029" lon="20.09935">
        <ele>845.61999511719</ele>
        <time>2024-09-26T13:11:48.000Z</time>
      </trkpt>
      <trkpt lat="40.82021" lon="20.09933">
        <ele>846.58001708984</ele>
        <time>2024-09-26T13:11:49.000Z</time>
      </trkpt>
      <trkpt lat="40.82002" lon="20.0993">
        <ele>849.46002197266</ele>
        <time>2024-09-26T13:11:51.000Z</time>
      </trkpt>
      <trkpt lat="40.81999" lon="20.0993">
        <ele>849.94000244141</ele>
        <time>2024-09-26T13:11:52.000Z</time>
      </trkpt>
      <trkpt lat="40.81984" lon="20.09927">
        <ele>851.86999511719</ele>
        <time>2024-09-26T13:11:54.000Z</time>
      </trkpt>
      <trkpt lat="40.81979" lon="20.09925">
        <ele>852.83001708984</ele>
        <time>2024-09-26T13:11:55.000Z</time>
      </trkpt>
      <trkpt lat="40.81975" lon="20.09922">
        <ele>853.30999755859</ele>
        <time>2024-09-26T13:11:56.000Z</time>
      </trkpt>
      <trkpt lat="40.81971" lon="20.09916">
        <ele>854.27001953125</ele>
        <time>2024-09-26T13:11:57.000Z</time>
      </trkpt>
      <trkpt lat="40.81969" lon="20.09908">
        <ele>855.22998046875</ele>
        <time>2024-09-26T13:11:58.000Z</time>
      </trkpt>
      <trkpt lat="40.81967" lon="20.09899">
        <ele>856.19000244141</ele>
        <time>2024-09-26T13:11:59.000Z</time>
      </trkpt>
      <trkpt lat="40.81968" lon="20.09889">
        <ele>857.15002441406</ele>
        <time>2024-09-26T13:12:00.000Z</time>
      </trkpt>
      <trkpt lat="40.81968" lon="20.09879">
        <ele>858.59002685547</ele>
        <time>2024-09-26T13:12:01.000Z</time>
      </trkpt>
      <trkpt lat="40.81969" lon="20.09866">
        <ele>860.03997802734</ele>
        <time>2024-09-26T13:12:02.000Z</time>
      </trkpt>
      <trkpt lat="40.81969" lon="20.09862">
        <ele>860.03997802734</ele>
        <time>2024-09-26T13:12:03.000Z</time>
      </trkpt>
      <trkpt lat="40.81969" lon="20.09852">
        <ele>861</ele>
        <time>2024-09-26T13:12:04.000Z</time>
      </trkpt>
      <trkpt lat="40.8197" lon="20.09843">
        <ele>862.44000244141</ele>
        <time>2024-09-26T13:12:05.000Z</time>
      </trkpt>
      <trkpt lat="40.81971" lon="20.09835">
        <ele>863.40002441406</ele>
        <time>2024-09-26T13:12:06.000Z</time>
      </trkpt>
      <trkpt lat="40.81975" lon="20.09826">
        <ele>864.84002685547</ele>
        <time>2024-09-26T13:12:07.000Z</time>
      </trkpt>
      <trkpt lat="40.81978" lon="20.0982">
        <ele>865.79998779297</ele>
        <time>2024-09-26T13:12:08.000Z</time>
      </trkpt>
      <trkpt lat="40.81986" lon="20.09805">
        <ele>867.72998046875</ele>
        <time>2024-09-26T13:12:09.000Z</time>
      </trkpt>
      <trkpt lat="40.81987" lon="20.09804">
        <ele>867.72998046875</ele>
        <time>2024-09-26T13:12:10.000Z</time>
      </trkpt>
      <trkpt lat="40.81991" lon="20.09795">
        <ele>869.16998291016</ele>
        <time>2024-09-26T13:12:11.000Z</time>
      </trkpt>
      <trkpt lat="40.81996" lon="20.09788">
        <ele>869.65002441406</ele>
        <time>2024-09-26T13:12:12.000Z</time>
      </trkpt>
      <trkpt lat="40.82001" lon="20.09782">
        <ele>870.60998535156</ele>
        <time>2024-09-26T13:12:13.000Z</time>
      </trkpt>
      <trkpt lat="40.82005" lon="20.09777">
        <ele>870.13000488281</ele>
        <time>2024-09-26T13:12:14.000Z</time>
      </trkpt>
      <trkpt lat="40.82008" lon="20.0977">
        <ele>870.13000488281</ele>
        <time>2024-09-26T13:12:15.000Z</time>
      </trkpt>
      <trkpt lat="40.8201" lon="20.09763">
        <ele>870.60998535156</ele>
        <time>2024-09-26T13:12:16.000Z</time>
      </trkpt>
      <trkpt lat="40.82012" lon="20.09756">
        <ele>871.09002685547</ele>
        <time>2024-09-26T13:12:17.000Z</time>
      </trkpt>
      <trkpt lat="40.82013" lon="20.09747">
        <ele>871.09002685547</ele>
        <time>2024-09-26T13:12:18.000Z</time>
      </trkpt>
      <trkpt lat="40.82014" lon="20.09738">
        <ele>871.57000732422</ele>
        <time>2024-09-26T13:12:19.000Z</time>
      </trkpt>
      <trkpt lat="40.82014" lon="20.09733">
        <ele>871.57000732422</ele>
        <time>2024-09-26T13:12:20.000Z</time>
      </trkpt>
      <trkpt lat="40.82014" lon="20.09726">
        <ele>871.57000732422</ele>
        <time>2024-09-26T13:12:21.000Z</time>
      </trkpt>
      <trkpt lat="40.82014" lon="20.09719">
        <ele>871.57000732422</ele>
        <time>2024-09-26T13:12:22.000Z</time>
      </trkpt>
      <trkpt lat="40.82012" lon="20.09711">
        <ele>871.57000732422</ele>
        <time>2024-09-26T13:12:23.000Z</time>
      </trkpt>
      <trkpt lat="40.82009" lon="20.09696">
        <ele>871.57000732422</ele>
        <time>2024-09-26T13:12:25.000Z</time>
      </trkpt>
      <trkpt lat="40.82008" lon="20.09688">
        <ele>871.57000732422</ele>
        <time>2024-09-26T13:12:26.000Z</time>
      </trkpt>
      <trkpt lat="40.82007" lon="20.09681">
        <ele>871.57000732422</ele>
        <time>2024-09-26T13:12:27.000Z</time>
      </trkpt>
      <trkpt lat="40.82008" lon="20.09673">
        <ele>871.09002685547</ele>
        <time>2024-09-26T13:12:28.000Z</time>
      </trkpt>
      <trkpt lat="40.82008" lon="20.09665">
        <ele>870.60998535156</ele>
        <time>2024-09-26T13:12:29.000Z</time>
      </trkpt>
      <trkpt lat="40.82008" lon="20.09658">
        <ele>870.13000488281</ele>
        <time>2024-09-26T13:12:30.000Z</time>
      </trkpt>
      <trkpt lat="40.82018" lon="20.0964">
        <ele>871.57000732422</ele>
        <time>2024-09-26T13:12:36.000Z</time>
      </trkpt>
      <trkpt lat="40.82023" lon="20.09641">
        <ele>872.04998779297</ele>
        <time>2024-09-26T13:12:43.000Z</time>
      </trkpt>
      <trkpt lat="40.82031" lon="20.09642">
        <ele>871.09002685547</ele>
        <time>2024-09-26T13:12:50.000Z</time>
      </trkpt>
      <trkpt lat="40.82034" lon="20.09642">
        <ele>871.09002685547</ele>
        <time>2024-09-26T13:12:51.000Z</time>
      </trkpt>
      <trkpt lat="40.82038" lon="20.09642">
        <ele>871.09002685547</ele>
        <time>2024-09-26T13:12:52.000Z</time>
      </trkpt>
      <trkpt lat="40.82045" lon="20.09641">
        <ele>870.60998535156</ele>
        <time>2024-09-26T13:12:53.000Z</time>
      </trkpt>
      <trkpt lat="40.82056" lon="20.09636">
        <ele>871.09002685547</ele>
        <time>2024-09-26T13:12:54.000Z</time>
      </trkpt>
      <trkpt lat="40.82059" lon="20.09635">
        <ele>871.09002685547</ele>
        <time>2024-09-26T13:12:55.000Z</time>
      </trkpt>
      <trkpt lat="40.82071" lon="20.09632">
        <ele>871.09002685547</ele>
        <time>2024-09-26T13:12:56.000Z</time>
      </trkpt>
      <trkpt lat="40.82077" lon="20.09631">
        <ele>871.09002685547</ele>
        <time>2024-09-26T13:12:57.000Z</time>
      </trkpt>
      <trkpt lat="40.82078" lon="20.09631">
        <ele>870.60998535156</ele>
        <time>2024-09-26T13:12:58.000Z</time>
      </trkpt>
      <trkpt lat="40.82085" lon="20.0963">
        <ele>870.13000488281</ele>
        <time>2024-09-26T13:12:59.000Z</time>
      </trkpt>
      <trkpt lat="40.82108" lon="20.09634">
        <ele>868.21002197266</ele>
        <time>2024-09-26T13:13:02.000Z</time>
      </trkpt>
      <trkpt lat="40.82115" lon="20.09636">
        <ele>867.72998046875</ele>
        <time>2024-09-26T13:13:03.000Z</time>
      </trkpt>
      <trkpt lat="40.82123" lon="20.09639">
        <ele>867.72998046875</ele>
        <time>2024-09-26T13:13:04.000Z</time>
      </trkpt>
      <trkpt lat="40.82129" lon="20.09642">
        <ele>867.72998046875</ele>
        <time>2024-09-26T13:13:05.000Z</time>
      </trkpt>
      <trkpt lat="40.82134" lon="20.09646">
        <ele>867.72998046875</ele>
        <time>2024-09-26T13:13:06.000Z</time>
      </trkpt>
      <trkpt lat="40.82141" lon="20.09649">
        <ele>866.77001953125</ele>
        <time>2024-09-26T13:13:07.000Z</time>
      </trkpt>
      <trkpt lat="40.82147" lon="20.0965">
        <ele>866.28997802734</ele>
        <time>2024-09-26T13:13:08.000Z</time>
      </trkpt>
      <trkpt lat="40.82151" lon="20.0965">
        <ele>866.28997802734</ele>
        <time>2024-09-26T13:13:09.000Z</time>
      </trkpt>
      <trkpt lat="40.82157" lon="20.09649">
        <ele>865.79998779297</ele>
        <time>2024-09-26T13:13:10.000Z</time>
      </trkpt>
      <trkpt lat="40.82162" lon="20.09644">
        <ele>865.79998779297</ele>
        <time>2024-09-26T13:13:11.000Z</time>
      </trkpt>
      <trkpt lat="40.82167" lon="20.09638">
        <ele>865.79998779297</ele>
        <time>2024-09-26T13:13:12.000Z</time>
      </trkpt>
      <trkpt lat="40.82172" lon="20.09632">
        <ele>865.32000732422</ele>
        <time>2024-09-26T13:13:13.000Z</time>
      </trkpt>
      <trkpt lat="40.82179" lon="20.09625">
        <ele>866.28997802734</ele>
        <time>2024-09-26T13:13:14.000Z</time>
      </trkpt>
      <trkpt lat="40.82184" lon="20.09623">
        <ele>866.77001953125</ele>
        <time>2024-09-26T13:13:15.000Z</time>
      </trkpt>
      <trkpt lat="40.8219" lon="20.0962">
        <ele>867.72998046875</ele>
        <time>2024-09-26T13:13:16.000Z</time>
      </trkpt>
      <trkpt lat="40.822" lon="20.09614">
        <ele>868.69000244141</ele>
        <time>2024-09-26T13:13:17.000Z</time>
      </trkpt>
      <trkpt lat="40.82204" lon="20.09612">
        <ele>869.16998291016</ele>
        <time>2024-09-26T13:13:18.000Z</time>
      </trkpt>
      <trkpt lat="40.82212" lon="20.09609">
        <ele>869.65002441406</ele>
        <time>2024-09-26T13:13:19.000Z</time>
      </trkpt>
      <trkpt lat="40.82217" lon="20.09607">
        <ele>869.65002441406</ele>
        <time>2024-09-26T13:13:20.000Z</time>
      </trkpt>
      <trkpt lat="40.82226" lon="20.09607">
        <ele>870.13000488281</ele>
        <time>2024-09-26T13:13:21.000Z</time>
      </trkpt>
      <trkpt lat="40.8223" lon="20.09607">
        <ele>870.13000488281</ele>
        <time>2024-09-26T13:13:22.000Z</time>
      </trkpt>
      <trkpt lat="40.82237" lon="20.09605">
        <ele>869.65002441406</ele>
        <time>2024-09-26T13:13:23.000Z</time>
      </trkpt>
      <trkpt lat="40.82242" lon="20.09602">
        <ele>869.65002441406</ele>
        <time>2024-09-26T13:13:24.000Z</time>
      </trkpt>
      <trkpt lat="40.8225" lon="20.09595">
        <ele>869.65002441406</ele>
        <time>2024-09-26T13:13:25.000Z</time>
      </trkpt>
      <trkpt lat="40.82256" lon="20.09591">
        <ele>869.65002441406</ele>
        <time>2024-09-26T13:13:26.000Z</time>
      </trkpt>
      <trkpt lat="40.82263" lon="20.09587">
        <ele>870.13000488281</ele>
        <time>2024-09-26T13:13:27.000Z</time>
      </trkpt>
      <trkpt lat="40.8227" lon="20.09585">
        <ele>870.13000488281</ele>
        <time>2024-09-26T13:13:28.000Z</time>
      </trkpt>
      <trkpt lat="40.82275" lon="20.09584">
        <ele>870.13000488281</ele>
        <time>2024-09-26T13:13:29.000Z</time>
      </trkpt>
      <trkpt lat="40.82283" lon="20.09583">
        <ele>870.13000488281</ele>
        <time>2024-09-26T13:13:30.000Z</time>
      </trkpt>
      <trkpt lat="40.82289" lon="20.09583">
        <ele>870.13000488281</ele>
        <time>2024-09-26T13:13:31.000Z</time>
      </trkpt>
      <trkpt lat="40.82296" lon="20.09583">
        <ele>870.60998535156</ele>
        <time>2024-09-26T13:13:32.000Z</time>
      </trkpt>
      <trkpt lat="40.82302" lon="20.09584">
        <ele>870.60998535156</ele>
        <time>2024-09-26T13:13:33.000Z</time>
      </trkpt>
      <trkpt lat="40.82309" lon="20.09583">
        <ele>870.13000488281</ele>
        <time>2024-09-26T13:13:34.000Z</time>
      </trkpt>
      <trkpt lat="40.82315" lon="20.0958">
        <ele>869.65002441406</ele>
        <time>2024-09-26T13:13:35.000Z</time>
      </trkpt>
      <trkpt lat="40.8232" lon="20.09575">
        <ele>870.13000488281</ele>
        <time>2024-09-26T13:13:36.000Z</time>
      </trkpt>
      <trkpt lat="40.82322" lon="20.09569">
        <ele>870.60998535156</ele>
        <time>2024-09-26T13:13:37.000Z</time>
      </trkpt>
      <trkpt lat="40.82324" lon="20.0956">
        <ele>871.09002685547</ele>
        <time>2024-09-26T13:13:38.000Z</time>
      </trkpt>
      <trkpt lat="40.82325" lon="20.09552">
        <ele>871.09002685547</ele>
        <time>2024-09-26T13:13:39.000Z</time>
      </trkpt>
      <trkpt lat="40.82327" lon="20.09544">
        <ele>871.09002685547</ele>
        <time>2024-09-26T13:13:40.000Z</time>
      </trkpt>
      <trkpt lat="40.82331" lon="20.09538">
        <ele>871.57000732422</ele>
        <time>2024-09-26T13:13:41.000Z</time>
      </trkpt>
      <trkpt lat="40.82337" lon="20.0953">
        <ele>871.57000732422</ele>
        <time>2024-09-26T13:13:42.000Z</time>
      </trkpt>
      <trkpt lat="40.82342" lon="20.09525">
        <ele>872.04998779297</ele>
        <time>2024-09-26T13:13:43.000Z</time>
      </trkpt>
      <trkpt lat="40.82348" lon="20.0952">
        <ele>872.53002929688</ele>
        <time>2024-09-26T13:13:44.000Z</time>
      </trkpt>
      <trkpt lat="40.82355" lon="20.09514">
        <ele>873.5</ele>
        <time>2024-09-26T13:13:45.000Z</time>
      </trkpt>
      <trkpt lat="40.82362" lon="20.09509">
        <ele>874.46002197266</ele>
        <time>2024-09-26T13:13:46.000Z</time>
      </trkpt>
      <trkpt lat="40.82367" lon="20.09506">
        <ele>874.94000244141</ele>
        <time>2024-09-26T13:13:47.000Z</time>
      </trkpt>
      <trkpt lat="40.82374" lon="20.09503">
        <ele>875.41998291016</ele>
        <time>2024-09-26T13:13:48.000Z</time>
      </trkpt>
      <trkpt lat="40.82381" lon="20.095">
        <ele>876.38000488281</ele>
        <time>2024-09-26T13:13:49.000Z</time>
      </trkpt>
      <trkpt lat="40.82423" lon="20.09487">
        <ele>879.26000976562</ele>
        <time>2024-09-26T13:13:54.000Z</time>
      </trkpt>
      <trkpt lat="40.82426" lon="20.09486">
        <ele>879.73999023438</ele>
        <time>2024-09-26T13:13:55.000Z</time>
      </trkpt>
      <trkpt lat="40.82431" lon="20.09484">
        <ele>879.73999023438</ele>
        <time>2024-09-26T13:13:56.000Z</time>
      </trkpt>
      <trkpt lat="40.82438" lon="20.0948">
        <ele>880.71002197266</ele>
        <time>2024-09-26T13:13:57.000Z</time>
      </trkpt>
      <trkpt lat="40.82444" lon="20.09475">
        <ele>881.19000244141</ele>
        <time>2024-09-26T13:13:58.000Z</time>
      </trkpt>
      <trkpt lat="40.82451" lon="20.0947">
        <ele>882.15002441406</ele>
        <time>2024-09-26T13:13:59.000Z</time>
      </trkpt>
      <trkpt lat="40.82459" lon="20.09464">
        <ele>883.59002685547</ele>
        <time>2024-09-26T13:14:00.000Z</time>
      </trkpt>
      <trkpt lat="40.82464" lon="20.09462">
        <ele>884.07000732422</ele>
        <time>2024-09-26T13:14:01.000Z</time>
      </trkpt>
      <trkpt lat="40.8247" lon="20.09463">
        <ele>884.54998779297</ele>
        <time>2024-09-26T13:14:02.000Z</time>
      </trkpt>
      <trkpt lat="40.82476" lon="20.09466">
        <ele>885.03002929688</ele>
        <time>2024-09-26T13:14:03.000Z</time>
      </trkpt>
      <trkpt lat="40.82481" lon="20.09471">
        <ele>885.51000976562</ele>
        <time>2024-09-26T13:14:04.000Z</time>
      </trkpt>
      <trkpt lat="40.82486" lon="20.09478">
        <ele>885.51000976562</ele>
        <time>2024-09-26T13:14:05.000Z</time>
      </trkpt>
      <trkpt lat="40.8249" lon="20.09487">
        <ele>886.95001220703</ele>
        <time>2024-09-26T13:14:06.000Z</time>
      </trkpt>
      <trkpt lat="40.82493" lon="20.09495">
        <ele>887.42999267578</ele>
        <time>2024-09-26T13:14:07.000Z</time>
      </trkpt>
      <trkpt lat="40.82498" lon="20.09503">
        <ele>887.90997314453</ele>
        <time>2024-09-26T13:14:08.000Z</time>
      </trkpt>
      <trkpt lat="40.82504" lon="20.0951">
        <ele>888.88000488281</ele>
        <time>2024-09-26T13:14:09.000Z</time>
      </trkpt>
      <trkpt lat="40.82512" lon="20.09518">
        <ele>889.84002685547</ele>
        <time>2024-09-26T13:14:10.000Z</time>
      </trkpt>
      <trkpt lat="40.82518" lon="20.09524">
        <ele>890.79998779297</ele>
        <time>2024-09-26T13:14:11.000Z</time>
      </trkpt>
      <trkpt lat="40.82524" lon="20.0953">
        <ele>891.76000976562</ele>
        <time>2024-09-26T13:14:12.000Z</time>
      </trkpt>
      <trkpt lat="40.82536" lon="20.09538">
        <ele>892.71997070312</ele>
        <time>2024-09-26T13:14:13.000Z</time>
      </trkpt>
      <trkpt lat="40.82538" lon="20.0954">
        <ele>892.71997070312</ele>
        <time>2024-09-26T13:14:14.000Z</time>
      </trkpt>
      <trkpt lat="40.82545" lon="20.09542">
        <ele>893.20001220703</ele>
        <time>2024-09-26T13:14:15.000Z</time>
      </trkpt>
      <trkpt lat="40.82552" lon="20.09543">
        <ele>893.67999267578</ele>
        <time>2024-09-26T13:14:16.000Z</time>
      </trkpt>
      <trkpt lat="40.82562" lon="20.09544">
        <ele>894.64001464844</ele>
        <time>2024-09-26T13:14:17.000Z</time>
      </trkpt>
      <trkpt lat="40.82567" lon="20.09544">
        <ele>895.11999511719</ele>
        <time>2024-09-26T13:14:18.000Z</time>
      </trkpt>
      <trkpt lat="40.82575" lon="20.09545">
        <ele>896.09002685547</ele>
        <time>2024-09-26T13:14:19.000Z</time>
      </trkpt>
      <trkpt lat="40.82582" lon="20.09546">
        <ele>896.57000732422</ele>
        <time>2024-09-26T13:14:20.000Z</time>
      </trkpt>
      <trkpt lat="40.82599" lon="20.09542">
        <ele>898.96997070312</ele>
        <time>2024-09-26T13:14:22.000Z</time>
      </trkpt>
      <trkpt lat="40.82606" lon="20.09541">
        <ele>899.45001220703</ele>
        <time>2024-09-26T13:14:23.000Z</time>
      </trkpt>
      <trkpt lat="40.82612" lon="20.09541">
        <ele>900.40997314453</ele>
        <time>2024-09-26T13:14:24.000Z</time>
      </trkpt>
      <trkpt lat="40.82621" lon="20.09542">
        <ele>901.36999511719</ele>
        <time>2024-09-26T13:14:25.000Z</time>
      </trkpt>
      <trkpt lat="40.82629" lon="20.09543">
        <ele>902.33001708984</ele>
        <time>2024-09-26T13:14:26.000Z</time>
      </trkpt>
      <trkpt lat="40.82636" lon="20.09545">
        <ele>902.82000732422</ele>
        <time>2024-09-26T13:14:27.000Z</time>
      </trkpt>
      <trkpt lat="40.82643" lon="20.09549">
        <ele>904.26000976562</ele>
        <time>2024-09-26T13:14:28.000Z</time>
      </trkpt>
      <trkpt lat="40.82649" lon="20.09554">
        <ele>904.73999023438</ele>
        <time>2024-09-26T13:14:29.000Z</time>
      </trkpt>
      <trkpt lat="40.82653" lon="20.0956">
        <ele>905.70001220703</ele>
        <time>2024-09-26T13:14:30.000Z</time>
      </trkpt>
      <trkpt lat="40.82656" lon="20.09567">
        <ele>906.65997314453</ele>
        <time>2024-09-26T13:14:31.000Z</time>
      </trkpt>
      <trkpt lat="40.82656" lon="20.09576">
        <ele>907.61999511719</ele>
        <time>2024-09-26T13:14:32.000Z</time>
      </trkpt>
      <trkpt lat="40.82656" lon="20.09583">
        <ele>907.61999511719</ele>
        <time>2024-09-26T13:14:33.000Z</time>
      </trkpt>
      <trkpt lat="40.82655" lon="20.09592">
        <ele>907.14001464844</ele>
        <time>2024-09-26T13:14:34.000Z</time>
      </trkpt>
      <trkpt lat="40.82654" lon="20.09602">
        <ele>906.17999267578</ele>
        <time>2024-09-26T13:14:35.000Z</time>
      </trkpt>
      <trkpt lat="40.82652" lon="20.09611">
        <ele>905.70001220703</ele>
        <time>2024-09-26T13:14:36.000Z</time>
      </trkpt>
      <trkpt lat="40.82651" lon="20.09619">
        <ele>905.21997070312</ele>
        <time>2024-09-26T13:14:37.000Z</time>
      </trkpt>
      <trkpt lat="40.82651" lon="20.09626">
        <ele>904.73999023438</ele>
        <time>2024-09-26T13:14:38.000Z</time>
      </trkpt>
      <trkpt lat="40.82658" lon="20.09637">
        <ele>903.29998779297</ele>
        <time>2024-09-26T13:14:41.000Z</time>
      </trkpt>
      <trkpt lat="40.82662" lon="20.09636">
        <ele>903.29998779297</ele>
        <time>2024-09-26T13:14:42.000Z</time>
      </trkpt>
      <trkpt lat="40.82667" lon="20.09635">
        <ele>903.29998779297</ele>
        <time>2024-09-26T13:14:43.000Z</time>
      </trkpt>
      <trkpt lat="40.82676" lon="20.09633">
        <ele>903.29998779297</ele>
        <time>2024-09-26T13:14:44.000Z</time>
      </trkpt>
      <trkpt lat="40.82679" lon="20.09632">
        <ele>903.29998779297</ele>
        <time>2024-09-26T13:14:45.000Z</time>
      </trkpt>
      <trkpt lat="40.82686" lon="20.09631">
        <ele>903.78002929688</ele>
        <time>2024-09-26T13:14:46.000Z</time>
      </trkpt>
      <trkpt lat="40.82692" lon="20.09632">
        <ele>904.26000976562</ele>
        <time>2024-09-26T13:14:47.000Z</time>
      </trkpt>
      <trkpt lat="40.82699" lon="20.09634">
        <ele>904.73999023438</ele>
        <time>2024-09-26T13:14:48.000Z</time>
      </trkpt>
      <trkpt lat="40.82704" lon="20.09637">
        <ele>904.26000976562</ele>
        <time>2024-09-26T13:14:49.000Z</time>
      </trkpt>
      <trkpt lat="40.82708" lon="20.09642">
        <ele>904.26000976562</ele>
        <time>2024-09-26T13:14:50.000Z</time>
      </trkpt>
      <trkpt lat="40.82711" lon="20.09648">
        <ele>904.26000976562</ele>
        <time>2024-09-26T13:14:51.000Z</time>
      </trkpt>
      <trkpt lat="40.82714" lon="20.09656">
        <ele>904.26000976562</ele>
        <time>2024-09-26T13:14:52.000Z</time>
      </trkpt>
      <trkpt lat="40.82715" lon="20.09661">
        <ele>903.78002929688</ele>
        <time>2024-09-26T13:14:53.000Z</time>
      </trkpt>
      <trkpt lat="40.82717" lon="20.09669">
        <ele>903.29998779297</ele>
        <time>2024-09-26T13:14:54.000Z</time>
      </trkpt>
      <trkpt lat="40.8272" lon="20.09676">
        <ele>903.78002929688</ele>
        <time>2024-09-26T13:14:55.000Z</time>
      </trkpt>
      <trkpt lat="40.82721" lon="20.09681">
        <ele>903.78002929688</ele>
        <time>2024-09-26T13:14:56.000Z</time>
      </trkpt>
      <trkpt lat="40.82725" lon="20.09693">
        <ele>904.73999023438</ele>
        <time>2024-09-26T13:14:58.000Z</time>
      </trkpt>
      <trkpt lat="40.82726" lon="20.097">
        <ele>905.21997070312</ele>
        <time>2024-09-26T13:14:59.000Z</time>
      </trkpt>
      <trkpt lat="40.82726" lon="20.09701">
        <ele>905.21997070312</ele>
        <time>2024-09-26T13:15:00.000Z</time>
      </trkpt>
      <trkpt lat="40.82729" lon="20.09719">
        <ele>905.70001220703</ele>
        <time>2024-09-26T13:15:07.000Z</time>
      </trkpt>
      <trkpt lat="40.8273" lon="20.09722">
        <ele>905.70001220703</ele>
        <time>2024-09-26T13:15:18.000Z</time>
      </trkpt>
      <trkpt lat="40.82734" lon="20.09729">
        <ele>906.17999267578</ele>
        <time>2024-09-26T13:15:19.000Z</time>
      </trkpt>
      <trkpt lat="40.82738" lon="20.09736">
        <ele>906.65997314453</ele>
        <time>2024-09-26T13:15:20.000Z</time>
      </trkpt>
      <trkpt lat="40.82741" lon="20.09742">
        <ele>907.14001464844</ele>
        <time>2024-09-26T13:15:21.000Z</time>
      </trkpt>
      <trkpt lat="40.82744" lon="20.09752">
        <ele>906.65997314453</ele>
        <time>2024-09-26T13:15:22.000Z</time>
      </trkpt>
      <trkpt lat="40.82746" lon="20.09758">
        <ele>905.70001220703</ele>
        <time>2024-09-26T13:15:23.000Z</time>
      </trkpt>
      <trkpt lat="40.82748" lon="20.09765">
        <ele>905.21997070312</ele>
        <time>2024-09-26T13:15:24.000Z</time>
      </trkpt>
      <trkpt lat="40.8275" lon="20.09771">
        <ele>904.73999023438</ele>
        <time>2024-09-26T13:15:25.000Z</time>
      </trkpt>
      <trkpt lat="40.82753" lon="20.09776">
        <ele>904.73999023438</ele>
        <time>2024-09-26T13:15:26.000Z</time>
      </trkpt>
      <trkpt lat="40.82757" lon="20.09778">
        <ele>904.73999023438</ele>
        <time>2024-09-26T13:15:27.000Z</time>
      </trkpt>
      <trkpt lat="40.82761" lon="20.09778">
        <ele>904.73999023438</ele>
        <time>2024-09-26T13:15:28.000Z</time>
      </trkpt>
      <trkpt lat="40.82765" lon="20.09775">
        <ele>904.73999023438</ele>
        <time>2024-09-26T13:15:29.000Z</time>
      </trkpt>
      <trkpt lat="40.82768" lon="20.09771">
        <ele>905.21997070312</ele>
        <time>2024-09-26T13:15:30.000Z</time>
      </trkpt>
      <trkpt lat="40.82775" lon="20.09763">
        <ele>905.70001220703</ele>
        <time>2024-09-26T13:15:31.000Z</time>
      </trkpt>
      <trkpt lat="40.82777" lon="20.0976">
        <ele>906.17999267578</ele>
        <time>2024-09-26T13:15:32.000Z</time>
      </trkpt>
      <trkpt lat="40.82782" lon="20.09755">
        <ele>906.65997314453</ele>
        <time>2024-09-26T13:15:33.000Z</time>
      </trkpt>
      <trkpt lat="40.82786" lon="20.09752">
        <ele>907.14001464844</ele>
        <time>2024-09-26T13:15:34.000Z</time>
      </trkpt>
      <trkpt lat="40.82792" lon="20.09747">
        <ele>907.61999511719</ele>
        <time>2024-09-26T13:15:35.000Z</time>
      </trkpt>
      <trkpt lat="40.82796" lon="20.09745">
        <ele>908.09997558594</ele>
        <time>2024-09-26T13:15:36.000Z</time>
      </trkpt>
      <trkpt lat="40.82801" lon="20.09742">
        <ele>908.58001708984</ele>
        <time>2024-09-26T13:15:37.000Z</time>
      </trkpt>
      <trkpt lat="40.82805" lon="20.09741">
        <ele>909.05999755859</ele>
        <time>2024-09-26T13:15:38.000Z</time>
      </trkpt>
      <trkpt lat="40.82811" lon="20.0974">
        <ele>909.05999755859</ele>
        <time>2024-09-26T13:15:39.000Z</time>
      </trkpt>
      <trkpt lat="40.82816" lon="20.09741">
        <ele>909.53997802734</ele>
        <time>2024-09-26T13:15:40.000Z</time>
      </trkpt>
      <trkpt lat="40.82825" lon="20.09742">
        <ele>910.03002929688</ele>
        <time>2024-09-26T13:15:47.000Z</time>
      </trkpt>
      <trkpt lat="40.8284" lon="20.09748">
        <ele>910.03002929688</ele>
        <time>2024-09-26T13:16:53.000Z</time>
      </trkpt>
      <trkpt lat="40.82862" lon="20.09736">
        <ele>911.46997070312</ele>
        <time>2024-09-26T13:17:00.000Z</time>
      </trkpt>
      <trkpt lat="40.82886" lon="20.09733">
        <ele>913.86999511719</ele>
        <time>2024-09-26T13:17:08.000Z</time>
      </trkpt>
      <trkpt lat="40.8289" lon="20.09745">
        <ele>914.34997558594</ele>
        <time>2024-09-26T13:17:11.000Z</time>
      </trkpt>
      <trkpt lat="40.82892" lon="20.09754">
        <ele>914.83001708984</ele>
        <time>2024-09-26T13:17:12.000Z</time>
      </trkpt>
      <trkpt lat="40.82893" lon="20.09756">
        <ele>914.83001708984</ele>
        <time>2024-09-26T13:17:13.000Z</time>
      </trkpt>
      <trkpt lat="40.82895" lon="20.09762">
        <ele>915.30999755859</ele>
        <time>2024-09-26T13:17:14.000Z</time>
      </trkpt>
      <trkpt lat="40.82897" lon="20.09767">
        <ele>915.78997802734</ele>
        <time>2024-09-26T13:17:15.000Z</time>
      </trkpt>
      <trkpt lat="40.82899" lon="20.09773">
        <ele>915.78997802734</ele>
        <time>2024-09-26T13:17:16.000Z</time>
      </trkpt>
      <trkpt lat="40.82902" lon="20.09777">
        <ele>916.27001953125</ele>
        <time>2024-09-26T13:17:17.000Z</time>
      </trkpt>
      <trkpt lat="40.82906" lon="20.09783">
        <ele>917.23999023438</ele>
        <time>2024-09-26T13:17:18.000Z</time>
      </trkpt>
      <trkpt lat="40.82908" lon="20.09787">
        <ele>917.23999023438</ele>
        <time>2024-09-26T13:17:19.000Z</time>
      </trkpt>
      <trkpt lat="40.82911" lon="20.0979">
        <ele>917.71997070312</ele>
        <time>2024-09-26T13:17:20.000Z</time>
      </trkpt>
      <trkpt lat="40.82914" lon="20.09793">
        <ele>917.71997070312</ele>
        <time>2024-09-26T13:17:21.000Z</time>
      </trkpt>
      <trkpt lat="40.82918" lon="20.09796">
        <ele>917.71997070312</ele>
        <time>2024-09-26T13:17:22.000Z</time>
      </trkpt>
      <trkpt lat="40.82927" lon="20.09804">
        <ele>917.23999023438</ele>
        <time>2024-09-26T13:17:24.000Z</time>
      </trkpt>
      <trkpt lat="40.82931" lon="20.09807">
        <ele>916.75</ele>
        <time>2024-09-26T13:17:25.000Z</time>
      </trkpt>
      <trkpt lat="40.82936" lon="20.0981">
        <ele>916.27001953125</ele>
        <time>2024-09-26T13:17:26.000Z</time>
      </trkpt>
      <trkpt lat="40.82942" lon="20.09812">
        <ele>915.30999755859</ele>
        <time>2024-09-26T13:17:27.000Z</time>
      </trkpt>
      <trkpt lat="40.82947" lon="20.09814">
        <ele>914.83001708984</ele>
        <time>2024-09-26T13:17:28.000Z</time>
      </trkpt>
      <trkpt lat="40.82954" lon="20.09816">
        <ele>914.34997558594</ele>
        <time>2024-09-26T13:17:29.000Z</time>
      </trkpt>
      <trkpt lat="40.82964" lon="20.09816">
        <ele>913.39001464844</ele>
        <time>2024-09-26T13:17:31.000Z</time>
      </trkpt>
      <trkpt lat="40.8297" lon="20.09817">
        <ele>912.90997314453</ele>
        <time>2024-09-26T13:17:32.000Z</time>
      </trkpt>
      <trkpt lat="40.82976" lon="20.09818">
        <ele>911.95001220703</ele>
        <time>2024-09-26T13:17:33.000Z</time>
      </trkpt>
      <trkpt lat="40.82981" lon="20.09819">
        <ele>911.46997070312</ele>
        <time>2024-09-26T13:17:34.000Z</time>
      </trkpt>
      <trkpt lat="40.82987" lon="20.09819">
        <ele>910.51000976562</ele>
        <time>2024-09-26T13:17:35.000Z</time>
      </trkpt>
      <trkpt lat="40.83011" lon="20.09824">
        <ele>907.61999511719</ele>
        <time>2024-09-26T13:17:38.000Z</time>
      </trkpt>
      <trkpt lat="40.83021" lon="20.09826">
        <ele>907.14001464844</ele>
        <time>2024-09-26T13:17:40.000Z</time>
      </trkpt>
      <trkpt lat="40.83045" lon="20.09833">
        <ele>906.65997314453</ele>
        <time>2024-09-26T13:17:44.000Z</time>
      </trkpt>
      <trkpt lat="40.83051" lon="20.09834">
        <ele>906.65997314453</ele>
        <time>2024-09-26T13:17:45.000Z</time>
      </trkpt>
      <trkpt lat="40.83061" lon="20.09836">
        <ele>906.65997314453</ele>
        <time>2024-09-26T13:17:47.000Z</time>
      </trkpt>
      <trkpt lat="40.83077" lon="20.09838">
        <ele>905.70001220703</ele>
        <time>2024-09-26T13:17:49.000Z</time>
      </trkpt>
      <trkpt lat="40.83099" lon="20.09843">
        <ele>904.73999023438</ele>
        <time>2024-09-26T13:17:52.000Z</time>
      </trkpt>
      <trkpt lat="40.83102" lon="20.09843">
        <ele>904.26000976562</ele>
        <time>2024-09-26T13:17:53.000Z</time>
      </trkpt>
      <trkpt lat="40.83109" lon="20.09844">
        <ele>904.26000976562</ele>
        <time>2024-09-26T13:17:54.000Z</time>
      </trkpt>
      <trkpt lat="40.83128" lon="20.09843">
        <ele>903.78002929688</ele>
        <time>2024-09-26T13:17:57.000Z</time>
      </trkpt>
      <trkpt lat="40.83136" lon="20.09841">
        <ele>903.29998779297</ele>
        <time>2024-09-26T13:17:58.000Z</time>
      </trkpt>
      <trkpt lat="40.83142" lon="20.0984">
        <ele>902.82000732422</ele>
        <time>2024-09-26T13:17:59.000Z</time>
      </trkpt>
      <trkpt lat="40.83149" lon="20.0984">
        <ele>902.33001708984</ele>
        <time>2024-09-26T13:18:00.000Z</time>
      </trkpt>
      <trkpt lat="40.83154" lon="20.09841">
        <ele>902.33001708984</ele>
        <time>2024-09-26T13:18:01.000Z</time>
      </trkpt>
      <trkpt lat="40.83176" lon="20.09846">
        <ele>900.40997314453</ele>
        <time>2024-09-26T13:18:04.000Z</time>
      </trkpt>
      <trkpt lat="40.83181" lon="20.09847">
        <ele>899.92999267578</ele>
        <time>2024-09-26T13:18:05.000Z</time>
      </trkpt>
      <trkpt lat="40.83187" lon="20.0985">
        <ele>898.96997070312</ele>
        <time>2024-09-26T13:18:06.000Z</time>
      </trkpt>
      <trkpt lat="40.83197" lon="20.09854">
        <ele>897.53002929688</ele>
        <time>2024-09-26T13:18:07.000Z</time>
      </trkpt>
      <trkpt lat="40.83199" lon="20.09854">
        <ele>897.04998779297</ele>
        <time>2024-09-26T13:18:08.000Z</time>
      </trkpt>
      <trkpt lat="40.83205" lon="20.09857">
        <ele>896.09002685547</ele>
        <time>2024-09-26T13:18:09.000Z</time>
      </trkpt>
      <trkpt lat="40.83213" lon="20.0986">
        <ele>894.64001464844</ele>
        <time>2024-09-26T13:18:10.000Z</time>
      </trkpt>
      <trkpt lat="40.83221" lon="20.09862">
        <ele>893.20001220703</ele>
        <time>2024-09-26T13:18:11.000Z</time>
      </trkpt>
      <trkpt lat="40.83226" lon="20.09862">
        <ele>892.23999023438</ele>
        <time>2024-09-26T13:18:12.000Z</time>
      </trkpt>
      <trkpt lat="40.83233" lon="20.09863">
        <ele>891.28002929688</ele>
        <time>2024-09-26T13:18:13.000Z</time>
      </trkpt>
      <trkpt lat="40.8324" lon="20.09864">
        <ele>890.32000732422</ele>
        <time>2024-09-26T13:18:14.000Z</time>
      </trkpt>
      <trkpt lat="40.83246" lon="20.09866">
        <ele>889.84002685547</ele>
        <time>2024-09-26T13:18:15.000Z</time>
      </trkpt>
      <trkpt lat="40.83266" lon="20.09871">
        <ele>887.42999267578</ele>
        <time>2024-09-26T13:18:18.000Z</time>
      </trkpt>
      <trkpt lat="40.83273" lon="20.09874">
        <ele>886.95001220703</ele>
        <time>2024-09-26T13:18:19.000Z</time>
      </trkpt>
      <trkpt lat="40.8328" lon="20.09878">
        <ele>886.95001220703</ele>
        <time>2024-09-26T13:18:20.000Z</time>
      </trkpt>
      <trkpt lat="40.83284" lon="20.09881">
        <ele>886.95001220703</ele>
        <time>2024-09-26T13:18:21.000Z</time>
      </trkpt>
      <trkpt lat="40.8329" lon="20.09884">
        <ele>886.46997070312</ele>
        <time>2024-09-26T13:18:22.000Z</time>
      </trkpt>
      <trkpt lat="40.83296" lon="20.09885">
        <ele>886.46997070312</ele>
        <time>2024-09-26T13:18:23.000Z</time>
      </trkpt>
      <trkpt lat="40.83302" lon="20.09885">
        <ele>885.98999023438</ele>
        <time>2024-09-26T13:18:24.000Z</time>
      </trkpt>
      <trkpt lat="40.83307" lon="20.09882">
        <ele>885.51000976562</ele>
        <time>2024-09-26T13:18:25.000Z</time>
      </trkpt>
      <trkpt lat="40.83312" lon="20.09878">
        <ele>885.03002929688</ele>
        <time>2024-09-26T13:18:26.000Z</time>
      </trkpt>
      <trkpt lat="40.83317" lon="20.09872">
        <ele>884.54998779297</ele>
        <time>2024-09-26T13:18:27.000Z</time>
      </trkpt>
      <trkpt lat="40.83322" lon="20.09866">
        <ele>884.54998779297</ele>
        <time>2024-09-26T13:18:28.000Z</time>
      </trkpt>
      <trkpt lat="40.83332" lon="20.09849">
        <ele>883.59002685547</ele>
        <time>2024-09-26T13:18:30.000Z</time>
      </trkpt>
      <trkpt lat="40.83335" lon="20.09843">
        <ele>883.59002685547</ele>
        <time>2024-09-26T13:18:31.000Z</time>
      </trkpt>
      <trkpt lat="40.83337" lon="20.09837">
        <ele>883.59002685547</ele>
        <time>2024-09-26T13:18:32.000Z</time>
      </trkpt>
      <trkpt lat="40.83339" lon="20.09832">
        <ele>883.59002685547</ele>
        <time>2024-09-26T13:18:33.000Z</time>
      </trkpt>
      <trkpt lat="40.8334" lon="20.09823">
        <ele>883.59002685547</ele>
        <time>2024-09-26T13:18:34.000Z</time>
      </trkpt>
      <trkpt lat="40.83341" lon="20.09816">
        <ele>883.10998535156</ele>
        <time>2024-09-26T13:18:35.000Z</time>
      </trkpt>
      <trkpt lat="40.83341" lon="20.09792">
        <ele>882.63000488281</ele>
        <time>2024-09-26T13:18:37.000Z</time>
      </trkpt>
      <trkpt lat="40.83341" lon="20.0979">
        <ele>882.63000488281</ele>
        <time>2024-09-26T13:18:38.000Z</time>
      </trkpt>
      <trkpt lat="40.8334" lon="20.09777">
        <ele>882.63000488281</ele>
        <time>2024-09-26T13:18:39.000Z</time>
      </trkpt>
      <trkpt lat="40.8334" lon="20.0977">
        <ele>882.63000488281</ele>
        <time>2024-09-26T13:18:40.000Z</time>
      </trkpt>
      <trkpt lat="40.8334" lon="20.09764">
        <ele>882.63000488281</ele>
        <time>2024-09-26T13:18:41.000Z</time>
      </trkpt>
      <trkpt lat="40.83341" lon="20.09755">
        <ele>882.63000488281</ele>
        <time>2024-09-26T13:18:42.000Z</time>
      </trkpt>
      <trkpt lat="40.83343" lon="20.09746">
        <ele>882.63000488281</ele>
        <time>2024-09-26T13:18:43.000Z</time>
      </trkpt>
      <trkpt lat="40.83345" lon="20.09735">
        <ele>882.63000488281</ele>
        <time>2024-09-26T13:18:44.000Z</time>
      </trkpt>
      <trkpt lat="40.83346" lon="20.0973">
        <ele>882.63000488281</ele>
        <time>2024-09-26T13:18:45.000Z</time>
      </trkpt>
      <trkpt lat="40.83348" lon="20.09723">
        <ele>882.63000488281</ele>
        <time>2024-09-26T13:18:46.000Z</time>
      </trkpt>
      <trkpt lat="40.83351" lon="20.09715">
        <ele>882.15002441406</ele>
        <time>2024-09-26T13:18:47.000Z</time>
      </trkpt>
      <trkpt lat="40.83354" lon="20.09709">
        <ele>881.66998291016</ele>
        <time>2024-09-26T13:18:48.000Z</time>
      </trkpt>
      <trkpt lat="40.83358" lon="20.09701">
        <ele>880.71002197266</ele>
        <time>2024-09-26T13:18:49.000Z</time>
      </trkpt>
      <trkpt lat="40.83364" lon="20.09696">
        <ele>879.73999023438</ele>
        <time>2024-09-26T13:18:50.000Z</time>
      </trkpt>
      <trkpt lat="40.83372" lon="20.0969">
        <ele>879.26000976562</ele>
        <time>2024-09-26T13:18:51.000Z</time>
      </trkpt>
      <trkpt lat="40.83375" lon="20.09687">
        <ele>878.78002929688</ele>
        <time>2024-09-26T13:18:52.000Z</time>
      </trkpt>
      <trkpt lat="40.8338" lon="20.09681">
        <ele>878.78002929688</ele>
        <time>2024-09-26T13:18:53.000Z</time>
      </trkpt>
      <trkpt lat="40.83384" lon="20.09674">
        <ele>878.78002929688</ele>
        <time>2024-09-26T13:18:54.000Z</time>
      </trkpt>
      <trkpt lat="40.83386" lon="20.09667">
        <ele>879.73999023438</ele>
        <time>2024-09-26T13:18:55.000Z</time>
      </trkpt>
      <trkpt lat="40.83385" lon="20.09659">
        <ele>879.73999023438</ele>
        <time>2024-09-26T13:18:56.000Z</time>
      </trkpt>
      <trkpt lat="40.83384" lon="20.09651">
        <ele>880.21997070312</ele>
        <time>2024-09-26T13:18:57.000Z</time>
      </trkpt>
      <trkpt lat="40.83383" lon="20.09643">
        <ele>881.19000244141</ele>
        <time>2024-09-26T13:18:58.000Z</time>
      </trkpt>
      <trkpt lat="40.83382" lon="20.09634">
        <ele>882.63000488281</ele>
        <time>2024-09-26T13:18:59.000Z</time>
      </trkpt>
      <trkpt lat="40.83382" lon="20.09626">
        <ele>883.59002685547</ele>
        <time>2024-09-26T13:19:00.000Z</time>
      </trkpt>
      <trkpt lat="40.83384" lon="20.09619">
        <ele>883.59002685547</ele>
        <time>2024-09-26T13:19:01.000Z</time>
      </trkpt>
      <trkpt lat="40.83387" lon="20.09614">
        <ele>883.59002685547</ele>
        <time>2024-09-26T13:19:02.000Z</time>
      </trkpt>
      <trkpt lat="40.83391" lon="20.09608">
        <ele>883.10998535156</ele>
        <time>2024-09-26T13:19:03.000Z</time>
      </trkpt>
      <trkpt lat="40.83395" lon="20.09602">
        <ele>883.10998535156</ele>
        <time>2024-09-26T13:19:04.000Z</time>
      </trkpt>
      <trkpt lat="40.83399" lon="20.09596">
        <ele>882.63000488281</ele>
        <time>2024-09-26T13:19:05.000Z</time>
      </trkpt>
      <trkpt lat="40.83402" lon="20.09589">
        <ele>882.63000488281</ele>
        <time>2024-09-26T13:19:06.000Z</time>
      </trkpt>
      <trkpt lat="40.83402" lon="20.09583">
        <ele>883.10998535156</ele>
        <time>2024-09-26T13:19:07.000Z</time>
      </trkpt>
      <trkpt lat="40.834" lon="20.09577">
        <ele>883.10998535156</ele>
        <time>2024-09-26T13:19:08.000Z</time>
      </trkpt>
      <trkpt lat="40.83394" lon="20.09569">
        <ele>883.59002685547</ele>
        <time>2024-09-26T13:19:09.000Z</time>
      </trkpt>
      <trkpt lat="40.83392" lon="20.09567">
        <ele>883.59002685547</ele>
        <time>2024-09-26T13:19:10.000Z</time>
      </trkpt>
      <trkpt lat="40.83388" lon="20.0956">
        <ele>884.07000732422</ele>
        <time>2024-09-26T13:19:11.000Z</time>
      </trkpt>
      <trkpt lat="40.83384" lon="20.09552">
        <ele>884.54998779297</ele>
        <time>2024-09-26T13:19:12.000Z</time>
      </trkpt>
      <trkpt lat="40.83382" lon="20.09544">
        <ele>885.03002929688</ele>
        <time>2024-09-26T13:19:13.000Z</time>
      </trkpt>
      <trkpt lat="40.83381" lon="20.09532">
        <ele>886.46997070312</ele>
        <time>2024-09-26T13:19:14.000Z</time>
      </trkpt>
      <trkpt lat="40.8338" lon="20.09528">
        <ele>886.95001220703</ele>
        <time>2024-09-26T13:19:15.000Z</time>
      </trkpt>
      <trkpt lat="40.83378" lon="20.09521">
        <ele>887.42999267578</ele>
        <time>2024-09-26T13:19:16.000Z</time>
      </trkpt>
      <trkpt lat="40.83375" lon="20.09514">
        <ele>888.40002441406</ele>
        <time>2024-09-26T13:19:17.000Z</time>
      </trkpt>
      <trkpt lat="40.83371" lon="20.09508">
        <ele>889.35998535156</ele>
        <time>2024-09-26T13:19:18.000Z</time>
      </trkpt>
      <trkpt lat="40.83364" lon="20.095">
        <ele>890.32000732422</ele>
        <time>2024-09-26T13:19:19.000Z</time>
      </trkpt>
      <trkpt lat="40.83362" lon="20.09497">
        <ele>890.79998779297</ele>
        <time>2024-09-26T13:19:20.000Z</time>
      </trkpt>
      <trkpt lat="40.83357" lon="20.09489">
        <ele>890.79998779297</ele>
        <time>2024-09-26T13:19:21.000Z</time>
      </trkpt>
      <trkpt lat="40.83354" lon="20.09483">
        <ele>890.79998779297</ele>
        <time>2024-09-26T13:19:22.000Z</time>
      </trkpt>
      <trkpt lat="40.8335" lon="20.09476">
        <ele>890.32000732422</ele>
        <time>2024-09-26T13:19:23.000Z</time>
      </trkpt>
      <trkpt lat="40.83348" lon="20.09471">
        <ele>889.84002685547</ele>
        <time>2024-09-26T13:19:24.000Z</time>
      </trkpt>
      <trkpt lat="40.83346" lon="20.09465">
        <ele>889.84002685547</ele>
        <time>2024-09-26T13:19:25.000Z</time>
      </trkpt>
      <trkpt lat="40.83345" lon="20.09458">
        <ele>889.35998535156</ele>
        <time>2024-09-26T13:19:26.000Z</time>
      </trkpt>
      <trkpt lat="40.83344" lon="20.09433">
        <ele>886.46997070312</ele>
        <time>2024-09-26T13:19:29.000Z</time>
      </trkpt>
      <trkpt lat="40.83343" lon="20.09426">
        <ele>885.98999023438</ele>
        <time>2024-09-26T13:19:30.000Z</time>
      </trkpt>
      <trkpt lat="40.83343" lon="20.0942">
        <ele>885.51000976562</ele>
        <time>2024-09-26T13:19:31.000Z</time>
      </trkpt>
      <trkpt lat="40.83344" lon="20.09409">
        <ele>884.54998779297</ele>
        <time>2024-09-26T13:19:32.000Z</time>
      </trkpt>
      <trkpt lat="40.83344" lon="20.09402">
        <ele>884.07000732422</ele>
        <time>2024-09-26T13:19:33.000Z</time>
      </trkpt>
      <trkpt lat="40.83342" lon="20.09371">
        <ele>881.19000244141</ele>
        <time>2024-09-26T13:19:36.000Z</time>
      </trkpt>
      <trkpt lat="40.8334" lon="20.09358">
        <ele>880.21997070312</ele>
        <time>2024-09-26T13:19:38.000Z</time>
      </trkpt>
      <trkpt lat="40.83339" lon="20.09351">
        <ele>879.26000976562</ele>
        <time>2024-09-26T13:19:39.000Z</time>
      </trkpt>
      <trkpt lat="40.83337" lon="20.09341">
        <ele>878.29998779297</ele>
        <time>2024-09-26T13:19:40.000Z</time>
      </trkpt>
      <trkpt lat="40.83335" lon="20.0933">
        <ele>876.85998535156</ele>
        <time>2024-09-26T13:19:41.000Z</time>
      </trkpt>
      <trkpt lat="40.83333" lon="20.09325">
        <ele>876.38000488281</ele>
        <time>2024-09-26T13:19:42.000Z</time>
      </trkpt>
      <trkpt lat="40.8333" lon="20.09316">
        <ele>875.41998291016</ele>
        <time>2024-09-26T13:19:43.000Z</time>
      </trkpt>
      <trkpt lat="40.83322" lon="20.09288">
        <ele>872.04998779297</ele>
        <time>2024-09-26T13:19:46.000Z</time>
      </trkpt>
      <trkpt lat="40.83318" lon="20.09272">
        <ele>870.13000488281</ele>
        <time>2024-09-26T13:19:47.000Z</time>
      </trkpt>
      <trkpt lat="40.83317" lon="20.0927">
        <ele>869.65002441406</ele>
        <time>2024-09-26T13:19:48.000Z</time>
      </trkpt>
      <trkpt lat="40.83314" lon="20.09261">
        <ele>868.21002197266</ele>
        <time>2024-09-26T13:19:49.000Z</time>
      </trkpt>
      <trkpt lat="40.8331" lon="20.09252">
        <ele>867.25</ele>
        <time>2024-09-26T13:19:50.000Z</time>
      </trkpt>
      <trkpt lat="40.83306" lon="20.09243">
        <ele>866.28997802734</ele>
        <time>2024-09-26T13:19:51.000Z</time>
      </trkpt>
      <trkpt lat="40.83303" lon="20.09236">
        <ele>865.32000732422</ele>
        <time>2024-09-26T13:19:52.000Z</time>
      </trkpt>
      <trkpt lat="40.83294" lon="20.09206">
        <ele>861.96002197266</ele>
        <time>2024-09-26T13:19:55.000Z</time>
      </trkpt>
      <trkpt lat="40.83291" lon="20.09199">
        <ele>861</ele>
        <time>2024-09-26T13:19:56.000Z</time>
      </trkpt>
      <trkpt lat="40.83287" lon="20.09189">
        <ele>860.03997802734</ele>
        <time>2024-09-26T13:19:57.000Z</time>
      </trkpt>
      <trkpt lat="40.83283" lon="20.09179">
        <ele>858.59002685547</ele>
        <time>2024-09-26T13:19:58.000Z</time>
      </trkpt>
      <trkpt lat="40.83279" lon="20.09169">
        <ele>858.10998535156</ele>
        <time>2024-09-26T13:19:59.000Z</time>
      </trkpt>
      <trkpt lat="40.83277" lon="20.09164">
        <ele>857.63000488281</ele>
        <time>2024-09-26T13:20:00.000Z</time>
      </trkpt>
      <trkpt lat="40.83272" lon="20.09156">
        <ele>856.66998291016</ele>
        <time>2024-09-26T13:20:01.000Z</time>
      </trkpt>
      <trkpt lat="40.83267" lon="20.0915">
        <ele>855.71002197266</ele>
        <time>2024-09-26T13:20:02.000Z</time>
      </trkpt>
      <trkpt lat="40.8326" lon="20.09146">
        <ele>854.75</ele>
        <time>2024-09-26T13:20:03.000Z</time>
      </trkpt>
      <trkpt lat="40.83251" lon="20.09141">
        <ele>853.78997802734</ele>
        <time>2024-09-26T13:20:04.000Z</time>
      </trkpt>
      <trkpt lat="40.83247" lon="20.0914">
        <ele>853.30999755859</ele>
        <time>2024-09-26T13:20:05.000Z</time>
      </trkpt>
      <trkpt lat="40.8324" lon="20.09136">
        <ele>852.34997558594</ele>
        <time>2024-09-26T13:20:06.000Z</time>
      </trkpt>
      <trkpt lat="40.83234" lon="20.09133">
        <ele>851.86999511719</ele>
        <time>2024-09-26T13:20:07.000Z</time>
      </trkpt>
      <trkpt lat="40.83231" lon="20.09131">
        <ele>850.90002441406</ele>
        <time>2024-09-26T13:20:08.000Z</time>
      </trkpt>
      <trkpt lat="40.83226" lon="20.09127">
        <ele>850.41998291016</ele>
        <time>2024-09-26T13:20:09.000Z</time>
      </trkpt>
      <trkpt lat="40.83222" lon="20.09123">
        <ele>849.94000244141</ele>
        <time>2024-09-26T13:20:10.000Z</time>
      </trkpt>
      <trkpt lat="40.83218" lon="20.09119">
        <ele>848.97998046875</ele>
        <time>2024-09-26T13:20:11.000Z</time>
      </trkpt>
      <trkpt lat="40.83214" lon="20.09113">
        <ele>848.02001953125</ele>
        <time>2024-09-26T13:20:12.000Z</time>
      </trkpt>
      <trkpt lat="40.83211" lon="20.09107">
        <ele>847.53997802734</ele>
        <time>2024-09-26T13:20:13.000Z</time>
      </trkpt>
      <trkpt lat="40.83207" lon="20.09099">
        <ele>846.58001708984</ele>
        <time>2024-09-26T13:20:14.000Z</time>
      </trkpt>
      <trkpt lat="40.83205" lon="20.09091">
        <ele>845.61999511719</ele>
        <time>2024-09-26T13:20:15.000Z</time>
      </trkpt>
      <trkpt lat="40.83201" lon="20.0908">
        <ele>845.14001464844</ele>
        <time>2024-09-26T13:20:16.000Z</time>
      </trkpt>
      <trkpt lat="40.832" lon="20.09077">
        <ele>844.65997314453</ele>
        <time>2024-09-26T13:20:17.000Z</time>
      </trkpt>
      <trkpt lat="40.83197" lon="20.09069">
        <ele>844.17999267578</ele>
        <time>2024-09-26T13:20:18.000Z</time>
      </trkpt>
      <trkpt lat="40.83193" lon="20.09061">
        <ele>843.21002197266</ele>
        <time>2024-09-26T13:20:19.000Z</time>
      </trkpt>
      <trkpt lat="40.83189" lon="20.09055">
        <ele>842.25</ele>
        <time>2024-09-26T13:20:20.000Z</time>
      </trkpt>
      <trkpt lat="40.83186" lon="20.09049">
        <ele>841.77001953125</ele>
        <time>2024-09-26T13:20:21.000Z</time>
      </trkpt>
      <trkpt lat="40.83183" lon="20.0904">
        <ele>840.80999755859</ele>
        <time>2024-09-26T13:20:22.000Z</time>
      </trkpt>
      <trkpt lat="40.83182" lon="20.09036">
        <ele>839.84997558594</ele>
        <time>2024-09-26T13:20:23.000Z</time>
      </trkpt>
      <trkpt lat="40.8318" lon="20.09031">
        <ele>839.36999511719</ele>
        <time>2024-09-26T13:20:24.000Z</time>
      </trkpt>
      <trkpt lat="40.83179" lon="20.09024">
        <ele>838.89001464844</ele>
        <time>2024-09-26T13:20:25.000Z</time>
      </trkpt>
      <trkpt lat="40.83179" lon="20.09018">
        <ele>838.40997314453</ele>
        <time>2024-09-26T13:20:26.000Z</time>
      </trkpt>
      <trkpt lat="40.83181" lon="20.09011">
        <ele>837.45001220703</ele>
        <time>2024-09-26T13:20:27.000Z</time>
      </trkpt>
      <trkpt lat="40.83184" lon="20.09004">
        <ele>836.96002197266</ele>
        <time>2024-09-26T13:20:28.000Z</time>
      </trkpt>
      <trkpt lat="40.83189" lon="20.08996">
        <ele>836.47998046875</ele>
        <time>2024-09-26T13:20:29.000Z</time>
      </trkpt>
      <trkpt lat="40.83196" lon="20.08988">
        <ele>835.52001953125</ele>
        <time>2024-09-26T13:20:30.000Z</time>
      </trkpt>
      <trkpt lat="40.83197" lon="20.08987">
        <ele>835.52001953125</ele>
        <time>2024-09-26T13:20:31.000Z</time>
      </trkpt>
      <trkpt lat="40.832" lon="20.08981">
        <ele>835.52001953125</ele>
        <time>2024-09-26T13:20:32.000Z</time>
      </trkpt>
      <trkpt lat="40.83203" lon="20.08974">
        <ele>835.03997802734</ele>
        <time>2024-09-26T13:20:33.000Z</time>
      </trkpt>
      <trkpt lat="40.83206" lon="20.08962">
        <ele>835.03997802734</ele>
        <time>2024-09-26T13:20:34.000Z</time>
      </trkpt>
      <trkpt lat="40.83207" lon="20.08959">
        <ele>835.03997802734</ele>
        <time>2024-09-26T13:20:35.000Z</time>
      </trkpt>
      <trkpt lat="40.8321" lon="20.0895">
        <ele>835.03997802734</ele>
        <time>2024-09-26T13:20:36.000Z</time>
      </trkpt>
      <trkpt lat="40.83212" lon="20.08944">
        <ele>835.03997802734</ele>
        <time>2024-09-26T13:20:37.000Z</time>
      </trkpt>
      <trkpt lat="40.83214" lon="20.08939">
        <ele>834.55999755859</ele>
        <time>2024-09-26T13:20:38.000Z</time>
      </trkpt>
      <trkpt lat="40.83215" lon="20.08934">
        <ele>834.55999755859</ele>
        <time>2024-09-26T13:20:39.000Z</time>
      </trkpt>
      <trkpt lat="40.83222" lon="20.08915">
        <ele>833.59997558594</ele>
        <time>2024-09-26T13:20:43.000Z</time>
      </trkpt>
      <trkpt lat="40.83215" lon="20.08903">
        <ele>831.67999267578</ele>
        <time>2024-09-26T13:20:49.000Z</time>
      </trkpt>
      <trkpt lat="40.83202" lon="20.08911">
        <ele>829.27001953125</ele>
        <time>2024-09-26T13:20:53.000Z</time>
      </trkpt>
      <trkpt lat="40.83199" lon="20.08913">
        <ele>828.78997802734</ele>
        <time>2024-09-26T13:20:54.000Z</time>
      </trkpt>
      <trkpt lat="40.83196" lon="20.08917">
        <ele>828.30999755859</ele>
        <time>2024-09-26T13:20:55.000Z</time>
      </trkpt>
      <trkpt lat="40.83193" lon="20.08922">
        <ele>827.83001708984</ele>
        <time>2024-09-26T13:20:56.000Z</time>
      </trkpt>
      <trkpt lat="40.83189" lon="20.08929">
        <ele>826.86999511719</ele>
        <time>2024-09-26T13:20:57.000Z</time>
      </trkpt>
      <trkpt lat="40.83187" lon="20.08934">
        <ele>825.90997314453</ele>
        <time>2024-09-26T13:20:58.000Z</time>
      </trkpt>
      <trkpt lat="40.83185" lon="20.08938">
        <ele>825.42999267578</ele>
        <time>2024-09-26T13:20:59.000Z</time>
      </trkpt>
      <trkpt lat="40.83183" lon="20.08944">
        <ele>824.95001220703</ele>
        <time>2024-09-26T13:21:00.000Z</time>
      </trkpt>
      <trkpt lat="40.83181" lon="20.08951">
        <ele>823.98999023438</ele>
        <time>2024-09-26T13:21:01.000Z</time>
      </trkpt>
      <trkpt lat="40.83179" lon="20.08956">
        <ele>823.51000976562</ele>
        <time>2024-09-26T13:21:02.000Z</time>
      </trkpt>
      <trkpt lat="40.83167" lon="20.08955">
        <ele>820.14001464844</ele>
        <time>2024-09-26T13:21:06.000Z</time>
      </trkpt>
      <trkpt lat="40.83166" lon="20.08952">
        <ele>819.65997314453</ele>
        <time>2024-09-26T13:21:07.000Z</time>
      </trkpt>
      <trkpt lat="40.83166" lon="20.08946">
        <ele>819.17999267578</ele>
        <time>2024-09-26T13:21:08.000Z</time>
      </trkpt>
      <trkpt lat="40.83166" lon="20.08935">
        <ele>817.73999023438</ele>
        <time>2024-09-26T13:21:09.000Z</time>
      </trkpt>
      <trkpt lat="40.83167" lon="20.08932">
        <ele>817.26000976562</ele>
        <time>2024-09-26T13:21:10.000Z</time>
      </trkpt>
      <trkpt lat="40.83167" lon="20.08925">
        <ele>816.78002929688</ele>
        <time>2024-09-26T13:21:11.000Z</time>
      </trkpt>
      <trkpt lat="40.83169" lon="20.08914">
        <ele>816.29998779297</ele>
        <time>2024-09-26T13:21:12.000Z</time>
      </trkpt>
      <trkpt lat="40.8317" lon="20.08907">
        <ele>815.82000732422</ele>
        <time>2024-09-26T13:21:13.000Z</time>
      </trkpt>
      <trkpt lat="40.8317" lon="20.08904">
        <ele>815.34002685547</ele>
        <time>2024-09-26T13:21:14.000Z</time>
      </trkpt>
      <trkpt lat="40.83173" lon="20.08895">
        <ele>814.36999511719</ele>
        <time>2024-09-26T13:21:15.000Z</time>
      </trkpt>
      <trkpt lat="40.83175" lon="20.0889">
        <ele>814.36999511719</ele>
        <time>2024-09-26T13:21:16.000Z</time>
      </trkpt>
      <trkpt lat="40.83178" lon="20.08884">
        <ele>813.89001464844</ele>
        <time>2024-09-26T13:21:17.000Z</time>
      </trkpt>
      <trkpt lat="40.83183" lon="20.08877">
        <ele>812.92999267578</ele>
        <time>2024-09-26T13:21:18.000Z</time>
      </trkpt>
      <trkpt lat="40.83186" lon="20.08873">
        <ele>812.92999267578</ele>
        <time>2024-09-26T13:21:19.000Z</time>
      </trkpt>
      <trkpt lat="40.83191" lon="20.08868">
        <ele>811.96997070312</ele>
        <time>2024-09-26T13:21:20.000Z</time>
      </trkpt>
      <trkpt lat="40.83196" lon="20.08864">
        <ele>811.48999023438</ele>
        <time>2024-09-26T13:21:21.000Z</time>
      </trkpt>
      <trkpt lat="40.83202" lon="20.08861">
        <ele>811.48999023438</ele>
        <time>2024-09-26T13:21:22.000Z</time>
      </trkpt>
      <trkpt lat="40.83212" lon="20.08855">
        <ele>810.53002929688</ele>
        <time>2024-09-26T13:21:24.000Z</time>
      </trkpt>
      <trkpt lat="40.83216" lon="20.0885">
        <ele>810.53002929688</ele>
        <time>2024-09-26T13:21:25.000Z</time>
      </trkpt>
      <trkpt lat="40.83225" lon="20.08838">
        <ele>810.04998779297</ele>
        <time>2024-09-26T13:21:27.000Z</time>
      </trkpt>
      <trkpt lat="40.83228" lon="20.08832">
        <ele>810.04998779297</ele>
        <time>2024-09-26T13:21:28.000Z</time>
      </trkpt>
      <trkpt lat="40.83233" lon="20.08826">
        <ele>810.04998779297</ele>
        <time>2024-09-26T13:21:29.000Z</time>
      </trkpt>
      <trkpt lat="40.83238" lon="20.08821">
        <ele>809.57000732422</ele>
        <time>2024-09-26T13:21:30.000Z</time>
      </trkpt>
      <trkpt lat="40.83243" lon="20.08817">
        <ele>809.09002685547</ele>
        <time>2024-09-26T13:21:31.000Z</time>
      </trkpt>
      <trkpt lat="40.83248" lon="20.08816">
        <ele>808.60998535156</ele>
        <time>2024-09-26T13:21:32.000Z</time>
      </trkpt>
      <trkpt lat="40.83252" lon="20.08816">
        <ele>808.60998535156</ele>
        <time>2024-09-26T13:21:33.000Z</time>
      </trkpt>
      <trkpt lat="40.83256" lon="20.08819">
        <ele>807.64001464844</ele>
        <time>2024-09-26T13:21:34.000Z</time>
      </trkpt>
      <trkpt lat="40.83259" lon="20.08824">
        <ele>807.15997314453</ele>
        <time>2024-09-26T13:21:35.000Z</time>
      </trkpt>
      <trkpt lat="40.83264" lon="20.08832">
        <ele>806.20001220703</ele>
        <time>2024-09-26T13:21:36.000Z</time>
      </trkpt>
      <trkpt lat="40.83268" lon="20.0884">
        <ele>805.71997070312</ele>
        <time>2024-09-26T13:21:37.000Z</time>
      </trkpt>
      <trkpt lat="40.83269" lon="20.08843">
        <ele>805.23999023438</ele>
        <time>2024-09-26T13:21:38.000Z</time>
      </trkpt>
      <trkpt lat="40.83273" lon="20.08848">
        <ele>804.76000976562</ele>
        <time>2024-09-26T13:21:39.000Z</time>
      </trkpt>
      <trkpt lat="40.83278" lon="20.08852">
        <ele>804.28002929688</ele>
        <time>2024-09-26T13:21:40.000Z</time>
      </trkpt>
      <trkpt lat="40.83284" lon="20.08854">
        <ele>803.79998779297</ele>
        <time>2024-09-26T13:21:41.000Z</time>
      </trkpt>
      <trkpt lat="40.83289" lon="20.08856">
        <ele>803.32000732422</ele>
        <time>2024-09-26T13:21:42.000Z</time>
      </trkpt>
      <trkpt lat="40.83302" lon="20.08857">
        <ele>801.40002441406</ele>
        <time>2024-09-26T13:21:44.000Z</time>
      </trkpt>
      <trkpt lat="40.83312" lon="20.08857">
        <ele>800.44000244141</ele>
        <time>2024-09-26T13:21:45.000Z</time>
      </trkpt>
      <trkpt lat="40.83317" lon="20.08857">
        <ele>799.95001220703</ele>
        <time>2024-09-26T13:21:46.000Z</time>
      </trkpt>
      <trkpt lat="40.83319" lon="20.08856">
        <ele>799.46997070312</ele>
        <time>2024-09-26T13:21:47.000Z</time>
      </trkpt>
      <trkpt lat="40.83326" lon="20.08855">
        <ele>798.98999023438</ele>
        <time>2024-09-26T13:21:48.000Z</time>
      </trkpt>
      <trkpt lat="40.83332" lon="20.08853">
        <ele>798.51000976562</ele>
        <time>2024-09-26T13:21:49.000Z</time>
      </trkpt>
      <trkpt lat="40.8334" lon="20.08848">
        <ele>797.54998779297</ele>
        <time>2024-09-26T13:21:50.000Z</time>
      </trkpt>
      <trkpt lat="40.83343" lon="20.08845">
        <ele>797.07000732422</ele>
        <time>2024-09-26T13:21:51.000Z</time>
      </trkpt>
      <trkpt lat="40.83348" lon="20.08839">
        <ele>796.10998535156</ele>
        <time>2024-09-26T13:21:52.000Z</time>
      </trkpt>
      <trkpt lat="40.83354" lon="20.08833">
        <ele>795.15002441406</ele>
        <time>2024-09-26T13:21:53.000Z</time>
      </trkpt>
      <trkpt lat="40.8336" lon="20.08824">
        <ele>793.71002197266</ele>
        <time>2024-09-26T13:21:54.000Z</time>
      </trkpt>
      <trkpt lat="40.83361" lon="20.08822">
        <ele>793.21997070312</ele>
        <time>2024-09-26T13:21:55.000Z</time>
      </trkpt>
      <trkpt lat="40.83366" lon="20.08813">
        <ele>792.73999023438</ele>
        <time>2024-09-26T13:21:56.000Z</time>
      </trkpt>
      <trkpt lat="40.83369" lon="20.08806">
        <ele>791.78002929688</ele>
        <time>2024-09-26T13:21:57.000Z</time>
      </trkpt>
      <trkpt lat="40.83372" lon="20.08798">
        <ele>790.82000732422</ele>
        <time>2024-09-26T13:21:58.000Z</time>
      </trkpt>
      <trkpt lat="40.8338" lon="20.0877">
        <ele>788.41998291016</ele>
        <time>2024-09-26T13:22:01.000Z</time>
      </trkpt>
      <trkpt lat="40.83381" lon="20.08767">
        <ele>787.94000244141</ele>
        <time>2024-09-26T13:22:02.000Z</time>
      </trkpt>
      <trkpt lat="40.83387" lon="20.08745">
        <ele>785.53002929688</ele>
        <time>2024-09-26T13:22:04.000Z</time>
      </trkpt>
      <trkpt lat="40.83395" lon="20.08713">
        <ele>783.60998535156</ele>
        <time>2024-09-26T13:22:08.000Z</time>
      </trkpt>
      <trkpt lat="40.83397" lon="20.08707">
        <ele>783.13000488281</ele>
        <time>2024-09-26T13:22:09.000Z</time>
      </trkpt>
      <trkpt lat="40.83399" lon="20.087">
        <ele>782.65002441406</ele>
        <time>2024-09-26T13:22:10.000Z</time>
      </trkpt>
      <trkpt lat="40.83401" lon="20.08692">
        <ele>782.16998291016</ele>
        <time>2024-09-26T13:22:11.000Z</time>
      </trkpt>
      <trkpt lat="40.83402" lon="20.08685">
        <ele>781.21002197266</ele>
        <time>2024-09-26T13:22:12.000Z</time>
      </trkpt>
      <trkpt lat="40.83404" lon="20.0867">
        <ele>779.77001953125</ele>
        <time>2024-09-26T13:22:13.000Z</time>
      </trkpt>
      <trkpt lat="40.83405" lon="20.08667">
        <ele>779.77001953125</ele>
        <time>2024-09-26T13:22:14.000Z</time>
      </trkpt>
      <trkpt lat="40.83407" lon="20.08656">
        <ele>778.80999755859</ele>
        <time>2024-09-26T13:22:15.000Z</time>
      </trkpt>
      <trkpt lat="40.83407" lon="20.08652">
        <ele>778.32000732422</ele>
        <time>2024-09-26T13:22:16.000Z</time>
      </trkpt>
      <trkpt lat="40.83408" lon="20.08645">
        <ele>777.35998535156</ele>
        <time>2024-09-26T13:22:17.000Z</time>
      </trkpt>
      <trkpt lat="40.83408" lon="20.08632">
        <ele>775.91998291016</ele>
        <time>2024-09-26T13:22:18.000Z</time>
      </trkpt>
      <trkpt lat="40.83408" lon="20.08626">
        <ele>775.44000244141</ele>
        <time>2024-09-26T13:22:19.000Z</time>
      </trkpt>
      <trkpt lat="40.83408" lon="20.08619">
        <ele>774</ele>
        <time>2024-09-26T13:22:20.000Z</time>
      </trkpt>
      <trkpt lat="40.83409" lon="20.08611">
        <ele>773.03997802734</ele>
        <time>2024-09-26T13:22:21.000Z</time>
      </trkpt>
      <trkpt lat="40.83409" lon="20.086">
        <ele>772.08001708984</ele>
        <time>2024-09-26T13:22:22.000Z</time>
      </trkpt>
      <trkpt lat="40.83409" lon="20.08594">
        <ele>771.10998535156</ele>
        <time>2024-09-26T13:22:23.000Z</time>
      </trkpt>
      <trkpt lat="40.83409" lon="20.08589">
        <ele>770.63000488281</ele>
        <time>2024-09-26T13:22:24.000Z</time>
      </trkpt>
      <trkpt lat="40.8341" lon="20.0858">
        <ele>769.19000244141</ele>
        <time>2024-09-26T13:22:25.000Z</time>
      </trkpt>
      <trkpt lat="40.83414" lon="20.08565">
        <ele>766.78997802734</ele>
        <time>2024-09-26T13:22:26.000Z</time>
      </trkpt>
      <trkpt lat="40.83415" lon="20.08564">
        <ele>766.78997802734</ele>
        <time>2024-09-26T13:22:27.000Z</time>
      </trkpt>
      <trkpt lat="40.83417" lon="20.08554">
        <ele>765.34997558594</ele>
        <time>2024-09-26T13:22:28.000Z</time>
      </trkpt>
      <trkpt lat="40.83419" lon="20.08546">
        <ele>763.90002441406</ele>
        <time>2024-09-26T13:22:29.000Z</time>
      </trkpt>
      <trkpt lat="40.83422" lon="20.08528">
        <ele>761.02001953125</ele>
        <time>2024-09-26T13:22:31.000Z</time>
      </trkpt>
      <trkpt lat="40.83423" lon="20.08518">
        <ele>760.05999755859</ele>
        <time>2024-09-26T13:22:32.000Z</time>
      </trkpt>
      <trkpt lat="40.83424" lon="20.08509">
        <ele>758.61999511719</ele>
        <time>2024-09-26T13:22:33.000Z</time>
      </trkpt>
      <trkpt lat="40.83424" lon="20.08504">
        <ele>758.14001464844</ele>
        <time>2024-09-26T13:22:34.000Z</time>
      </trkpt>
      <trkpt lat="40.83423" lon="20.08497">
        <ele>757.17999267578</ele>
        <time>2024-09-26T13:22:35.000Z</time>
      </trkpt>
      <trkpt lat="40.83421" lon="20.08489">
        <ele>756.21002197266</ele>
        <time>2024-09-26T13:22:36.000Z</time>
      </trkpt>
      <trkpt lat="40.83418" lon="20.08483">
        <ele>754.77001953125</ele>
        <time>2024-09-26T13:22:37.000Z</time>
      </trkpt>
      <trkpt lat="40.83414" lon="20.08477">
        <ele>753.80999755859</ele>
        <time>2024-09-26T13:22:38.000Z</time>
      </trkpt>
      <trkpt lat="40.8341" lon="20.0847">
        <ele>752.36999511719</ele>
        <time>2024-09-26T13:22:39.000Z</time>
      </trkpt>
      <trkpt lat="40.83405" lon="20.08464">
        <ele>751.40997314453</ele>
        <time>2024-09-26T13:22:40.000Z</time>
      </trkpt>
      <trkpt lat="40.83401" lon="20.0846">
        <ele>750.92999267578</ele>
        <time>2024-09-26T13:22:41.000Z</time>
      </trkpt>
      <trkpt lat="40.83396" lon="20.08457">
        <ele>750.45001220703</ele>
        <time>2024-09-26T13:22:42.000Z</time>
      </trkpt>
      <trkpt lat="40.83394" lon="20.08454">
        <ele>749.96997070312</ele>
        <time>2024-09-26T13:22:43.000Z</time>
      </trkpt>
      <trkpt lat="40.83391" lon="20.0845">
        <ele>749.48999023438</ele>
        <time>2024-09-26T13:22:44.000Z</time>
      </trkpt>
      <trkpt lat="40.83388" lon="20.08444">
        <ele>748.52001953125</ele>
        <time>2024-09-26T13:22:45.000Z</time>
      </trkpt>
      <trkpt lat="40.83387" lon="20.08439">
        <ele>748.03997802734</ele>
        <time>2024-09-26T13:22:46.000Z</time>
      </trkpt>
      <trkpt lat="40.83387" lon="20.08434">
        <ele>747.55999755859</ele>
        <time>2024-09-26T13:22:47.000Z</time>
      </trkpt>
      <trkpt lat="40.83389" lon="20.08428">
        <ele>747.08001708984</ele>
        <time>2024-09-26T13:22:48.000Z</time>
      </trkpt>
      <trkpt lat="40.83391" lon="20.08423">
        <ele>746.11999511719</ele>
        <time>2024-09-26T13:22:49.000Z</time>
      </trkpt>
      <trkpt lat="40.83395" lon="20.08418">
        <ele>745.15997314453</ele>
        <time>2024-09-26T13:22:50.000Z</time>
      </trkpt>
      <trkpt lat="40.83399" lon="20.08412">
        <ele>744.20001220703</ele>
        <time>2024-09-26T13:22:51.000Z</time>
      </trkpt>
      <trkpt lat="40.83402" lon="20.08408">
        <ele>743.71997070312</ele>
        <time>2024-09-26T13:22:52.000Z</time>
      </trkpt>
      <trkpt lat="40.83406" lon="20.08402">
        <ele>742.76000976562</ele>
        <time>2024-09-26T13:22:53.000Z</time>
      </trkpt>
      <trkpt lat="40.83409" lon="20.08391">
        <ele>741.78997802734</ele>
        <time>2024-09-26T13:22:54.000Z</time>
      </trkpt>
      <trkpt lat="40.83411" lon="20.08386">
        <ele>741.30999755859</ele>
        <time>2024-09-26T13:22:55.000Z</time>
      </trkpt>
      <trkpt lat="40.83413" lon="20.08379">
        <ele>740.83001708984</ele>
        <time>2024-09-26T13:22:56.000Z</time>
      </trkpt>
      <trkpt lat="40.83415" lon="20.08363">
        <ele>738.90997314453</ele>
        <time>2024-09-26T13:22:58.000Z</time>
      </trkpt>
      <trkpt lat="40.83417" lon="20.08353">
        <ele>737.95001220703</ele>
        <time>2024-09-26T13:22:59.000Z</time>
      </trkpt>
      <trkpt lat="40.83418" lon="20.08348">
        <ele>737.46997070312</ele>
        <time>2024-09-26T13:23:00.000Z</time>
      </trkpt>
      <trkpt lat="40.83419" lon="20.08341">
        <ele>736.98999023438</ele>
        <time>2024-09-26T13:23:01.000Z</time>
      </trkpt>
      <trkpt lat="40.83418" lon="20.08332">
        <ele>736.03002929688</ele>
        <time>2024-09-26T13:23:02.000Z</time>
      </trkpt>
      <trkpt lat="40.83417" lon="20.08326">
        <ele>735.07000732422</ele>
        <time>2024-09-26T13:23:03.000Z</time>
      </trkpt>
      <trkpt lat="40.83415" lon="20.08318">
        <ele>734.58001708984</ele>
        <time>2024-09-26T13:23:04.000Z</time>
      </trkpt>
      <trkpt lat="40.83409" lon="20.08307">
        <ele>732.65997314453</ele>
        <time>2024-09-26T13:23:05.000Z</time>
      </trkpt>
      <trkpt lat="40.83407" lon="20.08305">
        <ele>732.17999267578</ele>
        <time>2024-09-26T13:23:06.000Z</time>
      </trkpt>
      <trkpt lat="40.83404" lon="20.08297">
        <ele>731.21997070312</ele>
        <time>2024-09-26T13:23:07.000Z</time>
      </trkpt>
      <trkpt lat="40.83402" lon="20.08291">
        <ele>730.26000976562</ele>
        <time>2024-09-26T13:23:08.000Z</time>
      </trkpt>
      <trkpt lat="40.834" lon="20.08285">
        <ele>729.78002929688</ele>
        <time>2024-09-26T13:23:09.000Z</time>
      </trkpt>
      <trkpt lat="40.83399" lon="20.08278">
        <ele>729.29998779297</ele>
        <time>2024-09-26T13:23:10.000Z</time>
      </trkpt>
      <trkpt lat="40.834" lon="20.08271">
        <ele>728.82000732422</ele>
        <time>2024-09-26T13:23:11.000Z</time>
      </trkpt>
      <trkpt lat="40.83401" lon="20.08263">
        <ele>728.34002685547</ele>
        <time>2024-09-26T13:23:12.000Z</time>
      </trkpt>
      <trkpt lat="40.83402" lon="20.08253">
        <ele>727.36999511719</ele>
        <time>2024-09-26T13:23:13.000Z</time>
      </trkpt>
      <trkpt lat="40.83402" lon="20.08248">
        <ele>726.89001464844</ele>
        <time>2024-09-26T13:23:14.000Z</time>
      </trkpt>
      <trkpt lat="40.83402" lon="20.08237">
        <ele>725.92999267578</ele>
        <time>2024-09-26T13:23:15.000Z</time>
      </trkpt>
      <trkpt lat="40.83402" lon="20.08232">
        <ele>725.92999267578</ele>
        <time>2024-09-26T13:23:16.000Z</time>
      </trkpt>
      <trkpt lat="40.83401" lon="20.08224">
        <ele>725.45001220703</ele>
        <time>2024-09-26T13:23:17.000Z</time>
      </trkpt>
      <trkpt lat="40.83402" lon="20.08217">
        <ele>724.96997070312</ele>
        <time>2024-09-26T13:23:18.000Z</time>
      </trkpt>
      <trkpt lat="40.83403" lon="20.08209">
        <ele>724.96997070312</ele>
        <time>2024-09-26T13:23:19.000Z</time>
      </trkpt>
      <trkpt lat="40.83405" lon="20.08203">
        <ele>724.48999023438</ele>
        <time>2024-09-26T13:23:20.000Z</time>
      </trkpt>
      <trkpt lat="40.83407" lon="20.08196">
        <ele>724.48999023438</ele>
        <time>2024-09-26T13:23:21.000Z</time>
      </trkpt>
      <trkpt lat="40.83411" lon="20.08191">
        <ele>724.96997070312</ele>
        <time>2024-09-26T13:23:22.000Z</time>
      </trkpt>
      <trkpt lat="40.83414" lon="20.08185">
        <ele>724.96997070312</ele>
        <time>2024-09-26T13:23:23.000Z</time>
      </trkpt>
      <trkpt lat="40.8342" lon="20.08178">
        <ele>725.92999267578</ele>
        <time>2024-09-26T13:23:24.000Z</time>
      </trkpt>
      <trkpt lat="40.83422" lon="20.08174">
        <ele>725.92999267578</ele>
        <time>2024-09-26T13:23:25.000Z</time>
      </trkpt>
      <trkpt lat="40.83425" lon="20.08171">
        <ele>725.92999267578</ele>
        <time>2024-09-26T13:23:26.000Z</time>
      </trkpt>
      <trkpt lat="40.83429" lon="20.08166">
        <ele>725.45001220703</ele>
        <time>2024-09-26T13:23:27.000Z</time>
      </trkpt>
      <trkpt lat="40.83433" lon="20.08163">
        <ele>724.96997070312</ele>
        <time>2024-09-26T13:23:28.000Z</time>
      </trkpt>
      <trkpt lat="40.83439" lon="20.08159">
        <ele>724.01000976562</ele>
        <time>2024-09-26T13:23:29.000Z</time>
      </trkpt>
      <trkpt lat="40.83445" lon="20.08154">
        <ele>723.53002929688</ele>
        <time>2024-09-26T13:23:30.000Z</time>
      </trkpt>
      <trkpt lat="40.83448" lon="20.08152">
        <ele>723.04998779297</ele>
        <time>2024-09-26T13:23:31.000Z</time>
      </trkpt>
      <trkpt lat="40.83452" lon="20.08148">
        <ele>722.09002685547</ele>
        <time>2024-09-26T13:23:32.000Z</time>
      </trkpt>
      <trkpt lat="40.83457" lon="20.08145">
        <ele>721.60998535156</ele>
        <time>2024-09-26T13:23:33.000Z</time>
      </trkpt>
      <trkpt lat="40.83464" lon="20.08142">
        <ele>720.65002441406</ele>
        <time>2024-09-26T13:23:34.000Z</time>
      </trkpt>
      <trkpt lat="40.83468" lon="20.0814">
        <ele>720.15997314453</ele>
        <time>2024-09-26T13:23:35.000Z</time>
      </trkpt>
      <trkpt lat="40.83479" lon="20.08135">
        <ele>718.71997070312</ele>
        <time>2024-09-26T13:23:37.000Z</time>
      </trkpt>
      <trkpt lat="40.83487" lon="20.08133">
        <ele>717.76000976562</ele>
        <time>2024-09-26T13:23:38.000Z</time>
      </trkpt>
      <trkpt lat="40.8349" lon="20.08132">
        <ele>717.76000976562</ele>
        <time>2024-09-26T13:23:39.000Z</time>
      </trkpt>
      <trkpt lat="40.83496" lon="20.08131">
        <ele>717.28002929688</ele>
        <time>2024-09-26T13:23:40.000Z</time>
      </trkpt>
      <trkpt lat="40.83504" lon="20.08129">
        <ele>716.32000732422</ele>
        <time>2024-09-26T13:23:41.000Z</time>
      </trkpt>
      <trkpt lat="40.83507" lon="20.08128">
        <ele>716.32000732422</ele>
        <time>2024-09-26T13:23:42.000Z</time>
      </trkpt>
      <trkpt lat="40.83515" lon="20.08125">
        <ele>715.84002685547</ele>
        <time>2024-09-26T13:23:43.000Z</time>
      </trkpt>
      <trkpt lat="40.8352" lon="20.08123">
        <ele>715.35998535156</ele>
        <time>2024-09-26T13:23:44.000Z</time>
      </trkpt>
      <trkpt lat="40.83525" lon="20.08121">
        <ele>714.88000488281</ele>
        <time>2024-09-26T13:23:45.000Z</time>
      </trkpt>
      <trkpt lat="40.83531" lon="20.08118">
        <ele>714.40002441406</ele>
        <time>2024-09-26T13:23:46.000Z</time>
      </trkpt>
      <trkpt lat="40.83534" lon="20.08115">
        <ele>714.40002441406</ele>
        <time>2024-09-26T13:23:47.000Z</time>
      </trkpt>
      <trkpt lat="40.83539" lon="20.08112">
        <ele>713.44000244141</ele>
        <time>2024-09-26T13:23:48.000Z</time>
      </trkpt>
      <trkpt lat="40.83545" lon="20.08108">
        <ele>712.46997070312</ele>
        <time>2024-09-26T13:23:49.000Z</time>
      </trkpt>
      <trkpt lat="40.8356" lon="20.08099">
        <ele>710.54998779297</ele>
        <time>2024-09-26T13:23:52.000Z</time>
      </trkpt>
      <trkpt lat="40.83568" lon="20.08094">
        <ele>709.10998535156</ele>
        <time>2024-09-26T13:23:53.000Z</time>
      </trkpt>
      <trkpt lat="40.83573" lon="20.08091">
        <ele>707.66998291016</ele>
        <time>2024-09-26T13:23:54.000Z</time>
      </trkpt>
      <trkpt lat="40.83579" lon="20.08087">
        <ele>706.71002197266</ele>
        <time>2024-09-26T13:23:56.000Z</time>
      </trkpt>
      <trkpt lat="40.83582" lon="20.08085">
        <ele>706.22998046875</ele>
        <time>2024-09-26T13:23:57.000Z</time>
      </trkpt>
      <trkpt lat="40.83586" lon="20.08083">
        <ele>705.26000976562</ele>
        <time>2024-09-26T13:23:58.000Z</time>
      </trkpt>
      <trkpt lat="40.8359" lon="20.08083">
        <ele>704.29998779297</ele>
        <time>2024-09-26T13:23:59.000Z</time>
      </trkpt>
      <trkpt lat="40.83595" lon="20.08083">
        <ele>703.34002685547</ele>
        <time>2024-09-26T13:24:00.000Z</time>
      </trkpt>
      <trkpt lat="40.836" lon="20.08084">
        <ele>702.85998535156</ele>
        <time>2024-09-26T13:24:01.000Z</time>
      </trkpt>
      <trkpt lat="40.83604" lon="20.08083">
        <ele>701.90002441406</ele>
        <time>2024-09-26T13:24:02.000Z</time>
      </trkpt>
      <trkpt lat="40.83608" lon="20.08064">
        <ele>700.46002197266</ele>
        <time>2024-09-26T13:24:07.000Z</time>
      </trkpt>
      <trkpt lat="40.83603" lon="20.08059">
        <ele>699.5</ele>
        <time>2024-09-26T13:24:09.000Z</time>
      </trkpt>
      <trkpt lat="40.83598" lon="20.08058">
        <ele>699.02001953125</ele>
        <time>2024-09-26T13:24:10.000Z</time>
      </trkpt>
      <trkpt lat="40.83594" lon="20.08057">
        <ele>698.53002929688</ele>
        <time>2024-09-26T13:24:11.000Z</time>
      </trkpt>
      <trkpt lat="40.83589" lon="20.08055">
        <ele>698.04998779297</ele>
        <time>2024-09-26T13:24:12.000Z</time>
      </trkpt>
      <trkpt lat="40.83583" lon="20.08053">
        <ele>697.57000732422</ele>
        <time>2024-09-26T13:24:13.000Z</time>
      </trkpt>
      <trkpt lat="40.83579" lon="20.08051">
        <ele>697.09002685547</ele>
        <time>2024-09-26T13:24:14.000Z</time>
      </trkpt>
      <trkpt lat="40.83583" lon="20.08036">
        <ele>694.69000244141</ele>
        <time>2024-09-26T13:24:18.000Z</time>
      </trkpt>
      <trkpt lat="40.83584" lon="20.08036">
        <ele>694.21002197266</ele>
        <time>2024-09-26T13:24:19.000Z</time>
      </trkpt>
      <trkpt lat="40.83591" lon="20.08039">
        <ele>693.25</ele>
        <time>2024-09-26T13:24:20.000Z</time>
      </trkpt>
      <trkpt lat="40.83595" lon="20.08041">
        <ele>692.77001953125</ele>
        <time>2024-09-26T13:24:21.000Z</time>
      </trkpt>
      <trkpt lat="40.83596" lon="20.08042">
        <ele>692.28997802734</ele>
        <time>2024-09-26T13:24:22.000Z</time>
      </trkpt>
      <trkpt lat="40.83601" lon="20.08043">
        <ele>692.28997802734</ele>
        <time>2024-09-26T13:24:23.000Z</time>
      </trkpt>
      <trkpt lat="40.83605" lon="20.08044">
        <ele>691.33001708984</ele>
        <time>2024-09-26T13:24:24.000Z</time>
      </trkpt>
      <trkpt lat="40.8361" lon="20.08043">
        <ele>690.84002685547</ele>
        <time>2024-09-26T13:24:25.000Z</time>
      </trkpt>
      <trkpt lat="40.83615" lon="20.08044">
        <ele>689.88000488281</ele>
        <time>2024-09-26T13:24:26.000Z</time>
      </trkpt>
      <trkpt lat="40.83621" lon="20.08046">
        <ele>688.91998291016</ele>
        <time>2024-09-26T13:24:27.000Z</time>
      </trkpt>
      <trkpt lat="40.83626" lon="20.08047">
        <ele>688.44000244141</ele>
        <time>2024-09-26T13:24:28.000Z</time>
      </trkpt>
      <trkpt lat="40.83631" lon="20.08032">
        <ele>686.52001953125</ele>
        <time>2024-09-26T13:24:34.000Z</time>
      </trkpt>
      <trkpt lat="40.83625" lon="20.08029">
        <ele>685.55999755859</ele>
        <time>2024-09-26T13:24:35.000Z</time>
      </trkpt>
      <trkpt lat="40.83623" lon="20.08029">
        <ele>685.55999755859</ele>
        <time>2024-09-26T13:24:36.000Z</time>
      </trkpt>
      <trkpt lat="40.83619" lon="20.08028">
        <ele>685.55999755859</ele>
        <time>2024-09-26T13:24:37.000Z</time>
      </trkpt>
      <trkpt lat="40.83614" lon="20.08027">
        <ele>685.08001708984</ele>
        <time>2024-09-26T13:24:38.000Z</time>
      </trkpt>
      <trkpt lat="40.8361" lon="20.08025">
        <ele>685.08001708984</ele>
        <time>2024-09-26T13:24:39.000Z</time>
      </trkpt>
      <trkpt lat="40.83606" lon="20.08022">
        <ele>684.59997558594</ele>
        <time>2024-09-26T13:24:40.000Z</time>
      </trkpt>
      <trkpt lat="40.83603" lon="20.08017">
        <ele>684.59997558594</ele>
        <time>2024-09-26T13:24:41.000Z</time>
      </trkpt>
      <trkpt lat="40.836" lon="20.0801">
        <ele>685.08001708984</ele>
        <time>2024-09-26T13:24:42.000Z</time>
      </trkpt>
      <trkpt lat="40.83594" lon="20.07995">
        <ele>686.52001953125</ele>
        <time>2024-09-26T13:24:44.000Z</time>
      </trkpt>
      <trkpt lat="40.83593" lon="20.07991">
        <ele>687</ele>
        <time>2024-09-26T13:24:45.000Z</time>
      </trkpt>
      <trkpt lat="40.83587" lon="20.07981">
        <ele>687</ele>
        <time>2024-09-26T13:24:47.000Z</time>
      </trkpt>
      <trkpt lat="40.83585" lon="20.07976">
        <ele>686.03997802734</ele>
        <time>2024-09-26T13:24:48.000Z</time>
      </trkpt>
      <trkpt lat="40.83583" lon="20.07969">
        <ele>685.55999755859</ele>
        <time>2024-09-26T13:24:49.000Z</time>
      </trkpt>
      <trkpt lat="40.83583" lon="20.07963">
        <ele>685.55999755859</ele>
        <time>2024-09-26T13:24:50.000Z</time>
      </trkpt>
      <trkpt lat="40.83583" lon="20.07956">
        <ele>684.59997558594</ele>
        <time>2024-09-26T13:24:51.000Z</time>
      </trkpt>
      <trkpt lat="40.83592" lon="20.07931">
        <ele>681.22998046875</ele>
        <time>2024-09-26T13:24:57.000Z</time>
      </trkpt>
      <trkpt lat="40.83593" lon="20.07928">
        <ele>681.22998046875</ele>
        <time>2024-09-26T13:24:58.000Z</time>
      </trkpt>
      <trkpt lat="40.83595" lon="20.07921">
        <ele>680.75</ele>
        <time>2024-09-26T13:24:59.000Z</time>
      </trkpt>
      <trkpt lat="40.83596" lon="20.07918">
        <ele>680.27001953125</ele>
        <time>2024-09-26T13:25:00.000Z</time>
      </trkpt>
      <trkpt lat="40.83598" lon="20.07909">
        <ele>679.78997802734</ele>
        <time>2024-09-26T13:25:06.000Z</time>
      </trkpt>
      <trkpt lat="40.83598" lon="20.07908">
        <ele>679.78997802734</ele>
        <time>2024-09-26T13:26:31.000Z</time>
      </trkpt>
      <trkpt lat="40.83598" lon="20.07904">
        <ele>679.78997802734</ele>
        <time>2024-09-26T13:27:38.000Z</time>
      </trkpt>
      <trkpt lat="40.83599" lon="20.07897">
        <ele>679.78997802734</ele>
        <time>2024-09-26T13:27:51.000Z</time>
      </trkpt>
      <trkpt lat="40.83599" lon="20.07892">
        <ele>679.30999755859</ele>
        <time>2024-09-26T13:27:52.000Z</time>
      </trkpt>
      <trkpt lat="40.83595" lon="20.07867">
        <ele>678.83001708984</ele>
        <time>2024-09-26T13:27:54.000Z</time>
      </trkpt>
      <trkpt lat="40.83595" lon="20.07863">
        <ele>678.83001708984</ele>
        <time>2024-09-26T13:27:55.000Z</time>
      </trkpt>
      <trkpt lat="40.83595" lon="20.07853">
        <ele>678.83001708984</ele>
        <time>2024-09-26T13:27:56.000Z</time>
      </trkpt>
      <trkpt lat="40.83594" lon="20.07834">
        <ele>677.86999511719</ele>
        <time>2024-09-26T13:27:58.000Z</time>
      </trkpt>
      <trkpt lat="40.83592" lon="20.07818">
        <ele>676.41998291016</ele>
        <time>2024-09-26T13:28:00.000Z</time>
      </trkpt>
      <trkpt lat="40.83592" lon="20.07802">
        <ele>674.5</ele>
        <time>2024-09-26T13:28:01.000Z</time>
      </trkpt>
      <trkpt lat="40.83592" lon="20.07795">
        <ele>673.53997802734</ele>
        <time>2024-09-26T13:28:02.000Z</time>
      </trkpt>
      <trkpt lat="40.83593" lon="20.07784">
        <ele>672.09997558594</ele>
        <time>2024-09-26T13:28:03.000Z</time>
      </trkpt>
      <trkpt lat="40.83594" lon="20.07768">
        <ele>670.65997314453</ele>
        <time>2024-09-26T13:28:04.000Z</time>
      </trkpt>
      <trkpt lat="40.83594" lon="20.07753">
        <ele>669.21997070312</ele>
        <time>2024-09-26T13:28:05.000Z</time>
      </trkpt>
      <trkpt lat="40.83594" lon="20.07733">
        <ele>667.77001953125</ele>
        <time>2024-09-26T13:28:07.000Z</time>
      </trkpt>
      <trkpt lat="40.83595" lon="20.07727">
        <ele>667.77001953125</ele>
        <time>2024-09-26T13:28:08.000Z</time>
      </trkpt>
      <trkpt lat="40.83595" lon="20.07722">
        <ele>666.80999755859</ele>
        <time>2024-09-26T13:28:09.000Z</time>
      </trkpt>
      <trkpt lat="40.83596" lon="20.07712">
        <ele>665.36999511719</ele>
        <time>2024-09-26T13:28:10.000Z</time>
      </trkpt>
      <trkpt lat="40.83596" lon="20.07708">
        <ele>664.40997314453</ele>
        <time>2024-09-26T13:28:11.000Z</time>
      </trkpt>
      <trkpt lat="40.83597" lon="20.077">
        <ele>663.45001220703</ele>
        <time>2024-09-26T13:28:12.000Z</time>
      </trkpt>
      <trkpt lat="40.83595" lon="20.07692">
        <ele>662.48999023438</ele>
        <time>2024-09-26T13:28:13.000Z</time>
      </trkpt>
      <trkpt lat="40.83593" lon="20.07683">
        <ele>661.52001953125</ele>
        <time>2024-09-26T13:28:14.000Z</time>
      </trkpt>
      <trkpt lat="40.83588" lon="20.07675">
        <ele>660.08001708984</ele>
        <time>2024-09-26T13:28:15.000Z</time>
      </trkpt>
      <trkpt lat="40.83584" lon="20.07669">
        <ele>659.11999511719</ele>
        <time>2024-09-26T13:28:16.000Z</time>
      </trkpt>
      <trkpt lat="40.83581" lon="20.07665">
        <ele>658.64001464844</ele>
        <time>2024-09-26T13:28:17.000Z</time>
      </trkpt>
      <trkpt lat="40.83569" lon="20.07662">
        <ele>656.23999023438</ele>
        <time>2024-09-26T13:28:21.000Z</time>
      </trkpt>
      <trkpt lat="40.83565" lon="20.07665">
        <ele>655.28002929688</ele>
        <time>2024-09-26T13:28:22.000Z</time>
      </trkpt>
      <trkpt lat="40.83561" lon="20.07668">
        <ele>654.79998779297</ele>
        <time>2024-09-26T13:28:23.000Z</time>
      </trkpt>
      <trkpt lat="40.83556" lon="20.07672">
        <ele>653.83001708984</ele>
        <time>2024-09-26T13:28:24.000Z</time>
      </trkpt>
      <trkpt lat="40.83551" lon="20.07675">
        <ele>653.34997558594</ele>
        <time>2024-09-26T13:28:25.000Z</time>
      </trkpt>
      <trkpt lat="40.83547" lon="20.07676">
        <ele>652.39001464844</ele>
        <time>2024-09-26T13:28:26.000Z</time>
      </trkpt>
      <trkpt lat="40.83543" lon="20.07667">
        <ele>650.46997070312</ele>
        <time>2024-09-26T13:28:28.000Z</time>
      </trkpt>
      <trkpt lat="40.83543" lon="20.07664">
        <ele>649.98999023438</ele>
        <time>2024-09-26T13:28:29.000Z</time>
      </trkpt>
      <trkpt lat="40.83545" lon="20.07656">
        <ele>648.54998779297</ele>
        <time>2024-09-26T13:28:30.000Z</time>
      </trkpt>
      <trkpt lat="40.83546" lon="20.07647">
        <ele>647.09997558594</ele>
        <time>2024-09-26T13:28:31.000Z</time>
      </trkpt>
      <trkpt lat="40.83545" lon="20.07638">
        <ele>645.65997314453</ele>
        <time>2024-09-26T13:28:32.000Z</time>
      </trkpt>
      <trkpt lat="40.83542" lon="20.0763">
        <ele>644.70001220703</ele>
        <time>2024-09-26T13:28:33.000Z</time>
      </trkpt>
      <trkpt lat="40.83537" lon="20.07624">
        <ele>644.21997070312</ele>
        <time>2024-09-26T13:28:34.000Z</time>
      </trkpt>
      <trkpt lat="40.83533" lon="20.07619">
        <ele>643.26000976562</ele>
        <time>2024-09-26T13:28:35.000Z</time>
      </trkpt>
      <trkpt lat="40.83527" lon="20.07614">
        <ele>642.29998779297</ele>
        <time>2024-09-26T13:28:36.000Z</time>
      </trkpt>
      <trkpt lat="40.83523" lon="20.07608">
        <ele>641.34002685547</ele>
        <time>2024-09-26T13:28:37.000Z</time>
      </trkpt>
      <trkpt lat="40.83518" lon="20.07599">
        <ele>640.38000488281</ele>
        <time>2024-09-26T13:28:38.000Z</time>
      </trkpt>
      <trkpt lat="40.83514" lon="20.07591">
        <ele>639.40997314453</ele>
        <time>2024-09-26T13:28:39.000Z</time>
      </trkpt>
      <trkpt lat="40.83511" lon="20.07581">
        <ele>638.92999267578</ele>
        <time>2024-09-26T13:28:40.000Z</time>
      </trkpt>
      <trkpt lat="40.83508" lon="20.0757">
        <ele>638.45001220703</ele>
        <time>2024-09-26T13:28:41.000Z</time>
      </trkpt>
      <trkpt lat="40.83507" lon="20.07562">
        <ele>638.45001220703</ele>
        <time>2024-09-26T13:28:42.000Z</time>
      </trkpt>
      <trkpt lat="40.83507" lon="20.07553">
        <ele>637.96997070312</ele>
        <time>2024-09-26T13:28:43.000Z</time>
      </trkpt>
      <trkpt lat="40.83509" lon="20.07542">
        <ele>637.48999023438</ele>
        <time>2024-09-26T13:28:44.000Z</time>
      </trkpt>
      <trkpt lat="40.8351" lon="20.07536">
        <ele>637.01000976562</ele>
        <time>2024-09-26T13:28:45.000Z</time>
      </trkpt>
      <trkpt lat="40.83512" lon="20.07528">
        <ele>635.57000732422</ele>
        <time>2024-09-26T13:28:46.000Z</time>
      </trkpt>
      <trkpt lat="40.83517" lon="20.07516">
        <ele>633.65002441406</ele>
        <time>2024-09-26T13:28:47.000Z</time>
      </trkpt>
      <trkpt lat="40.83519" lon="20.0751">
        <ele>633.16998291016</ele>
        <time>2024-09-26T13:28:48.000Z</time>
      </trkpt>
      <trkpt lat="40.83521" lon="20.07501">
        <ele>631.71997070312</ele>
        <time>2024-09-26T13:28:49.000Z</time>
      </trkpt>
      <trkpt lat="40.83523" lon="20.07483">
        <ele>629.79998779297</ele>
        <time>2024-09-26T13:28:50.000Z</time>
      </trkpt>
      <trkpt lat="40.83524" lon="20.07478">
        <ele>629.32000732422</ele>
        <time>2024-09-26T13:28:51.000Z</time>
      </trkpt>
      <trkpt lat="40.83524" lon="20.07471">
        <ele>628.35998535156</ele>
        <time>2024-09-26T13:28:52.000Z</time>
      </trkpt>
      <trkpt lat="40.83523" lon="20.07461">
        <ele>627.88000488281</ele>
        <time>2024-09-26T13:28:53.000Z</time>
      </trkpt>
      <trkpt lat="40.83521" lon="20.07453">
        <ele>626.91998291016</ele>
        <time>2024-09-26T13:28:54.000Z</time>
      </trkpt>
      <trkpt lat="40.83521" lon="20.07443">
        <ele>626.91998291016</ele>
        <time>2024-09-26T13:29:01.000Z</time>
      </trkpt>
      <trkpt lat="40.83523" lon="20.07442">
        <ele>627.88000488281</ele>
        <time>2024-09-26T13:29:42.000Z</time>
      </trkpt>
      <trkpt lat="40.83532" lon="20.07441">
        <ele>626.91998291016</ele>
        <time>2024-09-26T13:29:45.000Z</time>
      </trkpt>
      <trkpt lat="40.83535" lon="20.07441">
        <ele>626.44000244141</ele>
        <time>2024-09-26T13:29:46.000Z</time>
      </trkpt>
      <trkpt lat="40.83543" lon="20.07434">
        <ele>624.51000976562</ele>
        <time>2024-09-26T13:29:49.000Z</time>
      </trkpt>
      <trkpt lat="40.83544" lon="20.07427">
        <ele>623.54998779297</ele>
        <time>2024-09-26T13:29:50.000Z</time>
      </trkpt>
      <trkpt lat="40.83547" lon="20.07419">
        <ele>623.07000732422</ele>
        <time>2024-09-26T13:29:51.000Z</time>
      </trkpt>
      <trkpt lat="40.83548" lon="20.07415">
        <ele>622.59002685547</ele>
        <time>2024-09-26T13:29:52.000Z</time>
      </trkpt>
      <trkpt lat="40.8355" lon="20.07409">
        <ele>622.10998535156</ele>
        <time>2024-09-26T13:29:53.000Z</time>
      </trkpt>
      <trkpt lat="40.83553" lon="20.07403">
        <ele>621.15002441406</ele>
        <time>2024-09-26T13:29:54.000Z</time>
      </trkpt>
      <trkpt lat="40.83562" lon="20.07386">
        <ele>619.71002197266</ele>
        <time>2024-09-26T13:29:56.000Z</time>
      </trkpt>
      <trkpt lat="40.83566" lon="20.07378">
        <ele>618.75</ele>
        <time>2024-09-26T13:29:57.000Z</time>
      </trkpt>
      <trkpt lat="40.83567" lon="20.07374">
        <ele>618.26000976562</ele>
        <time>2024-09-26T13:29:58.000Z</time>
      </trkpt>
      <trkpt lat="40.83569" lon="20.07371">
        <ele>617.78002929688</ele>
        <time>2024-09-26T13:29:59.000Z</time>
      </trkpt>
      <trkpt lat="40.83557" lon="20.07356">
        <ele>614.41998291016</ele>
        <time>2024-09-26T13:30:04.000Z</time>
      </trkpt>
      <trkpt lat="40.83547" lon="20.07358">
        <ele>613.46002197266</ele>
        <time>2024-09-26T13:30:07.000Z</time>
      </trkpt>
      <trkpt lat="40.83543" lon="20.07359">
        <ele>612.97998046875</ele>
        <time>2024-09-26T13:30:08.000Z</time>
      </trkpt>
      <trkpt lat="40.83539" lon="20.0736">
        <ele>612.97998046875</ele>
        <time>2024-09-26T13:30:09.000Z</time>
      </trkpt>
      <trkpt lat="40.83529" lon="20.07363">
        <ele>611.53997802734</ele>
        <time>2024-09-26T13:30:10.000Z</time>
      </trkpt>
      <trkpt lat="40.83527" lon="20.07364">
        <ele>611.53997802734</ele>
        <time>2024-09-26T13:30:11.000Z</time>
      </trkpt>
      <trkpt lat="40.8352" lon="20.07366">
        <ele>609.60998535156</ele>
        <time>2024-09-26T13:30:12.000Z</time>
      </trkpt>
      <trkpt lat="40.83517" lon="20.07367">
        <ele>609.13000488281</ele>
        <time>2024-09-26T13:30:13.000Z</time>
      </trkpt>
      <trkpt lat="40.83512" lon="20.0737">
        <ele>608.16998291016</ele>
        <time>2024-09-26T13:30:14.000Z</time>
      </trkpt>
      <trkpt lat="40.83507" lon="20.07373">
        <ele>607.21002197266</ele>
        <time>2024-09-26T13:30:15.000Z</time>
      </trkpt>
      <trkpt lat="40.83503" lon="20.07376">
        <ele>606.25</ele>
        <time>2024-09-26T13:30:16.000Z</time>
      </trkpt>
      <trkpt lat="40.83498" lon="20.07381">
        <ele>605.28997802734</ele>
        <time>2024-09-26T13:30:17.000Z</time>
      </trkpt>
      <trkpt lat="40.83493" lon="20.07385">
        <ele>603.84997558594</ele>
        <time>2024-09-26T13:30:18.000Z</time>
      </trkpt>
      <trkpt lat="40.83489" lon="20.07388">
        <ele>602.88000488281</ele>
        <time>2024-09-26T13:30:19.000Z</time>
      </trkpt>
      <trkpt lat="40.83486" lon="20.0739">
        <ele>602.40002441406</ele>
        <time>2024-09-26T13:30:20.000Z</time>
      </trkpt>
      <trkpt lat="40.83474" lon="20.07375">
        <ele>597.59997558594</ele>
        <time>2024-09-26T13:30:25.000Z</time>
      </trkpt>
      <trkpt lat="40.83477" lon="20.0737">
        <ele>596.64001464844</ele>
        <time>2024-09-26T13:30:26.000Z</time>
      </trkpt>
      <trkpt lat="40.83479" lon="20.07368">
        <ele>596.15002441406</ele>
        <time>2024-09-26T13:30:27.000Z</time>
      </trkpt>
      <trkpt lat="40.83483" lon="20.07365">
        <ele>595.66998291016</ele>
        <time>2024-09-26T13:30:28.000Z</time>
      </trkpt>
      <trkpt lat="40.83486" lon="20.07359">
        <ele>595.19000244141</ele>
        <time>2024-09-26T13:30:29.000Z</time>
      </trkpt>
      <trkpt lat="40.8349" lon="20.07352">
        <ele>594.22998046875</ele>
        <time>2024-09-26T13:30:30.000Z</time>
      </trkpt>
      <trkpt lat="40.83492" lon="20.07345">
        <ele>593.27001953125</ele>
        <time>2024-09-26T13:30:31.000Z</time>
      </trkpt>
      <trkpt lat="40.83497" lon="20.07337">
        <ele>591.83001708984</ele>
        <time>2024-09-26T13:30:32.000Z</time>
      </trkpt>
      <trkpt lat="40.83501" lon="20.07331">
        <ele>590.86999511719</ele>
        <time>2024-09-26T13:30:33.000Z</time>
      </trkpt>
      <trkpt lat="40.83506" lon="20.07325">
        <ele>589.90997314453</ele>
        <time>2024-09-26T13:30:34.000Z</time>
      </trkpt>
      <trkpt lat="40.8351" lon="20.07321">
        <ele>588.46002197266</ele>
        <time>2024-09-26T13:30:35.000Z</time>
      </trkpt>
      <trkpt lat="40.83515" lon="20.07318">
        <ele>587.5</ele>
        <time>2024-09-26T13:30:36.000Z</time>
      </trkpt>
      <trkpt lat="40.8352" lon="20.07314">
        <ele>586.53997802734</ele>
        <time>2024-09-26T13:30:37.000Z</time>
      </trkpt>
      <trkpt lat="40.83523" lon="20.07309">
        <ele>585.58001708984</ele>
        <time>2024-09-26T13:30:38.000Z</time>
      </trkpt>
      <trkpt lat="40.83526" lon="20.07303">
        <ele>584.61999511719</ele>
        <time>2024-09-26T13:30:39.000Z</time>
      </trkpt>
      <trkpt lat="40.83528" lon="20.07296">
        <ele>583.65997314453</ele>
        <time>2024-09-26T13:30:40.000Z</time>
      </trkpt>
      <trkpt lat="40.83531" lon="20.07289">
        <ele>582.70001220703</ele>
        <time>2024-09-26T13:30:41.000Z</time>
      </trkpt>
      <trkpt lat="40.83534" lon="20.07282">
        <ele>581.72998046875</ele>
        <time>2024-09-26T13:30:42.000Z</time>
      </trkpt>
      <trkpt lat="40.83539" lon="20.07276">
        <ele>580.77001953125</ele>
        <time>2024-09-26T13:30:43.000Z</time>
      </trkpt>
      <trkpt lat="40.83543" lon="20.07272">
        <ele>579.80999755859</ele>
        <time>2024-09-26T13:30:44.000Z</time>
      </trkpt>
      <trkpt lat="40.83548" lon="20.07267">
        <ele>578.84997558594</ele>
        <time>2024-09-26T13:30:45.000Z</time>
      </trkpt>
      <trkpt lat="40.83552" lon="20.07264">
        <ele>577.40997314453</ele>
        <time>2024-09-26T13:30:46.000Z</time>
      </trkpt>
      <trkpt lat="40.83557" lon="20.07259">
        <ele>575.96997070312</ele>
        <time>2024-09-26T13:30:47.000Z</time>
      </trkpt>
      <trkpt lat="40.83561" lon="20.07257">
        <ele>575.01000976562</ele>
        <time>2024-09-26T13:30:48.000Z</time>
      </trkpt>
      <trkpt lat="40.83564" lon="20.07255">
        <ele>574.03997802734</ele>
        <time>2024-09-26T13:30:49.000Z</time>
      </trkpt>
      <trkpt lat="40.83571" lon="20.07252">
        <ele>572.59997558594</ele>
        <time>2024-09-26T13:30:50.000Z</time>
      </trkpt>
      <trkpt lat="40.83573" lon="20.07251">
        <ele>572.11999511719</ele>
        <time>2024-09-26T13:30:51.000Z</time>
      </trkpt>
      <trkpt lat="40.83578" lon="20.0725">
        <ele>570.67999267578</ele>
        <time>2024-09-26T13:30:52.000Z</time>
      </trkpt>
      <trkpt lat="40.83582" lon="20.0725">
        <ele>569.71997070312</ele>
        <time>2024-09-26T13:30:53.000Z</time>
      </trkpt>
      <trkpt lat="40.83587" lon="20.07251">
        <ele>568.76000976562</ele>
        <time>2024-09-26T13:30:54.000Z</time>
      </trkpt>
      <trkpt lat="40.83596" lon="20.07253">
        <ele>566.34997558594</ele>
        <time>2024-09-26T13:30:55.000Z</time>
      </trkpt>
      <trkpt lat="40.83598" lon="20.07254">
        <ele>565.86999511719</ele>
        <time>2024-09-26T13:30:56.000Z</time>
      </trkpt>
      <trkpt lat="40.83606" lon="20.07242">
        <ele>563.46997070312</ele>
        <time>2024-09-26T13:31:00.000Z</time>
      </trkpt>
      <trkpt lat="40.83604" lon="20.07235">
        <ele>562.03002929688</ele>
        <time>2024-09-26T13:31:01.000Z</time>
      </trkpt>
      <trkpt lat="40.83603" lon="20.0723">
        <ele>561.07000732422</ele>
        <time>2024-09-26T13:31:02.000Z</time>
      </trkpt>
      <trkpt lat="40.83599" lon="20.07221">
        <ele>559.14001464844</ele>
        <time>2024-09-26T13:31:03.000Z</time>
      </trkpt>
      <trkpt lat="40.83595" lon="20.07216">
        <ele>557.70001220703</ele>
        <time>2024-09-26T13:31:04.000Z</time>
      </trkpt>
      <trkpt lat="40.83589" lon="20.07211">
        <ele>556.73999023438</ele>
        <time>2024-09-26T13:31:05.000Z</time>
      </trkpt>
      <trkpt lat="40.8358" lon="20.07204">
        <ele>554.82000732422</ele>
        <time>2024-09-26T13:31:06.000Z</time>
      </trkpt>
      <trkpt lat="40.83577" lon="20.07201">
        <ele>553.85998535156</ele>
        <time>2024-09-26T13:31:07.000Z</time>
      </trkpt>
      <trkpt lat="40.83571" lon="20.07194">
        <ele>552.90002441406</ele>
        <time>2024-09-26T13:31:08.000Z</time>
      </trkpt>
      <trkpt lat="40.83566" lon="20.07186">
        <ele>551.45001220703</ele>
        <time>2024-09-26T13:31:09.000Z</time>
      </trkpt>
      <trkpt lat="40.83564" lon="20.07175">
        <ele>549.53002929688</ele>
        <time>2024-09-26T13:31:10.000Z</time>
      </trkpt>
      <trkpt lat="40.83563" lon="20.07164">
        <ele>548.09002685547</ele>
        <time>2024-09-26T13:31:11.000Z</time>
      </trkpt>
      <trkpt lat="40.83565" lon="20.07153">
        <ele>546.65002441406</ele>
        <time>2024-09-26T13:31:12.000Z</time>
      </trkpt>
      <trkpt lat="40.83569" lon="20.07138">
        <ele>545.69000244141</ele>
        <time>2024-09-26T13:31:13.000Z</time>
      </trkpt>
      <trkpt lat="40.83578" lon="20.07108">
        <ele>546.16998291016</ele>
        <time>2024-09-26T13:31:15.000Z</time>
      </trkpt>
      <trkpt lat="40.83581" lon="20.07099">
        <ele>546.65002441406</ele>
        <time>2024-09-26T13:31:16.000Z</time>
      </trkpt>
      <trkpt lat="40.83582" lon="20.07094">
        <ele>547.13000488281</ele>
        <time>2024-09-26T13:31:17.000Z</time>
      </trkpt>
      <trkpt lat="40.83584" lon="20.07084">
        <ele>547.13000488281</ele>
        <time>2024-09-26T13:31:18.000Z</time>
      </trkpt>
      <trkpt lat="40.83584" lon="20.07068">
        <ele>545.69000244141</ele>
        <time>2024-09-26T13:31:19.000Z</time>
      </trkpt>
      <trkpt lat="40.83584" lon="20.07063">
        <ele>545.20001220703</ele>
        <time>2024-09-26T13:31:20.000Z</time>
      </trkpt>
      <trkpt lat="40.83584" lon="20.07055">
        <ele>545.20001220703</ele>
        <time>2024-09-26T13:31:21.000Z</time>
      </trkpt>
      <trkpt lat="40.83584" lon="20.07047">
        <ele>544.71997070312</ele>
        <time>2024-09-26T13:31:27.000Z</time>
      </trkpt>
      <trkpt lat="40.83583" lon="20.07033">
        <ele>544.23999023438</ele>
        <time>2024-09-26T13:41:58.000Z</time>
      </trkpt>
      <trkpt lat="40.83585" lon="20.07019">
        <ele>541.84002685547</ele>
        <time>2024-09-26T13:42:08.000Z</time>
      </trkpt>
      <trkpt lat="40.83585" lon="20.07019">
        <ele>541.35998535156</ele>
        <time>2024-09-26T13:42:35.000Z</time>
      </trkpt>
      <trkpt lat="40.83646" lon="20.06886">
        <ele>513.47998046875</ele>
        <time>2024-09-26T15:46:14.000Z</time>
      </trkpt>
      <trkpt lat="40.83648" lon="20.06879">
        <ele>513</ele>
        <time>2024-09-26T15:46:15.000Z</time>
      </trkpt>
      <trkpt lat="40.83649" lon="20.06872">
        <ele>512.03997802734</ele>
        <time>2024-09-26T15:46:16.000Z</time>
      </trkpt>
      <trkpt lat="40.8365" lon="20.06865">
        <ele>511.07998657227</ele>
        <time>2024-09-26T15:46:17.000Z</time>
      </trkpt>
      <trkpt lat="40.8365" lon="20.06857">
        <ele>510.60000610352</ele>
        <time>2024-09-26T15:46:18.000Z</time>
      </trkpt>
      <trkpt lat="40.8365" lon="20.06848">
        <ele>509.64001464844</ele>
        <time>2024-09-26T15:46:19.000Z</time>
      </trkpt>
      <trkpt lat="40.83651" lon="20.06842">
        <ele>509.16000366211</ele>
        <time>2024-09-26T15:46:20.000Z</time>
      </trkpt>
      <trkpt lat="40.83651" lon="20.06834">
        <ele>508.19000244141</ele>
        <time>2024-09-26T15:46:21.000Z</time>
      </trkpt>
      <trkpt lat="40.83653" lon="20.06826">
        <ele>507.70999145508</ele>
        <time>2024-09-26T15:46:22.000Z</time>
      </trkpt>
      <trkpt lat="40.83655" lon="20.06819">
        <ele>506.75</ele>
        <time>2024-09-26T15:46:23.000Z</time>
      </trkpt>
      <trkpt lat="40.83658" lon="20.06813">
        <ele>506.75</ele>
        <time>2024-09-26T15:46:24.000Z</time>
      </trkpt>
      <trkpt lat="40.83661" lon="20.06807">
        <ele>506.26998901367</ele>
        <time>2024-09-26T15:46:25.000Z</time>
      </trkpt>
      <trkpt lat="40.83664" lon="20.06801">
        <ele>505.30999755859</ele>
        <time>2024-09-26T15:46:26.000Z</time>
      </trkpt>
      <trkpt lat="40.83667" lon="20.06793">
        <ele>504.82998657227</ele>
        <time>2024-09-26T15:46:27.000Z</time>
      </trkpt>
      <trkpt lat="40.8367" lon="20.06782">
        <ele>503.39001464844</ele>
        <time>2024-09-26T15:46:28.000Z</time>
      </trkpt>
      <trkpt lat="40.8367" lon="20.06776">
        <ele>502.91000366211</ele>
        <time>2024-09-26T15:46:29.000Z</time>
      </trkpt>
      <trkpt lat="40.83672" lon="20.06764">
        <ele>501.95001220703</ele>
        <time>2024-09-26T15:46:30.000Z</time>
      </trkpt>
      <trkpt lat="40.83673" lon="20.06757">
        <ele>501.45999145508</ele>
        <time>2024-09-26T15:46:31.000Z</time>
      </trkpt>
      <trkpt lat="40.83675" lon="20.06749">
        <ele>500.98001098633</ele>
        <time>2024-09-26T15:46:32.000Z</time>
      </trkpt>
      <trkpt lat="40.83676" lon="20.06741">
        <ele>500.5</ele>
        <time>2024-09-26T15:46:33.000Z</time>
      </trkpt>
      <trkpt lat="40.83678" lon="20.06733">
        <ele>500.01998901367</ele>
        <time>2024-09-26T15:46:34.000Z</time>
      </trkpt>
      <trkpt lat="40.83679" lon="20.06727">
        <ele>499.54000854492</ele>
        <time>2024-09-26T15:46:35.000Z</time>
      </trkpt>
      <trkpt lat="40.83681" lon="20.0672">
        <ele>498.57998657227</ele>
        <time>2024-09-26T15:46:36.000Z</time>
      </trkpt>
      <trkpt lat="40.83683" lon="20.06711">
        <ele>497.61999511719</ele>
        <time>2024-09-26T15:46:37.000Z</time>
      </trkpt>
      <trkpt lat="40.83684" lon="20.06706">
        <ele>496.66000366211</ele>
        <time>2024-09-26T15:46:38.000Z</time>
      </trkpt>
      <trkpt lat="40.83686" lon="20.067">
        <ele>496.17999267578</ele>
        <time>2024-09-26T15:46:39.000Z</time>
      </trkpt>
      <trkpt lat="40.83687" lon="20.06695">
        <ele>495.70001220703</ele>
        <time>2024-09-26T15:46:40.000Z</time>
      </trkpt>
      <trkpt lat="40.83698" lon="20.06676">
        <ele>492.80999755859</ele>
        <time>2024-09-26T15:46:46.000Z</time>
      </trkpt>
      <trkpt lat="40.83711" lon="20.06674">
        <ele>490.89001464844</ele>
        <time>2024-09-26T15:46:50.000Z</time>
      </trkpt>
      <trkpt lat="40.83714" lon="20.06673">
        <ele>490.41000366211</ele>
        <time>2024-09-26T15:46:51.000Z</time>
      </trkpt>
      <trkpt lat="40.83718" lon="20.06671">
        <ele>489.45001220703</ele>
        <time>2024-09-26T15:46:52.000Z</time>
      </trkpt>
      <trkpt lat="40.83722" lon="20.06669">
        <ele>488.9700012207</ele>
        <time>2024-09-26T15:46:53.000Z</time>
      </trkpt>
      <trkpt lat="40.83726" lon="20.06666">
        <ele>488.48999023438</ele>
        <time>2024-09-26T15:46:54.000Z</time>
      </trkpt>
      <trkpt lat="40.8373" lon="20.06664">
        <ele>488.01000976562</ele>
        <time>2024-09-26T15:46:55.000Z</time>
      </trkpt>
      <trkpt lat="40.83734" lon="20.06661">
        <ele>487.5299987793</ele>
        <time>2024-09-26T15:46:56.000Z</time>
      </trkpt>
      <trkpt lat="40.83738" lon="20.06658">
        <ele>487.5299987793</ele>
        <time>2024-09-26T15:46:57.000Z</time>
      </trkpt>
      <trkpt lat="40.83741" lon="20.06655">
        <ele>487.5299987793</ele>
        <time>2024-09-26T15:46:58.000Z</time>
      </trkpt>
      <trkpt lat="40.83745" lon="20.06651">
        <ele>487.04998779297</ele>
        <time>2024-09-26T15:46:59.000Z</time>
      </trkpt>
      <trkpt lat="40.83748" lon="20.06644">
        <ele>486.55999755859</ele>
        <time>2024-09-26T15:47:00.000Z</time>
      </trkpt>
      <trkpt lat="40.83751" lon="20.0664">
        <ele>486.55999755859</ele>
        <time>2024-09-26T15:47:01.000Z</time>
      </trkpt>
      <trkpt lat="40.83753" lon="20.06635">
        <ele>486.07998657227</ele>
        <time>2024-09-26T15:47:02.000Z</time>
      </trkpt>
      <trkpt lat="40.83756" lon="20.06629">
        <ele>485.60000610352</ele>
        <time>2024-09-26T15:47:03.000Z</time>
      </trkpt>
      <trkpt lat="40.83758" lon="20.0662">
        <ele>485.11999511719</ele>
        <time>2024-09-26T15:47:04.000Z</time>
      </trkpt>
      <trkpt lat="40.8376" lon="20.06614">
        <ele>485.11999511719</ele>
        <time>2024-09-26T15:47:05.000Z</time>
      </trkpt>
      <trkpt lat="40.83762" lon="20.0661">
        <ele>485.60000610352</ele>
        <time>2024-09-26T15:47:06.000Z</time>
      </trkpt>
      <trkpt lat="40.83764" lon="20.06601">
        <ele>485.60000610352</ele>
        <time>2024-09-26T15:47:07.000Z</time>
      </trkpt>
      <trkpt lat="40.83765" lon="20.06598">
        <ele>485.60000610352</ele>
        <time>2024-09-26T15:47:08.000Z</time>
      </trkpt>
      <trkpt lat="40.83765" lon="20.06592">
        <ele>485.60000610352</ele>
        <time>2024-09-26T15:47:09.000Z</time>
      </trkpt>
      <trkpt lat="40.83764" lon="20.06586">
        <ele>485.11999511719</ele>
        <time>2024-09-26T15:47:10.000Z</time>
      </trkpt>
      <trkpt lat="40.83762" lon="20.06579">
        <ele>484.64001464844</ele>
        <time>2024-09-26T15:47:11.000Z</time>
      </trkpt>
      <trkpt lat="40.8376" lon="20.06573">
        <ele>484.16000366211</ele>
        <time>2024-09-26T15:47:12.000Z</time>
      </trkpt>
      <trkpt lat="40.83757" lon="20.06567">
        <ele>483.67999267578</ele>
        <time>2024-09-26T15:47:13.000Z</time>
      </trkpt>
      <trkpt lat="40.83751" lon="20.06557">
        <ele>483.20001220703</ele>
        <time>2024-09-26T15:47:14.000Z</time>
      </trkpt>
      <trkpt lat="40.83749" lon="20.06555">
        <ele>483.20001220703</ele>
        <time>2024-09-26T15:47:15.000Z</time>
      </trkpt>
      <trkpt lat="40.83746" lon="20.06549">
        <ele>481.76000976562</ele>
        <time>2024-09-26T15:47:16.000Z</time>
      </trkpt>
      <trkpt lat="40.83743" lon="20.06542">
        <ele>481.2799987793</ele>
        <time>2024-09-26T15:47:17.000Z</time>
      </trkpt>
      <trkpt lat="40.83741" lon="20.06534">
        <ele>479.83999633789</ele>
        <time>2024-09-26T15:47:18.000Z</time>
      </trkpt>
      <trkpt lat="40.83739" lon="20.06526">
        <ele>478.86999511719</ele>
        <time>2024-09-26T15:47:19.000Z</time>
      </trkpt>
      <trkpt lat="40.83738" lon="20.06517">
        <ele>477.42999267578</ele>
        <time>2024-09-26T15:47:20.000Z</time>
      </trkpt>
      <trkpt lat="40.83738" lon="20.06504">
        <ele>475.51000976562</ele>
        <time>2024-09-26T15:47:21.000Z</time>
      </trkpt>
      <trkpt lat="40.83739" lon="20.06498">
        <ele>475.0299987793</ele>
        <time>2024-09-26T15:47:22.000Z</time>
      </trkpt>
      <trkpt lat="40.8374" lon="20.06487">
        <ele>474.54998779297</ele>
        <time>2024-09-26T15:47:23.000Z</time>
      </trkpt>
      <trkpt lat="40.8374" lon="20.06482">
        <ele>474.07000732422</ele>
        <time>2024-09-26T15:47:24.000Z</time>
      </trkpt>
      <trkpt lat="40.83742" lon="20.06475">
        <ele>473.10998535156</ele>
        <time>2024-09-26T15:47:25.000Z</time>
      </trkpt>
      <trkpt lat="40.83745" lon="20.06468">
        <ele>472.14001464844</ele>
        <time>2024-09-26T15:47:26.000Z</time>
      </trkpt>
      <trkpt lat="40.83751" lon="20.06456">
        <ele>471.17999267578</ele>
        <time>2024-09-26T15:47:27.000Z</time>
      </trkpt>
      <trkpt lat="40.83753" lon="20.06452">
        <ele>470.70001220703</ele>
        <time>2024-09-26T15:47:28.000Z</time>
      </trkpt>
      <trkpt lat="40.83755" lon="20.06446">
        <ele>470.2200012207</ele>
        <time>2024-09-26T15:47:29.000Z</time>
      </trkpt>
      <trkpt lat="40.83758" lon="20.06438">
        <ele>469.73999023438</ele>
        <time>2024-09-26T15:47:30.000Z</time>
      </trkpt>
      <trkpt lat="40.8376" lon="20.06431">
        <ele>468.7799987793</ele>
        <time>2024-09-26T15:47:31.000Z</time>
      </trkpt>
      <trkpt lat="40.83764" lon="20.06422">
        <ele>467.33999633789</ele>
        <time>2024-09-26T15:47:32.000Z</time>
      </trkpt>
      <trkpt lat="40.83766" lon="20.06416">
        <ele>466.85998535156</ele>
        <time>2024-09-26T15:47:33.000Z</time>
      </trkpt>
      <trkpt lat="40.83769" lon="20.06409">
        <ele>465.89999389648</ele>
        <time>2024-09-26T15:47:34.000Z</time>
      </trkpt>
      <trkpt lat="40.83774" lon="20.06401">
        <ele>465.42001342773</ele>
        <time>2024-09-26T15:47:35.000Z</time>
      </trkpt>
      <trkpt lat="40.83778" lon="20.06396">
        <ele>464.92999267578</ele>
        <time>2024-09-26T15:47:36.000Z</time>
      </trkpt>
      <trkpt lat="40.83783" lon="20.06392">
        <ele>464.45001220703</ele>
        <time>2024-09-26T15:47:37.000Z</time>
      </trkpt>
      <trkpt lat="40.83789" lon="20.06388">
        <ele>463.48999023438</ele>
        <time>2024-09-26T15:47:38.000Z</time>
      </trkpt>
      <trkpt lat="40.83795" lon="20.06385">
        <ele>463.01000976562</ele>
        <time>2024-09-26T15:47:39.000Z</time>
      </trkpt>
      <trkpt lat="40.83801" lon="20.06382">
        <ele>462.04998779297</ele>
        <time>2024-09-26T15:47:40.000Z</time>
      </trkpt>
      <trkpt lat="40.83811" lon="20.06379">
        <ele>460.13000488281</ele>
        <time>2024-09-26T15:47:41.000Z</time>
      </trkpt>
      <trkpt lat="40.83814" lon="20.06377">
        <ele>459.64999389648</ele>
        <time>2024-09-26T15:47:42.000Z</time>
      </trkpt>
      <trkpt lat="40.83818" lon="20.06375">
        <ele>459.64999389648</ele>
        <time>2024-09-26T15:47:43.000Z</time>
      </trkpt>
      <trkpt lat="40.83824" lon="20.06371">
        <ele>458.69000244141</ele>
        <time>2024-09-26T15:47:44.000Z</time>
      </trkpt>
      <trkpt lat="40.83829" lon="20.06365">
        <ele>457.7200012207</ele>
        <time>2024-09-26T15:47:45.000Z</time>
      </trkpt>
      <trkpt lat="40.83833" lon="20.06358">
        <ele>457.23999023438</ele>
        <time>2024-09-26T15:47:46.000Z</time>
      </trkpt>
      <trkpt lat="40.83836" lon="20.0635">
        <ele>455.79998779297</ele>
        <time>2024-09-26T15:47:47.000Z</time>
      </trkpt>
      <trkpt lat="40.83838" lon="20.06337">
        <ele>455.32000732422</ele>
        <time>2024-09-26T15:47:48.000Z</time>
      </trkpt>
      <trkpt lat="40.83839" lon="20.06332">
        <ele>454.83999633789</ele>
        <time>2024-09-26T15:47:49.000Z</time>
      </trkpt>
      <trkpt lat="40.83841" lon="20.06322">
        <ele>454.35998535156</ele>
        <time>2024-09-26T15:47:50.000Z</time>
      </trkpt>
      <trkpt lat="40.83845" lon="20.06312">
        <ele>454.35998535156</ele>
        <time>2024-09-26T15:47:51.000Z</time>
      </trkpt>
      <trkpt lat="40.83848" lon="20.06306">
        <ele>453.88000488281</ele>
        <time>2024-09-26T15:47:52.000Z</time>
      </trkpt>
      <trkpt lat="40.83854" lon="20.06299">
        <ele>453.39999389648</ele>
        <time>2024-09-26T15:47:53.000Z</time>
      </trkpt>
      <trkpt lat="40.83863" lon="20.0629">
        <ele>452.92001342773</ele>
        <time>2024-09-26T15:47:54.000Z</time>
      </trkpt>
      <trkpt lat="40.83865" lon="20.06288">
        <ele>452.44000244141</ele>
        <time>2024-09-26T15:47:55.000Z</time>
      </trkpt>
      <trkpt lat="40.83869" lon="20.06281">
        <ele>452.44000244141</ele>
        <time>2024-09-26T15:47:56.000Z</time>
      </trkpt>
      <trkpt lat="40.83872" lon="20.06275">
        <ele>451.95999145508</ele>
        <time>2024-09-26T15:47:57.000Z</time>
      </trkpt>
      <trkpt lat="40.83873" lon="20.06267">
        <ele>451</ele>
        <time>2024-09-26T15:47:58.000Z</time>
      </trkpt>
      <trkpt lat="40.83872" lon="20.06259">
        <ele>450.51998901367</ele>
        <time>2024-09-26T15:47:59.000Z</time>
      </trkpt>
      <trkpt lat="40.8387" lon="20.06251">
        <ele>449.07000732422</ele>
        <time>2024-09-26T15:48:00.000Z</time>
      </trkpt>
      <trkpt lat="40.83866" lon="20.06243">
        <ele>448.58999633789</ele>
        <time>2024-09-26T15:48:01.000Z</time>
      </trkpt>
      <trkpt lat="40.83861" lon="20.06235">
        <ele>447.63000488281</ele>
        <time>2024-09-26T15:48:02.000Z</time>
      </trkpt>
      <trkpt lat="40.83857" lon="20.06227">
        <ele>447.14999389648</ele>
        <time>2024-09-26T15:48:03.000Z</time>
      </trkpt>
      <trkpt lat="40.83854" lon="20.06219">
        <ele>446.19000244141</ele>
        <time>2024-09-26T15:48:04.000Z</time>
      </trkpt>
      <trkpt lat="40.83852" lon="20.0621">
        <ele>444.75</ele>
        <time>2024-09-26T15:48:05.000Z</time>
      </trkpt>
      <trkpt lat="40.83852" lon="20.062">
        <ele>443.30999755859</ele>
        <time>2024-09-26T15:48:06.000Z</time>
      </trkpt>
      <trkpt lat="40.83851" lon="20.06176">
        <ele>440.42001342773</ele>
        <time>2024-09-26T15:48:08.000Z</time>
      </trkpt>
      <trkpt lat="40.83851" lon="20.06167">
        <ele>439.45999145508</ele>
        <time>2024-09-26T15:48:09.000Z</time>
      </trkpt>
      <trkpt lat="40.83853" lon="20.06157">
        <ele>438.98001098633</ele>
        <time>2024-09-26T15:48:10.000Z</time>
      </trkpt>
      <trkpt lat="40.83856" lon="20.06145">
        <ele>438.5</ele>
        <time>2024-09-26T15:48:11.000Z</time>
      </trkpt>
      <trkpt lat="40.83858" lon="20.06137">
        <ele>438.98001098633</ele>
        <time>2024-09-26T15:48:12.000Z</time>
      </trkpt>
      <trkpt lat="40.83859" lon="20.06128">
        <ele>438.5</ele>
        <time>2024-09-26T15:48:13.000Z</time>
      </trkpt>
      <trkpt lat="40.83857" lon="20.06119">
        <ele>438.01998901367</ele>
        <time>2024-09-26T15:48:14.000Z</time>
      </trkpt>
      <trkpt lat="40.83855" lon="20.06108">
        <ele>437.05999755859</ele>
        <time>2024-09-26T15:48:15.000Z</time>
      </trkpt>
      <trkpt lat="40.83852" lon="20.061">
        <ele>436.10000610352</ele>
        <time>2024-09-26T15:48:16.000Z</time>
      </trkpt>
      <trkpt lat="40.83849" lon="20.06094">
        <ele>435.60998535156</ele>
        <time>2024-09-26T15:48:17.000Z</time>
      </trkpt>
      <trkpt lat="40.83836" lon="20.06071">
        <ele>433.20999145508</ele>
        <time>2024-09-26T15:48:20.000Z</time>
      </trkpt>
      <trkpt lat="40.83831" lon="20.06062">
        <ele>431.76998901367</ele>
        <time>2024-09-26T15:48:21.000Z</time>
      </trkpt>
      <trkpt lat="40.83828" lon="20.06057">
        <ele>430.80999755859</ele>
        <time>2024-09-26T15:48:22.000Z</time>
      </trkpt>
      <trkpt lat="40.83825" lon="20.06048">
        <ele>429.85000610352</ele>
        <time>2024-09-26T15:48:23.000Z</time>
      </trkpt>
      <trkpt lat="40.8382" lon="20.06031">
        <ele>426.95999145508</ele>
        <time>2024-09-26T15:48:24.000Z</time>
      </trkpt>
      <trkpt lat="40.83819" lon="20.06028">
        <ele>426.48001098633</ele>
        <time>2024-09-26T15:48:25.000Z</time>
      </trkpt>
      <trkpt lat="40.83817" lon="20.06018">
        <ele>424.55999755859</ele>
        <time>2024-09-26T15:48:26.000Z</time>
      </trkpt>
      <trkpt lat="40.83816" lon="20.06007">
        <ele>422.64001464844</ele>
        <time>2024-09-26T15:48:27.000Z</time>
      </trkpt>
      <trkpt lat="40.83816" lon="20.05996">
        <ele>421.19000244141</ele>
        <time>2024-09-26T15:48:28.000Z</time>
      </trkpt>
      <trkpt lat="40.83816" lon="20.05984">
        <ele>419.26998901367</ele>
        <time>2024-09-26T15:48:29.000Z</time>
      </trkpt>
      <trkpt lat="40.83818" lon="20.05976">
        <ele>418.30999755859</ele>
        <time>2024-09-26T15:48:30.000Z</time>
      </trkpt>
      <trkpt lat="40.83821" lon="20.05967">
        <ele>417.35000610352</ele>
        <time>2024-09-26T15:48:31.000Z</time>
      </trkpt>
      <trkpt lat="40.83826" lon="20.05952">
        <ele>415.42999267578</ele>
        <time>2024-09-26T15:48:32.000Z</time>
      </trkpt>
      <trkpt lat="40.83828" lon="20.05947">
        <ele>415.42999267578</ele>
        <time>2024-09-26T15:48:33.000Z</time>
      </trkpt>
      <trkpt lat="40.8383" lon="20.05938">
        <ele>414.4700012207</ele>
        <time>2024-09-26T15:48:34.000Z</time>
      </trkpt>
      <trkpt lat="40.83831" lon="20.05929">
        <ele>413.98001098633</ele>
        <time>2024-09-26T15:48:35.000Z</time>
      </trkpt>
      <trkpt lat="40.83831" lon="20.0592">
        <ele>413.5</ele>
        <time>2024-09-26T15:48:36.000Z</time>
      </trkpt>
      <trkpt lat="40.83829" lon="20.05908">
        <ele>413.01998901367</ele>
        <time>2024-09-26T15:48:37.000Z</time>
      </trkpt>
      <trkpt lat="40.83828" lon="20.05903">
        <ele>412.54000854492</ele>
        <time>2024-09-26T15:48:38.000Z</time>
      </trkpt>
      <trkpt lat="40.83827" lon="20.05893">
        <ele>412.05999755859</ele>
        <time>2024-09-26T15:48:39.000Z</time>
      </trkpt>
      <trkpt lat="40.83827" lon="20.05884">
        <ele>412.05999755859</ele>
        <time>2024-09-26T15:48:40.000Z</time>
      </trkpt>
      <trkpt lat="40.83829" lon="20.05874">
        <ele>412.05999755859</ele>
        <time>2024-09-26T15:48:41.000Z</time>
      </trkpt>
      <trkpt lat="40.83831" lon="20.05866">
        <ele>412.05999755859</ele>
        <time>2024-09-26T15:48:42.000Z</time>
      </trkpt>
      <trkpt lat="40.83834" lon="20.05856">
        <ele>411.57998657227</ele>
        <time>2024-09-26T15:48:43.000Z</time>
      </trkpt>
      <trkpt lat="40.83838" lon="20.05846">
        <ele>411.10000610352</ele>
        <time>2024-09-26T15:48:44.000Z</time>
      </trkpt>
      <trkpt lat="40.8384" lon="20.05838">
        <ele>410.61999511719</ele>
        <time>2024-09-26T15:48:45.000Z</time>
      </trkpt>
      <trkpt lat="40.83842" lon="20.0583">
        <ele>410.61999511719</ele>
        <time>2024-09-26T15:48:46.000Z</time>
      </trkpt>
      <trkpt lat="40.83842" lon="20.0582">
        <ele>410.14001464844</ele>
        <time>2024-09-26T15:48:47.000Z</time>
      </trkpt>
      <trkpt lat="40.8384" lon="20.05812">
        <ele>410.14001464844</ele>
        <time>2024-09-26T15:48:48.000Z</time>
      </trkpt>
      <trkpt lat="40.83837" lon="20.05801">
        <ele>410.14001464844</ele>
        <time>2024-09-26T15:48:49.000Z</time>
      </trkpt>
      <trkpt lat="40.83834" lon="20.05794">
        <ele>410.14001464844</ele>
        <time>2024-09-26T15:48:50.000Z</time>
      </trkpt>
      <trkpt lat="40.83816" lon="20.05755">
        <ele>411.10000610352</ele>
        <time>2024-09-26T15:48:54.000Z</time>
      </trkpt>
      <trkpt lat="40.83816" lon="20.05754">
        <ele>411.10000610352</ele>
        <time>2024-09-26T15:48:55.000Z</time>
      </trkpt>
      <trkpt lat="40.83811" lon="20.05745">
        <ele>411.57998657227</ele>
        <time>2024-09-26T15:48:56.000Z</time>
      </trkpt>
      <trkpt lat="40.83805" lon="20.05732">
        <ele>412.05999755859</ele>
        <time>2024-09-26T15:48:57.000Z</time>
      </trkpt>
      <trkpt lat="40.83804" lon="20.05731">
        <ele>412.05999755859</ele>
        <time>2024-09-26T15:48:58.000Z</time>
      </trkpt>
      <trkpt lat="40.83793" lon="20.05711">
        <ele>412.54000854492</ele>
        <time>2024-09-26T15:49:00.000Z</time>
      </trkpt>
      <trkpt lat="40.83779" lon="20.05685">
        <ele>414.4700012207</ele>
        <time>2024-09-26T15:49:03.000Z</time>
      </trkpt>
      <trkpt lat="40.83777" lon="20.05682">
        <ele>414.4700012207</ele>
        <time>2024-09-26T15:49:04.000Z</time>
      </trkpt>
      <trkpt lat="40.83772" lon="20.05675">
        <ele>414.95001220703</ele>
        <time>2024-09-26T15:49:05.000Z</time>
      </trkpt>
      <trkpt lat="40.83765" lon="20.05667">
        <ele>415.42999267578</ele>
        <time>2024-09-26T15:49:06.000Z</time>
      </trkpt>
      <trkpt lat="40.83758" lon="20.05656">
        <ele>415.91000366211</ele>
        <time>2024-09-26T15:49:07.000Z</time>
      </trkpt>
      <trkpt lat="40.83746" lon="20.05632">
        <ele>416.86999511719</ele>
        <time>2024-09-26T15:49:10.000Z</time>
      </trkpt>
      <trkpt lat="40.83741" lon="20.05625">
        <ele>416.86999511719</ele>
        <time>2024-09-26T15:49:11.000Z</time>
      </trkpt>
      <trkpt lat="40.83736" lon="20.05619">
        <ele>416.86999511719</ele>
        <time>2024-09-26T15:49:12.000Z</time>
      </trkpt>
      <trkpt lat="40.83731" lon="20.05612">
        <ele>416.86999511719</ele>
        <time>2024-09-26T15:49:13.000Z</time>
      </trkpt>
      <trkpt lat="40.83719" lon="20.05601">
        <ele>416.39001464844</ele>
        <time>2024-09-26T15:49:15.000Z</time>
      </trkpt>
      <trkpt lat="40.83713" lon="20.05596">
        <ele>416.39001464844</ele>
        <time>2024-09-26T15:49:16.000Z</time>
      </trkpt>
      <trkpt lat="40.837" lon="20.05587">
        <ele>416.86999511719</ele>
        <time>2024-09-26T15:49:18.000Z</time>
      </trkpt>
      <trkpt lat="40.83693" lon="20.05582">
        <ele>416.86999511719</ele>
        <time>2024-09-26T15:49:19.000Z</time>
      </trkpt>
      <trkpt lat="40.83643" lon="20.05527">
        <ele>414.95001220703</ele>
        <time>2024-09-26T15:49:26.000Z</time>
      </trkpt>
      <trkpt lat="40.83639" lon="20.05523">
        <ele>414.95001220703</ele>
        <time>2024-09-26T15:49:27.000Z</time>
      </trkpt>
      <trkpt lat="40.83609" lon="20.05494">
        <ele>413.5</ele>
        <time>2024-09-26T15:49:31.000Z</time>
      </trkpt>
      <trkpt lat="40.83604" lon="20.0549">
        <ele>413.5</ele>
        <time>2024-09-26T15:49:32.000Z</time>
      </trkpt>
      <trkpt lat="40.83592" lon="20.05482">
        <ele>413.5</ele>
        <time>2024-09-26T15:49:34.000Z</time>
      </trkpt>
      <trkpt lat="40.83586" lon="20.05478">
        <ele>413.01998901367</ele>
        <time>2024-09-26T15:49:35.000Z</time>
      </trkpt>
      <trkpt lat="40.83583" lon="20.05476">
        <ele>413.01998901367</ele>
        <time>2024-09-26T15:49:36.000Z</time>
      </trkpt>
      <trkpt lat="40.83563" lon="20.05467">
        <ele>412.05999755859</ele>
        <time>2024-09-26T15:49:38.000Z</time>
      </trkpt>
      <trkpt lat="40.8356" lon="20.05466">
        <ele>412.05999755859</ele>
        <time>2024-09-26T15:49:39.000Z</time>
      </trkpt>
      <trkpt lat="40.83554" lon="20.05462">
        <ele>411.57998657227</ele>
        <time>2024-09-26T15:49:40.000Z</time>
      </trkpt>
      <trkpt lat="40.83548" lon="20.05458">
        <ele>410.61999511719</ele>
        <time>2024-09-26T15:49:41.000Z</time>
      </trkpt>
      <trkpt lat="40.83543" lon="20.05453">
        <ele>409.66000366211</ele>
        <time>2024-09-26T15:49:42.000Z</time>
      </trkpt>
      <trkpt lat="40.83528" lon="20.05437">
        <ele>407.73999023438</ele>
        <time>2024-09-26T15:49:44.000Z</time>
      </trkpt>
      <trkpt lat="40.83511" lon="20.0542">
        <ele>406.29000854492</ele>
        <time>2024-09-26T15:49:47.000Z</time>
      </trkpt>
      <trkpt lat="40.83508" lon="20.05416">
        <ele>406.29000854492</ele>
        <time>2024-09-26T15:49:48.000Z</time>
      </trkpt>
      <trkpt lat="40.83504" lon="20.05411">
        <ele>405.80999755859</ele>
        <time>2024-09-26T15:49:49.000Z</time>
      </trkpt>
      <trkpt lat="40.83502" lon="20.05405">
        <ele>405.32998657227</ele>
        <time>2024-09-26T15:49:50.000Z</time>
      </trkpt>
      <trkpt lat="40.835" lon="20.05398">
        <ele>404.85000610352</ele>
        <time>2024-09-26T15:49:51.000Z</time>
      </trkpt>
      <trkpt lat="40.835" lon="20.05376">
        <ele>401.48999023438</ele>
        <time>2024-09-26T15:49:53.000Z</time>
      </trkpt>
      <trkpt lat="40.83501" lon="20.05361">
        <ele>399.07998657227</ele>
        <time>2024-09-26T15:49:55.000Z</time>
      </trkpt>
      <trkpt lat="40.83501" lon="20.05354">
        <ele>398.11999511719</ele>
        <time>2024-09-26T15:49:56.000Z</time>
      </trkpt>
      <trkpt lat="40.83499" lon="20.05345">
        <ele>396.67999267578</ele>
        <time>2024-09-26T15:49:57.000Z</time>
      </trkpt>
      <trkpt lat="40.83497" lon="20.05336">
        <ele>395.23999023438</ele>
        <time>2024-09-26T15:49:58.000Z</time>
      </trkpt>
      <trkpt lat="40.83493" lon="20.05322">
        <ele>392.83999633789</ele>
        <time>2024-09-26T15:49:59.000Z</time>
      </trkpt>
      <trkpt lat="40.83491" lon="20.05316">
        <ele>391.86999511719</ele>
        <time>2024-09-26T15:50:00.000Z</time>
      </trkpt>
      <trkpt lat="40.83489" lon="20.05308">
        <ele>390.91000366211</ele>
        <time>2024-09-26T15:50:01.000Z</time>
      </trkpt>
      <trkpt lat="40.83487" lon="20.05299">
        <ele>389.95001220703</ele>
        <time>2024-09-26T15:50:02.000Z</time>
      </trkpt>
      <trkpt lat="40.83482" lon="20.05288">
        <ele>388.51000976562</ele>
        <time>2024-09-26T15:50:03.000Z</time>
      </trkpt>
      <trkpt lat="40.83477" lon="20.05276">
        <ele>387.07000732422</ele>
        <time>2024-09-26T15:50:04.000Z</time>
      </trkpt>
      <trkpt lat="40.83475" lon="20.05272">
        <ele>386.58999633789</ele>
        <time>2024-09-26T15:50:05.000Z</time>
      </trkpt>
      <trkpt lat="40.83472" lon="20.05264">
        <ele>386.10998535156</ele>
        <time>2024-09-26T15:50:06.000Z</time>
      </trkpt>
      <trkpt lat="40.83467" lon="20.05254">
        <ele>385.14999389648</ele>
        <time>2024-09-26T15:50:07.000Z</time>
      </trkpt>
      <trkpt lat="40.83461" lon="20.05247">
        <ele>384.66000366211</ele>
        <time>2024-09-26T15:50:08.000Z</time>
      </trkpt>
      <trkpt lat="40.83448" lon="20.05236">
        <ele>383.70001220703</ele>
        <time>2024-09-26T15:50:09.000Z</time>
      </trkpt>
      <trkpt lat="40.83444" lon="20.05232">
        <ele>383.2200012207</ele>
        <time>2024-09-26T15:50:10.000Z</time>
      </trkpt>
      <trkpt lat="40.83439" lon="20.05229">
        <ele>383.2200012207</ele>
        <time>2024-09-26T15:50:11.000Z</time>
      </trkpt>
      <trkpt lat="40.83429" lon="20.05221">
        <ele>382.73999023438</ele>
        <time>2024-09-26T15:50:12.000Z</time>
      </trkpt>
      <trkpt lat="40.83424" lon="20.05217">
        <ele>382.73999023438</ele>
        <time>2024-09-26T15:50:13.000Z</time>
      </trkpt>
      <trkpt lat="40.83418" lon="20.05211">
        <ele>383.2200012207</ele>
        <time>2024-09-26T15:50:14.000Z</time>
      </trkpt>
      <trkpt lat="40.83414" lon="20.05203">
        <ele>383.2200012207</ele>
        <time>2024-09-26T15:50:15.000Z</time>
      </trkpt>
      <trkpt lat="40.83412" lon="20.05194">
        <ele>383.70001220703</ele>
        <time>2024-09-26T15:50:16.000Z</time>
      </trkpt>
      <trkpt lat="40.8341" lon="20.05182">
        <ele>382.73999023438</ele>
        <time>2024-09-26T15:50:17.000Z</time>
      </trkpt>
      <trkpt lat="40.83408" lon="20.05169">
        <ele>381.7799987793</ele>
        <time>2024-09-26T15:50:18.000Z</time>
      </trkpt>
      <trkpt lat="40.83406" lon="20.0516">
        <ele>380.82000732422</ele>
        <time>2024-09-26T15:50:19.000Z</time>
      </trkpt>
      <trkpt lat="40.83403" lon="20.05152">
        <ele>379.85998535156</ele>
        <time>2024-09-26T15:50:20.000Z</time>
      </trkpt>
      <trkpt lat="40.83399" lon="20.05145">
        <ele>378.42001342773</ele>
        <time>2024-09-26T15:50:21.000Z</time>
      </trkpt>
      <trkpt lat="40.83394" lon="20.05137">
        <ele>376.9700012207</ele>
        <time>2024-09-26T15:50:22.000Z</time>
      </trkpt>
      <trkpt lat="40.8339" lon="20.05129">
        <ele>376.01000976562</ele>
        <time>2024-09-26T15:50:23.000Z</time>
      </trkpt>
      <trkpt lat="40.83387" lon="20.0512">
        <ele>375.04998779297</ele>
        <time>2024-09-26T15:50:24.000Z</time>
      </trkpt>
      <trkpt lat="40.83381" lon="20.05095">
        <ele>374.57000732422</ele>
        <time>2024-09-26T15:50:26.000Z</time>
      </trkpt>
      <trkpt lat="40.8338" lon="20.05088">
        <ele>374.57000732422</ele>
        <time>2024-09-26T15:50:27.000Z</time>
      </trkpt>
      <trkpt lat="40.83379" lon="20.05077">
        <ele>374.57000732422</ele>
        <time>2024-09-26T15:50:28.000Z</time>
      </trkpt>
      <trkpt lat="40.8338" lon="20.05065">
        <ele>374.57000732422</ele>
        <time>2024-09-26T15:50:29.000Z</time>
      </trkpt>
      <trkpt lat="40.83386" lon="20.05039">
        <ele>375.5299987793</ele>
        <time>2024-09-26T15:50:31.000Z</time>
      </trkpt>
      <trkpt lat="40.83387" lon="20.05031">
        <ele>376.01000976562</ele>
        <time>2024-09-26T15:50:32.000Z</time>
      </trkpt>
      <trkpt lat="40.83387" lon="20.05022">
        <ele>376.48999023438</ele>
        <time>2024-09-26T15:50:33.000Z</time>
      </trkpt>
      <trkpt lat="40.83385" lon="20.05013">
        <ele>376.48999023438</ele>
        <time>2024-09-26T15:50:34.000Z</time>
      </trkpt>
      <trkpt lat="40.83381" lon="20.05003">
        <ele>376.9700012207</ele>
        <time>2024-09-26T15:50:35.000Z</time>
      </trkpt>
      <trkpt lat="40.83378" lon="20.04995">
        <ele>377.45001220703</ele>
        <time>2024-09-26T15:50:36.000Z</time>
      </trkpt>
      <trkpt lat="40.83373" lon="20.04987">
        <ele>377.94000244141</ele>
        <time>2024-09-26T15:50:37.000Z</time>
      </trkpt>
      <trkpt lat="40.83364" lon="20.04974">
        <ele>378.89999389648</ele>
        <time>2024-09-26T15:50:38.000Z</time>
      </trkpt>
      <trkpt lat="40.83361" lon="20.04968">
        <ele>379.38000488281</ele>
        <time>2024-09-26T15:50:39.000Z</time>
      </trkpt>
      <trkpt lat="40.83351" lon="20.04953">
        <ele>380.82000732422</ele>
        <time>2024-09-26T15:50:41.000Z</time>
      </trkpt>
      <trkpt lat="40.83347" lon="20.04947">
        <ele>380.82000732422</ele>
        <time>2024-09-26T15:50:42.000Z</time>
      </trkpt>
      <trkpt lat="40.83341" lon="20.04941">
        <ele>380.82000732422</ele>
        <time>2024-09-26T15:50:43.000Z</time>
      </trkpt>
      <trkpt lat="40.83335" lon="20.04937">
        <ele>380.82000732422</ele>
        <time>2024-09-26T15:50:44.000Z</time>
      </trkpt>
      <trkpt lat="40.83324" lon="20.04933">
        <ele>381.29998779297</ele>
        <time>2024-09-26T15:50:45.000Z</time>
      </trkpt>
      <trkpt lat="40.8332" lon="20.04932">
        <ele>381.29998779297</ele>
        <time>2024-09-26T15:50:46.000Z</time>
      </trkpt>
      <trkpt lat="40.83312" lon="20.04928">
        <ele>381.29998779297</ele>
        <time>2024-09-26T15:50:47.000Z</time>
      </trkpt>
      <trkpt lat="40.83304" lon="20.04923">
        <ele>381.7799987793</ele>
        <time>2024-09-26T15:50:48.000Z</time>
      </trkpt>
      <trkpt lat="40.83297" lon="20.04917">
        <ele>382.26000976562</ele>
        <time>2024-09-26T15:50:49.000Z</time>
      </trkpt>
      <trkpt lat="40.83291" lon="20.0491">
        <ele>382.26000976562</ele>
        <time>2024-09-26T15:50:50.000Z</time>
      </trkpt>
      <trkpt lat="40.83283" lon="20.04899">
        <ele>383.70001220703</ele>
        <time>2024-09-26T15:50:51.000Z</time>
      </trkpt>
      <trkpt lat="40.83279" lon="20.04894">
        <ele>383.70001220703</ele>
        <time>2024-09-26T15:50:52.000Z</time>
      </trkpt>
      <trkpt lat="40.83273" lon="20.04883">
        <ele>384.66000366211</ele>
        <time>2024-09-26T15:50:53.000Z</time>
      </trkpt>
      <trkpt lat="40.83267" lon="20.04867">
        <ele>385.63000488281</ele>
        <time>2024-09-26T15:50:54.000Z</time>
      </trkpt>
      <trkpt lat="40.83266" lon="20.04864">
        <ele>386.10998535156</ele>
        <time>2024-09-26T15:50:55.000Z</time>
      </trkpt>
      <trkpt lat="40.83263" lon="20.04858">
        <ele>386.10998535156</ele>
        <time>2024-09-26T15:50:56.000Z</time>
      </trkpt>
      <trkpt lat="40.83258" lon="20.04852">
        <ele>386.58999633789</ele>
        <time>2024-09-26T15:50:57.000Z</time>
      </trkpt>
      <trkpt lat="40.83248" lon="20.04844">
        <ele>386.58999633789</ele>
        <time>2024-09-26T15:50:58.000Z</time>
      </trkpt>
      <trkpt lat="40.83245" lon="20.04842">
        <ele>386.58999633789</ele>
        <time>2024-09-26T15:50:59.000Z</time>
      </trkpt>
      <trkpt lat="40.83241" lon="20.04835">
        <ele>386.58999633789</ele>
        <time>2024-09-26T15:51:00.000Z</time>
      </trkpt>
      <trkpt lat="40.83237" lon="20.04828">
        <ele>386.10998535156</ele>
        <time>2024-09-26T15:51:01.000Z</time>
      </trkpt>
      <trkpt lat="40.83231" lon="20.04805">
        <ele>383.70001220703</ele>
        <time>2024-09-26T15:51:03.000Z</time>
      </trkpt>
      <trkpt lat="40.83229" lon="20.04796">
        <ele>383.2200012207</ele>
        <time>2024-09-26T15:51:04.000Z</time>
      </trkpt>
      <trkpt lat="40.83228" lon="20.04788">
        <ele>382.26000976562</ele>
        <time>2024-09-26T15:51:05.000Z</time>
      </trkpt>
      <trkpt lat="40.83227" lon="20.04777">
        <ele>380.82000732422</ele>
        <time>2024-09-26T15:51:06.000Z</time>
      </trkpt>
      <trkpt lat="40.83226" lon="20.04772">
        <ele>380.33999633789</ele>
        <time>2024-09-26T15:51:07.000Z</time>
      </trkpt>
      <trkpt lat="40.83224" lon="20.04764">
        <ele>379.38000488281</ele>
        <time>2024-09-26T15:51:08.000Z</time>
      </trkpt>
      <trkpt lat="40.8322" lon="20.04756">
        <ele>377.94000244141</ele>
        <time>2024-09-26T15:51:09.000Z</time>
      </trkpt>
      <trkpt lat="40.83216" lon="20.0475">
        <ele>376.9700012207</ele>
        <time>2024-09-26T15:51:10.000Z</time>
      </trkpt>
      <trkpt lat="40.83209" lon="20.04738">
        <ele>376.01000976562</ele>
        <time>2024-09-26T15:51:11.000Z</time>
      </trkpt>
      <trkpt lat="40.83207" lon="20.04734">
        <ele>376.01000976562</ele>
        <time>2024-09-26T15:51:12.000Z</time>
      </trkpt>
      <trkpt lat="40.83201" lon="20.04724">
        <ele>375.04998779297</ele>
        <time>2024-09-26T15:51:13.000Z</time>
      </trkpt>
      <trkpt lat="40.83186" lon="20.04686">
        <ele>372.17001342773</ele>
        <time>2024-09-26T15:51:17.000Z</time>
      </trkpt>
      <trkpt lat="40.83183" lon="20.04681">
        <ele>372.17001342773</ele>
        <time>2024-09-26T15:51:18.000Z</time>
      </trkpt>
      <trkpt lat="40.83175" lon="20.04667">
        <ele>371.20999145508</ele>
        <time>2024-09-26T15:51:19.000Z</time>
      </trkpt>
      <trkpt lat="40.83173" lon="20.04662">
        <ele>371.20999145508</ele>
        <time>2024-09-26T15:51:20.000Z</time>
      </trkpt>
      <trkpt lat="40.8317" lon="20.04658">
        <ele>370.73001098633</ele>
        <time>2024-09-26T15:51:21.000Z</time>
      </trkpt>
      <trkpt lat="40.83166" lon="20.04649">
        <ele>370.23999023438</ele>
        <time>2024-09-26T15:51:22.000Z</time>
      </trkpt>
      <trkpt lat="40.83164" lon="20.04639">
        <ele>369.2799987793</ele>
        <time>2024-09-26T15:51:23.000Z</time>
      </trkpt>
      <trkpt lat="40.83163" lon="20.04629">
        <ele>368.32000732422</ele>
        <time>2024-09-26T15:51:24.000Z</time>
      </trkpt>
      <trkpt lat="40.83164" lon="20.04618">
        <ele>367.35998535156</ele>
        <time>2024-09-26T15:51:25.000Z</time>
      </trkpt>
      <trkpt lat="40.83175" lon="20.0457">
        <ele>364</ele>
        <time>2024-09-26T15:51:29.000Z</time>
      </trkpt>
      <trkpt lat="40.83177" lon="20.04563">
        <ele>364</ele>
        <time>2024-09-26T15:51:30.000Z</time>
      </trkpt>
      <trkpt lat="40.8318" lon="20.04553">
        <ele>364</ele>
        <time>2024-09-26T15:51:31.000Z</time>
      </trkpt>
      <trkpt lat="40.83185" lon="20.04544">
        <ele>363.51998901367</ele>
        <time>2024-09-26T15:51:32.000Z</time>
      </trkpt>
      <trkpt lat="40.83191" lon="20.04537">
        <ele>363.04000854492</ele>
        <time>2024-09-26T15:51:33.000Z</time>
      </trkpt>
      <trkpt lat="40.83208" lon="20.04517">
        <ele>361.58999633789</ele>
        <time>2024-09-26T15:51:35.000Z</time>
      </trkpt>
      <trkpt lat="40.8321" lon="20.04515">
        <ele>361.58999633789</ele>
        <time>2024-09-26T15:51:36.000Z</time>
      </trkpt>
      <trkpt lat="40.83217" lon="20.0451">
        <ele>361.10998535156</ele>
        <time>2024-09-26T15:51:37.000Z</time>
      </trkpt>
      <trkpt lat="40.83223" lon="20.04507">
        <ele>360.63000488281</ele>
        <time>2024-09-26T15:51:38.000Z</time>
      </trkpt>
      <trkpt lat="40.83229" lon="20.04507">
        <ele>359.67001342773</ele>
        <time>2024-09-26T15:51:39.000Z</time>
      </trkpt>
      <trkpt lat="40.83236" lon="20.04508">
        <ele>358.23001098633</ele>
        <time>2024-09-26T15:51:40.000Z</time>
      </trkpt>
      <trkpt lat="40.83245" lon="20.04514">
        <ele>356.79000854492</ele>
        <time>2024-09-26T15:51:41.000Z</time>
      </trkpt>
      <trkpt lat="40.83248" lon="20.04515">
        <ele>356.30999755859</ele>
        <time>2024-09-26T15:51:42.000Z</time>
      </trkpt>
      <trkpt lat="40.83253" lon="20.04516">
        <ele>355.82998657227</ele>
        <time>2024-09-26T15:51:43.000Z</time>
      </trkpt>
      <trkpt lat="40.8326" lon="20.04507">
        <ele>353.89999389648</ele>
        <time>2024-09-26T15:51:45.000Z</time>
      </trkpt>
      <trkpt lat="40.8326" lon="20.04506">
        <ele>353.89999389648</ele>
        <time>2024-09-26T15:51:46.000Z</time>
      </trkpt>
      <trkpt lat="40.83259" lon="20.045">
        <ele>352.94000244141</ele>
        <time>2024-09-26T15:51:47.000Z</time>
      </trkpt>
      <trkpt lat="40.83255" lon="20.04494">
        <ele>351.98001098633</ele>
        <time>2024-09-26T15:51:48.000Z</time>
      </trkpt>
      <trkpt lat="40.83251" lon="20.04489">
        <ele>350.54000854492</ele>
        <time>2024-09-26T15:51:49.000Z</time>
      </trkpt>
      <trkpt lat="40.8324" lon="20.04478">
        <ele>348.13000488281</ele>
        <time>2024-09-26T15:51:50.000Z</time>
      </trkpt>
      <trkpt lat="40.83233" lon="20.04471">
        <ele>346.69000244141</ele>
        <time>2024-09-26T15:51:51.000Z</time>
      </trkpt>
      <trkpt lat="40.8323" lon="20.04466">
        <ele>346.20999145508</ele>
        <time>2024-09-26T15:51:52.000Z</time>
      </trkpt>
      <trkpt lat="40.83226" lon="20.04462">
        <ele>345.25</ele>
        <time>2024-09-26T15:51:53.000Z</time>
      </trkpt>
      <trkpt lat="40.8322" lon="20.04453">
        <ele>343.32998657227</ele>
        <time>2024-09-26T15:51:54.000Z</time>
      </trkpt>
      <trkpt lat="40.83216" lon="20.04446">
        <ele>342.36999511719</ele>
        <time>2024-09-26T15:51:55.000Z</time>
      </trkpt>
      <trkpt lat="40.83211" lon="20.04432">
        <ele>340.92001342773</ele>
        <time>2024-09-26T15:51:56.000Z</time>
      </trkpt>
      <trkpt lat="40.83207" lon="20.04422">
        <ele>339.48001098633</ele>
        <time>2024-09-26T15:51:57.000Z</time>
      </trkpt>
      <trkpt lat="40.83204" lon="20.04415">
        <ele>339</ele>
        <time>2024-09-26T15:51:58.000Z</time>
      </trkpt>
      <trkpt lat="40.83201" lon="20.04408">
        <ele>338.04000854492</ele>
        <time>2024-09-26T15:51:59.000Z</time>
      </trkpt>
      <trkpt lat="40.83194" lon="20.04394">
        <ele>336.60000610352</ele>
        <time>2024-09-26T15:52:00.000Z</time>
      </trkpt>
      <trkpt lat="40.83188" lon="20.04386">
        <ele>335.16000366211</ele>
        <time>2024-09-26T15:52:01.000Z</time>
      </trkpt>
      <trkpt lat="40.83187" lon="20.04384">
        <ele>334.67999267578</ele>
        <time>2024-09-26T15:52:02.000Z</time>
      </trkpt>
      <trkpt lat="40.83183" lon="20.04377">
        <ele>333.70999145508</ele>
        <time>2024-09-26T15:52:03.000Z</time>
      </trkpt>
      <trkpt lat="40.8318" lon="20.04371">
        <ele>332.75</ele>
        <time>2024-09-26T15:52:04.000Z</time>
      </trkpt>
      <trkpt lat="40.83178" lon="20.04364">
        <ele>332.26998901367</ele>
        <time>2024-09-26T15:52:05.000Z</time>
      </trkpt>
      <trkpt lat="40.83178" lon="20.04354">
        <ele>332.26998901367</ele>
        <time>2024-09-26T15:52:06.000Z</time>
      </trkpt>
      <trkpt lat="40.83178" lon="20.04342">
        <ele>332.26998901367</ele>
        <time>2024-09-26T15:52:07.000Z</time>
      </trkpt>
      <trkpt lat="40.83177" lon="20.04333">
        <ele>333.23001098633</ele>
        <time>2024-09-26T15:52:08.000Z</time>
      </trkpt>
      <trkpt lat="40.83175" lon="20.04323">
        <ele>333.23001098633</ele>
        <time>2024-09-26T15:52:09.000Z</time>
      </trkpt>
      <trkpt lat="40.83173" lon="20.04316">
        <ele>333.70999145508</ele>
        <time>2024-09-26T15:52:10.000Z</time>
      </trkpt>
      <trkpt lat="40.83165" lon="20.04299">
        <ele>333.70999145508</ele>
        <time>2024-09-26T15:52:12.000Z</time>
      </trkpt>
      <trkpt lat="40.83161" lon="20.04294">
        <ele>333.70999145508</ele>
        <time>2024-09-26T15:52:13.000Z</time>
      </trkpt>
      <trkpt lat="40.83157" lon="20.0429">
        <ele>334.20001220703</ele>
        <time>2024-09-26T15:52:14.000Z</time>
      </trkpt>
      <trkpt lat="40.83152" lon="20.04289">
        <ele>334.20001220703</ele>
        <time>2024-09-26T15:52:15.000Z</time>
      </trkpt>
      <trkpt lat="40.83142" lon="20.04287">
        <ele>334.20001220703</ele>
        <time>2024-09-26T15:52:16.000Z</time>
      </trkpt>
      <trkpt lat="40.83138" lon="20.04286">
        <ele>333.70999145508</ele>
        <time>2024-09-26T15:52:17.000Z</time>
      </trkpt>
      <trkpt lat="40.83131" lon="20.04283">
        <ele>333.70999145508</ele>
        <time>2024-09-26T15:52:18.000Z</time>
      </trkpt>
      <trkpt lat="40.83125" lon="20.0428">
        <ele>333.70999145508</ele>
        <time>2024-09-26T15:52:19.000Z</time>
      </trkpt>
      <trkpt lat="40.83115" lon="20.04274">
        <ele>333.23001098633</ele>
        <time>2024-09-26T15:52:20.000Z</time>
      </trkpt>
      <trkpt lat="40.83109" lon="20.04269">
        <ele>332.75</ele>
        <time>2024-09-26T15:52:21.000Z</time>
      </trkpt>
      <trkpt lat="40.83103" lon="20.04264">
        <ele>332.75</ele>
        <time>2024-09-26T15:52:22.000Z</time>
      </trkpt>
      <trkpt lat="40.83088" lon="20.04251">
        <ele>331.79000854492</ele>
        <time>2024-09-26T15:52:24.000Z</time>
      </trkpt>
      <trkpt lat="40.83082" lon="20.04245">
        <ele>330.82998657227</ele>
        <time>2024-09-26T15:52:25.000Z</time>
      </trkpt>
      <trkpt lat="40.83078" lon="20.04242">
        <ele>330.82998657227</ele>
        <time>2024-09-26T15:52:26.000Z</time>
      </trkpt>
      <trkpt lat="40.83062" lon="20.04224">
        <ele>329.86999511719</ele>
        <time>2024-09-26T15:52:29.000Z</time>
      </trkpt>
      <trkpt lat="40.83058" lon="20.0422">
        <ele>330.35000610352</ele>
        <time>2024-09-26T15:52:30.000Z</time>
      </trkpt>
      <trkpt lat="40.83053" lon="20.04219">
        <ele>330.35000610352</ele>
        <time>2024-09-26T15:52:31.000Z</time>
      </trkpt>
      <trkpt lat="40.83049" lon="20.04219">
        <ele>330.35000610352</ele>
        <time>2024-09-26T15:52:32.000Z</time>
      </trkpt>
      <trkpt lat="40.83041" lon="20.0422">
        <ele>330.35000610352</ele>
        <time>2024-09-26T15:52:33.000Z</time>
      </trkpt>
      <trkpt lat="40.83037" lon="20.0422">
        <ele>330.35000610352</ele>
        <time>2024-09-26T15:52:34.000Z</time>
      </trkpt>
      <trkpt lat="40.8303" lon="20.04219">
        <ele>330.35000610352</ele>
        <time>2024-09-26T15:52:35.000Z</time>
      </trkpt>
      <trkpt lat="40.83024" lon="20.04216">
        <ele>329.86999511719</ele>
        <time>2024-09-26T15:52:36.000Z</time>
      </trkpt>
      <trkpt lat="40.83018" lon="20.04213">
        <ele>329.86999511719</ele>
        <time>2024-09-26T15:52:37.000Z</time>
      </trkpt>
      <trkpt lat="40.83012" lon="20.04209">
        <ele>328.91000366211</ele>
        <time>2024-09-26T15:52:38.000Z</time>
      </trkpt>
      <trkpt lat="40.83003" lon="20.04198">
        <ele>326.98999023438</ele>
        <time>2024-09-26T15:52:39.000Z</time>
      </trkpt>
      <trkpt lat="40.83" lon="20.04194">
        <ele>326.01998901367</ele>
        <time>2024-09-26T15:52:40.000Z</time>
      </trkpt>
      <trkpt lat="40.82998" lon="20.04192">
        <ele>326.01998901367</ele>
        <time>2024-09-26T15:52:41.000Z</time>
      </trkpt>
      <trkpt lat="40.82995" lon="20.04188">
        <ele>325.05999755859</ele>
        <time>2024-09-26T15:52:42.000Z</time>
      </trkpt>
      <trkpt lat="40.8299" lon="20.04186">
        <ele>324.57998657227</ele>
        <time>2024-09-26T15:52:43.000Z</time>
      </trkpt>
      <trkpt lat="40.82986" lon="20.04187">
        <ele>324.10000610352</ele>
        <time>2024-09-26T15:52:44.000Z</time>
      </trkpt>
      <trkpt lat="40.82983" lon="20.04192">
        <ele>323.14001464844</ele>
        <time>2024-09-26T15:52:45.000Z</time>
      </trkpt>
      <trkpt lat="40.82981" lon="20.04199">
        <ele>322.66000366211</ele>
        <time>2024-09-26T15:52:46.000Z</time>
      </trkpt>
      <trkpt lat="40.8298" lon="20.04206">
        <ele>321.70001220703</ele>
        <time>2024-09-26T15:52:47.000Z</time>
      </trkpt>
      <trkpt lat="40.82978" lon="20.04216">
        <ele>321.2200012207</ele>
        <time>2024-09-26T15:52:48.000Z</time>
      </trkpt>
      <trkpt lat="40.82975" lon="20.04223">
        <ele>320.73999023438</ele>
        <time>2024-09-26T15:52:49.000Z</time>
      </trkpt>
      <trkpt lat="40.82971" lon="20.0423">
        <ele>320.73999023438</ele>
        <time>2024-09-26T15:52:50.000Z</time>
      </trkpt>
      <trkpt lat="40.82956" lon="20.04251">
        <ele>318.80999755859</ele>
        <time>2024-09-26T15:52:53.000Z</time>
      </trkpt>
      <trkpt lat="40.82953" lon="20.04255">
        <ele>318.32998657227</ele>
        <time>2024-09-26T15:52:54.000Z</time>
      </trkpt>
      <trkpt lat="40.82948" lon="20.0426">
        <ele>317.36999511719</ele>
        <time>2024-09-26T15:52:55.000Z</time>
      </trkpt>
      <trkpt lat="40.82945" lon="20.04264">
        <ele>316.41000366211</ele>
        <time>2024-09-26T15:52:56.000Z</time>
      </trkpt>
      <trkpt lat="40.82942" lon="20.04279">
        <ele>315.92999267578</ele>
        <time>2024-09-26T15:52:59.000Z</time>
      </trkpt>
      <trkpt lat="40.82943" lon="20.04283">
        <ele>315.45001220703</ele>
        <time>2024-09-26T15:53:00.000Z</time>
      </trkpt>
      <trkpt lat="40.82946" lon="20.0429">
        <ele>315.45001220703</ele>
        <time>2024-09-26T15:53:01.000Z</time>
      </trkpt>
      <trkpt lat="40.82948" lon="20.04296">
        <ele>314.9700012207</ele>
        <time>2024-09-26T15:53:02.000Z</time>
      </trkpt>
      <trkpt lat="40.8295" lon="20.04303">
        <ele>314.48999023438</ele>
        <time>2024-09-26T15:53:03.000Z</time>
      </trkpt>
      <trkpt lat="40.8295" lon="20.0431">
        <ele>313.5299987793</ele>
        <time>2024-09-26T15:53:04.000Z</time>
      </trkpt>
      <trkpt lat="40.82949" lon="20.04317">
        <ele>313.04998779297</ele>
        <time>2024-09-26T15:53:05.000Z</time>
      </trkpt>
      <trkpt lat="40.82945" lon="20.04325">
        <ele>311.60000610352</ele>
        <time>2024-09-26T15:53:06.000Z</time>
      </trkpt>
      <trkpt lat="40.82942" lon="20.04332">
        <ele>310.16000366211</ele>
        <time>2024-09-26T15:53:07.000Z</time>
      </trkpt>
      <trkpt lat="40.82936" lon="20.04342">
        <ele>307.76000976562</ele>
        <time>2024-09-26T15:53:08.000Z</time>
      </trkpt>
      <trkpt lat="40.82932" lon="20.04348">
        <ele>306.32000732422</ele>
        <time>2024-09-26T15:53:09.000Z</time>
      </trkpt>
      <trkpt lat="40.82927" lon="20.04356">
        <ele>303.91000366211</ele>
        <time>2024-09-26T15:53:10.000Z</time>
      </trkpt>
      <trkpt lat="40.82925" lon="20.0436">
        <ele>302.95001220703</ele>
        <time>2024-09-26T15:53:11.000Z</time>
      </trkpt>
      <trkpt lat="40.82919" lon="20.04369">
        <ele>300.54998779297</ele>
        <time>2024-09-26T15:53:12.000Z</time>
      </trkpt>
      <trkpt lat="40.82916" lon="20.04372">
        <ele>299.58999633789</ele>
        <time>2024-09-26T15:53:13.000Z</time>
      </trkpt>
      <trkpt lat="40.82911" lon="20.04379">
        <ele>297.67001342773</ele>
        <time>2024-09-26T15:53:14.000Z</time>
      </trkpt>
      <trkpt lat="40.82903" lon="20.04389">
        <ele>294.7799987793</ele>
        <time>2024-09-26T15:53:15.000Z</time>
      </trkpt>
      <trkpt lat="40.829" lon="20.04394">
        <ele>293.82000732422</ele>
        <time>2024-09-26T15:53:16.000Z</time>
      </trkpt>
      <trkpt lat="40.82894" lon="20.04402">
        <ele>291.89999389648</ele>
        <time>2024-09-26T15:53:17.000Z</time>
      </trkpt>
      <trkpt lat="40.82889" lon="20.04409">
        <ele>290.45999145508</ele>
        <time>2024-09-26T15:53:18.000Z</time>
      </trkpt>
      <trkpt lat="40.82883" lon="20.04419">
        <ele>288.5299987793</ele>
        <time>2024-09-26T15:53:19.000Z</time>
      </trkpt>
      <trkpt lat="40.82882" lon="20.04422">
        <ele>288.04998779297</ele>
        <time>2024-09-26T15:53:20.000Z</time>
      </trkpt>
      <trkpt lat="40.8287" lon="20.04414">
        <ele>283.73001098633</ele>
        <time>2024-09-26T15:53:25.000Z</time>
      </trkpt>
      <trkpt lat="40.8287" lon="20.04413">
        <ele>283.25</ele>
        <time>2024-09-26T15:53:26.000Z</time>
      </trkpt>
      <trkpt lat="40.82871" lon="20.04407">
        <ele>282.76998901367</ele>
        <time>2024-09-26T15:53:27.000Z</time>
      </trkpt>
      <trkpt lat="40.82872" lon="20.04401">
        <ele>281.79998779297</ele>
        <time>2024-09-26T15:53:28.000Z</time>
      </trkpt>
      <trkpt lat="40.82873" lon="20.04394">
        <ele>280.83999633789</ele>
        <time>2024-09-26T15:53:29.000Z</time>
      </trkpt>
      <trkpt lat="40.82871" lon="20.04388">
        <ele>280.83999633789</ele>
        <time>2024-09-26T15:53:30.000Z</time>
      </trkpt>
      <trkpt lat="40.82869" lon="20.0438">
        <ele>280.35998535156</ele>
        <time>2024-09-26T15:53:31.000Z</time>
      </trkpt>
      <trkpt lat="40.82868" lon="20.04376">
        <ele>279.88000488281</ele>
        <time>2024-09-26T15:53:32.000Z</time>
      </trkpt>
      <trkpt lat="40.82868" lon="20.04369">
        <ele>279.39999389648</ele>
        <time>2024-09-26T15:53:33.000Z</time>
      </trkpt>
      <trkpt lat="40.82869" lon="20.04365">
        <ele>278.92001342773</ele>
        <time>2024-09-26T15:53:34.000Z</time>
      </trkpt>
      <trkpt lat="40.82872" lon="20.04359">
        <ele>277.95999145508</ele>
        <time>2024-09-26T15:53:35.000Z</time>
      </trkpt>
      <trkpt lat="40.82875" lon="20.04353">
        <ele>277.48001098633</ele>
        <time>2024-09-26T15:53:36.000Z</time>
      </trkpt>
      <trkpt lat="40.82878" lon="20.04348">
        <ele>276.51998901367</ele>
        <time>2024-09-26T15:53:37.000Z</time>
      </trkpt>
      <trkpt lat="40.82878" lon="20.04344">
        <ele>276.04000854492</ele>
        <time>2024-09-26T15:53:38.000Z</time>
      </trkpt>
      <trkpt lat="40.82877" lon="20.04338">
        <ele>275.55999755859</ele>
        <time>2024-09-26T15:53:39.000Z</time>
      </trkpt>
      <trkpt lat="40.82873" lon="20.04333">
        <ele>274.58999633789</ele>
        <time>2024-09-26T15:53:40.000Z</time>
      </trkpt>
      <trkpt lat="40.82867" lon="20.04328">
        <ele>274.10998535156</ele>
        <time>2024-09-26T15:53:41.000Z</time>
      </trkpt>
      <trkpt lat="40.82863" lon="20.04324">
        <ele>273.63000488281</ele>
        <time>2024-09-26T15:53:42.000Z</time>
      </trkpt>
      <trkpt lat="40.82859" lon="20.04318">
        <ele>272.67001342773</ele>
        <time>2024-09-26T15:53:43.000Z</time>
      </trkpt>
      <trkpt lat="40.82847" lon="20.04293">
        <ele>269.79000854492</ele>
        <time>2024-09-26T15:53:46.000Z</time>
      </trkpt>
      <trkpt lat="40.82844" lon="20.04286">
        <ele>268.82998657227</ele>
        <time>2024-09-26T15:53:47.000Z</time>
      </trkpt>
      <trkpt lat="40.82842" lon="20.04278">
        <ele>268.35000610352</ele>
        <time>2024-09-26T15:53:48.000Z</time>
      </trkpt>
      <trkpt lat="40.82841" lon="20.04273">
        <ele>267.85998535156</ele>
        <time>2024-09-26T15:53:49.000Z</time>
      </trkpt>
      <trkpt lat="40.82841" lon="20.04266">
        <ele>266.89999389648</ele>
        <time>2024-09-26T15:53:50.000Z</time>
      </trkpt>
      <trkpt lat="40.82842" lon="20.04259">
        <ele>266.42001342773</ele>
        <time>2024-09-26T15:53:51.000Z</time>
      </trkpt>
      <trkpt lat="40.82851" lon="20.04231">
        <ele>263.05999755859</ele>
        <time>2024-09-26T15:53:54.000Z</time>
      </trkpt>
      <trkpt lat="40.82853" lon="20.04226">
        <ele>262.57998657227</ele>
        <time>2024-09-26T15:53:55.000Z</time>
      </trkpt>
      <trkpt lat="40.82859" lon="20.04211">
        <ele>260.64999389648</ele>
        <time>2024-09-26T15:53:56.000Z</time>
      </trkpt>
      <trkpt lat="40.82868" lon="20.04191">
        <ele>257.76998901367</ele>
        <time>2024-09-26T15:53:59.000Z</time>
      </trkpt>
      <trkpt lat="40.82871" lon="20.04184">
        <ele>256.32998657227</ele>
        <time>2024-09-26T15:54:00.000Z</time>
      </trkpt>
      <trkpt lat="40.82875" lon="20.04178">
        <ele>255.36999511719</ele>
        <time>2024-09-26T15:54:01.000Z</time>
      </trkpt>
      <trkpt lat="40.82882" lon="20.04168">
        <ele>252.96000671387</ele>
        <time>2024-09-26T15:54:02.000Z</time>
      </trkpt>
      <trkpt lat="40.82883" lon="20.04166">
        <ele>252.47999572754</ele>
        <time>2024-09-26T15:54:03.000Z</time>
      </trkpt>
      <trkpt lat="40.82886" lon="20.0416">
        <ele>251.52000427246</ele>
        <time>2024-09-26T15:54:04.000Z</time>
      </trkpt>
      <trkpt lat="40.82887" lon="20.04153">
        <ele>250.55999755859</ele>
        <time>2024-09-26T15:54:05.000Z</time>
      </trkpt>
      <trkpt lat="40.82886" lon="20.04146">
        <ele>249.60000610352</ele>
        <time>2024-09-26T15:54:06.000Z</time>
      </trkpt>
      <trkpt lat="40.82885" lon="20.0414">
        <ele>248.63999938965</ele>
        <time>2024-09-26T15:54:07.000Z</time>
      </trkpt>
      <trkpt lat="40.82883" lon="20.04131">
        <ele>247.67999267578</ele>
        <time>2024-09-26T15:54:08.000Z</time>
      </trkpt>
      <trkpt lat="40.82881" lon="20.04123">
        <ele>246.22999572754</ele>
        <time>2024-09-26T15:54:09.000Z</time>
      </trkpt>
      <trkpt lat="40.8288" lon="20.04117">
        <ele>245.27000427246</ele>
        <time>2024-09-26T15:54:10.000Z</time>
      </trkpt>
      <trkpt lat="40.82877" lon="20.04107">
        <ele>243.83000183105</ele>
        <time>2024-09-26T15:54:11.000Z</time>
      </trkpt>
      <trkpt lat="40.82876" lon="20.041">
        <ele>242.38999938965</ele>
        <time>2024-09-26T15:54:12.000Z</time>
      </trkpt>
      <trkpt lat="40.82875" lon="20.0409">
        <ele>240.94999694824</ele>
        <time>2024-09-26T15:54:13.000Z</time>
      </trkpt>
      <trkpt lat="40.82876" lon="20.04081">
        <ele>239.50999450684</ele>
        <time>2024-09-26T15:54:14.000Z</time>
      </trkpt>
      <trkpt lat="40.82876" lon="20.04073">
        <ele>238.53999328613</ele>
        <time>2024-09-26T15:54:15.000Z</time>
      </trkpt>
      <trkpt lat="40.82875" lon="20.0406">
        <ele>236.61999511719</ele>
        <time>2024-09-26T15:54:16.000Z</time>
      </trkpt>
      <trkpt lat="40.82874" lon="20.04052">
        <ele>234.69999694824</ele>
        <time>2024-09-26T15:54:17.000Z</time>
      </trkpt>
      <trkpt lat="40.82873" lon="20.04045">
        <ele>233.25999450684</ele>
        <time>2024-09-26T15:54:18.000Z</time>
      </trkpt>
      <trkpt lat="40.8287" lon="20.04037">
        <ele>231.80999755859</ele>
        <time>2024-09-26T15:54:19.000Z</time>
      </trkpt>
      <trkpt lat="40.82864" lon="20.04024">
        <ele>229.41000366211</ele>
        <time>2024-09-26T15:54:20.000Z</time>
      </trkpt>
      <trkpt lat="40.82861" lon="20.04019">
        <ele>228.92999267578</ele>
        <time>2024-09-26T15:54:21.000Z</time>
      </trkpt>
      <trkpt lat="40.82858" lon="20.04014">
        <ele>228.44999694824</ele>
        <time>2024-09-26T15:54:22.000Z</time>
      </trkpt>
      <trkpt lat="40.82856" lon="20.04007">
        <ele>227.00999450684</ele>
        <time>2024-09-26T15:54:23.000Z</time>
      </trkpt>
      <trkpt lat="40.82854" lon="20.03999">
        <ele>226.05000305176</ele>
        <time>2024-09-26T15:54:24.000Z</time>
      </trkpt>
      <trkpt lat="40.82852" lon="20.03989">
        <ele>225.57000732422</ele>
        <time>2024-09-26T15:54:25.000Z</time>
      </trkpt>
      <trkpt lat="40.8285" lon="20.03982">
        <ele>225.08999633789</ele>
        <time>2024-09-26T15:54:26.000Z</time>
      </trkpt>
      <trkpt lat="40.82849" lon="20.03976">
        <ele>224.61000061035</ele>
        <time>2024-09-26T15:54:27.000Z</time>
      </trkpt>
      <trkpt lat="40.82847" lon="20.0397">
        <ele>223.63999938965</ele>
        <time>2024-09-26T15:54:28.000Z</time>
      </trkpt>
      <trkpt lat="40.82853" lon="20.03955">
        <ele>223.63999938965</ele>
        <time>2024-09-26T15:54:32.000Z</time>
      </trkpt>
      <trkpt lat="40.82858" lon="20.03952">
        <ele>223.63999938965</ele>
        <time>2024-09-26T15:54:33.000Z</time>
      </trkpt>
      <trkpt lat="40.82862" lon="20.03949">
        <ele>223.63999938965</ele>
        <time>2024-09-26T15:54:34.000Z</time>
      </trkpt>
      <trkpt lat="40.82866" lon="20.03945">
        <ele>224.11999511719</ele>
        <time>2024-09-26T15:54:35.000Z</time>
      </trkpt>
      <trkpt lat="40.8287" lon="20.0394">
        <ele>224.11999511719</ele>
        <time>2024-09-26T15:54:36.000Z</time>
      </trkpt>
      <trkpt lat="40.82874" lon="20.03933">
        <ele>225.08999633789</ele>
        <time>2024-09-26T15:54:37.000Z</time>
      </trkpt>
      <trkpt lat="40.82879" lon="20.03927">
        <ele>225.57000732422</ele>
        <time>2024-09-26T15:54:38.000Z</time>
      </trkpt>
      <trkpt lat="40.82884" lon="20.03923">
        <ele>226.05000305176</ele>
        <time>2024-09-26T15:54:39.000Z</time>
      </trkpt>
      <trkpt lat="40.82889" lon="20.03921">
        <ele>226.5299987793</ele>
        <time>2024-09-26T15:54:40.000Z</time>
      </trkpt>
      <trkpt lat="40.82893" lon="20.03917">
        <ele>227.00999450684</ele>
        <time>2024-09-26T15:54:41.000Z</time>
      </trkpt>
      <trkpt lat="40.82897" lon="20.03911">
        <ele>227.49000549316</ele>
        <time>2024-09-26T15:54:42.000Z</time>
      </trkpt>
      <trkpt lat="40.82901" lon="20.03906">
        <ele>228.44999694824</ele>
        <time>2024-09-26T15:54:43.000Z</time>
      </trkpt>
      <trkpt lat="40.82904" lon="20.03901">
        <ele>229.41000366211</ele>
        <time>2024-09-26T15:54:44.000Z</time>
      </trkpt>
      <trkpt lat="40.82905" lon="20.03894">
        <ele>230.36999511719</ele>
        <time>2024-09-26T15:54:45.000Z</time>
      </trkpt>
      <trkpt lat="40.82905" lon="20.03891">
        <ele>230.85000610352</ele>
        <time>2024-09-26T15:54:46.000Z</time>
      </trkpt>
      <trkpt lat="40.82901" lon="20.03881">
        <ele>232.7799987793</ele>
        <time>2024-09-26T15:54:48.000Z</time>
      </trkpt>
      <trkpt lat="40.82897" lon="20.03874">
        <ele>234.69999694824</ele>
        <time>2024-09-26T15:54:49.000Z</time>
      </trkpt>
      <trkpt lat="40.82896" lon="20.03873">
        <ele>234.69999694824</ele>
        <time>2024-09-26T15:54:50.000Z</time>
      </trkpt>
      <trkpt lat="40.82892" lon="20.03869">
        <ele>236.13999938965</ele>
        <time>2024-09-26T15:54:51.000Z</time>
      </trkpt>
      <trkpt lat="40.82889" lon="20.03863">
        <ele>237.10000610352</ele>
        <time>2024-09-26T15:54:52.000Z</time>
      </trkpt>
      <trkpt lat="40.82886" lon="20.03854">
        <ele>238.53999328613</ele>
        <time>2024-09-26T15:54:53.000Z</time>
      </trkpt>
      <trkpt lat="40.82883" lon="20.03839">
        <ele>240.4700012207</ele>
        <time>2024-09-26T15:54:54.000Z</time>
      </trkpt>
      <trkpt lat="40.82882" lon="20.03833">
        <ele>241.42999267578</ele>
        <time>2024-09-26T15:54:55.000Z</time>
      </trkpt>
      <trkpt lat="40.82881" lon="20.03826">
        <ele>242.86999511719</ele>
        <time>2024-09-26T15:54:56.000Z</time>
      </trkpt>
      <trkpt lat="40.82879" lon="20.0382">
        <ele>243.35000610352</ele>
        <time>2024-09-26T15:54:57.000Z</time>
      </trkpt>
      <trkpt lat="40.82869" lon="20.03787">
        <ele>242.38999938965</ele>
        <time>2024-09-26T15:55:04.000Z</time>
      </trkpt>
      <trkpt lat="40.82869" lon="20.03784">
        <ele>241.91000366211</ele>
        <time>2024-09-26T15:55:05.000Z</time>
      </trkpt>
      <trkpt lat="40.82868" lon="20.03779">
        <ele>240.94999694824</ele>
        <time>2024-09-26T15:55:06.000Z</time>
      </trkpt>
      <trkpt lat="40.82868" lon="20.03772">
        <ele>240.4700012207</ele>
        <time>2024-09-26T15:55:07.000Z</time>
      </trkpt>
      <trkpt lat="40.82854" lon="20.03747">
        <ele>237.10000610352</ele>
        <time>2024-09-26T15:55:14.000Z</time>
      </trkpt>
      <trkpt lat="40.82851" lon="20.03744">
        <ele>236.61999511719</ele>
        <time>2024-09-26T15:55:15.000Z</time>
      </trkpt>
      <trkpt lat="40.82849" lon="20.03742">
        <ele>236.13999938965</ele>
        <time>2024-09-26T15:55:16.000Z</time>
      </trkpt>
      <trkpt lat="40.82845" lon="20.03735">
        <ele>235.66000366211</ele>
        <time>2024-09-26T15:55:17.000Z</time>
      </trkpt>
      <trkpt lat="40.82842" lon="20.0373">
        <ele>235.17999267578</ele>
        <time>2024-09-26T15:55:18.000Z</time>
      </trkpt>
      <trkpt lat="40.82837" lon="20.03717">
        <ele>233.74000549316</ele>
        <time>2024-09-26T15:55:20.000Z</time>
      </trkpt>
      <trkpt lat="40.82833" lon="20.03704">
        <ele>232.7799987793</ele>
        <time>2024-09-26T15:55:22.000Z</time>
      </trkpt>
      <trkpt lat="40.82831" lon="20.03697">
        <ele>232.30000305176</ele>
        <time>2024-09-26T15:55:23.000Z</time>
      </trkpt>
      <trkpt lat="40.82831" lon="20.0369">
        <ele>232.30000305176</ele>
        <time>2024-09-26T15:55:24.000Z</time>
      </trkpt>
      <trkpt lat="40.82832" lon="20.03684">
        <ele>231.33000183105</ele>
        <time>2024-09-26T15:55:25.000Z</time>
      </trkpt>
      <trkpt lat="40.82833" lon="20.03678">
        <ele>230.85000610352</ele>
        <time>2024-09-26T15:55:26.000Z</time>
      </trkpt>
      <trkpt lat="40.82836" lon="20.0367">
        <ele>229.88999938965</ele>
        <time>2024-09-26T15:55:27.000Z</time>
      </trkpt>
      <trkpt lat="40.82838" lon="20.03665">
        <ele>228.92999267578</ele>
        <time>2024-09-26T15:55:28.000Z</time>
      </trkpt>
      <trkpt lat="40.82841" lon="20.03659">
        <ele>227.9700012207</ele>
        <time>2024-09-26T15:55:29.000Z</time>
      </trkpt>
      <trkpt lat="40.82841" lon="20.03651">
        <ele>227.00999450684</ele>
        <time>2024-09-26T15:55:30.000Z</time>
      </trkpt>
      <trkpt lat="40.8284" lon="20.03649">
        <ele>227.00999450684</ele>
        <time>2024-09-26T15:55:31.000Z</time>
      </trkpt>
      <trkpt lat="40.82837" lon="20.03645">
        <ele>227.00999450684</ele>
        <time>2024-09-26T15:55:32.000Z</time>
      </trkpt>
      <trkpt lat="40.8283" lon="20.03638">
        <ele>226.5299987793</ele>
        <time>2024-09-26T15:55:33.000Z</time>
      </trkpt>
      <trkpt lat="40.82827" lon="20.03635">
        <ele>226.5299987793</ele>
        <time>2024-09-26T15:55:34.000Z</time>
      </trkpt>
      <trkpt lat="40.82822" lon="20.0363">
        <ele>226.05000305176</ele>
        <time>2024-09-26T15:55:35.000Z</time>
      </trkpt>
      <trkpt lat="40.8282" lon="20.03623">
        <ele>226.5299987793</ele>
        <time>2024-09-26T15:55:36.000Z</time>
      </trkpt>
      <trkpt lat="40.82818" lon="20.03611">
        <ele>226.5299987793</ele>
        <time>2024-09-26T15:55:37.000Z</time>
      </trkpt>
      <trkpt lat="40.82817" lon="20.03606">
        <ele>226.5299987793</ele>
        <time>2024-09-26T15:55:38.000Z</time>
      </trkpt>
      <trkpt lat="40.82815" lon="20.03598">
        <ele>226.05000305176</ele>
        <time>2024-09-26T15:55:39.000Z</time>
      </trkpt>
      <trkpt lat="40.82812" lon="20.0359">
        <ele>225.57000732422</ele>
        <time>2024-09-26T15:55:40.000Z</time>
      </trkpt>
      <trkpt lat="40.82807" lon="20.03584">
        <ele>224.61000061035</ele>
        <time>2024-09-26T15:55:41.000Z</time>
      </trkpt>
      <trkpt lat="40.82802" lon="20.03578">
        <ele>224.11999511719</ele>
        <time>2024-09-26T15:55:42.000Z</time>
      </trkpt>
      <trkpt lat="40.82794" lon="20.03571">
        <ele>223.16000366211</ele>
        <time>2024-09-26T15:55:43.000Z</time>
      </trkpt>
      <trkpt lat="40.8279" lon="20.03568">
        <ele>222.67999267578</ele>
        <time>2024-09-26T15:55:44.000Z</time>
      </trkpt>
      <trkpt lat="40.82783" lon="20.03563">
        <ele>222.19999694824</ele>
        <time>2024-09-26T15:55:45.000Z</time>
      </trkpt>
      <trkpt lat="40.82776" lon="20.0356">
        <ele>221.7200012207</ele>
        <time>2024-09-26T15:55:46.000Z</time>
      </trkpt>
      <trkpt lat="40.82769" lon="20.03559">
        <ele>221.24000549316</ele>
        <time>2024-09-26T15:55:47.000Z</time>
      </trkpt>
      <trkpt lat="40.82757" lon="20.03561">
        <ele>220.75999450684</ele>
        <time>2024-09-26T15:55:48.000Z</time>
      </trkpt>
      <trkpt lat="40.82755" lon="20.03561">
        <ele>220.2799987793</ele>
        <time>2024-09-26T15:55:49.000Z</time>
      </trkpt>
      <trkpt lat="40.82749" lon="20.0356">
        <ele>220.2799987793</ele>
        <time>2024-09-26T15:55:50.000Z</time>
      </trkpt>
      <trkpt lat="40.82744" lon="20.03557">
        <ele>219.80000305176</ele>
        <time>2024-09-26T15:55:51.000Z</time>
      </trkpt>
      <trkpt lat="40.82741" lon="20.03552">
        <ele>219.80000305176</ele>
        <time>2024-09-26T15:55:52.000Z</time>
      </trkpt>
      <trkpt lat="40.82738" lon="20.03544">
        <ele>219.80000305176</ele>
        <time>2024-09-26T15:55:53.000Z</time>
      </trkpt>
      <trkpt lat="40.82735" lon="20.0353">
        <ele>219.80000305176</ele>
        <time>2024-09-26T15:55:54.000Z</time>
      </trkpt>
      <trkpt lat="40.82734" lon="20.03525">
        <ele>219.80000305176</ele>
        <time>2024-09-26T15:55:55.000Z</time>
      </trkpt>
      <trkpt lat="40.82733" lon="20.03514">
        <ele>219.32000732422</ele>
        <time>2024-09-26T15:55:56.000Z</time>
      </trkpt>
      <trkpt lat="40.82732" lon="20.035">
        <ele>219.32000732422</ele>
        <time>2024-09-26T15:55:57.000Z</time>
      </trkpt>
      <trkpt lat="40.82732" lon="20.03494">
        <ele>219.32000732422</ele>
        <time>2024-09-26T15:55:58.000Z</time>
      </trkpt>
      <trkpt lat="40.82731" lon="20.03485">
        <ele>219.32000732422</ele>
        <time>2024-09-26T15:55:59.000Z</time>
      </trkpt>
      <trkpt lat="40.82729" lon="20.03465">
        <ele>219.80000305176</ele>
        <time>2024-09-26T15:56:01.000Z</time>
      </trkpt>
      <trkpt lat="40.82728" lon="20.0346">
        <ele>219.32000732422</ele>
        <time>2024-09-26T15:56:02.000Z</time>
      </trkpt>
      <trkpt lat="40.82726" lon="20.03452">
        <ele>219.80000305176</ele>
        <time>2024-09-26T15:56:03.000Z</time>
      </trkpt>
      <trkpt lat="40.82722" lon="20.03443">
        <ele>220.2799987793</ele>
        <time>2024-09-26T15:56:04.000Z</time>
      </trkpt>
      <trkpt lat="40.8272" lon="20.03437">
        <ele>220.75999450684</ele>
        <time>2024-09-26T15:56:05.000Z</time>
      </trkpt>
      <trkpt lat="40.82718" lon="20.03429">
        <ele>220.75999450684</ele>
        <time>2024-09-26T15:56:06.000Z</time>
      </trkpt>
      <trkpt lat="40.82717" lon="20.03418">
        <ele>221.24000549316</ele>
        <time>2024-09-26T15:56:07.000Z</time>
      </trkpt>
      <trkpt lat="40.82716" lon="20.03408">
        <ele>221.24000549316</ele>
        <time>2024-09-26T15:56:08.000Z</time>
      </trkpt>
      <trkpt lat="40.82715" lon="20.034">
        <ele>221.24000549316</ele>
        <time>2024-09-26T15:56:09.000Z</time>
      </trkpt>
      <trkpt lat="40.82715" lon="20.03396">
        <ele>221.24000549316</ele>
        <time>2024-09-26T15:56:10.000Z</time>
      </trkpt>
      <trkpt lat="40.82716" lon="20.03388">
        <ele>221.24000549316</ele>
        <time>2024-09-26T15:56:11.000Z</time>
      </trkpt>
      <trkpt lat="40.82717" lon="20.0338">
        <ele>221.24000549316</ele>
        <time>2024-09-26T15:56:12.000Z</time>
      </trkpt>
      <trkpt lat="40.82719" lon="20.03371">
        <ele>221.7200012207</ele>
        <time>2024-09-26T15:56:13.000Z</time>
      </trkpt>
      <trkpt lat="40.8272" lon="20.03365">
        <ele>221.24000549316</ele>
        <time>2024-09-26T15:56:14.000Z</time>
      </trkpt>
      <trkpt lat="40.82722" lon="20.03358">
        <ele>220.75999450684</ele>
        <time>2024-09-26T15:56:15.000Z</time>
      </trkpt>
      <trkpt lat="40.82724" lon="20.0335">
        <ele>220.75999450684</ele>
        <time>2024-09-26T15:56:16.000Z</time>
      </trkpt>
      <trkpt lat="40.82724" lon="20.03344">
        <ele>220.75999450684</ele>
        <time>2024-09-26T15:56:17.000Z</time>
      </trkpt>
      <trkpt lat="40.82722" lon="20.03339">
        <ele>220.2799987793</ele>
        <time>2024-09-26T15:56:18.000Z</time>
      </trkpt>
      <trkpt lat="40.82719" lon="20.03335">
        <ele>219.80000305176</ele>
        <time>2024-09-26T15:56:19.000Z</time>
      </trkpt>
      <trkpt lat="40.82714" lon="20.03333">
        <ele>219.32000732422</ele>
        <time>2024-09-26T15:56:20.000Z</time>
      </trkpt>
      <trkpt lat="40.82708" lon="20.03332">
        <ele>219.32000732422</ele>
        <time>2024-09-26T15:56:21.000Z</time>
      </trkpt>
      <trkpt lat="40.82699" lon="20.03333">
        <ele>218.83999633789</ele>
        <time>2024-09-26T15:56:22.000Z</time>
      </trkpt>
      <trkpt lat="40.82694" lon="20.03332">
        <ele>218.83999633789</ele>
        <time>2024-09-26T15:56:23.000Z</time>
      </trkpt>
      <trkpt lat="40.82688" lon="20.0333">
        <ele>218.36000061035</ele>
        <time>2024-09-26T15:56:24.000Z</time>
      </trkpt>
      <trkpt lat="40.82677" lon="20.03325">
        <ele>217.88000488281</ele>
        <time>2024-09-26T15:56:25.000Z</time>
      </trkpt>
      <trkpt lat="40.82675" lon="20.03325">
        <ele>217.39999389648</ele>
        <time>2024-09-26T15:56:26.000Z</time>
      </trkpt>
      <trkpt lat="40.8267" lon="20.03323">
        <ele>217.39999389648</ele>
        <time>2024-09-26T15:56:27.000Z</time>
      </trkpt>
      <trkpt lat="40.82659" lon="20.03322">
        <ele>216.91000366211</ele>
        <time>2024-09-26T15:56:28.000Z</time>
      </trkpt>
      <trkpt lat="40.82654" lon="20.03321">
        <ele>216.42999267578</ele>
        <time>2024-09-26T15:56:29.000Z</time>
      </trkpt>
      <trkpt lat="40.8265" lon="20.0332">
        <ele>215.94999694824</ele>
        <time>2024-09-26T15:56:30.000Z</time>
      </trkpt>
      <trkpt lat="40.82644" lon="20.03317">
        <ele>215.94999694824</ele>
        <time>2024-09-26T15:56:31.000Z</time>
      </trkpt>
      <trkpt lat="40.8264" lon="20.03312">
        <ele>215.94999694824</ele>
        <time>2024-09-26T15:56:32.000Z</time>
      </trkpt>
      <trkpt lat="40.82633" lon="20.03303">
        <ele>216.42999267578</ele>
        <time>2024-09-26T15:56:33.000Z</time>
      </trkpt>
      <trkpt lat="40.82629" lon="20.03297">
        <ele>216.42999267578</ele>
        <time>2024-09-26T15:56:34.000Z</time>
      </trkpt>
      <trkpt lat="40.82627" lon="20.03293">
        <ele>216.42999267578</ele>
        <time>2024-09-26T15:56:35.000Z</time>
      </trkpt>
      <trkpt lat="40.82623" lon="20.03284">
        <ele>216.42999267578</ele>
        <time>2024-09-26T15:56:36.000Z</time>
      </trkpt>
      <trkpt lat="40.8262" lon="20.03275">
        <ele>216.42999267578</ele>
        <time>2024-09-26T15:56:37.000Z</time>
      </trkpt>
      <trkpt lat="40.82615" lon="20.03258">
        <ele>215.4700012207</ele>
        <time>2024-09-26T15:56:38.000Z</time>
      </trkpt>
      <trkpt lat="40.82612" lon="20.03246">
        <ele>214.99000549316</ele>
        <time>2024-09-26T15:56:39.000Z</time>
      </trkpt>
      <trkpt lat="40.82611" lon="20.03244">
        <ele>214.50999450684</ele>
        <time>2024-09-26T15:56:40.000Z</time>
      </trkpt>
      <trkpt lat="40.82609" lon="20.03234">
        <ele>214.50999450684</ele>
        <time>2024-09-26T15:56:41.000Z</time>
      </trkpt>
      <trkpt lat="40.82608" lon="20.03223">
        <ele>214.0299987793</ele>
        <time>2024-09-26T15:56:42.000Z</time>
      </trkpt>
      <trkpt lat="40.82608" lon="20.03214">
        <ele>214.50999450684</ele>
        <time>2024-09-26T15:56:43.000Z</time>
      </trkpt>
      <trkpt lat="40.82606" lon="20.03205">
        <ele>214.50999450684</ele>
        <time>2024-09-26T15:56:44.000Z</time>
      </trkpt>
      <trkpt lat="40.82603" lon="20.03198">
        <ele>214.0299987793</ele>
        <time>2024-09-26T15:56:45.000Z</time>
      </trkpt>
      <trkpt lat="40.82597" lon="20.03191">
        <ele>213.55000305176</ele>
        <time>2024-09-26T15:56:46.000Z</time>
      </trkpt>
      <trkpt lat="40.82592" lon="20.03185">
        <ele>213.07000732422</ele>
        <time>2024-09-26T15:56:47.000Z</time>
      </trkpt>
      <trkpt lat="40.82585" lon="20.03174">
        <ele>211.63000488281</ele>
        <time>2024-09-26T15:56:48.000Z</time>
      </trkpt>
      <trkpt lat="40.8258" lon="20.03166">
        <ele>210.66999816895</ele>
        <time>2024-09-26T15:56:49.000Z</time>
      </trkpt>
      <trkpt lat="40.82575" lon="20.03157">
        <ele>209.69999694824</ele>
        <time>2024-09-26T15:56:50.000Z</time>
      </trkpt>
      <trkpt lat="40.82571" lon="20.03149">
        <ele>208.74000549316</ele>
        <time>2024-09-26T15:56:51.000Z</time>
      </trkpt>
      <trkpt lat="40.82565" lon="20.03139">
        <ele>207.7799987793</ele>
        <time>2024-09-26T15:56:52.000Z</time>
      </trkpt>
      <trkpt lat="40.82555" lon="20.03117">
        <ele>205.86000061035</ele>
        <time>2024-09-26T15:56:54.000Z</time>
      </trkpt>
      <trkpt lat="40.82549" lon="20.03102">
        <ele>204.89999389648</ele>
        <time>2024-09-26T15:56:55.000Z</time>
      </trkpt>
      <trkpt lat="40.82543" lon="20.03089">
        <ele>204.89999389648</ele>
        <time>2024-09-26T15:56:57.000Z</time>
      </trkpt>
      <trkpt lat="40.82539" lon="20.03081">
        <ele>204.41999816895</ele>
        <time>2024-09-26T15:56:58.000Z</time>
      </trkpt>
      <trkpt lat="40.82534" lon="20.03075">
        <ele>204.89999389648</ele>
        <time>2024-09-26T15:56:59.000Z</time>
      </trkpt>
      <trkpt lat="40.82527" lon="20.03072">
        <ele>204.89999389648</ele>
        <time>2024-09-26T15:57:00.000Z</time>
      </trkpt>
      <trkpt lat="40.8252" lon="20.03072">
        <ele>205.38000488281</ele>
        <time>2024-09-26T15:57:01.000Z</time>
      </trkpt>
      <trkpt lat="40.82511" lon="20.03074">
        <ele>206.33999633789</ele>
        <time>2024-09-26T15:57:02.000Z</time>
      </trkpt>
      <trkpt lat="40.82504" lon="20.03075">
        <ele>206.33999633789</ele>
        <time>2024-09-26T15:57:03.000Z</time>
      </trkpt>
      <trkpt lat="40.82497" lon="20.03074">
        <ele>206.82000732422</ele>
        <time>2024-09-26T15:57:04.000Z</time>
      </trkpt>
      <trkpt lat="40.8249" lon="20.03071">
        <ele>206.82000732422</ele>
        <time>2024-09-26T15:57:05.000Z</time>
      </trkpt>
      <trkpt lat="40.82478" lon="20.03066">
        <ele>207.7799987793</ele>
        <time>2024-09-26T15:57:06.000Z</time>
      </trkpt>
      <trkpt lat="40.82465" lon="20.0306">
        <ele>208.25999450684</ele>
        <time>2024-09-26T15:57:08.000Z</time>
      </trkpt>
      <trkpt lat="40.82457" lon="20.03056">
        <ele>208.25999450684</ele>
        <time>2024-09-26T15:57:09.000Z</time>
      </trkpt>
      <trkpt lat="40.82448" lon="20.03049">
        <ele>208.25999450684</ele>
        <time>2024-09-26T15:57:10.000Z</time>
      </trkpt>
      <trkpt lat="40.82441" lon="20.03044">
        <ele>208.25999450684</ele>
        <time>2024-09-26T15:57:11.000Z</time>
      </trkpt>
      <trkpt lat="40.82436" lon="20.0304">
        <ele>208.25999450684</ele>
        <time>2024-09-26T15:57:12.000Z</time>
      </trkpt>
      <trkpt lat="40.8243" lon="20.03035">
        <ele>208.25999450684</ele>
        <time>2024-09-26T15:57:13.000Z</time>
      </trkpt>
      <trkpt lat="40.8242" lon="20.03026">
        <ele>208.25999450684</ele>
        <time>2024-09-26T15:57:14.000Z</time>
      </trkpt>
      <trkpt lat="40.82399" lon="20.03006">
        <ele>207.7799987793</ele>
        <time>2024-09-26T15:57:18.000Z</time>
      </trkpt>
      <trkpt lat="40.82393" lon="20.03">
        <ele>207.7799987793</ele>
        <time>2024-09-26T15:57:19.000Z</time>
      </trkpt>
      <trkpt lat="40.82388" lon="20.02994">
        <ele>207.7799987793</ele>
        <time>2024-09-26T15:57:20.000Z</time>
      </trkpt>
      <trkpt lat="40.82382" lon="20.02986">
        <ele>207.7799987793</ele>
        <time>2024-09-26T15:57:21.000Z</time>
      </trkpt>
      <trkpt lat="40.82366" lon="20.02957">
        <ele>208.74000549316</ele>
        <time>2024-09-26T15:57:24.000Z</time>
      </trkpt>
      <trkpt lat="40.82342" lon="20.02915">
        <ele>206.33999633789</ele>
        <time>2024-09-26T15:57:29.000Z</time>
      </trkpt>
      <trkpt lat="40.82334" lon="20.029">
        <ele>204.41999816895</ele>
        <time>2024-09-26T15:57:30.000Z</time>
      </trkpt>
      <trkpt lat="40.82329" lon="20.02891">
        <ele>203.46000671387</ele>
        <time>2024-09-26T15:57:31.000Z</time>
      </trkpt>
      <trkpt lat="40.82327" lon="20.02889">
        <ele>203.46000671387</ele>
        <time>2024-09-26T15:57:32.000Z</time>
      </trkpt>
      <trkpt lat="40.8232" lon="20.02878">
        <ele>202.49000549316</ele>
        <time>2024-09-26T15:57:33.000Z</time>
      </trkpt>
      <trkpt lat="40.82312" lon="20.02866">
        <ele>201.5299987793</ele>
        <time>2024-09-26T15:57:34.000Z</time>
      </trkpt>
      <trkpt lat="40.8231" lon="20.02862">
        <ele>201.05000305176</ele>
        <time>2024-09-26T15:57:35.000Z</time>
      </trkpt>
      <trkpt lat="40.82306" lon="20.02855">
        <ele>200.57000732422</ele>
        <time>2024-09-26T15:57:36.000Z</time>
      </trkpt>
      <trkpt lat="40.82303" lon="20.02847">
        <ele>200.08999633789</ele>
        <time>2024-09-26T15:57:37.000Z</time>
      </trkpt>
      <trkpt lat="40.823" lon="20.02835">
        <ele>199.13000488281</ele>
        <time>2024-09-26T15:57:38.000Z</time>
      </trkpt>
      <trkpt lat="40.82299" lon="20.02828">
        <ele>198.64999389648</ele>
        <time>2024-09-26T15:57:39.000Z</time>
      </trkpt>
      <trkpt lat="40.82297" lon="20.02821">
        <ele>198.16999816895</ele>
        <time>2024-09-26T15:57:40.000Z</time>
      </trkpt>
      <trkpt lat="40.82294" lon="20.02811">
        <ele>197.69000244141</ele>
        <time>2024-09-26T15:57:41.000Z</time>
      </trkpt>
      <trkpt lat="40.82291" lon="20.02805">
        <ele>197.21000671387</ele>
        <time>2024-09-26T15:57:42.000Z</time>
      </trkpt>
      <trkpt lat="40.82287" lon="20.02798">
        <ele>196.72999572754</ele>
        <time>2024-09-26T15:57:43.000Z</time>
      </trkpt>
      <trkpt lat="40.82282" lon="20.02792">
        <ele>196.25</ele>
        <time>2024-09-26T15:57:44.000Z</time>
      </trkpt>
      <trkpt lat="40.82276" lon="20.02789">
        <ele>196.25</ele>
        <time>2024-09-26T15:57:45.000Z</time>
      </trkpt>
      <trkpt lat="40.82269" lon="20.02787">
        <ele>195.77000427246</ele>
        <time>2024-09-26T15:57:46.000Z</time>
      </trkpt>
      <trkpt lat="40.82261" lon="20.02788">
        <ele>195.2799987793</ele>
        <time>2024-09-26T15:57:47.000Z</time>
      </trkpt>
      <trkpt lat="40.82254" lon="20.02788">
        <ele>194.80000305176</ele>
        <time>2024-09-26T15:57:48.000Z</time>
      </trkpt>
      <trkpt lat="40.82246" lon="20.02786">
        <ele>194.32000732422</ele>
        <time>2024-09-26T15:57:49.000Z</time>
      </trkpt>
      <trkpt lat="40.82239" lon="20.02783">
        <ele>193.36000061035</ele>
        <time>2024-09-26T15:57:50.000Z</time>
      </trkpt>
      <trkpt lat="40.82212" lon="20.02767">
        <ele>191.91999816895</ele>
        <time>2024-09-26T15:57:53.000Z</time>
      </trkpt>
      <trkpt lat="40.82211" lon="20.02766">
        <ele>191.91999816895</ele>
        <time>2024-09-26T15:57:54.000Z</time>
      </trkpt>
      <trkpt lat="40.82205" lon="20.02762">
        <ele>191.91999816895</ele>
        <time>2024-09-26T15:57:55.000Z</time>
      </trkpt>
      <trkpt lat="40.822" lon="20.02756">
        <ele>192.39999389648</ele>
        <time>2024-09-26T15:57:56.000Z</time>
      </trkpt>
      <trkpt lat="40.8219" lon="20.02737">
        <ele>193.36000061035</ele>
        <time>2024-09-26T15:57:58.000Z</time>
      </trkpt>
      <trkpt lat="40.82188" lon="20.02734">
        <ele>193.36000061035</ele>
        <time>2024-09-26T15:57:59.000Z</time>
      </trkpt>
      <trkpt lat="40.82185" lon="20.02726">
        <ele>193.83999633789</ele>
        <time>2024-09-26T15:58:00.000Z</time>
      </trkpt>
      <trkpt lat="40.82182" lon="20.02719">
        <ele>194.32000732422</ele>
        <time>2024-09-26T15:58:01.000Z</time>
      </trkpt>
      <trkpt lat="40.82179" lon="20.02702">
        <ele>194.80000305176</ele>
        <time>2024-09-26T15:58:02.000Z</time>
      </trkpt>
      <trkpt lat="40.82176" lon="20.02686">
        <ele>194.32000732422</ele>
        <time>2024-09-26T15:58:04.000Z</time>
      </trkpt>
      <trkpt lat="40.82175" lon="20.02668">
        <ele>194.32000732422</ele>
        <time>2024-09-26T15:58:05.000Z</time>
      </trkpt>
      <trkpt lat="40.82174" lon="20.02665">
        <ele>193.83999633789</ele>
        <time>2024-09-26T15:58:06.000Z</time>
      </trkpt>
      <trkpt lat="40.82173" lon="20.02654">
        <ele>193.36000061035</ele>
        <time>2024-09-26T15:58:07.000Z</time>
      </trkpt>
      <trkpt lat="40.82162" lon="20.02609">
        <ele>192.39999389648</ele>
        <time>2024-09-26T15:58:11.000Z</time>
      </trkpt>
      <trkpt lat="40.82159" lon="20.02596">
        <ele>192.39999389648</ele>
        <time>2024-09-26T15:58:12.000Z</time>
      </trkpt>
      <trkpt lat="40.82157" lon="20.02586">
        <ele>192.39999389648</ele>
        <time>2024-09-26T15:58:13.000Z</time>
      </trkpt>
      <trkpt lat="40.82146" lon="20.0254">
        <ele>193.83999633789</ele>
        <time>2024-09-26T15:58:17.000Z</time>
      </trkpt>
      <trkpt lat="40.82144" lon="20.02534">
        <ele>194.32000732422</ele>
        <time>2024-09-26T15:58:18.000Z</time>
      </trkpt>
      <trkpt lat="40.8214" lon="20.02527">
        <ele>194.32000732422</ele>
        <time>2024-09-26T15:58:19.000Z</time>
      </trkpt>
      <trkpt lat="40.82135" lon="20.02521">
        <ele>194.80000305176</ele>
        <time>2024-09-26T15:58:20.000Z</time>
      </trkpt>
      <trkpt lat="40.82131" lon="20.02516">
        <ele>194.80000305176</ele>
        <time>2024-09-26T15:58:21.000Z</time>
      </trkpt>
      <trkpt lat="40.82126" lon="20.02508">
        <ele>195.2799987793</ele>
        <time>2024-09-26T15:58:22.000Z</time>
      </trkpt>
      <trkpt lat="40.82111" lon="20.0248">
        <ele>194.32000732422</ele>
        <time>2024-09-26T15:58:24.000Z</time>
      </trkpt>
      <trkpt lat="40.82106" lon="20.0247">
        <ele>193.36000061035</ele>
        <time>2024-09-26T15:58:26.000Z</time>
      </trkpt>
      <trkpt lat="40.821" lon="20.02461">
        <ele>192.88000488281</ele>
        <time>2024-09-26T15:58:27.000Z</time>
      </trkpt>
      <trkpt lat="40.82085" lon="20.02442">
        <ele>191.44000244141</ele>
        <time>2024-09-26T15:58:29.000Z</time>
      </trkpt>
      <trkpt lat="40.82076" lon="20.02429">
        <ele>190.96000671387</ele>
        <time>2024-09-26T15:58:31.000Z</time>
      </trkpt>
      <trkpt lat="40.82061" lon="20.02404">
        <ele>188.08000183105</ele>
        <time>2024-09-26T15:58:34.000Z</time>
      </trkpt>
      <trkpt lat="40.82054" lon="20.02395">
        <ele>187.11000061035</ele>
        <time>2024-09-26T15:58:35.000Z</time>
      </trkpt>
      <trkpt lat="40.82048" lon="20.02389">
        <ele>186.14999389648</ele>
        <time>2024-09-26T15:58:36.000Z</time>
      </trkpt>
      <trkpt lat="40.82028" lon="20.02368">
        <ele>184.22999572754</ele>
        <time>2024-09-26T15:58:38.000Z</time>
      </trkpt>
      <trkpt lat="40.82024" lon="20.02364">
        <ele>183.75</ele>
        <time>2024-09-26T15:58:39.000Z</time>
      </trkpt>
      <trkpt lat="40.81984" lon="20.02329">
        <ele>182.78999328613</ele>
        <time>2024-09-26T15:58:44.000Z</time>
      </trkpt>
      <trkpt lat="40.8198" lon="20.02326">
        <ele>182.78999328613</ele>
        <time>2024-09-26T15:58:45.000Z</time>
      </trkpt>
      <trkpt lat="40.81955" lon="20.02311">
        <ele>183.27000427246</ele>
        <time>2024-09-26T15:58:48.000Z</time>
      </trkpt>
      <trkpt lat="40.81946" lon="20.02307">
        <ele>183.27000427246</ele>
        <time>2024-09-26T15:58:49.000Z</time>
      </trkpt>
      <trkpt lat="40.81933" lon="20.02301">
        <ele>183.75</ele>
        <time>2024-09-26T15:58:50.000Z</time>
      </trkpt>
      <trkpt lat="40.8193" lon="20.023">
        <ele>183.75</ele>
        <time>2024-09-26T15:58:51.000Z</time>
      </trkpt>
      <trkpt lat="40.81922" lon="20.02295">
        <ele>183.27000427246</ele>
        <time>2024-09-26T15:58:52.000Z</time>
      </trkpt>
      <trkpt lat="40.81907" lon="20.02283">
        <ele>183.27000427246</ele>
        <time>2024-09-26T15:58:54.000Z</time>
      </trkpt>
      <trkpt lat="40.81889" lon="20.02269">
        <ele>181.83000183105</ele>
        <time>2024-09-26T15:58:56.000Z</time>
      </trkpt>
      <trkpt lat="40.81871" lon="20.02257">
        <ele>180.38000488281</ele>
        <time>2024-09-26T15:58:58.000Z</time>
      </trkpt>
      <trkpt lat="40.81867" lon="20.02255">
        <ele>179.89999389648</ele>
        <time>2024-09-26T15:58:59.000Z</time>
      </trkpt>
      <trkpt lat="40.81857" lon="20.02246">
        <ele>179.41999816895</ele>
        <time>2024-09-26T15:59:00.000Z</time>
      </trkpt>
      <trkpt lat="40.81849" lon="20.02238">
        <ele>178.46000671387</ele>
        <time>2024-09-26T15:59:01.000Z</time>
      </trkpt>
      <trkpt lat="40.81847" lon="20.02236">
        <ele>178.46000671387</ele>
        <time>2024-09-26T15:59:02.000Z</time>
      </trkpt>
      <trkpt lat="40.81829" lon="20.02214">
        <ele>177.5</ele>
        <time>2024-09-26T15:59:04.000Z</time>
      </trkpt>
      <trkpt lat="40.81826" lon="20.02211">
        <ele>177.5</ele>
        <time>2024-09-26T15:59:05.000Z</time>
      </trkpt>
      <trkpt lat="40.81819" lon="20.02205">
        <ele>177.5</ele>
        <time>2024-09-26T15:59:06.000Z</time>
      </trkpt>
      <trkpt lat="40.81808" lon="20.02198">
        <ele>177.5</ele>
        <time>2024-09-26T15:59:07.000Z</time>
      </trkpt>
      <trkpt lat="40.81802" lon="20.02194">
        <ele>177.5</ele>
        <time>2024-09-26T15:59:08.000Z</time>
      </trkpt>
      <trkpt lat="40.81797" lon="20.0219">
        <ele>177.5</ele>
        <time>2024-09-26T15:59:09.000Z</time>
      </trkpt>
      <trkpt lat="40.8179" lon="20.02182">
        <ele>177.5</ele>
        <time>2024-09-26T15:59:10.000Z</time>
      </trkpt>
      <trkpt lat="40.81785" lon="20.02176">
        <ele>177.5</ele>
        <time>2024-09-26T15:59:11.000Z</time>
      </trkpt>
      <trkpt lat="40.81779" lon="20.02168">
        <ele>177.5</ele>
        <time>2024-09-26T15:59:12.000Z</time>
      </trkpt>
      <trkpt lat="40.81771" lon="20.02154">
        <ele>177.02000427246</ele>
        <time>2024-09-26T15:59:13.000Z</time>
      </trkpt>
      <trkpt lat="40.81767" lon="20.02149">
        <ele>177.02000427246</ele>
        <time>2024-09-26T15:59:14.000Z</time>
      </trkpt>
      <trkpt lat="40.81764" lon="20.02144">
        <ele>176.53999328613</ele>
        <time>2024-09-26T15:59:15.000Z</time>
      </trkpt>
      <trkpt lat="40.81733" lon="20.02105">
        <ele>176.05999755859</ele>
        <time>2024-09-26T15:59:19.000Z</time>
      </trkpt>
      <trkpt lat="40.81731" lon="20.02104">
        <ele>176.05999755859</ele>
        <time>2024-09-26T15:59:20.000Z</time>
      </trkpt>
      <trkpt lat="40.81725" lon="20.02098">
        <ele>176.05999755859</ele>
        <time>2024-09-26T15:59:21.000Z</time>
      </trkpt>
      <trkpt lat="40.81719" lon="20.02094">
        <ele>176.05999755859</ele>
        <time>2024-09-26T15:59:22.000Z</time>
      </trkpt>
      <trkpt lat="40.81707" lon="20.02089">
        <ele>176.05999755859</ele>
        <time>2024-09-26T15:59:23.000Z</time>
      </trkpt>
      <trkpt lat="40.81703" lon="20.02087">
        <ele>176.05999755859</ele>
        <time>2024-09-26T15:59:24.000Z</time>
      </trkpt>
      <trkpt lat="40.81696" lon="20.02083">
        <ele>176.53999328613</ele>
        <time>2024-09-26T15:59:25.000Z</time>
      </trkpt>
      <trkpt lat="40.81689" lon="20.02077">
        <ele>176.53999328613</ele>
        <time>2024-09-26T15:59:26.000Z</time>
      </trkpt>
      <trkpt lat="40.81682" lon="20.0207">
        <ele>177.02000427246</ele>
        <time>2024-09-26T15:59:27.000Z</time>
      </trkpt>
      <trkpt lat="40.81676" lon="20.02062">
        <ele>177.02000427246</ele>
        <time>2024-09-26T15:59:28.000Z</time>
      </trkpt>
      <trkpt lat="40.81666" lon="20.02047">
        <ele>177.02000427246</ele>
        <time>2024-09-26T15:59:29.000Z</time>
      </trkpt>
      <trkpt lat="40.81659" lon="20.02038">
        <ele>177.02000427246</ele>
        <time>2024-09-26T15:59:30.000Z</time>
      </trkpt>
      <trkpt lat="40.81656" lon="20.02034">
        <ele>177.02000427246</ele>
        <time>2024-09-26T15:59:31.000Z</time>
      </trkpt>
      <trkpt lat="40.81643" lon="20.02019">
        <ele>177.02000427246</ele>
        <time>2024-09-26T15:59:32.000Z</time>
      </trkpt>
      <trkpt lat="40.81642" lon="20.02018">
        <ele>177.02000427246</ele>
        <time>2024-09-26T15:59:33.000Z</time>
      </trkpt>
      <trkpt lat="40.81635" lon="20.02011">
        <ele>176.53999328613</ele>
        <time>2024-09-26T15:59:34.000Z</time>
      </trkpt>
      <trkpt lat="40.81602" lon="20.01978">
        <ele>174.61999511719</ele>
        <time>2024-09-26T15:59:38.000Z</time>
      </trkpt>
      <trkpt lat="40.81601" lon="20.01977">
        <ele>174.13999938965</ele>
        <time>2024-09-26T15:59:39.000Z</time>
      </trkpt>
      <trkpt lat="40.81578" lon="20.01958">
        <ele>174.13999938965</ele>
        <time>2024-09-26T15:59:42.000Z</time>
      </trkpt>
      <trkpt lat="40.81572" lon="20.01954">
        <ele>174.13999938965</ele>
        <time>2024-09-26T15:59:43.000Z</time>
      </trkpt>
      <trkpt lat="40.81566" lon="20.0195">
        <ele>174.61999511719</ele>
        <time>2024-09-26T15:59:44.000Z</time>
      </trkpt>
      <trkpt lat="40.81562" lon="20.01946">
        <ele>174.61999511719</ele>
        <time>2024-09-26T15:59:45.000Z</time>
      </trkpt>
      <trkpt lat="40.81559" lon="20.01942">
        <ele>174.61999511719</ele>
        <time>2024-09-26T15:59:46.000Z</time>
      </trkpt>
      <trkpt lat="40.81556" lon="20.01937">
        <ele>174.13999938965</ele>
        <time>2024-09-26T15:59:47.000Z</time>
      </trkpt>
      <trkpt lat="40.81554" lon="20.01931">
        <ele>173.66000366211</ele>
        <time>2024-09-26T15:59:48.000Z</time>
      </trkpt>
      <trkpt lat="40.81554" lon="20.01924">
        <ele>173.16999816895</ele>
        <time>2024-09-26T15:59:49.000Z</time>
      </trkpt>
      <trkpt lat="40.81554" lon="20.01917">
        <ele>172.69000244141</ele>
        <time>2024-09-26T15:59:50.000Z</time>
      </trkpt>
      <trkpt lat="40.81555" lon="20.01907">
        <ele>172.21000671387</ele>
        <time>2024-09-26T15:59:51.000Z</time>
      </trkpt>
      <trkpt lat="40.81556" lon="20.01902">
        <ele>172.21000671387</ele>
        <time>2024-09-26T15:59:52.000Z</time>
      </trkpt>
      <trkpt lat="40.81557" lon="20.01896">
        <ele>171.72999572754</ele>
        <time>2024-09-26T15:59:53.000Z</time>
      </trkpt>
      <trkpt lat="40.81559" lon="20.01881">
        <ele>171.25</ele>
        <time>2024-09-26T15:59:54.000Z</time>
      </trkpt>
      <trkpt lat="40.81566" lon="20.01839">
        <ele>170.28999328613</ele>
        <time>2024-09-26T15:59:58.000Z</time>
      </trkpt>
      <trkpt lat="40.81568" lon="20.0183">
        <ele>169.80999755859</ele>
        <time>2024-09-26T15:59:59.000Z</time>
      </trkpt>
      <trkpt lat="40.81568" lon="20.01827">
        <ele>169.80999755859</ele>
        <time>2024-09-26T16:00:00.000Z</time>
      </trkpt>
      <trkpt lat="40.81571" lon="20.01816">
        <ele>170.28999328613</ele>
        <time>2024-09-26T16:00:01.000Z</time>
      </trkpt>
      <trkpt lat="40.81572" lon="20.01808">
        <ele>170.28999328613</ele>
        <time>2024-09-26T16:00:02.000Z</time>
      </trkpt>
      <trkpt lat="40.81574" lon="20.01792">
        <ele>169.80999755859</ele>
        <time>2024-09-26T16:00:03.000Z</time>
      </trkpt>
      <trkpt lat="40.81574" lon="20.01788">
        <ele>169.80999755859</ele>
        <time>2024-09-26T16:00:04.000Z</time>
      </trkpt>
      <trkpt lat="40.81574" lon="20.01779">
        <ele>169.33000183105</ele>
        <time>2024-09-26T16:00:05.000Z</time>
      </trkpt>
      <trkpt lat="40.81572" lon="20.01769">
        <ele>169.33000183105</ele>
        <time>2024-09-26T16:00:06.000Z</time>
      </trkpt>
      <trkpt lat="40.81569" lon="20.01759">
        <ele>169.33000183105</ele>
        <time>2024-09-26T16:00:07.000Z</time>
      </trkpt>
      <trkpt lat="40.81562" lon="20.01745">
        <ele>169.80999755859</ele>
        <time>2024-09-26T16:00:08.000Z</time>
      </trkpt>
      <trkpt lat="40.8156" lon="20.01739">
        <ele>169.80999755859</ele>
        <time>2024-09-26T16:00:09.000Z</time>
      </trkpt>
      <trkpt lat="40.81557" lon="20.01732">
        <ele>169.80999755859</ele>
        <time>2024-09-26T16:00:10.000Z</time>
      </trkpt>
      <trkpt lat="40.81553" lon="20.01723">
        <ele>169.80999755859</ele>
        <time>2024-09-26T16:00:11.000Z</time>
      </trkpt>
      <trkpt lat="40.81545" lon="20.01705">
        <ele>169.80999755859</ele>
        <time>2024-09-26T16:00:13.000Z</time>
      </trkpt>
      <trkpt lat="40.81544" lon="20.01701">
        <ele>169.80999755859</ele>
        <time>2024-09-26T16:00:14.000Z</time>
      </trkpt>
      <trkpt lat="40.8154" lon="20.01693">
        <ele>169.80999755859</ele>
        <time>2024-09-26T16:00:15.000Z</time>
      </trkpt>
      <trkpt lat="40.81531" lon="20.01673">
        <ele>169.80999755859</ele>
        <time>2024-09-26T16:00:18.000Z</time>
      </trkpt>
      <trkpt lat="40.81529" lon="20.01668">
        <ele>169.33000183105</ele>
        <time>2024-09-26T16:00:19.000Z</time>
      </trkpt>
      <trkpt lat="40.81524" lon="20.01654">
        <ele>169.33000183105</ele>
        <time>2024-09-26T16:00:21.000Z</time>
      </trkpt>
      <trkpt lat="40.81521" lon="20.01648">
        <ele>169.33000183105</ele>
        <time>2024-09-26T16:00:22.000Z</time>
      </trkpt>
      <trkpt lat="40.81518" lon="20.01642">
        <ele>169.33000183105</ele>
        <time>2024-09-26T16:00:23.000Z</time>
      </trkpt>
      <trkpt lat="40.81513" lon="20.01636">
        <ele>169.33000183105</ele>
        <time>2024-09-26T16:00:24.000Z</time>
      </trkpt>
      <trkpt lat="40.81506" lon="20.01629">
        <ele>169.80999755859</ele>
        <time>2024-09-26T16:00:25.000Z</time>
      </trkpt>
      <trkpt lat="40.81485" lon="20.01608">
        <ele>170.28999328613</ele>
        <time>2024-09-26T16:00:28.000Z</time>
      </trkpt>
      <trkpt lat="40.81476" lon="20.01598">
        <ele>170.28999328613</ele>
        <time>2024-09-26T16:00:30.000Z</time>
      </trkpt>
      <trkpt lat="40.81466" lon="20.01587">
        <ele>170.28999328613</ele>
        <time>2024-09-26T16:00:31.000Z</time>
      </trkpt>
      <trkpt lat="40.81464" lon="20.01586">
        <ele>169.80999755859</ele>
        <time>2024-09-26T16:00:32.000Z</time>
      </trkpt>
      <trkpt lat="40.81451" lon="20.01574">
        <ele>168.36999511719</ele>
        <time>2024-09-26T16:00:33.000Z</time>
      </trkpt>
      <trkpt lat="40.8145" lon="20.01573">
        <ele>168.36999511719</ele>
        <time>2024-09-26T16:00:34.000Z</time>
      </trkpt>
      <trkpt lat="40.81442" lon="20.01564">
        <ele>167.41000366211</ele>
        <time>2024-09-26T16:00:35.000Z</time>
      </trkpt>
      <trkpt lat="40.81426" lon="20.01537">
        <ele>165.47999572754</ele>
        <time>2024-09-26T16:00:37.000Z</time>
      </trkpt>
      <trkpt lat="40.81425" lon="20.01535">
        <ele>165.47999572754</ele>
        <time>2024-09-26T16:00:38.000Z</time>
      </trkpt>
      <trkpt lat="40.81419" lon="20.01523">
        <ele>164.52000427246</ele>
        <time>2024-09-26T16:00:39.000Z</time>
      </trkpt>
      <trkpt lat="40.81414" lon="20.01509">
        <ele>163.55999755859</ele>
        <time>2024-09-26T16:00:40.000Z</time>
      </trkpt>
      <trkpt lat="40.81408" lon="20.01484">
        <ele>162.60000610352</ele>
        <time>2024-09-26T16:00:42.000Z</time>
      </trkpt>
      <trkpt lat="40.81405" lon="20.01472">
        <ele>162.11999511719</ele>
        <time>2024-09-26T16:00:43.000Z</time>
      </trkpt>
      <trkpt lat="40.814" lon="20.01458">
        <ele>162.11999511719</ele>
        <time>2024-09-26T16:00:44.000Z</time>
      </trkpt>
      <trkpt lat="40.81398" lon="20.01454">
        <ele>162.11999511719</ele>
        <time>2024-09-26T16:00:45.000Z</time>
      </trkpt>
      <trkpt lat="40.81396" lon="20.01443">
        <ele>162.11999511719</ele>
        <time>2024-09-26T16:00:46.000Z</time>
      </trkpt>
      <trkpt lat="40.81394" lon="20.01432">
        <ele>162.11999511719</ele>
        <time>2024-09-26T16:00:47.000Z</time>
      </trkpt>
      <trkpt lat="40.81394" lon="20.01421">
        <ele>162.11999511719</ele>
        <time>2024-09-26T16:00:48.000Z</time>
      </trkpt>
      <trkpt lat="40.81394" lon="20.0141">
        <ele>162.11999511719</ele>
        <time>2024-09-26T16:00:49.000Z</time>
      </trkpt>
      <trkpt lat="40.81405" lon="20.01328">
        <ele>165</ele>
        <time>2024-09-26T16:00:55.000Z</time>
      </trkpt>
      <trkpt lat="40.81406" lon="20.0132">
        <ele>165</ele>
        <time>2024-09-26T16:00:56.000Z</time>
      </trkpt>
      <trkpt lat="40.81408" lon="20.01309">
        <ele>165</ele>
        <time>2024-09-26T16:00:57.000Z</time>
      </trkpt>
      <trkpt lat="40.81412" lon="20.01296">
        <ele>165</ele>
        <time>2024-09-26T16:00:58.000Z</time>
      </trkpt>
      <trkpt lat="40.81422" lon="20.01271">
        <ele>165.47999572754</ele>
        <time>2024-09-26T16:00:59.000Z</time>
      </trkpt>
      <trkpt lat="40.81423" lon="20.01268">
        <ele>165.47999572754</ele>
        <time>2024-09-26T16:01:00.000Z</time>
      </trkpt>
      <trkpt lat="40.81439" lon="20.01236">
        <ele>166.44999694824</ele>
        <time>2024-09-26T16:01:02.000Z</time>
      </trkpt>
      <trkpt lat="40.81449" lon="20.01215">
        <ele>166.92999267578</ele>
        <time>2024-09-26T16:01:04.000Z</time>
      </trkpt>
      <trkpt lat="40.81452" lon="20.01207">
        <ele>165.96000671387</ele>
        <time>2024-09-26T16:01:05.000Z</time>
      </trkpt>
      <trkpt lat="40.81454" lon="20.012">
        <ele>165.47999572754</ele>
        <time>2024-09-26T16:01:06.000Z</time>
      </trkpt>
      <trkpt lat="40.81455" lon="20.0119">
        <ele>165</ele>
        <time>2024-09-26T16:01:07.000Z</time>
      </trkpt>
      <trkpt lat="40.81454" lon="20.01181">
        <ele>164.52000427246</ele>
        <time>2024-09-26T16:01:08.000Z</time>
      </trkpt>
      <trkpt lat="40.81451" lon="20.01171">
        <ele>164.03999328613</ele>
        <time>2024-09-26T16:01:09.000Z</time>
      </trkpt>
      <trkpt lat="40.81446" lon="20.01159">
        <ele>163.55999755859</ele>
        <time>2024-09-26T16:01:10.000Z</time>
      </trkpt>
      <trkpt lat="40.81444" lon="20.01149">
        <ele>163.55999755859</ele>
        <time>2024-09-26T16:01:11.000Z</time>
      </trkpt>
      <trkpt lat="40.81443" lon="20.01138">
        <ele>163.55999755859</ele>
        <time>2024-09-26T16:01:12.000Z</time>
      </trkpt>
      <trkpt lat="40.81443" lon="20.01127">
        <ele>163.08000183105</ele>
        <time>2024-09-26T16:01:13.000Z</time>
      </trkpt>
      <trkpt lat="40.81443" lon="20.01111">
        <ele>163.08000183105</ele>
        <time>2024-09-26T16:01:14.000Z</time>
      </trkpt>
      <trkpt lat="40.81445" lon="20.01095">
        <ele>163.08000183105</ele>
        <time>2024-09-26T16:01:15.000Z</time>
      </trkpt>
      <trkpt lat="40.81446" lon="20.01086">
        <ele>162.60000610352</ele>
        <time>2024-09-26T16:01:16.000Z</time>
      </trkpt>
      <trkpt lat="40.81447" lon="20.0108">
        <ele>162.60000610352</ele>
        <time>2024-09-26T16:01:17.000Z</time>
      </trkpt>
      <trkpt lat="40.81449" lon="20.0107">
        <ele>162.60000610352</ele>
        <time>2024-09-26T16:01:18.000Z</time>
      </trkpt>
      <trkpt lat="40.81453" lon="20.0106">
        <ele>162.60000610352</ele>
        <time>2024-09-26T16:01:19.000Z</time>
      </trkpt>
      <trkpt lat="40.81459" lon="20.0105">
        <ele>162.11999511719</ele>
        <time>2024-09-26T16:01:20.000Z</time>
      </trkpt>
      <trkpt lat="40.81469" lon="20.01036">
        <ele>161.63999938965</ele>
        <time>2024-09-26T16:01:21.000Z</time>
      </trkpt>
      <trkpt lat="40.81475" lon="20.01029">
        <ele>161.16000366211</ele>
        <time>2024-09-26T16:01:22.000Z</time>
      </trkpt>
      <trkpt lat="40.81493" lon="20.0101">
        <ele>160.67999267578</ele>
        <time>2024-09-26T16:01:24.000Z</time>
      </trkpt>
      <trkpt lat="40.81497" lon="20.01005">
        <ele>160.19999694824</ele>
        <time>2024-09-26T16:01:25.000Z</time>
      </trkpt>
      <trkpt lat="40.81505" lon="20.00993">
        <ele>160.19999694824</ele>
        <time>2024-09-26T16:01:26.000Z</time>
      </trkpt>
      <trkpt lat="40.81511" lon="20.00982">
        <ele>160.19999694824</ele>
        <time>2024-09-26T16:01:27.000Z</time>
      </trkpt>
      <trkpt lat="40.81516" lon="20.0097">
        <ele>160.19999694824</ele>
        <time>2024-09-26T16:01:28.000Z</time>
      </trkpt>
      <trkpt lat="40.81522" lon="20.00953">
        <ele>159.7200012207</ele>
        <time>2024-09-26T16:01:29.000Z</time>
      </trkpt>
      <trkpt lat="40.81525" lon="20.00941">
        <ele>159.7200012207</ele>
        <time>2024-09-26T16:01:30.000Z</time>
      </trkpt>
      <trkpt lat="40.81531" lon="20.00901">
        <ele>158.75</ele>
        <time>2024-09-26T16:01:32.000Z</time>
      </trkpt>
      <trkpt lat="40.81532" lon="20.00889">
        <ele>158.27000427246</ele>
        <time>2024-09-26T16:01:33.000Z</time>
      </trkpt>
      <trkpt lat="40.81532" lon="20.00885">
        <ele>158.27000427246</ele>
        <time>2024-09-26T16:01:34.000Z</time>
      </trkpt>
      <trkpt lat="40.81531" lon="20.00872">
        <ele>158.27000427246</ele>
        <time>2024-09-26T16:01:35.000Z</time>
      </trkpt>
      <trkpt lat="40.81528" lon="20.00862">
        <ele>158.75</ele>
        <time>2024-09-26T16:01:36.000Z</time>
      </trkpt>
      <trkpt lat="40.81524" lon="20.0085">
        <ele>158.75</ele>
        <time>2024-09-26T16:01:37.000Z</time>
      </trkpt>
      <trkpt lat="40.8152" lon="20.00837">
        <ele>158.75</ele>
        <time>2024-09-26T16:01:38.000Z</time>
      </trkpt>
      <trkpt lat="40.81517" lon="20.0082">
        <ele>158.27000427246</ele>
        <time>2024-09-26T16:01:39.000Z</time>
      </trkpt>
      <trkpt lat="40.81517" lon="20.00813">
        <ele>157.78999328613</ele>
        <time>2024-09-26T16:01:40.000Z</time>
      </trkpt>
      <trkpt lat="40.81517" lon="20.00802">
        <ele>157.30999755859</ele>
        <time>2024-09-26T16:01:41.000Z</time>
      </trkpt>
      <trkpt lat="40.81518" lon="20.00788">
        <ele>156.83000183105</ele>
        <time>2024-09-26T16:01:42.000Z</time>
      </trkpt>
      <trkpt lat="40.81525" lon="20.00747">
        <ele>155.86999511719</ele>
        <time>2024-09-26T16:01:45.000Z</time>
      </trkpt>
      <trkpt lat="40.81526" lon="20.00733">
        <ele>155.38999938965</ele>
        <time>2024-09-26T16:01:46.000Z</time>
      </trkpt>
      <trkpt lat="40.81527" lon="20.00721">
        <ele>155.38999938965</ele>
        <time>2024-09-26T16:01:47.000Z</time>
      </trkpt>
      <trkpt lat="40.81525" lon="20.00688">
        <ele>155.38999938965</ele>
        <time>2024-09-26T16:01:49.000Z</time>
      </trkpt>
      <trkpt lat="40.81523" lon="20.00645">
        <ele>154.91000366211</ele>
        <time>2024-09-26T16:01:52.000Z</time>
      </trkpt>
      <trkpt lat="40.8152" lon="20.00588">
        <ele>151.53999328613</ele>
        <time>2024-09-26T16:01:56.000Z</time>
      </trkpt>
      <trkpt lat="40.81518" lon="20.00563">
        <ele>150.58000183105</ele>
        <time>2024-09-26T16:01:58.000Z</time>
      </trkpt>
      <trkpt lat="40.81514" lon="20.00533">
        <ele>149.61999511719</ele>
        <time>2024-09-26T16:02:01.000Z</time>
      </trkpt>
      <trkpt lat="40.81513" lon="20.0044">
        <ele>147.69999694824</ele>
        <time>2024-09-26T16:02:09.000Z</time>
      </trkpt>
      <trkpt lat="40.81513" lon="20.00424">
        <ele>148.17999267578</ele>
        <time>2024-09-26T16:02:10.000Z</time>
      </trkpt>
      <trkpt lat="40.81513" lon="20.00408">
        <ele>148.17999267578</ele>
        <time>2024-09-26T16:02:12.000Z</time>
      </trkpt>
      <trkpt lat="40.81514" lon="20.00393">
        <ele>148.17999267578</ele>
        <time>2024-09-26T16:02:13.000Z</time>
      </trkpt>
      <trkpt lat="40.81514" lon="20.00391">
        <ele>148.17999267578</ele>
        <time>2024-09-26T16:02:14.000Z</time>
      </trkpt>
      <trkpt lat="40.81516" lon="20.00373">
        <ele>148.17999267578</ele>
        <time>2024-09-26T16:02:16.000Z</time>
      </trkpt>
      <trkpt lat="40.81516" lon="20.00363">
        <ele>148.17999267578</ele>
        <time>2024-09-26T16:02:17.000Z</time>
      </trkpt>
      <trkpt lat="40.81516" lon="20.00345">
        <ele>148.17999267578</ele>
        <time>2024-09-26T16:02:18.000Z</time>
      </trkpt>
      <trkpt lat="40.81515" lon="20.00339">
        <ele>148.17999267578</ele>
        <time>2024-09-26T16:02:19.000Z</time>
      </trkpt>
      <trkpt lat="40.81516" lon="20.00327">
        <ele>148.17999267578</ele>
        <time>2024-09-26T16:02:20.000Z</time>
      </trkpt>
      <trkpt lat="40.81517" lon="20.00318">
        <ele>148.17999267578</ele>
        <time>2024-09-26T16:02:21.000Z</time>
      </trkpt>
      <trkpt lat="40.81519" lon="20.00308">
        <ele>147.69999694824</ele>
        <time>2024-09-26T16:02:22.000Z</time>
      </trkpt>
      <trkpt lat="40.81524" lon="20.00299">
        <ele>147.2200012207</ele>
        <time>2024-09-26T16:02:23.000Z</time>
      </trkpt>
      <trkpt lat="40.81529" lon="20.00293">
        <ele>146.74000549316</ele>
        <time>2024-09-26T16:02:24.000Z</time>
      </trkpt>
      <trkpt lat="40.81535" lon="20.00286">
        <ele>146.74000549316</ele>
        <time>2024-09-26T16:02:26.000Z</time>
      </trkpt>
      <trkpt lat="40.81547" lon="20.00277">
        <ele>146.74000549316</ele>
        <time>2024-09-26T16:02:34.000Z</time>
      </trkpt>
      <trkpt lat="40.81553" lon="20.00273">
        <ele>147.2200012207</ele>
        <time>2024-09-26T16:02:43.000Z</time>
      </trkpt>
      <trkpt lat="40.81556" lon="20.00271">
        <ele>147.2200012207</ele>
        <time>2024-09-26T16:02:44.000Z</time>
      </trkpt>
      <trkpt lat="40.8156" lon="20.00268">
        <ele>147.2200012207</ele>
        <time>2024-09-26T16:02:45.000Z</time>
      </trkpt>
      <trkpt lat="40.81567" lon="20.00262">
        <ele>147.2200012207</ele>
        <time>2024-09-26T16:02:46.000Z</time>
      </trkpt>
      <trkpt lat="40.8157" lon="20.00259">
        <ele>147.2200012207</ele>
        <time>2024-09-26T16:02:47.000Z</time>
      </trkpt>
      <trkpt lat="40.81575" lon="20.00254">
        <ele>147.2200012207</ele>
        <time>2024-09-26T16:02:48.000Z</time>
      </trkpt>
      <trkpt lat="40.81579" lon="20.00246">
        <ele>147.2200012207</ele>
        <time>2024-09-26T16:02:49.000Z</time>
      </trkpt>
      <trkpt lat="40.81585" lon="20.0023">
        <ele>146.74000549316</ele>
        <time>2024-09-26T16:02:51.000Z</time>
      </trkpt>
      <trkpt lat="40.81588" lon="20.00219">
        <ele>146.74000549316</ele>
        <time>2024-09-26T16:02:52.000Z</time>
      </trkpt>
      <trkpt lat="40.8159" lon="20.00206">
        <ele>147.2200012207</ele>
        <time>2024-09-26T16:02:53.000Z</time>
      </trkpt>
      <trkpt lat="40.81593" lon="20.00191">
        <ele>147.2200012207</ele>
        <time>2024-09-26T16:02:54.000Z</time>
      </trkpt>
      <trkpt lat="40.81595" lon="20.0018">
        <ele>147.69999694824</ele>
        <time>2024-09-26T16:02:55.000Z</time>
      </trkpt>
      <trkpt lat="40.81596" lon="20.00173">
        <ele>147.69999694824</ele>
        <time>2024-09-26T16:02:56.000Z</time>
      </trkpt>
      <trkpt lat="40.81597" lon="20.00167">
        <ele>147.69999694824</ele>
        <time>2024-09-26T16:02:57.000Z</time>
      </trkpt>
      <trkpt lat="40.81597" lon="20.0016">
        <ele>147.69999694824</ele>
        <time>2024-09-26T16:02:58.000Z</time>
      </trkpt>
      <trkpt lat="40.81599" lon="20.00143">
        <ele>147.69999694824</ele>
        <time>2024-09-26T16:03:00.000Z</time>
      </trkpt>
      <trkpt lat="40.81599" lon="20.00134">
        <ele>148.17999267578</ele>
        <time>2024-09-26T16:03:01.000Z</time>
      </trkpt>
      <trkpt lat="40.81603" lon="20.00079">
        <ele>148.66000366211</ele>
        <time>2024-09-26T16:03:06.000Z</time>
      </trkpt>
      <trkpt lat="40.81604" lon="20.00068">
        <ele>148.17999267578</ele>
        <time>2024-09-26T16:03:07.000Z</time>
      </trkpt>
      <trkpt lat="40.81604" lon="20.00065">
        <ele>148.17999267578</ele>
        <time>2024-09-26T16:03:08.000Z</time>
      </trkpt>
      <trkpt lat="40.81605" lon="20.00054">
        <ele>148.17999267578</ele>
        <time>2024-09-26T16:03:09.000Z</time>
      </trkpt>
      <trkpt lat="40.81605" lon="20.00024">
        <ele>147.2200012207</ele>
        <time>2024-09-26T16:03:11.000Z</time>
      </trkpt>
      <trkpt lat="40.81606" lon="20.00014">
        <ele>147.2200012207</ele>
        <time>2024-09-26T16:03:12.000Z</time>
      </trkpt>
      <trkpt lat="40.81607" lon="20.00006">
        <ele>147.2200012207</ele>
        <time>2024-09-26T16:03:13.000Z</time>
      </trkpt>
      <trkpt lat="40.81612" lon="19.99979">
        <ele>146.74000549316</ele>
        <time>2024-09-26T16:03:15.000Z</time>
      </trkpt>
      <trkpt lat="40.81621" lon="19.99934">
        <ele>146.25999450684</ele>
        <time>2024-09-26T16:03:18.000Z</time>
      </trkpt>
      <trkpt lat="40.81625" lon="19.99923">
        <ele>146.25999450684</ele>
        <time>2024-09-26T16:03:19.000Z</time>
      </trkpt>
      <trkpt lat="40.81628" lon="19.99913">
        <ele>146.25999450684</ele>
        <time>2024-09-26T16:03:20.000Z</time>
      </trkpt>
      <trkpt lat="40.81632" lon="19.99902">
        <ele>145.7799987793</ele>
        <time>2024-09-26T16:03:21.000Z</time>
      </trkpt>
      <trkpt lat="40.81637" lon="19.99889">
        <ele>145.7799987793</ele>
        <time>2024-09-26T16:03:22.000Z</time>
      </trkpt>
      <trkpt lat="40.81642" lon="19.99881">
        <ele>145.30000305176</ele>
        <time>2024-09-26T16:03:23.000Z</time>
      </trkpt>
      <trkpt lat="40.81648" lon="19.99872">
        <ele>145.30000305176</ele>
        <time>2024-09-26T16:03:24.000Z</time>
      </trkpt>
      <trkpt lat="40.81663" lon="19.99854">
        <ele>143.85000610352</ele>
        <time>2024-09-26T16:03:26.000Z</time>
      </trkpt>
      <trkpt lat="40.81668" lon="19.99847">
        <ele>143.36999511719</ele>
        <time>2024-09-26T16:03:27.000Z</time>
      </trkpt>
      <trkpt lat="40.81672" lon="19.9984">
        <ele>143.36999511719</ele>
        <time>2024-09-26T16:03:28.000Z</time>
      </trkpt>
      <trkpt lat="40.81675" lon="19.99832">
        <ele>142.88999938965</ele>
        <time>2024-09-26T16:03:29.000Z</time>
      </trkpt>
      <trkpt lat="40.81676" lon="19.99823">
        <ele>142.41000366211</ele>
        <time>2024-09-26T16:03:30.000Z</time>
      </trkpt>
      <trkpt lat="40.81676" lon="19.99812">
        <ele>141.92999267578</ele>
        <time>2024-09-26T16:03:31.000Z</time>
      </trkpt>
      <trkpt lat="40.81676" lon="19.99799">
        <ele>141.44999694824</ele>
        <time>2024-09-26T16:03:32.000Z</time>
      </trkpt>
      <trkpt lat="40.81676" lon="19.9978">
        <ele>140.9700012207</ele>
        <time>2024-09-26T16:03:33.000Z</time>
      </trkpt>
      <trkpt lat="40.81676" lon="19.99775">
        <ele>140.9700012207</ele>
        <time>2024-09-26T16:03:34.000Z</time>
      </trkpt>
      <trkpt lat="40.81683" lon="19.99732">
        <ele>140.49000549316</ele>
        <time>2024-09-26T16:03:37.000Z</time>
      </trkpt>
      <trkpt lat="40.81685" lon="19.99716">
        <ele>140.49000549316</ele>
        <time>2024-09-26T16:03:38.000Z</time>
      </trkpt>
      <trkpt lat="40.81686" lon="19.99709">
        <ele>140.9700012207</ele>
        <time>2024-09-26T16:03:39.000Z</time>
      </trkpt>
      <trkpt lat="40.81687" lon="19.99702">
        <ele>140.9700012207</ele>
        <time>2024-09-26T16:03:40.000Z</time>
      </trkpt>
      <trkpt lat="40.81689" lon="19.99692">
        <ele>140.9700012207</ele>
        <time>2024-09-26T16:03:41.000Z</time>
      </trkpt>
      <trkpt lat="40.81691" lon="19.99684">
        <ele>141.44999694824</ele>
        <time>2024-09-26T16:03:42.000Z</time>
      </trkpt>
      <trkpt lat="40.81693" lon="19.99679">
        <ele>141.44999694824</ele>
        <time>2024-09-26T16:03:43.000Z</time>
      </trkpt>
      <trkpt lat="40.81695" lon="19.99674">
        <ele>141.44999694824</ele>
        <time>2024-09-26T16:03:44.000Z</time>
      </trkpt>
      <trkpt lat="40.81701" lon="19.99656">
        <ele>141.92999267578</ele>
        <time>2024-09-26T16:03:48.000Z</time>
      </trkpt>
      <trkpt lat="40.81702" lon="19.99647">
        <ele>142.41000366211</ele>
        <time>2024-09-26T16:03:49.000Z</time>
      </trkpt>
      <trkpt lat="40.81705" lon="19.99634">
        <ele>141.92999267578</ele>
        <time>2024-09-26T16:03:55.000Z</time>
      </trkpt>
      <trkpt lat="40.81702" lon="19.99605">
        <ele>140.9700012207</ele>
        <time>2024-09-26T16:04:03.000Z</time>
      </trkpt>
      <trkpt lat="40.81701" lon="19.99586">
        <ele>140.49000549316</ele>
        <time>2024-09-26T16:04:11.000Z</time>
      </trkpt>
      <trkpt lat="40.81701" lon="19.99583">
        <ele>140.49000549316</ele>
        <time>2024-09-26T16:04:12.000Z</time>
      </trkpt>
      <trkpt lat="40.817" lon="19.99575">
        <ele>140.00999450684</ele>
        <time>2024-09-26T16:04:13.000Z</time>
      </trkpt>
      <trkpt lat="40.81699" lon="19.99566">
        <ele>140.00999450684</ele>
        <time>2024-09-26T16:04:14.000Z</time>
      </trkpt>
      <trkpt lat="40.81697" lon="19.99537">
        <ele>139.05000305176</ele>
        <time>2024-09-26T16:04:17.000Z</time>
      </trkpt>
      <trkpt lat="40.81696" lon="19.99526">
        <ele>139.05000305176</ele>
        <time>2024-09-26T16:04:18.000Z</time>
      </trkpt>
      <trkpt lat="40.81694" lon="19.99513">
        <ele>138.57000732422</ele>
        <time>2024-09-26T16:04:19.000Z</time>
      </trkpt>
      <trkpt lat="40.81691" lon="19.99501">
        <ele>138.57000732422</ele>
        <time>2024-09-26T16:04:20.000Z</time>
      </trkpt>
      <trkpt lat="40.81683" lon="19.99476">
        <ele>138.57000732422</ele>
        <time>2024-09-26T16:04:22.000Z</time>
      </trkpt>
      <trkpt lat="40.81683" lon="19.99474">
        <ele>138.57000732422</ele>
        <time>2024-09-26T16:04:23.000Z</time>
      </trkpt>
      <trkpt lat="40.81681" lon="19.99463">
        <ele>138.08999633789</ele>
        <time>2024-09-26T16:04:24.000Z</time>
      </trkpt>
      <trkpt lat="40.8168" lon="19.99455">
        <ele>138.57000732422</ele>
        <time>2024-09-26T16:04:25.000Z</time>
      </trkpt>
      <trkpt lat="40.81681" lon="19.99448">
        <ele>138.57000732422</ele>
        <time>2024-09-26T16:04:26.000Z</time>
      </trkpt>
      <trkpt lat="40.81684" lon="19.99442">
        <ele>139.05000305176</ele>
        <time>2024-09-26T16:04:27.000Z</time>
      </trkpt>
      <trkpt lat="40.81687" lon="19.99434">
        <ele>139.5299987793</ele>
        <time>2024-09-26T16:04:28.000Z</time>
      </trkpt>
      <trkpt lat="40.81692" lon="19.99418">
        <ele>139.05000305176</ele>
        <time>2024-09-26T16:04:29.000Z</time>
      </trkpt>
      <trkpt lat="40.81693" lon="19.99415">
        <ele>139.05000305176</ele>
        <time>2024-09-26T16:04:30.000Z</time>
      </trkpt>
      <trkpt lat="40.81694" lon="19.99407">
        <ele>138.57000732422</ele>
        <time>2024-09-26T16:04:31.000Z</time>
      </trkpt>
      <trkpt lat="40.81695" lon="19.99397">
        <ele>138.08999633789</ele>
        <time>2024-09-26T16:04:32.000Z</time>
      </trkpt>
      <trkpt lat="40.81695" lon="19.99388">
        <ele>137.61000061035</ele>
        <time>2024-09-26T16:04:33.000Z</time>
      </trkpt>
      <trkpt lat="40.81692" lon="19.99363">
        <ele>136.63999938965</ele>
        <time>2024-09-26T16:04:35.000Z</time>
      </trkpt>
      <trkpt lat="40.8169" lon="19.99351">
        <ele>136.16000366211</ele>
        <time>2024-09-26T16:04:36.000Z</time>
      </trkpt>
      <trkpt lat="40.81689" lon="19.99344">
        <ele>136.16000366211</ele>
        <time>2024-09-26T16:04:37.000Z</time>
      </trkpt>
      <trkpt lat="40.81687" lon="19.99316">
        <ele>134.7200012207</ele>
        <time>2024-09-26T16:04:39.000Z</time>
      </trkpt>
      <trkpt lat="40.81686" lon="19.99299">
        <ele>134.24000549316</ele>
        <time>2024-09-26T16:04:41.000Z</time>
      </trkpt>
      <trkpt lat="40.81685" lon="19.99293">
        <ele>133.75999450684</ele>
        <time>2024-09-26T16:04:42.000Z</time>
      </trkpt>
      <trkpt lat="40.81682" lon="19.99286">
        <ele>133.2799987793</ele>
        <time>2024-09-26T16:04:43.000Z</time>
      </trkpt>
      <trkpt lat="40.81677" lon="19.99278">
        <ele>132.80000305176</ele>
        <time>2024-09-26T16:04:44.000Z</time>
      </trkpt>
      <trkpt lat="40.81673" lon="19.99271">
        <ele>132.32000732422</ele>
        <time>2024-09-26T16:04:45.000Z</time>
      </trkpt>
      <trkpt lat="40.81664" lon="19.9926">
        <ele>130.88000488281</ele>
        <time>2024-09-26T16:04:46.000Z</time>
      </trkpt>
      <trkpt lat="40.81663" lon="19.99258">
        <ele>130.88000488281</ele>
        <time>2024-09-26T16:04:47.000Z</time>
      </trkpt>
      <trkpt lat="40.81655" lon="19.99251">
        <ele>129.91999816895</ele>
        <time>2024-09-26T16:04:48.000Z</time>
      </trkpt>
      <trkpt lat="40.8165" lon="19.99247">
        <ele>128.94999694824</ele>
        <time>2024-09-26T16:04:49.000Z</time>
      </trkpt>
      <trkpt lat="40.81642" lon="19.99241">
        <ele>127.98999786377</ele>
        <time>2024-09-26T16:04:50.000Z</time>
      </trkpt>
      <trkpt lat="40.81634" lon="19.99238">
        <ele>127.0299987793</ele>
        <time>2024-09-26T16:04:51.000Z</time>
      </trkpt>
      <trkpt lat="40.81614" lon="19.99233">
        <ele>125.11000061035</ele>
        <time>2024-09-26T16:04:53.000Z</time>
      </trkpt>
      <trkpt lat="40.81604" lon="19.9923">
        <ele>124.15000152588</ele>
        <time>2024-09-26T16:04:54.000Z</time>
      </trkpt>
      <trkpt lat="40.81596" lon="19.99226">
        <ele>123.66999816895</ele>
        <time>2024-09-26T16:04:55.000Z</time>
      </trkpt>
      <trkpt lat="40.8159" lon="19.99224">
        <ele>123.19000244141</ele>
        <time>2024-09-26T16:04:56.000Z</time>
      </trkpt>
      <trkpt lat="40.81583" lon="19.99219">
        <ele>122.70999908447</ele>
        <time>2024-09-26T16:04:57.000Z</time>
      </trkpt>
      <trkpt lat="40.81576" lon="19.99212">
        <ele>122.70999908447</ele>
        <time>2024-09-26T16:04:58.000Z</time>
      </trkpt>
      <trkpt lat="40.8157" lon="19.99204">
        <ele>122.2200012207</ele>
        <time>2024-09-26T16:04:59.000Z</time>
      </trkpt>
      <trkpt lat="40.81566" lon="19.99195">
        <ele>122.2200012207</ele>
        <time>2024-09-26T16:05:00.000Z</time>
      </trkpt>
      <trkpt lat="40.81558" lon="19.99174">
        <ele>122.70999908447</ele>
        <time>2024-09-26T16:05:01.000Z</time>
      </trkpt>
      <trkpt lat="40.81556" lon="19.99168">
        <ele>122.70999908447</ele>
        <time>2024-09-26T16:05:02.000Z</time>
      </trkpt>
      <trkpt lat="40.81548" lon="19.99145">
        <ele>122.70999908447</ele>
        <time>2024-09-26T16:05:04.000Z</time>
      </trkpt>
      <trkpt lat="40.81522" lon="19.99076">
        <ele>122.2200012207</ele>
        <time>2024-09-26T16:05:09.000Z</time>
      </trkpt>
      <trkpt lat="40.81521" lon="19.99074">
        <ele>122.2200012207</ele>
        <time>2024-09-26T16:05:10.000Z</time>
      </trkpt>
      <trkpt lat="40.81516" lon="19.99064">
        <ele>122.2200012207</ele>
        <time>2024-09-26T16:05:11.000Z</time>
      </trkpt>
      <trkpt lat="40.81509" lon="19.99056">
        <ele>121.73999786377</ele>
        <time>2024-09-26T16:05:12.000Z</time>
      </trkpt>
      <trkpt lat="40.81475" lon="19.99022">
        <ele>120.30000305176</ele>
        <time>2024-09-26T16:05:15.000Z</time>
      </trkpt>
      <trkpt lat="40.81472" lon="19.99019">
        <ele>120.30000305176</ele>
        <time>2024-09-26T16:05:16.000Z</time>
      </trkpt>
      <trkpt lat="40.81454" lon="19.98991">
        <ele>119.33999633789</ele>
        <time>2024-09-26T16:05:18.000Z</time>
      </trkpt>
      <trkpt lat="40.81451" lon="19.98988">
        <ele>119.33999633789</ele>
        <time>2024-09-26T16:05:19.000Z</time>
      </trkpt>
      <trkpt lat="40.81444" lon="19.98979">
        <ele>118.86000061035</ele>
        <time>2024-09-26T16:05:20.000Z</time>
      </trkpt>
      <trkpt lat="40.81435" lon="19.9897">
        <ele>118.86000061035</ele>
        <time>2024-09-26T16:05:21.000Z</time>
      </trkpt>
      <trkpt lat="40.81426" lon="19.98962">
        <ele>118.86000061035</ele>
        <time>2024-09-26T16:05:22.000Z</time>
      </trkpt>
      <trkpt lat="40.81415" lon="19.98955">
        <ele>118.86000061035</ele>
        <time>2024-09-26T16:05:23.000Z</time>
      </trkpt>
      <trkpt lat="40.81387" lon="19.98943">
        <ele>118.37999725342</ele>
        <time>2024-09-26T16:05:25.000Z</time>
      </trkpt>
      <trkpt lat="40.8138" lon="19.98939">
        <ele>117.90000152588</ele>
        <time>2024-09-26T16:05:26.000Z</time>
      </trkpt>
      <trkpt lat="40.81369" lon="19.98932">
        <ele>117.90000152588</ele>
        <time>2024-09-26T16:05:27.000Z</time>
      </trkpt>
      <trkpt lat="40.81357" lon="19.98923">
        <ele>117.90000152588</ele>
        <time>2024-09-26T16:05:28.000Z</time>
      </trkpt>
      <trkpt lat="40.81351" lon="19.98917">
        <ele>117.90000152588</ele>
        <time>2024-09-26T16:05:29.000Z</time>
      </trkpt>
      <trkpt lat="40.81338" lon="19.98904">
        <ele>118.37999725342</ele>
        <time>2024-09-26T16:05:30.000Z</time>
      </trkpt>
      <trkpt lat="40.81336" lon="19.98903">
        <ele>118.37999725342</ele>
        <time>2024-09-26T16:05:31.000Z</time>
      </trkpt>
      <trkpt lat="40.81328" lon="19.98897">
        <ele>118.86000061035</ele>
        <time>2024-09-26T16:05:32.000Z</time>
      </trkpt>
      <trkpt lat="40.8132" lon="19.98895">
        <ele>119.33999633789</ele>
        <time>2024-09-26T16:05:33.000Z</time>
      </trkpt>
      <trkpt lat="40.81312" lon="19.98894">
        <ele>119.81999969482</ele>
        <time>2024-09-26T16:05:34.000Z</time>
      </trkpt>
      <trkpt lat="40.81305" lon="19.98895">
        <ele>119.33999633789</ele>
        <time>2024-09-26T16:05:35.000Z</time>
      </trkpt>
      <trkpt lat="40.81297" lon="19.98894">
        <ele>118.37999725342</ele>
        <time>2024-09-26T16:05:36.000Z</time>
      </trkpt>
      <trkpt lat="40.81289" lon="19.9889">
        <ele>117.90000152588</ele>
        <time>2024-09-26T16:05:37.000Z</time>
      </trkpt>
      <trkpt lat="40.81281" lon="19.98884">
        <ele>117.41999816895</ele>
        <time>2024-09-26T16:05:38.000Z</time>
      </trkpt>
      <trkpt lat="40.81276" lon="19.98874">
        <ele>116.94000244141</ele>
        <time>2024-09-26T16:05:39.000Z</time>
      </trkpt>
      <trkpt lat="40.81271" lon="19.98864">
        <ele>116.45999908447</ele>
        <time>2024-09-26T16:05:40.000Z</time>
      </trkpt>
      <trkpt lat="40.81268" lon="19.98852">
        <ele>116.45999908447</ele>
        <time>2024-09-26T16:05:41.000Z</time>
      </trkpt>
      <trkpt lat="40.81263" lon="19.98822">
        <ele>115.98000335693</ele>
        <time>2024-09-26T16:05:43.000Z</time>
      </trkpt>
      <trkpt lat="40.81256" lon="19.98785">
        <ele>115.5</ele>
        <time>2024-09-26T16:05:45.000Z</time>
      </trkpt>
      <trkpt lat="40.81249" lon="19.98727">
        <ele>115.01000213623</ele>
        <time>2024-09-26T16:05:48.000Z</time>
      </trkpt>
      <trkpt lat="40.81244" lon="19.98645">
        <ele>116.45999908447</ele>
        <time>2024-09-26T16:05:53.000Z</time>
      </trkpt>
      <trkpt lat="40.81243" lon="19.98634">
        <ele>116.45999908447</ele>
        <time>2024-09-26T16:05:54.000Z</time>
      </trkpt>
      <trkpt lat="40.8124" lon="19.98621">
        <ele>116.45999908447</ele>
        <time>2024-09-26T16:05:55.000Z</time>
      </trkpt>
      <trkpt lat="40.81234" lon="19.98611">
        <ele>116.45999908447</ele>
        <time>2024-09-26T16:05:56.000Z</time>
      </trkpt>
      <trkpt lat="40.81227" lon="19.98601">
        <ele>116.94000244141</ele>
        <time>2024-09-26T16:05:57.000Z</time>
      </trkpt>
      <trkpt lat="40.81218" lon="19.98593">
        <ele>116.94000244141</ele>
        <time>2024-09-26T16:05:58.000Z</time>
      </trkpt>
      <trkpt lat="40.81186" lon="19.98573">
        <ele>117.41999816895</ele>
        <time>2024-09-26T16:06:01.000Z</time>
      </trkpt>
      <trkpt lat="40.81174" lon="19.98567">
        <ele>117.41999816895</ele>
        <time>2024-09-26T16:06:02.000Z</time>
      </trkpt>
      <trkpt lat="40.81162" lon="19.98563">
        <ele>117.90000152588</ele>
        <time>2024-09-26T16:06:03.000Z</time>
      </trkpt>
      <trkpt lat="40.81096" lon="19.98543">
        <ele>119.81999969482</ele>
        <time>2024-09-26T16:06:08.000Z</time>
      </trkpt>
      <trkpt lat="40.81047" lon="19.98534">
        <ele>120.7799987793</ele>
        <time>2024-09-26T16:06:14.000Z</time>
      </trkpt>
      <trkpt lat="40.81034" lon="19.9853">
        <ele>120.7799987793</ele>
        <time>2024-09-26T16:06:15.000Z</time>
      </trkpt>
      <trkpt lat="40.81026" lon="19.98526">
        <ele>120.7799987793</ele>
        <time>2024-09-26T16:06:16.000Z</time>
      </trkpt>
      <trkpt lat="40.81002" lon="19.98513">
        <ele>121.73999786377</ele>
        <time>2024-09-26T16:06:18.000Z</time>
      </trkpt>
      <trkpt lat="40.80993" lon="19.98508">
        <ele>122.2200012207</ele>
        <time>2024-09-26T16:06:19.000Z</time>
      </trkpt>
      <trkpt lat="40.80982" lon="19.98505">
        <ele>122.70999908447</ele>
        <time>2024-09-26T16:06:20.000Z</time>
      </trkpt>
      <trkpt lat="40.80972" lon="19.98503">
        <ele>123.19000244141</ele>
        <time>2024-09-26T16:06:21.000Z</time>
      </trkpt>
      <trkpt lat="40.80963" lon="19.98502">
        <ele>123.66999816895</ele>
        <time>2024-09-26T16:06:22.000Z</time>
      </trkpt>
      <trkpt lat="40.8095" lon="19.98498">
        <ele>124.15000152588</ele>
        <time>2024-09-26T16:06:23.000Z</time>
      </trkpt>
      <trkpt lat="40.80941" lon="19.98495">
        <ele>124.62999725342</ele>
        <time>2024-09-26T16:06:24.000Z</time>
      </trkpt>
      <trkpt lat="40.80934" lon="19.98492">
        <ele>125.11000061035</ele>
        <time>2024-09-26T16:06:25.000Z</time>
      </trkpt>
      <trkpt lat="40.80919" lon="19.98485">
        <ele>126.06999969482</ele>
        <time>2024-09-26T16:06:26.000Z</time>
      </trkpt>
      <trkpt lat="40.80908" lon="19.98479">
        <ele>126.55000305176</ele>
        <time>2024-09-26T16:06:28.000Z</time>
      </trkpt>
      <trkpt lat="40.809" lon="19.98473">
        <ele>127.0299987793</ele>
        <time>2024-09-26T16:06:29.000Z</time>
      </trkpt>
      <trkpt lat="40.80891" lon="19.98464">
        <ele>127.51000213623</ele>
        <time>2024-09-26T16:06:30.000Z</time>
      </trkpt>
      <trkpt lat="40.80875" lon="19.98448">
        <ele>128.4700012207</ele>
        <time>2024-09-26T16:06:31.000Z</time>
      </trkpt>
      <trkpt lat="40.80872" lon="19.98444">
        <ele>128.4700012207</ele>
        <time>2024-09-26T16:06:32.000Z</time>
      </trkpt>
      <trkpt lat="40.80862" lon="19.98435">
        <ele>128.94999694824</ele>
        <time>2024-09-26T16:06:33.000Z</time>
      </trkpt>
      <trkpt lat="40.80852" lon="19.98427">
        <ele>128.4700012207</ele>
        <time>2024-09-26T16:06:34.000Z</time>
      </trkpt>
      <trkpt lat="40.80845" lon="19.98422">
        <ele>128.4700012207</ele>
        <time>2024-09-26T16:06:35.000Z</time>
      </trkpt>
      <trkpt lat="40.80834" lon="19.98417">
        <ele>128.4700012207</ele>
        <time>2024-09-26T16:06:36.000Z</time>
      </trkpt>
      <trkpt lat="40.80824" lon="19.98414">
        <ele>127.98999786377</ele>
        <time>2024-09-26T16:06:37.000Z</time>
      </trkpt>
      <trkpt lat="40.8081" lon="19.98411">
        <ele>127.98999786377</ele>
        <time>2024-09-26T16:06:38.000Z</time>
      </trkpt>
      <trkpt lat="40.80798" lon="19.9841">
        <ele>128.4700012207</ele>
        <time>2024-09-26T16:06:39.000Z</time>
      </trkpt>
      <trkpt lat="40.80768" lon="19.98409">
        <ele>128.94999694824</ele>
        <time>2024-09-26T16:06:41.000Z</time>
      </trkpt>
      <trkpt lat="40.80732" lon="19.984">
        <ele>129.42999267578</ele>
        <time>2024-09-26T16:06:43.000Z</time>
      </trkpt>
      <trkpt lat="40.80727" lon="19.98399">
        <ele>129.42999267578</ele>
        <time>2024-09-26T16:06:44.000Z</time>
      </trkpt>
      <trkpt lat="40.80674" lon="19.98396">
        <ele>127.98999786377</ele>
        <time>2024-09-26T16:06:47.000Z</time>
      </trkpt>
      <trkpt lat="40.8067" lon="19.98396">
        <ele>127.98999786377</ele>
        <time>2024-09-26T16:06:48.000Z</time>
      </trkpt>
      <trkpt lat="40.80657" lon="19.98394">
        <ele>127.0299987793</ele>
        <time>2024-09-26T16:06:49.000Z</time>
      </trkpt>
      <trkpt lat="40.80646" lon="19.98388">
        <ele>127.51000213623</ele>
        <time>2024-09-26T16:06:50.000Z</time>
      </trkpt>
      <trkpt lat="40.80635" lon="19.98376">
        <ele>127.51000213623</ele>
        <time>2024-09-26T16:06:51.000Z</time>
      </trkpt>
      <trkpt lat="40.8063" lon="19.98372">
        <ele>127.51000213623</ele>
        <time>2024-09-26T16:06:52.000Z</time>
      </trkpt>
      <trkpt lat="40.8062" lon="19.98364">
        <ele>127.51000213623</ele>
        <time>2024-09-26T16:06:53.000Z</time>
      </trkpt>
      <trkpt lat="40.80611" lon="19.98358">
        <ele>127.51000213623</ele>
        <time>2024-09-26T16:06:54.000Z</time>
      </trkpt>
      <trkpt lat="40.80599" lon="19.98353">
        <ele>126.55000305176</ele>
        <time>2024-09-26T16:06:55.000Z</time>
      </trkpt>
      <trkpt lat="40.80554" lon="19.98336">
        <ele>124.15000152588</ele>
        <time>2024-09-26T16:06:58.000Z</time>
      </trkpt>
      <trkpt lat="40.80549" lon="19.98333">
        <ele>123.66999816895</ele>
        <time>2024-09-26T16:06:59.000Z</time>
      </trkpt>
      <trkpt lat="40.80535" lon="19.98324">
        <ele>124.15000152588</ele>
        <time>2024-09-26T16:07:00.000Z</time>
      </trkpt>
      <trkpt lat="40.80513" lon="19.98308">
        <ele>123.66999816895</ele>
        <time>2024-09-26T16:07:02.000Z</time>
      </trkpt>
      <trkpt lat="40.80502" lon="19.98301">
        <ele>123.66999816895</ele>
        <time>2024-09-26T16:07:03.000Z</time>
      </trkpt>
      <trkpt lat="40.8047" lon="19.98287">
        <ele>123.19000244141</ele>
        <time>2024-09-26T16:07:05.000Z</time>
      </trkpt>
      <trkpt lat="40.80464" lon="19.98283">
        <ele>123.19000244141</ele>
        <time>2024-09-26T16:07:06.000Z</time>
      </trkpt>
      <trkpt lat="40.80455" lon="19.98278">
        <ele>122.70999908447</ele>
        <time>2024-09-26T16:07:07.000Z</time>
      </trkpt>
      <trkpt lat="40.80441" lon="19.9827">
        <ele>122.2200012207</ele>
        <time>2024-09-26T16:07:08.000Z</time>
      </trkpt>
      <trkpt lat="40.80432" lon="19.98264">
        <ele>121.73999786377</ele>
        <time>2024-09-26T16:07:09.000Z</time>
      </trkpt>
      <trkpt lat="40.80396" lon="19.98243">
        <ele>120.30000305176</ele>
        <time>2024-09-26T16:07:11.000Z</time>
      </trkpt>
      <trkpt lat="40.80379" lon="19.98233">
        <ele>119.33999633789</ele>
        <time>2024-09-26T16:07:13.000Z</time>
      </trkpt>
      <trkpt lat="40.80365" lon="19.98223">
        <ele>119.33999633789</ele>
        <time>2024-09-26T16:07:14.000Z</time>
      </trkpt>
      <trkpt lat="40.80354" lon="19.98212">
        <ele>118.86000061035</ele>
        <time>2024-09-26T16:07:15.000Z</time>
      </trkpt>
      <trkpt lat="40.80338" lon="19.98195">
        <ele>118.37999725342</ele>
        <time>2024-09-26T16:07:16.000Z</time>
      </trkpt>
      <trkpt lat="40.80328" lon="19.98186">
        <ele>117.90000152588</ele>
        <time>2024-09-26T16:07:17.000Z</time>
      </trkpt>
      <trkpt lat="40.80315" lon="19.98174">
        <ele>117.90000152588</ele>
        <time>2024-09-26T16:07:18.000Z</time>
      </trkpt>
      <trkpt lat="40.80303" lon="19.98165">
        <ele>117.41999816895</ele>
        <time>2024-09-26T16:07:19.000Z</time>
      </trkpt>
      <trkpt lat="40.80294" lon="19.9816">
        <ele>117.41999816895</ele>
        <time>2024-09-26T16:07:20.000Z</time>
      </trkpt>
      <trkpt lat="40.80267" lon="19.98146">
        <ele>115.98000335693</ele>
        <time>2024-09-26T16:07:22.000Z</time>
      </trkpt>
      <trkpt lat="40.80255" lon="19.98139">
        <ele>115.5</ele>
        <time>2024-09-26T16:07:23.000Z</time>
      </trkpt>
      <trkpt lat="40.80227" lon="19.98118">
        <ele>114.05000305176</ele>
        <time>2024-09-26T16:07:25.000Z</time>
      </trkpt>
      <trkpt lat="40.80202" lon="19.98097">
        <ele>113.56999969482</ele>
        <time>2024-09-26T16:07:27.000Z</time>
      </trkpt>
      <trkpt lat="40.8013" lon="19.98012">
        <ele>113.56999969482</ele>
        <time>2024-09-26T16:07:34.000Z</time>
      </trkpt>
      <trkpt lat="40.80119" lon="19.97997">
        <ele>113.56999969482</ele>
        <time>2024-09-26T16:07:35.000Z</time>
      </trkpt>
      <trkpt lat="40.80094" lon="19.97957">
        <ele>115.01000213623</ele>
        <time>2024-09-26T16:07:38.000Z</time>
      </trkpt>
      <trkpt lat="40.80084" lon="19.97939">
        <ele>114.5299987793</ele>
        <time>2024-09-26T16:07:39.000Z</time>
      </trkpt>
      <trkpt lat="40.80073" lon="19.97919">
        <ele>114.5299987793</ele>
        <time>2024-09-26T16:07:41.000Z</time>
      </trkpt>
      <trkpt lat="40.80064" lon="19.97903">
        <ele>114.5299987793</ele>
        <time>2024-09-26T16:07:42.000Z</time>
      </trkpt>
      <trkpt lat="40.80061" lon="19.97896">
        <ele>114.5299987793</ele>
        <time>2024-09-26T16:07:43.000Z</time>
      </trkpt>
      <trkpt lat="40.80054" lon="19.97886">
        <ele>114.5299987793</ele>
        <time>2024-09-26T16:07:44.000Z</time>
      </trkpt>
      <trkpt lat="40.80046" lon="19.97876">
        <ele>114.05000305176</ele>
        <time>2024-09-26T16:07:45.000Z</time>
      </trkpt>
      <trkpt lat="40.80035" lon="19.97867">
        <ele>113.56999969482</ele>
        <time>2024-09-26T16:07:46.000Z</time>
      </trkpt>
      <trkpt lat="40.80023" lon="19.97858">
        <ele>113.08999633789</ele>
        <time>2024-09-26T16:07:47.000Z</time>
      </trkpt>
      <trkpt lat="40.80012" lon="19.97852">
        <ele>112.61000061035</ele>
        <time>2024-09-26T16:07:48.000Z</time>
      </trkpt>
      <trkpt lat="40.79991" lon="19.97842">
        <ele>112.12999725342</ele>
        <time>2024-09-26T16:07:49.000Z</time>
      </trkpt>
      <trkpt lat="40.79985" lon="19.97841">
        <ele>112.12999725342</ele>
        <time>2024-09-26T16:07:50.000Z</time>
      </trkpt>
      <trkpt lat="40.79973" lon="19.97838">
        <ele>111.65000152588</ele>
        <time>2024-09-26T16:07:51.000Z</time>
      </trkpt>
      <trkpt lat="40.79961" lon="19.97839">
        <ele>112.12999725342</ele>
        <time>2024-09-26T16:07:52.000Z</time>
      </trkpt>
      <trkpt lat="40.79896" lon="19.97858">
        <ele>110.20999908447</ele>
        <time>2024-09-26T16:07:57.000Z</time>
      </trkpt>
      <trkpt lat="40.79883" lon="19.97861">
        <ele>110.20999908447</ele>
        <time>2024-09-26T16:07:58.000Z</time>
      </trkpt>
      <trkpt lat="40.79741" lon="19.97873">
        <ele>107.80999755859</ele>
        <time>2024-09-26T16:08:07.000Z</time>
      </trkpt>
      <trkpt lat="40.79702" lon="19.97876">
        <ele>107.80999755859</ele>
        <time>2024-09-26T16:08:10.000Z</time>
      </trkpt>
      <trkpt lat="40.79693" lon="19.97877">
        <ele>107.31999969482</ele>
        <time>2024-09-26T16:08:11.000Z</time>
      </trkpt>
      <trkpt lat="40.79606" lon="19.97887">
        <ele>107.80999755859</ele>
        <time>2024-09-26T16:08:16.000Z</time>
      </trkpt>
      <trkpt lat="40.79498" lon="19.9788">
        <ele>105.87999725342</ele>
        <time>2024-09-26T16:08:24.000Z</time>
      </trkpt>
      <trkpt lat="40.7949" lon="19.97879">
        <ele>105.87999725342</ele>
        <time>2024-09-26T16:08:25.000Z</time>
      </trkpt>
      <trkpt lat="40.79477" lon="19.97875">
        <ele>105.40000152588</ele>
        <time>2024-09-26T16:08:26.000Z</time>
      </trkpt>
      <trkpt lat="40.79465" lon="19.97869">
        <ele>104.91999816895</ele>
        <time>2024-09-26T16:08:27.000Z</time>
      </trkpt>
      <trkpt lat="40.79454" lon="19.97861">
        <ele>104.44000244141</ele>
        <time>2024-09-26T16:08:28.000Z</time>
      </trkpt>
      <trkpt lat="40.79444" lon="19.97849">
        <ele>103.95999908447</ele>
        <time>2024-09-26T16:08:29.000Z</time>
      </trkpt>
      <trkpt lat="40.79424" lon="19.9782">
        <ele>103.48000335693</ele>
        <time>2024-09-26T16:08:31.000Z</time>
      </trkpt>
      <trkpt lat="40.79417" lon="19.9781">
        <ele>103</ele>
        <time>2024-09-26T16:08:32.000Z</time>
      </trkpt>
      <trkpt lat="40.79406" lon="19.97797">
        <ele>102.51999664307</ele>
        <time>2024-09-26T16:08:33.000Z</time>
      </trkpt>
      <trkpt lat="40.79379" lon="19.9777">
        <ele>101.08000183105</ele>
        <time>2024-09-26T16:08:36.000Z</time>
      </trkpt>
      <trkpt lat="40.79372" lon="19.97764">
        <ele>100.59999847412</ele>
        <time>2024-09-26T16:08:37.000Z</time>
      </trkpt>
      <trkpt lat="40.79361" lon="19.97756">
        <ele>99.629997253418</ele>
        <time>2024-09-26T16:08:38.000Z</time>
      </trkpt>
      <trkpt lat="40.79339" lon="19.97741">
        <ele>98.190002441406</ele>
        <time>2024-09-26T16:08:40.000Z</time>
      </trkpt>
      <trkpt lat="40.79332" lon="19.97737">
        <ele>98.190002441406</ele>
        <time>2024-09-26T16:08:41.000Z</time>
      </trkpt>
      <trkpt lat="40.79322" lon="19.97735">
        <ele>98.190002441406</ele>
        <time>2024-09-26T16:08:42.000Z</time>
      </trkpt>
      <trkpt lat="40.79246" lon="19.97737">
        <ele>96.75</ele>
        <time>2024-09-26T16:08:48.000Z</time>
      </trkpt>
      <trkpt lat="40.79242" lon="19.97738">
        <ele>96.75</ele>
        <time>2024-09-26T16:08:49.000Z</time>
      </trkpt>
      <trkpt lat="40.79211" lon="19.97743">
        <ele>97.230003356934</ele>
        <time>2024-09-26T16:08:52.000Z</time>
      </trkpt>
      <trkpt lat="40.79202" lon="19.97743">
        <ele>97.230003356934</ele>
        <time>2024-09-26T16:08:53.000Z</time>
      </trkpt>
      <trkpt lat="40.79186" lon="19.97742">
        <ele>97.230003356934</ele>
        <time>2024-09-26T16:08:54.000Z</time>
      </trkpt>
      <trkpt lat="40.7918" lon="19.97741">
        <ele>97.230003356934</ele>
        <time>2024-09-26T16:08:55.000Z</time>
      </trkpt>
      <trkpt lat="40.79173" lon="19.97739">
        <ele>96.75</ele>
        <time>2024-09-26T16:08:56.000Z</time>
      </trkpt>
      <trkpt lat="40.7916" lon="19.97735">
        <ele>96.75</ele>
        <time>2024-09-26T16:08:57.000Z</time>
      </trkpt>
      <trkpt lat="40.79137" lon="19.97726">
        <ele>96.269996643066</ele>
        <time>2024-09-26T16:09:00.000Z</time>
      </trkpt>
      <trkpt lat="40.79129" lon="19.97724">
        <ele>95.790000915527</ele>
        <time>2024-09-26T16:09:01.000Z</time>
      </trkpt>
      <trkpt lat="40.79123" lon="19.97723">
        <ele>95.790000915527</ele>
        <time>2024-09-26T16:09:02.000Z</time>
      </trkpt>
      <trkpt lat="40.79114" lon="19.97721">
        <ele>95.309997558594</ele>
        <time>2024-09-26T16:09:03.000Z</time>
      </trkpt>
      <trkpt lat="40.79096" lon="19.97716">
        <ele>95.309997558594</ele>
        <time>2024-09-26T16:09:05.000Z</time>
      </trkpt>
      <trkpt lat="40.79093" lon="19.97715">
        <ele>95.309997558594</ele>
        <time>2024-09-26T16:09:06.000Z</time>
      </trkpt>
      <trkpt lat="40.79084" lon="19.97713">
        <ele>94.830001831055</ele>
        <time>2024-09-26T16:09:07.000Z</time>
      </trkpt>
      <trkpt lat="40.79078" lon="19.97712">
        <ele>94.830001831055</ele>
        <time>2024-09-26T16:09:08.000Z</time>
      </trkpt>
      <trkpt lat="40.79071" lon="19.9771">
        <ele>94.349998474121</ele>
        <time>2024-09-26T16:09:09.000Z</time>
      </trkpt>
      <trkpt lat="40.79062" lon="19.97708">
        <ele>94.349998474121</ele>
        <time>2024-09-26T16:09:10.000Z</time>
      </trkpt>
      <trkpt lat="40.79055" lon="19.97706">
        <ele>93.870002746582</ele>
        <time>2024-09-26T16:09:11.000Z</time>
      </trkpt>
      <trkpt lat="40.79049" lon="19.97706">
        <ele>93.870002746582</ele>
        <time>2024-09-26T16:09:12.000Z</time>
      </trkpt>
      <trkpt lat="40.7904" lon="19.97705">
        <ele>93.870002746582</ele>
        <time>2024-09-26T16:09:13.000Z</time>
      </trkpt>
      <trkpt lat="40.79035" lon="19.97707">
        <ele>93.389999389648</ele>
        <time>2024-09-26T16:09:14.000Z</time>
      </trkpt>
      <trkpt lat="40.7903" lon="19.9771">
        <ele>93.870002746582</ele>
        <time>2024-09-26T16:09:15.000Z</time>
      </trkpt>
      <trkpt lat="40.79024" lon="19.97716">
        <ele>93.389999389648</ele>
        <time>2024-09-26T16:09:16.000Z</time>
      </trkpt>
      <trkpt lat="40.7902" lon="19.97721">
        <ele>93.389999389648</ele>
        <time>2024-09-26T16:09:17.000Z</time>
      </trkpt>
      <trkpt lat="40.79014" lon="19.9773">
        <ele>93.389999389648</ele>
        <time>2024-09-26T16:09:19.000Z</time>
      </trkpt>
      <trkpt lat="40.79006" lon="19.97741">
        <ele>93.389999389648</ele>
        <time>2024-09-26T16:09:21.000Z</time>
      </trkpt>
      <trkpt lat="40.79003" lon="19.97745">
        <ele>93.389999389648</ele>
        <time>2024-09-26T16:09:22.000Z</time>
      </trkpt>
      <trkpt lat="40.78996" lon="19.97754">
        <ele>92.900001525879</ele>
        <time>2024-09-26T16:09:23.000Z</time>
      </trkpt>
      <trkpt lat="40.78977" lon="19.97776">
        <ele>92.419998168945</ele>
        <time>2024-09-26T16:09:26.000Z</time>
      </trkpt>
      <trkpt lat="40.78954" lon="19.97803">
        <ele>91.940002441406</ele>
        <time>2024-09-26T16:09:29.000Z</time>
      </trkpt>
      <trkpt lat="40.78942" lon="19.97816">
        <ele>91.459999084473</ele>
        <time>2024-09-26T16:09:30.000Z</time>
      </trkpt>
      <trkpt lat="40.78941" lon="19.97818">
        <ele>91.459999084473</ele>
        <time>2024-09-26T16:09:31.000Z</time>
      </trkpt>
      <trkpt lat="40.78919" lon="19.9784">
        <ele>90.5</ele>
        <time>2024-09-26T16:09:33.000Z</time>
      </trkpt>
      <trkpt lat="40.78913" lon="19.97846">
        <ele>90.5</ele>
        <time>2024-09-26T16:09:34.000Z</time>
      </trkpt>
      <trkpt lat="40.78907" lon="19.9785">
        <ele>90.019996643066</ele>
        <time>2024-09-26T16:09:35.000Z</time>
      </trkpt>
      <trkpt lat="40.78898" lon="19.97855">
        <ele>90.019996643066</ele>
        <time>2024-09-26T16:09:36.000Z</time>
      </trkpt>
      <trkpt lat="40.78889" lon="19.97858">
        <ele>90.019996643066</ele>
        <time>2024-09-26T16:09:37.000Z</time>
      </trkpt>
      <trkpt lat="40.7888" lon="19.97859">
        <ele>90.019996643066</ele>
        <time>2024-09-26T16:09:38.000Z</time>
      </trkpt>
      <trkpt lat="40.78871" lon="19.97856">
        <ele>89.540000915527</ele>
        <time>2024-09-26T16:09:39.000Z</time>
      </trkpt>
      <trkpt lat="40.78863" lon="19.9785">
        <ele>89.540000915527</ele>
        <time>2024-09-26T16:09:40.000Z</time>
      </trkpt>
      <trkpt lat="40.78851" lon="19.97839">
        <ele>89.540000915527</ele>
        <time>2024-09-26T16:09:41.000Z</time>
      </trkpt>
      <trkpt lat="40.78763" lon="19.97763">
        <ele>90.019996643066</ele>
        <time>2024-09-26T16:09:50.000Z</time>
      </trkpt>
      <trkpt lat="40.7868" lon="19.97717">
        <ele>91.459999084473</ele>
        <time>2024-09-26T16:09:58.000Z</time>
      </trkpt>
      <trkpt lat="40.78598" lon="19.97667">
        <ele>92.419998168945</ele>
        <time>2024-09-26T16:10:06.000Z</time>
      </trkpt>
      <trkpt lat="40.78541" lon="19.97629">
        <ele>92.419998168945</ele>
        <time>2024-09-26T16:10:11.000Z</time>
      </trkpt>
      <trkpt lat="40.78489" lon="19.97598">
        <ele>91.459999084473</ele>
        <time>2024-09-26T16:10:16.000Z</time>
      </trkpt>
      <trkpt lat="40.7841" lon="19.97552">
        <ele>90.980003356934</ele>
        <time>2024-09-26T16:10:24.000Z</time>
      </trkpt>
      <trkpt lat="40.78403" lon="19.97549">
        <ele>91.459999084473</ele>
        <time>2024-09-26T16:10:25.000Z</time>
      </trkpt>
      <trkpt lat="40.78393" lon="19.97546">
        <ele>91.459999084473</ele>
        <time>2024-09-26T16:10:26.000Z</time>
      </trkpt>
      <trkpt lat="40.78383" lon="19.97544">
        <ele>91.459999084473</ele>
        <time>2024-09-26T16:10:27.000Z</time>
      </trkpt>
      <trkpt lat="40.78372" lon="19.97545">
        <ele>91.459999084473</ele>
        <time>2024-09-26T16:10:28.000Z</time>
      </trkpt>
      <trkpt lat="40.78333" lon="19.97553">
        <ele>92.419998168945</ele>
        <time>2024-09-26T16:10:32.000Z</time>
      </trkpt>
      <trkpt lat="40.78325" lon="19.97557">
        <ele>92.900001525879</ele>
        <time>2024-09-26T16:10:33.000Z</time>
      </trkpt>
      <trkpt lat="40.78317" lon="19.97562">
        <ele>92.900001525879</ele>
        <time>2024-09-26T16:10:34.000Z</time>
      </trkpt>
      <trkpt lat="40.78281" lon="19.97593">
        <ele>92.900001525879</ele>
        <time>2024-09-26T16:10:37.000Z</time>
      </trkpt>
      <trkpt lat="40.78278" lon="19.97595">
        <ele>92.900001525879</ele>
        <time>2024-09-26T16:10:38.000Z</time>
      </trkpt>
      <trkpt lat="40.7827" lon="19.97601">
        <ele>92.900001525879</ele>
        <time>2024-09-26T16:10:39.000Z</time>
      </trkpt>
      <trkpt lat="40.78261" lon="19.97606">
        <ele>92.900001525879</ele>
        <time>2024-09-26T16:10:40.000Z</time>
      </trkpt>
      <trkpt lat="40.78251" lon="19.97609">
        <ele>93.389999389648</ele>
        <time>2024-09-26T16:10:41.000Z</time>
      </trkpt>
      <trkpt lat="40.78235" lon="19.9761">
        <ele>93.389999389648</ele>
        <time>2024-09-26T16:10:42.000Z</time>
      </trkpt>
      <trkpt lat="40.78231" lon="19.9761">
        <ele>93.389999389648</ele>
        <time>2024-09-26T16:10:43.000Z</time>
      </trkpt>
      <trkpt lat="40.78202" lon="19.97608">
        <ele>93.389999389648</ele>
        <time>2024-09-26T16:10:45.000Z</time>
      </trkpt>
      <trkpt lat="40.78196" lon="19.97608">
        <ele>93.389999389648</ele>
        <time>2024-09-26T16:10:46.000Z</time>
      </trkpt>
      <trkpt lat="40.78186" lon="19.97608">
        <ele>93.389999389648</ele>
        <time>2024-09-26T16:10:47.000Z</time>
      </trkpt>
      <trkpt lat="40.78097" lon="19.97632">
        <ele>94.349998474121</ele>
        <time>2024-09-26T16:10:54.000Z</time>
      </trkpt>
      <trkpt lat="40.78087" lon="19.97634">
        <ele>93.870002746582</ele>
        <time>2024-09-26T16:10:55.000Z</time>
      </trkpt>
      <trkpt lat="40.78081" lon="19.97635">
        <ele>93.870002746582</ele>
        <time>2024-09-26T16:10:56.000Z</time>
      </trkpt>
      <trkpt lat="40.78073" lon="19.97636">
        <ele>93.870002746582</ele>
        <time>2024-09-26T16:10:57.000Z</time>
      </trkpt>
      <trkpt lat="40.78062" lon="19.97636">
        <ele>93.870002746582</ele>
        <time>2024-09-26T16:10:58.000Z</time>
      </trkpt>
      <trkpt lat="40.7805" lon="19.97634">
        <ele>93.389999389648</ele>
        <time>2024-09-26T16:10:59.000Z</time>
      </trkpt>
      <trkpt lat="40.78042" lon="19.97631">
        <ele>92.900001525879</ele>
        <time>2024-09-26T16:11:00.000Z</time>
      </trkpt>
      <trkpt lat="40.77995" lon="19.97608">
        <ele>91.940002441406</ele>
        <time>2024-09-26T16:11:04.000Z</time>
      </trkpt>
      <trkpt lat="40.77982" lon="19.976">
        <ele>91.459999084473</ele>
        <time>2024-09-26T16:11:05.000Z</time>
      </trkpt>
      <trkpt lat="40.77972" lon="19.97593">
        <ele>91.459999084473</ele>
        <time>2024-09-26T16:11:07.000Z</time>
      </trkpt>
      <trkpt lat="40.77962" lon="19.97586">
        <ele>91.459999084473</ele>
        <time>2024-09-26T16:11:08.000Z</time>
      </trkpt>
      <trkpt lat="40.77954" lon="19.97577">
        <ele>91.459999084473</ele>
        <time>2024-09-26T16:11:09.000Z</time>
      </trkpt>
      <trkpt lat="40.77929" lon="19.97537">
        <ele>90.5</ele>
        <time>2024-09-26T16:11:12.000Z</time>
      </trkpt>
      <trkpt lat="40.77926" lon="19.97533">
        <ele>90.5</ele>
        <time>2024-09-26T16:11:13.000Z</time>
      </trkpt>
      <trkpt lat="40.77917" lon="19.97522">
        <ele>90.5</ele>
        <time>2024-09-26T16:11:14.000Z</time>
      </trkpt>
      <trkpt lat="40.77909" lon="19.97514">
        <ele>90.5</ele>
        <time>2024-09-26T16:11:15.000Z</time>
      </trkpt>
      <trkpt lat="40.77898" lon="19.97507">
        <ele>90.5</ele>
        <time>2024-09-26T16:11:16.000Z</time>
      </trkpt>
      <trkpt lat="40.77887" lon="19.97501">
        <ele>90.5</ele>
        <time>2024-09-26T16:11:17.000Z</time>
      </trkpt>
      <trkpt lat="40.77876" lon="19.97497">
        <ele>90.5</ele>
        <time>2024-09-26T16:11:18.000Z</time>
      </trkpt>
      <trkpt lat="40.77865" lon="19.97495">
        <ele>90.5</ele>
        <time>2024-09-26T16:11:19.000Z</time>
      </trkpt>
      <trkpt lat="40.77791" lon="19.97489">
        <ele>89.540000915527</ele>
        <time>2024-09-26T16:11:25.000Z</time>
      </trkpt>
      <trkpt lat="40.7778" lon="19.97486">
        <ele>89.540000915527</ele>
        <time>2024-09-26T16:11:26.000Z</time>
      </trkpt>
      <trkpt lat="40.77765" lon="19.97481">
        <ele>89.059997558594</ele>
        <time>2024-09-26T16:11:27.000Z</time>
      </trkpt>
      <trkpt lat="40.77758" lon="19.97478">
        <ele>89.059997558594</ele>
        <time>2024-09-26T16:11:28.000Z</time>
      </trkpt>
      <trkpt lat="40.77744" lon="19.9747">
        <ele>88.580001831055</ele>
        <time>2024-09-26T16:11:29.000Z</time>
      </trkpt>
      <trkpt lat="40.77652" lon="19.974">
        <ele>88.580001831055</ele>
        <time>2024-09-26T16:11:37.000Z</time>
      </trkpt>
      <trkpt lat="40.77624" lon="19.97382">
        <ele>89.059997558594</ele>
        <time>2024-09-26T16:11:40.000Z</time>
      </trkpt>
      <trkpt lat="40.77617" lon="19.97377">
        <ele>89.059997558594</ele>
        <time>2024-09-26T16:11:41.000Z</time>
      </trkpt>
      <trkpt lat="40.77599" lon="19.97366">
        <ele>88.580001831055</ele>
        <time>2024-09-26T16:11:43.000Z</time>
      </trkpt>
      <trkpt lat="40.7755" lon="19.97332">
        <ele>87.139999389648</ele>
        <time>2024-09-26T16:11:47.000Z</time>
      </trkpt>
      <trkpt lat="40.77442" lon="19.9725">
        <ele>85.209999084473</ele>
        <time>2024-09-26T16:11:58.000Z</time>
      </trkpt>
      <trkpt lat="40.77411" lon="19.97227">
        <ele>84.730003356934</ele>
        <time>2024-09-26T16:12:01.000Z</time>
      </trkpt>
      <trkpt lat="40.77403" lon="19.97222">
        <ele>84.730003356934</ele>
        <time>2024-09-26T16:12:02.000Z</time>
      </trkpt>
      <trkpt lat="40.77392" lon="19.97211">
        <ele>84.25</ele>
        <time>2024-09-26T16:12:03.000Z</time>
      </trkpt>
      <trkpt lat="40.77357" lon="19.97169">
        <ele>82.330001831055</ele>
        <time>2024-09-26T16:12:06.000Z</time>
      </trkpt>
      <trkpt lat="40.773" lon="19.97109">
        <ele>79.449996948242</ele>
        <time>2024-09-26T16:12:12.000Z</time>
      </trkpt>
      <trkpt lat="40.77296" lon="19.97105">
        <ele>79.449996948242</ele>
        <time>2024-09-26T16:12:13.000Z</time>
      </trkpt>
      <trkpt lat="40.77288" lon="19.97099">
        <ele>79.449996948242</ele>
        <time>2024-09-26T16:12:14.000Z</time>
      </trkpt>
      <trkpt lat="40.77269" lon="19.97087">
        <ele>78.970001220703</ele>
        <time>2024-09-26T16:12:15.000Z</time>
      </trkpt>
      <trkpt lat="40.77184" lon="19.97037">
        <ele>78.970001220703</ele>
        <time>2024-09-26T16:12:23.000Z</time>
      </trkpt>
      <trkpt lat="40.77181" lon="19.97035">
        <ele>78.970001220703</ele>
        <time>2024-09-26T16:12:24.000Z</time>
      </trkpt>
      <trkpt lat="40.77172" lon="19.97028">
        <ele>78.970001220703</ele>
        <time>2024-09-26T16:12:25.000Z</time>
      </trkpt>
      <trkpt lat="40.77163" lon="19.9702">
        <ele>78.480003356934</ele>
        <time>2024-09-26T16:12:26.000Z</time>
      </trkpt>
      <trkpt lat="40.77155" lon="19.97009">
        <ele>78.480003356934</ele>
        <time>2024-09-26T16:12:27.000Z</time>
      </trkpt>
      <trkpt lat="40.77148" lon="19.96997">
        <ele>78</ele>
        <time>2024-09-26T16:12:28.000Z</time>
      </trkpt>
      <trkpt lat="40.77129" lon="19.96959">
        <ele>77.040000915527</ele>
        <time>2024-09-26T16:12:30.000Z</time>
      </trkpt>
      <trkpt lat="40.77125" lon="19.96953">
        <ele>77.040000915527</ele>
        <time>2024-09-26T16:12:31.000Z</time>
      </trkpt>
      <trkpt lat="40.77055" lon="19.96848">
        <ele>74.639999389648</ele>
        <time>2024-09-26T16:12:39.000Z</time>
      </trkpt>
      <trkpt lat="40.7696" lon="19.96706">
        <ele>72.23999786377</ele>
        <time>2024-09-26T16:12:50.000Z</time>
      </trkpt>
      <trkpt lat="40.76877" lon="19.9658">
        <ele>71.76000213623</ele>
        <time>2024-09-26T16:13:01.000Z</time>
      </trkpt>
      <trkpt lat="40.76836" lon="19.96516">
        <ele>71.76000213623</ele>
        <time>2024-09-26T16:13:07.000Z</time>
      </trkpt>
      <trkpt lat="40.76828" lon="19.96504">
        <ele>71.76000213623</ele>
        <time>2024-09-26T16:13:08.000Z</time>
      </trkpt>
      <trkpt lat="40.76822" lon="19.96495">
        <ele>71.76000213623</ele>
        <time>2024-09-26T16:13:09.000Z</time>
      </trkpt>
      <trkpt lat="40.76818" lon="19.9649">
        <ele>71.76000213623</ele>
        <time>2024-09-26T16:13:10.000Z</time>
      </trkpt>
      <trkpt lat="40.76814" lon="19.96484">
        <ele>71.76000213623</ele>
        <time>2024-09-26T16:13:11.000Z</time>
      </trkpt>
      <trkpt lat="40.76807" lon="19.96477">
        <ele>72.23999786377</ele>
        <time>2024-09-26T16:13:12.000Z</time>
      </trkpt>
      <trkpt lat="40.76799" lon="19.9647">
        <ele>72.23999786377</ele>
        <time>2024-09-26T16:13:13.000Z</time>
      </trkpt>
      <trkpt lat="40.76785" lon="19.96461">
        <ele>72.720001220703</ele>
        <time>2024-09-26T16:13:14.000Z</time>
      </trkpt>
      <trkpt lat="40.76774" lon="19.96454">
        <ele>72.720001220703</ele>
        <time>2024-09-26T16:13:15.000Z</time>
      </trkpt>
      <trkpt lat="40.76741" lon="19.96434">
        <ele>72.720001220703</ele>
        <time>2024-09-26T16:13:19.000Z</time>
      </trkpt>
      <trkpt lat="40.76732" lon="19.96427">
        <ele>72.720001220703</ele>
        <time>2024-09-26T16:13:20.000Z</time>
      </trkpt>
      <trkpt lat="40.76723" lon="19.96418">
        <ele>72.720001220703</ele>
        <time>2024-09-26T16:13:21.000Z</time>
      </trkpt>
      <trkpt lat="40.76714" lon="19.96404">
        <ele>72.720001220703</ele>
        <time>2024-09-26T16:13:22.000Z</time>
      </trkpt>
      <trkpt lat="40.76708" lon="19.96396">
        <ele>72.23999786377</ele>
        <time>2024-09-26T16:13:23.000Z</time>
      </trkpt>
      <trkpt lat="40.76699" lon="19.96386">
        <ele>72.23999786377</ele>
        <time>2024-09-26T16:13:24.000Z</time>
      </trkpt>
      <trkpt lat="40.76689" lon="19.96376">
        <ele>72.23999786377</ele>
        <time>2024-09-26T16:13:25.000Z</time>
      </trkpt>
      <trkpt lat="40.76667" lon="19.9636">
        <ele>71.76000213623</ele>
        <time>2024-09-26T16:13:27.000Z</time>
      </trkpt>
      <trkpt lat="40.76591" lon="19.96321">
        <ele>71.76000213623</ele>
        <time>2024-09-26T16:13:34.000Z</time>
      </trkpt>
      <trkpt lat="40.76558" lon="19.96304">
        <ele>71.269996643066</ele>
        <time>2024-09-26T16:13:37.000Z</time>
      </trkpt>
      <trkpt lat="40.76507" lon="19.96267">
        <ele>71.269996643066</ele>
        <time>2024-09-26T16:13:42.000Z</time>
      </trkpt>
      <trkpt lat="40.76478" lon="19.96241">
        <ele>70.790000915527</ele>
        <time>2024-09-26T16:13:46.000Z</time>
      </trkpt>
      <trkpt lat="40.76467" lon="19.96232">
        <ele>71.269996643066</ele>
        <time>2024-09-26T16:13:47.000Z</time>
      </trkpt>
      <trkpt lat="40.76384" lon="19.96171">
        <ele>69.349998474121</ele>
        <time>2024-09-26T16:13:56.000Z</time>
      </trkpt>
      <trkpt lat="40.76363" lon="19.96157">
        <ele>68.870002746582</ele>
        <time>2024-09-26T16:13:58.000Z</time>
      </trkpt>
      <trkpt lat="40.76344" lon="19.96142">
        <ele>68.389999389648</ele>
        <time>2024-09-26T16:14:00.000Z</time>
      </trkpt>
      <trkpt lat="40.76241" lon="19.96052">
        <ele>66.949996948242</ele>
        <time>2024-09-26T16:14:10.000Z</time>
      </trkpt>
      <trkpt lat="40.76144" lon="19.95967">
        <ele>66.949996948242</ele>
        <time>2024-09-26T16:14:20.000Z</time>
      </trkpt>
      <trkpt lat="40.76128" lon="19.95952">
        <ele>66.949996948242</ele>
        <time>2024-09-26T16:14:22.000Z</time>
      </trkpt>
      <trkpt lat="40.761" lon="19.95923">
        <ele>67.430000305176</ele>
        <time>2024-09-26T16:14:26.000Z</time>
      </trkpt>
      <trkpt lat="40.76092" lon="19.95914">
        <ele>67.910003662109</ele>
        <time>2024-09-26T16:14:28.000Z</time>
      </trkpt>
      <trkpt lat="40.76084" lon="19.95905">
        <ele>66.949996948242</ele>
        <time>2024-09-26T16:14:29.000Z</time>
      </trkpt>
      <trkpt lat="40.76083" lon="19.95904">
        <ele>66.949996948242</ele>
        <time>2024-09-26T16:14:30.000Z</time>
      </trkpt>
      <trkpt lat="40.76079" lon="19.959">
        <ele>66.949996948242</ele>
        <time>2024-09-26T16:14:31.000Z</time>
      </trkpt>
      <trkpt lat="40.76071" lon="19.95893">
        <ele>66.949996948242</ele>
        <time>2024-09-26T16:14:32.000Z</time>
      </trkpt>
      <trkpt lat="40.7607" lon="19.95891">
        <ele>66.949996948242</ele>
        <time>2024-09-26T16:14:33.000Z</time>
      </trkpt>
      <trkpt lat="40.76064" lon="19.95886">
        <ele>66.949996948242</ele>
        <time>2024-09-26T16:14:34.000Z</time>
      </trkpt>
      <trkpt lat="40.7606" lon="19.95881">
        <ele>66.470001220703</ele>
        <time>2024-09-26T16:14:35.000Z</time>
      </trkpt>
      <trkpt lat="40.76055" lon="19.95874">
        <ele>66.470001220703</ele>
        <time>2024-09-26T16:14:36.000Z</time>
      </trkpt>
      <trkpt lat="40.76049" lon="19.95866">
        <ele>65.98999786377</ele>
        <time>2024-09-26T16:14:37.000Z</time>
      </trkpt>
      <trkpt lat="40.76044" lon="19.9586">
        <ele>65.51000213623</ele>
        <time>2024-09-26T16:14:38.000Z</time>
      </trkpt>
      <trkpt lat="40.75986" lon="19.95786">
        <ele>64.069999694824</ele>
        <time>2024-09-26T16:14:46.000Z</time>
      </trkpt>
      <trkpt lat="40.75968" lon="19.9576">
        <ele>63.099998474121</ele>
        <time>2024-09-26T16:14:49.000Z</time>
      </trkpt>
      <trkpt lat="40.75963" lon="19.95753">
        <ele>63.099998474121</ele>
        <time>2024-09-26T16:14:50.000Z</time>
      </trkpt>
      <trkpt lat="40.75962" lon="19.95751">
        <ele>63.099998474121</ele>
        <time>2024-09-26T16:14:51.000Z</time>
      </trkpt>
      <trkpt lat="40.75959" lon="19.95745">
        <ele>62.619998931885</ele>
        <time>2024-09-26T16:14:52.000Z</time>
      </trkpt>
      <trkpt lat="40.75955" lon="19.95736">
        <ele>62.619998931885</ele>
        <time>2024-09-26T16:14:53.000Z</time>
      </trkpt>
      <trkpt lat="40.75953" lon="19.95727">
        <ele>62.139999389648</ele>
        <time>2024-09-26T16:14:54.000Z</time>
      </trkpt>
      <trkpt lat="40.7595" lon="19.95712">
        <ele>62.139999389648</ele>
        <time>2024-09-26T16:14:55.000Z</time>
      </trkpt>
      <trkpt lat="40.75943" lon="19.95645">
        <ele>60.700000762939</ele>
        <time>2024-09-26T16:15:00.000Z</time>
      </trkpt>
      <trkpt lat="40.75938" lon="19.95588">
        <ele>59.259998321533</ele>
        <time>2024-09-26T16:15:04.000Z</time>
      </trkpt>
      <trkpt lat="40.75937" lon="19.95586">
        <ele>59.259998321533</ele>
        <time>2024-09-26T16:15:05.000Z</time>
      </trkpt>
      <trkpt lat="40.75935" lon="19.95574">
        <ele>58.779998779297</ele>
        <time>2024-09-26T16:15:06.000Z</time>
      </trkpt>
      <trkpt lat="40.75931" lon="19.9556">
        <ele>58.779998779297</ele>
        <time>2024-09-26T16:15:07.000Z</time>
      </trkpt>
      <trkpt lat="40.75922" lon="19.9554">
        <ele>58.299999237061</ele>
        <time>2024-09-26T16:15:08.000Z</time>
      </trkpt>
      <trkpt lat="40.75863" lon="19.9541">
        <ele>56.369998931885</ele>
        <time>2024-09-26T16:15:18.000Z</time>
      </trkpt>
      <trkpt lat="40.75822" lon="19.95321">
        <ele>55.889999389648</ele>
        <time>2024-09-26T16:15:25.000Z</time>
      </trkpt>
      <trkpt lat="40.75782" lon="19.95206">
        <ele>55.889999389648</ele>
        <time>2024-09-26T16:15:35.000Z</time>
      </trkpt>
      <trkpt lat="40.75779" lon="19.95193">
        <ele>55.409999847412</ele>
        <time>2024-09-26T16:15:36.000Z</time>
      </trkpt>
      <trkpt lat="40.75776" lon="19.9518">
        <ele>55.409999847412</ele>
        <time>2024-09-26T16:15:37.000Z</time>
      </trkpt>
      <trkpt lat="40.75745" lon="19.95035">
        <ele>55.889999389648</ele>
        <time>2024-09-26T16:15:49.000Z</time>
      </trkpt>
      <trkpt lat="40.75736" lon="19.94993">
        <ele>55.409999847412</ele>
        <time>2024-09-26T16:15:52.000Z</time>
      </trkpt>
      <trkpt lat="40.75735" lon="19.94988">
        <ele>55.409999847412</ele>
        <time>2024-09-26T16:15:53.000Z</time>
      </trkpt>
      <trkpt lat="40.75732" lon="19.94979">
        <ele>55.409999847412</ele>
        <time>2024-09-26T16:15:54.000Z</time>
      </trkpt>
      <trkpt lat="40.75727" lon="19.9497">
        <ele>54.930000305176</ele>
        <time>2024-09-26T16:15:55.000Z</time>
      </trkpt>
      <trkpt lat="40.75722" lon="19.94962">
        <ele>54.930000305176</ele>
        <time>2024-09-26T16:15:56.000Z</time>
      </trkpt>
      <trkpt lat="40.75715" lon="19.94956">
        <ele>54.930000305176</ele>
        <time>2024-09-26T16:15:57.000Z</time>
      </trkpt>
      <trkpt lat="40.75707" lon="19.9495">
        <ele>54.930000305176</ele>
        <time>2024-09-26T16:15:58.000Z</time>
      </trkpt>
      <trkpt lat="40.75658" lon="19.9492">
        <ele>55.409999847412</ele>
        <time>2024-09-26T16:16:04.000Z</time>
      </trkpt>
      <trkpt lat="40.75652" lon="19.94916">
        <ele>55.409999847412</ele>
        <time>2024-09-26T16:16:05.000Z</time>
      </trkpt>
      <trkpt lat="40.75639" lon="19.94907">
        <ele>55.889999389648</ele>
        <time>2024-09-26T16:16:08.000Z</time>
      </trkpt>
      <trkpt lat="40.75631" lon="19.94902">
        <ele>56.369998931885</ele>
        <time>2024-09-26T16:16:15.000Z</time>
      </trkpt>
      <trkpt lat="40.75624" lon="19.94896">
        <ele>56.369998931885</ele>
        <time>2024-09-26T16:16:23.000Z</time>
      </trkpt>
      <trkpt lat="40.75622" lon="19.94895">
        <ele>56.369998931885</ele>
        <time>2024-09-26T16:16:24.000Z</time>
      </trkpt>
      <trkpt lat="40.75616" lon="19.9489">
        <ele>55.889999389648</ele>
        <time>2024-09-26T16:16:25.000Z</time>
      </trkpt>
      <trkpt lat="40.75613" lon="19.94887">
        <ele>55.889999389648</ele>
        <time>2024-09-26T16:16:26.000Z</time>
      </trkpt>
      <trkpt lat="40.7561" lon="19.94883">
        <ele>55.889999389648</ele>
        <time>2024-09-26T16:16:27.000Z</time>
      </trkpt>
      <trkpt lat="40.75604" lon="19.94878">
        <ele>55.409999847412</ele>
        <time>2024-09-26T16:16:33.000Z</time>
      </trkpt>
      <trkpt lat="40.75601" lon="19.94875">
        <ele>55.889999389648</ele>
        <time>2024-09-26T16:16:37.000Z</time>
      </trkpt>
      <trkpt lat="40.756" lon="19.94874">
        <ele>55.889999389648</ele>
        <time>2024-09-26T16:16:38.000Z</time>
      </trkpt>
      <trkpt lat="40.75596" lon="19.94868">
        <ele>55.409999847412</ele>
        <time>2024-09-26T16:16:39.000Z</time>
      </trkpt>
      <trkpt lat="40.75592" lon="19.94862">
        <ele>55.409999847412</ele>
        <time>2024-09-26T16:16:40.000Z</time>
      </trkpt>
      <trkpt lat="40.75588" lon="19.94856">
        <ele>55.409999847412</ele>
        <time>2024-09-26T16:16:41.000Z</time>
      </trkpt>
      <trkpt lat="40.75578" lon="19.94842">
        <ele>55.409999847412</ele>
        <time>2024-09-26T16:16:43.000Z</time>
      </trkpt>
      <trkpt lat="40.75574" lon="19.94836">
        <ele>55.409999847412</ele>
        <time>2024-09-26T16:16:44.000Z</time>
      </trkpt>
      <trkpt lat="40.7557" lon="19.94831">
        <ele>55.409999847412</ele>
        <time>2024-09-26T16:16:45.000Z</time>
      </trkpt>
      <trkpt lat="40.75566" lon="19.94827">
        <ele>54.930000305176</ele>
        <time>2024-09-26T16:16:46.000Z</time>
      </trkpt>
      <trkpt lat="40.75562" lon="19.94822">
        <ele>54.930000305176</ele>
        <time>2024-09-26T16:16:47.000Z</time>
      </trkpt>
      <trkpt lat="40.75548" lon="19.94801">
        <ele>54.450000762939</ele>
        <time>2024-09-26T16:16:52.000Z</time>
      </trkpt>
      <trkpt lat="40.75532" lon="19.94779">
        <ele>54.450000762939</ele>
        <time>2024-09-26T16:17:01.000Z</time>
      </trkpt>
      <trkpt lat="40.75531" lon="19.94776">
        <ele>54.450000762939</ele>
        <time>2024-09-26T16:17:02.000Z</time>
      </trkpt>
      <trkpt lat="40.75529" lon="19.94771">
        <ele>54.450000762939</ele>
        <time>2024-09-26T16:17:03.000Z</time>
      </trkpt>
      <trkpt lat="40.75527" lon="19.94763">
        <ele>54.450000762939</ele>
        <time>2024-09-26T16:17:04.000Z</time>
      </trkpt>
      <trkpt lat="40.75527" lon="19.94755">
        <ele>54.450000762939</ele>
        <time>2024-09-26T16:17:05.000Z</time>
      </trkpt>
      <trkpt lat="40.75527" lon="19.94744">
        <ele>54.930000305176</ele>
        <time>2024-09-26T16:17:06.000Z</time>
      </trkpt>
      <trkpt lat="40.75527" lon="19.94734">
        <ele>54.930000305176</ele>
        <time>2024-09-26T16:17:07.000Z</time>
      </trkpt>
      <trkpt lat="40.75528" lon="19.94729">
        <ele>54.450000762939</ele>
        <time>2024-09-26T16:17:08.000Z</time>
      </trkpt>
      <trkpt lat="40.75529" lon="19.94721">
        <ele>54.450000762939</ele>
        <time>2024-09-26T16:17:09.000Z</time>
      </trkpt>
      <trkpt lat="40.75532" lon="19.94714">
        <ele>53.970001220703</ele>
        <time>2024-09-26T16:17:10.000Z</time>
      </trkpt>
      <trkpt lat="40.75538" lon="19.94708">
        <ele>53.970001220703</ele>
        <time>2024-09-26T16:17:11.000Z</time>
      </trkpt>
      <trkpt lat="40.75545" lon="19.94702">
        <ele>53.970001220703</ele>
        <time>2024-09-26T16:17:12.000Z</time>
      </trkpt>
      <trkpt lat="40.75555" lon="19.94693">
        <ele>53.970001220703</ele>
        <time>2024-09-26T16:17:13.000Z</time>
      </trkpt>
      <trkpt lat="40.75564" lon="19.94685">
        <ele>53.490001678467</ele>
        <time>2024-09-26T16:17:15.000Z</time>
      </trkpt>
      <trkpt lat="40.75646" lon="19.94615">
        <ele>52.049999237061</ele>
        <time>2024-09-26T16:17:24.000Z</time>
      </trkpt>
      <trkpt lat="40.75674" lon="19.94584">
        <ele>51.569999694824</ele>
        <time>2024-09-26T16:17:27.000Z</time>
      </trkpt>
      <trkpt lat="40.75681" lon="19.94576">
        <ele>51.569999694824</ele>
        <time>2024-09-26T16:17:28.000Z</time>
      </trkpt>
      <trkpt lat="40.75689" lon="19.94563">
        <ele>51.090000152588</ele>
        <time>2024-09-26T16:17:29.000Z</time>
      </trkpt>
      <trkpt lat="40.75697" lon="19.94548">
        <ele>51.090000152588</ele>
        <time>2024-09-26T16:17:30.000Z</time>
      </trkpt>
      <trkpt lat="40.75702" lon="19.94537">
        <ele>51.090000152588</ele>
        <time>2024-09-26T16:17:31.000Z</time>
      </trkpt>
      <trkpt lat="40.7571" lon="19.94514">
        <ele>51.090000152588</ele>
        <time>2024-09-26T16:17:32.000Z</time>
      </trkpt>
      <trkpt lat="40.75714" lon="19.94504">
        <ele>51.090000152588</ele>
        <time>2024-09-26T16:17:33.000Z</time>
      </trkpt>
      <trkpt lat="40.75724" lon="19.94481">
        <ele>50.610000610352</ele>
        <time>2024-09-26T16:17:34.000Z</time>
      </trkpt>
      <trkpt lat="40.75725" lon="19.94478">
        <ele>50.610000610352</ele>
        <time>2024-09-26T16:17:35.000Z</time>
      </trkpt>
      <trkpt lat="40.75729" lon="19.94465">
        <ele>50.610000610352</ele>
        <time>2024-09-26T16:17:36.000Z</time>
      </trkpt>
      <trkpt lat="40.75732" lon="19.9445">
        <ele>50.610000610352</ele>
        <time>2024-09-26T16:17:37.000Z</time>
      </trkpt>
      <trkpt lat="40.75733" lon="19.94435">
        <ele>50.610000610352</ele>
        <time>2024-09-26T16:17:38.000Z</time>
      </trkpt>
      <trkpt lat="40.75733" lon="19.9442">
        <ele>50.130001068115</ele>
        <time>2024-09-26T16:17:39.000Z</time>
      </trkpt>
      <trkpt lat="40.75732" lon="19.94406">
        <ele>50.130001068115</ele>
        <time>2024-09-26T16:17:40.000Z</time>
      </trkpt>
      <trkpt lat="40.75728" lon="19.94393">
        <ele>50.130001068115</ele>
        <time>2024-09-26T16:17:41.000Z</time>
      </trkpt>
      <trkpt lat="40.75708" lon="19.94337">
        <ele>49.650001525879</ele>
        <time>2024-09-26T16:17:45.000Z</time>
      </trkpt>
      <trkpt lat="40.75687" lon="19.94273">
        <ele>49.650001525879</ele>
        <time>2024-09-26T16:17:49.000Z</time>
      </trkpt>
      <trkpt lat="40.75681" lon="19.94258">
        <ele>49.650001525879</ele>
        <time>2024-09-26T16:17:50.000Z</time>
      </trkpt>
      <trkpt lat="40.75676" lon="19.9424">
        <ele>49.159999847412</ele>
        <time>2024-09-26T16:17:51.000Z</time>
      </trkpt>
      <trkpt lat="40.75638" lon="19.94126">
        <ele>49.159999847412</ele>
        <time>2024-09-26T16:18:00.000Z</time>
      </trkpt>
      <trkpt lat="40.75632" lon="19.94111">
        <ele>48.680000305176</ele>
        <time>2024-09-26T16:18:01.000Z</time>
      </trkpt>
      <trkpt lat="40.75626" lon="19.941">
        <ele>48.680000305176</ele>
        <time>2024-09-26T16:18:02.000Z</time>
      </trkpt>
      <trkpt lat="40.75619" lon="19.94087">
        <ele>48.680000305176</ele>
        <time>2024-09-26T16:18:03.000Z</time>
      </trkpt>
      <trkpt lat="40.75526" lon="19.93966">
        <ele>47.240001678467</ele>
        <time>2024-09-26T16:18:13.000Z</time>
      </trkpt>
      <trkpt lat="40.75471" lon="19.939">
        <ele>47.240001678467</ele>
        <time>2024-09-26T16:18:20.000Z</time>
      </trkpt>
      <trkpt lat="40.75456" lon="19.93881">
        <ele>46.759998321533</ele>
        <time>2024-09-26T16:18:22.000Z</time>
      </trkpt>
      <trkpt lat="40.7545" lon="19.93874">
        <ele>46.759998321533</ele>
        <time>2024-09-26T16:18:23.000Z</time>
      </trkpt>
      <trkpt lat="40.75435" lon="19.93858">
        <ele>46.759998321533</ele>
        <time>2024-09-26T16:18:24.000Z</time>
      </trkpt>
      <trkpt lat="40.75427" lon="19.93848">
        <ele>46.759998321533</ele>
        <time>2024-09-26T16:18:25.000Z</time>
      </trkpt>
      <trkpt lat="40.75414" lon="19.93832">
        <ele>46.759998321533</ele>
        <time>2024-09-26T16:18:27.000Z</time>
      </trkpt>
      <trkpt lat="40.75396" lon="19.93808">
        <ele>46.759998321533</ele>
        <time>2024-09-26T16:18:29.000Z</time>
      </trkpt>
      <trkpt lat="40.7539" lon="19.93802">
        <ele>46.759998321533</ele>
        <time>2024-09-26T16:18:30.000Z</time>
      </trkpt>
      <trkpt lat="40.75382" lon="19.93796">
        <ele>47.240001678467</ele>
        <time>2024-09-26T16:18:31.000Z</time>
      </trkpt>
      <trkpt lat="40.75373" lon="19.93793">
        <ele>47.720001220703</ele>
        <time>2024-09-26T16:18:32.000Z</time>
      </trkpt>
      <trkpt lat="40.75364" lon="19.93793">
        <ele>47.720001220703</ele>
        <time>2024-09-26T16:18:33.000Z</time>
      </trkpt>
      <trkpt lat="40.75355" lon="19.93797">
        <ele>47.720001220703</ele>
        <time>2024-09-26T16:18:34.000Z</time>
      </trkpt>
      <trkpt lat="40.75347" lon="19.93802">
        <ele>47.720001220703</ele>
        <time>2024-09-26T16:18:35.000Z</time>
      </trkpt>
      <trkpt lat="40.75338" lon="19.93805">
        <ele>47.720001220703</ele>
        <time>2024-09-26T16:18:36.000Z</time>
      </trkpt>
      <trkpt lat="40.7533" lon="19.93807">
        <ele>48.200000762939</ele>
        <time>2024-09-26T16:18:37.000Z</time>
      </trkpt>
      <trkpt lat="40.75321" lon="19.93806">
        <ele>48.200000762939</ele>
        <time>2024-09-26T16:18:38.000Z</time>
      </trkpt>
      <trkpt lat="40.75312" lon="19.93802">
        <ele>48.680000305176</ele>
        <time>2024-09-26T16:18:39.000Z</time>
      </trkpt>
      <trkpt lat="40.75292" lon="19.93792">
        <ele>49.650001525879</ele>
        <time>2024-09-26T16:18:41.000Z</time>
      </trkpt>
      <trkpt lat="40.75284" lon="19.93788">
        <ele>49.159999847412</ele>
        <time>2024-09-26T16:18:42.000Z</time>
      </trkpt>
      <trkpt lat="40.75273" lon="19.93786">
        <ele>49.159999847412</ele>
        <time>2024-09-26T16:18:43.000Z</time>
      </trkpt>
      <trkpt lat="40.75263" lon="19.93784">
        <ele>49.159999847412</ele>
        <time>2024-09-26T16:18:44.000Z</time>
      </trkpt>
      <trkpt lat="40.7522" lon="19.93782">
        <ele>48.200000762939</ele>
        <time>2024-09-26T16:18:48.000Z</time>
      </trkpt>
      <trkpt lat="40.75216" lon="19.93782">
        <ele>47.720001220703</ele>
        <time>2024-09-26T16:18:49.000Z</time>
      </trkpt>
      <trkpt lat="40.75208" lon="19.93783">
        <ele>47.720001220703</ele>
        <time>2024-09-26T16:18:50.000Z</time>
      </trkpt>
      <trkpt lat="40.75199" lon="19.93786">
        <ele>47.720001220703</ele>
        <time>2024-09-26T16:18:51.000Z</time>
      </trkpt>
      <trkpt lat="40.75192" lon="19.93789">
        <ele>47.720001220703</ele>
        <time>2024-09-26T16:18:52.000Z</time>
      </trkpt>
      <trkpt lat="40.75179" lon="19.93797">
        <ele>48.200000762939</ele>
        <time>2024-09-26T16:18:54.000Z</time>
      </trkpt>
      <trkpt lat="40.75171" lon="19.93801">
        <ele>47.720001220703</ele>
        <time>2024-09-26T16:18:55.000Z</time>
      </trkpt>
      <trkpt lat="40.75165" lon="19.93804">
        <ele>47.720001220703</ele>
        <time>2024-09-26T16:18:56.000Z</time>
      </trkpt>
      <trkpt lat="40.75157" lon="19.93805">
        <ele>47.720001220703</ele>
        <time>2024-09-26T16:18:57.000Z</time>
      </trkpt>
      <trkpt lat="40.75148" lon="19.93805">
        <ele>47.240001678467</ele>
        <time>2024-09-26T16:18:58.000Z</time>
      </trkpt>
      <trkpt lat="40.75139" lon="19.93802">
        <ele>46.759998321533</ele>
        <time>2024-09-26T16:18:59.000Z</time>
      </trkpt>
      <trkpt lat="40.7513" lon="19.93799">
        <ele>46.279998779297</ele>
        <time>2024-09-26T16:19:00.000Z</time>
      </trkpt>
      <trkpt lat="40.75121" lon="19.93794">
        <ele>45.799999237061</ele>
        <time>2024-09-26T16:19:01.000Z</time>
      </trkpt>
      <trkpt lat="40.75114" lon="19.93787">
        <ele>45.319999694824</ele>
        <time>2024-09-26T16:19:02.000Z</time>
      </trkpt>
      <trkpt lat="40.75108" lon="19.93779">
        <ele>44.840000152588</ele>
        <time>2024-09-26T16:19:03.000Z</time>
      </trkpt>
      <trkpt lat="40.75103" lon="19.9377">
        <ele>44.840000152588</ele>
        <time>2024-09-26T16:19:04.000Z</time>
      </trkpt>
      <trkpt lat="40.751" lon="19.9376">
        <ele>44.360000610352</ele>
        <time>2024-09-26T16:19:05.000Z</time>
      </trkpt>
      <trkpt lat="40.75062" lon="19.93623">
        <ele>42.919998168945</ele>
        <time>2024-09-26T16:19:14.000Z</time>
      </trkpt>
      <trkpt lat="40.75018" lon="19.9346">
        <ele>41.470001220703</ele>
        <time>2024-09-26T16:19:25.000Z</time>
      </trkpt>
      <trkpt lat="40.74971" lon="19.9329">
        <ele>40.990001678467</ele>
        <time>2024-09-26T16:19:36.000Z</time>
      </trkpt>
      <trkpt lat="40.74922" lon="19.93102">
        <ele>40.990001678467</ele>
        <time>2024-09-26T16:19:48.000Z</time>
      </trkpt>
      <trkpt lat="40.74887" lon="19.92977">
        <ele>39.549999237061</ele>
        <time>2024-09-26T16:19:56.000Z</time>
      </trkpt>
      <trkpt lat="40.74877" lon="19.92943">
        <ele>39.069999694824</ele>
        <time>2024-09-26T16:19:59.000Z</time>
      </trkpt>
      <trkpt lat="40.74876" lon="19.92938">
        <ele>39.069999694824</ele>
        <time>2024-09-26T16:20:00.000Z</time>
      </trkpt>
      <trkpt lat="40.74873" lon="19.92927">
        <ele>39.069999694824</ele>
        <time>2024-09-26T16:20:01.000Z</time>
      </trkpt>
      <trkpt lat="40.7487" lon="19.92917">
        <ele>39.069999694824</ele>
        <time>2024-09-26T16:20:02.000Z</time>
      </trkpt>
      <trkpt lat="40.74867" lon="19.92902">
        <ele>39.069999694824</ele>
        <time>2024-09-26T16:20:04.000Z</time>
      </trkpt>
      <trkpt lat="40.74866" lon="19.92899">
        <ele>39.069999694824</ele>
        <time>2024-09-26T16:20:05.000Z</time>
      </trkpt>
      <trkpt lat="40.74863" lon="19.9289">
        <ele>39.549999237061</ele>
        <time>2024-09-26T16:20:06.000Z</time>
      </trkpt>
      <trkpt lat="40.74862" lon="19.92886">
        <ele>39.549999237061</ele>
        <time>2024-09-26T16:20:07.000Z</time>
      </trkpt>
      <trkpt lat="40.74861" lon="19.92882">
        <ele>39.549999237061</ele>
        <time>2024-09-26T16:20:08.000Z</time>
      </trkpt>
      <trkpt lat="40.74856" lon="19.92863">
        <ele>40.029998779297</ele>
        <time>2024-09-26T16:20:16.000Z</time>
      </trkpt>
      <trkpt lat="40.74847" lon="19.9285">
        <ele>40.509998321533</ele>
        <time>2024-09-26T16:20:21.000Z</time>
      </trkpt>
      <trkpt lat="40.74842" lon="19.9285">
        <ele>40.509998321533</ele>
        <time>2024-09-26T16:20:22.000Z</time>
      </trkpt>
      <trkpt lat="40.74837" lon="19.92853">
        <ele>40.990001678467</ele>
        <time>2024-09-26T16:20:23.000Z</time>
      </trkpt>
      <trkpt lat="40.74832" lon="19.92858">
        <ele>40.990001678467</ele>
        <time>2024-09-26T16:20:24.000Z</time>
      </trkpt>
      <trkpt lat="40.74768" lon="19.92937">
        <ele>41.950000762939</ele>
        <time>2024-09-26T16:20:33.000Z</time>
      </trkpt>
      <trkpt lat="40.74699" lon="19.93028">
        <ele>41.950000762939</ele>
        <time>2024-09-26T16:20:41.000Z</time>
      </trkpt>
      <trkpt lat="40.74608" lon="19.93147">
        <ele>42.439998626709</ele>
        <time>2024-09-26T16:20:51.000Z</time>
      </trkpt>
      <trkpt lat="40.74468" lon="19.93329">
        <ele>42.439998626709</ele>
        <time>2024-09-26T16:21:04.000Z</time>
      </trkpt>
      <trkpt lat="40.74439" lon="19.93363">
        <ele>42.919998168945</ele>
        <time>2024-09-26T16:21:07.000Z</time>
      </trkpt>
      <trkpt lat="40.7443" lon="19.93371">
        <ele>42.919998168945</ele>
        <time>2024-09-26T16:21:08.000Z</time>
      </trkpt>
      <trkpt lat="40.7431" lon="19.93455">
        <ele>43.400001525879</ele>
        <time>2024-09-26T16:21:17.000Z</time>
      </trkpt>
      <trkpt lat="40.74283" lon="19.93472">
        <ele>43.880001068115</ele>
        <time>2024-09-26T16:21:19.000Z</time>
      </trkpt>
      <trkpt lat="40.74261" lon="19.93486">
        <ele>43.880001068115</ele>
        <time>2024-09-26T16:21:21.000Z</time>
      </trkpt>
      <trkpt lat="40.74192" lon="19.93533">
        <ele>44.840000152588</ele>
        <time>2024-09-26T16:21:28.000Z</time>
      </trkpt>
      <trkpt lat="40.74146" lon="19.9356">
        <ele>44.840000152588</ele>
        <time>2024-09-26T16:21:33.000Z</time>
      </trkpt>
      <trkpt lat="40.74012" lon="19.93648">
        <ele>45.799999237061</ele>
        <time>2024-09-26T16:21:44.000Z</time>
      </trkpt>
      <trkpt lat="40.73898" lon="19.93722">
        <ele>46.279998779297</ele>
        <time>2024-09-26T16:21:54.000Z</time>
      </trkpt>
      <trkpt lat="40.73757" lon="19.93811">
        <ele>47.720001220703</ele>
        <time>2024-09-26T16:22:06.000Z</time>
      </trkpt>
      <trkpt lat="40.73603" lon="19.93909">
        <ele>48.680000305176</ele>
        <time>2024-09-26T16:22:16.000Z</time>
      </trkpt>
      <trkpt lat="40.7346" lon="19.94001">
        <ele>49.650001525879</ele>
        <time>2024-09-26T16:22:26.000Z</time>
      </trkpt>
      <trkpt lat="40.73336" lon="19.94054">
        <ele>51.090000152588</ele>
        <time>2024-09-26T16:22:33.000Z</time>
      </trkpt>
      <trkpt lat="40.73325" lon="19.94057">
        <ele>51.569999694824</ele>
        <time>2024-09-26T16:22:34.000Z</time>
      </trkpt>
      <trkpt lat="40.73197" lon="19.94103">
        <ele>51.090000152588</ele>
        <time>2024-09-26T16:22:44.000Z</time>
      </trkpt>
      <trkpt lat="40.73092" lon="19.94142">
        <ele>51.090000152588</ele>
        <time>2024-09-26T16:22:53.000Z</time>
      </trkpt>
      <trkpt lat="40.72959" lon="19.94183">
        <ele>51.090000152588</ele>
        <time>2024-09-26T16:23:06.000Z</time>
      </trkpt>
      <trkpt lat="40.72856" lon="19.94214">
        <ele>51.090000152588</ele>
        <time>2024-09-26T16:23:16.000Z</time>
      </trkpt>
      <trkpt lat="40.72837" lon="19.94219">
        <ele>51.569999694824</ele>
        <time>2024-09-26T16:23:18.000Z</time>
      </trkpt>
      <trkpt lat="40.72835" lon="19.9422">
        <ele>51.569999694824</ele>
        <time>2024-09-26T16:23:19.000Z</time>
      </trkpt>
      <trkpt lat="40.72829" lon="19.94221">
        <ele>51.569999694824</ele>
        <time>2024-09-26T16:23:20.000Z</time>
      </trkpt>
      <trkpt lat="40.72823" lon="19.94219">
        <ele>51.569999694824</ele>
        <time>2024-09-26T16:23:21.000Z</time>
      </trkpt>
      <trkpt lat="40.72819" lon="19.94217">
        <ele>51.569999694824</ele>
        <time>2024-09-26T16:23:22.000Z</time>
      </trkpt>
      <trkpt lat="40.72814" lon="19.94213">
        <ele>51.569999694824</ele>
        <time>2024-09-26T16:23:23.000Z</time>
      </trkpt>
      <trkpt lat="40.72796" lon="19.94206">
        <ele>51.090000152588</ele>
        <time>2024-09-26T16:23:32.000Z</time>
      </trkpt>
      <trkpt lat="40.72792" lon="19.94199">
        <ele>48.200000762939</ele>
        <time>2024-09-26T16:23:39.000Z</time>
      </trkpt>
      <trkpt lat="40.72795" lon="19.94198">
        <ele>48.200000762939</ele>
        <time>2024-09-26T16:23:40.000Z</time>
      </trkpt>
      <trkpt lat="40.72797" lon="19.94198">
        <ele>48.200000762939</ele>
        <time>2024-09-26T16:23:41.000Z</time>
      </trkpt>
      <trkpt lat="40.72801" lon="19.94198">
        <ele>47.720001220703</ele>
        <time>2024-09-26T16:23:42.000Z</time>
      </trkpt>
      <trkpt lat="40.72799" lon="19.94211">
        <ele>48.680000305176</ele>
        <time>2024-09-26T16:23:46.000Z</time>
      </trkpt>
      <trkpt lat="40.72795" lon="19.94211">
        <ele>48.680000305176</ele>
        <time>2024-09-26T16:23:54.000Z</time>
      </trkpt>
      <trkpt lat="40.72791" lon="19.94215">
        <ele>40.990001678467</ele>
        <time>2024-09-26T16:25:55.000Z</time>
      </trkpt>
      <trkpt lat="40.72785" lon="19.94217">
        <ele>51.090000152588</ele>
        <time>2024-09-26T16:29:38.000Z</time>
      </trkpt>
      <trkpt lat="40.72783" lon="19.94219">
        <ele>51.090000152588</ele>
        <time>2024-09-26T16:29:39.000Z</time>
      </trkpt>
      <trkpt lat="40.72774" lon="19.94234">
        <ele>51.090000152588</ele>
        <time>2024-09-26T16:29:42.000Z</time>
      </trkpt>
      <trkpt lat="40.72773" lon="19.94234">
        <ele>51.090000152588</ele>
        <time>2024-09-26T16:29:43.000Z</time>
      </trkpt>
      <trkpt lat="40.72769" lon="19.94238">
        <ele>51.090000152588</ele>
        <time>2024-09-26T16:29:44.000Z</time>
      </trkpt>
      <trkpt lat="40.72763" lon="19.9424">
        <ele>51.090000152588</ele>
        <time>2024-09-26T16:29:45.000Z</time>
      </trkpt>
      <trkpt lat="40.7271" lon="19.94259">
        <ele>51.569999694824</ele>
        <time>2024-09-26T16:29:51.000Z</time>
      </trkpt>
      <trkpt lat="40.72647" lon="19.94278">
        <ele>51.569999694824</ele>
        <time>2024-09-26T16:29:56.000Z</time>
      </trkpt>
      <trkpt lat="40.72641" lon="19.9428">
        <ele>51.569999694824</ele>
        <time>2024-09-26T16:29:57.000Z</time>
      </trkpt>
      <trkpt lat="40.72574" lon="19.94299">
        <ele>52.049999237061</ele>
        <time>2024-09-26T16:30:03.000Z</time>
      </trkpt>
      <trkpt lat="40.72561" lon="19.94302">
        <ele>52.049999237061</ele>
        <time>2024-09-26T16:30:04.000Z</time>
      </trkpt>
      <trkpt lat="40.72489" lon="19.94316">
        <ele>52.049999237061</ele>
        <time>2024-09-26T16:30:11.000Z</time>
      </trkpt>
      <trkpt lat="40.72486" lon="19.94316">
        <ele>52.049999237061</ele>
        <time>2024-09-26T16:30:12.000Z</time>
      </trkpt>
      <trkpt lat="40.7244" lon="19.94321">
        <ele>52.049999237061</ele>
        <time>2024-09-26T16:30:16.000Z</time>
      </trkpt>
      <trkpt lat="40.72427" lon="19.94323">
        <ele>52.049999237061</ele>
        <time>2024-09-26T16:30:17.000Z</time>
      </trkpt>
      <trkpt lat="40.7232" lon="19.94321">
        <ele>51.090000152588</ele>
        <time>2024-09-26T16:30:25.000Z</time>
      </trkpt>
      <trkpt lat="40.723" lon="19.9432">
        <ele>51.090000152588</ele>
        <time>2024-09-26T16:30:27.000Z</time>
      </trkpt>
      <trkpt lat="40.72271" lon="19.94318">
        <ele>51.090000152588</ele>
        <time>2024-09-26T16:30:30.000Z</time>
      </trkpt>
      <trkpt lat="40.72166" lon="19.94314">
        <ele>50.610000610352</ele>
        <time>2024-09-26T16:30:38.000Z</time>
      </trkpt>
      <trkpt lat="40.72131" lon="19.94313">
        <ele>50.610000610352</ele>
        <time>2024-09-26T16:30:42.000Z</time>
      </trkpt>
      <trkpt lat="40.72098" lon="19.94313">
        <ele>50.610000610352</ele>
        <time>2024-09-26T16:30:45.000Z</time>
      </trkpt>
      <trkpt lat="40.72074" lon="19.94312">
        <ele>50.610000610352</ele>
        <time>2024-09-26T16:30:47.000Z</time>
      </trkpt>
      <trkpt lat="40.72" lon="19.94311">
        <ele>50.610000610352</ele>
        <time>2024-09-26T16:30:54.000Z</time>
      </trkpt>
      <trkpt lat="40.71927" lon="19.9431">
        <ele>51.090000152588</ele>
        <time>2024-09-26T16:31:01.000Z</time>
      </trkpt>
      <trkpt lat="40.71894" lon="19.94307">
        <ele>50.610000610352</ele>
        <time>2024-09-26T16:31:04.000Z</time>
      </trkpt>
      <trkpt lat="40.71886" lon="19.94305">
        <ele>50.610000610352</ele>
        <time>2024-09-26T16:31:05.000Z</time>
      </trkpt>
      <trkpt lat="40.71876" lon="19.94301">
        <ele>50.610000610352</ele>
        <time>2024-09-26T16:31:06.000Z</time>
      </trkpt>
      <trkpt lat="40.71864" lon="19.94296">
        <ele>50.610000610352</ele>
        <time>2024-09-26T16:31:07.000Z</time>
      </trkpt>
      <trkpt lat="40.71859" lon="19.94293">
        <ele>50.130001068115</ele>
        <time>2024-09-26T16:31:08.000Z</time>
      </trkpt>
      <trkpt lat="40.71849" lon="19.94286">
        <ele>50.130001068115</ele>
        <time>2024-09-26T16:31:09.000Z</time>
      </trkpt>
      <trkpt lat="40.7184" lon="19.94278">
        <ele>50.130001068115</ele>
        <time>2024-09-26T16:31:10.000Z</time>
      </trkpt>
      <trkpt lat="40.71827" lon="19.94264">
        <ele>49.650001525879</ele>
        <time>2024-09-26T16:31:11.000Z</time>
      </trkpt>
      <trkpt lat="40.71802" lon="19.94234">
        <ele>49.159999847412</ele>
        <time>2024-09-26T16:31:14.000Z</time>
      </trkpt>
      <trkpt lat="40.71721" lon="19.94136">
        <ele>48.680000305176</ele>
        <time>2024-09-26T16:31:23.000Z</time>
      </trkpt>
      <trkpt lat="40.7171" lon="19.94123">
        <ele>48.680000305176</ele>
        <time>2024-09-26T16:31:24.000Z</time>
      </trkpt>
      <trkpt lat="40.7164" lon="19.94043">
        <ele>49.159999847412</ele>
        <time>2024-09-26T16:31:31.000Z</time>
      </trkpt>
      <trkpt lat="40.71607" lon="19.94012">
        <ele>49.650001525879</ele>
        <time>2024-09-26T16:31:35.000Z</time>
      </trkpt>
      <trkpt lat="40.71597" lon="19.94004">
        <ele>49.650001525879</ele>
        <time>2024-09-26T16:31:36.000Z</time>
      </trkpt>
      <trkpt lat="40.71562" lon="19.93983">
        <ele>50.130001068115</ele>
        <time>2024-09-26T16:31:39.000Z</time>
      </trkpt>
      <trkpt lat="40.71417" lon="19.93913">
        <ele>52.529998779297</ele>
        <time>2024-09-26T16:31:51.000Z</time>
      </trkpt>
      <trkpt lat="40.71354" lon="19.93887">
        <ele>52.529998779297</ele>
        <time>2024-09-26T16:31:56.000Z</time>
      </trkpt>
      <trkpt lat="40.71343" lon="19.93882">
        <ele>52.529998779297</ele>
        <time>2024-09-26T16:31:57.000Z</time>
      </trkpt>
      <trkpt lat="40.71284" lon="19.93856">
        <ele>54.450000762939</ele>
        <time>2024-09-26T16:32:05.000Z</time>
      </trkpt>
      <trkpt lat="40.71277" lon="19.93852">
        <ele>54.450000762939</ele>
        <time>2024-09-26T16:32:06.000Z</time>
      </trkpt>
      <trkpt lat="40.7124" lon="19.93828">
        <ele>54.930000305176</ele>
        <time>2024-09-26T16:32:11.000Z</time>
      </trkpt>
      <trkpt lat="40.71185" lon="19.93786">
        <ele>53.970001220703</ele>
        <time>2024-09-26T16:32:19.000Z</time>
      </trkpt>
      <trkpt lat="40.71112" lon="19.93734">
        <ele>53.490001678467</ele>
        <time>2024-09-26T16:32:25.000Z</time>
      </trkpt>
      <trkpt lat="40.7101" lon="19.93657">
        <ele>53.970001220703</ele>
        <time>2024-09-26T16:32:35.000Z</time>
      </trkpt>
      <trkpt lat="40.70894" lon="19.93574">
        <ele>53.970001220703</ele>
        <time>2024-09-26T16:32:46.000Z</time>
      </trkpt>
      <trkpt lat="40.7079" lon="19.93497">
        <ele>54.930000305176</ele>
        <time>2024-09-26T16:32:55.000Z</time>
      </trkpt>
      <trkpt lat="40.70762" lon="19.93477">
        <ele>54.930000305176</ele>
        <time>2024-09-26T16:32:58.000Z</time>
      </trkpt>
      <trkpt lat="40.70754" lon="19.93473">
        <ele>54.930000305176</ele>
        <time>2024-09-26T16:32:59.000Z</time>
      </trkpt>
      <trkpt lat="40.70744" lon="19.93469">
        <ele>54.930000305176</ele>
        <time>2024-09-26T16:33:00.000Z</time>
      </trkpt>
      <trkpt lat="40.70733" lon="19.93466">
        <ele>54.930000305176</ele>
        <time>2024-09-26T16:33:01.000Z</time>
      </trkpt>
      <trkpt lat="40.7072" lon="19.93464">
        <ele>54.450000762939</ele>
        <time>2024-09-26T16:33:02.000Z</time>
      </trkpt>
      <trkpt lat="40.70706" lon="19.93463">
        <ele>54.450000762939</ele>
        <time>2024-09-26T16:33:03.000Z</time>
      </trkpt>
      <trkpt lat="40.70697" lon="19.93463">
        <ele>54.450000762939</ele>
        <time>2024-09-26T16:33:04.000Z</time>
      </trkpt>
      <trkpt lat="40.70684" lon="19.93465">
        <ele>54.450000762939</ele>
        <time>2024-09-26T16:33:05.000Z</time>
      </trkpt>
      <trkpt lat="40.70672" lon="19.93468">
        <ele>54.450000762939</ele>
        <time>2024-09-26T16:33:06.000Z</time>
      </trkpt>
      <trkpt lat="40.70659" lon="19.93474">
        <ele>54.450000762939</ele>
        <time>2024-09-26T16:33:07.000Z</time>
      </trkpt>
      <trkpt lat="40.70648" lon="19.9348">
        <ele>54.450000762939</ele>
        <time>2024-09-26T16:33:08.000Z</time>
      </trkpt>
      <trkpt lat="40.70638" lon="19.93487">
        <ele>54.450000762939</ele>
        <time>2024-09-26T16:33:09.000Z</time>
      </trkpt>
      <trkpt lat="40.70522" lon="19.93592">
        <ele>53.970001220703</ele>
        <time>2024-09-26T16:33:19.000Z</time>
      </trkpt>
      <trkpt lat="40.70411" lon="19.93699">
        <ele>54.450000762939</ele>
        <time>2024-09-26T16:33:29.000Z</time>
      </trkpt>
      <trkpt lat="40.70389" lon="19.93728">
        <ele>55.889999389648</ele>
        <time>2024-09-26T16:33:32.000Z</time>
      </trkpt>
      <trkpt lat="40.70376" lon="19.93749">
        <ele>56.369998931885</ele>
        <time>2024-09-26T16:33:34.000Z</time>
        <extensions>
          <visugpx:TrkExtension xmlns:visugpx="https://www.visugpx.com/editgpx/">
            <visugpx:node>1</visugpx:node>
            </visugpx:TrkExtension>
        </extensions>
      </trkpt>
    </trkseg>
  </trk>
</gpx>